<?xml version="1.0" encoding="UTF-8" standalone="no" ?>
<gpx xmlns="http://www.topografix.com/GPX/1/1" xmlns:xsi="http://www.w3.org/2001/XMLSchema-instance" xsi:schemaLocation="http://www.topografix.com/GPX/1/1 http://www.topografix.com/GPX/1/1/gpx.xsd" version="1.1" creator="VisuGPX - https://www.visugpx.com">
  <metadata>
    <name>2017-07-16 Bike ride-Amberieux en Dombes O via Toussieux</name>
    <desc><![CDATA[2017-07-16 Bike ride-Amberieux en Dombes O via Toussieux]]></desc>
  </metadata>
  <wpt lat="45.92452" lon="4.73715">
    <ele>174</ele>
    <name><![CDATA[2017-07-16 10:47 (Start)]]></name>
  </wpt>
  <wpt lat="45.92456" lon="4.73707">
    <ele>174</ele>
    <name><![CDATA[2017-07-16 10:47 (End)]]></name>
    <desc><![CDATA[Created by Google My Tracks on Android  Name: 2017-07-16 10:47 Activity type: biking Description: - Total distance: 40.72 km (25.3 mi) Total time: 2:17:58 Moving time: 2:06:41 Average speed: 17.71 km/h (11.0 mi/h) Average moving speed: 19.29 km/h (12.0 mi/h) Max speed: 48.84 km/h (30.3 mi/h) Average pace: 3:23 min/km (5:27 min/mi) Average moving pace: 3:07 min/km (5:00 min/mi) Fastest pace: 1:14 min/km (1:59 min/mi) Max elevation: 316 m (1038 ft) Min elevation: 166 m (545 ft) Elevation gain: 610 m (2002 ft) Max grade: 11 % Min grade: -15 % Recorded: 16/07/2017 10:47]]></desc>
  </wpt>
  <trk>
    <name><![CDATA[2017-07-16 10:47]]></name>
    <trkseg>
      <trkpt lat="45.92452" lon="4.73715">
        <ele>174</ele>
        <time>2017-07-16T08:47:24.024Z</time>
      </trkpt>
      <trkpt lat="45.92451" lon="4.73715">
        <ele>174</ele>
        <time>2017-07-16T08:47:44Z</time>
      </trkpt>
      <trkpt lat="45.92457" lon="4.73716">
        <ele>174</ele>
        <time>2017-07-16T08:48:13Z</time>
      </trkpt>
      <trkpt lat="45.92463" lon="4.73712">
        <ele>174</ele>
        <time>2017-07-16T08:48:14Z</time>
      </trkpt>
      <trkpt lat="45.92465" lon="4.73701">
        <ele>174</ele>
        <time>2017-07-16T08:48:20Z</time>
      </trkpt>
      <trkpt lat="45.92465" lon="4.73699">
        <ele>174</ele>
        <time>2017-07-16T08:48:21Z</time>
      </trkpt>
      <trkpt lat="45.92465" lon="4.73686">
        <ele>174</ele>
        <time>2017-07-16T08:48:25Z</time>
      </trkpt>
      <trkpt lat="45.92466" lon="4.73682">
        <ele>174</ele>
        <time>2017-07-16T08:48:26Z</time>
      </trkpt>
      <trkpt lat="45.92466" lon="4.73673">
        <ele>174</ele>
        <time>2017-07-16T08:48:28Z</time>
      </trkpt>
      <trkpt lat="45.92466" lon="4.73668">
        <ele>174</ele>
        <time>2017-07-16T08:48:29Z</time>
      </trkpt>
      <trkpt lat="45.92467" lon="4.73658">
        <ele>174</ele>
        <time>2017-07-16T08:48:31Z</time>
      </trkpt>
      <trkpt lat="45.92468" lon="4.73653">
        <ele>174</ele>
        <time>2017-07-16T08:48:32Z</time>
      </trkpt>
      <trkpt lat="45.92474" lon="4.73647">
        <ele>174</ele>
        <time>2017-07-16T08:48:34Z</time>
      </trkpt>
      <trkpt lat="45.92477" lon="4.73646">
        <ele>174</ele>
        <time>2017-07-16T08:48:35Z</time>
      </trkpt>
      <trkpt lat="45.92484" lon="4.73646">
        <ele>174</ele>
        <time>2017-07-16T08:48:37Z</time>
      </trkpt>
      <trkpt lat="45.92488" lon="4.73645">
        <ele>174</ele>
        <time>2017-07-16T08:48:38Z</time>
      </trkpt>
      <trkpt lat="45.92492" lon="4.73645">
        <ele>174</ele>
        <time>2017-07-16T08:48:39Z</time>
      </trkpt>
      <trkpt lat="45.92497" lon="4.73644">
        <ele>174</ele>
        <time>2017-07-16T08:48:40Z</time>
      </trkpt>
      <trkpt lat="45.92502" lon="4.73645">
        <ele>174</ele>
        <time>2017-07-16T08:48:41Z</time>
      </trkpt>
      <trkpt lat="45.92507" lon="4.73644">
        <ele>174</ele>
        <time>2017-07-16T08:48:42Z</time>
      </trkpt>
      <trkpt lat="45.92512" lon="4.73644">
        <ele>174</ele>
        <time>2017-07-16T08:48:43Z</time>
      </trkpt>
      <trkpt lat="45.92518" lon="4.73644">
        <ele>174</ele>
        <time>2017-07-16T08:48:44Z</time>
      </trkpt>
      <trkpt lat="45.92524" lon="4.73644">
        <ele>173</ele>
        <time>2017-07-16T08:48:45Z</time>
      </trkpt>
      <trkpt lat="45.92529" lon="4.73644">
        <ele>173</ele>
        <time>2017-07-16T08:48:46Z</time>
      </trkpt>
      <trkpt lat="45.92535" lon="4.73644">
        <ele>173</ele>
        <time>2017-07-16T08:48:47Z</time>
      </trkpt>
      <trkpt lat="45.9254" lon="4.73643">
        <ele>173</ele>
        <time>2017-07-16T08:48:48Z</time>
      </trkpt>
      <trkpt lat="45.92548" lon="4.7364">
        <ele>173</ele>
        <time>2017-07-16T08:48:50Z</time>
      </trkpt>
      <trkpt lat="45.92552" lon="4.73639">
        <ele>173</ele>
        <time>2017-07-16T08:48:51Z</time>
      </trkpt>
      <trkpt lat="45.9256" lon="4.73636">
        <ele>173</ele>
        <time>2017-07-16T08:48:53Z</time>
      </trkpt>
      <trkpt lat="45.92565" lon="4.73634">
        <ele>173</ele>
        <time>2017-07-16T08:48:54Z</time>
      </trkpt>
      <trkpt lat="45.9257" lon="4.73633">
        <ele>173</ele>
        <time>2017-07-16T08:48:55Z</time>
      </trkpt>
      <trkpt lat="45.92574" lon="4.73632">
        <ele>173</ele>
        <time>2017-07-16T08:48:56Z</time>
      </trkpt>
      <trkpt lat="45.92579" lon="4.7363">
        <ele>173</ele>
        <time>2017-07-16T08:48:57Z</time>
      </trkpt>
      <trkpt lat="45.92584" lon="4.73629">
        <ele>172</ele>
        <time>2017-07-16T08:48:58Z</time>
      </trkpt>
      <trkpt lat="45.92589" lon="4.73628">
        <ele>172</ele>
        <time>2017-07-16T08:48:59Z</time>
      </trkpt>
      <trkpt lat="45.92594" lon="4.73628">
        <ele>172</ele>
        <time>2017-07-16T08:49:00Z</time>
      </trkpt>
      <trkpt lat="45.92598" lon="4.73628">
        <ele>173</ele>
        <time>2017-07-16T08:49:01Z</time>
      </trkpt>
      <trkpt lat="45.92603" lon="4.73628">
        <ele>173</ele>
        <time>2017-07-16T08:49:02Z</time>
      </trkpt>
      <trkpt lat="45.92608" lon="4.73629">
        <ele>173</ele>
        <time>2017-07-16T08:49:03Z</time>
      </trkpt>
      <trkpt lat="45.92613" lon="4.73631">
        <ele>173</ele>
        <time>2017-07-16T08:49:04Z</time>
      </trkpt>
      <trkpt lat="45.92618" lon="4.73635">
        <ele>173</ele>
        <time>2017-07-16T08:49:05Z</time>
      </trkpt>
      <trkpt lat="45.92621" lon="4.73639">
        <ele>173</ele>
        <time>2017-07-16T08:49:06Z</time>
      </trkpt>
      <trkpt lat="45.92624" lon="4.73645">
        <ele>173</ele>
        <time>2017-07-16T08:49:07Z</time>
      </trkpt>
      <trkpt lat="45.92627" lon="4.7365">
        <ele>173</ele>
        <time>2017-07-16T08:49:08Z</time>
      </trkpt>
      <trkpt lat="45.9263" lon="4.73656">
        <ele>173</ele>
        <time>2017-07-16T08:49:09Z</time>
      </trkpt>
      <trkpt lat="45.92633" lon="4.73662">
        <ele>173</ele>
        <time>2017-07-16T08:49:10Z</time>
      </trkpt>
      <trkpt lat="45.92637" lon="4.73669">
        <ele>173</ele>
        <time>2017-07-16T08:49:11Z</time>
      </trkpt>
      <trkpt lat="45.92641" lon="4.73675">
        <ele>173</ele>
        <time>2017-07-16T08:49:12Z</time>
      </trkpt>
      <trkpt lat="45.92645" lon="4.73681">
        <ele>173</ele>
        <time>2017-07-16T08:49:13Z</time>
      </trkpt>
      <trkpt lat="45.92649" lon="4.73687">
        <ele>173</ele>
        <time>2017-07-16T08:49:14Z</time>
      </trkpt>
      <trkpt lat="45.92655" lon="4.73691">
        <ele>173</ele>
        <time>2017-07-16T08:49:15Z</time>
      </trkpt>
      <trkpt lat="45.9266" lon="4.73696">
        <ele>173</ele>
        <time>2017-07-16T08:49:16Z</time>
      </trkpt>
      <trkpt lat="45.92665" lon="4.737">
        <ele>173</ele>
        <time>2017-07-16T08:49:17Z</time>
      </trkpt>
      <trkpt lat="45.9267" lon="4.73703">
        <ele>174</ele>
        <time>2017-07-16T08:49:18Z</time>
      </trkpt>
      <trkpt lat="45.92674" lon="4.73705">
        <ele>174</ele>
        <time>2017-07-16T08:49:19Z</time>
      </trkpt>
      <trkpt lat="45.92678" lon="4.73707">
        <ele>173</ele>
        <time>2017-07-16T08:49:20Z</time>
      </trkpt>
      <trkpt lat="45.92683" lon="4.73709">
        <ele>173</ele>
        <time>2017-07-16T08:49:21Z</time>
      </trkpt>
      <trkpt lat="45.92688" lon="4.7371">
        <ele>173</ele>
        <time>2017-07-16T08:49:22Z</time>
      </trkpt>
      <trkpt lat="45.92693" lon="4.73711">
        <ele>173</ele>
        <time>2017-07-16T08:49:23Z</time>
      </trkpt>
      <trkpt lat="45.92698" lon="4.73713">
        <ele>173</ele>
        <time>2017-07-16T08:49:24Z</time>
      </trkpt>
      <trkpt lat="45.92704" lon="4.73714">
        <ele>173</ele>
        <time>2017-07-16T08:49:25Z</time>
      </trkpt>
      <trkpt lat="45.92709" lon="4.73715">
        <ele>173</ele>
        <time>2017-07-16T08:49:26Z</time>
      </trkpt>
      <trkpt lat="45.92714" lon="4.73717">
        <ele>173</ele>
        <time>2017-07-16T08:49:27Z</time>
      </trkpt>
      <trkpt lat="45.92719" lon="4.73718">
        <ele>173</ele>
        <time>2017-07-16T08:49:28Z</time>
      </trkpt>
      <trkpt lat="45.92725" lon="4.7372">
        <ele>173</ele>
        <time>2017-07-16T08:49:29Z</time>
      </trkpt>
      <trkpt lat="45.9273" lon="4.73721">
        <ele>173</ele>
        <time>2017-07-16T08:49:30Z</time>
      </trkpt>
      <trkpt lat="45.92734" lon="4.73722">
        <ele>173</ele>
        <time>2017-07-16T08:49:31Z</time>
      </trkpt>
      <trkpt lat="45.92739" lon="4.73723">
        <ele>173</ele>
        <time>2017-07-16T08:49:32Z</time>
      </trkpt>
      <trkpt lat="45.92743" lon="4.73724">
        <ele>173</ele>
        <time>2017-07-16T08:49:33Z</time>
      </trkpt>
      <trkpt lat="45.92748" lon="4.73725">
        <ele>173</ele>
        <time>2017-07-16T08:49:34Z</time>
      </trkpt>
      <trkpt lat="45.92757" lon="4.73727">
        <ele>172</ele>
        <time>2017-07-16T08:49:36Z</time>
      </trkpt>
      <trkpt lat="45.92762" lon="4.73728">
        <ele>172</ele>
        <time>2017-07-16T08:49:37Z</time>
      </trkpt>
      <trkpt lat="45.9277" lon="4.73731">
        <ele>172</ele>
        <time>2017-07-16T08:49:39Z</time>
      </trkpt>
      <trkpt lat="45.92774" lon="4.73733">
        <ele>172</ele>
        <time>2017-07-16T08:49:40Z</time>
      </trkpt>
      <trkpt lat="45.92781" lon="4.73735">
        <ele>172</ele>
        <time>2017-07-16T08:49:42Z</time>
      </trkpt>
      <trkpt lat="45.92784" lon="4.73733">
        <ele>172</ele>
        <time>2017-07-16T08:49:43Z</time>
      </trkpt>
      <trkpt lat="45.92789" lon="4.73723">
        <ele>172</ele>
        <time>2017-07-16T08:49:45Z</time>
      </trkpt>
      <trkpt lat="45.92789" lon="4.73717">
        <ele>172</ele>
        <time>2017-07-16T08:49:46Z</time>
      </trkpt>
      <trkpt lat="45.92789" lon="4.73711">
        <ele>172</ele>
        <time>2017-07-16T08:49:47Z</time>
      </trkpt>
      <trkpt lat="45.9279" lon="4.73703">
        <ele>172</ele>
        <time>2017-07-16T08:49:48Z</time>
      </trkpt>
      <trkpt lat="45.92791" lon="4.73696">
        <ele>172</ele>
        <time>2017-07-16T08:49:49Z</time>
      </trkpt>
      <trkpt lat="45.92793" lon="4.73689">
        <ele>172</ele>
        <time>2017-07-16T08:49:50Z</time>
      </trkpt>
      <trkpt lat="45.92794" lon="4.73682">
        <ele>172</ele>
        <time>2017-07-16T08:49:51Z</time>
      </trkpt>
      <trkpt lat="45.92796" lon="4.73675">
        <ele>172</ele>
        <time>2017-07-16T08:49:52Z</time>
      </trkpt>
      <trkpt lat="45.92797" lon="4.73669">
        <ele>172</ele>
        <time>2017-07-16T08:49:53Z</time>
      </trkpt>
      <trkpt lat="45.92799" lon="4.73662">
        <ele>172</ele>
        <time>2017-07-16T08:49:54Z</time>
      </trkpt>
      <trkpt lat="45.928" lon="4.73655">
        <ele>172</ele>
        <time>2017-07-16T08:49:55Z</time>
      </trkpt>
      <trkpt lat="45.92803" lon="4.73649">
        <ele>172</ele>
        <time>2017-07-16T08:49:56Z</time>
      </trkpt>
      <trkpt lat="45.92807" lon="4.73638">
        <ele>172</ele>
        <time>2017-07-16T08:49:58Z</time>
      </trkpt>
      <trkpt lat="45.9281" lon="4.73634">
        <ele>172</ele>
        <time>2017-07-16T08:49:59Z</time>
      </trkpt>
      <trkpt lat="45.92815" lon="4.73626">
        <ele>172</ele>
        <time>2017-07-16T08:50:01Z</time>
      </trkpt>
      <trkpt lat="45.92816" lon="4.7362">
        <ele>172</ele>
        <time>2017-07-16T08:50:02Z</time>
      </trkpt>
      <trkpt lat="45.92818" lon="4.73614">
        <ele>172</ele>
        <time>2017-07-16T08:50:03Z</time>
      </trkpt>
      <trkpt lat="45.92818" lon="4.73607">
        <ele>172</ele>
        <time>2017-07-16T08:50:04Z</time>
      </trkpt>
      <trkpt lat="45.92819" lon="4.73599">
        <ele>171</ele>
        <time>2017-07-16T08:50:05Z</time>
      </trkpt>
      <trkpt lat="45.92819" lon="4.73591">
        <ele>171</ele>
        <time>2017-07-16T08:50:06Z</time>
      </trkpt>
      <trkpt lat="45.9282" lon="4.73584">
        <ele>171</ele>
        <time>2017-07-16T08:50:07Z</time>
      </trkpt>
      <trkpt lat="45.9282" lon="4.73576">
        <ele>171</ele>
        <time>2017-07-16T08:50:08Z</time>
      </trkpt>
      <trkpt lat="45.9282" lon="4.73568">
        <ele>171</ele>
        <time>2017-07-16T08:50:09Z</time>
      </trkpt>
      <trkpt lat="45.92821" lon="4.7356">
        <ele>171</ele>
        <time>2017-07-16T08:50:10Z</time>
      </trkpt>
      <trkpt lat="45.92821" lon="4.73551">
        <ele>171</ele>
        <time>2017-07-16T08:50:11Z</time>
      </trkpt>
      <trkpt lat="45.92822" lon="4.73543">
        <ele>171</ele>
        <time>2017-07-16T08:50:12Z</time>
      </trkpt>
      <trkpt lat="45.92823" lon="4.73535">
        <ele>172</ele>
        <time>2017-07-16T08:50:13Z</time>
      </trkpt>
      <trkpt lat="45.92824" lon="4.73527">
        <ele>172</ele>
        <time>2017-07-16T08:50:14Z</time>
      </trkpt>
      <trkpt lat="45.92824" lon="4.73518">
        <ele>172</ele>
        <time>2017-07-16T08:50:15Z</time>
      </trkpt>
      <trkpt lat="45.92825" lon="4.7351">
        <ele>172</ele>
        <time>2017-07-16T08:50:16Z</time>
      </trkpt>
      <trkpt lat="45.92826" lon="4.735">
        <ele>172</ele>
        <time>2017-07-16T08:50:17Z</time>
      </trkpt>
      <trkpt lat="45.92826" lon="4.73491">
        <ele>172</ele>
        <time>2017-07-16T08:50:18Z</time>
      </trkpt>
      <trkpt lat="45.92827" lon="4.73482">
        <ele>172</ele>
        <time>2017-07-16T08:50:19Z</time>
      </trkpt>
      <trkpt lat="45.92828" lon="4.73474">
        <ele>172</ele>
        <time>2017-07-16T08:50:20Z</time>
      </trkpt>
      <trkpt lat="45.92829" lon="4.73465">
        <ele>172</ele>
        <time>2017-07-16T08:50:21Z</time>
      </trkpt>
      <trkpt lat="45.92831" lon="4.73457">
        <ele>172</ele>
        <time>2017-07-16T08:50:22Z</time>
      </trkpt>
      <trkpt lat="45.92832" lon="4.7345">
        <ele>172</ele>
        <time>2017-07-16T08:50:23Z</time>
      </trkpt>
      <trkpt lat="45.92834" lon="4.73442">
        <ele>172</ele>
        <time>2017-07-16T08:50:24Z</time>
      </trkpt>
      <trkpt lat="45.92835" lon="4.73435">
        <ele>172</ele>
        <time>2017-07-16T08:50:25Z</time>
      </trkpt>
      <trkpt lat="45.92836" lon="4.73427">
        <ele>172</ele>
        <time>2017-07-16T08:50:26Z</time>
      </trkpt>
      <trkpt lat="45.92837" lon="4.7342">
        <ele>172</ele>
        <time>2017-07-16T08:50:27Z</time>
      </trkpt>
      <trkpt lat="45.92837" lon="4.73412">
        <ele>172</ele>
        <time>2017-07-16T08:50:28Z</time>
      </trkpt>
      <trkpt lat="45.92838" lon="4.73404">
        <ele>172</ele>
        <time>2017-07-16T08:50:29Z</time>
      </trkpt>
      <trkpt lat="45.92839" lon="4.73395">
        <ele>172</ele>
        <time>2017-07-16T08:50:30Z</time>
      </trkpt>
      <trkpt lat="45.9284" lon="4.73387">
        <ele>172</ele>
        <time>2017-07-16T08:50:31Z</time>
      </trkpt>
      <trkpt lat="45.92841" lon="4.73378">
        <ele>172</ele>
        <time>2017-07-16T08:50:32Z</time>
      </trkpt>
      <trkpt lat="45.92842" lon="4.73369">
        <ele>171</ele>
        <time>2017-07-16T08:50:33Z</time>
      </trkpt>
      <trkpt lat="45.92843" lon="4.73361">
        <ele>171</ele>
        <time>2017-07-16T08:50:34Z</time>
      </trkpt>
      <trkpt lat="45.92844" lon="4.73352">
        <ele>171</ele>
        <time>2017-07-16T08:50:35Z</time>
      </trkpt>
      <trkpt lat="45.92845" lon="4.73344">
        <ele>171</ele>
        <time>2017-07-16T08:50:36Z</time>
      </trkpt>
      <trkpt lat="45.92846" lon="4.73336">
        <ele>171</ele>
        <time>2017-07-16T08:50:37Z</time>
      </trkpt>
      <trkpt lat="45.92847" lon="4.73327">
        <ele>171</ele>
        <time>2017-07-16T08:50:38Z</time>
      </trkpt>
      <trkpt lat="45.92848" lon="4.73319">
        <ele>171</ele>
        <time>2017-07-16T08:50:39Z</time>
      </trkpt>
      <trkpt lat="45.92849" lon="4.73311">
        <ele>171</ele>
        <time>2017-07-16T08:50:40Z</time>
      </trkpt>
      <trkpt lat="45.9285" lon="4.73304">
        <ele>171</ele>
        <time>2017-07-16T08:50:41Z</time>
      </trkpt>
      <trkpt lat="45.92851" lon="4.73296">
        <ele>171</ele>
        <time>2017-07-16T08:50:42Z</time>
      </trkpt>
      <trkpt lat="45.92852" lon="4.73287">
        <ele>171</ele>
        <time>2017-07-16T08:50:43Z</time>
      </trkpt>
      <trkpt lat="45.92853" lon="4.73279">
        <ele>171</ele>
        <time>2017-07-16T08:50:44Z</time>
      </trkpt>
      <trkpt lat="45.92854" lon="4.7327">
        <ele>171</ele>
        <time>2017-07-16T08:50:45Z</time>
      </trkpt>
      <trkpt lat="45.92855" lon="4.73261">
        <ele>171</ele>
        <time>2017-07-16T08:50:46Z</time>
      </trkpt>
      <trkpt lat="45.92856" lon="4.73252">
        <ele>171</ele>
        <time>2017-07-16T08:50:47Z</time>
      </trkpt>
      <trkpt lat="45.92856" lon="4.73244">
        <ele>171</ele>
        <time>2017-07-16T08:50:48Z</time>
      </trkpt>
      <trkpt lat="45.92857" lon="4.73234">
        <ele>171</ele>
        <time>2017-07-16T08:50:49Z</time>
      </trkpt>
      <trkpt lat="45.92859" lon="4.73225">
        <ele>171</ele>
        <time>2017-07-16T08:50:50Z</time>
      </trkpt>
      <trkpt lat="45.9286" lon="4.73217">
        <ele>171</ele>
        <time>2017-07-16T08:50:51Z</time>
      </trkpt>
      <trkpt lat="45.92861" lon="4.73208">
        <ele>171</ele>
        <time>2017-07-16T08:50:52Z</time>
      </trkpt>
      <trkpt lat="45.92862" lon="4.73201">
        <ele>171</ele>
        <time>2017-07-16T08:50:53Z</time>
      </trkpt>
      <trkpt lat="45.92863" lon="4.73193">
        <ele>171</ele>
        <time>2017-07-16T08:50:54Z</time>
      </trkpt>
      <trkpt lat="45.92864" lon="4.73185">
        <ele>171</ele>
        <time>2017-07-16T08:50:55Z</time>
      </trkpt>
      <trkpt lat="45.92865" lon="4.73178">
        <ele>171</ele>
        <time>2017-07-16T08:50:56Z</time>
      </trkpt>
      <trkpt lat="45.92866" lon="4.7317">
        <ele>171</ele>
        <time>2017-07-16T08:50:57Z</time>
      </trkpt>
      <trkpt lat="45.92867" lon="4.73163">
        <ele>171</ele>
        <time>2017-07-16T08:50:58Z</time>
      </trkpt>
      <trkpt lat="45.92868" lon="4.73155">
        <ele>171</ele>
        <time>2017-07-16T08:50:59Z</time>
      </trkpt>
      <trkpt lat="45.92869" lon="4.73146">
        <ele>171</ele>
        <time>2017-07-16T08:51:00Z</time>
      </trkpt>
      <trkpt lat="45.92871" lon="4.73138">
        <ele>171</ele>
        <time>2017-07-16T08:51:01Z</time>
      </trkpt>
      <trkpt lat="45.92872" lon="4.73129">
        <ele>171</ele>
        <time>2017-07-16T08:51:02Z</time>
      </trkpt>
      <trkpt lat="45.92873" lon="4.73121">
        <ele>172</ele>
        <time>2017-07-16T08:51:03Z</time>
      </trkpt>
      <trkpt lat="45.92876" lon="4.73113">
        <ele>172</ele>
        <time>2017-07-16T08:51:04Z</time>
      </trkpt>
      <trkpt lat="45.92878" lon="4.73104">
        <ele>172</ele>
        <time>2017-07-16T08:51:05Z</time>
      </trkpt>
      <trkpt lat="45.9288" lon="4.73097">
        <ele>172</ele>
        <time>2017-07-16T08:51:06Z</time>
      </trkpt>
      <trkpt lat="45.92883" lon="4.7309">
        <ele>172</ele>
        <time>2017-07-16T08:51:07Z</time>
      </trkpt>
      <trkpt lat="45.92886" lon="4.73083">
        <ele>172</ele>
        <time>2017-07-16T08:51:08Z</time>
      </trkpt>
      <trkpt lat="45.92888" lon="4.73077">
        <ele>172</ele>
        <time>2017-07-16T08:51:09Z</time>
      </trkpt>
      <trkpt lat="45.92892" lon="4.73071">
        <ele>172</ele>
        <time>2017-07-16T08:51:10Z</time>
      </trkpt>
      <trkpt lat="45.92895" lon="4.73064">
        <ele>172</ele>
        <time>2017-07-16T08:51:11Z</time>
      </trkpt>
      <trkpt lat="45.92899" lon="4.73058">
        <ele>172</ele>
        <time>2017-07-16T08:51:12Z</time>
      </trkpt>
      <trkpt lat="45.92902" lon="4.73052">
        <ele>172</ele>
        <time>2017-07-16T08:51:13Z</time>
      </trkpt>
      <trkpt lat="45.92906" lon="4.73046">
        <ele>172</ele>
        <time>2017-07-16T08:51:14Z</time>
      </trkpt>
      <trkpt lat="45.9291" lon="4.73039">
        <ele>172</ele>
        <time>2017-07-16T08:51:15Z</time>
      </trkpt>
      <trkpt lat="45.92914" lon="4.73034">
        <ele>172</ele>
        <time>2017-07-16T08:51:16Z</time>
      </trkpt>
      <trkpt lat="45.92918" lon="4.73028">
        <ele>172</ele>
        <time>2017-07-16T08:51:17Z</time>
      </trkpt>
      <trkpt lat="45.92922" lon="4.73022">
        <ele>172</ele>
        <time>2017-07-16T08:51:18Z</time>
      </trkpt>
      <trkpt lat="45.92926" lon="4.73017">
        <ele>171</ele>
        <time>2017-07-16T08:51:19Z</time>
      </trkpt>
      <trkpt lat="45.92931" lon="4.73012">
        <ele>171</ele>
        <time>2017-07-16T08:51:20Z</time>
      </trkpt>
      <trkpt lat="45.92936" lon="4.73006">
        <ele>171</ele>
        <time>2017-07-16T08:51:21Z</time>
      </trkpt>
      <trkpt lat="45.9294" lon="4.73001">
        <ele>171</ele>
        <time>2017-07-16T08:51:22Z</time>
      </trkpt>
      <trkpt lat="45.92945" lon="4.72996">
        <ele>171</ele>
        <time>2017-07-16T08:51:23Z</time>
      </trkpt>
      <trkpt lat="45.92949" lon="4.7299">
        <ele>171</ele>
        <time>2017-07-16T08:51:24Z</time>
      </trkpt>
      <trkpt lat="45.92953" lon="4.72986">
        <ele>171</ele>
        <time>2017-07-16T08:51:25Z</time>
      </trkpt>
      <trkpt lat="45.92958" lon="4.7298">
        <ele>171</ele>
        <time>2017-07-16T08:51:26Z</time>
      </trkpt>
      <trkpt lat="45.92963" lon="4.72975">
        <ele>171</ele>
        <time>2017-07-16T08:51:27Z</time>
      </trkpt>
      <trkpt lat="45.92967" lon="4.7297">
        <ele>171</ele>
        <time>2017-07-16T08:51:28Z</time>
      </trkpt>
      <trkpt lat="45.92972" lon="4.72964">
        <ele>171</ele>
        <time>2017-07-16T08:51:29Z</time>
      </trkpt>
      <trkpt lat="45.92977" lon="4.72959">
        <ele>171</ele>
        <time>2017-07-16T08:51:30Z</time>
      </trkpt>
      <trkpt lat="45.92981" lon="4.72954">
        <ele>171</ele>
        <time>2017-07-16T08:51:31Z</time>
      </trkpt>
      <trkpt lat="45.92986" lon="4.72949">
        <ele>171</ele>
        <time>2017-07-16T08:51:32Z</time>
      </trkpt>
      <trkpt lat="45.92989" lon="4.72944">
        <ele>171</ele>
        <time>2017-07-16T08:51:33Z</time>
      </trkpt>
      <trkpt lat="45.92993" lon="4.72939">
        <ele>171</ele>
        <time>2017-07-16T08:51:34Z</time>
      </trkpt>
      <trkpt lat="45.92997" lon="4.72934">
        <ele>171</ele>
        <time>2017-07-16T08:51:35Z</time>
      </trkpt>
      <trkpt lat="45.93001" lon="4.7293">
        <ele>170</ele>
        <time>2017-07-16T08:51:36Z</time>
      </trkpt>
      <trkpt lat="45.93005" lon="4.72925">
        <ele>170</ele>
        <time>2017-07-16T08:51:37Z</time>
      </trkpt>
      <trkpt lat="45.9301" lon="4.72919">
        <ele>170</ele>
        <time>2017-07-16T08:51:38Z</time>
      </trkpt>
      <trkpt lat="45.93014" lon="4.72914">
        <ele>171</ele>
        <time>2017-07-16T08:51:39Z</time>
      </trkpt>
      <trkpt lat="45.93018" lon="4.72909">
        <ele>171</ele>
        <time>2017-07-16T08:51:40Z</time>
      </trkpt>
      <trkpt lat="45.93022" lon="4.72904">
        <ele>172</ele>
        <time>2017-07-16T08:51:41Z</time>
      </trkpt>
      <trkpt lat="45.93027" lon="4.72898">
        <ele>172</ele>
        <time>2017-07-16T08:51:42Z</time>
      </trkpt>
      <trkpt lat="45.93032" lon="4.72893">
        <ele>172</ele>
        <time>2017-07-16T08:51:43Z</time>
      </trkpt>
      <trkpt lat="45.93036" lon="4.72888">
        <ele>172</ele>
        <time>2017-07-16T08:51:44Z</time>
      </trkpt>
      <trkpt lat="45.9304" lon="4.72883">
        <ele>172</ele>
        <time>2017-07-16T08:51:45Z</time>
      </trkpt>
      <trkpt lat="45.93044" lon="4.72878">
        <ele>172</ele>
        <time>2017-07-16T08:51:46Z</time>
      </trkpt>
      <trkpt lat="45.93048" lon="4.72873">
        <ele>172</ele>
        <time>2017-07-16T08:51:47Z</time>
      </trkpt>
      <trkpt lat="45.93052" lon="4.72869">
        <ele>172</ele>
        <time>2017-07-16T08:51:48Z</time>
      </trkpt>
      <trkpt lat="45.93056" lon="4.72864">
        <ele>172</ele>
        <time>2017-07-16T08:51:49Z</time>
      </trkpt>
      <trkpt lat="45.93059" lon="4.72861">
        <ele>172</ele>
        <time>2017-07-16T08:51:50Z</time>
      </trkpt>
      <trkpt lat="45.93063" lon="4.72856">
        <ele>172</ele>
        <time>2017-07-16T08:51:51Z</time>
      </trkpt>
      <trkpt lat="45.93067" lon="4.72852">
        <ele>172</ele>
        <time>2017-07-16T08:51:52Z</time>
      </trkpt>
      <trkpt lat="45.93071" lon="4.72847">
        <ele>172</ele>
        <time>2017-07-16T08:51:53Z</time>
      </trkpt>
      <trkpt lat="45.93075" lon="4.72842">
        <ele>173</ele>
        <time>2017-07-16T08:51:54Z</time>
      </trkpt>
      <trkpt lat="45.93079" lon="4.72838">
        <ele>173</ele>
        <time>2017-07-16T08:51:55Z</time>
      </trkpt>
      <trkpt lat="45.93083" lon="4.72833">
        <ele>173</ele>
        <time>2017-07-16T08:51:56Z</time>
      </trkpt>
      <trkpt lat="45.93089" lon="4.72829">
        <ele>172</ele>
        <time>2017-07-16T08:51:57Z</time>
      </trkpt>
      <trkpt lat="45.93095" lon="4.72824">
        <ele>172</ele>
        <time>2017-07-16T08:51:58Z</time>
      </trkpt>
      <trkpt lat="45.931" lon="4.72819">
        <ele>172</ele>
        <time>2017-07-16T08:51:59Z</time>
      </trkpt>
      <trkpt lat="45.93104" lon="4.72815">
        <ele>172</ele>
        <time>2017-07-16T08:52:00Z</time>
      </trkpt>
      <trkpt lat="45.93108" lon="4.7281">
        <ele>171</ele>
        <time>2017-07-16T08:52:01Z</time>
      </trkpt>
      <trkpt lat="45.93112" lon="4.72805">
        <ele>171</ele>
        <time>2017-07-16T08:52:02Z</time>
      </trkpt>
      <trkpt lat="45.93117" lon="4.72799">
        <ele>171</ele>
        <time>2017-07-16T08:52:03Z</time>
      </trkpt>
      <trkpt lat="45.93122" lon="4.72793">
        <ele>171</ele>
        <time>2017-07-16T08:52:04Z</time>
      </trkpt>
      <trkpt lat="45.93127" lon="4.72788">
        <ele>171</ele>
        <time>2017-07-16T08:52:05Z</time>
      </trkpt>
      <trkpt lat="45.93131" lon="4.72783">
        <ele>171</ele>
        <time>2017-07-16T08:52:06Z</time>
      </trkpt>
      <trkpt lat="45.93135" lon="4.72777">
        <ele>171</ele>
        <time>2017-07-16T08:52:07Z</time>
      </trkpt>
      <trkpt lat="45.9314" lon="4.7277">
        <ele>171</ele>
        <time>2017-07-16T08:52:08Z</time>
      </trkpt>
      <trkpt lat="45.93145" lon="4.72765">
        <ele>171</ele>
        <time>2017-07-16T08:52:09Z</time>
      </trkpt>
      <trkpt lat="45.93149" lon="4.72759">
        <ele>170</ele>
        <time>2017-07-16T08:52:10Z</time>
      </trkpt>
      <trkpt lat="45.93154" lon="4.72753">
        <ele>170</ele>
        <time>2017-07-16T08:52:11Z</time>
      </trkpt>
      <trkpt lat="45.93158" lon="4.72747">
        <ele>170</ele>
        <time>2017-07-16T08:52:12Z</time>
      </trkpt>
      <trkpt lat="45.93162" lon="4.72742">
        <ele>170</ele>
        <time>2017-07-16T08:52:13Z</time>
      </trkpt>
      <trkpt lat="45.93166" lon="4.72737">
        <ele>170</ele>
        <time>2017-07-16T08:52:14Z</time>
      </trkpt>
      <trkpt lat="45.9317" lon="4.72731">
        <ele>170</ele>
        <time>2017-07-16T08:52:15Z</time>
      </trkpt>
      <trkpt lat="45.93174" lon="4.72726">
        <ele>170</ele>
        <time>2017-07-16T08:52:16Z</time>
      </trkpt>
      <trkpt lat="45.93177" lon="4.72722">
        <ele>170</ele>
        <time>2017-07-16T08:52:17Z</time>
      </trkpt>
      <trkpt lat="45.93181" lon="4.72717">
        <ele>169</ele>
        <time>2017-07-16T08:52:18Z</time>
      </trkpt>
      <trkpt lat="45.93184" lon="4.72712">
        <ele>169</ele>
        <time>2017-07-16T08:52:19Z</time>
      </trkpt>
      <trkpt lat="45.93189" lon="4.72707">
        <ele>169</ele>
        <time>2017-07-16T08:52:20Z</time>
      </trkpt>
      <trkpt lat="45.93194" lon="4.72702">
        <ele>169</ele>
        <time>2017-07-16T08:52:21Z</time>
      </trkpt>
      <trkpt lat="45.93198" lon="4.72696">
        <ele>169</ele>
        <time>2017-07-16T08:52:22Z</time>
      </trkpt>
      <trkpt lat="45.93203" lon="4.72691">
        <ele>169</ele>
        <time>2017-07-16T08:52:23Z</time>
      </trkpt>
      <trkpt lat="45.93208" lon="4.72685">
        <ele>169</ele>
        <time>2017-07-16T08:52:24Z</time>
      </trkpt>
      <trkpt lat="45.93212" lon="4.7268">
        <ele>169</ele>
        <time>2017-07-16T08:52:25Z</time>
      </trkpt>
      <trkpt lat="45.93217" lon="4.72675">
        <ele>169</ele>
        <time>2017-07-16T08:52:26Z</time>
      </trkpt>
      <trkpt lat="45.93221" lon="4.72669">
        <ele>169</ele>
        <time>2017-07-16T08:52:27Z</time>
      </trkpt>
      <trkpt lat="45.93226" lon="4.72664">
        <ele>170</ele>
        <time>2017-07-16T08:52:28Z</time>
      </trkpt>
      <trkpt lat="45.9323" lon="4.7266">
        <ele>169</ele>
        <time>2017-07-16T08:52:29Z</time>
      </trkpt>
      <trkpt lat="45.93234" lon="4.72655">
        <ele>169</ele>
        <time>2017-07-16T08:52:30Z</time>
      </trkpt>
      <trkpt lat="45.93238" lon="4.7265">
        <ele>169</ele>
        <time>2017-07-16T08:52:31Z</time>
      </trkpt>
      <trkpt lat="45.93242" lon="4.72645">
        <ele>170</ele>
        <time>2017-07-16T08:52:32Z</time>
      </trkpt>
      <trkpt lat="45.93247" lon="4.7264">
        <ele>170</ele>
        <time>2017-07-16T08:52:33Z</time>
      </trkpt>
      <trkpt lat="45.93251" lon="4.72635">
        <ele>170</ele>
        <time>2017-07-16T08:52:34Z</time>
      </trkpt>
      <trkpt lat="45.93256" lon="4.72629">
        <ele>170</ele>
        <time>2017-07-16T08:52:35Z</time>
      </trkpt>
      <trkpt lat="45.9326" lon="4.72624">
        <ele>170</ele>
        <time>2017-07-16T08:52:36Z</time>
      </trkpt>
      <trkpt lat="45.93265" lon="4.72619">
        <ele>170</ele>
        <time>2017-07-16T08:52:37Z</time>
      </trkpt>
      <trkpt lat="45.93269" lon="4.72615">
        <ele>170</ele>
        <time>2017-07-16T08:52:38Z</time>
      </trkpt>
      <trkpt lat="45.93273" lon="4.7261">
        <ele>170</ele>
        <time>2017-07-16T08:52:39Z</time>
      </trkpt>
      <trkpt lat="45.93277" lon="4.72606">
        <ele>170</ele>
        <time>2017-07-16T08:52:40Z</time>
      </trkpt>
      <trkpt lat="45.9328" lon="4.72602">
        <ele>170</ele>
        <time>2017-07-16T08:52:41Z</time>
      </trkpt>
      <trkpt lat="45.93284" lon="4.72597">
        <ele>170</ele>
        <time>2017-07-16T08:52:42Z</time>
      </trkpt>
      <trkpt lat="45.93288" lon="4.72592">
        <ele>170</ele>
        <time>2017-07-16T08:52:43Z</time>
      </trkpt>
      <trkpt lat="45.93292" lon="4.72587">
        <ele>170</ele>
        <time>2017-07-16T08:52:44Z</time>
      </trkpt>
      <trkpt lat="45.93297" lon="4.72582">
        <ele>171</ele>
        <time>2017-07-16T08:52:45Z</time>
      </trkpt>
      <trkpt lat="45.93302" lon="4.72578">
        <ele>171</ele>
        <time>2017-07-16T08:52:46Z</time>
      </trkpt>
      <trkpt lat="45.93307" lon="4.72573">
        <ele>171</ele>
        <time>2017-07-16T08:52:47Z</time>
      </trkpt>
      <trkpt lat="45.93311" lon="4.72567">
        <ele>171</ele>
        <time>2017-07-16T08:52:48Z</time>
      </trkpt>
      <trkpt lat="45.93316" lon="4.72562">
        <ele>171</ele>
        <time>2017-07-16T08:52:49Z</time>
      </trkpt>
      <trkpt lat="45.93319" lon="4.72558">
        <ele>171</ele>
        <time>2017-07-16T08:52:50Z</time>
      </trkpt>
      <trkpt lat="45.93323" lon="4.72554">
        <ele>172</ele>
        <time>2017-07-16T08:52:51Z</time>
      </trkpt>
      <trkpt lat="45.93327" lon="4.72548">
        <ele>172</ele>
        <time>2017-07-16T08:52:52Z</time>
      </trkpt>
      <trkpt lat="45.93331" lon="4.72543">
        <ele>172</ele>
        <time>2017-07-16T08:52:53Z</time>
      </trkpt>
      <trkpt lat="45.93336" lon="4.72538">
        <ele>171</ele>
        <time>2017-07-16T08:52:54Z</time>
      </trkpt>
      <trkpt lat="45.9334" lon="4.72533">
        <ele>172</ele>
        <time>2017-07-16T08:52:55Z</time>
      </trkpt>
      <trkpt lat="45.93345" lon="4.72528">
        <ele>172</ele>
        <time>2017-07-16T08:52:56Z</time>
      </trkpt>
      <trkpt lat="45.93349" lon="4.72523">
        <ele>172</ele>
        <time>2017-07-16T08:52:57Z</time>
      </trkpt>
      <trkpt lat="45.93353" lon="4.72517">
        <ele>172</ele>
        <time>2017-07-16T08:52:58Z</time>
      </trkpt>
      <trkpt lat="45.93357" lon="4.72512">
        <ele>172</ele>
        <time>2017-07-16T08:52:59Z</time>
      </trkpt>
      <trkpt lat="45.93361" lon="4.72507">
        <ele>172</ele>
        <time>2017-07-16T08:53:00Z</time>
      </trkpt>
      <trkpt lat="45.93365" lon="4.72503">
        <ele>172</ele>
        <time>2017-07-16T08:53:01Z</time>
      </trkpt>
      <trkpt lat="45.93369" lon="4.72499">
        <ele>173</ele>
        <time>2017-07-16T08:53:02Z</time>
      </trkpt>
      <trkpt lat="45.93373" lon="4.72495">
        <ele>173</ele>
        <time>2017-07-16T08:53:03Z</time>
      </trkpt>
      <trkpt lat="45.93376" lon="4.7249">
        <ele>173</ele>
        <time>2017-07-16T08:53:04Z</time>
      </trkpt>
      <trkpt lat="45.9338" lon="4.72486">
        <ele>173</ele>
        <time>2017-07-16T08:53:05Z</time>
      </trkpt>
      <trkpt lat="45.93384" lon="4.72482">
        <ele>173</ele>
        <time>2017-07-16T08:53:06Z</time>
      </trkpt>
      <trkpt lat="45.93388" lon="4.72477">
        <ele>173</ele>
        <time>2017-07-16T08:53:07Z</time>
      </trkpt>
      <trkpt lat="45.93391" lon="4.72471">
        <ele>173</ele>
        <time>2017-07-16T08:53:08Z</time>
      </trkpt>
      <trkpt lat="45.93394" lon="4.72465">
        <ele>173</ele>
        <time>2017-07-16T08:53:09Z</time>
      </trkpt>
      <trkpt lat="45.93396" lon="4.72459">
        <ele>173</ele>
        <time>2017-07-16T08:53:10Z</time>
      </trkpt>
      <trkpt lat="45.93399" lon="4.72447">
        <ele>173</ele>
        <time>2017-07-16T08:53:12Z</time>
      </trkpt>
      <trkpt lat="45.93402" lon="4.72442">
        <ele>173</ele>
        <time>2017-07-16T08:53:13Z</time>
      </trkpt>
      <trkpt lat="45.93404" lon="4.72437">
        <ele>173</ele>
        <time>2017-07-16T08:53:14Z</time>
      </trkpt>
      <trkpt lat="45.93407" lon="4.72431">
        <ele>173</ele>
        <time>2017-07-16T08:53:15Z</time>
      </trkpt>
      <trkpt lat="45.93411" lon="4.72426">
        <ele>174</ele>
        <time>2017-07-16T08:53:16Z</time>
      </trkpt>
      <trkpt lat="45.93416" lon="4.72422">
        <ele>174</ele>
        <time>2017-07-16T08:53:17Z</time>
      </trkpt>
      <trkpt lat="45.93421" lon="4.72419">
        <ele>174</ele>
        <time>2017-07-16T08:53:18Z</time>
      </trkpt>
      <trkpt lat="45.93426" lon="4.72416">
        <ele>174</ele>
        <time>2017-07-16T08:53:19Z</time>
      </trkpt>
      <trkpt lat="45.93431" lon="4.72414">
        <ele>174</ele>
        <time>2017-07-16T08:53:20Z</time>
      </trkpt>
      <trkpt lat="45.93436" lon="4.72411">
        <ele>174</ele>
        <time>2017-07-16T08:53:21Z</time>
      </trkpt>
      <trkpt lat="45.93442" lon="4.72407">
        <ele>173</ele>
        <time>2017-07-16T08:53:22Z</time>
      </trkpt>
      <trkpt lat="45.93447" lon="4.72403">
        <ele>173</ele>
        <time>2017-07-16T08:53:23Z</time>
      </trkpt>
      <trkpt lat="45.93452" lon="4.72399">
        <ele>173</ele>
        <time>2017-07-16T08:53:24Z</time>
      </trkpt>
      <trkpt lat="45.93457" lon="4.72395">
        <ele>173</ele>
        <time>2017-07-16T08:53:25Z</time>
      </trkpt>
      <trkpt lat="45.93462" lon="4.7239">
        <ele>173</ele>
        <time>2017-07-16T08:53:26Z</time>
      </trkpt>
      <trkpt lat="45.93468" lon="4.72385">
        <ele>173</ele>
        <time>2017-07-16T08:53:27Z</time>
      </trkpt>
      <trkpt lat="45.93472" lon="4.7238">
        <ele>173</ele>
        <time>2017-07-16T08:53:28Z</time>
      </trkpt>
      <trkpt lat="45.93477" lon="4.72373">
        <ele>173</ele>
        <time>2017-07-16T08:53:29Z</time>
      </trkpt>
      <trkpt lat="45.93481" lon="4.72367">
        <ele>173</ele>
        <time>2017-07-16T08:53:30Z</time>
      </trkpt>
      <trkpt lat="45.93486" lon="4.72362">
        <ele>173</ele>
        <time>2017-07-16T08:53:31Z</time>
      </trkpt>
      <trkpt lat="45.9349" lon="4.72356">
        <ele>173</ele>
        <time>2017-07-16T08:53:32Z</time>
      </trkpt>
      <trkpt lat="45.93495" lon="4.72352">
        <ele>173</ele>
        <time>2017-07-16T08:53:33Z</time>
      </trkpt>
      <trkpt lat="45.93499" lon="4.72345">
        <ele>173</ele>
        <time>2017-07-16T08:53:34Z</time>
      </trkpt>
      <trkpt lat="45.93504" lon="4.72339">
        <ele>173</ele>
        <time>2017-07-16T08:53:35Z</time>
      </trkpt>
      <trkpt lat="45.93507" lon="4.72333">
        <ele>173</ele>
        <time>2017-07-16T08:53:36Z</time>
      </trkpt>
      <trkpt lat="45.93512" lon="4.72327">
        <ele>173</ele>
        <time>2017-07-16T08:53:37Z</time>
      </trkpt>
      <trkpt lat="45.93516" lon="4.72321">
        <ele>173</ele>
        <time>2017-07-16T08:53:38Z</time>
      </trkpt>
      <trkpt lat="45.93519" lon="4.72315">
        <ele>173</ele>
        <time>2017-07-16T08:53:39Z</time>
      </trkpt>
      <trkpt lat="45.93523" lon="4.72309">
        <ele>173</ele>
        <time>2017-07-16T08:53:40Z</time>
      </trkpt>
      <trkpt lat="45.93525" lon="4.72302">
        <ele>173</ele>
        <time>2017-07-16T08:53:41Z</time>
      </trkpt>
      <trkpt lat="45.93528" lon="4.72295">
        <ele>172</ele>
        <time>2017-07-16T08:53:42Z</time>
      </trkpt>
      <trkpt lat="45.9353" lon="4.72289">
        <ele>172</ele>
        <time>2017-07-16T08:53:43Z</time>
      </trkpt>
      <trkpt lat="45.93532" lon="4.72283">
        <ele>172</ele>
        <time>2017-07-16T08:53:44Z</time>
      </trkpt>
      <trkpt lat="45.93534" lon="4.72277">
        <ele>172</ele>
        <time>2017-07-16T08:53:45Z</time>
      </trkpt>
      <trkpt lat="45.93536" lon="4.72271">
        <ele>172</ele>
        <time>2017-07-16T08:53:46Z</time>
      </trkpt>
      <trkpt lat="45.93539" lon="4.72265">
        <ele>172</ele>
        <time>2017-07-16T08:53:47Z</time>
      </trkpt>
      <trkpt lat="45.93541" lon="4.7226">
        <ele>172</ele>
        <time>2017-07-16T08:53:48Z</time>
      </trkpt>
      <trkpt lat="45.93543" lon="4.72254">
        <ele>172</ele>
        <time>2017-07-16T08:53:49Z</time>
      </trkpt>
      <trkpt lat="45.93545" lon="4.72248">
        <ele>172</ele>
        <time>2017-07-16T08:53:50Z</time>
      </trkpt>
      <trkpt lat="45.93547" lon="4.72242">
        <ele>172</ele>
        <time>2017-07-16T08:53:51Z</time>
      </trkpt>
      <trkpt lat="45.9355" lon="4.72237">
        <ele>172</ele>
        <time>2017-07-16T08:53:52Z</time>
      </trkpt>
      <trkpt lat="45.93553" lon="4.72232">
        <ele>173</ele>
        <time>2017-07-16T08:53:53Z</time>
      </trkpt>
      <trkpt lat="45.93557" lon="4.7223">
        <ele>173</ele>
        <time>2017-07-16T08:53:54Z</time>
      </trkpt>
      <trkpt lat="45.93562" lon="4.7223">
        <ele>173</ele>
        <time>2017-07-16T08:53:55Z</time>
      </trkpt>
      <trkpt lat="45.93568" lon="4.72232">
        <ele>173</ele>
        <time>2017-07-16T08:53:56Z</time>
      </trkpt>
      <trkpt lat="45.93574" lon="4.72234">
        <ele>173</ele>
        <time>2017-07-16T08:53:57Z</time>
      </trkpt>
      <trkpt lat="45.93578" lon="4.72238">
        <ele>173</ele>
        <time>2017-07-16T08:53:58Z</time>
      </trkpt>
      <trkpt lat="45.93581" lon="4.72242">
        <ele>173</ele>
        <time>2017-07-16T08:53:59Z</time>
      </trkpt>
      <trkpt lat="45.93588" lon="4.7225">
        <ele>173</ele>
        <time>2017-07-16T08:54:01Z</time>
      </trkpt>
      <trkpt lat="45.93592" lon="4.72253">
        <ele>173</ele>
        <time>2017-07-16T08:54:02Z</time>
      </trkpt>
      <trkpt lat="45.93599" lon="4.72259">
        <ele>173</ele>
        <time>2017-07-16T08:54:04Z</time>
      </trkpt>
      <trkpt lat="45.93602" lon="4.72263">
        <ele>173</ele>
        <time>2017-07-16T08:54:05Z</time>
      </trkpt>
      <trkpt lat="45.93606" lon="4.72266">
        <ele>173</ele>
        <time>2017-07-16T08:54:06Z</time>
      </trkpt>
      <trkpt lat="45.9361" lon="4.7227">
        <ele>172</ele>
        <time>2017-07-16T08:54:07Z</time>
      </trkpt>
      <trkpt lat="45.93614" lon="4.72275">
        <ele>172</ele>
        <time>2017-07-16T08:54:08Z</time>
      </trkpt>
      <trkpt lat="45.93618" lon="4.72279">
        <ele>172</ele>
        <time>2017-07-16T08:54:09Z</time>
      </trkpt>
      <trkpt lat="45.93623" lon="4.72282">
        <ele>172</ele>
        <time>2017-07-16T08:54:10Z</time>
      </trkpt>
      <trkpt lat="45.93627" lon="4.72286">
        <ele>172</ele>
        <time>2017-07-16T08:54:11Z</time>
      </trkpt>
      <trkpt lat="45.93631" lon="4.7229">
        <ele>172</ele>
        <time>2017-07-16T08:54:12Z</time>
      </trkpt>
      <trkpt lat="45.93635" lon="4.72294">
        <ele>172</ele>
        <time>2017-07-16T08:54:13Z</time>
      </trkpt>
      <trkpt lat="45.93638" lon="4.72298">
        <ele>172</ele>
        <time>2017-07-16T08:54:14Z</time>
      </trkpt>
      <trkpt lat="45.93642" lon="4.72302">
        <ele>172</ele>
        <time>2017-07-16T08:54:15Z</time>
      </trkpt>
      <trkpt lat="45.93646" lon="4.72306">
        <ele>172</ele>
        <time>2017-07-16T08:54:16Z</time>
      </trkpt>
      <trkpt lat="45.9365" lon="4.72311">
        <ele>172</ele>
        <time>2017-07-16T08:54:17Z</time>
      </trkpt>
      <trkpt lat="45.93655" lon="4.72315">
        <ele>172</ele>
        <time>2017-07-16T08:54:18Z</time>
      </trkpt>
      <trkpt lat="45.93659" lon="4.72319">
        <ele>172</ele>
        <time>2017-07-16T08:54:19Z</time>
      </trkpt>
      <trkpt lat="45.93664" lon="4.72322">
        <ele>171</ele>
        <time>2017-07-16T08:54:20Z</time>
      </trkpt>
      <trkpt lat="45.93668" lon="4.72326">
        <ele>171</ele>
        <time>2017-07-16T08:54:21Z</time>
      </trkpt>
      <trkpt lat="45.93673" lon="4.72331">
        <ele>171</ele>
        <time>2017-07-16T08:54:22Z</time>
      </trkpt>
      <trkpt lat="45.93678" lon="4.72337">
        <ele>171</ele>
        <time>2017-07-16T08:54:23Z</time>
      </trkpt>
      <trkpt lat="45.93683" lon="4.72341">
        <ele>171</ele>
        <time>2017-07-16T08:54:24Z</time>
      </trkpt>
      <trkpt lat="45.93687" lon="4.72345">
        <ele>171</ele>
        <time>2017-07-16T08:54:25Z</time>
      </trkpt>
      <trkpt lat="45.93691" lon="4.72349">
        <ele>171</ele>
        <time>2017-07-16T08:54:26Z</time>
      </trkpt>
      <trkpt lat="45.93695" lon="4.72352">
        <ele>171</ele>
        <time>2017-07-16T08:54:27Z</time>
      </trkpt>
      <trkpt lat="45.93701" lon="4.72356">
        <ele>171</ele>
        <time>2017-07-16T08:54:28Z</time>
      </trkpt>
      <trkpt lat="45.93706" lon="4.72362">
        <ele>171</ele>
        <time>2017-07-16T08:54:29Z</time>
      </trkpt>
      <trkpt lat="45.93712" lon="4.72367">
        <ele>172</ele>
        <time>2017-07-16T08:54:30Z</time>
      </trkpt>
      <trkpt lat="45.93717" lon="4.72371">
        <ele>172</ele>
        <time>2017-07-16T08:54:31Z</time>
      </trkpt>
      <trkpt lat="45.9372" lon="4.72376">
        <ele>171</ele>
        <time>2017-07-16T08:54:32Z</time>
      </trkpt>
      <trkpt lat="45.93724" lon="4.72381">
        <ele>171</ele>
        <time>2017-07-16T08:54:33Z</time>
      </trkpt>
      <trkpt lat="45.93729" lon="4.72385">
        <ele>171</ele>
        <time>2017-07-16T08:54:34Z</time>
      </trkpt>
      <trkpt lat="45.93733" lon="4.72389">
        <ele>171</ele>
        <time>2017-07-16T08:54:35Z</time>
      </trkpt>
      <trkpt lat="45.93738" lon="4.72393">
        <ele>171</ele>
        <time>2017-07-16T08:54:36Z</time>
      </trkpt>
      <trkpt lat="45.93742" lon="4.72397">
        <ele>171</ele>
        <time>2017-07-16T08:54:37Z</time>
      </trkpt>
      <trkpt lat="45.93746" lon="4.72401">
        <ele>171</ele>
        <time>2017-07-16T08:54:38Z</time>
      </trkpt>
      <trkpt lat="45.9375" lon="4.72404">
        <ele>171</ele>
        <time>2017-07-16T08:54:39Z</time>
      </trkpt>
      <trkpt lat="45.93755" lon="4.72408">
        <ele>171</ele>
        <time>2017-07-16T08:54:40Z</time>
      </trkpt>
      <trkpt lat="45.93759" lon="4.72412">
        <ele>171</ele>
        <time>2017-07-16T08:54:41Z</time>
      </trkpt>
      <trkpt lat="45.93763" lon="4.72417">
        <ele>171</ele>
        <time>2017-07-16T08:54:42Z</time>
      </trkpt>
      <trkpt lat="45.93767" lon="4.72421">
        <ele>171</ele>
        <time>2017-07-16T08:54:43Z</time>
      </trkpt>
      <trkpt lat="45.93775" lon="4.72428">
        <ele>171</ele>
        <time>2017-07-16T08:54:45Z</time>
      </trkpt>
      <trkpt lat="45.93779" lon="4.72432">
        <ele>172</ele>
        <time>2017-07-16T08:54:46Z</time>
      </trkpt>
      <trkpt lat="45.93784" lon="4.72436">
        <ele>172</ele>
        <time>2017-07-16T08:54:47Z</time>
      </trkpt>
      <trkpt lat="45.93788" lon="4.72441">
        <ele>172</ele>
        <time>2017-07-16T08:54:48Z</time>
      </trkpt>
      <trkpt lat="45.93793" lon="4.72446">
        <ele>172</ele>
        <time>2017-07-16T08:54:49Z</time>
      </trkpt>
      <trkpt lat="45.93798" lon="4.7245">
        <ele>172</ele>
        <time>2017-07-16T08:54:50Z</time>
      </trkpt>
      <trkpt lat="45.93803" lon="4.72454">
        <ele>172</ele>
        <time>2017-07-16T08:54:51Z</time>
      </trkpt>
      <trkpt lat="45.93807" lon="4.72458">
        <ele>172</ele>
        <time>2017-07-16T08:54:52Z</time>
      </trkpt>
      <trkpt lat="45.93811" lon="4.72463">
        <ele>172</ele>
        <time>2017-07-16T08:54:53Z</time>
      </trkpt>
      <trkpt lat="45.93816" lon="4.72468">
        <ele>172</ele>
        <time>2017-07-16T08:54:54Z</time>
      </trkpt>
      <trkpt lat="45.9382" lon="4.72472">
        <ele>172</ele>
        <time>2017-07-16T08:54:55Z</time>
      </trkpt>
      <trkpt lat="45.93824" lon="4.72476">
        <ele>173</ele>
        <time>2017-07-16T08:54:56Z</time>
      </trkpt>
      <trkpt lat="45.93831" lon="4.72482">
        <ele>173</ele>
        <time>2017-07-16T08:54:58Z</time>
      </trkpt>
      <trkpt lat="45.93834" lon="4.72486">
        <ele>173</ele>
        <time>2017-07-16T08:54:59Z</time>
      </trkpt>
      <trkpt lat="45.93838" lon="4.72489">
        <ele>173</ele>
        <time>2017-07-16T08:55:00Z</time>
      </trkpt>
      <trkpt lat="45.93842" lon="4.72492">
        <ele>173</ele>
        <time>2017-07-16T08:55:01Z</time>
      </trkpt>
      <trkpt lat="45.93846" lon="4.72495">
        <ele>173</ele>
        <time>2017-07-16T08:55:02Z</time>
      </trkpt>
      <trkpt lat="45.93851" lon="4.72499">
        <ele>173</ele>
        <time>2017-07-16T08:55:03Z</time>
      </trkpt>
      <trkpt lat="45.93855" lon="4.72505">
        <ele>173</ele>
        <time>2017-07-16T08:55:04Z</time>
      </trkpt>
      <trkpt lat="45.93857" lon="4.72513">
        <ele>173</ele>
        <time>2017-07-16T08:55:05Z</time>
      </trkpt>
      <trkpt lat="45.93865" lon="4.72516">
        <ele>173</ele>
        <time>2017-07-16T08:55:06Z</time>
      </trkpt>
      <trkpt lat="45.9387" lon="4.72519">
        <ele>173</ele>
        <time>2017-07-16T08:55:07Z</time>
      </trkpt>
      <trkpt lat="45.93875" lon="4.7252">
        <ele>173</ele>
        <time>2017-07-16T08:55:08Z</time>
      </trkpt>
      <trkpt lat="45.9388" lon="4.72519">
        <ele>173</ele>
        <time>2017-07-16T08:55:09Z</time>
      </trkpt>
      <trkpt lat="45.93884" lon="4.72515">
        <ele>173</ele>
        <time>2017-07-16T08:55:10Z</time>
      </trkpt>
      <trkpt lat="45.93888" lon="4.72511">
        <ele>173</ele>
        <time>2017-07-16T08:55:11Z</time>
      </trkpt>
      <trkpt lat="45.93891" lon="4.72506">
        <ele>173</ele>
        <time>2017-07-16T08:55:12Z</time>
      </trkpt>
      <trkpt lat="45.93894" lon="4.72501">
        <ele>172</ele>
        <time>2017-07-16T08:55:13Z</time>
      </trkpt>
      <trkpt lat="45.93898" lon="4.72496">
        <ele>172</ele>
        <time>2017-07-16T08:55:14Z</time>
      </trkpt>
      <trkpt lat="45.93902" lon="4.72492">
        <ele>172</ele>
        <time>2017-07-16T08:55:15Z</time>
      </trkpt>
      <trkpt lat="45.93906" lon="4.72487">
        <ele>172</ele>
        <time>2017-07-16T08:55:16Z</time>
      </trkpt>
      <trkpt lat="45.9391" lon="4.72481">
        <ele>172</ele>
        <time>2017-07-16T08:55:17Z</time>
      </trkpt>
      <trkpt lat="45.93914" lon="4.72476">
        <ele>172</ele>
        <time>2017-07-16T08:55:18Z</time>
      </trkpt>
      <trkpt lat="45.93919" lon="4.7247">
        <ele>171</ele>
        <time>2017-07-16T08:55:19Z</time>
      </trkpt>
      <trkpt lat="45.93923" lon="4.72465">
        <ele>171</ele>
        <time>2017-07-16T08:55:20Z</time>
      </trkpt>
      <trkpt lat="45.93927" lon="4.7246">
        <ele>171</ele>
        <time>2017-07-16T08:55:21Z</time>
      </trkpt>
      <trkpt lat="45.93931" lon="4.72454">
        <ele>171</ele>
        <time>2017-07-16T08:55:22Z</time>
      </trkpt>
      <trkpt lat="45.93936" lon="4.72449">
        <ele>171</ele>
        <time>2017-07-16T08:55:23Z</time>
      </trkpt>
      <trkpt lat="45.9394" lon="4.72444">
        <ele>171</ele>
        <time>2017-07-16T08:55:24Z</time>
      </trkpt>
      <trkpt lat="45.93944" lon="4.72439">
        <ele>171</ele>
        <time>2017-07-16T08:55:25Z</time>
      </trkpt>
      <trkpt lat="45.93948" lon="4.72434">
        <ele>171</ele>
        <time>2017-07-16T08:55:26Z</time>
      </trkpt>
      <trkpt lat="45.93953" lon="4.72429">
        <ele>171</ele>
        <time>2017-07-16T08:55:27Z</time>
      </trkpt>
      <trkpt lat="45.93958" lon="4.72423">
        <ele>171</ele>
        <time>2017-07-16T08:55:28Z</time>
      </trkpt>
      <trkpt lat="45.93963" lon="4.72418">
        <ele>171</ele>
        <time>2017-07-16T08:55:29Z</time>
      </trkpt>
      <trkpt lat="45.93968" lon="4.72412">
        <ele>171</ele>
        <time>2017-07-16T08:55:30Z</time>
      </trkpt>
      <trkpt lat="45.93973" lon="4.72407">
        <ele>171</ele>
        <time>2017-07-16T08:55:31Z</time>
      </trkpt>
      <trkpt lat="45.93978" lon="4.72401">
        <ele>171</ele>
        <time>2017-07-16T08:55:32Z</time>
      </trkpt>
      <trkpt lat="45.93983" lon="4.72396">
        <ele>171</ele>
        <time>2017-07-16T08:55:33Z</time>
      </trkpt>
      <trkpt lat="45.93987" lon="4.7239">
        <ele>171</ele>
        <time>2017-07-16T08:55:34Z</time>
      </trkpt>
      <trkpt lat="45.93991" lon="4.72384">
        <ele>171</ele>
        <time>2017-07-16T08:55:35Z</time>
      </trkpt>
      <trkpt lat="45.93995" lon="4.72378">
        <ele>171</ele>
        <time>2017-07-16T08:55:36Z</time>
      </trkpt>
      <trkpt lat="45.94" lon="4.72373">
        <ele>171</ele>
        <time>2017-07-16T08:55:37Z</time>
      </trkpt>
      <trkpt lat="45.94004" lon="4.72368">
        <ele>171</ele>
        <time>2017-07-16T08:55:38Z</time>
      </trkpt>
      <trkpt lat="45.94008" lon="4.72363">
        <ele>171</ele>
        <time>2017-07-16T08:55:39Z</time>
      </trkpt>
      <trkpt lat="45.94011" lon="4.72358">
        <ele>171</ele>
        <time>2017-07-16T08:55:40Z</time>
      </trkpt>
      <trkpt lat="45.94015" lon="4.72353">
        <ele>171</ele>
        <time>2017-07-16T08:55:41Z</time>
      </trkpt>
      <trkpt lat="45.94019" lon="4.72348">
        <ele>171</ele>
        <time>2017-07-16T08:55:42Z</time>
      </trkpt>
      <trkpt lat="45.94023" lon="4.72343">
        <ele>171</ele>
        <time>2017-07-16T08:55:43Z</time>
      </trkpt>
      <trkpt lat="45.94027" lon="4.72338">
        <ele>171</ele>
        <time>2017-07-16T08:55:44Z</time>
      </trkpt>
      <trkpt lat="45.94031" lon="4.72333">
        <ele>171</ele>
        <time>2017-07-16T08:55:45Z</time>
      </trkpt>
      <trkpt lat="45.94035" lon="4.72328">
        <ele>171</ele>
        <time>2017-07-16T08:55:46Z</time>
      </trkpt>
      <trkpt lat="45.94039" lon="4.72323">
        <ele>171</ele>
        <time>2017-07-16T08:55:47Z</time>
      </trkpt>
      <trkpt lat="45.94042" lon="4.72317">
        <ele>171</ele>
        <time>2017-07-16T08:55:48Z</time>
      </trkpt>
      <trkpt lat="45.94047" lon="4.72312">
        <ele>171</ele>
        <time>2017-07-16T08:55:49Z</time>
      </trkpt>
      <trkpt lat="45.94051" lon="4.72307">
        <ele>171</ele>
        <time>2017-07-16T08:55:50Z</time>
      </trkpt>
      <trkpt lat="45.94056" lon="4.72301">
        <ele>171</ele>
        <time>2017-07-16T08:55:51Z</time>
      </trkpt>
      <trkpt lat="45.9406" lon="4.72296">
        <ele>171</ele>
        <time>2017-07-16T08:55:52Z</time>
      </trkpt>
      <trkpt lat="45.94064" lon="4.72291">
        <ele>171</ele>
        <time>2017-07-16T08:55:53Z</time>
      </trkpt>
      <trkpt lat="45.94069" lon="4.72286">
        <ele>171</ele>
        <time>2017-07-16T08:55:54Z</time>
      </trkpt>
      <trkpt lat="45.94073" lon="4.72281">
        <ele>171</ele>
        <time>2017-07-16T08:55:55Z</time>
      </trkpt>
      <trkpt lat="45.94078" lon="4.72277">
        <ele>171</ele>
        <time>2017-07-16T08:55:56Z</time>
      </trkpt>
      <trkpt lat="45.94083" lon="4.72273">
        <ele>171</ele>
        <time>2017-07-16T08:55:57Z</time>
      </trkpt>
      <trkpt lat="45.94087" lon="4.7227">
        <ele>171</ele>
        <time>2017-07-16T08:55:58Z</time>
      </trkpt>
      <trkpt lat="45.94092" lon="4.72268">
        <ele>171</ele>
        <time>2017-07-16T08:55:59Z</time>
      </trkpt>
      <trkpt lat="45.94097" lon="4.72268">
        <ele>171</ele>
        <time>2017-07-16T08:56:00Z</time>
      </trkpt>
      <trkpt lat="45.94101" lon="4.72267">
        <ele>171</ele>
        <time>2017-07-16T08:56:01Z</time>
      </trkpt>
      <trkpt lat="45.94106" lon="4.72267">
        <ele>171</ele>
        <time>2017-07-16T08:56:02Z</time>
      </trkpt>
      <trkpt lat="45.9411" lon="4.72268">
        <ele>171</ele>
        <time>2017-07-16T08:56:03Z</time>
      </trkpt>
      <trkpt lat="45.94115" lon="4.7227">
        <ele>171</ele>
        <time>2017-07-16T08:56:04Z</time>
      </trkpt>
      <trkpt lat="45.94119" lon="4.72272">
        <ele>171</ele>
        <time>2017-07-16T08:56:05Z</time>
      </trkpt>
      <trkpt lat="45.94124" lon="4.72274">
        <ele>171</ele>
        <time>2017-07-16T08:56:06Z</time>
      </trkpt>
      <trkpt lat="45.94129" lon="4.72277">
        <ele>171</ele>
        <time>2017-07-16T08:56:07Z</time>
      </trkpt>
      <trkpt lat="45.94134" lon="4.72279">
        <ele>171</ele>
        <time>2017-07-16T08:56:08Z</time>
      </trkpt>
      <trkpt lat="45.94139" lon="4.72282">
        <ele>171</ele>
        <time>2017-07-16T08:56:09Z</time>
      </trkpt>
      <trkpt lat="45.94144" lon="4.72284">
        <ele>171</ele>
        <time>2017-07-16T08:56:10Z</time>
      </trkpt>
      <trkpt lat="45.94149" lon="4.72286">
        <ele>171</ele>
        <time>2017-07-16T08:56:11Z</time>
      </trkpt>
      <trkpt lat="45.94154" lon="4.72289">
        <ele>171</ele>
        <time>2017-07-16T08:56:12Z</time>
      </trkpt>
      <trkpt lat="45.9416" lon="4.7229">
        <ele>171</ele>
        <time>2017-07-16T08:56:13Z</time>
      </trkpt>
      <trkpt lat="45.94165" lon="4.72292">
        <ele>171</ele>
        <time>2017-07-16T08:56:14Z</time>
      </trkpt>
      <trkpt lat="45.94171" lon="4.72293">
        <ele>171</ele>
        <time>2017-07-16T08:56:15Z</time>
      </trkpt>
      <trkpt lat="45.94176" lon="4.72293">
        <ele>171</ele>
        <time>2017-07-16T08:56:16Z</time>
      </trkpt>
      <trkpt lat="45.94181" lon="4.72294">
        <ele>171</ele>
        <time>2017-07-16T08:56:17Z</time>
      </trkpt>
      <trkpt lat="45.94185" lon="4.72294">
        <ele>171</ele>
        <time>2017-07-16T08:56:18Z</time>
      </trkpt>
      <trkpt lat="45.9419" lon="4.72295">
        <ele>171</ele>
        <time>2017-07-16T08:56:19Z</time>
      </trkpt>
      <trkpt lat="45.94198" lon="4.72295">
        <ele>171</ele>
        <time>2017-07-16T08:56:21Z</time>
      </trkpt>
      <trkpt lat="45.94203" lon="4.72295">
        <ele>171</ele>
        <time>2017-07-16T08:56:22Z</time>
      </trkpt>
      <trkpt lat="45.94212" lon="4.72294">
        <ele>171</ele>
        <time>2017-07-16T08:56:24Z</time>
      </trkpt>
      <trkpt lat="45.94216" lon="4.72293">
        <ele>171</ele>
        <time>2017-07-16T08:56:25Z</time>
      </trkpt>
      <trkpt lat="45.94224" lon="4.72292">
        <ele>171</ele>
        <time>2017-07-16T08:56:27Z</time>
      </trkpt>
      <trkpt lat="45.94228" lon="4.72291">
        <ele>171</ele>
        <time>2017-07-16T08:56:28Z</time>
      </trkpt>
      <trkpt lat="45.94232" lon="4.72289">
        <ele>171</ele>
        <time>2017-07-16T08:56:29Z</time>
      </trkpt>
      <trkpt lat="45.94237" lon="4.72287">
        <ele>171</ele>
        <time>2017-07-16T08:56:30Z</time>
      </trkpt>
      <trkpt lat="45.94242" lon="4.72285">
        <ele>171</ele>
        <time>2017-07-16T08:56:31Z</time>
      </trkpt>
      <trkpt lat="45.94247" lon="4.72284">
        <ele>171</ele>
        <time>2017-07-16T08:56:32Z</time>
      </trkpt>
      <trkpt lat="45.94254" lon="4.72283">
        <ele>171</ele>
        <time>2017-07-16T08:56:34Z</time>
      </trkpt>
      <trkpt lat="45.94258" lon="4.72282">
        <ele>171</ele>
        <time>2017-07-16T08:56:35Z</time>
      </trkpt>
      <trkpt lat="45.94266" lon="4.72279">
        <ele>171</ele>
        <time>2017-07-16T08:56:37Z</time>
      </trkpt>
      <trkpt lat="45.9427" lon="4.72278">
        <ele>171</ele>
        <time>2017-07-16T08:56:38Z</time>
      </trkpt>
      <trkpt lat="45.94278" lon="4.72282">
        <ele>171</ele>
        <time>2017-07-16T08:56:40Z</time>
      </trkpt>
      <trkpt lat="45.94281" lon="4.72286">
        <ele>171</ele>
        <time>2017-07-16T08:56:41Z</time>
      </trkpt>
      <trkpt lat="45.94284" lon="4.72291">
        <ele>171</ele>
        <time>2017-07-16T08:56:42Z</time>
      </trkpt>
      <trkpt lat="45.94286" lon="4.72297">
        <ele>171</ele>
        <time>2017-07-16T08:56:43Z</time>
      </trkpt>
      <trkpt lat="45.94289" lon="4.72303">
        <ele>171</ele>
        <time>2017-07-16T08:56:44Z</time>
      </trkpt>
      <trkpt lat="45.94291" lon="4.7231">
        <ele>171</ele>
        <time>2017-07-16T08:56:45Z</time>
      </trkpt>
      <trkpt lat="45.94294" lon="4.72317">
        <ele>171</ele>
        <time>2017-07-16T08:56:46Z</time>
      </trkpt>
      <trkpt lat="45.94297" lon="4.72323">
        <ele>171</ele>
        <time>2017-07-16T08:56:47Z</time>
      </trkpt>
      <trkpt lat="45.943" lon="4.72329">
        <ele>171</ele>
        <time>2017-07-16T08:56:48Z</time>
      </trkpt>
      <trkpt lat="45.94302" lon="4.72334">
        <ele>172</ele>
        <time>2017-07-16T08:56:49Z</time>
      </trkpt>
      <trkpt lat="45.94305" lon="4.7234">
        <ele>172</ele>
        <time>2017-07-16T08:56:50Z</time>
      </trkpt>
      <trkpt lat="45.94307" lon="4.72346">
        <ele>172</ele>
        <time>2017-07-16T08:56:51Z</time>
      </trkpt>
      <trkpt lat="45.9431" lon="4.72351">
        <ele>172</ele>
        <time>2017-07-16T08:56:52Z</time>
      </trkpt>
      <trkpt lat="45.94312" lon="4.72356">
        <ele>172</ele>
        <time>2017-07-16T08:56:53Z</time>
      </trkpt>
      <trkpt lat="45.94315" lon="4.72362">
        <ele>172</ele>
        <time>2017-07-16T08:56:54Z</time>
      </trkpt>
      <trkpt lat="45.94318" lon="4.72367">
        <ele>172</ele>
        <time>2017-07-16T08:56:55Z</time>
      </trkpt>
      <trkpt lat="45.9432" lon="4.72373">
        <ele>172</ele>
        <time>2017-07-16T08:56:56Z</time>
      </trkpt>
      <trkpt lat="45.94323" lon="4.72379">
        <ele>172</ele>
        <time>2017-07-16T08:56:57Z</time>
      </trkpt>
      <trkpt lat="45.94325" lon="4.72385">
        <ele>172</ele>
        <time>2017-07-16T08:56:58Z</time>
      </trkpt>
      <trkpt lat="45.94328" lon="4.72391">
        <ele>172</ele>
        <time>2017-07-16T08:56:59Z</time>
      </trkpt>
      <trkpt lat="45.94331" lon="4.72396">
        <ele>172</ele>
        <time>2017-07-16T08:57:00Z</time>
      </trkpt>
      <trkpt lat="45.94334" lon="4.72403">
        <ele>173</ele>
        <time>2017-07-16T08:57:01Z</time>
      </trkpt>
      <trkpt lat="45.94337" lon="4.72409">
        <ele>173</ele>
        <time>2017-07-16T08:57:02Z</time>
      </trkpt>
      <trkpt lat="45.9434" lon="4.72415">
        <ele>173</ele>
        <time>2017-07-16T08:57:03Z</time>
      </trkpt>
      <trkpt lat="45.94343" lon="4.7242">
        <ele>173</ele>
        <time>2017-07-16T08:57:04Z</time>
      </trkpt>
      <trkpt lat="45.94346" lon="4.72426">
        <ele>173</ele>
        <time>2017-07-16T08:57:05Z</time>
      </trkpt>
      <trkpt lat="45.94348" lon="4.72432">
        <ele>173</ele>
        <time>2017-07-16T08:57:06Z</time>
      </trkpt>
      <trkpt lat="45.94351" lon="4.72438">
        <ele>173</ele>
        <time>2017-07-16T08:57:07Z</time>
      </trkpt>
      <trkpt lat="45.94354" lon="4.72444">
        <ele>173</ele>
        <time>2017-07-16T08:57:08Z</time>
      </trkpt>
      <trkpt lat="45.94357" lon="4.7245">
        <ele>173</ele>
        <time>2017-07-16T08:57:09Z</time>
      </trkpt>
      <trkpt lat="45.9436" lon="4.72457">
        <ele>173</ele>
        <time>2017-07-16T08:57:10Z</time>
      </trkpt>
      <trkpt lat="45.94363" lon="4.72464">
        <ele>173</ele>
        <time>2017-07-16T08:57:11Z</time>
      </trkpt>
      <trkpt lat="45.94366" lon="4.7247">
        <ele>173</ele>
        <time>2017-07-16T08:57:12Z</time>
      </trkpt>
      <trkpt lat="45.94368" lon="4.72477">
        <ele>173</ele>
        <time>2017-07-16T08:57:13Z</time>
      </trkpt>
      <trkpt lat="45.94371" lon="4.72484">
        <ele>173</ele>
        <time>2017-07-16T08:57:14Z</time>
      </trkpt>
      <trkpt lat="45.94374" lon="4.7249">
        <ele>173</ele>
        <time>2017-07-16T08:57:15Z</time>
      </trkpt>
      <trkpt lat="45.94377" lon="4.72496">
        <ele>173</ele>
        <time>2017-07-16T08:57:16Z</time>
      </trkpt>
      <trkpt lat="45.94378" lon="4.72503">
        <ele>174</ele>
        <time>2017-07-16T08:57:17Z</time>
      </trkpt>
      <trkpt lat="45.9438" lon="4.72509">
        <ele>174</ele>
        <time>2017-07-16T08:57:18Z</time>
      </trkpt>
      <trkpt lat="45.94381" lon="4.72516">
        <ele>174</ele>
        <time>2017-07-16T08:57:19Z</time>
      </trkpt>
      <trkpt lat="45.94384" lon="4.72528">
        <ele>174</ele>
        <time>2017-07-16T08:57:21Z</time>
      </trkpt>
      <trkpt lat="45.94385" lon="4.72534">
        <ele>174</ele>
        <time>2017-07-16T08:57:22Z</time>
      </trkpt>
      <trkpt lat="45.94387" lon="4.7254">
        <ele>174</ele>
        <time>2017-07-16T08:57:23Z</time>
      </trkpt>
      <trkpt lat="45.94388" lon="4.72547">
        <ele>173</ele>
        <time>2017-07-16T08:57:24Z</time>
      </trkpt>
      <trkpt lat="45.9439" lon="4.72554">
        <ele>173</ele>
        <time>2017-07-16T08:57:25Z</time>
      </trkpt>
      <trkpt lat="45.94392" lon="4.72561">
        <ele>173</ele>
        <time>2017-07-16T08:57:26Z</time>
      </trkpt>
      <trkpt lat="45.94393" lon="4.72568">
        <ele>173</ele>
        <time>2017-07-16T08:57:27Z</time>
      </trkpt>
      <trkpt lat="45.94394" lon="4.72576">
        <ele>173</ele>
        <time>2017-07-16T08:57:28Z</time>
      </trkpt>
      <trkpt lat="45.94396" lon="4.72584">
        <ele>173</ele>
        <time>2017-07-16T08:57:29Z</time>
      </trkpt>
      <trkpt lat="45.94397" lon="4.72591">
        <ele>173</ele>
        <time>2017-07-16T08:57:30Z</time>
      </trkpt>
      <trkpt lat="45.94398" lon="4.726">
        <ele>173</ele>
        <time>2017-07-16T08:57:31Z</time>
      </trkpt>
      <trkpt lat="45.94399" lon="4.72608">
        <ele>173</ele>
        <time>2017-07-16T08:57:32Z</time>
      </trkpt>
      <trkpt lat="45.944" lon="4.72616">
        <ele>173</ele>
        <time>2017-07-16T08:57:33Z</time>
      </trkpt>
      <trkpt lat="45.94401" lon="4.72623">
        <ele>173</ele>
        <time>2017-07-16T08:57:34Z</time>
      </trkpt>
      <trkpt lat="45.94403" lon="4.72635">
        <ele>174</ele>
        <time>2017-07-16T08:57:36Z</time>
      </trkpt>
      <trkpt lat="45.94403" lon="4.72641">
        <ele>174</ele>
        <time>2017-07-16T08:57:37Z</time>
      </trkpt>
      <trkpt lat="45.94404" lon="4.72654">
        <ele>174</ele>
        <time>2017-07-16T08:57:39Z</time>
      </trkpt>
      <trkpt lat="45.94405" lon="4.72661">
        <ele>174</ele>
        <time>2017-07-16T08:57:40Z</time>
      </trkpt>
      <trkpt lat="45.94406" lon="4.72668">
        <ele>173</ele>
        <time>2017-07-16T08:57:41Z</time>
      </trkpt>
      <trkpt lat="45.94407" lon="4.72675">
        <ele>173</ele>
        <time>2017-07-16T08:57:42Z</time>
      </trkpt>
      <trkpt lat="45.94408" lon="4.72682">
        <ele>173</ele>
        <time>2017-07-16T08:57:43Z</time>
      </trkpt>
      <trkpt lat="45.94409" lon="4.7269">
        <ele>173</ele>
        <time>2017-07-16T08:57:44Z</time>
      </trkpt>
      <trkpt lat="45.9441" lon="4.72697">
        <ele>173</ele>
        <time>2017-07-16T08:57:45Z</time>
      </trkpt>
      <trkpt lat="45.94411" lon="4.72704">
        <ele>172</ele>
        <time>2017-07-16T08:57:46Z</time>
      </trkpt>
      <trkpt lat="45.94412" lon="4.72712">
        <ele>172</ele>
        <time>2017-07-16T08:57:47Z</time>
      </trkpt>
      <trkpt lat="45.94414" lon="4.72719">
        <ele>172</ele>
        <time>2017-07-16T08:57:48Z</time>
      </trkpt>
      <trkpt lat="45.94414" lon="4.72727">
        <ele>172</ele>
        <time>2017-07-16T08:57:49Z</time>
      </trkpt>
      <trkpt lat="45.94415" lon="4.72735">
        <ele>172</ele>
        <time>2017-07-16T08:57:50Z</time>
      </trkpt>
      <trkpt lat="45.94416" lon="4.72742">
        <ele>171</ele>
        <time>2017-07-16T08:57:51Z</time>
      </trkpt>
      <trkpt lat="45.94417" lon="4.7275">
        <ele>171</ele>
        <time>2017-07-16T08:57:52Z</time>
      </trkpt>
      <trkpt lat="45.94418" lon="4.72758">
        <ele>170</ele>
        <time>2017-07-16T08:57:53Z</time>
      </trkpt>
      <trkpt lat="45.94419" lon="4.72766">
        <ele>169</ele>
        <time>2017-07-16T08:57:54Z</time>
      </trkpt>
      <trkpt lat="45.9442" lon="4.72773">
        <ele>169</ele>
        <time>2017-07-16T08:57:55Z</time>
      </trkpt>
      <trkpt lat="45.94421" lon="4.72781">
        <ele>168</ele>
        <time>2017-07-16T08:57:56Z</time>
      </trkpt>
      <trkpt lat="45.94422" lon="4.72787">
        <ele>168</ele>
        <time>2017-07-16T08:57:57Z</time>
      </trkpt>
      <trkpt lat="45.94423" lon="4.72794">
        <ele>168</ele>
        <time>2017-07-16T08:57:58Z</time>
      </trkpt>
      <trkpt lat="45.94425" lon="4.72806">
        <ele>167</ele>
        <time>2017-07-16T08:58:00Z</time>
      </trkpt>
      <trkpt lat="45.94426" lon="4.72812">
        <ele>167</ele>
        <time>2017-07-16T08:58:01Z</time>
      </trkpt>
      <trkpt lat="45.94426" lon="4.72819">
        <ele>167</ele>
        <time>2017-07-16T08:58:02Z</time>
      </trkpt>
      <trkpt lat="45.94427" lon="4.72826">
        <ele>167</ele>
        <time>2017-07-16T08:58:03Z</time>
      </trkpt>
      <trkpt lat="45.94428" lon="4.72833">
        <ele>166</ele>
        <time>2017-07-16T08:58:04Z</time>
      </trkpt>
      <trkpt lat="45.94428" lon="4.7284">
        <ele>166</ele>
        <time>2017-07-16T08:58:05Z</time>
      </trkpt>
      <trkpt lat="45.9443" lon="4.72847">
        <ele>166</ele>
        <time>2017-07-16T08:58:06Z</time>
      </trkpt>
      <trkpt lat="45.94431" lon="4.72854">
        <ele>166</ele>
        <time>2017-07-16T08:58:07Z</time>
      </trkpt>
      <trkpt lat="45.94433" lon="4.72866">
        <ele>166</ele>
        <time>2017-07-16T08:58:09Z</time>
      </trkpt>
      <trkpt lat="45.94433" lon="4.72872">
        <ele>166</ele>
        <time>2017-07-16T08:58:10Z</time>
      </trkpt>
      <trkpt lat="45.94434" lon="4.72883">
        <ele>166</ele>
        <time>2017-07-16T08:58:12Z</time>
      </trkpt>
      <trkpt lat="45.94435" lon="4.72889">
        <ele>166</ele>
        <time>2017-07-16T08:58:13Z</time>
      </trkpt>
      <trkpt lat="45.94437" lon="4.729">
        <ele>166</ele>
        <time>2017-07-16T08:58:15Z</time>
      </trkpt>
      <trkpt lat="45.94438" lon="4.72905">
        <ele>166</ele>
        <time>2017-07-16T08:58:16Z</time>
      </trkpt>
      <trkpt lat="45.94438" lon="4.72916">
        <ele>166</ele>
        <time>2017-07-16T08:58:18Z</time>
      </trkpt>
      <trkpt lat="45.94439" lon="4.72921">
        <ele>167</ele>
        <time>2017-07-16T08:58:19Z</time>
      </trkpt>
      <trkpt lat="45.94441" lon="4.72931">
        <ele>167</ele>
        <time>2017-07-16T08:58:21Z</time>
      </trkpt>
      <trkpt lat="45.94441" lon="4.72937">
        <ele>167</ele>
        <time>2017-07-16T08:58:22Z</time>
      </trkpt>
      <trkpt lat="45.94442" lon="4.72943">
        <ele>167</ele>
        <time>2017-07-16T08:58:23Z</time>
      </trkpt>
      <trkpt lat="45.94443" lon="4.7295">
        <ele>167</ele>
        <time>2017-07-16T08:58:24Z</time>
      </trkpt>
      <trkpt lat="45.94444" lon="4.72958">
        <ele>167</ele>
        <time>2017-07-16T08:58:25Z</time>
      </trkpt>
      <trkpt lat="45.94445" lon="4.72965">
        <ele>167</ele>
        <time>2017-07-16T08:58:26Z</time>
      </trkpt>
      <trkpt lat="45.94446" lon="4.72973">
        <ele>167</ele>
        <time>2017-07-16T08:58:27Z</time>
      </trkpt>
      <trkpt lat="45.94447" lon="4.72981">
        <ele>167</ele>
        <time>2017-07-16T08:58:28Z</time>
      </trkpt>
      <trkpt lat="45.94448" lon="4.72989">
        <ele>167</ele>
        <time>2017-07-16T08:58:29Z</time>
      </trkpt>
      <trkpt lat="45.94449" lon="4.72997">
        <ele>167</ele>
        <time>2017-07-16T08:58:30Z</time>
      </trkpt>
      <trkpt lat="45.94451" lon="4.73005">
        <ele>169</ele>
        <time>2017-07-16T08:58:31Z</time>
      </trkpt>
      <trkpt lat="45.94452" lon="4.73014">
        <ele>169</ele>
        <time>2017-07-16T08:58:32Z</time>
      </trkpt>
      <trkpt lat="45.94453" lon="4.73022">
        <ele>169</ele>
        <time>2017-07-16T08:58:33Z</time>
      </trkpt>
      <trkpt lat="45.94454" lon="4.73031">
        <ele>169</ele>
        <time>2017-07-16T08:58:34Z</time>
      </trkpt>
      <trkpt lat="45.94455" lon="4.73039">
        <ele>169</ele>
        <time>2017-07-16T08:58:35Z</time>
      </trkpt>
      <trkpt lat="45.94456" lon="4.73048">
        <ele>170</ele>
        <time>2017-07-16T08:58:36Z</time>
      </trkpt>
      <trkpt lat="45.94458" lon="4.73057">
        <ele>170</ele>
        <time>2017-07-16T08:58:37Z</time>
      </trkpt>
      <trkpt lat="45.94459" lon="4.73067">
        <ele>170</ele>
        <time>2017-07-16T08:58:38Z</time>
      </trkpt>
      <trkpt lat="45.9446" lon="4.73076">
        <ele>170</ele>
        <time>2017-07-16T08:58:39Z</time>
      </trkpt>
      <trkpt lat="45.94461" lon="4.73084">
        <ele>171</ele>
        <time>2017-07-16T08:58:40Z</time>
      </trkpt>
      <trkpt lat="45.94462" lon="4.73093">
        <ele>171</ele>
        <time>2017-07-16T08:58:41Z</time>
      </trkpt>
      <trkpt lat="45.94462" lon="4.73101">
        <ele>171</ele>
        <time>2017-07-16T08:58:42Z</time>
      </trkpt>
      <trkpt lat="45.94463" lon="4.73109">
        <ele>172</ele>
        <time>2017-07-16T08:58:43Z</time>
      </trkpt>
      <trkpt lat="45.94464" lon="4.73117">
        <ele>172</ele>
        <time>2017-07-16T08:58:44Z</time>
      </trkpt>
      <trkpt lat="45.94465" lon="4.73125">
        <ele>172</ele>
        <time>2017-07-16T08:58:45Z</time>
      </trkpt>
      <trkpt lat="45.94467" lon="4.73132">
        <ele>172</ele>
        <time>2017-07-16T08:58:46Z</time>
      </trkpt>
      <trkpt lat="45.94468" lon="4.73139">
        <ele>172</ele>
        <time>2017-07-16T08:58:47Z</time>
      </trkpt>
      <trkpt lat="45.94469" lon="4.73147">
        <ele>172</ele>
        <time>2017-07-16T08:58:48Z</time>
      </trkpt>
      <trkpt lat="45.9447" lon="4.73154">
        <ele>172</ele>
        <time>2017-07-16T08:58:49Z</time>
      </trkpt>
      <trkpt lat="45.94472" lon="4.73162">
        <ele>173</ele>
        <time>2017-07-16T08:58:50Z</time>
      </trkpt>
      <trkpt lat="45.94473" lon="4.73169">
        <ele>174</ele>
        <time>2017-07-16T08:58:51Z</time>
      </trkpt>
      <trkpt lat="45.94473" lon="4.73177">
        <ele>174</ele>
        <time>2017-07-16T08:58:52Z</time>
      </trkpt>
      <trkpt lat="45.94475" lon="4.73184">
        <ele>174</ele>
        <time>2017-07-16T08:58:53Z</time>
      </trkpt>
      <trkpt lat="45.94476" lon="4.73191">
        <ele>174</ele>
        <time>2017-07-16T08:58:54Z</time>
      </trkpt>
      <trkpt lat="45.94476" lon="4.73198">
        <ele>174</ele>
        <time>2017-07-16T08:58:55Z</time>
      </trkpt>
      <trkpt lat="45.94477" lon="4.73205">
        <ele>175</ele>
        <time>2017-07-16T08:58:56Z</time>
      </trkpt>
      <trkpt lat="45.94479" lon="4.73217">
        <ele>175</ele>
        <time>2017-07-16T08:58:58Z</time>
      </trkpt>
      <trkpt lat="45.94479" lon="4.73222">
        <ele>175</ele>
        <time>2017-07-16T08:58:59Z</time>
      </trkpt>
      <trkpt lat="45.94481" lon="4.73234">
        <ele>175</ele>
        <time>2017-07-16T08:59:01Z</time>
      </trkpt>
      <trkpt lat="45.94482" lon="4.73241">
        <ele>175</ele>
        <time>2017-07-16T08:59:02Z</time>
      </trkpt>
      <trkpt lat="45.94483" lon="4.73247">
        <ele>175</ele>
        <time>2017-07-16T08:59:03Z</time>
      </trkpt>
      <trkpt lat="45.94484" lon="4.73255">
        <ele>176</ele>
        <time>2017-07-16T08:59:04Z</time>
      </trkpt>
      <trkpt lat="45.94483" lon="4.73262">
        <ele>177</ele>
        <time>2017-07-16T08:59:05Z</time>
      </trkpt>
      <trkpt lat="45.94484" lon="4.73268">
        <ele>177</ele>
        <time>2017-07-16T08:59:06Z</time>
      </trkpt>
      <trkpt lat="45.94485" lon="4.73281">
        <ele>177</ele>
        <time>2017-07-16T08:59:08Z</time>
      </trkpt>
      <trkpt lat="45.94488" lon="4.73286">
        <ele>177</ele>
        <time>2017-07-16T08:59:09Z</time>
      </trkpt>
      <trkpt lat="45.94489" lon="4.73298">
        <ele>177</ele>
        <time>2017-07-16T08:59:11Z</time>
      </trkpt>
      <trkpt lat="45.9449" lon="4.73304">
        <ele>177</ele>
        <time>2017-07-16T08:59:12Z</time>
      </trkpt>
      <trkpt lat="45.94492" lon="4.73317">
        <ele>177</ele>
        <time>2017-07-16T08:59:14Z</time>
      </trkpt>
      <trkpt lat="45.94493" lon="4.73323">
        <ele>177</ele>
        <time>2017-07-16T08:59:15Z</time>
      </trkpt>
      <trkpt lat="45.94495" lon="4.73335">
        <ele>177</ele>
        <time>2017-07-16T08:59:17Z</time>
      </trkpt>
      <trkpt lat="45.94496" lon="4.73341">
        <ele>178</ele>
        <time>2017-07-16T08:59:18Z</time>
      </trkpt>
      <trkpt lat="45.94497" lon="4.73348">
        <ele>178</ele>
        <time>2017-07-16T08:59:19Z</time>
      </trkpt>
      <trkpt lat="45.94498" lon="4.73354">
        <ele>178</ele>
        <time>2017-07-16T08:59:20Z</time>
      </trkpt>
      <trkpt lat="45.94498" lon="4.73361">
        <ele>179</ele>
        <time>2017-07-16T08:59:21Z</time>
      </trkpt>
      <trkpt lat="45.94499" lon="4.73367">
        <ele>179</ele>
        <time>2017-07-16T08:59:22Z</time>
      </trkpt>
      <trkpt lat="45.94499" lon="4.73374">
        <ele>179</ele>
        <time>2017-07-16T08:59:23Z</time>
      </trkpt>
      <trkpt lat="45.94499" lon="4.73381">
        <ele>179</ele>
        <time>2017-07-16T08:59:24Z</time>
      </trkpt>
      <trkpt lat="45.945" lon="4.73387">
        <ele>179</ele>
        <time>2017-07-16T08:59:25Z</time>
      </trkpt>
      <trkpt lat="45.945" lon="4.73394">
        <ele>179</ele>
        <time>2017-07-16T08:59:26Z</time>
      </trkpt>
      <trkpt lat="45.94501" lon="4.73401">
        <ele>179</ele>
        <time>2017-07-16T08:59:27Z</time>
      </trkpt>
      <trkpt lat="45.94501" lon="4.73408">
        <ele>179</ele>
        <time>2017-07-16T08:59:28Z</time>
      </trkpt>
      <trkpt lat="45.94502" lon="4.7342">
        <ele>180</ele>
        <time>2017-07-16T08:59:30Z</time>
      </trkpt>
      <trkpt lat="45.94502" lon="4.73427">
        <ele>180</ele>
        <time>2017-07-16T08:59:31Z</time>
      </trkpt>
      <trkpt lat="45.94502" lon="4.73439">
        <ele>181</ele>
        <time>2017-07-16T08:59:33Z</time>
      </trkpt>
      <trkpt lat="45.94503" lon="4.73444">
        <ele>181</ele>
        <time>2017-07-16T08:59:34Z</time>
      </trkpt>
      <trkpt lat="45.94504" lon="4.73456">
        <ele>181</ele>
        <time>2017-07-16T08:59:36Z</time>
      </trkpt>
      <trkpt lat="45.94504" lon="4.73462">
        <ele>181</ele>
        <time>2017-07-16T08:59:37Z</time>
      </trkpt>
      <trkpt lat="45.94503" lon="4.73474">
        <ele>182</ele>
        <time>2017-07-16T08:59:39Z</time>
      </trkpt>
      <trkpt lat="45.94503" lon="4.73479">
        <ele>182</ele>
        <time>2017-07-16T08:59:40Z</time>
      </trkpt>
      <trkpt lat="45.94503" lon="4.73489">
        <ele>182</ele>
        <time>2017-07-16T08:59:42Z</time>
      </trkpt>
      <trkpt lat="45.94503" lon="4.73495">
        <ele>183</ele>
        <time>2017-07-16T08:59:43Z</time>
      </trkpt>
      <trkpt lat="45.94502" lon="4.73507">
        <ele>183</ele>
        <time>2017-07-16T08:59:45Z</time>
      </trkpt>
      <trkpt lat="45.94503" lon="4.73513">
        <ele>183</ele>
        <time>2017-07-16T08:59:46Z</time>
      </trkpt>
      <trkpt lat="45.94503" lon="4.73525">
        <ele>183</ele>
        <time>2017-07-16T08:59:48Z</time>
      </trkpt>
      <trkpt lat="45.94503" lon="4.73531">
        <ele>183</ele>
        <time>2017-07-16T08:59:49Z</time>
      </trkpt>
      <trkpt lat="45.94503" lon="4.73542">
        <ele>183</ele>
        <time>2017-07-16T08:59:51Z</time>
      </trkpt>
      <trkpt lat="45.94503" lon="4.73548">
        <ele>183</ele>
        <time>2017-07-16T08:59:52Z</time>
      </trkpt>
      <trkpt lat="45.94504" lon="4.73559">
        <ele>184</ele>
        <time>2017-07-16T08:59:54Z</time>
      </trkpt>
      <trkpt lat="45.94503" lon="4.73565">
        <ele>184</ele>
        <time>2017-07-16T08:59:55Z</time>
      </trkpt>
      <trkpt lat="45.94502" lon="4.73577">
        <ele>184</ele>
        <time>2017-07-16T08:59:57Z</time>
      </trkpt>
      <trkpt lat="45.94501" lon="4.73583">
        <ele>185</ele>
        <time>2017-07-16T08:59:58Z</time>
      </trkpt>
      <trkpt lat="45.94501" lon="4.7359">
        <ele>185</ele>
        <time>2017-07-16T08:59:59Z</time>
      </trkpt>
      <trkpt lat="45.94501" lon="4.73596">
        <ele>184</ele>
        <time>2017-07-16T09:00:00Z</time>
      </trkpt>
      <trkpt lat="45.945" lon="4.73603">
        <ele>184</ele>
        <time>2017-07-16T09:00:01Z</time>
      </trkpt>
      <trkpt lat="45.945" lon="4.73611">
        <ele>186</ele>
        <time>2017-07-16T09:00:02Z</time>
      </trkpt>
      <trkpt lat="45.94499" lon="4.73617">
        <ele>186</ele>
        <time>2017-07-16T09:00:03Z</time>
      </trkpt>
      <trkpt lat="45.94499" lon="4.73625">
        <ele>186</ele>
        <time>2017-07-16T09:00:04Z</time>
      </trkpt>
      <trkpt lat="45.94497" lon="4.73631">
        <ele>186</ele>
        <time>2017-07-16T09:00:05Z</time>
      </trkpt>
      <trkpt lat="45.94497" lon="4.73638">
        <ele>186</ele>
        <time>2017-07-16T09:00:06Z</time>
      </trkpt>
      <trkpt lat="45.94496" lon="4.73645">
        <ele>186</ele>
        <time>2017-07-16T09:00:07Z</time>
      </trkpt>
      <trkpt lat="45.94494" lon="4.73652">
        <ele>185</ele>
        <time>2017-07-16T09:00:08Z</time>
      </trkpt>
      <trkpt lat="45.94493" lon="4.73659">
        <ele>185</ele>
        <time>2017-07-16T09:00:09Z</time>
      </trkpt>
      <trkpt lat="45.94492" lon="4.73665">
        <ele>185</ele>
        <time>2017-07-16T09:00:10Z</time>
      </trkpt>
      <trkpt lat="45.94492" lon="4.73672">
        <ele>185</ele>
        <time>2017-07-16T09:00:11Z</time>
      </trkpt>
      <trkpt lat="45.94491" lon="4.73679">
        <ele>186</ele>
        <time>2017-07-16T09:00:12Z</time>
      </trkpt>
      <trkpt lat="45.9449" lon="4.73687">
        <ele>186</ele>
        <time>2017-07-16T09:00:13Z</time>
      </trkpt>
      <trkpt lat="45.94489" lon="4.73693">
        <ele>186</ele>
        <time>2017-07-16T09:00:14Z</time>
      </trkpt>
      <trkpt lat="45.94488" lon="4.73699">
        <ele>186</ele>
        <time>2017-07-16T09:00:15Z</time>
      </trkpt>
      <trkpt lat="45.94487" lon="4.73706">
        <ele>186</ele>
        <time>2017-07-16T09:00:16Z</time>
      </trkpt>
      <trkpt lat="45.94487" lon="4.73713">
        <ele>186</ele>
        <time>2017-07-16T09:00:17Z</time>
      </trkpt>
      <trkpt lat="45.94486" lon="4.73721">
        <ele>186</ele>
        <time>2017-07-16T09:00:18Z</time>
      </trkpt>
      <trkpt lat="45.94485" lon="4.73727">
        <ele>186</ele>
        <time>2017-07-16T09:00:19Z</time>
      </trkpt>
      <trkpt lat="45.94484" lon="4.73734">
        <ele>186</ele>
        <time>2017-07-16T09:00:20Z</time>
      </trkpt>
      <trkpt lat="45.94483" lon="4.7374">
        <ele>186</ele>
        <time>2017-07-16T09:00:21Z</time>
      </trkpt>
      <trkpt lat="45.94481" lon="4.73747">
        <ele>186</ele>
        <time>2017-07-16T09:00:22Z</time>
      </trkpt>
      <trkpt lat="45.94479" lon="4.73753">
        <ele>186</ele>
        <time>2017-07-16T09:00:23Z</time>
      </trkpt>
      <trkpt lat="45.94478" lon="4.7376">
        <ele>186</ele>
        <time>2017-07-16T09:00:24Z</time>
      </trkpt>
      <trkpt lat="45.94479" lon="4.73767">
        <ele>186</ele>
        <time>2017-07-16T09:00:25Z</time>
      </trkpt>
      <trkpt lat="45.94482" lon="4.73772">
        <ele>186</ele>
        <time>2017-07-16T09:00:26Z</time>
      </trkpt>
      <trkpt lat="45.94486" lon="4.73776">
        <ele>186</ele>
        <time>2017-07-16T09:00:27Z</time>
      </trkpt>
      <trkpt lat="45.9449" lon="4.73779">
        <ele>186</ele>
        <time>2017-07-16T09:00:28Z</time>
      </trkpt>
      <trkpt lat="45.94494" lon="4.73782">
        <ele>186</ele>
        <time>2017-07-16T09:00:29Z</time>
      </trkpt>
      <trkpt lat="45.94498" lon="4.73786">
        <ele>186</ele>
        <time>2017-07-16T09:00:30Z</time>
      </trkpt>
      <trkpt lat="45.94506" lon="4.73792">
        <ele>186</ele>
        <time>2017-07-16T09:00:32Z</time>
      </trkpt>
      <trkpt lat="45.9451" lon="4.73796">
        <ele>186</ele>
        <time>2017-07-16T09:00:33Z</time>
      </trkpt>
      <trkpt lat="45.94514" lon="4.738">
        <ele>186</ele>
        <time>2017-07-16T09:00:34Z</time>
      </trkpt>
      <trkpt lat="45.94517" lon="4.73805">
        <ele>186</ele>
        <time>2017-07-16T09:00:35Z</time>
      </trkpt>
      <trkpt lat="45.9452" lon="4.73809">
        <ele>186</ele>
        <time>2017-07-16T09:00:36Z</time>
      </trkpt>
      <trkpt lat="45.94525" lon="4.73812">
        <ele>186</ele>
        <time>2017-07-16T09:00:37Z</time>
      </trkpt>
      <trkpt lat="45.94532" lon="4.73819">
        <ele>186</ele>
        <time>2017-07-16T09:00:39Z</time>
      </trkpt>
      <trkpt lat="45.94536" lon="4.73822">
        <ele>186</ele>
        <time>2017-07-16T09:00:40Z</time>
      </trkpt>
      <trkpt lat="45.94543" lon="4.73829">
        <ele>186</ele>
        <time>2017-07-16T09:00:42Z</time>
      </trkpt>
      <trkpt lat="45.94546" lon="4.73832">
        <ele>186</ele>
        <time>2017-07-16T09:00:43Z</time>
      </trkpt>
      <trkpt lat="45.94553" lon="4.73839">
        <ele>186</ele>
        <time>2017-07-16T09:00:45Z</time>
      </trkpt>
      <trkpt lat="45.94556" lon="4.73842">
        <ele>186</ele>
        <time>2017-07-16T09:00:46Z</time>
      </trkpt>
      <trkpt lat="45.94562" lon="4.73849">
        <ele>186</ele>
        <time>2017-07-16T09:00:48Z</time>
      </trkpt>
      <trkpt lat="45.94566" lon="4.73852">
        <ele>186</ele>
        <time>2017-07-16T09:00:49Z</time>
      </trkpt>
      <trkpt lat="45.94571" lon="4.73858">
        <ele>186</ele>
        <time>2017-07-16T09:00:51Z</time>
      </trkpt>
      <trkpt lat="45.94573" lon="4.7386">
        <ele>186</ele>
        <time>2017-07-16T09:00:52Z</time>
      </trkpt>
      <trkpt lat="45.9458" lon="4.73869">
        <ele>186</ele>
        <time>2017-07-16T09:00:55Z</time>
      </trkpt>
      <trkpt lat="45.94582" lon="4.73872">
        <ele>186</ele>
        <time>2017-07-16T09:00:56Z</time>
      </trkpt>
      <trkpt lat="45.94588" lon="4.73878">
        <ele>187</ele>
        <time>2017-07-16T09:00:58Z</time>
      </trkpt>
      <trkpt lat="45.94591" lon="4.73881">
        <ele>187</ele>
        <time>2017-07-16T09:00:59Z</time>
      </trkpt>
      <trkpt lat="45.94597" lon="4.73888">
        <ele>187</ele>
        <time>2017-07-16T09:01:01Z</time>
      </trkpt>
      <trkpt lat="45.94599" lon="4.73891">
        <ele>187</ele>
        <time>2017-07-16T09:01:02Z</time>
      </trkpt>
      <trkpt lat="45.94605" lon="4.73898">
        <ele>187</ele>
        <time>2017-07-16T09:01:04Z</time>
      </trkpt>
      <trkpt lat="45.94608" lon="4.73902">
        <ele>187</ele>
        <time>2017-07-16T09:01:05Z</time>
      </trkpt>
      <trkpt lat="45.94615" lon="4.73908">
        <ele>187</ele>
        <time>2017-07-16T09:01:07Z</time>
      </trkpt>
      <trkpt lat="45.94618" lon="4.73911">
        <ele>187</ele>
        <time>2017-07-16T09:01:08Z</time>
      </trkpt>
      <trkpt lat="45.94624" lon="4.73918">
        <ele>187</ele>
        <time>2017-07-16T09:01:10Z</time>
      </trkpt>
      <trkpt lat="45.94627" lon="4.73921">
        <ele>187</ele>
        <time>2017-07-16T09:01:11Z</time>
      </trkpt>
      <trkpt lat="45.94632" lon="4.73928">
        <ele>187</ele>
        <time>2017-07-16T09:01:13Z</time>
      </trkpt>
      <trkpt lat="45.94634" lon="4.73931">
        <ele>187</ele>
        <time>2017-07-16T09:01:14Z</time>
      </trkpt>
      <trkpt lat="45.94639" lon="4.73938">
        <ele>187</ele>
        <time>2017-07-16T09:01:16Z</time>
      </trkpt>
      <trkpt lat="45.94641" lon="4.73941">
        <ele>187</ele>
        <time>2017-07-16T09:01:17Z</time>
      </trkpt>
      <trkpt lat="45.94647" lon="4.73949">
        <ele>187</ele>
        <time>2017-07-16T09:01:19Z</time>
      </trkpt>
      <trkpt lat="45.94649" lon="4.73952">
        <ele>187</ele>
        <time>2017-07-16T09:01:20Z</time>
      </trkpt>
      <trkpt lat="45.94655" lon="4.73959">
        <ele>187</ele>
        <time>2017-07-16T09:01:22Z</time>
      </trkpt>
      <trkpt lat="45.94657" lon="4.73962">
        <ele>187</ele>
        <time>2017-07-16T09:01:23Z</time>
      </trkpt>
      <trkpt lat="45.94663" lon="4.7397">
        <ele>187</ele>
        <time>2017-07-16T09:01:25Z</time>
      </trkpt>
      <trkpt lat="45.94666" lon="4.73973">
        <ele>187</ele>
        <time>2017-07-16T09:01:26Z</time>
      </trkpt>
      <trkpt lat="45.94672" lon="4.73981">
        <ele>187</ele>
        <time>2017-07-16T09:01:28Z</time>
      </trkpt>
      <trkpt lat="45.94675" lon="4.73984">
        <ele>187</ele>
        <time>2017-07-16T09:01:29Z</time>
      </trkpt>
      <trkpt lat="45.94681" lon="4.73992">
        <ele>187</ele>
        <time>2017-07-16T09:01:31Z</time>
      </trkpt>
      <trkpt lat="45.94683" lon="4.73995">
        <ele>187</ele>
        <time>2017-07-16T09:01:32Z</time>
      </trkpt>
      <trkpt lat="45.94688" lon="4.74002">
        <ele>187</ele>
        <time>2017-07-16T09:01:34Z</time>
      </trkpt>
      <trkpt lat="45.94691" lon="4.74006">
        <ele>187</ele>
        <time>2017-07-16T09:01:35Z</time>
      </trkpt>
      <trkpt lat="45.94697" lon="4.74014">
        <ele>187</ele>
        <time>2017-07-16T09:01:37Z</time>
      </trkpt>
      <trkpt lat="45.947" lon="4.74018">
        <ele>187</ele>
        <time>2017-07-16T09:01:38Z</time>
      </trkpt>
      <trkpt lat="45.94706" lon="4.74025">
        <ele>187</ele>
        <time>2017-07-16T09:01:40Z</time>
      </trkpt>
      <trkpt lat="45.94709" lon="4.74028">
        <ele>187</ele>
        <time>2017-07-16T09:01:41Z</time>
      </trkpt>
      <trkpt lat="45.94715" lon="4.74036">
        <ele>187</ele>
        <time>2017-07-16T09:01:43Z</time>
      </trkpt>
      <trkpt lat="45.94718" lon="4.74039">
        <ele>187</ele>
        <time>2017-07-16T09:01:44Z</time>
      </trkpt>
      <trkpt lat="45.94724" lon="4.74047">
        <ele>187</ele>
        <time>2017-07-16T09:01:46Z</time>
      </trkpt>
      <trkpt lat="45.94727" lon="4.7405">
        <ele>188</ele>
        <time>2017-07-16T09:01:47Z</time>
      </trkpt>
      <trkpt lat="45.94733" lon="4.74058">
        <ele>188</ele>
        <time>2017-07-16T09:01:49Z</time>
      </trkpt>
      <trkpt lat="45.94736" lon="4.74061">
        <ele>188</ele>
        <time>2017-07-16T09:01:50Z</time>
      </trkpt>
      <trkpt lat="45.94741" lon="4.74069">
        <ele>188</ele>
        <time>2017-07-16T09:01:52Z</time>
      </trkpt>
      <trkpt lat="45.94744" lon="4.74072">
        <ele>188</ele>
        <time>2017-07-16T09:01:53Z</time>
      </trkpt>
      <trkpt lat="45.94748" lon="4.74079">
        <ele>189</ele>
        <time>2017-07-16T09:01:55Z</time>
      </trkpt>
      <trkpt lat="45.94751" lon="4.74083">
        <ele>189</ele>
        <time>2017-07-16T09:01:56Z</time>
      </trkpt>
      <trkpt lat="45.94756" lon="4.7409">
        <ele>189</ele>
        <time>2017-07-16T09:01:58Z</time>
      </trkpt>
      <trkpt lat="45.94759" lon="4.74094">
        <ele>189</ele>
        <time>2017-07-16T09:01:59Z</time>
      </trkpt>
      <trkpt lat="45.94764" lon="4.74102">
        <ele>189</ele>
        <time>2017-07-16T09:02:01Z</time>
      </trkpt>
      <trkpt lat="45.94767" lon="4.74106">
        <ele>189</ele>
        <time>2017-07-16T09:02:02Z</time>
      </trkpt>
      <trkpt lat="45.94771" lon="4.74113">
        <ele>189</ele>
        <time>2017-07-16T09:02:04Z</time>
      </trkpt>
      <trkpt lat="45.94773" lon="4.74117">
        <ele>189</ele>
        <time>2017-07-16T09:02:05Z</time>
      </trkpt>
      <trkpt lat="45.94778" lon="4.74124">
        <ele>189</ele>
        <time>2017-07-16T09:02:07Z</time>
      </trkpt>
      <trkpt lat="45.94781" lon="4.74127">
        <ele>189</ele>
        <time>2017-07-16T09:02:08Z</time>
      </trkpt>
      <trkpt lat="45.94787" lon="4.74135">
        <ele>189</ele>
        <time>2017-07-16T09:02:10Z</time>
      </trkpt>
      <trkpt lat="45.9479" lon="4.74139">
        <ele>189</ele>
        <time>2017-07-16T09:02:11Z</time>
      </trkpt>
      <trkpt lat="45.94795" lon="4.74146">
        <ele>189</ele>
        <time>2017-07-16T09:02:13Z</time>
      </trkpt>
      <trkpt lat="45.94797" lon="4.74151">
        <ele>189</ele>
        <time>2017-07-16T09:02:14Z</time>
      </trkpt>
      <trkpt lat="45.94802" lon="4.74159">
        <ele>189</ele>
        <time>2017-07-16T09:02:16Z</time>
      </trkpt>
      <trkpt lat="45.94804" lon="4.74163">
        <ele>189</ele>
        <time>2017-07-16T09:02:17Z</time>
      </trkpt>
      <trkpt lat="45.94809" lon="4.74171">
        <ele>189</ele>
        <time>2017-07-16T09:02:19Z</time>
      </trkpt>
      <trkpt lat="45.94812" lon="4.74176">
        <ele>189</ele>
        <time>2017-07-16T09:02:20Z</time>
      </trkpt>
      <trkpt lat="45.94817" lon="4.74185">
        <ele>189</ele>
        <time>2017-07-16T09:02:22Z</time>
      </trkpt>
      <trkpt lat="45.9482" lon="4.7419">
        <ele>189</ele>
        <time>2017-07-16T09:02:23Z</time>
      </trkpt>
      <trkpt lat="45.94825" lon="4.742">
        <ele>189</ele>
        <time>2017-07-16T09:02:25Z</time>
      </trkpt>
      <trkpt lat="45.94827" lon="4.74204">
        <ele>189</ele>
        <time>2017-07-16T09:02:26Z</time>
      </trkpt>
      <trkpt lat="45.94832" lon="4.74215">
        <ele>189</ele>
        <time>2017-07-16T09:02:28Z</time>
      </trkpt>
      <trkpt lat="45.94834" lon="4.7422">
        <ele>190</ele>
        <time>2017-07-16T09:02:29Z</time>
      </trkpt>
      <trkpt lat="45.94838" lon="4.74231">
        <ele>190</ele>
        <time>2017-07-16T09:02:31Z</time>
      </trkpt>
      <trkpt lat="45.94841" lon="4.74236">
        <ele>190</ele>
        <time>2017-07-16T09:02:32Z</time>
      </trkpt>
      <trkpt lat="45.94843" lon="4.74241">
        <ele>190</ele>
        <time>2017-07-16T09:02:33Z</time>
      </trkpt>
      <trkpt lat="45.94846" lon="4.74246">
        <ele>190</ele>
        <time>2017-07-16T09:02:34Z</time>
      </trkpt>
      <trkpt lat="45.9485" lon="4.74256">
        <ele>190</ele>
        <time>2017-07-16T09:02:36Z</time>
      </trkpt>
      <trkpt lat="45.94853" lon="4.7426">
        <ele>190</ele>
        <time>2017-07-16T09:02:37Z</time>
      </trkpt>
      <trkpt lat="45.94858" lon="4.74269">
        <ele>190</ele>
        <time>2017-07-16T09:02:39Z</time>
      </trkpt>
      <trkpt lat="45.9486" lon="4.74274">
        <ele>190</ele>
        <time>2017-07-16T09:02:40Z</time>
      </trkpt>
      <trkpt lat="45.94866" lon="4.74284">
        <ele>191</ele>
        <time>2017-07-16T09:02:42Z</time>
      </trkpt>
      <trkpt lat="45.94869" lon="4.74289">
        <ele>191</ele>
        <time>2017-07-16T09:02:43Z</time>
      </trkpt>
      <trkpt lat="45.94874" lon="4.74298">
        <ele>191</ele>
        <time>2017-07-16T09:02:45Z</time>
      </trkpt>
      <trkpt lat="45.94877" lon="4.74303">
        <ele>191</ele>
        <time>2017-07-16T09:02:46Z</time>
      </trkpt>
      <trkpt lat="45.94882" lon="4.74312">
        <ele>191</ele>
        <time>2017-07-16T09:02:48Z</time>
      </trkpt>
      <trkpt lat="45.94884" lon="4.74318">
        <ele>191</ele>
        <time>2017-07-16T09:02:49Z</time>
      </trkpt>
      <trkpt lat="45.9489" lon="4.74327">
        <ele>191</ele>
        <time>2017-07-16T09:02:51Z</time>
      </trkpt>
      <trkpt lat="45.94892" lon="4.74331">
        <ele>191</ele>
        <time>2017-07-16T09:02:52Z</time>
      </trkpt>
      <trkpt lat="45.94898" lon="4.74339">
        <ele>191</ele>
        <time>2017-07-16T09:02:54Z</time>
      </trkpt>
      <trkpt lat="45.949" lon="4.74344">
        <ele>191</ele>
        <time>2017-07-16T09:02:55Z</time>
      </trkpt>
      <trkpt lat="45.94906" lon="4.74354">
        <ele>191</ele>
        <time>2017-07-16T09:02:57Z</time>
      </trkpt>
      <trkpt lat="45.94908" lon="4.74359">
        <ele>191</ele>
        <time>2017-07-16T09:02:58Z</time>
      </trkpt>
      <trkpt lat="45.94911" lon="4.74364">
        <ele>191</ele>
        <time>2017-07-16T09:02:59Z</time>
      </trkpt>
      <trkpt lat="45.94914" lon="4.74369">
        <ele>191</ele>
        <time>2017-07-16T09:03:00Z</time>
      </trkpt>
      <trkpt lat="45.94919" lon="4.74379">
        <ele>192</ele>
        <time>2017-07-16T09:03:02Z</time>
      </trkpt>
      <trkpt lat="45.94921" lon="4.74384">
        <ele>192</ele>
        <time>2017-07-16T09:03:03Z</time>
      </trkpt>
      <trkpt lat="45.94925" lon="4.74393">
        <ele>192</ele>
        <time>2017-07-16T09:03:05Z</time>
      </trkpt>
      <trkpt lat="45.94928" lon="4.74397">
        <ele>192</ele>
        <time>2017-07-16T09:03:06Z</time>
      </trkpt>
      <trkpt lat="45.94933" lon="4.74407">
        <ele>192</ele>
        <time>2017-07-16T09:03:08Z</time>
      </trkpt>
      <trkpt lat="45.94935" lon="4.74411">
        <ele>192</ele>
        <time>2017-07-16T09:03:09Z</time>
      </trkpt>
      <trkpt lat="45.94941" lon="4.74421">
        <ele>192</ele>
        <time>2017-07-16T09:03:11Z</time>
      </trkpt>
      <trkpt lat="45.94943" lon="4.74426">
        <ele>192</ele>
        <time>2017-07-16T09:03:12Z</time>
      </trkpt>
      <trkpt lat="45.94947" lon="4.74437">
        <ele>192</ele>
        <time>2017-07-16T09:03:14Z</time>
      </trkpt>
      <trkpt lat="45.9495" lon="4.74442">
        <ele>192</ele>
        <time>2017-07-16T09:03:15Z</time>
      </trkpt>
      <trkpt lat="45.94955" lon="4.74452">
        <ele>192</ele>
        <time>2017-07-16T09:03:17Z</time>
      </trkpt>
      <trkpt lat="45.94956" lon="4.74457">
        <ele>192</ele>
        <time>2017-07-16T09:03:18Z</time>
      </trkpt>
      <trkpt lat="45.9496" lon="4.74465">
        <ele>193</ele>
        <time>2017-07-16T09:03:20Z</time>
      </trkpt>
      <trkpt lat="45.94963" lon="4.74469">
        <ele>193</ele>
        <time>2017-07-16T09:03:21Z</time>
      </trkpt>
      <trkpt lat="45.94968" lon="4.74478">
        <ele>193</ele>
        <time>2017-07-16T09:03:23Z</time>
      </trkpt>
      <trkpt lat="45.94971" lon="4.74483">
        <ele>193</ele>
        <time>2017-07-16T09:03:24Z</time>
      </trkpt>
      <trkpt lat="45.94973" lon="4.74489">
        <ele>193</ele>
        <time>2017-07-16T09:03:25Z</time>
      </trkpt>
      <trkpt lat="45.94976" lon="4.74494">
        <ele>193</ele>
        <time>2017-07-16T09:03:26Z</time>
      </trkpt>
      <trkpt lat="45.94979" lon="4.74499">
        <ele>193</ele>
        <time>2017-07-16T09:03:27Z</time>
      </trkpt>
      <trkpt lat="45.94981" lon="4.74504">
        <ele>193</ele>
        <time>2017-07-16T09:03:28Z</time>
      </trkpt>
      <trkpt lat="45.94986" lon="4.74515">
        <ele>193</ele>
        <time>2017-07-16T09:03:30Z</time>
      </trkpt>
      <trkpt lat="45.94989" lon="4.74519">
        <ele>193</ele>
        <time>2017-07-16T09:03:31Z</time>
      </trkpt>
      <trkpt lat="45.94993" lon="4.74528">
        <ele>193</ele>
        <time>2017-07-16T09:03:33Z</time>
      </trkpt>
      <trkpt lat="45.94995" lon="4.74532">
        <ele>193</ele>
        <time>2017-07-16T09:03:34Z</time>
      </trkpt>
      <trkpt lat="45.94999" lon="4.7454">
        <ele>193</ele>
        <time>2017-07-16T09:03:36Z</time>
      </trkpt>
      <trkpt lat="45.95001" lon="4.74545">
        <ele>194</ele>
        <time>2017-07-16T09:03:37Z</time>
      </trkpt>
      <trkpt lat="45.95006" lon="4.74554">
        <ele>194</ele>
        <time>2017-07-16T09:03:39Z</time>
      </trkpt>
      <trkpt lat="45.95008" lon="4.74559">
        <ele>194</ele>
        <time>2017-07-16T09:03:40Z</time>
      </trkpt>
      <trkpt lat="45.95013" lon="4.74568">
        <ele>194</ele>
        <time>2017-07-16T09:03:42Z</time>
      </trkpt>
      <trkpt lat="45.95015" lon="4.74572">
        <ele>194</ele>
        <time>2017-07-16T09:03:43Z</time>
      </trkpt>
      <trkpt lat="45.95018" lon="4.7458">
        <ele>194</ele>
        <time>2017-07-16T09:03:45Z</time>
      </trkpt>
      <trkpt lat="45.9502" lon="4.74584">
        <ele>194</ele>
        <time>2017-07-16T09:03:46Z</time>
      </trkpt>
      <trkpt lat="45.95024" lon="4.74593">
        <ele>194</ele>
        <time>2017-07-16T09:03:48Z</time>
      </trkpt>
      <trkpt lat="45.95027" lon="4.74597">
        <ele>194</ele>
        <time>2017-07-16T09:03:49Z</time>
      </trkpt>
      <trkpt lat="45.95031" lon="4.74606">
        <ele>194</ele>
        <time>2017-07-16T09:03:51Z</time>
      </trkpt>
      <trkpt lat="45.95032" lon="4.7461">
        <ele>194</ele>
        <time>2017-07-16T09:03:52Z</time>
      </trkpt>
      <trkpt lat="45.95036" lon="4.74619">
        <ele>194</ele>
        <time>2017-07-16T09:03:54Z</time>
      </trkpt>
      <trkpt lat="45.95039" lon="4.74624">
        <ele>194</ele>
        <time>2017-07-16T09:03:55Z</time>
      </trkpt>
      <trkpt lat="45.95044" lon="4.74634">
        <ele>194</ele>
        <time>2017-07-16T09:03:57Z</time>
      </trkpt>
      <trkpt lat="45.95047" lon="4.74639">
        <ele>194</ele>
        <time>2017-07-16T09:03:58Z</time>
      </trkpt>
      <trkpt lat="45.9505" lon="4.74645">
        <ele>194</ele>
        <time>2017-07-16T09:03:59Z</time>
      </trkpt>
      <trkpt lat="45.95053" lon="4.7465">
        <ele>194</ele>
        <time>2017-07-16T09:04:00Z</time>
      </trkpt>
      <trkpt lat="45.95058" lon="4.74659">
        <ele>194</ele>
        <time>2017-07-16T09:04:02Z</time>
      </trkpt>
      <trkpt lat="45.95061" lon="4.74664">
        <ele>195</ele>
        <time>2017-07-16T09:04:03Z</time>
      </trkpt>
      <trkpt lat="45.95067" lon="4.74674">
        <ele>194</ele>
        <time>2017-07-16T09:04:05Z</time>
      </trkpt>
      <trkpt lat="45.9507" lon="4.74679">
        <ele>194</ele>
        <time>2017-07-16T09:04:06Z</time>
      </trkpt>
      <trkpt lat="45.95072" lon="4.74685">
        <ele>194</ele>
        <time>2017-07-16T09:04:07Z</time>
      </trkpt>
      <trkpt lat="45.95075" lon="4.7469">
        <ele>194</ele>
        <time>2017-07-16T09:04:08Z</time>
      </trkpt>
      <trkpt lat="45.95081" lon="4.747">
        <ele>194</ele>
        <time>2017-07-16T09:04:10Z</time>
      </trkpt>
      <trkpt lat="45.95084" lon="4.74705">
        <ele>194</ele>
        <time>2017-07-16T09:04:11Z</time>
      </trkpt>
      <trkpt lat="45.95086" lon="4.7471">
        <ele>194</ele>
        <time>2017-07-16T09:04:12Z</time>
      </trkpt>
      <trkpt lat="45.95089" lon="4.74715">
        <ele>194</ele>
        <time>2017-07-16T09:04:13Z</time>
      </trkpt>
      <trkpt lat="45.95092" lon="4.74721">
        <ele>194</ele>
        <time>2017-07-16T09:04:14Z</time>
      </trkpt>
      <trkpt lat="45.95096" lon="4.74726">
        <ele>194</ele>
        <time>2017-07-16T09:04:15Z</time>
      </trkpt>
      <trkpt lat="45.95099" lon="4.74731">
        <ele>194</ele>
        <time>2017-07-16T09:04:16Z</time>
      </trkpt>
      <trkpt lat="45.95103" lon="4.74736">
        <ele>194</ele>
        <time>2017-07-16T09:04:17Z</time>
      </trkpt>
      <trkpt lat="45.95106" lon="4.74742">
        <ele>194</ele>
        <time>2017-07-16T09:04:18Z</time>
      </trkpt>
      <trkpt lat="45.95109" lon="4.74747">
        <ele>194</ele>
        <time>2017-07-16T09:04:19Z</time>
      </trkpt>
      <trkpt lat="45.95112" lon="4.74753">
        <ele>194</ele>
        <time>2017-07-16T09:04:20Z</time>
      </trkpt>
      <trkpt lat="45.95115" lon="4.74758">
        <ele>194</ele>
        <time>2017-07-16T09:04:21Z</time>
      </trkpt>
      <trkpt lat="45.95118" lon="4.74763">
        <ele>194</ele>
        <time>2017-07-16T09:04:22Z</time>
      </trkpt>
      <trkpt lat="45.95121" lon="4.74768">
        <ele>194</ele>
        <time>2017-07-16T09:04:23Z</time>
      </trkpt>
      <trkpt lat="45.95128" lon="4.74776">
        <ele>194</ele>
        <time>2017-07-16T09:04:25Z</time>
      </trkpt>
      <trkpt lat="45.9513" lon="4.74781">
        <ele>194</ele>
        <time>2017-07-16T09:04:26Z</time>
      </trkpt>
      <trkpt lat="45.95136" lon="4.7479">
        <ele>194</ele>
        <time>2017-07-16T09:04:28Z</time>
      </trkpt>
      <trkpt lat="45.95139" lon="4.74794">
        <ele>194</ele>
        <time>2017-07-16T09:04:29Z</time>
      </trkpt>
      <trkpt lat="45.95142" lon="4.74799">
        <ele>194</ele>
        <time>2017-07-16T09:04:30Z</time>
      </trkpt>
      <trkpt lat="45.95145" lon="4.74803">
        <ele>194</ele>
        <time>2017-07-16T09:04:31Z</time>
      </trkpt>
      <trkpt lat="45.95149" lon="4.74808">
        <ele>194</ele>
        <time>2017-07-16T09:04:32Z</time>
      </trkpt>
      <trkpt lat="45.95152" lon="4.74812">
        <ele>194</ele>
        <time>2017-07-16T09:04:33Z</time>
      </trkpt>
      <trkpt lat="45.95157" lon="4.7482">
        <ele>194</ele>
        <time>2017-07-16T09:04:35Z</time>
      </trkpt>
      <trkpt lat="45.9516" lon="4.74824">
        <ele>194</ele>
        <time>2017-07-16T09:04:36Z</time>
      </trkpt>
      <trkpt lat="45.95165" lon="4.74832">
        <ele>194</ele>
        <time>2017-07-16T09:04:38Z</time>
      </trkpt>
      <trkpt lat="45.95167" lon="4.74836">
        <ele>194</ele>
        <time>2017-07-16T09:04:39Z</time>
      </trkpt>
      <trkpt lat="45.95173" lon="4.74845">
        <ele>194</ele>
        <time>2017-07-16T09:04:41Z</time>
      </trkpt>
      <trkpt lat="45.95176" lon="4.74849">
        <ele>194</ele>
        <time>2017-07-16T09:04:42Z</time>
      </trkpt>
      <trkpt lat="45.95179" lon="4.74854">
        <ele>194</ele>
        <time>2017-07-16T09:04:43Z</time>
      </trkpt>
      <trkpt lat="45.95183" lon="4.74859">
        <ele>194</ele>
        <time>2017-07-16T09:04:44Z</time>
      </trkpt>
      <trkpt lat="45.95188" lon="4.74869">
        <ele>194</ele>
        <time>2017-07-16T09:04:46Z</time>
      </trkpt>
      <trkpt lat="45.95191" lon="4.74874">
        <ele>194</ele>
        <time>2017-07-16T09:04:47Z</time>
      </trkpt>
      <trkpt lat="45.95194" lon="4.74879">
        <ele>194</ele>
        <time>2017-07-16T09:04:48Z</time>
      </trkpt>
      <trkpt lat="45.95197" lon="4.74884">
        <ele>194</ele>
        <time>2017-07-16T09:04:49Z</time>
      </trkpt>
      <trkpt lat="45.952" lon="4.7489">
        <ele>194</ele>
        <time>2017-07-16T09:04:50Z</time>
      </trkpt>
      <trkpt lat="45.95203" lon="4.74896">
        <ele>194</ele>
        <time>2017-07-16T09:04:51Z</time>
      </trkpt>
      <trkpt lat="45.95207" lon="4.74901">
        <ele>194</ele>
        <time>2017-07-16T09:04:52Z</time>
      </trkpt>
      <trkpt lat="45.9521" lon="4.74906">
        <ele>193</ele>
        <time>2017-07-16T09:04:53Z</time>
      </trkpt>
      <trkpt lat="45.95214" lon="4.74911">
        <ele>193</ele>
        <time>2017-07-16T09:04:54Z</time>
      </trkpt>
      <trkpt lat="45.95218" lon="4.74916">
        <ele>193</ele>
        <time>2017-07-16T09:04:55Z</time>
      </trkpt>
      <trkpt lat="45.95224" lon="4.74925">
        <ele>192</ele>
        <time>2017-07-16T09:04:57Z</time>
      </trkpt>
      <trkpt lat="45.95226" lon="4.74929">
        <ele>192</ele>
        <time>2017-07-16T09:04:58Z</time>
      </trkpt>
      <trkpt lat="45.95232" lon="4.74938">
        <ele>192</ele>
        <time>2017-07-16T09:05:00Z</time>
      </trkpt>
      <trkpt lat="45.95235" lon="4.74943">
        <ele>192</ele>
        <time>2017-07-16T09:05:01Z</time>
      </trkpt>
      <trkpt lat="45.9524" lon="4.74951">
        <ele>192</ele>
        <time>2017-07-16T09:05:03Z</time>
      </trkpt>
      <trkpt lat="45.95243" lon="4.74956">
        <ele>192</ele>
        <time>2017-07-16T09:05:04Z</time>
      </trkpt>
      <trkpt lat="45.95246" lon="4.74961">
        <ele>191</ele>
        <time>2017-07-16T09:05:05Z</time>
      </trkpt>
      <trkpt lat="45.95249" lon="4.74966">
        <ele>191</ele>
        <time>2017-07-16T09:05:06Z</time>
      </trkpt>
      <trkpt lat="45.95252" lon="4.74971">
        <ele>192</ele>
        <time>2017-07-16T09:05:07Z</time>
      </trkpt>
      <trkpt lat="45.95255" lon="4.74975">
        <ele>192</ele>
        <time>2017-07-16T09:05:08Z</time>
      </trkpt>
      <trkpt lat="45.95262" lon="4.74984">
        <ele>192</ele>
        <time>2017-07-16T09:05:10Z</time>
      </trkpt>
      <trkpt lat="45.95265" lon="4.74988">
        <ele>192</ele>
        <time>2017-07-16T09:05:11Z</time>
      </trkpt>
      <trkpt lat="45.95271" lon="4.74996">
        <ele>192</ele>
        <time>2017-07-16T09:05:13Z</time>
      </trkpt>
      <trkpt lat="45.95274" lon="4.75001">
        <ele>191</ele>
        <time>2017-07-16T09:05:14Z</time>
      </trkpt>
      <trkpt lat="45.95277" lon="4.75006">
        <ele>191</ele>
        <time>2017-07-16T09:05:15Z</time>
      </trkpt>
      <trkpt lat="45.95281" lon="4.75012">
        <ele>191</ele>
        <time>2017-07-16T09:05:16Z</time>
      </trkpt>
      <trkpt lat="45.95285" lon="4.75018">
        <ele>191</ele>
        <time>2017-07-16T09:05:17Z</time>
      </trkpt>
      <trkpt lat="45.95289" lon="4.75024">
        <ele>191</ele>
        <time>2017-07-16T09:05:18Z</time>
      </trkpt>
      <trkpt lat="45.95292" lon="4.75029">
        <ele>191</ele>
        <time>2017-07-16T09:05:19Z</time>
      </trkpt>
      <trkpt lat="45.95295" lon="4.75035">
        <ele>191</ele>
        <time>2017-07-16T09:05:20Z</time>
      </trkpt>
      <trkpt lat="45.95298" lon="4.7504">
        <ele>191</ele>
        <time>2017-07-16T09:05:21Z</time>
      </trkpt>
      <trkpt lat="45.95301" lon="4.75045">
        <ele>191</ele>
        <time>2017-07-16T09:05:22Z</time>
      </trkpt>
      <trkpt lat="45.95304" lon="4.7505">
        <ele>191</ele>
        <time>2017-07-16T09:05:23Z</time>
      </trkpt>
      <trkpt lat="45.95308" lon="4.75055">
        <ele>192</ele>
        <time>2017-07-16T09:05:24Z</time>
      </trkpt>
      <trkpt lat="45.95312" lon="4.7506">
        <ele>192</ele>
        <time>2017-07-16T09:05:25Z</time>
      </trkpt>
      <trkpt lat="45.95315" lon="4.75066">
        <ele>192</ele>
        <time>2017-07-16T09:05:26Z</time>
      </trkpt>
      <trkpt lat="45.95318" lon="4.75072">
        <ele>192</ele>
        <time>2017-07-16T09:05:27Z</time>
      </trkpt>
      <trkpt lat="45.95322" lon="4.75077">
        <ele>192</ele>
        <time>2017-07-16T09:05:28Z</time>
      </trkpt>
      <trkpt lat="45.95325" lon="4.75082">
        <ele>192</ele>
        <time>2017-07-16T09:05:29Z</time>
      </trkpt>
      <trkpt lat="45.95328" lon="4.75087">
        <ele>192</ele>
        <time>2017-07-16T09:05:30Z</time>
      </trkpt>
      <trkpt lat="45.95335" lon="4.75096">
        <ele>192</ele>
        <time>2017-07-16T09:05:32Z</time>
      </trkpt>
      <trkpt lat="45.95338" lon="4.75101">
        <ele>192</ele>
        <time>2017-07-16T09:05:33Z</time>
      </trkpt>
      <trkpt lat="45.95343" lon="4.75109">
        <ele>192</ele>
        <time>2017-07-16T09:05:35Z</time>
      </trkpt>
      <trkpt lat="45.95346" lon="4.75114">
        <ele>192</ele>
        <time>2017-07-16T09:05:36Z</time>
      </trkpt>
      <trkpt lat="45.95352" lon="4.75123">
        <ele>191</ele>
        <time>2017-07-16T09:05:38Z</time>
      </trkpt>
      <trkpt lat="45.95355" lon="4.75128">
        <ele>191</ele>
        <time>2017-07-16T09:05:39Z</time>
      </trkpt>
      <trkpt lat="45.95359" lon="4.75133">
        <ele>191</ele>
        <time>2017-07-16T09:05:40Z</time>
      </trkpt>
      <trkpt lat="45.95362" lon="4.75139">
        <ele>191</ele>
        <time>2017-07-16T09:05:41Z</time>
      </trkpt>
      <trkpt lat="45.95366" lon="4.75144">
        <ele>191</ele>
        <time>2017-07-16T09:05:42Z</time>
      </trkpt>
      <trkpt lat="45.95369" lon="4.75149">
        <ele>191</ele>
        <time>2017-07-16T09:05:43Z</time>
      </trkpt>
      <trkpt lat="45.95373" lon="4.75154">
        <ele>191</ele>
        <time>2017-07-16T09:05:44Z</time>
      </trkpt>
      <trkpt lat="45.95376" lon="4.75159">
        <ele>191</ele>
        <time>2017-07-16T09:05:45Z</time>
      </trkpt>
      <trkpt lat="45.95379" lon="4.75164">
        <ele>191</ele>
        <time>2017-07-16T09:05:46Z</time>
      </trkpt>
      <trkpt lat="45.95383" lon="4.7517">
        <ele>189</ele>
        <time>2017-07-16T09:05:47Z</time>
      </trkpt>
      <trkpt lat="45.95387" lon="4.75174">
        <ele>189</ele>
        <time>2017-07-16T09:05:48Z</time>
      </trkpt>
      <trkpt lat="45.9539" lon="4.75179">
        <ele>189</ele>
        <time>2017-07-16T09:05:49Z</time>
      </trkpt>
      <trkpt lat="45.95393" lon="4.75185">
        <ele>189</ele>
        <time>2017-07-16T09:05:50Z</time>
      </trkpt>
      <trkpt lat="45.95396" lon="4.75191">
        <ele>189</ele>
        <time>2017-07-16T09:05:51Z</time>
      </trkpt>
      <trkpt lat="45.95401" lon="4.75201">
        <ele>189</ele>
        <time>2017-07-16T09:05:53Z</time>
      </trkpt>
      <trkpt lat="45.95404" lon="4.75206">
        <ele>189</ele>
        <time>2017-07-16T09:05:54Z</time>
      </trkpt>
      <trkpt lat="45.95408" lon="4.75212">
        <ele>189</ele>
        <time>2017-07-16T09:05:55Z</time>
      </trkpt>
      <trkpt lat="45.95411" lon="4.75219">
        <ele>189</ele>
        <time>2017-07-16T09:05:56Z</time>
      </trkpt>
      <trkpt lat="45.95413" lon="4.75226">
        <ele>189</ele>
        <time>2017-07-16T09:05:57Z</time>
      </trkpt>
      <trkpt lat="45.95416" lon="4.75231">
        <ele>189</ele>
        <time>2017-07-16T09:05:58Z</time>
      </trkpt>
      <trkpt lat="45.95419" lon="4.75237">
        <ele>190</ele>
        <time>2017-07-16T09:05:59Z</time>
      </trkpt>
      <trkpt lat="45.95424" lon="4.75243">
        <ele>190</ele>
        <time>2017-07-16T09:06:00Z</time>
      </trkpt>
      <trkpt lat="45.95427" lon="4.75248">
        <ele>190</ele>
        <time>2017-07-16T09:06:01Z</time>
      </trkpt>
      <trkpt lat="45.9543" lon="4.75253">
        <ele>189</ele>
        <time>2017-07-16T09:06:02Z</time>
      </trkpt>
      <trkpt lat="45.95434" lon="4.75259">
        <ele>189</ele>
        <time>2017-07-16T09:06:03Z</time>
      </trkpt>
      <trkpt lat="45.95437" lon="4.75265">
        <ele>189</ele>
        <time>2017-07-16T09:06:04Z</time>
      </trkpt>
      <trkpt lat="45.95441" lon="4.75271">
        <ele>189</ele>
        <time>2017-07-16T09:06:05Z</time>
      </trkpt>
      <trkpt lat="45.95444" lon="4.75277">
        <ele>189</ele>
        <time>2017-07-16T09:06:06Z</time>
      </trkpt>
      <trkpt lat="45.95448" lon="4.75283">
        <ele>188</ele>
        <time>2017-07-16T09:06:07Z</time>
      </trkpt>
      <trkpt lat="45.95451" lon="4.75289">
        <ele>188</ele>
        <time>2017-07-16T09:06:08Z</time>
      </trkpt>
      <trkpt lat="45.95455" lon="4.75295">
        <ele>188</ele>
        <time>2017-07-16T09:06:09Z</time>
      </trkpt>
      <trkpt lat="45.95458" lon="4.75301">
        <ele>188</ele>
        <time>2017-07-16T09:06:10Z</time>
      </trkpt>
      <trkpt lat="45.95461" lon="4.75306">
        <ele>188</ele>
        <time>2017-07-16T09:06:11Z</time>
      </trkpt>
      <trkpt lat="45.95464" lon="4.75312">
        <ele>188</ele>
        <time>2017-07-16T09:06:12Z</time>
      </trkpt>
      <trkpt lat="45.95468" lon="4.75318">
        <ele>188</ele>
        <time>2017-07-16T09:06:13Z</time>
      </trkpt>
      <trkpt lat="45.95471" lon="4.75324">
        <ele>188</ele>
        <time>2017-07-16T09:06:14Z</time>
      </trkpt>
      <trkpt lat="45.95474" lon="4.7533">
        <ele>188</ele>
        <time>2017-07-16T09:06:15Z</time>
      </trkpt>
      <trkpt lat="45.95477" lon="4.75336">
        <ele>186</ele>
        <time>2017-07-16T09:06:16Z</time>
      </trkpt>
      <trkpt lat="45.9548" lon="4.75342">
        <ele>186</ele>
        <time>2017-07-16T09:06:17Z</time>
      </trkpt>
      <trkpt lat="45.95482" lon="4.75348">
        <ele>186</ele>
        <time>2017-07-16T09:06:18Z</time>
      </trkpt>
      <trkpt lat="45.95485" lon="4.75354">
        <ele>186</ele>
        <time>2017-07-16T09:06:19Z</time>
      </trkpt>
      <trkpt lat="45.95488" lon="4.75361">
        <ele>186</ele>
        <time>2017-07-16T09:06:20Z</time>
      </trkpt>
      <trkpt lat="45.95491" lon="4.75367">
        <ele>186</ele>
        <time>2017-07-16T09:06:21Z</time>
      </trkpt>
      <trkpt lat="45.95494" lon="4.75374">
        <ele>185</ele>
        <time>2017-07-16T09:06:22Z</time>
      </trkpt>
      <trkpt lat="45.95496" lon="4.7538">
        <ele>185</ele>
        <time>2017-07-16T09:06:23Z</time>
      </trkpt>
      <trkpt lat="45.95498" lon="4.75386">
        <ele>185</ele>
        <time>2017-07-16T09:06:24Z</time>
      </trkpt>
      <trkpt lat="45.95501" lon="4.75392">
        <ele>188</ele>
        <time>2017-07-16T09:06:25Z</time>
      </trkpt>
      <trkpt lat="45.95503" lon="4.75398">
        <ele>187</ele>
        <time>2017-07-16T09:06:26Z</time>
      </trkpt>
      <trkpt lat="45.95504" lon="4.75404">
        <ele>187</ele>
        <time>2017-07-16T09:06:27Z</time>
      </trkpt>
      <trkpt lat="45.95506" lon="4.7541">
        <ele>186</ele>
        <time>2017-07-16T09:06:28Z</time>
      </trkpt>
      <trkpt lat="45.95507" lon="4.75417">
        <ele>186</ele>
        <time>2017-07-16T09:06:29Z</time>
      </trkpt>
      <trkpt lat="45.95509" lon="4.75425">
        <ele>186</ele>
        <time>2017-07-16T09:06:30Z</time>
      </trkpt>
      <trkpt lat="45.9551" lon="4.75432">
        <ele>186</ele>
        <time>2017-07-16T09:06:31Z</time>
      </trkpt>
      <trkpt lat="45.95512" lon="4.7544">
        <ele>187</ele>
        <time>2017-07-16T09:06:32Z</time>
      </trkpt>
      <trkpt lat="45.95512" lon="4.75447">
        <ele>187</ele>
        <time>2017-07-16T09:06:33Z</time>
      </trkpt>
      <trkpt lat="45.95513" lon="4.75455">
        <ele>187</ele>
        <time>2017-07-16T09:06:34Z</time>
      </trkpt>
      <trkpt lat="45.95512" lon="4.75462">
        <ele>187</ele>
        <time>2017-07-16T09:06:35Z</time>
      </trkpt>
      <trkpt lat="45.95512" lon="4.75469">
        <ele>186</ele>
        <time>2017-07-16T09:06:36Z</time>
      </trkpt>
      <trkpt lat="45.95512" lon="4.75476">
        <ele>186</ele>
        <time>2017-07-16T09:06:37Z</time>
      </trkpt>
      <trkpt lat="45.95513" lon="4.75483">
        <ele>186</ele>
        <time>2017-07-16T09:06:38Z</time>
      </trkpt>
      <trkpt lat="45.95515" lon="4.7549">
        <ele>186</ele>
        <time>2017-07-16T09:06:39Z</time>
      </trkpt>
      <trkpt lat="45.95518" lon="4.75496">
        <ele>186</ele>
        <time>2017-07-16T09:06:40Z</time>
      </trkpt>
      <trkpt lat="45.95522" lon="4.755">
        <ele>186</ele>
        <time>2017-07-16T09:06:41Z</time>
      </trkpt>
      <trkpt lat="45.95527" lon="4.75503">
        <ele>185</ele>
        <time>2017-07-16T09:06:42Z</time>
      </trkpt>
      <trkpt lat="45.95532" lon="4.75507">
        <ele>185</ele>
        <time>2017-07-16T09:06:43Z</time>
      </trkpt>
      <trkpt lat="45.95536" lon="4.75511">
        <ele>186</ele>
        <time>2017-07-16T09:06:44Z</time>
      </trkpt>
      <trkpt lat="45.9554" lon="4.75515">
        <ele>186</ele>
        <time>2017-07-16T09:06:45Z</time>
      </trkpt>
      <trkpt lat="45.95544" lon="4.7552">
        <ele>186</ele>
        <time>2017-07-16T09:06:46Z</time>
      </trkpt>
      <trkpt lat="45.95549" lon="4.75524">
        <ele>186</ele>
        <time>2017-07-16T09:06:47Z</time>
      </trkpt>
      <trkpt lat="45.95553" lon="4.75529">
        <ele>186</ele>
        <time>2017-07-16T09:06:48Z</time>
      </trkpt>
      <trkpt lat="45.95558" lon="4.75533">
        <ele>186</ele>
        <time>2017-07-16T09:06:49Z</time>
      </trkpt>
      <trkpt lat="45.95563" lon="4.75537">
        <ele>186</ele>
        <time>2017-07-16T09:06:50Z</time>
      </trkpt>
      <trkpt lat="45.95567" lon="4.75541">
        <ele>186</ele>
        <time>2017-07-16T09:06:51Z</time>
      </trkpt>
      <trkpt lat="45.95571" lon="4.75546">
        <ele>186</ele>
        <time>2017-07-16T09:06:52Z</time>
      </trkpt>
      <trkpt lat="45.95575" lon="4.7555">
        <ele>186</ele>
        <time>2017-07-16T09:06:53Z</time>
      </trkpt>
      <trkpt lat="45.95579" lon="4.75555">
        <ele>186</ele>
        <time>2017-07-16T09:06:54Z</time>
      </trkpt>
      <trkpt lat="45.95585" lon="4.75563">
        <ele>188</ele>
        <time>2017-07-16T09:06:56Z</time>
      </trkpt>
      <trkpt lat="45.95588" lon="4.75568">
        <ele>188</ele>
        <time>2017-07-16T09:06:57Z</time>
      </trkpt>
      <trkpt lat="45.95591" lon="4.75573">
        <ele>187</ele>
        <time>2017-07-16T09:06:58Z</time>
      </trkpt>
      <trkpt lat="45.95594" lon="4.75578">
        <ele>187</ele>
        <time>2017-07-16T09:06:59Z</time>
      </trkpt>
      <trkpt lat="45.95597" lon="4.75584">
        <ele>187</ele>
        <time>2017-07-16T09:07:00Z</time>
      </trkpt>
      <trkpt lat="45.95599" lon="4.75591">
        <ele>187</ele>
        <time>2017-07-16T09:07:01Z</time>
      </trkpt>
      <trkpt lat="45.95602" lon="4.75598">
        <ele>187</ele>
        <time>2017-07-16T09:07:02Z</time>
      </trkpt>
      <trkpt lat="45.95605" lon="4.75605">
        <ele>187</ele>
        <time>2017-07-16T09:07:03Z</time>
      </trkpt>
      <trkpt lat="45.95608" lon="4.75612">
        <ele>188</ele>
        <time>2017-07-16T09:07:04Z</time>
      </trkpt>
      <trkpt lat="45.9561" lon="4.75619">
        <ele>188</ele>
        <time>2017-07-16T09:07:05Z</time>
      </trkpt>
      <trkpt lat="45.95613" lon="4.75625">
        <ele>188</ele>
        <time>2017-07-16T09:07:06Z</time>
      </trkpt>
      <trkpt lat="45.95614" lon="4.75632">
        <ele>188</ele>
        <time>2017-07-16T09:07:07Z</time>
      </trkpt>
      <trkpt lat="45.95616" lon="4.75638">
        <ele>188</ele>
        <time>2017-07-16T09:07:08Z</time>
      </trkpt>
      <trkpt lat="45.95617" lon="4.75645">
        <ele>188</ele>
        <time>2017-07-16T09:07:09Z</time>
      </trkpt>
      <trkpt lat="45.95619" lon="4.75651">
        <ele>188</ele>
        <time>2017-07-16T09:07:10Z</time>
      </trkpt>
      <trkpt lat="45.9562" lon="4.75658">
        <ele>188</ele>
        <time>2017-07-16T09:07:11Z</time>
      </trkpt>
      <trkpt lat="45.95621" lon="4.75665">
        <ele>188</ele>
        <time>2017-07-16T09:07:12Z</time>
      </trkpt>
      <trkpt lat="45.95622" lon="4.75672">
        <ele>187</ele>
        <time>2017-07-16T09:07:13Z</time>
      </trkpt>
      <trkpt lat="45.95623" lon="4.75679">
        <ele>187</ele>
        <time>2017-07-16T09:07:14Z</time>
      </trkpt>
      <trkpt lat="45.95624" lon="4.75686">
        <ele>187</ele>
        <time>2017-07-16T09:07:15Z</time>
      </trkpt>
      <trkpt lat="45.95625" lon="4.75692">
        <ele>187</ele>
        <time>2017-07-16T09:07:16Z</time>
      </trkpt>
      <trkpt lat="45.95627" lon="4.75699">
        <ele>187</ele>
        <time>2017-07-16T09:07:17Z</time>
      </trkpt>
      <trkpt lat="45.95628" lon="4.75706">
        <ele>187</ele>
        <time>2017-07-16T09:07:18Z</time>
      </trkpt>
      <trkpt lat="45.95629" lon="4.75714">
        <ele>187</ele>
        <time>2017-07-16T09:07:19Z</time>
      </trkpt>
      <trkpt lat="45.9563" lon="4.75721">
        <ele>187</ele>
        <time>2017-07-16T09:07:20Z</time>
      </trkpt>
      <trkpt lat="45.9563" lon="4.75728">
        <ele>187</ele>
        <time>2017-07-16T09:07:21Z</time>
      </trkpt>
      <trkpt lat="45.95631" lon="4.75735">
        <ele>187</ele>
        <time>2017-07-16T09:07:22Z</time>
      </trkpt>
      <trkpt lat="45.95632" lon="4.75742">
        <ele>187</ele>
        <time>2017-07-16T09:07:23Z</time>
      </trkpt>
      <trkpt lat="45.95633" lon="4.75749">
        <ele>187</ele>
        <time>2017-07-16T09:07:24Z</time>
      </trkpt>
      <trkpt lat="45.95633" lon="4.75755">
        <ele>186</ele>
        <time>2017-07-16T09:07:25Z</time>
      </trkpt>
      <trkpt lat="45.95634" lon="4.75762">
        <ele>186</ele>
        <time>2017-07-16T09:07:26Z</time>
      </trkpt>
      <trkpt lat="45.95635" lon="4.7577">
        <ele>186</ele>
        <time>2017-07-16T09:07:27Z</time>
      </trkpt>
      <trkpt lat="45.95636" lon="4.75777">
        <ele>185</ele>
        <time>2017-07-16T09:07:28Z</time>
      </trkpt>
      <trkpt lat="45.95638" lon="4.75784">
        <ele>185</ele>
        <time>2017-07-16T09:07:29Z</time>
      </trkpt>
      <trkpt lat="45.95639" lon="4.75791">
        <ele>185</ele>
        <time>2017-07-16T09:07:30Z</time>
      </trkpt>
      <trkpt lat="45.9564" lon="4.75797">
        <ele>185</ele>
        <time>2017-07-16T09:07:31Z</time>
      </trkpt>
      <trkpt lat="45.9564" lon="4.75804">
        <ele>185</ele>
        <time>2017-07-16T09:07:32Z</time>
      </trkpt>
      <trkpt lat="45.95641" lon="4.75811">
        <ele>185</ele>
        <time>2017-07-16T09:07:33Z</time>
      </trkpt>
      <trkpt lat="45.95642" lon="4.75818">
        <ele>185</ele>
        <time>2017-07-16T09:07:34Z</time>
      </trkpt>
      <trkpt lat="45.95644" lon="4.75824">
        <ele>185</ele>
        <time>2017-07-16T09:07:35Z</time>
      </trkpt>
      <trkpt lat="45.95647" lon="4.75836">
        <ele>185</ele>
        <time>2017-07-16T09:07:37Z</time>
      </trkpt>
      <trkpt lat="45.95649" lon="4.75842">
        <ele>185</ele>
        <time>2017-07-16T09:07:38Z</time>
      </trkpt>
      <trkpt lat="45.95652" lon="4.75852">
        <ele>184</ele>
        <time>2017-07-16T09:07:40Z</time>
      </trkpt>
      <trkpt lat="45.95654" lon="4.75858">
        <ele>184</ele>
        <time>2017-07-16T09:07:41Z</time>
      </trkpt>
      <trkpt lat="45.95656" lon="4.75864">
        <ele>184</ele>
        <time>2017-07-16T09:07:42Z</time>
      </trkpt>
      <trkpt lat="45.95658" lon="4.7587">
        <ele>184</ele>
        <time>2017-07-16T09:07:43Z</time>
      </trkpt>
      <trkpt lat="45.9566" lon="4.75877">
        <ele>184</ele>
        <time>2017-07-16T09:07:44Z</time>
      </trkpt>
      <trkpt lat="45.95663" lon="4.75884">
        <ele>184</ele>
        <time>2017-07-16T09:07:45Z</time>
      </trkpt>
      <trkpt lat="45.95665" lon="4.7589">
        <ele>184</ele>
        <time>2017-07-16T09:07:46Z</time>
      </trkpt>
      <trkpt lat="45.95668" lon="4.75897">
        <ele>185</ele>
        <time>2017-07-16T09:07:47Z</time>
      </trkpt>
      <trkpt lat="45.9567" lon="4.75904">
        <ele>185</ele>
        <time>2017-07-16T09:07:48Z</time>
      </trkpt>
      <trkpt lat="45.95673" lon="4.75911">
        <ele>185</ele>
        <time>2017-07-16T09:07:49Z</time>
      </trkpt>
      <trkpt lat="45.95676" lon="4.75917">
        <ele>184</ele>
        <time>2017-07-16T09:07:50Z</time>
      </trkpt>
      <trkpt lat="45.95679" lon="4.75923">
        <ele>185</ele>
        <time>2017-07-16T09:07:51Z</time>
      </trkpt>
      <trkpt lat="45.95681" lon="4.7593">
        <ele>185</ele>
        <time>2017-07-16T09:07:52Z</time>
      </trkpt>
      <trkpt lat="45.95684" lon="4.75936">
        <ele>185</ele>
        <time>2017-07-16T09:07:53Z</time>
      </trkpt>
      <trkpt lat="45.95687" lon="4.75942">
        <ele>185</ele>
        <time>2017-07-16T09:07:54Z</time>
      </trkpt>
      <trkpt lat="45.9569" lon="4.75947">
        <ele>185</ele>
        <time>2017-07-16T09:07:55Z</time>
      </trkpt>
      <trkpt lat="45.95695" lon="4.75957">
        <ele>185</ele>
        <time>2017-07-16T09:07:57Z</time>
      </trkpt>
      <trkpt lat="45.95697" lon="4.75963">
        <ele>185</ele>
        <time>2017-07-16T09:07:58Z</time>
      </trkpt>
      <trkpt lat="45.95702" lon="4.75973">
        <ele>185</ele>
        <time>2017-07-16T09:08:00Z</time>
      </trkpt>
      <trkpt lat="45.95705" lon="4.75979">
        <ele>185</ele>
        <time>2017-07-16T09:08:01Z</time>
      </trkpt>
      <trkpt lat="45.95708" lon="4.75984">
        <ele>185</ele>
        <time>2017-07-16T09:08:02Z</time>
      </trkpt>
      <trkpt lat="45.9571" lon="4.7599">
        <ele>185</ele>
        <time>2017-07-16T09:08:03Z</time>
      </trkpt>
      <trkpt lat="45.95715" lon="4.76">
        <ele>184</ele>
        <time>2017-07-16T09:08:05Z</time>
      </trkpt>
      <trkpt lat="45.95717" lon="4.76005">
        <ele>184</ele>
        <time>2017-07-16T09:08:06Z</time>
      </trkpt>
      <trkpt lat="45.95721" lon="4.76016">
        <ele>184</ele>
        <time>2017-07-16T09:08:08Z</time>
      </trkpt>
      <trkpt lat="45.95723" lon="4.76021">
        <ele>184</ele>
        <time>2017-07-16T09:08:09Z</time>
      </trkpt>
      <trkpt lat="45.95725" lon="4.76027">
        <ele>184</ele>
        <time>2017-07-16T09:08:10Z</time>
      </trkpt>
      <trkpt lat="45.95728" lon="4.76032">
        <ele>184</ele>
        <time>2017-07-16T09:08:11Z</time>
      </trkpt>
      <trkpt lat="45.9573" lon="4.76038">
        <ele>184</ele>
        <time>2017-07-16T09:08:12Z</time>
      </trkpt>
      <trkpt lat="45.95733" lon="4.76045">
        <ele>184</ele>
        <time>2017-07-16T09:08:13Z</time>
      </trkpt>
      <trkpt lat="45.95735" lon="4.76051">
        <ele>184</ele>
        <time>2017-07-16T09:08:14Z</time>
      </trkpt>
      <trkpt lat="45.95738" lon="4.76057">
        <ele>184</ele>
        <time>2017-07-16T09:08:15Z</time>
      </trkpt>
      <trkpt lat="45.9574" lon="4.76062">
        <ele>184</ele>
        <time>2017-07-16T09:08:16Z</time>
      </trkpt>
      <trkpt lat="45.95742" lon="4.76068">
        <ele>185</ele>
        <time>2017-07-16T09:08:17Z</time>
      </trkpt>
      <trkpt lat="45.95746" lon="4.76079">
        <ele>185</ele>
        <time>2017-07-16T09:08:19Z</time>
      </trkpt>
      <trkpt lat="45.95747" lon="4.76083">
        <ele>185</ele>
        <time>2017-07-16T09:08:20Z</time>
      </trkpt>
      <trkpt lat="45.95751" lon="4.76094">
        <ele>186</ele>
        <time>2017-07-16T09:08:22Z</time>
      </trkpt>
      <trkpt lat="45.95752" lon="4.761">
        <ele>186</ele>
        <time>2017-07-16T09:08:23Z</time>
      </trkpt>
      <trkpt lat="45.95755" lon="4.76112">
        <ele>186</ele>
        <time>2017-07-16T09:08:25Z</time>
      </trkpt>
      <trkpt lat="45.95756" lon="4.76119">
        <ele>186</ele>
        <time>2017-07-16T09:08:26Z</time>
      </trkpt>
      <trkpt lat="45.95757" lon="4.76126">
        <ele>186</ele>
        <time>2017-07-16T09:08:27Z</time>
      </trkpt>
      <trkpt lat="45.95758" lon="4.76133">
        <ele>186</ele>
        <time>2017-07-16T09:08:28Z</time>
      </trkpt>
      <trkpt lat="45.95759" lon="4.76145">
        <ele>186</ele>
        <time>2017-07-16T09:08:30Z</time>
      </trkpt>
      <trkpt lat="45.9576" lon="4.76151">
        <ele>186</ele>
        <time>2017-07-16T09:08:31Z</time>
      </trkpt>
      <trkpt lat="45.9576" lon="4.76158">
        <ele>186</ele>
        <time>2017-07-16T09:08:32Z</time>
      </trkpt>
      <trkpt lat="45.95761" lon="4.76165">
        <ele>186</ele>
        <time>2017-07-16T09:08:33Z</time>
      </trkpt>
      <trkpt lat="45.95762" lon="4.76172">
        <ele>185</ele>
        <time>2017-07-16T09:08:34Z</time>
      </trkpt>
      <trkpt lat="45.95762" lon="4.76179">
        <ele>185</ele>
        <time>2017-07-16T09:08:35Z</time>
      </trkpt>
      <trkpt lat="45.95763" lon="4.76191">
        <ele>186</ele>
        <time>2017-07-16T09:08:37Z</time>
      </trkpt>
      <trkpt lat="45.95763" lon="4.76197">
        <ele>186</ele>
        <time>2017-07-16T09:08:38Z</time>
      </trkpt>
      <trkpt lat="45.95764" lon="4.76209">
        <ele>186</ele>
        <time>2017-07-16T09:08:40Z</time>
      </trkpt>
      <trkpt lat="45.95765" lon="4.76215">
        <ele>186</ele>
        <time>2017-07-16T09:08:41Z</time>
      </trkpt>
      <trkpt lat="45.95765" lon="4.76221">
        <ele>186</ele>
        <time>2017-07-16T09:08:42Z</time>
      </trkpt>
      <trkpt lat="45.95766" lon="4.76228">
        <ele>186</ele>
        <time>2017-07-16T09:08:43Z</time>
      </trkpt>
      <trkpt lat="45.95767" lon="4.76235">
        <ele>186</ele>
        <time>2017-07-16T09:08:44Z</time>
      </trkpt>
      <trkpt lat="45.95767" lon="4.76242">
        <ele>186</ele>
        <time>2017-07-16T09:08:45Z</time>
      </trkpt>
      <trkpt lat="45.95767" lon="4.76249">
        <ele>186</ele>
        <time>2017-07-16T09:08:46Z</time>
      </trkpt>
      <trkpt lat="45.95767" lon="4.76256">
        <ele>185</ele>
        <time>2017-07-16T09:08:47Z</time>
      </trkpt>
      <trkpt lat="45.95767" lon="4.76263">
        <ele>185</ele>
        <time>2017-07-16T09:08:48Z</time>
      </trkpt>
      <trkpt lat="45.95768" lon="4.76269">
        <ele>186</ele>
        <time>2017-07-16T09:08:49Z</time>
      </trkpt>
      <trkpt lat="45.95769" lon="4.76282">
        <ele>186</ele>
        <time>2017-07-16T09:08:51Z</time>
      </trkpt>
      <trkpt lat="45.95769" lon="4.76288">
        <ele>186</ele>
        <time>2017-07-16T09:08:52Z</time>
      </trkpt>
      <trkpt lat="45.95769" lon="4.76295">
        <ele>186</ele>
        <time>2017-07-16T09:08:53Z</time>
      </trkpt>
      <trkpt lat="45.9577" lon="4.76302">
        <ele>186</ele>
        <time>2017-07-16T09:08:54Z</time>
      </trkpt>
      <trkpt lat="45.9577" lon="4.76309">
        <ele>186</ele>
        <time>2017-07-16T09:08:55Z</time>
      </trkpt>
      <trkpt lat="45.95771" lon="4.76315">
        <ele>185</ele>
        <time>2017-07-16T09:08:56Z</time>
      </trkpt>
      <trkpt lat="45.95771" lon="4.76322">
        <ele>185</ele>
        <time>2017-07-16T09:08:57Z</time>
      </trkpt>
      <trkpt lat="45.95771" lon="4.76328">
        <ele>185</ele>
        <time>2017-07-16T09:08:58Z</time>
      </trkpt>
      <trkpt lat="45.95772" lon="4.76341">
        <ele>186</ele>
        <time>2017-07-16T09:09:00Z</time>
      </trkpt>
      <trkpt lat="45.95772" lon="4.76347">
        <ele>186</ele>
        <time>2017-07-16T09:09:01Z</time>
      </trkpt>
      <trkpt lat="45.95772" lon="4.76359">
        <ele>186</ele>
        <time>2017-07-16T09:09:03Z</time>
      </trkpt>
      <trkpt lat="45.95773" lon="4.76366">
        <ele>186</ele>
        <time>2017-07-16T09:09:04Z</time>
      </trkpt>
      <trkpt lat="45.95773" lon="4.76373">
        <ele>186</ele>
        <time>2017-07-16T09:09:05Z</time>
      </trkpt>
      <trkpt lat="45.95773" lon="4.76379">
        <ele>186</ele>
        <time>2017-07-16T09:09:06Z</time>
      </trkpt>
      <trkpt lat="45.95774" lon="4.76391">
        <ele>186</ele>
        <time>2017-07-16T09:09:08Z</time>
      </trkpt>
      <trkpt lat="45.95775" lon="4.76397">
        <ele>186</ele>
        <time>2017-07-16T09:09:09Z</time>
      </trkpt>
      <trkpt lat="45.95776" lon="4.76408">
        <ele>186</ele>
        <time>2017-07-16T09:09:11Z</time>
      </trkpt>
      <trkpt lat="45.95776" lon="4.76414">
        <ele>186</ele>
        <time>2017-07-16T09:09:12Z</time>
      </trkpt>
      <trkpt lat="45.95777" lon="4.76421">
        <ele>186</ele>
        <time>2017-07-16T09:09:13Z</time>
      </trkpt>
      <trkpt lat="45.95778" lon="4.76427">
        <ele>186</ele>
        <time>2017-07-16T09:09:14Z</time>
      </trkpt>
      <trkpt lat="45.95779" lon="4.76434">
        <ele>186</ele>
        <time>2017-07-16T09:09:15Z</time>
      </trkpt>
      <trkpt lat="45.9578" lon="4.7644">
        <ele>186</ele>
        <time>2017-07-16T09:09:16Z</time>
      </trkpt>
      <trkpt lat="45.95781" lon="4.76446">
        <ele>186</ele>
        <time>2017-07-16T09:09:17Z</time>
      </trkpt>
      <trkpt lat="45.95781" lon="4.76453">
        <ele>186</ele>
        <time>2017-07-16T09:09:18Z</time>
      </trkpt>
      <trkpt lat="45.95783" lon="4.76465">
        <ele>186</ele>
        <time>2017-07-16T09:09:20Z</time>
      </trkpt>
      <trkpt lat="45.95784" lon="4.76472">
        <ele>186</ele>
        <time>2017-07-16T09:09:21Z</time>
      </trkpt>
      <trkpt lat="45.95784" lon="4.76479">
        <ele>186</ele>
        <time>2017-07-16T09:09:22Z</time>
      </trkpt>
      <trkpt lat="45.95785" lon="4.76486">
        <ele>186</ele>
        <time>2017-07-16T09:09:23Z</time>
      </trkpt>
      <trkpt lat="45.95787" lon="4.76493">
        <ele>186</ele>
        <time>2017-07-16T09:09:24Z</time>
      </trkpt>
      <trkpt lat="45.95787" lon="4.76499">
        <ele>186</ele>
        <time>2017-07-16T09:09:25Z</time>
      </trkpt>
      <trkpt lat="45.95789" lon="4.76511">
        <ele>187</ele>
        <time>2017-07-16T09:09:27Z</time>
      </trkpt>
      <trkpt lat="45.9579" lon="4.76517">
        <ele>187</ele>
        <time>2017-07-16T09:09:28Z</time>
      </trkpt>
      <trkpt lat="45.95791" lon="4.76529">
        <ele>187</ele>
        <time>2017-07-16T09:09:30Z</time>
      </trkpt>
      <trkpt lat="45.95792" lon="4.76536">
        <ele>187</ele>
        <time>2017-07-16T09:09:31Z</time>
      </trkpt>
      <trkpt lat="45.95794" lon="4.76548">
        <ele>187</ele>
        <time>2017-07-16T09:09:33Z</time>
      </trkpt>
      <trkpt lat="45.95795" lon="4.76555">
        <ele>187</ele>
        <time>2017-07-16T09:09:34Z</time>
      </trkpt>
      <trkpt lat="45.95796" lon="4.76562">
        <ele>187</ele>
        <time>2017-07-16T09:09:35Z</time>
      </trkpt>
      <trkpt lat="45.95797" lon="4.76569">
        <ele>187</ele>
        <time>2017-07-16T09:09:36Z</time>
      </trkpt>
      <trkpt lat="45.95799" lon="4.76576">
        <ele>187</ele>
        <time>2017-07-16T09:09:37Z</time>
      </trkpt>
      <trkpt lat="45.958" lon="4.76583">
        <ele>187</ele>
        <time>2017-07-16T09:09:38Z</time>
      </trkpt>
      <trkpt lat="45.95801" lon="4.7659">
        <ele>187</ele>
        <time>2017-07-16T09:09:39Z</time>
      </trkpt>
      <trkpt lat="45.95802" lon="4.76596">
        <ele>187</ele>
        <time>2017-07-16T09:09:40Z</time>
      </trkpt>
      <trkpt lat="45.95803" lon="4.76603">
        <ele>188</ele>
        <time>2017-07-16T09:09:41Z</time>
      </trkpt>
      <trkpt lat="45.95803" lon="4.7661">
        <ele>188</ele>
        <time>2017-07-16T09:09:42Z</time>
      </trkpt>
      <trkpt lat="45.95804" lon="4.76616">
        <ele>188</ele>
        <time>2017-07-16T09:09:43Z</time>
      </trkpt>
      <trkpt lat="45.95805" lon="4.76624">
        <ele>188</ele>
        <time>2017-07-16T09:09:44Z</time>
      </trkpt>
      <trkpt lat="45.95806" lon="4.76631">
        <ele>188</ele>
        <time>2017-07-16T09:09:45Z</time>
      </trkpt>
      <trkpt lat="45.95807" lon="4.76637">
        <ele>188</ele>
        <time>2017-07-16T09:09:46Z</time>
      </trkpt>
      <trkpt lat="45.95809" lon="4.7665">
        <ele>188</ele>
        <time>2017-07-16T09:09:48Z</time>
      </trkpt>
      <trkpt lat="45.95809" lon="4.76656">
        <ele>188</ele>
        <time>2017-07-16T09:09:49Z</time>
      </trkpt>
      <trkpt lat="45.95811" lon="4.76668">
        <ele>189</ele>
        <time>2017-07-16T09:09:51Z</time>
      </trkpt>
      <trkpt lat="45.95812" lon="4.76674">
        <ele>189</ele>
        <time>2017-07-16T09:09:52Z</time>
      </trkpt>
      <trkpt lat="45.95813" lon="4.7668">
        <ele>189</ele>
        <time>2017-07-16T09:09:53Z</time>
      </trkpt>
      <trkpt lat="45.95814" lon="4.76687">
        <ele>189</ele>
        <time>2017-07-16T09:09:54Z</time>
      </trkpt>
      <trkpt lat="45.95816" lon="4.76699">
        <ele>189</ele>
        <time>2017-07-16T09:09:56Z</time>
      </trkpt>
      <trkpt lat="45.95817" lon="4.76705">
        <ele>189</ele>
        <time>2017-07-16T09:09:57Z</time>
      </trkpt>
      <trkpt lat="45.9582" lon="4.76716">
        <ele>189</ele>
        <time>2017-07-16T09:09:59Z</time>
      </trkpt>
      <trkpt lat="45.95821" lon="4.76722">
        <ele>189</ele>
        <time>2017-07-16T09:10:00Z</time>
      </trkpt>
      <trkpt lat="45.95822" lon="4.76728">
        <ele>190</ele>
        <time>2017-07-16T09:10:01Z</time>
      </trkpt>
      <trkpt lat="45.95822" lon="4.76735">
        <ele>190</ele>
        <time>2017-07-16T09:10:02Z</time>
      </trkpt>
      <trkpt lat="45.95824" lon="4.76742">
        <ele>190</ele>
        <time>2017-07-16T09:10:03Z</time>
      </trkpt>
      <trkpt lat="45.95825" lon="4.76748">
        <ele>190</ele>
        <time>2017-07-16T09:10:04Z</time>
      </trkpt>
      <trkpt lat="45.95826" lon="4.76754">
        <ele>191</ele>
        <time>2017-07-16T09:10:05Z</time>
      </trkpt>
      <trkpt lat="45.95828" lon="4.7676">
        <ele>191</ele>
        <time>2017-07-16T09:10:06Z</time>
      </trkpt>
      <trkpt lat="45.9583" lon="4.76772">
        <ele>190</ele>
        <time>2017-07-16T09:10:08Z</time>
      </trkpt>
      <trkpt lat="45.9583" lon="4.76778">
        <ele>190</ele>
        <time>2017-07-16T09:10:09Z</time>
      </trkpt>
      <trkpt lat="45.95831" lon="4.76789">
        <ele>190</ele>
        <time>2017-07-16T09:10:11Z</time>
      </trkpt>
      <trkpt lat="45.95831" lon="4.76796">
        <ele>190</ele>
        <time>2017-07-16T09:10:12Z</time>
      </trkpt>
      <trkpt lat="45.95832" lon="4.76802">
        <ele>190</ele>
        <time>2017-07-16T09:10:13Z</time>
      </trkpt>
      <trkpt lat="45.95832" lon="4.76809">
        <ele>190</ele>
        <time>2017-07-16T09:10:14Z</time>
      </trkpt>
      <trkpt lat="45.95831" lon="4.76816">
        <ele>190</ele>
        <time>2017-07-16T09:10:15Z</time>
      </trkpt>
      <trkpt lat="45.95831" lon="4.76823">
        <ele>190</ele>
        <time>2017-07-16T09:10:16Z</time>
      </trkpt>
      <trkpt lat="45.95828" lon="4.76835">
        <ele>190</ele>
        <time>2017-07-16T09:10:18Z</time>
      </trkpt>
      <trkpt lat="45.95827" lon="4.76841">
        <ele>190</ele>
        <time>2017-07-16T09:10:19Z</time>
      </trkpt>
      <trkpt lat="45.95824" lon="4.76853">
        <ele>189</ele>
        <time>2017-07-16T09:10:21Z</time>
      </trkpt>
      <trkpt lat="45.95824" lon="4.76858">
        <ele>189</ele>
        <time>2017-07-16T09:10:22Z</time>
      </trkpt>
      <trkpt lat="45.95821" lon="4.7687">
        <ele>189</ele>
        <time>2017-07-16T09:10:24Z</time>
      </trkpt>
      <trkpt lat="45.9582" lon="4.76877">
        <ele>189</ele>
        <time>2017-07-16T09:10:25Z</time>
      </trkpt>
      <trkpt lat="45.95819" lon="4.76883">
        <ele>189</ele>
        <time>2017-07-16T09:10:26Z</time>
      </trkpt>
      <trkpt lat="45.95818" lon="4.7689">
        <ele>189</ele>
        <time>2017-07-16T09:10:27Z</time>
      </trkpt>
      <trkpt lat="45.95817" lon="4.76896">
        <ele>189</ele>
        <time>2017-07-16T09:10:28Z</time>
      </trkpt>
      <trkpt lat="45.95816" lon="4.76903">
        <ele>189</ele>
        <time>2017-07-16T09:10:29Z</time>
      </trkpt>
      <trkpt lat="45.95814" lon="4.76909">
        <ele>189</ele>
        <time>2017-07-16T09:10:30Z</time>
      </trkpt>
      <trkpt lat="45.95813" lon="4.76915">
        <ele>189</ele>
        <time>2017-07-16T09:10:31Z</time>
      </trkpt>
      <trkpt lat="45.9581" lon="4.76928">
        <ele>189</ele>
        <time>2017-07-16T09:10:33Z</time>
      </trkpt>
      <trkpt lat="45.95809" lon="4.76933">
        <ele>189</ele>
        <time>2017-07-16T09:10:34Z</time>
      </trkpt>
      <trkpt lat="45.95806" lon="4.76945">
        <ele>189</ele>
        <time>2017-07-16T09:10:36Z</time>
      </trkpt>
      <trkpt lat="45.95805" lon="4.76951">
        <ele>189</ele>
        <time>2017-07-16T09:10:37Z</time>
      </trkpt>
      <trkpt lat="45.95804" lon="4.76958">
        <ele>189</ele>
        <time>2017-07-16T09:10:38Z</time>
      </trkpt>
      <trkpt lat="45.95803" lon="4.76965">
        <ele>189</ele>
        <time>2017-07-16T09:10:39Z</time>
      </trkpt>
      <trkpt lat="45.95802" lon="4.76972">
        <ele>189</ele>
        <time>2017-07-16T09:10:40Z</time>
      </trkpt>
      <trkpt lat="45.95802" lon="4.7698">
        <ele>189</ele>
        <time>2017-07-16T09:10:41Z</time>
      </trkpt>
      <trkpt lat="45.95802" lon="4.76986">
        <ele>189</ele>
        <time>2017-07-16T09:10:42Z</time>
      </trkpt>
      <trkpt lat="45.95802" lon="4.76993">
        <ele>189</ele>
        <time>2017-07-16T09:10:43Z</time>
      </trkpt>
      <trkpt lat="45.95803" lon="4.77006">
        <ele>190</ele>
        <time>2017-07-16T09:10:45Z</time>
      </trkpt>
      <trkpt lat="45.95804" lon="4.77012">
        <ele>190</ele>
        <time>2017-07-16T09:10:46Z</time>
      </trkpt>
      <trkpt lat="45.95806" lon="4.77018">
        <ele>190</ele>
        <time>2017-07-16T09:10:47Z</time>
      </trkpt>
      <trkpt lat="45.95808" lon="4.77024">
        <ele>190</ele>
        <time>2017-07-16T09:10:48Z</time>
      </trkpt>
      <trkpt lat="45.9581" lon="4.77031">
        <ele>190</ele>
        <time>2017-07-16T09:10:49Z</time>
      </trkpt>
      <trkpt lat="45.95812" lon="4.77036">
        <ele>190</ele>
        <time>2017-07-16T09:10:50Z</time>
      </trkpt>
      <trkpt lat="45.95815" lon="4.77042">
        <ele>190</ele>
        <time>2017-07-16T09:10:51Z</time>
      </trkpt>
      <trkpt lat="45.95818" lon="4.77047">
        <ele>190</ele>
        <time>2017-07-16T09:10:52Z</time>
      </trkpt>
      <trkpt lat="45.95823" lon="4.77057">
        <ele>190</ele>
        <time>2017-07-16T09:10:54Z</time>
      </trkpt>
      <trkpt lat="45.95825" lon="4.77063">
        <ele>191</ele>
        <time>2017-07-16T09:10:55Z</time>
      </trkpt>
      <trkpt lat="45.95828" lon="4.77069">
        <ele>191</ele>
        <time>2017-07-16T09:10:56Z</time>
      </trkpt>
      <trkpt lat="45.9583" lon="4.77075">
        <ele>191</ele>
        <time>2017-07-16T09:10:57Z</time>
      </trkpt>
      <trkpt lat="45.95832" lon="4.77081">
        <ele>192</ele>
        <time>2017-07-16T09:10:58Z</time>
      </trkpt>
      <trkpt lat="45.95834" lon="4.77086">
        <ele>192</ele>
        <time>2017-07-16T09:10:59Z</time>
      </trkpt>
      <trkpt lat="45.95838" lon="4.77096">
        <ele>193</ele>
        <time>2017-07-16T09:11:01Z</time>
      </trkpt>
      <trkpt lat="45.9584" lon="4.77101">
        <ele>193</ele>
        <time>2017-07-16T09:11:02Z</time>
      </trkpt>
      <trkpt lat="45.95843" lon="4.77112">
        <ele>193</ele>
        <time>2017-07-16T09:11:04Z</time>
      </trkpt>
      <trkpt lat="45.95844" lon="4.77118">
        <ele>193</ele>
        <time>2017-07-16T09:11:05Z</time>
      </trkpt>
      <trkpt lat="45.95845" lon="4.77125">
        <ele>193</ele>
        <time>2017-07-16T09:11:06Z</time>
      </trkpt>
      <trkpt lat="45.95847" lon="4.77131">
        <ele>193</ele>
        <time>2017-07-16T09:11:07Z</time>
      </trkpt>
      <trkpt lat="45.95849" lon="4.77137">
        <ele>193</ele>
        <time>2017-07-16T09:11:08Z</time>
      </trkpt>
      <trkpt lat="45.95852" lon="4.77142">
        <ele>193</ele>
        <time>2017-07-16T09:11:09Z</time>
      </trkpt>
      <trkpt lat="45.95855" lon="4.77154">
        <ele>192</ele>
        <time>2017-07-16T09:11:11Z</time>
      </trkpt>
      <trkpt lat="45.95857" lon="4.7716">
        <ele>192</ele>
        <time>2017-07-16T09:11:12Z</time>
      </trkpt>
      <trkpt lat="45.95858" lon="4.77166">
        <ele>192</ele>
        <time>2017-07-16T09:11:13Z</time>
      </trkpt>
      <trkpt lat="45.9586" lon="4.77172">
        <ele>192</ele>
        <time>2017-07-16T09:11:14Z</time>
      </trkpt>
      <trkpt lat="45.95862" lon="4.77178">
        <ele>192</ele>
        <time>2017-07-16T09:11:15Z</time>
      </trkpt>
      <trkpt lat="45.95864" lon="4.77185">
        <ele>192</ele>
        <time>2017-07-16T09:11:16Z</time>
      </trkpt>
      <trkpt lat="45.95865" lon="4.77191">
        <ele>193</ele>
        <time>2017-07-16T09:11:17Z</time>
      </trkpt>
      <trkpt lat="45.95867" lon="4.77197">
        <ele>193</ele>
        <time>2017-07-16T09:11:18Z</time>
      </trkpt>
      <trkpt lat="45.95869" lon="4.7721">
        <ele>193</ele>
        <time>2017-07-16T09:11:20Z</time>
      </trkpt>
      <trkpt lat="45.95871" lon="4.77215">
        <ele>193</ele>
        <time>2017-07-16T09:11:21Z</time>
      </trkpt>
      <trkpt lat="45.95874" lon="4.77227">
        <ele>193</ele>
        <time>2017-07-16T09:11:23Z</time>
      </trkpt>
      <trkpt lat="45.95876" lon="4.77233">
        <ele>193</ele>
        <time>2017-07-16T09:11:24Z</time>
      </trkpt>
      <trkpt lat="45.95878" lon="4.77245">
        <ele>193</ele>
        <time>2017-07-16T09:11:26Z</time>
      </trkpt>
      <trkpt lat="45.95879" lon="4.77251">
        <ele>193</ele>
        <time>2017-07-16T09:11:27Z</time>
      </trkpt>
      <trkpt lat="45.9588" lon="4.77262">
        <ele>193</ele>
        <time>2017-07-16T09:11:29Z</time>
      </trkpt>
      <trkpt lat="45.95881" lon="4.77268">
        <ele>193</ele>
        <time>2017-07-16T09:11:30Z</time>
      </trkpt>
      <trkpt lat="45.95883" lon="4.77274">
        <ele>193</ele>
        <time>2017-07-16T09:11:31Z</time>
      </trkpt>
      <trkpt lat="45.95885" lon="4.77281">
        <ele>193</ele>
        <time>2017-07-16T09:11:32Z</time>
      </trkpt>
      <trkpt lat="45.95886" lon="4.77287">
        <ele>193</ele>
        <time>2017-07-16T09:11:33Z</time>
      </trkpt>
      <trkpt lat="45.95888" lon="4.77293">
        <ele>193</ele>
        <time>2017-07-16T09:11:34Z</time>
      </trkpt>
      <trkpt lat="45.9589" lon="4.77304">
        <ele>193</ele>
        <time>2017-07-16T09:11:36Z</time>
      </trkpt>
      <trkpt lat="45.95891" lon="4.77309">
        <ele>193</ele>
        <time>2017-07-16T09:11:37Z</time>
      </trkpt>
      <trkpt lat="45.95894" lon="4.77321">
        <ele>193</ele>
        <time>2017-07-16T09:11:39Z</time>
      </trkpt>
      <trkpt lat="45.95896" lon="4.77327">
        <ele>193</ele>
        <time>2017-07-16T09:11:40Z</time>
      </trkpt>
      <trkpt lat="45.959" lon="4.77338">
        <ele>193</ele>
        <time>2017-07-16T09:11:42Z</time>
      </trkpt>
      <trkpt lat="45.95902" lon="4.77343">
        <ele>193</ele>
        <time>2017-07-16T09:11:43Z</time>
      </trkpt>
      <trkpt lat="45.95905" lon="4.77353">
        <ele>193</ele>
        <time>2017-07-16T09:11:45Z</time>
      </trkpt>
      <trkpt lat="45.95907" lon="4.77358">
        <ele>193</ele>
        <time>2017-07-16T09:11:46Z</time>
      </trkpt>
      <trkpt lat="45.95911" lon="4.77369">
        <ele>193</ele>
        <time>2017-07-16T09:11:48Z</time>
      </trkpt>
      <trkpt lat="45.95913" lon="4.77375">
        <ele>193</ele>
        <time>2017-07-16T09:11:49Z</time>
      </trkpt>
      <trkpt lat="45.95917" lon="4.77385">
        <ele>196</ele>
        <time>2017-07-16T09:11:51Z</time>
      </trkpt>
      <trkpt lat="45.95919" lon="4.7739">
        <ele>196</ele>
        <time>2017-07-16T09:11:52Z</time>
      </trkpt>
      <trkpt lat="45.95922" lon="4.774">
        <ele>196</ele>
        <time>2017-07-16T09:11:54Z</time>
      </trkpt>
      <trkpt lat="45.95923" lon="4.77405">
        <ele>195</ele>
        <time>2017-07-16T09:11:55Z</time>
      </trkpt>
      <trkpt lat="45.95927" lon="4.77415">
        <ele>195</ele>
        <time>2017-07-16T09:11:57Z</time>
      </trkpt>
      <trkpt lat="45.95929" lon="4.77421">
        <ele>195</ele>
        <time>2017-07-16T09:11:58Z</time>
      </trkpt>
      <trkpt lat="45.95932" lon="4.77431">
        <ele>195</ele>
        <time>2017-07-16T09:12:00Z</time>
      </trkpt>
      <trkpt lat="45.95934" lon="4.77436">
        <ele>195</ele>
        <time>2017-07-16T09:12:01Z</time>
      </trkpt>
      <trkpt lat="45.95937" lon="4.77447">
        <ele>195</ele>
        <time>2017-07-16T09:12:03Z</time>
      </trkpt>
      <trkpt lat="45.95939" lon="4.77452">
        <ele>196</ele>
        <time>2017-07-16T09:12:04Z</time>
      </trkpt>
      <trkpt lat="45.95942" lon="4.77461">
        <ele>195</ele>
        <time>2017-07-16T09:12:06Z</time>
      </trkpt>
      <trkpt lat="45.95944" lon="4.77466">
        <ele>195</ele>
        <time>2017-07-16T09:12:07Z</time>
      </trkpt>
      <trkpt lat="45.95948" lon="4.77474">
        <ele>196</ele>
        <time>2017-07-16T09:12:09Z</time>
      </trkpt>
      <trkpt lat="45.9595" lon="4.7748">
        <ele>196</ele>
        <time>2017-07-16T09:12:10Z</time>
      </trkpt>
      <trkpt lat="45.95954" lon="4.7749">
        <ele>196</ele>
        <time>2017-07-16T09:12:12Z</time>
      </trkpt>
      <trkpt lat="45.95956" lon="4.77496">
        <ele>196</ele>
        <time>2017-07-16T09:12:13Z</time>
      </trkpt>
      <trkpt lat="45.95959" lon="4.77506">
        <ele>195</ele>
        <time>2017-07-16T09:12:15Z</time>
      </trkpt>
      <trkpt lat="45.95961" lon="4.77511">
        <ele>195</ele>
        <time>2017-07-16T09:12:16Z</time>
      </trkpt>
      <trkpt lat="45.95966" lon="4.7752">
        <ele>195</ele>
        <time>2017-07-16T09:12:18Z</time>
      </trkpt>
      <trkpt lat="45.95968" lon="4.77525">
        <ele>195</ele>
        <time>2017-07-16T09:12:19Z</time>
      </trkpt>
      <trkpt lat="45.95974" lon="4.77534">
        <ele>196</ele>
        <time>2017-07-16T09:12:21Z</time>
      </trkpt>
      <trkpt lat="45.95976" lon="4.77538">
        <ele>196</ele>
        <time>2017-07-16T09:12:22Z</time>
      </trkpt>
      <trkpt lat="45.9598" lon="4.77549">
        <ele>196</ele>
        <time>2017-07-16T09:12:25Z</time>
      </trkpt>
      <trkpt lat="45.95981" lon="4.77552">
        <ele>196</ele>
        <time>2017-07-16T09:12:26Z</time>
      </trkpt>
      <trkpt lat="45.95985" lon="4.77561">
        <ele>196</ele>
        <time>2017-07-16T09:12:28Z</time>
      </trkpt>
      <trkpt lat="45.95986" lon="4.77566">
        <ele>196</ele>
        <time>2017-07-16T09:12:29Z</time>
      </trkpt>
      <trkpt lat="45.95989" lon="4.77577">
        <ele>196</ele>
        <time>2017-07-16T09:12:31Z</time>
      </trkpt>
      <trkpt lat="45.9599" lon="4.77583">
        <ele>196</ele>
        <time>2017-07-16T09:12:32Z</time>
      </trkpt>
      <trkpt lat="45.95994" lon="4.77593">
        <ele>196</ele>
        <time>2017-07-16T09:12:34Z</time>
      </trkpt>
      <trkpt lat="45.95997" lon="4.77597">
        <ele>196</ele>
        <time>2017-07-16T09:12:35Z</time>
      </trkpt>
      <trkpt lat="45.96003" lon="4.77604">
        <ele>198</ele>
        <time>2017-07-16T09:12:37Z</time>
      </trkpt>
      <trkpt lat="45.96006" lon="4.77607">
        <ele>198</ele>
        <time>2017-07-16T09:12:38Z</time>
      </trkpt>
      <trkpt lat="45.96014" lon="4.77613">
        <ele>199</ele>
        <time>2017-07-16T09:12:40Z</time>
      </trkpt>
      <trkpt lat="45.96017" lon="4.77617">
        <ele>199</ele>
        <time>2017-07-16T09:12:41Z</time>
      </trkpt>
      <trkpt lat="45.96023" lon="4.77624">
        <ele>199</ele>
        <time>2017-07-16T09:12:43Z</time>
      </trkpt>
      <trkpt lat="45.96026" lon="4.77628">
        <ele>199</ele>
        <time>2017-07-16T09:12:44Z</time>
      </trkpt>
      <trkpt lat="45.96033" lon="4.77635">
        <ele>199</ele>
        <time>2017-07-16T09:12:46Z</time>
      </trkpt>
      <trkpt lat="45.96037" lon="4.77638">
        <ele>199</ele>
        <time>2017-07-16T09:12:47Z</time>
      </trkpt>
      <trkpt lat="45.96043" lon="4.77646">
        <ele>199</ele>
        <time>2017-07-16T09:12:49Z</time>
      </trkpt>
      <trkpt lat="45.96046" lon="4.7765">
        <ele>199</ele>
        <time>2017-07-16T09:12:50Z</time>
      </trkpt>
      <trkpt lat="45.96052" lon="4.77659">
        <ele>200</ele>
        <time>2017-07-16T09:12:52Z</time>
      </trkpt>
      <trkpt lat="45.96056" lon="4.77663">
        <ele>200</ele>
        <time>2017-07-16T09:12:53Z</time>
      </trkpt>
      <trkpt lat="45.9606" lon="4.77667">
        <ele>198</ele>
        <time>2017-07-16T09:12:54Z</time>
      </trkpt>
      <trkpt lat="45.96063" lon="4.77671">
        <ele>198</ele>
        <time>2017-07-16T09:12:55Z</time>
      </trkpt>
      <trkpt lat="45.9607" lon="4.7768">
        <ele>198</ele>
        <time>2017-07-16T09:12:57Z</time>
      </trkpt>
      <trkpt lat="45.96073" lon="4.77684">
        <ele>198</ele>
        <time>2017-07-16T09:12:58Z</time>
      </trkpt>
      <trkpt lat="45.96076" lon="4.77689">
        <ele>198</ele>
        <time>2017-07-16T09:12:59Z</time>
      </trkpt>
      <trkpt lat="45.96079" lon="4.77693">
        <ele>198</ele>
        <time>2017-07-16T09:13:00Z</time>
      </trkpt>
      <trkpt lat="45.96082" lon="4.77699">
        <ele>197</ele>
        <time>2017-07-16T09:13:01Z</time>
      </trkpt>
      <trkpt lat="45.96084" lon="4.77704">
        <ele>200</ele>
        <time>2017-07-16T09:13:02Z</time>
      </trkpt>
      <trkpt lat="45.9609" lon="4.77714">
        <ele>200</ele>
        <time>2017-07-16T09:13:04Z</time>
      </trkpt>
      <trkpt lat="45.96092" lon="4.77718">
        <ele>199</ele>
        <time>2017-07-16T09:13:05Z</time>
      </trkpt>
      <trkpt lat="45.96098" lon="4.77728">
        <ele>199</ele>
        <time>2017-07-16T09:13:07Z</time>
      </trkpt>
      <trkpt lat="45.96101" lon="4.77733">
        <ele>199</ele>
        <time>2017-07-16T09:13:08Z</time>
      </trkpt>
      <trkpt lat="45.96106" lon="4.77742">
        <ele>199</ele>
        <time>2017-07-16T09:13:10Z</time>
      </trkpt>
      <trkpt lat="45.96109" lon="4.77746">
        <ele>199</ele>
        <time>2017-07-16T09:13:11Z</time>
      </trkpt>
      <trkpt lat="45.96113" lon="4.77755">
        <ele>197</ele>
        <time>2017-07-16T09:13:13Z</time>
      </trkpt>
      <trkpt lat="45.96116" lon="4.77759">
        <ele>197</ele>
        <time>2017-07-16T09:13:14Z</time>
      </trkpt>
      <trkpt lat="45.96121" lon="4.77767">
        <ele>197</ele>
        <time>2017-07-16T09:13:16Z</time>
      </trkpt>
      <trkpt lat="45.96123" lon="4.77771">
        <ele>197</ele>
        <time>2017-07-16T09:13:17Z</time>
      </trkpt>
      <trkpt lat="45.96128" lon="4.77779">
        <ele>198</ele>
        <time>2017-07-16T09:13:19Z</time>
      </trkpt>
      <trkpt lat="45.96131" lon="4.77783">
        <ele>198</ele>
        <time>2017-07-16T09:13:20Z</time>
      </trkpt>
      <trkpt lat="45.96136" lon="4.77791">
        <ele>198</ele>
        <time>2017-07-16T09:13:22Z</time>
      </trkpt>
      <trkpt lat="45.96138" lon="4.77795">
        <ele>198</ele>
        <time>2017-07-16T09:13:23Z</time>
      </trkpt>
      <trkpt lat="45.96143" lon="4.77803">
        <ele>198</ele>
        <time>2017-07-16T09:13:25Z</time>
      </trkpt>
      <trkpt lat="45.96146" lon="4.77807">
        <ele>198</ele>
        <time>2017-07-16T09:13:26Z</time>
      </trkpt>
      <trkpt lat="45.96151" lon="4.77816">
        <ele>198</ele>
        <time>2017-07-16T09:13:28Z</time>
      </trkpt>
      <trkpt lat="45.96154" lon="4.77821">
        <ele>198</ele>
        <time>2017-07-16T09:13:29Z</time>
      </trkpt>
      <trkpt lat="45.96157" lon="4.77826">
        <ele>198</ele>
        <time>2017-07-16T09:13:30Z</time>
      </trkpt>
      <trkpt lat="45.96159" lon="4.77831">
        <ele>199</ele>
        <time>2017-07-16T09:13:31Z</time>
      </trkpt>
      <trkpt lat="45.96163" lon="4.77837">
        <ele>198</ele>
        <time>2017-07-16T09:13:32Z</time>
      </trkpt>
      <trkpt lat="45.96166" lon="4.77843">
        <ele>197</ele>
        <time>2017-07-16T09:13:33Z</time>
      </trkpt>
      <trkpt lat="45.96169" lon="4.77849">
        <ele>201</ele>
        <time>2017-07-16T09:13:34Z</time>
      </trkpt>
      <trkpt lat="45.96172" lon="4.77854">
        <ele>201</ele>
        <time>2017-07-16T09:13:35Z</time>
      </trkpt>
      <trkpt lat="45.96175" lon="4.77859">
        <ele>201</ele>
        <time>2017-07-16T09:13:36Z</time>
      </trkpt>
      <trkpt lat="45.96178" lon="4.77865">
        <ele>201</ele>
        <time>2017-07-16T09:13:37Z</time>
      </trkpt>
      <trkpt lat="45.96181" lon="4.7787">
        <ele>201</ele>
        <time>2017-07-16T09:13:38Z</time>
      </trkpt>
      <trkpt lat="45.96184" lon="4.77874">
        <ele>201</ele>
        <time>2017-07-16T09:13:39Z</time>
      </trkpt>
      <trkpt lat="45.9619" lon="4.77883">
        <ele>201</ele>
        <time>2017-07-16T09:13:41Z</time>
      </trkpt>
      <trkpt lat="45.96193" lon="4.77888">
        <ele>201</ele>
        <time>2017-07-16T09:13:42Z</time>
      </trkpt>
      <trkpt lat="45.96198" lon="4.77898">
        <ele>201</ele>
        <time>2017-07-16T09:13:44Z</time>
      </trkpt>
      <trkpt lat="45.962" lon="4.77903">
        <ele>201</ele>
        <time>2017-07-16T09:13:45Z</time>
      </trkpt>
      <trkpt lat="45.96203" lon="4.77907">
        <ele>202</ele>
        <time>2017-07-16T09:13:46Z</time>
      </trkpt>
      <trkpt lat="45.96206" lon="4.77913">
        <ele>202</ele>
        <time>2017-07-16T09:13:47Z</time>
      </trkpt>
      <trkpt lat="45.96209" lon="4.77918">
        <ele>199</ele>
        <time>2017-07-16T09:13:48Z</time>
      </trkpt>
      <trkpt lat="45.96212" lon="4.77922">
        <ele>199</ele>
        <time>2017-07-16T09:13:49Z</time>
      </trkpt>
      <trkpt lat="45.96218" lon="4.77932">
        <ele>200</ele>
        <time>2017-07-16T09:13:51Z</time>
      </trkpt>
      <trkpt lat="45.96221" lon="4.77936">
        <ele>200</ele>
        <time>2017-07-16T09:13:52Z</time>
      </trkpt>
      <trkpt lat="45.96227" lon="4.77943">
        <ele>200</ele>
        <time>2017-07-16T09:13:54Z</time>
      </trkpt>
      <trkpt lat="45.9623" lon="4.77946">
        <ele>200</ele>
        <time>2017-07-16T09:13:55Z</time>
      </trkpt>
      <trkpt lat="45.96236" lon="4.77952">
        <ele>200</ele>
        <time>2017-07-16T09:13:57Z</time>
      </trkpt>
      <trkpt lat="45.96239" lon="4.77955">
        <ele>199</ele>
        <time>2017-07-16T09:13:58Z</time>
      </trkpt>
      <trkpt lat="45.96246" lon="4.77963">
        <ele>199</ele>
        <time>2017-07-16T09:14:00Z</time>
      </trkpt>
      <trkpt lat="45.9625" lon="4.77966">
        <ele>199</ele>
        <time>2017-07-16T09:14:01Z</time>
      </trkpt>
      <trkpt lat="45.96253" lon="4.7797">
        <ele>203</ele>
        <time>2017-07-16T09:14:02Z</time>
      </trkpt>
      <trkpt lat="45.96257" lon="4.77975">
        <ele>203</ele>
        <time>2017-07-16T09:14:03Z</time>
      </trkpt>
      <trkpt lat="45.96262" lon="4.77978">
        <ele>202</ele>
        <time>2017-07-16T09:14:04Z</time>
      </trkpt>
      <trkpt lat="45.96266" lon="4.77982">
        <ele>202</ele>
        <time>2017-07-16T09:14:05Z</time>
      </trkpt>
      <trkpt lat="45.96269" lon="4.77986">
        <ele>202</ele>
        <time>2017-07-16T09:14:06Z</time>
      </trkpt>
      <trkpt lat="45.96273" lon="4.77989">
        <ele>202</ele>
        <time>2017-07-16T09:14:07Z</time>
      </trkpt>
      <trkpt lat="45.9628" lon="4.77997">
        <ele>203</ele>
        <time>2017-07-16T09:14:09Z</time>
      </trkpt>
      <trkpt lat="45.96284" lon="4.78001">
        <ele>199</ele>
        <time>2017-07-16T09:14:10Z</time>
      </trkpt>
      <trkpt lat="45.96288" lon="4.78004">
        <ele>199</ele>
        <time>2017-07-16T09:14:11Z</time>
      </trkpt>
      <trkpt lat="45.96293" lon="4.78007">
        <ele>199</ele>
        <time>2017-07-16T09:14:12Z</time>
      </trkpt>
      <trkpt lat="45.96297" lon="4.78011">
        <ele>199</ele>
        <time>2017-07-16T09:14:13Z</time>
      </trkpt>
      <trkpt lat="45.96301" lon="4.78014">
        <ele>200</ele>
        <time>2017-07-16T09:14:14Z</time>
      </trkpt>
      <trkpt lat="45.96309" lon="4.78021">
        <ele>200</ele>
        <time>2017-07-16T09:14:16Z</time>
      </trkpt>
      <trkpt lat="45.96312" lon="4.78025">
        <ele>200</ele>
        <time>2017-07-16T09:14:17Z</time>
      </trkpt>
      <trkpt lat="45.96319" lon="4.78031">
        <ele>200</ele>
        <time>2017-07-16T09:14:19Z</time>
      </trkpt>
      <trkpt lat="45.96321" lon="4.78035">
        <ele>200</ele>
        <time>2017-07-16T09:14:20Z</time>
      </trkpt>
      <trkpt lat="45.96325" lon="4.78039">
        <ele>200</ele>
        <time>2017-07-16T09:14:21Z</time>
      </trkpt>
      <trkpt lat="45.96329" lon="4.78043">
        <ele>199</ele>
        <time>2017-07-16T09:14:22Z</time>
      </trkpt>
      <trkpt lat="45.96333" lon="4.78048">
        <ele>199</ele>
        <time>2017-07-16T09:14:23Z</time>
      </trkpt>
      <trkpt lat="45.96337" lon="4.78053">
        <ele>202</ele>
        <time>2017-07-16T09:14:24Z</time>
      </trkpt>
      <trkpt lat="45.96341" lon="4.78058">
        <ele>202</ele>
        <time>2017-07-16T09:14:25Z</time>
      </trkpt>
      <trkpt lat="45.96345" lon="4.78063">
        <ele>202</ele>
        <time>2017-07-16T09:14:26Z</time>
      </trkpt>
      <trkpt lat="45.96349" lon="4.78067">
        <ele>202</ele>
        <time>2017-07-16T09:14:27Z</time>
      </trkpt>
      <trkpt lat="45.96352" lon="4.78072">
        <ele>202</ele>
        <time>2017-07-16T09:14:28Z</time>
      </trkpt>
      <trkpt lat="45.96355" lon="4.78076">
        <ele>202</ele>
        <time>2017-07-16T09:14:29Z</time>
      </trkpt>
      <trkpt lat="45.96359" lon="4.7808">
        <ele>202</ele>
        <time>2017-07-16T09:14:30Z</time>
      </trkpt>
      <trkpt lat="45.96366" lon="4.78087">
        <ele>199</ele>
        <time>2017-07-16T09:14:32Z</time>
      </trkpt>
      <trkpt lat="45.9637" lon="4.78091">
        <ele>199</ele>
        <time>2017-07-16T09:14:33Z</time>
      </trkpt>
      <trkpt lat="45.96376" lon="4.78095">
        <ele>200</ele>
        <time>2017-07-16T09:14:35Z</time>
      </trkpt>
      <trkpt lat="45.96379" lon="4.78097">
        <ele>200</ele>
        <time>2017-07-16T09:14:36Z</time>
      </trkpt>
      <trkpt lat="45.96385" lon="4.78104">
        <ele>200</ele>
        <time>2017-07-16T09:14:38Z</time>
      </trkpt>
      <trkpt lat="45.96388" lon="4.78108">
        <ele>200</ele>
        <time>2017-07-16T09:14:39Z</time>
      </trkpt>
      <trkpt lat="45.96393" lon="4.78115">
        <ele>200</ele>
        <time>2017-07-16T09:14:41Z</time>
      </trkpt>
      <trkpt lat="45.96397" lon="4.78118">
        <ele>200</ele>
        <time>2017-07-16T09:14:42Z</time>
      </trkpt>
      <trkpt lat="45.96403" lon="4.78123">
        <ele>200</ele>
        <time>2017-07-16T09:14:44Z</time>
      </trkpt>
      <trkpt lat="45.96407" lon="4.78126">
        <ele>200</ele>
        <time>2017-07-16T09:14:45Z</time>
      </trkpt>
      <trkpt lat="45.96411" lon="4.7813">
        <ele>199</ele>
        <time>2017-07-16T09:14:46Z</time>
      </trkpt>
      <trkpt lat="45.96415" lon="4.78133">
        <ele>199</ele>
        <time>2017-07-16T09:14:47Z</time>
      </trkpt>
      <trkpt lat="45.9642" lon="4.78138">
        <ele>203</ele>
        <time>2017-07-16T09:14:48Z</time>
      </trkpt>
      <trkpt lat="45.96424" lon="4.78142">
        <ele>203</ele>
        <time>2017-07-16T09:14:49Z</time>
      </trkpt>
      <trkpt lat="45.96428" lon="4.78146">
        <ele>203</ele>
        <time>2017-07-16T09:14:50Z</time>
      </trkpt>
      <trkpt lat="45.96432" lon="4.78149">
        <ele>203</ele>
        <time>2017-07-16T09:14:51Z</time>
      </trkpt>
      <trkpt lat="45.96439" lon="4.78157">
        <ele>203</ele>
        <time>2017-07-16T09:14:53Z</time>
      </trkpt>
      <trkpt lat="45.96443" lon="4.7816">
        <ele>203</ele>
        <time>2017-07-16T09:14:54Z</time>
      </trkpt>
      <trkpt lat="45.9645" lon="4.78166">
        <ele>203</ele>
        <time>2017-07-16T09:14:56Z</time>
      </trkpt>
      <trkpt lat="45.96453" lon="4.78169">
        <ele>200</ele>
        <time>2017-07-16T09:14:57Z</time>
      </trkpt>
      <trkpt lat="45.96461" lon="4.78174">
        <ele>200</ele>
        <time>2017-07-16T09:14:59Z</time>
      </trkpt>
      <trkpt lat="45.96464" lon="4.78177">
        <ele>200</ele>
        <time>2017-07-16T09:15:00Z</time>
      </trkpt>
      <trkpt lat="45.96469" lon="4.7818">
        <ele>200</ele>
        <time>2017-07-16T09:15:01Z</time>
      </trkpt>
      <trkpt lat="45.96473" lon="4.78183">
        <ele>201</ele>
        <time>2017-07-16T09:15:02Z</time>
      </trkpt>
      <trkpt lat="45.96478" lon="4.78185">
        <ele>201</ele>
        <time>2017-07-16T09:15:03Z</time>
      </trkpt>
      <trkpt lat="45.96483" lon="4.78188">
        <ele>201</ele>
        <time>2017-07-16T09:15:04Z</time>
      </trkpt>
      <trkpt lat="45.96487" lon="4.7819">
        <ele>201</ele>
        <time>2017-07-16T09:15:05Z</time>
      </trkpt>
      <trkpt lat="45.96491" lon="4.78194">
        <ele>201</ele>
        <time>2017-07-16T09:15:06Z</time>
      </trkpt>
      <trkpt lat="45.96495" lon="4.78197">
        <ele>201</ele>
        <time>2017-07-16T09:15:07Z</time>
      </trkpt>
      <trkpt lat="45.96499" lon="4.782">
        <ele>200</ele>
        <time>2017-07-16T09:15:08Z</time>
      </trkpt>
      <trkpt lat="45.96503" lon="4.78204">
        <ele>205</ele>
        <time>2017-07-16T09:15:09Z</time>
      </trkpt>
      <trkpt lat="45.96507" lon="4.78208">
        <ele>205</ele>
        <time>2017-07-16T09:15:10Z</time>
      </trkpt>
      <trkpt lat="45.96514" lon="4.78217">
        <ele>205</ele>
        <time>2017-07-16T09:15:12Z</time>
      </trkpt>
      <trkpt lat="45.96517" lon="4.78222">
        <ele>204</ele>
        <time>2017-07-16T09:15:13Z</time>
      </trkpt>
      <trkpt lat="45.9652" lon="4.78227">
        <ele>204</ele>
        <time>2017-07-16T09:15:14Z</time>
      </trkpt>
      <trkpt lat="45.96523" lon="4.78232">
        <ele>204</ele>
        <time>2017-07-16T09:15:15Z</time>
      </trkpt>
      <trkpt lat="45.96528" lon="4.78237">
        <ele>204</ele>
        <time>2017-07-16T09:15:16Z</time>
      </trkpt>
      <trkpt lat="45.96531" lon="4.78242">
        <ele>204</ele>
        <time>2017-07-16T09:15:17Z</time>
      </trkpt>
      <trkpt lat="45.96536" lon="4.78251">
        <ele>200</ele>
        <time>2017-07-16T09:15:19Z</time>
      </trkpt>
      <trkpt lat="45.96538" lon="4.78256">
        <ele>200</ele>
        <time>2017-07-16T09:15:20Z</time>
      </trkpt>
      <trkpt lat="45.96543" lon="4.78266">
        <ele>200</ele>
        <time>2017-07-16T09:15:22Z</time>
      </trkpt>
      <trkpt lat="45.96546" lon="4.78271">
        <ele>200</ele>
        <time>2017-07-16T09:15:23Z</time>
      </trkpt>
      <trkpt lat="45.96552" lon="4.7828">
        <ele>200</ele>
        <time>2017-07-16T09:15:25Z</time>
      </trkpt>
      <trkpt lat="45.96555" lon="4.78285">
        <ele>200</ele>
        <time>2017-07-16T09:15:26Z</time>
      </trkpt>
      <trkpt lat="45.96561" lon="4.78293">
        <ele>200</ele>
        <time>2017-07-16T09:15:28Z</time>
      </trkpt>
      <trkpt lat="45.96564" lon="4.78297">
        <ele>200</ele>
        <time>2017-07-16T09:15:29Z</time>
      </trkpt>
      <trkpt lat="45.9657" lon="4.78304">
        <ele>200</ele>
        <time>2017-07-16T09:15:31Z</time>
      </trkpt>
      <trkpt lat="45.96574" lon="4.78308">
        <ele>200</ele>
        <time>2017-07-16T09:15:32Z</time>
      </trkpt>
      <trkpt lat="45.96581" lon="4.78315">
        <ele>199</ele>
        <time>2017-07-16T09:15:34Z</time>
      </trkpt>
      <trkpt lat="45.96584" lon="4.78319">
        <ele>202</ele>
        <time>2017-07-16T09:15:35Z</time>
      </trkpt>
      <trkpt lat="45.96587" lon="4.78323">
        <ele>201</ele>
        <time>2017-07-16T09:15:36Z</time>
      </trkpt>
      <trkpt lat="45.9659" lon="4.78328">
        <ele>201</ele>
        <time>2017-07-16T09:15:37Z</time>
      </trkpt>
      <trkpt lat="45.96597" lon="4.78336">
        <ele>199</ele>
        <time>2017-07-16T09:15:39Z</time>
      </trkpt>
      <trkpt lat="45.96601" lon="4.7834">
        <ele>200</ele>
        <time>2017-07-16T09:15:40Z</time>
      </trkpt>
      <trkpt lat="45.96606" lon="4.78343">
        <ele>200</ele>
        <time>2017-07-16T09:15:41Z</time>
      </trkpt>
      <trkpt lat="45.9661" lon="4.78346">
        <ele>200</ele>
        <time>2017-07-16T09:15:42Z</time>
      </trkpt>
      <trkpt lat="45.96618" lon="4.78352">
        <ele>201</ele>
        <time>2017-07-16T09:15:44Z</time>
      </trkpt>
      <trkpt lat="45.96621" lon="4.78355">
        <ele>201</ele>
        <time>2017-07-16T09:15:45Z</time>
      </trkpt>
      <trkpt lat="45.96628" lon="4.78361">
        <ele>201</ele>
        <time>2017-07-16T09:15:47Z</time>
      </trkpt>
      <trkpt lat="45.96632" lon="4.78364">
        <ele>201</ele>
        <time>2017-07-16T09:15:48Z</time>
      </trkpt>
      <trkpt lat="45.96635" lon="4.78368">
        <ele>201</ele>
        <time>2017-07-16T09:15:49Z</time>
      </trkpt>
      <trkpt lat="45.96639" lon="4.78372">
        <ele>201</ele>
        <time>2017-07-16T09:15:50Z</time>
      </trkpt>
      <trkpt lat="45.96644" lon="4.78376">
        <ele>201</ele>
        <time>2017-07-16T09:15:51Z</time>
      </trkpt>
      <trkpt lat="45.96648" lon="4.7838">
        <ele>201</ele>
        <time>2017-07-16T09:15:52Z</time>
      </trkpt>
      <trkpt lat="45.96656" lon="4.78386">
        <ele>201</ele>
        <time>2017-07-16T09:15:54Z</time>
      </trkpt>
      <trkpt lat="45.96659" lon="4.7839">
        <ele>201</ele>
        <time>2017-07-16T09:15:55Z</time>
      </trkpt>
      <trkpt lat="45.96663" lon="4.78394">
        <ele>201</ele>
        <time>2017-07-16T09:15:56Z</time>
      </trkpt>
      <trkpt lat="45.96668" lon="4.78397">
        <ele>204</ele>
        <time>2017-07-16T09:15:57Z</time>
      </trkpt>
      <trkpt lat="45.96675" lon="4.78403">
        <ele>204</ele>
        <time>2017-07-16T09:15:59Z</time>
      </trkpt>
      <trkpt lat="45.96678" lon="4.78406">
        <ele>204</ele>
        <time>2017-07-16T09:16:00Z</time>
      </trkpt>
      <trkpt lat="45.96684" lon="4.78412">
        <ele>204</ele>
        <time>2017-07-16T09:16:02Z</time>
      </trkpt>
      <trkpt lat="45.96687" lon="4.78415">
        <ele>204</ele>
        <time>2017-07-16T09:16:03Z</time>
      </trkpt>
      <trkpt lat="45.96692" lon="4.7842">
        <ele>202</ele>
        <time>2017-07-16T09:16:05Z</time>
      </trkpt>
      <trkpt lat="45.96695" lon="4.78422">
        <ele>202</ele>
        <time>2017-07-16T09:16:06Z</time>
      </trkpt>
      <trkpt lat="45.967" lon="4.78428">
        <ele>203</ele>
        <time>2017-07-16T09:16:08Z</time>
      </trkpt>
      <trkpt lat="45.96703" lon="4.78431">
        <ele>203</ele>
        <time>2017-07-16T09:16:09Z</time>
      </trkpt>
      <trkpt lat="45.96707" lon="4.7844">
        <ele>203</ele>
        <time>2017-07-16T09:16:11Z</time>
      </trkpt>
      <trkpt lat="45.9671" lon="4.78444">
        <ele>203</ele>
        <time>2017-07-16T09:16:12Z</time>
      </trkpt>
      <trkpt lat="45.96717" lon="4.78451">
        <ele>203</ele>
        <time>2017-07-16T09:16:14Z</time>
      </trkpt>
      <trkpt lat="45.96721" lon="4.78454">
        <ele>203</ele>
        <time>2017-07-16T09:16:15Z</time>
      </trkpt>
      <trkpt lat="45.96728" lon="4.78461">
        <ele>203</ele>
        <time>2017-07-16T09:16:17Z</time>
      </trkpt>
      <trkpt lat="45.96732" lon="4.78464">
        <ele>203</ele>
        <time>2017-07-16T09:16:18Z</time>
      </trkpt>
      <trkpt lat="45.96737" lon="4.78468">
        <ele>203</ele>
        <time>2017-07-16T09:16:19Z</time>
      </trkpt>
      <trkpt lat="45.96741" lon="4.78471">
        <ele>203</ele>
        <time>2017-07-16T09:16:20Z</time>
      </trkpt>
      <trkpt lat="45.96746" lon="4.78475">
        <ele>203</ele>
        <time>2017-07-16T09:16:21Z</time>
      </trkpt>
      <trkpt lat="45.9675" lon="4.78478">
        <ele>203</ele>
        <time>2017-07-16T09:16:22Z</time>
      </trkpt>
      <trkpt lat="45.96754" lon="4.78481">
        <ele>205</ele>
        <time>2017-07-16T09:16:23Z</time>
      </trkpt>
      <trkpt lat="45.96758" lon="4.78484">
        <ele>205</ele>
        <time>2017-07-16T09:16:24Z</time>
      </trkpt>
      <trkpt lat="45.96762" lon="4.78488">
        <ele>205</ele>
        <time>2017-07-16T09:16:25Z</time>
      </trkpt>
      <trkpt lat="45.96765" lon="4.78492">
        <ele>205</ele>
        <time>2017-07-16T09:16:26Z</time>
      </trkpt>
      <trkpt lat="45.96772" lon="4.78501">
        <ele>203</ele>
        <time>2017-07-16T09:16:28Z</time>
      </trkpt>
      <trkpt lat="45.96775" lon="4.78506">
        <ele>203</ele>
        <time>2017-07-16T09:16:29Z</time>
      </trkpt>
      <trkpt lat="45.96779" lon="4.78511">
        <ele>203</ele>
        <time>2017-07-16T09:16:30Z</time>
      </trkpt>
      <trkpt lat="45.96782" lon="4.78515">
        <ele>203</ele>
        <time>2017-07-16T09:16:31Z</time>
      </trkpt>
      <trkpt lat="45.96786" lon="4.7852">
        <ele>203</ele>
        <time>2017-07-16T09:16:32Z</time>
      </trkpt>
      <trkpt lat="45.96789" lon="4.78524">
        <ele>203</ele>
        <time>2017-07-16T09:16:33Z</time>
      </trkpt>
      <trkpt lat="45.96795" lon="4.78533">
        <ele>203</ele>
        <time>2017-07-16T09:16:35Z</time>
      </trkpt>
      <trkpt lat="45.96798" lon="4.78537">
        <ele>203</ele>
        <time>2017-07-16T09:16:36Z</time>
      </trkpt>
      <trkpt lat="45.96803" lon="4.78547">
        <ele>203</ele>
        <time>2017-07-16T09:16:38Z</time>
      </trkpt>
      <trkpt lat="45.96804" lon="4.78553">
        <ele>203</ele>
        <time>2017-07-16T09:16:39Z</time>
      </trkpt>
      <trkpt lat="45.96807" lon="4.78559">
        <ele>203</ele>
        <time>2017-07-16T09:16:40Z</time>
      </trkpt>
      <trkpt lat="45.9681" lon="4.78564">
        <ele>203</ele>
        <time>2017-07-16T09:16:41Z</time>
      </trkpt>
      <trkpt lat="45.96816" lon="4.78572">
        <ele>203</ele>
        <time>2017-07-16T09:16:43Z</time>
      </trkpt>
      <trkpt lat="45.96819" lon="4.78576">
        <ele>203</ele>
        <time>2017-07-16T09:16:44Z</time>
      </trkpt>
      <trkpt lat="45.96822" lon="4.78583">
        <ele>203</ele>
        <time>2017-07-16T09:16:46Z</time>
      </trkpt>
      <trkpt lat="45.96824" lon="4.78587">
        <ele>202</ele>
        <time>2017-07-16T09:16:47Z</time>
      </trkpt>
      <trkpt lat="45.96829" lon="4.78596">
        <ele>202</ele>
        <time>2017-07-16T09:16:49Z</time>
      </trkpt>
      <trkpt lat="45.96831" lon="4.78602">
        <ele>202</ele>
        <time>2017-07-16T09:16:50Z</time>
      </trkpt>
      <trkpt lat="45.96832" lon="4.78608">
        <ele>202</ele>
        <time>2017-07-16T09:16:51Z</time>
      </trkpt>
      <trkpt lat="45.96837" lon="4.78613">
        <ele>203</ele>
        <time>2017-07-16T09:16:52Z</time>
      </trkpt>
      <trkpt lat="45.9684" lon="4.78619">
        <ele>203</ele>
        <time>2017-07-16T09:16:53Z</time>
      </trkpt>
      <trkpt lat="45.96843" lon="4.78625">
        <ele>203</ele>
        <time>2017-07-16T09:16:54Z</time>
      </trkpt>
      <trkpt lat="45.96846" lon="4.78636">
        <ele>203</ele>
        <time>2017-07-16T09:16:56Z</time>
      </trkpt>
      <trkpt lat="45.96848" lon="4.78641">
        <ele>203</ele>
        <time>2017-07-16T09:16:57Z</time>
      </trkpt>
      <trkpt lat="45.96853" lon="4.7865">
        <ele>203</ele>
        <time>2017-07-16T09:16:59Z</time>
      </trkpt>
      <trkpt lat="45.96855" lon="4.78655">
        <ele>203</ele>
        <time>2017-07-16T09:17:00Z</time>
      </trkpt>
      <trkpt lat="45.96859" lon="4.78665">
        <ele>203</ele>
        <time>2017-07-16T09:17:02Z</time>
      </trkpt>
      <trkpt lat="45.96861" lon="4.78671">
        <ele>202</ele>
        <time>2017-07-16T09:17:03Z</time>
      </trkpt>
      <trkpt lat="45.96866" lon="4.78681">
        <ele>202</ele>
        <time>2017-07-16T09:17:05Z</time>
      </trkpt>
      <trkpt lat="45.96869" lon="4.78687">
        <ele>202</ele>
        <time>2017-07-16T09:17:06Z</time>
      </trkpt>
      <trkpt lat="45.96871" lon="4.78692">
        <ele>202</ele>
        <time>2017-07-16T09:17:07Z</time>
      </trkpt>
      <trkpt lat="45.96874" lon="4.78698">
        <ele>202</ele>
        <time>2017-07-16T09:17:08Z</time>
      </trkpt>
      <trkpt lat="45.96878" lon="4.78708">
        <ele>202</ele>
        <time>2017-07-16T09:17:10Z</time>
      </trkpt>
      <trkpt lat="45.9688" lon="4.78713">
        <ele>202</ele>
        <time>2017-07-16T09:17:11Z</time>
      </trkpt>
      <trkpt lat="45.96884" lon="4.78723">
        <ele>202</ele>
        <time>2017-07-16T09:17:13Z</time>
      </trkpt>
      <trkpt lat="45.96886" lon="4.78728">
        <ele>202</ele>
        <time>2017-07-16T09:17:14Z</time>
      </trkpt>
      <trkpt lat="45.96891" lon="4.78738">
        <ele>202</ele>
        <time>2017-07-16T09:17:16Z</time>
      </trkpt>
      <trkpt lat="45.96894" lon="4.78743">
        <ele>202</ele>
        <time>2017-07-16T09:17:17Z</time>
      </trkpt>
      <trkpt lat="45.96896" lon="4.78755">
        <ele>201</ele>
        <time>2017-07-16T09:17:19Z</time>
      </trkpt>
      <trkpt lat="45.96898" lon="4.78759">
        <ele>201</ele>
        <time>2017-07-16T09:17:20Z</time>
      </trkpt>
      <trkpt lat="45.96903" lon="4.78769">
        <ele>201</ele>
        <time>2017-07-16T09:17:22Z</time>
      </trkpt>
      <trkpt lat="45.96905" lon="4.78774">
        <ele>201</ele>
        <time>2017-07-16T09:17:23Z</time>
      </trkpt>
      <trkpt lat="45.9691" lon="4.78783">
        <ele>201</ele>
        <time>2017-07-16T09:17:25Z</time>
      </trkpt>
      <trkpt lat="45.96913" lon="4.78788">
        <ele>201</ele>
        <time>2017-07-16T09:17:26Z</time>
      </trkpt>
      <trkpt lat="45.96915" lon="4.78793">
        <ele>201</ele>
        <time>2017-07-16T09:17:27Z</time>
      </trkpt>
      <trkpt lat="45.96918" lon="4.78799">
        <ele>203</ele>
        <time>2017-07-16T09:17:28Z</time>
      </trkpt>
      <trkpt lat="45.96921" lon="4.78804">
        <ele>203</ele>
        <time>2017-07-16T09:17:29Z</time>
      </trkpt>
      <trkpt lat="45.96924" lon="4.78809">
        <ele>203</ele>
        <time>2017-07-16T09:17:30Z</time>
      </trkpt>
      <trkpt lat="45.9693" lon="4.78819">
        <ele>202</ele>
        <time>2017-07-16T09:17:32Z</time>
      </trkpt>
      <trkpt lat="45.96933" lon="4.78823">
        <ele>202</ele>
        <time>2017-07-16T09:17:33Z</time>
      </trkpt>
      <trkpt lat="45.96939" lon="4.7883">
        <ele>202</ele>
        <time>2017-07-16T09:17:35Z</time>
      </trkpt>
      <trkpt lat="45.96943" lon="4.78834">
        <ele>202</ele>
        <time>2017-07-16T09:17:36Z</time>
      </trkpt>
      <trkpt lat="45.96946" lon="4.78839">
        <ele>202</ele>
        <time>2017-07-16T09:17:37Z</time>
      </trkpt>
      <trkpt lat="45.9695" lon="4.78843">
        <ele>202</ele>
        <time>2017-07-16T09:17:38Z</time>
      </trkpt>
      <trkpt lat="45.96954" lon="4.78847">
        <ele>203</ele>
        <time>2017-07-16T09:17:39Z</time>
      </trkpt>
      <trkpt lat="45.96958" lon="4.78851">
        <ele>203</ele>
        <time>2017-07-16T09:17:40Z</time>
      </trkpt>
      <trkpt lat="45.96965" lon="4.78859">
        <ele>203</ele>
        <time>2017-07-16T09:17:42Z</time>
      </trkpt>
      <trkpt lat="45.96968" lon="4.78863">
        <ele>203</ele>
        <time>2017-07-16T09:17:43Z</time>
      </trkpt>
      <trkpt lat="45.96973" lon="4.78869">
        <ele>203</ele>
        <time>2017-07-16T09:17:45Z</time>
      </trkpt>
      <trkpt lat="45.96976" lon="4.78872">
        <ele>203</ele>
        <time>2017-07-16T09:17:46Z</time>
      </trkpt>
      <trkpt lat="45.96982" lon="4.78881">
        <ele>203</ele>
        <time>2017-07-16T09:17:48Z</time>
      </trkpt>
      <trkpt lat="45.96985" lon="4.78885">
        <ele>203</ele>
        <time>2017-07-16T09:17:49Z</time>
      </trkpt>
      <trkpt lat="45.96988" lon="4.7889">
        <ele>203</ele>
        <time>2017-07-16T09:17:50Z</time>
      </trkpt>
      <trkpt lat="45.96992" lon="4.78894">
        <ele>203</ele>
        <time>2017-07-16T09:17:51Z</time>
      </trkpt>
      <trkpt lat="45.96998" lon="4.78901">
        <ele>204</ele>
        <time>2017-07-16T09:17:53Z</time>
      </trkpt>
      <trkpt lat="45.97001" lon="4.78904">
        <ele>206</ele>
        <time>2017-07-16T09:17:54Z</time>
      </trkpt>
      <trkpt lat="45.97007" lon="4.78912">
        <ele>205</ele>
        <time>2017-07-16T09:17:56Z</time>
      </trkpt>
      <trkpt lat="45.9701" lon="4.78916">
        <ele>205</ele>
        <time>2017-07-16T09:17:57Z</time>
      </trkpt>
      <trkpt lat="45.97016" lon="4.78925">
        <ele>205</ele>
        <time>2017-07-16T09:17:59Z</time>
      </trkpt>
      <trkpt lat="45.97019" lon="4.78929">
        <ele>205</ele>
        <time>2017-07-16T09:18:00Z</time>
      </trkpt>
      <trkpt lat="45.97025" lon="4.78938">
        <ele>205</ele>
        <time>2017-07-16T09:18:02Z</time>
      </trkpt>
      <trkpt lat="45.97028" lon="4.78942">
        <ele>205</ele>
        <time>2017-07-16T09:18:03Z</time>
      </trkpt>
      <trkpt lat="45.97034" lon="4.7895">
        <ele>205</ele>
        <time>2017-07-16T09:18:05Z</time>
      </trkpt>
      <trkpt lat="45.97036" lon="4.78954">
        <ele>205</ele>
        <time>2017-07-16T09:18:06Z</time>
      </trkpt>
      <trkpt lat="45.97041" lon="4.78963">
        <ele>205</ele>
        <time>2017-07-16T09:18:08Z</time>
      </trkpt>
      <trkpt lat="45.97043" lon="4.78967">
        <ele>205</ele>
        <time>2017-07-16T09:18:09Z</time>
      </trkpt>
      <trkpt lat="45.97046" lon="4.78975">
        <ele>205</ele>
        <time>2017-07-16T09:18:11Z</time>
      </trkpt>
      <trkpt lat="45.97047" lon="4.78979">
        <ele>205</ele>
        <time>2017-07-16T09:18:12Z</time>
      </trkpt>
      <trkpt lat="45.9705" lon="4.78988">
        <ele>205</ele>
        <time>2017-07-16T09:18:14Z</time>
      </trkpt>
      <trkpt lat="45.97052" lon="4.78993">
        <ele>205</ele>
        <time>2017-07-16T09:18:15Z</time>
      </trkpt>
      <trkpt lat="45.97054" lon="4.79002">
        <ele>203</ele>
        <time>2017-07-16T09:18:17Z</time>
      </trkpt>
      <trkpt lat="45.97055" lon="4.79007">
        <ele>203</ele>
        <time>2017-07-16T09:18:18Z</time>
      </trkpt>
      <trkpt lat="45.97058" lon="4.79017">
        <ele>203</ele>
        <time>2017-07-16T09:18:20Z</time>
      </trkpt>
      <trkpt lat="45.9706" lon="4.79021">
        <ele>203</ele>
        <time>2017-07-16T09:18:21Z</time>
      </trkpt>
      <trkpt lat="45.97062" lon="4.79032">
        <ele>203</ele>
        <time>2017-07-16T09:18:23Z</time>
      </trkpt>
      <trkpt lat="45.97063" lon="4.79037">
        <ele>203</ele>
        <time>2017-07-16T09:18:24Z</time>
      </trkpt>
      <trkpt lat="45.97066" lon="4.79048">
        <ele>203</ele>
        <time>2017-07-16T09:18:26Z</time>
      </trkpt>
      <trkpt lat="45.97068" lon="4.79054">
        <ele>203</ele>
        <time>2017-07-16T09:18:27Z</time>
      </trkpt>
      <trkpt lat="45.9707" lon="4.79061">
        <ele>203</ele>
        <time>2017-07-16T09:18:28Z</time>
      </trkpt>
      <trkpt lat="45.97072" lon="4.79067">
        <ele>204</ele>
        <time>2017-07-16T09:18:29Z</time>
      </trkpt>
      <trkpt lat="45.97073" lon="4.79074">
        <ele>204</ele>
        <time>2017-07-16T09:18:30Z</time>
      </trkpt>
      <trkpt lat="45.97075" lon="4.7908">
        <ele>204</ele>
        <time>2017-07-16T09:18:31Z</time>
      </trkpt>
      <trkpt lat="45.97078" lon="4.79091">
        <ele>204</ele>
        <time>2017-07-16T09:18:33Z</time>
      </trkpt>
      <trkpt lat="45.9708" lon="4.79097">
        <ele>204</ele>
        <time>2017-07-16T09:18:34Z</time>
      </trkpt>
      <trkpt lat="45.97084" lon="4.79106">
        <ele>206</ele>
        <time>2017-07-16T09:18:36Z</time>
      </trkpt>
      <trkpt lat="45.97086" lon="4.79111">
        <ele>206</ele>
        <time>2017-07-16T09:18:37Z</time>
      </trkpt>
      <trkpt lat="45.9709" lon="4.79121">
        <ele>206</ele>
        <time>2017-07-16T09:18:39Z</time>
      </trkpt>
      <trkpt lat="45.97093" lon="4.79127">
        <ele>206</ele>
        <time>2017-07-16T09:18:40Z</time>
      </trkpt>
      <trkpt lat="45.97096" lon="4.79132">
        <ele>206</ele>
        <time>2017-07-16T09:18:41Z</time>
      </trkpt>
      <trkpt lat="45.97099" lon="4.79138">
        <ele>206</ele>
        <time>2017-07-16T09:18:42Z</time>
      </trkpt>
      <trkpt lat="45.97104" lon="4.79148">
        <ele>206</ele>
        <time>2017-07-16T09:18:44Z</time>
      </trkpt>
      <trkpt lat="45.97106" lon="4.79153">
        <ele>206</ele>
        <time>2017-07-16T09:18:45Z</time>
      </trkpt>
      <trkpt lat="45.9711" lon="4.79163">
        <ele>206</ele>
        <time>2017-07-16T09:18:47Z</time>
      </trkpt>
      <trkpt lat="45.97113" lon="4.79168">
        <ele>205</ele>
        <time>2017-07-16T09:18:48Z</time>
      </trkpt>
      <trkpt lat="45.97118" lon="4.79177">
        <ele>206</ele>
        <time>2017-07-16T09:18:50Z</time>
      </trkpt>
      <trkpt lat="45.9712" lon="4.79182">
        <ele>206</ele>
        <time>2017-07-16T09:18:51Z</time>
      </trkpt>
      <trkpt lat="45.97124" lon="4.79192">
        <ele>206</ele>
        <time>2017-07-16T09:18:53Z</time>
      </trkpt>
      <trkpt lat="45.97126" lon="4.79196">
        <ele>206</ele>
        <time>2017-07-16T09:18:54Z</time>
      </trkpt>
      <trkpt lat="45.97129" lon="4.79205">
        <ele>206</ele>
        <time>2017-07-16T09:18:56Z</time>
      </trkpt>
      <trkpt lat="45.97131" lon="4.79209">
        <ele>206</ele>
        <time>2017-07-16T09:18:57Z</time>
      </trkpt>
      <trkpt lat="45.97134" lon="4.7922">
        <ele>205</ele>
        <time>2017-07-16T09:18:59Z</time>
      </trkpt>
      <trkpt lat="45.97137" lon="4.79226">
        <ele>205</ele>
        <time>2017-07-16T09:19:00Z</time>
      </trkpt>
      <trkpt lat="45.97139" lon="4.79232">
        <ele>205</ele>
        <time>2017-07-16T09:19:01Z</time>
      </trkpt>
      <trkpt lat="45.97142" lon="4.79238">
        <ele>205</ele>
        <time>2017-07-16T09:19:02Z</time>
      </trkpt>
      <trkpt lat="45.97147" lon="4.79248">
        <ele>205</ele>
        <time>2017-07-16T09:19:04Z</time>
      </trkpt>
      <trkpt lat="45.97149" lon="4.79253">
        <ele>204</ele>
        <time>2017-07-16T09:19:05Z</time>
      </trkpt>
      <trkpt lat="45.97153" lon="4.79263">
        <ele>204</ele>
        <time>2017-07-16T09:19:07Z</time>
      </trkpt>
      <trkpt lat="45.97155" lon="4.79269">
        <ele>204</ele>
        <time>2017-07-16T09:19:08Z</time>
      </trkpt>
      <trkpt lat="45.97157" lon="4.79275">
        <ele>204</ele>
        <time>2017-07-16T09:19:09Z</time>
      </trkpt>
      <trkpt lat="45.97159" lon="4.79281">
        <ele>204</ele>
        <time>2017-07-16T09:19:10Z</time>
      </trkpt>
      <trkpt lat="45.97161" lon="4.79287">
        <ele>204</ele>
        <time>2017-07-16T09:19:11Z</time>
      </trkpt>
      <trkpt lat="45.97163" lon="4.79292">
        <ele>204</ele>
        <time>2017-07-16T09:19:12Z</time>
      </trkpt>
      <trkpt lat="45.97166" lon="4.79304">
        <ele>204</ele>
        <time>2017-07-16T09:19:14Z</time>
      </trkpt>
      <trkpt lat="45.97167" lon="4.79308">
        <ele>207</ele>
        <time>2017-07-16T09:19:15Z</time>
      </trkpt>
      <trkpt lat="45.9717" lon="4.79318">
        <ele>206</ele>
        <time>2017-07-16T09:19:17Z</time>
      </trkpt>
      <trkpt lat="45.97172" lon="4.79323">
        <ele>206</ele>
        <time>2017-07-16T09:19:18Z</time>
      </trkpt>
      <trkpt lat="45.97176" lon="4.79333">
        <ele>206</ele>
        <time>2017-07-16T09:19:20Z</time>
      </trkpt>
      <trkpt lat="45.97178" lon="4.79337">
        <ele>206</ele>
        <time>2017-07-16T09:19:21Z</time>
      </trkpt>
      <trkpt lat="45.97183" lon="4.79348">
        <ele>207</ele>
        <time>2017-07-16T09:19:23Z</time>
      </trkpt>
      <trkpt lat="45.97185" lon="4.79353">
        <ele>207</ele>
        <time>2017-07-16T09:19:24Z</time>
      </trkpt>
      <trkpt lat="45.97189" lon="4.79362">
        <ele>207</ele>
        <time>2017-07-16T09:19:26Z</time>
      </trkpt>
      <trkpt lat="45.97192" lon="4.79367">
        <ele>207</ele>
        <time>2017-07-16T09:19:27Z</time>
      </trkpt>
      <trkpt lat="45.97197" lon="4.79376">
        <ele>207</ele>
        <time>2017-07-16T09:19:29Z</time>
      </trkpt>
      <trkpt lat="45.97198" lon="4.79381">
        <ele>207</ele>
        <time>2017-07-16T09:19:30Z</time>
      </trkpt>
      <trkpt lat="45.97201" lon="4.79385">
        <ele>207</ele>
        <time>2017-07-16T09:19:31Z</time>
      </trkpt>
      <trkpt lat="45.97204" lon="4.79391">
        <ele>208</ele>
        <time>2017-07-16T09:19:32Z</time>
      </trkpt>
      <trkpt lat="45.97207" lon="4.79397">
        <ele>208</ele>
        <time>2017-07-16T09:19:33Z</time>
      </trkpt>
      <trkpt lat="45.9721" lon="4.79404">
        <ele>208</ele>
        <time>2017-07-16T09:19:34Z</time>
      </trkpt>
      <trkpt lat="45.97212" lon="4.7941">
        <ele>208</ele>
        <time>2017-07-16T09:19:35Z</time>
      </trkpt>
      <trkpt lat="45.97215" lon="4.79416">
        <ele>208</ele>
        <time>2017-07-16T09:19:36Z</time>
      </trkpt>
      <trkpt lat="45.97218" lon="4.79421">
        <ele>208</ele>
        <time>2017-07-16T09:19:37Z</time>
      </trkpt>
      <trkpt lat="45.97221" lon="4.79426">
        <ele>209</ele>
        <time>2017-07-16T09:19:38Z</time>
      </trkpt>
      <trkpt lat="45.97226" lon="4.79436">
        <ele>209</ele>
        <time>2017-07-16T09:19:40Z</time>
      </trkpt>
      <trkpt lat="45.97228" lon="4.79441">
        <ele>209</ele>
        <time>2017-07-16T09:19:41Z</time>
      </trkpt>
      <trkpt lat="45.97231" lon="4.79451">
        <ele>209</ele>
        <time>2017-07-16T09:19:43Z</time>
      </trkpt>
      <trkpt lat="45.97233" lon="4.79456">
        <ele>209</ele>
        <time>2017-07-16T09:19:44Z</time>
      </trkpt>
      <trkpt lat="45.97233" lon="4.79467">
        <ele>209</ele>
        <time>2017-07-16T09:19:46Z</time>
      </trkpt>
      <trkpt lat="45.97234" lon="4.79472">
        <ele>209</ele>
        <time>2017-07-16T09:19:47Z</time>
      </trkpt>
      <trkpt lat="45.97237" lon="4.79484">
        <ele>209</ele>
        <time>2017-07-16T09:19:49Z</time>
      </trkpt>
      <trkpt lat="45.97238" lon="4.79489">
        <ele>210</ele>
        <time>2017-07-16T09:19:50Z</time>
      </trkpt>
      <trkpt lat="45.97241" lon="4.79499">
        <ele>210</ele>
        <time>2017-07-16T09:19:52Z</time>
      </trkpt>
      <trkpt lat="45.97242" lon="4.79504">
        <ele>210</ele>
        <time>2017-07-16T09:19:53Z</time>
      </trkpt>
      <trkpt lat="45.97244" lon="4.79514">
        <ele>210</ele>
        <time>2017-07-16T09:19:55Z</time>
      </trkpt>
      <trkpt lat="45.97246" lon="4.79518">
        <ele>210</ele>
        <time>2017-07-16T09:19:56Z</time>
      </trkpt>
      <trkpt lat="45.97248" lon="4.79528">
        <ele>210</ele>
        <time>2017-07-16T09:19:58Z</time>
      </trkpt>
      <trkpt lat="45.97249" lon="4.79533">
        <ele>210</ele>
        <time>2017-07-16T09:19:59Z</time>
      </trkpt>
      <trkpt lat="45.97251" lon="4.79543">
        <ele>214</ele>
        <time>2017-07-16T09:20:01Z</time>
      </trkpt>
      <trkpt lat="45.97252" lon="4.79548">
        <ele>214</ele>
        <time>2017-07-16T09:20:02Z</time>
      </trkpt>
      <trkpt lat="45.97254" lon="4.79558">
        <ele>213</ele>
        <time>2017-07-16T09:20:04Z</time>
      </trkpt>
      <trkpt lat="45.97254" lon="4.79563">
        <ele>213</ele>
        <time>2017-07-16T09:20:05Z</time>
      </trkpt>
      <trkpt lat="45.97255" lon="4.79573">
        <ele>212</ele>
        <time>2017-07-16T09:20:07Z</time>
      </trkpt>
      <trkpt lat="45.97254" lon="4.79578">
        <ele>211</ele>
        <time>2017-07-16T09:20:08Z</time>
      </trkpt>
      <trkpt lat="45.97255" lon="4.79589">
        <ele>211</ele>
        <time>2017-07-16T09:20:10Z</time>
      </trkpt>
      <trkpt lat="45.97257" lon="4.79594">
        <ele>212</ele>
        <time>2017-07-16T09:20:11Z</time>
      </trkpt>
      <trkpt lat="45.97258" lon="4.79605">
        <ele>213</ele>
        <time>2017-07-16T09:20:13Z</time>
      </trkpt>
      <trkpt lat="45.97258" lon="4.79611">
        <ele>213</ele>
        <time>2017-07-16T09:20:14Z</time>
      </trkpt>
      <trkpt lat="45.97259" lon="4.79622">
        <ele>213</ele>
        <time>2017-07-16T09:20:16Z</time>
      </trkpt>
      <trkpt lat="45.97259" lon="4.79627">
        <ele>213</ele>
        <time>2017-07-16T09:20:17Z</time>
      </trkpt>
      <trkpt lat="45.97258" lon="4.79637">
        <ele>213</ele>
        <time>2017-07-16T09:20:19Z</time>
      </trkpt>
      <trkpt lat="45.97258" lon="4.79643">
        <ele>212</ele>
        <time>2017-07-16T09:20:20Z</time>
      </trkpt>
      <trkpt lat="45.97256" lon="4.79653">
        <ele>211</ele>
        <time>2017-07-16T09:20:22Z</time>
      </trkpt>
      <trkpt lat="45.97255" lon="4.79661">
        <ele>210</ele>
        <time>2017-07-16T09:20:23Z</time>
      </trkpt>
      <trkpt lat="45.97254" lon="4.79674">
        <ele>210</ele>
        <time>2017-07-16T09:20:25Z</time>
      </trkpt>
      <trkpt lat="45.97253" lon="4.7968">
        <ele>210</ele>
        <time>2017-07-16T09:20:26Z</time>
      </trkpt>
      <trkpt lat="45.97252" lon="4.79685">
        <ele>211</ele>
        <time>2017-07-16T09:20:27Z</time>
      </trkpt>
      <trkpt lat="45.9725" lon="4.79692">
        <ele>212</ele>
        <time>2017-07-16T09:20:28Z</time>
      </trkpt>
      <trkpt lat="45.97249" lon="4.79703">
        <ele>208</ele>
        <time>2017-07-16T09:20:30Z</time>
      </trkpt>
      <trkpt lat="45.97248" lon="4.79708">
        <ele>208</ele>
        <time>2017-07-16T09:20:31Z</time>
      </trkpt>
      <trkpt lat="45.97246" lon="4.79715">
        <ele>209</ele>
        <time>2017-07-16T09:20:32Z</time>
      </trkpt>
      <trkpt lat="45.97245" lon="4.79721">
        <ele>209</ele>
        <time>2017-07-16T09:20:33Z</time>
      </trkpt>
      <trkpt lat="45.97243" lon="4.79734">
        <ele>209</ele>
        <time>2017-07-16T09:20:35Z</time>
      </trkpt>
      <trkpt lat="45.97243" lon="4.7974">
        <ele>209</ele>
        <time>2017-07-16T09:20:36Z</time>
      </trkpt>
      <trkpt lat="45.97242" lon="4.79751">
        <ele>209</ele>
        <time>2017-07-16T09:20:38Z</time>
      </trkpt>
      <trkpt lat="45.97242" lon="4.79756">
        <ele>209</ele>
        <time>2017-07-16T09:20:39Z</time>
      </trkpt>
      <trkpt lat="45.97242" lon="4.79768">
        <ele>210</ele>
        <time>2017-07-16T09:20:41Z</time>
      </trkpt>
      <trkpt lat="45.97242" lon="4.79773">
        <ele>210</ele>
        <time>2017-07-16T09:20:42Z</time>
      </trkpt>
      <trkpt lat="45.97241" lon="4.79783">
        <ele>210</ele>
        <time>2017-07-16T09:20:44Z</time>
      </trkpt>
      <trkpt lat="45.97241" lon="4.79788">
        <ele>210</ele>
        <time>2017-07-16T09:20:45Z</time>
      </trkpt>
      <trkpt lat="45.97239" lon="4.79798">
        <ele>210</ele>
        <time>2017-07-16T09:20:47Z</time>
      </trkpt>
      <trkpt lat="45.97239" lon="4.79804">
        <ele>210</ele>
        <time>2017-07-16T09:20:48Z</time>
      </trkpt>
      <trkpt lat="45.97239" lon="4.79816">
        <ele>211</ele>
        <time>2017-07-16T09:20:50Z</time>
      </trkpt>
      <trkpt lat="45.9724" lon="4.79821">
        <ele>211</ele>
        <time>2017-07-16T09:20:51Z</time>
      </trkpt>
      <trkpt lat="45.9724" lon="4.79833">
        <ele>211</ele>
        <time>2017-07-16T09:20:53Z</time>
      </trkpt>
      <trkpt lat="45.9724" lon="4.79838">
        <ele>212</ele>
        <time>2017-07-16T09:20:54Z</time>
      </trkpt>
      <trkpt lat="45.9724" lon="4.79849">
        <ele>211</ele>
        <time>2017-07-16T09:20:56Z</time>
      </trkpt>
      <trkpt lat="45.9724" lon="4.79853">
        <ele>211</ele>
        <time>2017-07-16T09:20:57Z</time>
      </trkpt>
      <trkpt lat="45.97243" lon="4.79861">
        <ele>211</ele>
        <time>2017-07-16T09:20:59Z</time>
      </trkpt>
      <trkpt lat="45.97244" lon="4.79865">
        <ele>211</ele>
        <time>2017-07-16T09:21:00Z</time>
      </trkpt>
      <trkpt lat="45.97248" lon="4.79875">
        <ele>211</ele>
        <time>2017-07-16T09:21:02Z</time>
      </trkpt>
      <trkpt lat="45.9725" lon="4.7988">
        <ele>213</ele>
        <time>2017-07-16T09:21:03Z</time>
      </trkpt>
      <trkpt lat="45.97253" lon="4.79891">
        <ele>213</ele>
        <time>2017-07-16T09:21:05Z</time>
      </trkpt>
      <trkpt lat="45.97254" lon="4.79897">
        <ele>213</ele>
        <time>2017-07-16T09:21:06Z</time>
      </trkpt>
      <trkpt lat="45.97252" lon="4.79909">
        <ele>212</ele>
        <time>2017-07-16T09:21:09Z</time>
      </trkpt>
      <trkpt lat="45.97252" lon="4.79911">
        <ele>212</ele>
        <time>2017-07-16T09:21:10Z</time>
      </trkpt>
      <trkpt lat="45.97253" lon="4.79911">
        <ele>212</ele>
        <time>2017-07-16T09:21:14Z</time>
      </trkpt>
      <trkpt lat="45.97253" lon="4.79912">
        <ele>212</ele>
        <time>2017-07-16T09:21:15Z</time>
      </trkpt>
      <trkpt lat="45.97255" lon="4.79914">
        <ele>212</ele>
        <time>2017-07-16T09:21:16Z</time>
      </trkpt>
      <trkpt lat="45.97262" lon="4.79919">
        <ele>212</ele>
        <time>2017-07-16T09:21:19Z</time>
      </trkpt>
      <trkpt lat="45.97265" lon="4.79919">
        <ele>212</ele>
        <time>2017-07-16T09:21:20Z</time>
      </trkpt>
      <trkpt lat="45.97271" lon="4.79917">
        <ele>212</ele>
        <time>2017-07-16T09:21:22Z</time>
      </trkpt>
      <trkpt lat="45.97274" lon="4.79917">
        <ele>213</ele>
        <time>2017-07-16T09:21:23Z</time>
      </trkpt>
      <trkpt lat="45.97281" lon="4.79917">
        <ele>213</ele>
        <time>2017-07-16T09:21:25Z</time>
      </trkpt>
      <trkpt lat="45.97286" lon="4.79916">
        <ele>213</ele>
        <time>2017-07-16T09:21:26Z</time>
      </trkpt>
      <trkpt lat="45.97293" lon="4.79915">
        <ele>213</ele>
        <time>2017-07-16T09:21:28Z</time>
      </trkpt>
      <trkpt lat="45.97298" lon="4.79913">
        <ele>213</ele>
        <time>2017-07-16T09:21:29Z</time>
      </trkpt>
      <trkpt lat="45.97307" lon="4.79912">
        <ele>213</ele>
        <time>2017-07-16T09:21:31Z</time>
      </trkpt>
      <trkpt lat="45.9731" lon="4.79912">
        <ele>213</ele>
        <time>2017-07-16T09:21:32Z</time>
      </trkpt>
      <trkpt lat="45.97319" lon="4.79911">
        <ele>213</ele>
        <time>2017-07-16T09:21:34Z</time>
      </trkpt>
      <trkpt lat="45.97323" lon="4.7991">
        <ele>213</ele>
        <time>2017-07-16T09:21:35Z</time>
      </trkpt>
      <trkpt lat="45.97331" lon="4.79909">
        <ele>213</ele>
        <time>2017-07-16T09:21:37Z</time>
      </trkpt>
      <trkpt lat="45.97335" lon="4.79909">
        <ele>214</ele>
        <time>2017-07-16T09:21:38Z</time>
      </trkpt>
      <trkpt lat="45.97344" lon="4.79907">
        <ele>215</ele>
        <time>2017-07-16T09:21:40Z</time>
      </trkpt>
      <trkpt lat="45.97348" lon="4.79906">
        <ele>215</ele>
        <time>2017-07-16T09:21:41Z</time>
      </trkpt>
      <trkpt lat="45.97356" lon="4.79906">
        <ele>216</ele>
        <time>2017-07-16T09:21:43Z</time>
      </trkpt>
      <trkpt lat="45.9736" lon="4.79905">
        <ele>216</ele>
        <time>2017-07-16T09:21:44Z</time>
      </trkpt>
      <trkpt lat="45.97368" lon="4.79906">
        <ele>216</ele>
        <time>2017-07-16T09:21:46Z</time>
      </trkpt>
      <trkpt lat="45.97373" lon="4.79905">
        <ele>217</ele>
        <time>2017-07-16T09:21:47Z</time>
      </trkpt>
      <trkpt lat="45.97381" lon="4.79903">
        <ele>217</ele>
        <time>2017-07-16T09:21:49Z</time>
      </trkpt>
      <trkpt lat="45.97384" lon="4.79902">
        <ele>217</ele>
        <time>2017-07-16T09:21:50Z</time>
      </trkpt>
      <trkpt lat="45.97392" lon="4.79901">
        <ele>217</ele>
        <time>2017-07-16T09:21:52Z</time>
      </trkpt>
      <trkpt lat="45.97395" lon="4.79899">
        <ele>217</ele>
        <time>2017-07-16T09:21:53Z</time>
      </trkpt>
      <trkpt lat="45.97403" lon="4.79898">
        <ele>217</ele>
        <time>2017-07-16T09:21:55Z</time>
      </trkpt>
      <trkpt lat="45.97408" lon="4.79896">
        <ele>217</ele>
        <time>2017-07-16T09:21:56Z</time>
      </trkpt>
      <trkpt lat="45.97416" lon="4.79896">
        <ele>217</ele>
        <time>2017-07-16T09:21:58Z</time>
      </trkpt>
      <trkpt lat="45.9742" lon="4.79896">
        <ele>219</ele>
        <time>2017-07-16T09:21:59Z</time>
      </trkpt>
      <trkpt lat="45.97425" lon="4.79896">
        <ele>219</ele>
        <time>2017-07-16T09:22:00Z</time>
      </trkpt>
      <trkpt lat="45.97431" lon="4.79895">
        <ele>220</ele>
        <time>2017-07-16T09:22:01Z</time>
      </trkpt>
      <trkpt lat="45.97439" lon="4.79894">
        <ele>220</ele>
        <time>2017-07-16T09:22:03Z</time>
      </trkpt>
      <trkpt lat="45.97443" lon="4.79894">
        <ele>220</ele>
        <time>2017-07-16T09:22:04Z</time>
      </trkpt>
      <trkpt lat="45.97449" lon="4.79893">
        <ele>220</ele>
        <time>2017-07-16T09:22:06Z</time>
      </trkpt>
      <trkpt lat="45.97452" lon="4.79893">
        <ele>220</ele>
        <time>2017-07-16T09:22:07Z</time>
      </trkpt>
      <trkpt lat="45.97461" lon="4.79892">
        <ele>221</ele>
        <time>2017-07-16T09:22:09Z</time>
      </trkpt>
      <trkpt lat="45.97465" lon="4.79891">
        <ele>221</ele>
        <time>2017-07-16T09:22:10Z</time>
      </trkpt>
      <trkpt lat="45.97472" lon="4.79891">
        <ele>221</ele>
        <time>2017-07-16T09:22:12Z</time>
      </trkpt>
      <trkpt lat="45.97476" lon="4.79891">
        <ele>221</ele>
        <time>2017-07-16T09:22:13Z</time>
      </trkpt>
      <trkpt lat="45.97482" lon="4.7989">
        <ele>221</ele>
        <time>2017-07-16T09:22:15Z</time>
      </trkpt>
      <trkpt lat="45.97485" lon="4.7989">
        <ele>221</ele>
        <time>2017-07-16T09:22:16Z</time>
      </trkpt>
      <trkpt lat="45.97492" lon="4.79889">
        <ele>221</ele>
        <time>2017-07-16T09:22:18Z</time>
      </trkpt>
      <trkpt lat="45.97495" lon="4.79889">
        <ele>221</ele>
        <time>2017-07-16T09:22:19Z</time>
      </trkpt>
      <trkpt lat="45.97502" lon="4.79887">
        <ele>221</ele>
        <time>2017-07-16T09:22:21Z</time>
      </trkpt>
      <trkpt lat="45.97506" lon="4.79886">
        <ele>221</ele>
        <time>2017-07-16T09:22:22Z</time>
      </trkpt>
      <trkpt lat="45.97512" lon="4.79885">
        <ele>221</ele>
        <time>2017-07-16T09:22:24Z</time>
      </trkpt>
      <trkpt lat="45.97515" lon="4.79885">
        <ele>221</ele>
        <time>2017-07-16T09:22:25Z</time>
      </trkpt>
      <trkpt lat="45.97521" lon="4.79885">
        <ele>221</ele>
        <time>2017-07-16T09:22:27Z</time>
      </trkpt>
      <trkpt lat="45.97524" lon="4.79885">
        <ele>221</ele>
        <time>2017-07-16T09:22:28Z</time>
      </trkpt>
      <trkpt lat="45.97531" lon="4.79883">
        <ele>222</ele>
        <time>2017-07-16T09:22:30Z</time>
      </trkpt>
      <trkpt lat="45.97535" lon="4.79883">
        <ele>222</ele>
        <time>2017-07-16T09:22:31Z</time>
      </trkpt>
      <trkpt lat="45.97543" lon="4.79882">
        <ele>222</ele>
        <time>2017-07-16T09:22:33Z</time>
      </trkpt>
      <trkpt lat="45.97547" lon="4.79882">
        <ele>221</ele>
        <time>2017-07-16T09:22:34Z</time>
      </trkpt>
      <trkpt lat="45.97555" lon="4.79881">
        <ele>221</ele>
        <time>2017-07-16T09:22:36Z</time>
      </trkpt>
      <trkpt lat="45.97558" lon="4.79881">
        <ele>221</ele>
        <time>2017-07-16T09:22:37Z</time>
      </trkpt>
      <trkpt lat="45.97567" lon="4.79878">
        <ele>221</ele>
        <time>2017-07-16T09:22:40Z</time>
      </trkpt>
      <trkpt lat="45.97571" lon="4.79878">
        <ele>221</ele>
        <time>2017-07-16T09:22:41Z</time>
      </trkpt>
      <trkpt lat="45.97578" lon="4.79875">
        <ele>221</ele>
        <time>2017-07-16T09:22:43Z</time>
      </trkpt>
      <trkpt lat="45.97582" lon="4.79875">
        <ele>221</ele>
        <time>2017-07-16T09:22:44Z</time>
      </trkpt>
      <trkpt lat="45.97588" lon="4.79873">
        <ele>221</ele>
        <time>2017-07-16T09:22:46Z</time>
      </trkpt>
      <trkpt lat="45.97591" lon="4.79872">
        <ele>221</ele>
        <time>2017-07-16T09:22:47Z</time>
      </trkpt>
      <trkpt lat="45.97597" lon="4.7987">
        <ele>221</ele>
        <time>2017-07-16T09:22:49Z</time>
      </trkpt>
      <trkpt lat="45.976" lon="4.79869">
        <ele>221</ele>
        <time>2017-07-16T09:22:50Z</time>
      </trkpt>
      <trkpt lat="45.97606" lon="4.79866">
        <ele>221</ele>
        <time>2017-07-16T09:22:52Z</time>
      </trkpt>
      <trkpt lat="45.97609" lon="4.79865">
        <ele>221</ele>
        <time>2017-07-16T09:22:53Z</time>
      </trkpt>
      <trkpt lat="45.97616" lon="4.79863">
        <ele>221</ele>
        <time>2017-07-16T09:22:55Z</time>
      </trkpt>
      <trkpt lat="45.9762" lon="4.79862">
        <ele>221</ele>
        <time>2017-07-16T09:22:56Z</time>
      </trkpt>
      <trkpt lat="45.97628" lon="4.79859">
        <ele>221</ele>
        <time>2017-07-16T09:22:59Z</time>
      </trkpt>
      <trkpt lat="45.9763" lon="4.79857">
        <ele>221</ele>
        <time>2017-07-16T09:23:00Z</time>
      </trkpt>
      <trkpt lat="45.97636" lon="4.79855">
        <ele>221</ele>
        <time>2017-07-16T09:23:02Z</time>
      </trkpt>
      <trkpt lat="45.97639" lon="4.79853">
        <ele>221</ele>
        <time>2017-07-16T09:23:03Z</time>
      </trkpt>
      <trkpt lat="45.97645" lon="4.79851">
        <ele>221</ele>
        <time>2017-07-16T09:23:05Z</time>
      </trkpt>
      <trkpt lat="45.97648" lon="4.7985">
        <ele>221</ele>
        <time>2017-07-16T09:23:06Z</time>
      </trkpt>
      <trkpt lat="45.97654" lon="4.79848">
        <ele>221</ele>
        <time>2017-07-16T09:23:08Z</time>
      </trkpt>
      <trkpt lat="45.97657" lon="4.79846">
        <ele>221</ele>
        <time>2017-07-16T09:23:09Z</time>
      </trkpt>
      <trkpt lat="45.97663" lon="4.79844">
        <ele>221</ele>
        <time>2017-07-16T09:23:11Z</time>
      </trkpt>
      <trkpt lat="45.97667" lon="4.79844">
        <ele>221</ele>
        <time>2017-07-16T09:23:12Z</time>
      </trkpt>
      <trkpt lat="45.97674" lon="4.79841">
        <ele>221</ele>
        <time>2017-07-16T09:23:14Z</time>
      </trkpt>
      <trkpt lat="45.97677" lon="4.7984">
        <ele>221</ele>
        <time>2017-07-16T09:23:15Z</time>
      </trkpt>
      <trkpt lat="45.97685" lon="4.79837">
        <ele>221</ele>
        <time>2017-07-16T09:23:18Z</time>
      </trkpt>
      <trkpt lat="45.97688" lon="4.79836">
        <ele>221</ele>
        <time>2017-07-16T09:23:19Z</time>
      </trkpt>
      <trkpt lat="45.97694" lon="4.79834">
        <ele>220</ele>
        <time>2017-07-16T09:23:21Z</time>
      </trkpt>
      <trkpt lat="45.97697" lon="4.79834">
        <ele>220</ele>
        <time>2017-07-16T09:23:22Z</time>
      </trkpt>
      <trkpt lat="45.97704" lon="4.79832">
        <ele>223</ele>
        <time>2017-07-16T09:23:24Z</time>
      </trkpt>
      <trkpt lat="45.97708" lon="4.79831">
        <ele>223</ele>
        <time>2017-07-16T09:23:25Z</time>
      </trkpt>
      <trkpt lat="45.97716" lon="4.7983">
        <ele>223</ele>
        <time>2017-07-16T09:23:27Z</time>
      </trkpt>
      <trkpt lat="45.97719" lon="4.7983">
        <ele>223</ele>
        <time>2017-07-16T09:23:28Z</time>
      </trkpt>
      <trkpt lat="45.97726" lon="4.79829">
        <ele>223</ele>
        <time>2017-07-16T09:23:30Z</time>
      </trkpt>
      <trkpt lat="45.9773" lon="4.79828">
        <ele>223</ele>
        <time>2017-07-16T09:23:31Z</time>
      </trkpt>
      <trkpt lat="45.97739" lon="4.79826">
        <ele>223</ele>
        <time>2017-07-16T09:23:33Z</time>
      </trkpt>
      <trkpt lat="45.97743" lon="4.79826">
        <ele>222</ele>
        <time>2017-07-16T09:23:34Z</time>
      </trkpt>
      <trkpt lat="45.97751" lon="4.79825">
        <ele>222</ele>
        <time>2017-07-16T09:23:36Z</time>
      </trkpt>
      <trkpt lat="45.97754" lon="4.79825">
        <ele>222</ele>
        <time>2017-07-16T09:23:37Z</time>
      </trkpt>
      <trkpt lat="45.97762" lon="4.79823">
        <ele>223</ele>
        <time>2017-07-16T09:23:39Z</time>
      </trkpt>
      <trkpt lat="45.97766" lon="4.79822">
        <ele>223</ele>
        <time>2017-07-16T09:23:40Z</time>
      </trkpt>
      <trkpt lat="45.97774" lon="4.7982">
        <ele>223</ele>
        <time>2017-07-16T09:23:42Z</time>
      </trkpt>
      <trkpt lat="45.97778" lon="4.79819">
        <ele>223</ele>
        <time>2017-07-16T09:23:43Z</time>
      </trkpt>
      <trkpt lat="45.97786" lon="4.79818">
        <ele>223</ele>
        <time>2017-07-16T09:23:45Z</time>
      </trkpt>
      <trkpt lat="45.97791" lon="4.79817">
        <ele>223</ele>
        <time>2017-07-16T09:23:46Z</time>
      </trkpt>
      <trkpt lat="45.97795" lon="4.79816">
        <ele>223</ele>
        <time>2017-07-16T09:23:47Z</time>
      </trkpt>
      <trkpt lat="45.978" lon="4.79815">
        <ele>223</ele>
        <time>2017-07-16T09:23:48Z</time>
      </trkpt>
      <trkpt lat="45.97809" lon="4.79813">
        <ele>223</ele>
        <time>2017-07-16T09:23:50Z</time>
      </trkpt>
      <trkpt lat="45.97813" lon="4.79812">
        <ele>223</ele>
        <time>2017-07-16T09:23:51Z</time>
      </trkpt>
      <trkpt lat="45.9782" lon="4.79811">
        <ele>223</ele>
        <time>2017-07-16T09:23:53Z</time>
      </trkpt>
      <trkpt lat="45.97824" lon="4.7981">
        <ele>223</ele>
        <time>2017-07-16T09:23:54Z</time>
      </trkpt>
      <trkpt lat="45.97831" lon="4.79809">
        <ele>223</ele>
        <time>2017-07-16T09:23:56Z</time>
      </trkpt>
      <trkpt lat="45.97835" lon="4.79808">
        <ele>224</ele>
        <time>2017-07-16T09:23:57Z</time>
      </trkpt>
      <trkpt lat="45.97842" lon="4.79807">
        <ele>224</ele>
        <time>2017-07-16T09:23:59Z</time>
      </trkpt>
      <trkpt lat="45.97846" lon="4.79807">
        <ele>224</ele>
        <time>2017-07-16T09:24:00Z</time>
      </trkpt>
      <trkpt lat="45.97855" lon="4.79806">
        <ele>224</ele>
        <time>2017-07-16T09:24:02Z</time>
      </trkpt>
      <trkpt lat="45.97859" lon="4.79805">
        <ele>224</ele>
        <time>2017-07-16T09:24:03Z</time>
      </trkpt>
      <trkpt lat="45.97866" lon="4.79803">
        <ele>224</ele>
        <time>2017-07-16T09:24:05Z</time>
      </trkpt>
      <trkpt lat="45.9787" lon="4.79803">
        <ele>224</ele>
        <time>2017-07-16T09:24:06Z</time>
      </trkpt>
      <trkpt lat="45.97877" lon="4.79802">
        <ele>224</ele>
        <time>2017-07-16T09:24:08Z</time>
      </trkpt>
      <trkpt lat="45.97881" lon="4.79802">
        <ele>224</ele>
        <time>2017-07-16T09:24:09Z</time>
      </trkpt>
      <trkpt lat="45.97888" lon="4.79801">
        <ele>224</ele>
        <time>2017-07-16T09:24:11Z</time>
      </trkpt>
      <trkpt lat="45.97891" lon="4.798">
        <ele>224</ele>
        <time>2017-07-16T09:24:12Z</time>
      </trkpt>
      <trkpt lat="45.97899" lon="4.79799">
        <ele>224</ele>
        <time>2017-07-16T09:24:14Z</time>
      </trkpt>
      <trkpt lat="45.97903" lon="4.79799">
        <ele>224</ele>
        <time>2017-07-16T09:24:15Z</time>
      </trkpt>
      <trkpt lat="45.9791" lon="4.79797">
        <ele>224</ele>
        <time>2017-07-16T09:24:17Z</time>
      </trkpt>
      <trkpt lat="45.97914" lon="4.79797">
        <ele>224</ele>
        <time>2017-07-16T09:24:18Z</time>
      </trkpt>
      <trkpt lat="45.97922" lon="4.79795">
        <ele>224</ele>
        <time>2017-07-16T09:24:20Z</time>
      </trkpt>
      <trkpt lat="45.97926" lon="4.79794">
        <ele>224</ele>
        <time>2017-07-16T09:24:21Z</time>
      </trkpt>
      <trkpt lat="45.97931" lon="4.79793">
        <ele>224</ele>
        <time>2017-07-16T09:24:22Z</time>
      </trkpt>
      <trkpt lat="45.97937" lon="4.79792">
        <ele>224</ele>
        <time>2017-07-16T09:24:23Z</time>
      </trkpt>
      <trkpt lat="45.97942" lon="4.79792">
        <ele>224</ele>
        <time>2017-07-16T09:24:24Z</time>
      </trkpt>
      <trkpt lat="45.97947" lon="4.7979">
        <ele>224</ele>
        <time>2017-07-16T09:24:25Z</time>
      </trkpt>
      <trkpt lat="45.97951" lon="4.79788">
        <ele>224</ele>
        <time>2017-07-16T09:24:26Z</time>
      </trkpt>
      <trkpt lat="45.97956" lon="4.79787">
        <ele>224</ele>
        <time>2017-07-16T09:24:27Z</time>
      </trkpt>
      <trkpt lat="45.97963" lon="4.79786">
        <ele>224</ele>
        <time>2017-07-16T09:24:29Z</time>
      </trkpt>
      <trkpt lat="45.97966" lon="4.79786">
        <ele>224</ele>
        <time>2017-07-16T09:24:30Z</time>
      </trkpt>
      <trkpt lat="45.97974" lon="4.79785">
        <ele>224</ele>
        <time>2017-07-16T09:24:32Z</time>
      </trkpt>
      <trkpt lat="45.97979" lon="4.79785">
        <ele>224</ele>
        <time>2017-07-16T09:24:33Z</time>
      </trkpt>
      <trkpt lat="45.97983" lon="4.79785">
        <ele>224</ele>
        <time>2017-07-16T09:24:34Z</time>
      </trkpt>
      <trkpt lat="45.97988" lon="4.79785">
        <ele>224</ele>
        <time>2017-07-16T09:24:35Z</time>
      </trkpt>
      <trkpt lat="45.97993" lon="4.79784">
        <ele>224</ele>
        <time>2017-07-16T09:24:36Z</time>
      </trkpt>
      <trkpt lat="45.97997" lon="4.79784">
        <ele>224</ele>
        <time>2017-07-16T09:24:37Z</time>
      </trkpt>
      <trkpt lat="45.98002" lon="4.79783">
        <ele>223</ele>
        <time>2017-07-16T09:24:38Z</time>
      </trkpt>
      <trkpt lat="45.98007" lon="4.79782">
        <ele>223</ele>
        <time>2017-07-16T09:24:39Z</time>
      </trkpt>
      <trkpt lat="45.98015" lon="4.79781">
        <ele>223</ele>
        <time>2017-07-16T09:24:41Z</time>
      </trkpt>
      <trkpt lat="45.98019" lon="4.7978">
        <ele>223</ele>
        <time>2017-07-16T09:24:42Z</time>
      </trkpt>
      <trkpt lat="45.98026" lon="4.79779">
        <ele>223</ele>
        <time>2017-07-16T09:24:44Z</time>
      </trkpt>
      <trkpt lat="45.9803" lon="4.79779">
        <ele>223</ele>
        <time>2017-07-16T09:24:45Z</time>
      </trkpt>
      <trkpt lat="45.98038" lon="4.79778">
        <ele>223</ele>
        <time>2017-07-16T09:24:47Z</time>
      </trkpt>
      <trkpt lat="45.98043" lon="4.79778">
        <ele>223</ele>
        <time>2017-07-16T09:24:48Z</time>
      </trkpt>
      <trkpt lat="45.98051" lon="4.79777">
        <ele>223</ele>
        <time>2017-07-16T09:24:50Z</time>
      </trkpt>
      <trkpt lat="45.98055" lon="4.79776">
        <ele>223</ele>
        <time>2017-07-16T09:24:51Z</time>
      </trkpt>
      <trkpt lat="45.98063" lon="4.79774">
        <ele>223</ele>
        <time>2017-07-16T09:24:53Z</time>
      </trkpt>
      <trkpt lat="45.98068" lon="4.79773">
        <ele>223</ele>
        <time>2017-07-16T09:24:54Z</time>
      </trkpt>
      <trkpt lat="45.98076" lon="4.79772">
        <ele>223</ele>
        <time>2017-07-16T09:24:56Z</time>
      </trkpt>
      <trkpt lat="45.9808" lon="4.79772">
        <ele>223</ele>
        <time>2017-07-16T09:24:57Z</time>
      </trkpt>
      <trkpt lat="45.98087" lon="4.79772">
        <ele>223</ele>
        <time>2017-07-16T09:24:59Z</time>
      </trkpt>
      <trkpt lat="45.98091" lon="4.79772">
        <ele>223</ele>
        <time>2017-07-16T09:25:00Z</time>
      </trkpt>
      <trkpt lat="45.98099" lon="4.7977">
        <ele>223</ele>
        <time>2017-07-16T09:25:02Z</time>
      </trkpt>
      <trkpt lat="45.98103" lon="4.79769">
        <ele>224</ele>
        <time>2017-07-16T09:25:03Z</time>
      </trkpt>
      <trkpt lat="45.98111" lon="4.79767">
        <ele>224</ele>
        <time>2017-07-16T09:25:05Z</time>
      </trkpt>
      <trkpt lat="45.98115" lon="4.79767">
        <ele>224</ele>
        <time>2017-07-16T09:25:06Z</time>
      </trkpt>
      <trkpt lat="45.98123" lon="4.79766">
        <ele>224</ele>
        <time>2017-07-16T09:25:08Z</time>
      </trkpt>
      <trkpt lat="45.98128" lon="4.79765">
        <ele>224</ele>
        <time>2017-07-16T09:25:09Z</time>
      </trkpt>
      <trkpt lat="45.98136" lon="4.79763">
        <ele>224</ele>
        <time>2017-07-16T09:25:11Z</time>
      </trkpt>
      <trkpt lat="45.9814" lon="4.79762">
        <ele>224</ele>
        <time>2017-07-16T09:25:12Z</time>
      </trkpt>
      <trkpt lat="45.98148" lon="4.79762">
        <ele>225</ele>
        <time>2017-07-16T09:25:14Z</time>
      </trkpt>
      <trkpt lat="45.98152" lon="4.79762">
        <ele>225</ele>
        <time>2017-07-16T09:25:15Z</time>
      </trkpt>
      <trkpt lat="45.9816" lon="4.79763">
        <ele>225</ele>
        <time>2017-07-16T09:25:17Z</time>
      </trkpt>
      <trkpt lat="45.98164" lon="4.79764">
        <ele>225</ele>
        <time>2017-07-16T09:25:18Z</time>
      </trkpt>
      <trkpt lat="45.98171" lon="4.79769">
        <ele>226</ele>
        <time>2017-07-16T09:25:20Z</time>
      </trkpt>
      <trkpt lat="45.98173" lon="4.79772">
        <ele>226</ele>
        <time>2017-07-16T09:25:21Z</time>
      </trkpt>
      <trkpt lat="45.98179" lon="4.79781">
        <ele>226</ele>
        <time>2017-07-16T09:25:24Z</time>
      </trkpt>
      <trkpt lat="45.9818" lon="4.79784">
        <ele>226</ele>
        <time>2017-07-16T09:25:25Z</time>
      </trkpt>
      <trkpt lat="45.98181" lon="4.79794">
        <ele>226</ele>
        <time>2017-07-16T09:25:28Z</time>
      </trkpt>
      <trkpt lat="45.98183" lon="4.79798">
        <ele>226</ele>
        <time>2017-07-16T09:25:29Z</time>
      </trkpt>
      <trkpt lat="45.98186" lon="4.79806">
        <ele>226</ele>
        <time>2017-07-16T09:25:31Z</time>
      </trkpt>
      <trkpt lat="45.98187" lon="4.7981">
        <ele>225</ele>
        <time>2017-07-16T09:25:32Z</time>
      </trkpt>
      <trkpt lat="45.9819" lon="4.7982">
        <ele>225</ele>
        <time>2017-07-16T09:25:34Z</time>
      </trkpt>
      <trkpt lat="45.98192" lon="4.79826">
        <ele>225</ele>
        <time>2017-07-16T09:25:35Z</time>
      </trkpt>
      <trkpt lat="45.98194" lon="4.79832">
        <ele>225</ele>
        <time>2017-07-16T09:25:36Z</time>
      </trkpt>
      <trkpt lat="45.98196" lon="4.79837">
        <ele>225</ele>
        <time>2017-07-16T09:25:37Z</time>
      </trkpt>
      <trkpt lat="45.98198" lon="4.79844">
        <ele>225</ele>
        <time>2017-07-16T09:25:38Z</time>
      </trkpt>
      <trkpt lat="45.982" lon="4.7985">
        <ele>225</ele>
        <time>2017-07-16T09:25:39Z</time>
      </trkpt>
      <trkpt lat="45.98202" lon="4.79857">
        <ele>225</ele>
        <time>2017-07-16T09:25:40Z</time>
      </trkpt>
      <trkpt lat="45.98204" lon="4.79863">
        <ele>225</ele>
        <time>2017-07-16T09:25:41Z</time>
      </trkpt>
      <trkpt lat="45.98206" lon="4.79869">
        <ele>225</ele>
        <time>2017-07-16T09:25:42Z</time>
      </trkpt>
      <trkpt lat="45.98208" lon="4.79876">
        <ele>225</ele>
        <time>2017-07-16T09:25:43Z</time>
      </trkpt>
      <trkpt lat="45.9821" lon="4.79883">
        <ele>225</ele>
        <time>2017-07-16T09:25:44Z</time>
      </trkpt>
      <trkpt lat="45.98212" lon="4.79889">
        <ele>225</ele>
        <time>2017-07-16T09:25:45Z</time>
      </trkpt>
      <trkpt lat="45.98215" lon="4.79894">
        <ele>225</ele>
        <time>2017-07-16T09:25:46Z</time>
      </trkpt>
      <trkpt lat="45.98217" lon="4.799">
        <ele>225</ele>
        <time>2017-07-16T09:25:47Z</time>
      </trkpt>
      <trkpt lat="45.98221" lon="4.79912">
        <ele>225</ele>
        <time>2017-07-16T09:25:49Z</time>
      </trkpt>
      <trkpt lat="45.98223" lon="4.79917">
        <ele>225</ele>
        <time>2017-07-16T09:25:50Z</time>
      </trkpt>
      <trkpt lat="45.98227" lon="4.79927">
        <ele>225</ele>
        <time>2017-07-16T09:25:52Z</time>
      </trkpt>
      <trkpt lat="45.98229" lon="4.79932">
        <ele>225</ele>
        <time>2017-07-16T09:25:53Z</time>
      </trkpt>
      <trkpt lat="45.98233" lon="4.79942">
        <ele>225</ele>
        <time>2017-07-16T09:25:55Z</time>
      </trkpt>
      <trkpt lat="45.98235" lon="4.79947">
        <ele>225</ele>
        <time>2017-07-16T09:25:56Z</time>
      </trkpt>
      <trkpt lat="45.98238" lon="4.79952">
        <ele>225</ele>
        <time>2017-07-16T09:25:57Z</time>
      </trkpt>
      <trkpt lat="45.9824" lon="4.79958">
        <ele>225</ele>
        <time>2017-07-16T09:25:58Z</time>
      </trkpt>
      <trkpt lat="45.98244" lon="4.79966">
        <ele>225</ele>
        <time>2017-07-16T09:26:00Z</time>
      </trkpt>
      <trkpt lat="45.98246" lon="4.79971">
        <ele>225</ele>
        <time>2017-07-16T09:26:01Z</time>
      </trkpt>
      <trkpt lat="45.9825" lon="4.79982">
        <ele>228</ele>
        <time>2017-07-16T09:26:03Z</time>
      </trkpt>
      <trkpt lat="45.98252" lon="4.79987">
        <ele>227</ele>
        <time>2017-07-16T09:26:04Z</time>
      </trkpt>
      <trkpt lat="45.98255" lon="4.79999">
        <ele>227</ele>
        <time>2017-07-16T09:26:06Z</time>
      </trkpt>
      <trkpt lat="45.98257" lon="4.80004">
        <ele>227</ele>
        <time>2017-07-16T09:26:07Z</time>
      </trkpt>
      <trkpt lat="45.98259" lon="4.80016">
        <ele>228</ele>
        <time>2017-07-16T09:26:09Z</time>
      </trkpt>
      <trkpt lat="45.9826" lon="4.80022">
        <ele>228</ele>
        <time>2017-07-16T09:26:10Z</time>
      </trkpt>
      <trkpt lat="45.9826" lon="4.80029">
        <ele>228</ele>
        <time>2017-07-16T09:26:11Z</time>
      </trkpt>
      <trkpt lat="45.98263" lon="4.80035">
        <ele>228</ele>
        <time>2017-07-16T09:26:12Z</time>
      </trkpt>
      <trkpt lat="45.98266" lon="4.80046">
        <ele>229</ele>
        <time>2017-07-16T09:26:14Z</time>
      </trkpt>
      <trkpt lat="45.98269" lon="4.80051">
        <ele>229</ele>
        <time>2017-07-16T09:26:15Z</time>
      </trkpt>
      <trkpt lat="45.98273" lon="4.80061">
        <ele>229</ele>
        <time>2017-07-16T09:26:17Z</time>
      </trkpt>
      <trkpt lat="45.98274" lon="4.80066">
        <ele>229</ele>
        <time>2017-07-16T09:26:18Z</time>
      </trkpt>
      <trkpt lat="45.98278" lon="4.80077">
        <ele>229</ele>
        <time>2017-07-16T09:26:20Z</time>
      </trkpt>
      <trkpt lat="45.98279" lon="4.80083">
        <ele>229</ele>
        <time>2017-07-16T09:26:21Z</time>
      </trkpt>
      <trkpt lat="45.98283" lon="4.80093">
        <ele>228</ele>
        <time>2017-07-16T09:26:23Z</time>
      </trkpt>
      <trkpt lat="45.98285" lon="4.80098">
        <ele>228</ele>
        <time>2017-07-16T09:26:24Z</time>
      </trkpt>
      <trkpt lat="45.98288" lon="4.80109">
        <ele>228</ele>
        <time>2017-07-16T09:26:26Z</time>
      </trkpt>
      <trkpt lat="45.98291" lon="4.80116">
        <ele>228</ele>
        <time>2017-07-16T09:26:27Z</time>
      </trkpt>
      <trkpt lat="45.98293" lon="4.80122">
        <ele>228</ele>
        <time>2017-07-16T09:26:28Z</time>
      </trkpt>
      <trkpt lat="45.98297" lon="4.80127">
        <ele>228</ele>
        <time>2017-07-16T09:26:29Z</time>
      </trkpt>
      <trkpt lat="45.98299" lon="4.80133">
        <ele>228</ele>
        <time>2017-07-16T09:26:30Z</time>
      </trkpt>
      <trkpt lat="45.98301" lon="4.8014">
        <ele>228</ele>
        <time>2017-07-16T09:26:31Z</time>
      </trkpt>
      <trkpt lat="45.98303" lon="4.80146">
        <ele>228</ele>
        <time>2017-07-16T09:26:32Z</time>
      </trkpt>
      <trkpt lat="45.98306" lon="4.80151">
        <ele>228</ele>
        <time>2017-07-16T09:26:33Z</time>
      </trkpt>
      <trkpt lat="45.98309" lon="4.80156">
        <ele>228</ele>
        <time>2017-07-16T09:26:34Z</time>
      </trkpt>
      <trkpt lat="45.98312" lon="4.80162">
        <ele>228</ele>
        <time>2017-07-16T09:26:35Z</time>
      </trkpt>
      <trkpt lat="45.98313" lon="4.80168">
        <ele>227</ele>
        <time>2017-07-16T09:26:36Z</time>
      </trkpt>
      <trkpt lat="45.98315" lon="4.80174">
        <ele>227</ele>
        <time>2017-07-16T09:26:37Z</time>
      </trkpt>
      <trkpt lat="45.98317" lon="4.8018">
        <ele>227</ele>
        <time>2017-07-16T09:26:38Z</time>
      </trkpt>
      <trkpt lat="45.98319" lon="4.80186">
        <ele>227</ele>
        <time>2017-07-16T09:26:39Z</time>
      </trkpt>
      <trkpt lat="45.98324" lon="4.80197">
        <ele>227</ele>
        <time>2017-07-16T09:26:41Z</time>
      </trkpt>
      <trkpt lat="45.98325" lon="4.80202">
        <ele>227</ele>
        <time>2017-07-16T09:26:42Z</time>
      </trkpt>
      <trkpt lat="45.98327" lon="4.80212">
        <ele>227</ele>
        <time>2017-07-16T09:26:44Z</time>
      </trkpt>
      <trkpt lat="45.98328" lon="4.80217">
        <ele>227</ele>
        <time>2017-07-16T09:26:45Z</time>
      </trkpt>
      <trkpt lat="45.98329" lon="4.80227">
        <ele>228</ele>
        <time>2017-07-16T09:26:47Z</time>
      </trkpt>
      <trkpt lat="45.98328" lon="4.80233">
        <ele>228</ele>
        <time>2017-07-16T09:26:48Z</time>
      </trkpt>
      <trkpt lat="45.98325" lon="4.80244">
        <ele>229</ele>
        <time>2017-07-16T09:26:50Z</time>
      </trkpt>
      <trkpt lat="45.98324" lon="4.80249">
        <ele>229</ele>
        <time>2017-07-16T09:26:51Z</time>
      </trkpt>
      <trkpt lat="45.98321" lon="4.80261">
        <ele>228</ele>
        <time>2017-07-16T09:26:53Z</time>
      </trkpt>
      <trkpt lat="45.98319" lon="4.80268">
        <ele>227</ele>
        <time>2017-07-16T09:26:54Z</time>
      </trkpt>
      <trkpt lat="45.98318" lon="4.80274">
        <ele>227</ele>
        <time>2017-07-16T09:26:55Z</time>
      </trkpt>
      <trkpt lat="45.98316" lon="4.80281">
        <ele>226</ele>
        <time>2017-07-16T09:26:56Z</time>
      </trkpt>
      <trkpt lat="45.98314" lon="4.80288">
        <ele>226</ele>
        <time>2017-07-16T09:26:57Z</time>
      </trkpt>
      <trkpt lat="45.98313" lon="4.80295">
        <ele>226</ele>
        <time>2017-07-16T09:26:58Z</time>
      </trkpt>
      <trkpt lat="45.98312" lon="4.80303">
        <ele>226</ele>
        <time>2017-07-16T09:26:59Z</time>
      </trkpt>
      <trkpt lat="45.9831" lon="4.80311">
        <ele>226</ele>
        <time>2017-07-16T09:27:00Z</time>
      </trkpt>
      <trkpt lat="45.98308" lon="4.80319">
        <ele>226</ele>
        <time>2017-07-16T09:27:01Z</time>
      </trkpt>
      <trkpt lat="45.98306" lon="4.80327">
        <ele>226</ele>
        <time>2017-07-16T09:27:02Z</time>
      </trkpt>
      <trkpt lat="45.98303" lon="4.80336">
        <ele>225</ele>
        <time>2017-07-16T09:27:03Z</time>
      </trkpt>
      <trkpt lat="45.98301" lon="4.80344">
        <ele>225</ele>
        <time>2017-07-16T09:27:04Z</time>
      </trkpt>
      <trkpt lat="45.98298" lon="4.80352">
        <ele>225</ele>
        <time>2017-07-16T09:27:05Z</time>
      </trkpt>
      <trkpt lat="45.98296" lon="4.80361">
        <ele>225</ele>
        <time>2017-07-16T09:27:06Z</time>
      </trkpt>
      <trkpt lat="45.98294" lon="4.8037">
        <ele>224</ele>
        <time>2017-07-16T09:27:07Z</time>
      </trkpt>
      <trkpt lat="45.98293" lon="4.80379">
        <ele>224</ele>
        <time>2017-07-16T09:27:08Z</time>
      </trkpt>
      <trkpt lat="45.98291" lon="4.80389">
        <ele>224</ele>
        <time>2017-07-16T09:27:09Z</time>
      </trkpt>
      <trkpt lat="45.98289" lon="4.80398">
        <ele>224</ele>
        <time>2017-07-16T09:27:10Z</time>
      </trkpt>
      <trkpt lat="45.98287" lon="4.80407">
        <ele>224</ele>
        <time>2017-07-16T09:27:11Z</time>
      </trkpt>
      <trkpt lat="45.98284" lon="4.80417">
        <ele>224</ele>
        <time>2017-07-16T09:27:12Z</time>
      </trkpt>
      <trkpt lat="45.98282" lon="4.80426">
        <ele>223</ele>
        <time>2017-07-16T09:27:13Z</time>
      </trkpt>
      <trkpt lat="45.9828" lon="4.80435">
        <ele>223</ele>
        <time>2017-07-16T09:27:14Z</time>
      </trkpt>
      <trkpt lat="45.98278" lon="4.80444">
        <ele>223</ele>
        <time>2017-07-16T09:27:15Z</time>
      </trkpt>
      <trkpt lat="45.98277" lon="4.80453">
        <ele>223</ele>
        <time>2017-07-16T09:27:16Z</time>
      </trkpt>
      <trkpt lat="45.98275" lon="4.80461">
        <ele>223</ele>
        <time>2017-07-16T09:27:17Z</time>
      </trkpt>
      <trkpt lat="45.98273" lon="4.80469">
        <ele>223</ele>
        <time>2017-07-16T09:27:18Z</time>
      </trkpt>
      <trkpt lat="45.98271" lon="4.80479">
        <ele>223</ele>
        <time>2017-07-16T09:27:19Z</time>
      </trkpt>
      <trkpt lat="45.98269" lon="4.80488">
        <ele>223</ele>
        <time>2017-07-16T09:27:20Z</time>
      </trkpt>
      <trkpt lat="45.98267" lon="4.80496">
        <ele>223</ele>
        <time>2017-07-16T09:27:21Z</time>
      </trkpt>
      <trkpt lat="45.98265" lon="4.80503">
        <ele>223</ele>
        <time>2017-07-16T09:27:22Z</time>
      </trkpt>
      <trkpt lat="45.98263" lon="4.80511">
        <ele>223</ele>
        <time>2017-07-16T09:27:23Z</time>
      </trkpt>
      <trkpt lat="45.98261" lon="4.80518">
        <ele>223</ele>
        <time>2017-07-16T09:27:24Z</time>
      </trkpt>
      <trkpt lat="45.98259" lon="4.80524">
        <ele>223</ele>
        <time>2017-07-16T09:27:25Z</time>
      </trkpt>
      <trkpt lat="45.98258" lon="4.8053">
        <ele>224</ele>
        <time>2017-07-16T09:27:26Z</time>
      </trkpt>
      <trkpt lat="45.98256" lon="4.80536">
        <ele>224</ele>
        <time>2017-07-16T09:27:27Z</time>
      </trkpt>
      <trkpt lat="45.98254" lon="4.80543">
        <ele>224</ele>
        <time>2017-07-16T09:27:28Z</time>
      </trkpt>
      <trkpt lat="45.9825" lon="4.80549">
        <ele>224</ele>
        <time>2017-07-16T09:27:29Z</time>
      </trkpt>
      <trkpt lat="45.98248" lon="4.80556">
        <ele>223</ele>
        <time>2017-07-16T09:27:30Z</time>
      </trkpt>
      <trkpt lat="45.98245" lon="4.80567">
        <ele>223</ele>
        <time>2017-07-16T09:27:32Z</time>
      </trkpt>
      <trkpt lat="45.98243" lon="4.80573">
        <ele>224</ele>
        <time>2017-07-16T09:27:33Z</time>
      </trkpt>
      <trkpt lat="45.98242" lon="4.8058">
        <ele>224</ele>
        <time>2017-07-16T09:27:34Z</time>
      </trkpt>
      <trkpt lat="45.98239" lon="4.80585">
        <ele>224</ele>
        <time>2017-07-16T09:27:35Z</time>
      </trkpt>
      <trkpt lat="45.98236" lon="4.80597">
        <ele>224</ele>
        <time>2017-07-16T09:27:37Z</time>
      </trkpt>
      <trkpt lat="45.98235" lon="4.80604">
        <ele>224</ele>
        <time>2017-07-16T09:27:38Z</time>
      </trkpt>
      <trkpt lat="45.98233" lon="4.80611">
        <ele>224</ele>
        <time>2017-07-16T09:27:39Z</time>
      </trkpt>
      <trkpt lat="45.98231" lon="4.80617">
        <ele>224</ele>
        <time>2017-07-16T09:27:40Z</time>
      </trkpt>
      <trkpt lat="45.9823" lon="4.80624">
        <ele>224</ele>
        <time>2017-07-16T09:27:41Z</time>
      </trkpt>
      <trkpt lat="45.98229" lon="4.80631">
        <ele>224</ele>
        <time>2017-07-16T09:27:42Z</time>
      </trkpt>
      <trkpt lat="45.98227" lon="4.80637">
        <ele>224</ele>
        <time>2017-07-16T09:27:43Z</time>
      </trkpt>
      <trkpt lat="45.98225" lon="4.80643">
        <ele>224</ele>
        <time>2017-07-16T09:27:44Z</time>
      </trkpt>
      <trkpt lat="45.98221" lon="4.80652">
        <ele>224</ele>
        <time>2017-07-16T09:27:46Z</time>
      </trkpt>
      <trkpt lat="45.9822" lon="4.80657">
        <ele>224</ele>
        <time>2017-07-16T09:27:47Z</time>
      </trkpt>
      <trkpt lat="45.98216" lon="4.80664">
        <ele>224</ele>
        <time>2017-07-16T09:27:49Z</time>
      </trkpt>
      <trkpt lat="45.98213" lon="4.80667">
        <ele>224</ele>
        <time>2017-07-16T09:27:50Z</time>
      </trkpt>
      <trkpt lat="45.98207" lon="4.80672">
        <ele>224</ele>
        <time>2017-07-16T09:27:52Z</time>
      </trkpt>
      <trkpt lat="45.98203" lon="4.80674">
        <ele>225</ele>
        <time>2017-07-16T09:27:53Z</time>
      </trkpt>
      <trkpt lat="45.98196" lon="4.80678">
        <ele>225</ele>
        <time>2017-07-16T09:27:55Z</time>
      </trkpt>
      <trkpt lat="45.98191" lon="4.8068">
        <ele>225</ele>
        <time>2017-07-16T09:27:56Z</time>
      </trkpt>
      <trkpt lat="45.98184" lon="4.80683">
        <ele>225</ele>
        <time>2017-07-16T09:27:58Z</time>
      </trkpt>
      <trkpt lat="45.98179" lon="4.80684">
        <ele>225</ele>
        <time>2017-07-16T09:27:59Z</time>
      </trkpt>
      <trkpt lat="45.98174" lon="4.80683">
        <ele>225</ele>
        <time>2017-07-16T09:28:00Z</time>
      </trkpt>
      <trkpt lat="45.98169" lon="4.80684">
        <ele>225</ele>
        <time>2017-07-16T09:28:01Z</time>
      </trkpt>
      <trkpt lat="45.98164" lon="4.80684">
        <ele>227</ele>
        <time>2017-07-16T09:28:02Z</time>
      </trkpt>
      <trkpt lat="45.9816" lon="4.80684">
        <ele>227</ele>
        <time>2017-07-16T09:28:03Z</time>
      </trkpt>
      <trkpt lat="45.98155" lon="4.80685">
        <ele>227</ele>
        <time>2017-07-16T09:28:04Z</time>
      </trkpt>
      <trkpt lat="45.98151" lon="4.80686">
        <ele>227</ele>
        <time>2017-07-16T09:28:05Z</time>
      </trkpt>
      <trkpt lat="45.98143" lon="4.80688">
        <ele>228</ele>
        <time>2017-07-16T09:28:07Z</time>
      </trkpt>
      <trkpt lat="45.98139" lon="4.80688">
        <ele>228</ele>
        <time>2017-07-16T09:28:08Z</time>
      </trkpt>
      <trkpt lat="45.98131" lon="4.80689">
        <ele>228</ele>
        <time>2017-07-16T09:28:10Z</time>
      </trkpt>
      <trkpt lat="45.98127" lon="4.80689">
        <ele>228</ele>
        <time>2017-07-16T09:28:11Z</time>
      </trkpt>
      <trkpt lat="45.98119" lon="4.8069">
        <ele>228</ele>
        <time>2017-07-16T09:28:13Z</time>
      </trkpt>
      <trkpt lat="45.98115" lon="4.80689">
        <ele>228</ele>
        <time>2017-07-16T09:28:14Z</time>
      </trkpt>
      <trkpt lat="45.98108" lon="4.80689">
        <ele>228</ele>
        <time>2017-07-16T09:28:16Z</time>
      </trkpt>
      <trkpt lat="45.98105" lon="4.80689">
        <ele>228</ele>
        <time>2017-07-16T09:28:17Z</time>
      </trkpt>
      <trkpt lat="45.98097" lon="4.80689">
        <ele>228</ele>
        <time>2017-07-16T09:28:19Z</time>
      </trkpt>
      <trkpt lat="45.98093" lon="4.80689">
        <ele>228</ele>
        <time>2017-07-16T09:28:20Z</time>
      </trkpt>
      <trkpt lat="45.98089" lon="4.8069">
        <ele>228</ele>
        <time>2017-07-16T09:28:21Z</time>
      </trkpt>
      <trkpt lat="45.98084" lon="4.8069">
        <ele>228</ele>
        <time>2017-07-16T09:28:22Z</time>
      </trkpt>
      <trkpt lat="45.98077" lon="4.8069">
        <ele>230</ele>
        <time>2017-07-16T09:28:24Z</time>
      </trkpt>
      <trkpt lat="45.98073" lon="4.8069">
        <ele>230</ele>
        <time>2017-07-16T09:28:25Z</time>
      </trkpt>
      <trkpt lat="45.98065" lon="4.8069">
        <ele>230</ele>
        <time>2017-07-16T09:28:27Z</time>
      </trkpt>
      <trkpt lat="45.98061" lon="4.8069">
        <ele>230</ele>
        <time>2017-07-16T09:28:28Z</time>
      </trkpt>
      <trkpt lat="45.98054" lon="4.80692">
        <ele>230</ele>
        <time>2017-07-16T09:28:30Z</time>
      </trkpt>
      <trkpt lat="45.98049" lon="4.80694">
        <ele>230</ele>
        <time>2017-07-16T09:28:31Z</time>
      </trkpt>
      <trkpt lat="45.98043" lon="4.80696">
        <ele>230</ele>
        <time>2017-07-16T09:28:33Z</time>
      </trkpt>
      <trkpt lat="45.9804" lon="4.80697">
        <ele>230</ele>
        <time>2017-07-16T09:28:34Z</time>
      </trkpt>
      <trkpt lat="45.98034" lon="4.80704">
        <ele>231</ele>
        <time>2017-07-16T09:28:37Z</time>
      </trkpt>
      <trkpt lat="45.98033" lon="4.80707">
        <ele>231</ele>
        <time>2017-07-16T09:28:38Z</time>
      </trkpt>
      <trkpt lat="45.98032" lon="4.80719">
        <ele>231</ele>
        <time>2017-07-16T09:28:41Z</time>
      </trkpt>
      <trkpt lat="45.98032" lon="4.80723">
        <ele>231</ele>
        <time>2017-07-16T09:28:42Z</time>
      </trkpt>
      <trkpt lat="45.98033" lon="4.80734">
        <ele>231</ele>
        <time>2017-07-16T09:28:45Z</time>
      </trkpt>
      <trkpt lat="45.98033" lon="4.80738">
        <ele>231</ele>
        <time>2017-07-16T09:28:46Z</time>
      </trkpt>
      <trkpt lat="45.98036" lon="4.80747">
        <ele>231</ele>
        <time>2017-07-16T09:28:49Z</time>
      </trkpt>
      <trkpt lat="45.98037" lon="4.8075">
        <ele>233</ele>
        <time>2017-07-16T09:28:50Z</time>
      </trkpt>
      <trkpt lat="45.98041" lon="4.8076">
        <ele>233</ele>
        <time>2017-07-16T09:28:54Z</time>
      </trkpt>
      <trkpt lat="45.98041" lon="4.80764">
        <ele>233</ele>
        <time>2017-07-16T09:28:55Z</time>
      </trkpt>
      <trkpt lat="45.98045" lon="4.80774">
        <ele>233</ele>
        <time>2017-07-16T09:28:58Z</time>
      </trkpt>
      <trkpt lat="45.98045" lon="4.80778">
        <ele>233</ele>
        <time>2017-07-16T09:28:59Z</time>
      </trkpt>
      <trkpt lat="45.98049" lon="4.80789">
        <ele>233</ele>
        <time>2017-07-16T09:29:02Z</time>
      </trkpt>
      <trkpt lat="45.9805" lon="4.80793">
        <ele>233</ele>
        <time>2017-07-16T09:29:03Z</time>
      </trkpt>
      <trkpt lat="45.98052" lon="4.80803">
        <ele>234</ele>
        <time>2017-07-16T09:29:06Z</time>
      </trkpt>
      <trkpt lat="45.98053" lon="4.80806">
        <ele>234</ele>
        <time>2017-07-16T09:29:07Z</time>
      </trkpt>
      <trkpt lat="45.98055" lon="4.80816">
        <ele>234</ele>
        <time>2017-07-16T09:29:10Z</time>
      </trkpt>
      <trkpt lat="45.98056" lon="4.80819">
        <ele>234</ele>
        <time>2017-07-16T09:29:11Z</time>
      </trkpt>
      <trkpt lat="45.98058" lon="4.80829">
        <ele>234</ele>
        <time>2017-07-16T09:29:14Z</time>
      </trkpt>
      <trkpt lat="45.98058" lon="4.80833">
        <ele>234</ele>
        <time>2017-07-16T09:29:15Z</time>
      </trkpt>
      <trkpt lat="45.98059" lon="4.80845">
        <ele>236</ele>
        <time>2017-07-16T09:29:18Z</time>
      </trkpt>
      <trkpt lat="45.98059" lon="4.80849">
        <ele>236</ele>
        <time>2017-07-16T09:29:19Z</time>
      </trkpt>
      <trkpt lat="45.98061" lon="4.8086">
        <ele>237</ele>
        <time>2017-07-16T09:29:22Z</time>
      </trkpt>
      <trkpt lat="45.98062" lon="4.80863">
        <ele>237</ele>
        <time>2017-07-16T09:29:23Z</time>
      </trkpt>
      <trkpt lat="45.98065" lon="4.80873">
        <ele>237</ele>
        <time>2017-07-16T09:29:26Z</time>
      </trkpt>
      <trkpt lat="45.98066" lon="4.80877">
        <ele>237</ele>
        <time>2017-07-16T09:29:27Z</time>
      </trkpt>
      <trkpt lat="45.98069" lon="4.80887">
        <ele>237</ele>
        <time>2017-07-16T09:29:30Z</time>
      </trkpt>
      <trkpt lat="45.98069" lon="4.8089">
        <ele>238</ele>
        <time>2017-07-16T09:29:31Z</time>
      </trkpt>
      <trkpt lat="45.98073" lon="4.80901">
        <ele>238</ele>
        <time>2017-07-16T09:29:34Z</time>
      </trkpt>
      <trkpt lat="45.98074" lon="4.80904">
        <ele>238</ele>
        <time>2017-07-16T09:29:35Z</time>
      </trkpt>
      <trkpt lat="45.98078" lon="4.80914">
        <ele>239</ele>
        <time>2017-07-16T09:29:38Z</time>
      </trkpt>
      <trkpt lat="45.98079" lon="4.80917">
        <ele>239</ele>
        <time>2017-07-16T09:29:39Z</time>
      </trkpt>
      <trkpt lat="45.98083" lon="4.80926">
        <ele>240</ele>
        <time>2017-07-16T09:29:42Z</time>
      </trkpt>
      <trkpt lat="45.98084" lon="4.8093">
        <ele>238</ele>
        <time>2017-07-16T09:29:43Z</time>
      </trkpt>
      <trkpt lat="45.98084" lon="4.80941">
        <ele>238</ele>
        <time>2017-07-16T09:29:46Z</time>
      </trkpt>
      <trkpt lat="45.98084" lon="4.80945">
        <ele>238</ele>
        <time>2017-07-16T09:29:47Z</time>
      </trkpt>
      <trkpt lat="45.98088" lon="4.80955">
        <ele>238</ele>
        <time>2017-07-16T09:29:50Z</time>
      </trkpt>
      <trkpt lat="45.98089" lon="4.80957">
        <ele>239</ele>
        <time>2017-07-16T09:29:51Z</time>
      </trkpt>
      <trkpt lat="45.9809" lon="4.80967">
        <ele>239</ele>
        <time>2017-07-16T09:29:54Z</time>
      </trkpt>
      <trkpt lat="45.9809" lon="4.8097">
        <ele>239</ele>
        <time>2017-07-16T09:29:55Z</time>
      </trkpt>
      <trkpt lat="45.98093" lon="4.80981">
        <ele>240</ele>
        <time>2017-07-16T09:29:58Z</time>
      </trkpt>
      <trkpt lat="45.98094" lon="4.80984">
        <ele>240</ele>
        <time>2017-07-16T09:29:59Z</time>
      </trkpt>
      <trkpt lat="45.98098" lon="4.80994">
        <ele>240</ele>
        <time>2017-07-16T09:30:02Z</time>
      </trkpt>
      <trkpt lat="45.98099" lon="4.80998">
        <ele>240</ele>
        <time>2017-07-16T09:30:03Z</time>
      </trkpt>
      <trkpt lat="45.98099" lon="4.81006">
        <ele>242</ele>
        <time>2017-07-16T09:30:05Z</time>
      </trkpt>
      <trkpt lat="45.98101" lon="4.81011">
        <ele>242</ele>
        <time>2017-07-16T09:30:06Z</time>
      </trkpt>
      <trkpt lat="45.98106" lon="4.81019">
        <ele>242</ele>
        <time>2017-07-16T09:30:08Z</time>
      </trkpt>
      <trkpt lat="45.98108" lon="4.81023">
        <ele>242</ele>
        <time>2017-07-16T09:30:09Z</time>
      </trkpt>
      <trkpt lat="45.98112" lon="4.8103">
        <ele>242</ele>
        <time>2017-07-16T09:30:11Z</time>
      </trkpt>
      <trkpt lat="45.98113" lon="4.81034">
        <ele>242</ele>
        <time>2017-07-16T09:30:12Z</time>
      </trkpt>
      <trkpt lat="45.98115" lon="4.81043">
        <ele>242</ele>
        <time>2017-07-16T09:30:14Z</time>
      </trkpt>
      <trkpt lat="45.98116" lon="4.81047">
        <ele>243</ele>
        <time>2017-07-16T09:30:15Z</time>
      </trkpt>
      <trkpt lat="45.98119" lon="4.81055">
        <ele>243</ele>
        <time>2017-07-16T09:30:17Z</time>
      </trkpt>
      <trkpt lat="45.9812" lon="4.81059">
        <ele>243</ele>
        <time>2017-07-16T09:30:18Z</time>
      </trkpt>
      <trkpt lat="45.98123" lon="4.81068">
        <ele>243</ele>
        <time>2017-07-16T09:30:21Z</time>
      </trkpt>
      <trkpt lat="45.98125" lon="4.81071">
        <ele>243</ele>
        <time>2017-07-16T09:30:22Z</time>
      </trkpt>
      <trkpt lat="45.9813" lon="4.81081">
        <ele>243</ele>
        <time>2017-07-16T09:30:25Z</time>
      </trkpt>
      <trkpt lat="45.98132" lon="4.81085">
        <ele>245</ele>
        <time>2017-07-16T09:30:26Z</time>
      </trkpt>
      <trkpt lat="45.98137" lon="4.81093">
        <ele>245</ele>
        <time>2017-07-16T09:30:28Z</time>
      </trkpt>
      <trkpt lat="45.98138" lon="4.81097">
        <ele>245</ele>
        <time>2017-07-16T09:30:29Z</time>
      </trkpt>
      <trkpt lat="45.98141" lon="4.81106">
        <ele>245</ele>
        <time>2017-07-16T09:30:31Z</time>
      </trkpt>
      <trkpt lat="45.98143" lon="4.81111">
        <ele>245</ele>
        <time>2017-07-16T09:30:32Z</time>
      </trkpt>
      <trkpt lat="45.98147" lon="4.8112">
        <ele>245</ele>
        <time>2017-07-16T09:30:34Z</time>
      </trkpt>
      <trkpt lat="45.98149" lon="4.81124">
        <ele>245</ele>
        <time>2017-07-16T09:30:35Z</time>
      </trkpt>
      <trkpt lat="45.98152" lon="4.81132">
        <ele>245</ele>
        <time>2017-07-16T09:30:37Z</time>
      </trkpt>
      <trkpt lat="45.98154" lon="4.81137">
        <ele>245</ele>
        <time>2017-07-16T09:30:38Z</time>
      </trkpt>
      <trkpt lat="45.98158" lon="4.81145">
        <ele>245</ele>
        <time>2017-07-16T09:30:40Z</time>
      </trkpt>
      <trkpt lat="45.9816" lon="4.81149">
        <ele>245</ele>
        <time>2017-07-16T09:30:41Z</time>
      </trkpt>
      <trkpt lat="45.98162" lon="4.81158">
        <ele>245</ele>
        <time>2017-07-16T09:30:43Z</time>
      </trkpt>
      <trkpt lat="45.98164" lon="4.81163">
        <ele>245</ele>
        <time>2017-07-16T09:30:44Z</time>
      </trkpt>
      <trkpt lat="45.98167" lon="4.81173">
        <ele>245</ele>
        <time>2017-07-16T09:30:46Z</time>
      </trkpt>
      <trkpt lat="45.98168" lon="4.81178">
        <ele>245</ele>
        <time>2017-07-16T09:30:47Z</time>
      </trkpt>
      <trkpt lat="45.9817" lon="4.81187">
        <ele>245</ele>
        <time>2017-07-16T09:30:49Z</time>
      </trkpt>
      <trkpt lat="45.9817" lon="4.81192">
        <ele>245</ele>
        <time>2017-07-16T09:30:50Z</time>
      </trkpt>
      <trkpt lat="45.98172" lon="4.81201">
        <ele>245</ele>
        <time>2017-07-16T09:30:52Z</time>
      </trkpt>
      <trkpt lat="45.98173" lon="4.81205">
        <ele>245</ele>
        <time>2017-07-16T09:30:53Z</time>
      </trkpt>
      <trkpt lat="45.98173" lon="4.81216">
        <ele>246</ele>
        <time>2017-07-16T09:30:55Z</time>
      </trkpt>
      <trkpt lat="45.98173" lon="4.81221">
        <ele>246</ele>
        <time>2017-07-16T09:30:56Z</time>
      </trkpt>
      <trkpt lat="45.98174" lon="4.81231">
        <ele>246</ele>
        <time>2017-07-16T09:30:58Z</time>
      </trkpt>
      <trkpt lat="45.98175" lon="4.81237">
        <ele>247</ele>
        <time>2017-07-16T09:30:59Z</time>
      </trkpt>
      <trkpt lat="45.98178" lon="4.81247">
        <ele>247</ele>
        <time>2017-07-16T09:31:01Z</time>
      </trkpt>
      <trkpt lat="45.98179" lon="4.81251">
        <ele>247</ele>
        <time>2017-07-16T09:31:02Z</time>
      </trkpt>
      <trkpt lat="45.98182" lon="4.81263">
        <ele>247</ele>
        <time>2017-07-16T09:31:05Z</time>
      </trkpt>
      <trkpt lat="45.98183" lon="4.81268">
        <ele>247</ele>
        <time>2017-07-16T09:31:06Z</time>
      </trkpt>
      <trkpt lat="45.98182" lon="4.81278">
        <ele>247</ele>
        <time>2017-07-16T09:31:08Z</time>
      </trkpt>
      <trkpt lat="45.98183" lon="4.81283">
        <ele>247</ele>
        <time>2017-07-16T09:31:09Z</time>
      </trkpt>
      <trkpt lat="45.98185" lon="4.81293">
        <ele>247</ele>
        <time>2017-07-16T09:31:11Z</time>
      </trkpt>
      <trkpt lat="45.98186" lon="4.81298">
        <ele>247</ele>
        <time>2017-07-16T09:31:12Z</time>
      </trkpt>
      <trkpt lat="45.98189" lon="4.81307">
        <ele>247</ele>
        <time>2017-07-16T09:31:14Z</time>
      </trkpt>
      <trkpt lat="45.98191" lon="4.81312">
        <ele>247</ele>
        <time>2017-07-16T09:31:15Z</time>
      </trkpt>
      <trkpt lat="45.98193" lon="4.81321">
        <ele>247</ele>
        <time>2017-07-16T09:31:17Z</time>
      </trkpt>
      <trkpt lat="45.98193" lon="4.81326">
        <ele>247</ele>
        <time>2017-07-16T09:31:18Z</time>
      </trkpt>
      <trkpt lat="45.98193" lon="4.81337">
        <ele>248</ele>
        <time>2017-07-16T09:31:20Z</time>
      </trkpt>
      <trkpt lat="45.98194" lon="4.81341">
        <ele>248</ele>
        <time>2017-07-16T09:31:21Z</time>
      </trkpt>
      <trkpt lat="45.98196" lon="4.81351">
        <ele>248</ele>
        <time>2017-07-16T09:31:23Z</time>
      </trkpt>
      <trkpt lat="45.98197" lon="4.81356">
        <ele>248</ele>
        <time>2017-07-16T09:31:24Z</time>
      </trkpt>
      <trkpt lat="45.98199" lon="4.81366">
        <ele>248</ele>
        <time>2017-07-16T09:31:26Z</time>
      </trkpt>
      <trkpt lat="45.98199" lon="4.81371">
        <ele>248</ele>
        <time>2017-07-16T09:31:27Z</time>
      </trkpt>
      <trkpt lat="45.982" lon="4.8138">
        <ele>248</ele>
        <time>2017-07-16T09:31:29Z</time>
      </trkpt>
      <trkpt lat="45.982" lon="4.81385">
        <ele>248</ele>
        <time>2017-07-16T09:31:30Z</time>
      </trkpt>
      <trkpt lat="45.98203" lon="4.81394">
        <ele>248</ele>
        <time>2017-07-16T09:31:32Z</time>
      </trkpt>
      <trkpt lat="45.98205" lon="4.81399">
        <ele>248</ele>
        <time>2017-07-16T09:31:33Z</time>
      </trkpt>
      <trkpt lat="45.98207" lon="4.81407">
        <ele>248</ele>
        <time>2017-07-16T09:31:35Z</time>
      </trkpt>
      <trkpt lat="45.98209" lon="4.81412">
        <ele>248</ele>
        <time>2017-07-16T09:31:36Z</time>
      </trkpt>
      <trkpt lat="45.98211" lon="4.81421">
        <ele>249</ele>
        <time>2017-07-16T09:31:38Z</time>
      </trkpt>
      <trkpt lat="45.98213" lon="4.81426">
        <ele>249</ele>
        <time>2017-07-16T09:31:39Z</time>
      </trkpt>
      <trkpt lat="45.98217" lon="4.81435">
        <ele>249</ele>
        <time>2017-07-16T09:31:41Z</time>
      </trkpt>
      <trkpt lat="45.98218" lon="4.81439">
        <ele>249</ele>
        <time>2017-07-16T09:31:42Z</time>
      </trkpt>
      <trkpt lat="45.98221" lon="4.81447">
        <ele>249</ele>
        <time>2017-07-16T09:31:44Z</time>
      </trkpt>
      <trkpt lat="45.98223" lon="4.81451">
        <ele>249</ele>
        <time>2017-07-16T09:31:45Z</time>
      </trkpt>
      <trkpt lat="45.98226" lon="4.81463">
        <ele>249</ele>
        <time>2017-07-16T09:31:48Z</time>
      </trkpt>
      <trkpt lat="45.98227" lon="4.81467">
        <ele>249</ele>
        <time>2017-07-16T09:31:49Z</time>
      </trkpt>
      <trkpt lat="45.9823" lon="4.81475">
        <ele>249</ele>
        <time>2017-07-16T09:31:51Z</time>
      </trkpt>
      <trkpt lat="45.98231" lon="4.81479">
        <ele>249</ele>
        <time>2017-07-16T09:31:52Z</time>
      </trkpt>
      <trkpt lat="45.98234" lon="4.81489">
        <ele>249</ele>
        <time>2017-07-16T09:31:54Z</time>
      </trkpt>
      <trkpt lat="45.98236" lon="4.81495">
        <ele>249</ele>
        <time>2017-07-16T09:31:55Z</time>
      </trkpt>
      <trkpt lat="45.98239" lon="4.81501">
        <ele>249</ele>
        <time>2017-07-16T09:31:56Z</time>
      </trkpt>
      <trkpt lat="45.98241" lon="4.81507">
        <ele>249</ele>
        <time>2017-07-16T09:31:57Z</time>
      </trkpt>
      <trkpt lat="45.98243" lon="4.81513">
        <ele>249</ele>
        <time>2017-07-16T09:31:58Z</time>
      </trkpt>
      <trkpt lat="45.98245" lon="4.81519">
        <ele>249</ele>
        <time>2017-07-16T09:31:59Z</time>
      </trkpt>
      <trkpt lat="45.98247" lon="4.81526">
        <ele>249</ele>
        <time>2017-07-16T09:32:00Z</time>
      </trkpt>
      <trkpt lat="45.98249" lon="4.81532">
        <ele>249</ele>
        <time>2017-07-16T09:32:01Z</time>
      </trkpt>
      <trkpt lat="45.98251" lon="4.81538">
        <ele>247</ele>
        <time>2017-07-16T09:32:02Z</time>
      </trkpt>
      <trkpt lat="45.98254" lon="4.81545">
        <ele>247</ele>
        <time>2017-07-16T09:32:03Z</time>
      </trkpt>
      <trkpt lat="45.98256" lon="4.81551">
        <ele>247</ele>
        <time>2017-07-16T09:32:04Z</time>
      </trkpt>
      <trkpt lat="45.98258" lon="4.81556">
        <ele>247</ele>
        <time>2017-07-16T09:32:05Z</time>
      </trkpt>
      <trkpt lat="45.98262" lon="4.81568">
        <ele>247</ele>
        <time>2017-07-16T09:32:07Z</time>
      </trkpt>
      <trkpt lat="45.98264" lon="4.81574">
        <ele>247</ele>
        <time>2017-07-16T09:32:08Z</time>
      </trkpt>
      <trkpt lat="45.98268" lon="4.81585">
        <ele>247</ele>
        <time>2017-07-16T09:32:10Z</time>
      </trkpt>
      <trkpt lat="45.98269" lon="4.8159">
        <ele>247</ele>
        <time>2017-07-16T09:32:11Z</time>
      </trkpt>
      <trkpt lat="45.98273" lon="4.81601">
        <ele>247</ele>
        <time>2017-07-16T09:32:13Z</time>
      </trkpt>
      <trkpt lat="45.98275" lon="4.81606">
        <ele>247</ele>
        <time>2017-07-16T09:32:14Z</time>
      </trkpt>
      <trkpt lat="45.98277" lon="4.81612">
        <ele>247</ele>
        <time>2017-07-16T09:32:15Z</time>
      </trkpt>
      <trkpt lat="45.9828" lon="4.81619">
        <ele>247</ele>
        <time>2017-07-16T09:32:16Z</time>
      </trkpt>
      <trkpt lat="45.98282" lon="4.81624">
        <ele>247</ele>
        <time>2017-07-16T09:32:17Z</time>
      </trkpt>
      <trkpt lat="45.98285" lon="4.81629">
        <ele>247</ele>
        <time>2017-07-16T09:32:18Z</time>
      </trkpt>
      <trkpt lat="45.98292" lon="4.81638">
        <ele>247</ele>
        <time>2017-07-16T09:32:20Z</time>
      </trkpt>
      <trkpt lat="45.98295" lon="4.81642">
        <ele>247</ele>
        <time>2017-07-16T09:32:21Z</time>
      </trkpt>
      <trkpt lat="45.98302" lon="4.81649">
        <ele>247</ele>
        <time>2017-07-16T09:32:23Z</time>
      </trkpt>
      <trkpt lat="45.98305" lon="4.81652">
        <ele>246</ele>
        <time>2017-07-16T09:32:24Z</time>
      </trkpt>
      <trkpt lat="45.98313" lon="4.81659">
        <ele>246</ele>
        <time>2017-07-16T09:32:26Z</time>
      </trkpt>
      <trkpt lat="45.98316" lon="4.81662">
        <ele>246</ele>
        <time>2017-07-16T09:32:27Z</time>
      </trkpt>
      <trkpt lat="45.98324" lon="4.81668">
        <ele>246</ele>
        <time>2017-07-16T09:32:29Z</time>
      </trkpt>
      <trkpt lat="45.98329" lon="4.8167">
        <ele>246</ele>
        <time>2017-07-16T09:32:30Z</time>
      </trkpt>
      <trkpt lat="45.98337" lon="4.81674">
        <ele>245</ele>
        <time>2017-07-16T09:32:32Z</time>
      </trkpt>
      <trkpt lat="45.98341" lon="4.81675">
        <ele>245</ele>
        <time>2017-07-16T09:32:33Z</time>
      </trkpt>
      <trkpt lat="45.98346" lon="4.81676">
        <ele>245</ele>
        <time>2017-07-16T09:32:34Z</time>
      </trkpt>
      <trkpt lat="45.9835" lon="4.81676">
        <ele>245</ele>
        <time>2017-07-16T09:32:35Z</time>
      </trkpt>
      <trkpt lat="45.98359" lon="4.81677">
        <ele>244</ele>
        <time>2017-07-16T09:32:37Z</time>
      </trkpt>
      <trkpt lat="45.98364" lon="4.81677">
        <ele>244</ele>
        <time>2017-07-16T09:32:38Z</time>
      </trkpt>
      <trkpt lat="45.98369" lon="4.81677">
        <ele>244</ele>
        <time>2017-07-16T09:32:39Z</time>
      </trkpt>
      <trkpt lat="45.98373" lon="4.81676">
        <ele>244</ele>
        <time>2017-07-16T09:32:40Z</time>
      </trkpt>
      <trkpt lat="45.9838" lon="4.81674">
        <ele>244</ele>
        <time>2017-07-16T09:32:42Z</time>
      </trkpt>
      <trkpt lat="45.98385" lon="4.81674">
        <ele>243</ele>
        <time>2017-07-16T09:32:43Z</time>
      </trkpt>
      <trkpt lat="45.98389" lon="4.81673">
        <ele>243</ele>
        <time>2017-07-16T09:32:44Z</time>
      </trkpt>
      <trkpt lat="45.98394" lon="4.81672">
        <ele>243</ele>
        <time>2017-07-16T09:32:45Z</time>
      </trkpt>
      <trkpt lat="45.98399" lon="4.8167">
        <ele>243</ele>
        <time>2017-07-16T09:32:46Z</time>
      </trkpt>
      <trkpt lat="45.98404" lon="4.81669">
        <ele>242</ele>
        <time>2017-07-16T09:32:47Z</time>
      </trkpt>
      <trkpt lat="45.98408" lon="4.81668">
        <ele>242</ele>
        <time>2017-07-16T09:32:48Z</time>
      </trkpt>
      <trkpt lat="45.98413" lon="4.81667">
        <ele>241</ele>
        <time>2017-07-16T09:32:49Z</time>
      </trkpt>
      <trkpt lat="45.98422" lon="4.81669">
        <ele>241</ele>
        <time>2017-07-16T09:32:51Z</time>
      </trkpt>
      <trkpt lat="45.98426" lon="4.8167">
        <ele>240</ele>
        <time>2017-07-16T09:32:52Z</time>
      </trkpt>
      <trkpt lat="45.98434" lon="4.81674">
        <ele>240</ele>
        <time>2017-07-16T09:32:54Z</time>
      </trkpt>
      <trkpt lat="45.98437" lon="4.81677">
        <ele>240</ele>
        <time>2017-07-16T09:32:55Z</time>
      </trkpt>
      <trkpt lat="45.98441" lon="4.81681">
        <ele>240</ele>
        <time>2017-07-16T09:32:56Z</time>
      </trkpt>
      <trkpt lat="45.98444" lon="4.81685">
        <ele>239</ele>
        <time>2017-07-16T09:32:57Z</time>
      </trkpt>
      <trkpt lat="45.98448" lon="4.81691">
        <ele>239</ele>
        <time>2017-07-16T09:32:58Z</time>
      </trkpt>
      <trkpt lat="45.98451" lon="4.81696">
        <ele>239</ele>
        <time>2017-07-16T09:32:59Z</time>
      </trkpt>
      <trkpt lat="45.98454" lon="4.81702">
        <ele>239</ele>
        <time>2017-07-16T09:33:00Z</time>
      </trkpt>
      <trkpt lat="45.98456" lon="4.81708">
        <ele>239</ele>
        <time>2017-07-16T09:33:01Z</time>
      </trkpt>
      <trkpt lat="45.98459" lon="4.81714">
        <ele>239</ele>
        <time>2017-07-16T09:33:02Z</time>
      </trkpt>
      <trkpt lat="45.98464" lon="4.8172">
        <ele>239</ele>
        <time>2017-07-16T09:33:03Z</time>
      </trkpt>
      <trkpt lat="45.98468" lon="4.81726">
        <ele>239</ele>
        <time>2017-07-16T09:33:04Z</time>
      </trkpt>
      <trkpt lat="45.98473" lon="4.81731">
        <ele>239</ele>
        <time>2017-07-16T09:33:05Z</time>
      </trkpt>
      <trkpt lat="45.98479" lon="4.81736">
        <ele>238</ele>
        <time>2017-07-16T09:33:06Z</time>
      </trkpt>
      <trkpt lat="45.98485" lon="4.81742">
        <ele>238</ele>
        <time>2017-07-16T09:33:07Z</time>
      </trkpt>
      <trkpt lat="45.98491" lon="4.81747">
        <ele>238</ele>
        <time>2017-07-16T09:33:08Z</time>
      </trkpt>
      <trkpt lat="45.98497" lon="4.81753">
        <ele>238</ele>
        <time>2017-07-16T09:33:09Z</time>
      </trkpt>
      <trkpt lat="45.98503" lon="4.8176">
        <ele>237</ele>
        <time>2017-07-16T09:33:10Z</time>
      </trkpt>
      <trkpt lat="45.98508" lon="4.81767">
        <ele>237</ele>
        <time>2017-07-16T09:33:11Z</time>
      </trkpt>
      <trkpt lat="45.98513" lon="4.81774">
        <ele>238</ele>
        <time>2017-07-16T09:33:12Z</time>
      </trkpt>
      <trkpt lat="45.98518" lon="4.81782">
        <ele>238</ele>
        <time>2017-07-16T09:33:13Z</time>
      </trkpt>
      <trkpt lat="45.98524" lon="4.8179">
        <ele>238</ele>
        <time>2017-07-16T09:33:14Z</time>
      </trkpt>
      <trkpt lat="45.98529" lon="4.81797">
        <ele>238</ele>
        <time>2017-07-16T09:33:15Z</time>
      </trkpt>
      <trkpt lat="45.98534" lon="4.81804">
        <ele>238</ele>
        <time>2017-07-16T09:33:16Z</time>
      </trkpt>
      <trkpt lat="45.98539" lon="4.81809">
        <ele>238</ele>
        <time>2017-07-16T09:33:17Z</time>
      </trkpt>
      <trkpt lat="45.98546" lon="4.81812">
        <ele>238</ele>
        <time>2017-07-16T09:33:18Z</time>
      </trkpt>
      <trkpt lat="45.98552" lon="4.81812">
        <ele>238</ele>
        <time>2017-07-16T09:33:19Z</time>
      </trkpt>
      <trkpt lat="45.98557" lon="4.8181">
        <ele>238</ele>
        <time>2017-07-16T09:33:20Z</time>
      </trkpt>
      <trkpt lat="45.98562" lon="4.81806">
        <ele>238</ele>
        <time>2017-07-16T09:33:21Z</time>
      </trkpt>
      <trkpt lat="45.98566" lon="4.81801">
        <ele>238</ele>
        <time>2017-07-16T09:33:22Z</time>
      </trkpt>
      <trkpt lat="45.9857" lon="4.81797">
        <ele>238</ele>
        <time>2017-07-16T09:33:23Z</time>
      </trkpt>
      <trkpt lat="45.98574" lon="4.81792">
        <ele>238</ele>
        <time>2017-07-16T09:33:24Z</time>
      </trkpt>
      <trkpt lat="45.98577" lon="4.81787">
        <ele>238</ele>
        <time>2017-07-16T09:33:25Z</time>
      </trkpt>
      <trkpt lat="45.98581" lon="4.81783">
        <ele>238</ele>
        <time>2017-07-16T09:33:26Z</time>
      </trkpt>
      <trkpt lat="45.98585" lon="4.81778">
        <ele>238</ele>
        <time>2017-07-16T09:33:27Z</time>
      </trkpt>
      <trkpt lat="45.98592" lon="4.81772">
        <ele>238</ele>
        <time>2017-07-16T09:33:29Z</time>
      </trkpt>
      <trkpt lat="45.98595" lon="4.81769">
        <ele>238</ele>
        <time>2017-07-16T09:33:30Z</time>
      </trkpt>
      <trkpt lat="45.98603" lon="4.81765">
        <ele>238</ele>
        <time>2017-07-16T09:33:32Z</time>
      </trkpt>
      <trkpt lat="45.98607" lon="4.81764">
        <ele>238</ele>
        <time>2017-07-16T09:33:33Z</time>
      </trkpt>
      <trkpt lat="45.98615" lon="4.8176">
        <ele>238</ele>
        <time>2017-07-16T09:33:35Z</time>
      </trkpt>
      <trkpt lat="45.98619" lon="4.81759">
        <ele>238</ele>
        <time>2017-07-16T09:33:36Z</time>
      </trkpt>
      <trkpt lat="45.98627" lon="4.81757">
        <ele>238</ele>
        <time>2017-07-16T09:33:38Z</time>
      </trkpt>
      <trkpt lat="45.98631" lon="4.81755">
        <ele>238</ele>
        <time>2017-07-16T09:33:39Z</time>
      </trkpt>
      <trkpt lat="45.98635" lon="4.81754">
        <ele>238</ele>
        <time>2017-07-16T09:33:40Z</time>
      </trkpt>
      <trkpt lat="45.9864" lon="4.81753">
        <ele>238</ele>
        <time>2017-07-16T09:33:41Z</time>
      </trkpt>
      <trkpt lat="45.98645" lon="4.81752">
        <ele>238</ele>
        <time>2017-07-16T09:33:42Z</time>
      </trkpt>
      <trkpt lat="45.9865" lon="4.8175">
        <ele>238</ele>
        <time>2017-07-16T09:33:43Z</time>
      </trkpt>
      <trkpt lat="45.98658" lon="4.81748">
        <ele>238</ele>
        <time>2017-07-16T09:33:45Z</time>
      </trkpt>
      <trkpt lat="45.98662" lon="4.81747">
        <ele>238</ele>
        <time>2017-07-16T09:33:46Z</time>
      </trkpt>
      <trkpt lat="45.98669" lon="4.81744">
        <ele>238</ele>
        <time>2017-07-16T09:33:48Z</time>
      </trkpt>
      <trkpt lat="45.98673" lon="4.81743">
        <ele>238</ele>
        <time>2017-07-16T09:33:49Z</time>
      </trkpt>
      <trkpt lat="45.9868" lon="4.81741">
        <ele>238</ele>
        <time>2017-07-16T09:33:51Z</time>
      </trkpt>
      <trkpt lat="45.98683" lon="4.8174">
        <ele>238</ele>
        <time>2017-07-16T09:33:52Z</time>
      </trkpt>
      <trkpt lat="45.9869" lon="4.81739">
        <ele>238</ele>
        <time>2017-07-16T09:33:54Z</time>
      </trkpt>
      <trkpt lat="45.98694" lon="4.81738">
        <ele>238</ele>
        <time>2017-07-16T09:33:55Z</time>
      </trkpt>
      <trkpt lat="45.98699" lon="4.81736">
        <ele>239</ele>
        <time>2017-07-16T09:33:56Z</time>
      </trkpt>
      <trkpt lat="45.98703" lon="4.81735">
        <ele>239</ele>
        <time>2017-07-16T09:33:57Z</time>
      </trkpt>
      <trkpt lat="45.98708" lon="4.81733">
        <ele>239</ele>
        <time>2017-07-16T09:33:58Z</time>
      </trkpt>
      <trkpt lat="45.98712" lon="4.81732">
        <ele>239</ele>
        <time>2017-07-16T09:33:59Z</time>
      </trkpt>
      <trkpt lat="45.98717" lon="4.81731">
        <ele>239</ele>
        <time>2017-07-16T09:34:00Z</time>
      </trkpt>
      <trkpt lat="45.98721" lon="4.81731">
        <ele>239</ele>
        <time>2017-07-16T09:34:01Z</time>
      </trkpt>
      <trkpt lat="45.98728" lon="4.81735">
        <ele>239</ele>
        <time>2017-07-16T09:34:03Z</time>
      </trkpt>
      <trkpt lat="45.98731" lon="4.81738">
        <ele>240</ele>
        <time>2017-07-16T09:34:04Z</time>
      </trkpt>
      <trkpt lat="45.98737" lon="4.81745">
        <ele>240</ele>
        <time>2017-07-16T09:34:06Z</time>
      </trkpt>
      <trkpt lat="45.98739" lon="4.8175">
        <ele>240</ele>
        <time>2017-07-16T09:34:07Z</time>
      </trkpt>
      <trkpt lat="45.98743" lon="4.81754">
        <ele>240</ele>
        <time>2017-07-16T09:34:08Z</time>
      </trkpt>
      <trkpt lat="45.98747" lon="4.81759">
        <ele>240</ele>
        <time>2017-07-16T09:34:09Z</time>
      </trkpt>
      <trkpt lat="45.98752" lon="4.81769">
        <ele>241</ele>
        <time>2017-07-16T09:34:11Z</time>
      </trkpt>
      <trkpt lat="45.98754" lon="4.81773">
        <ele>241</ele>
        <time>2017-07-16T09:34:12Z</time>
      </trkpt>
      <trkpt lat="45.98758" lon="4.81783">
        <ele>241</ele>
        <time>2017-07-16T09:34:14Z</time>
      </trkpt>
      <trkpt lat="45.9876" lon="4.81787">
        <ele>241</ele>
        <time>2017-07-16T09:34:15Z</time>
      </trkpt>
      <trkpt lat="45.98764" lon="4.81796">
        <ele>240</ele>
        <time>2017-07-16T09:34:17Z</time>
      </trkpt>
      <trkpt lat="45.98766" lon="4.81802">
        <ele>240</ele>
        <time>2017-07-16T09:34:18Z</time>
      </trkpt>
      <trkpt lat="45.98768" lon="4.81808">
        <ele>240</ele>
        <time>2017-07-16T09:34:19Z</time>
      </trkpt>
      <trkpt lat="45.98771" lon="4.81814">
        <ele>240</ele>
        <time>2017-07-16T09:34:20Z</time>
      </trkpt>
      <trkpt lat="45.98773" lon="4.81821">
        <ele>240</ele>
        <time>2017-07-16T09:34:21Z</time>
      </trkpt>
      <trkpt lat="45.98776" lon="4.81827">
        <ele>240</ele>
        <time>2017-07-16T09:34:22Z</time>
      </trkpt>
      <trkpt lat="45.98779" lon="4.81835">
        <ele>239</ele>
        <time>2017-07-16T09:34:23Z</time>
      </trkpt>
      <trkpt lat="45.98782" lon="4.81841">
        <ele>239</ele>
        <time>2017-07-16T09:34:24Z</time>
      </trkpt>
      <trkpt lat="45.98785" lon="4.81848">
        <ele>239</ele>
        <time>2017-07-16T09:34:25Z</time>
      </trkpt>
      <trkpt lat="45.98787" lon="4.81855">
        <ele>239</ele>
        <time>2017-07-16T09:34:26Z</time>
      </trkpt>
      <trkpt lat="45.9879" lon="4.81862">
        <ele>239</ele>
        <time>2017-07-16T09:34:27Z</time>
      </trkpt>
      <trkpt lat="45.98793" lon="4.81869">
        <ele>239</ele>
        <time>2017-07-16T09:34:28Z</time>
      </trkpt>
      <trkpt lat="45.98795" lon="4.81876">
        <ele>239</ele>
        <time>2017-07-16T09:34:29Z</time>
      </trkpt>
      <trkpt lat="45.98798" lon="4.81884">
        <ele>239</ele>
        <time>2017-07-16T09:34:30Z</time>
      </trkpt>
      <trkpt lat="45.98799" lon="4.81892">
        <ele>239</ele>
        <time>2017-07-16T09:34:31Z</time>
      </trkpt>
      <trkpt lat="45.98801" lon="4.81899">
        <ele>239</ele>
        <time>2017-07-16T09:34:32Z</time>
      </trkpt>
      <trkpt lat="45.98802" lon="4.81907">
        <ele>239</ele>
        <time>2017-07-16T09:34:33Z</time>
      </trkpt>
      <trkpt lat="45.98804" lon="4.81915">
        <ele>239</ele>
        <time>2017-07-16T09:34:34Z</time>
      </trkpt>
      <trkpt lat="45.98805" lon="4.81922">
        <ele>239</ele>
        <time>2017-07-16T09:34:35Z</time>
      </trkpt>
      <trkpt lat="45.98807" lon="4.81929">
        <ele>239</ele>
        <time>2017-07-16T09:34:36Z</time>
      </trkpt>
      <trkpt lat="45.98808" lon="4.81936">
        <ele>239</ele>
        <time>2017-07-16T09:34:37Z</time>
      </trkpt>
      <trkpt lat="45.98809" lon="4.81943">
        <ele>239</ele>
        <time>2017-07-16T09:34:38Z</time>
      </trkpt>
      <trkpt lat="45.9881" lon="4.8195">
        <ele>239</ele>
        <time>2017-07-16T09:34:39Z</time>
      </trkpt>
      <trkpt lat="45.98811" lon="4.81958">
        <ele>239</ele>
        <time>2017-07-16T09:34:40Z</time>
      </trkpt>
      <trkpt lat="45.98812" lon="4.81965">
        <ele>239</ele>
        <time>2017-07-16T09:34:41Z</time>
      </trkpt>
      <trkpt lat="45.98814" lon="4.81973">
        <ele>239</ele>
        <time>2017-07-16T09:34:42Z</time>
      </trkpt>
      <trkpt lat="45.98816" lon="4.81981">
        <ele>239</ele>
        <time>2017-07-16T09:34:43Z</time>
      </trkpt>
      <trkpt lat="45.98818" lon="4.81989">
        <ele>238</ele>
        <time>2017-07-16T09:34:44Z</time>
      </trkpt>
      <trkpt lat="45.98819" lon="4.81997">
        <ele>238</ele>
        <time>2017-07-16T09:34:45Z</time>
      </trkpt>
      <trkpt lat="45.98821" lon="4.82006">
        <ele>238</ele>
        <time>2017-07-16T09:34:46Z</time>
      </trkpt>
      <trkpt lat="45.98822" lon="4.82014">
        <ele>238</ele>
        <time>2017-07-16T09:34:47Z</time>
      </trkpt>
      <trkpt lat="45.98823" lon="4.82021">
        <ele>238</ele>
        <time>2017-07-16T09:34:48Z</time>
      </trkpt>
      <trkpt lat="45.98824" lon="4.82028">
        <ele>238</ele>
        <time>2017-07-16T09:34:49Z</time>
      </trkpt>
      <trkpt lat="45.98824" lon="4.82035">
        <ele>238</ele>
        <time>2017-07-16T09:34:50Z</time>
      </trkpt>
      <trkpt lat="45.98825" lon="4.82042">
        <ele>238</ele>
        <time>2017-07-16T09:34:51Z</time>
      </trkpt>
      <trkpt lat="45.98827" lon="4.82048">
        <ele>238</ele>
        <time>2017-07-16T09:34:52Z</time>
      </trkpt>
      <trkpt lat="45.98828" lon="4.82055">
        <ele>237</ele>
        <time>2017-07-16T09:34:53Z</time>
      </trkpt>
      <trkpt lat="45.98829" lon="4.82062">
        <ele>237</ele>
        <time>2017-07-16T09:34:54Z</time>
      </trkpt>
      <trkpt lat="45.9883" lon="4.82069">
        <ele>237</ele>
        <time>2017-07-16T09:34:55Z</time>
      </trkpt>
      <trkpt lat="45.98831" lon="4.82076">
        <ele>237</ele>
        <time>2017-07-16T09:34:56Z</time>
      </trkpt>
      <trkpt lat="45.98832" lon="4.82083">
        <ele>236</ele>
        <time>2017-07-16T09:34:57Z</time>
      </trkpt>
      <trkpt lat="45.98833" lon="4.82091">
        <ele>236</ele>
        <time>2017-07-16T09:34:58Z</time>
      </trkpt>
      <trkpt lat="45.98835" lon="4.82098">
        <ele>236</ele>
        <time>2017-07-16T09:34:59Z</time>
      </trkpt>
      <trkpt lat="45.98836" lon="4.82106">
        <ele>236</ele>
        <time>2017-07-16T09:35:00Z</time>
      </trkpt>
      <trkpt lat="45.98837" lon="4.82114">
        <ele>235</ele>
        <time>2017-07-16T09:35:01Z</time>
      </trkpt>
      <trkpt lat="45.98839" lon="4.82121">
        <ele>236</ele>
        <time>2017-07-16T09:35:02Z</time>
      </trkpt>
      <trkpt lat="45.9884" lon="4.82129">
        <ele>236</ele>
        <time>2017-07-16T09:35:03Z</time>
      </trkpt>
      <trkpt lat="45.98841" lon="4.82135">
        <ele>236</ele>
        <time>2017-07-16T09:35:04Z</time>
      </trkpt>
      <trkpt lat="45.98842" lon="4.82142">
        <ele>236</ele>
        <time>2017-07-16T09:35:05Z</time>
      </trkpt>
      <trkpt lat="45.98844" lon="4.82149">
        <ele>236</ele>
        <time>2017-07-16T09:35:06Z</time>
      </trkpt>
      <trkpt lat="45.98845" lon="4.82155">
        <ele>236</ele>
        <time>2017-07-16T09:35:07Z</time>
      </trkpt>
      <trkpt lat="45.98846" lon="4.82162">
        <ele>236</ele>
        <time>2017-07-16T09:35:08Z</time>
      </trkpt>
      <trkpt lat="45.98848" lon="4.82168">
        <ele>236</ele>
        <time>2017-07-16T09:35:09Z</time>
      </trkpt>
      <trkpt lat="45.98851" lon="4.82175">
        <ele>236</ele>
        <time>2017-07-16T09:35:10Z</time>
      </trkpt>
      <trkpt lat="45.98853" lon="4.82181">
        <ele>236</ele>
        <time>2017-07-16T09:35:11Z</time>
      </trkpt>
      <trkpt lat="45.98855" lon="4.82188">
        <ele>236</ele>
        <time>2017-07-16T09:35:12Z</time>
      </trkpt>
      <trkpt lat="45.98858" lon="4.82195">
        <ele>236</ele>
        <time>2017-07-16T09:35:13Z</time>
      </trkpt>
      <trkpt lat="45.9886" lon="4.82202">
        <ele>236</ele>
        <time>2017-07-16T09:35:14Z</time>
      </trkpt>
      <trkpt lat="45.98863" lon="4.82208">
        <ele>236</ele>
        <time>2017-07-16T09:35:15Z</time>
      </trkpt>
      <trkpt lat="45.98865" lon="4.82215">
        <ele>236</ele>
        <time>2017-07-16T09:35:16Z</time>
      </trkpt>
      <trkpt lat="45.98867" lon="4.82221">
        <ele>236</ele>
        <time>2017-07-16T09:35:17Z</time>
      </trkpt>
      <trkpt lat="45.9887" lon="4.82226">
        <ele>236</ele>
        <time>2017-07-16T09:35:18Z</time>
      </trkpt>
      <trkpt lat="45.98874" lon="4.82236">
        <ele>236</ele>
        <time>2017-07-16T09:35:20Z</time>
      </trkpt>
      <trkpt lat="45.98876" lon="4.82242">
        <ele>236</ele>
        <time>2017-07-16T09:35:21Z</time>
      </trkpt>
      <trkpt lat="45.98879" lon="4.82247">
        <ele>236</ele>
        <time>2017-07-16T09:35:22Z</time>
      </trkpt>
      <trkpt lat="45.98882" lon="4.82253">
        <ele>237</ele>
        <time>2017-07-16T09:35:23Z</time>
      </trkpt>
      <trkpt lat="45.98885" lon="4.82258">
        <ele>236</ele>
        <time>2017-07-16T09:35:24Z</time>
      </trkpt>
      <trkpt lat="45.98889" lon="4.82264">
        <ele>236</ele>
        <time>2017-07-16T09:35:25Z</time>
      </trkpt>
      <trkpt lat="45.98892" lon="4.8227">
        <ele>236</ele>
        <time>2017-07-16T09:35:26Z</time>
      </trkpt>
      <trkpt lat="45.98896" lon="4.82275">
        <ele>236</ele>
        <time>2017-07-16T09:35:27Z</time>
      </trkpt>
      <trkpt lat="45.98899" lon="4.8228">
        <ele>236</ele>
        <time>2017-07-16T09:35:28Z</time>
      </trkpt>
      <trkpt lat="45.98902" lon="4.82285">
        <ele>236</ele>
        <time>2017-07-16T09:35:29Z</time>
      </trkpt>
      <trkpt lat="45.98905" lon="4.82289">
        <ele>236</ele>
        <time>2017-07-16T09:35:30Z</time>
      </trkpt>
      <trkpt lat="45.98909" lon="4.82294">
        <ele>237</ele>
        <time>2017-07-16T09:35:31Z</time>
      </trkpt>
      <trkpt lat="45.98912" lon="4.82298">
        <ele>237</ele>
        <time>2017-07-16T09:35:32Z</time>
      </trkpt>
      <trkpt lat="45.98916" lon="4.82302">
        <ele>237</ele>
        <time>2017-07-16T09:35:33Z</time>
      </trkpt>
      <trkpt lat="45.9892" lon="4.82306">
        <ele>235</ele>
        <time>2017-07-16T09:35:34Z</time>
      </trkpt>
      <trkpt lat="45.98924" lon="4.82311">
        <ele>235</ele>
        <time>2017-07-16T09:35:35Z</time>
      </trkpt>
      <trkpt lat="45.98929" lon="4.82315">
        <ele>235</ele>
        <time>2017-07-16T09:35:36Z</time>
      </trkpt>
      <trkpt lat="45.98933" lon="4.8232">
        <ele>235</ele>
        <time>2017-07-16T09:35:37Z</time>
      </trkpt>
      <trkpt lat="45.98936" lon="4.82324">
        <ele>235</ele>
        <time>2017-07-16T09:35:38Z</time>
      </trkpt>
      <trkpt lat="45.98939" lon="4.82329">
        <ele>235</ele>
        <time>2017-07-16T09:35:39Z</time>
      </trkpt>
      <trkpt lat="45.98943" lon="4.82334">
        <ele>235</ele>
        <time>2017-07-16T09:35:40Z</time>
      </trkpt>
      <trkpt lat="45.98946" lon="4.82339">
        <ele>235</ele>
        <time>2017-07-16T09:35:41Z</time>
      </trkpt>
      <trkpt lat="45.98951" lon="4.82348">
        <ele>235</ele>
        <time>2017-07-16T09:35:43Z</time>
      </trkpt>
      <trkpt lat="45.98953" lon="4.82353">
        <ele>235</ele>
        <time>2017-07-16T09:35:44Z</time>
      </trkpt>
      <trkpt lat="45.98958" lon="4.82362">
        <ele>235</ele>
        <time>2017-07-16T09:35:46Z</time>
      </trkpt>
      <trkpt lat="45.98961" lon="4.82367">
        <ele>235</ele>
        <time>2017-07-16T09:35:47Z</time>
      </trkpt>
      <trkpt lat="45.98963" lon="4.82373">
        <ele>235</ele>
        <time>2017-07-16T09:35:48Z</time>
      </trkpt>
      <trkpt lat="45.98965" lon="4.8238">
        <ele>235</ele>
        <time>2017-07-16T09:35:49Z</time>
      </trkpt>
      <trkpt lat="45.98966" lon="4.82387">
        <ele>235</ele>
        <time>2017-07-16T09:35:50Z</time>
      </trkpt>
      <trkpt lat="45.98968" lon="4.82394">
        <ele>235</ele>
        <time>2017-07-16T09:35:51Z</time>
      </trkpt>
      <trkpt lat="45.98969" lon="4.82401">
        <ele>235</ele>
        <time>2017-07-16T09:35:52Z</time>
      </trkpt>
      <trkpt lat="45.98971" lon="4.82409">
        <ele>235</ele>
        <time>2017-07-16T09:35:53Z</time>
      </trkpt>
      <trkpt lat="45.98973" lon="4.82417">
        <ele>235</ele>
        <time>2017-07-16T09:35:54Z</time>
      </trkpt>
      <trkpt lat="45.98974" lon="4.82424">
        <ele>236</ele>
        <time>2017-07-16T09:35:55Z</time>
      </trkpt>
      <trkpt lat="45.98975" lon="4.82431">
        <ele>236</ele>
        <time>2017-07-16T09:35:56Z</time>
      </trkpt>
      <trkpt lat="45.98977" lon="4.82438">
        <ele>236</ele>
        <time>2017-07-16T09:35:57Z</time>
      </trkpt>
      <trkpt lat="45.98979" lon="4.82444">
        <ele>236</ele>
        <time>2017-07-16T09:35:58Z</time>
      </trkpt>
      <trkpt lat="45.98981" lon="4.8245">
        <ele>236</ele>
        <time>2017-07-16T09:35:59Z</time>
      </trkpt>
      <trkpt lat="45.98984" lon="4.82462">
        <ele>236</ele>
        <time>2017-07-16T09:36:01Z</time>
      </trkpt>
      <trkpt lat="45.98986" lon="4.82468">
        <ele>236</ele>
        <time>2017-07-16T09:36:02Z</time>
      </trkpt>
      <trkpt lat="45.98988" lon="4.82474">
        <ele>236</ele>
        <time>2017-07-16T09:36:03Z</time>
      </trkpt>
      <trkpt lat="45.9899" lon="4.8248">
        <ele>236</ele>
        <time>2017-07-16T09:36:04Z</time>
      </trkpt>
      <trkpt lat="45.98992" lon="4.82487">
        <ele>236</ele>
        <time>2017-07-16T09:36:05Z</time>
      </trkpt>
      <trkpt lat="45.98994" lon="4.82493">
        <ele>236</ele>
        <time>2017-07-16T09:36:06Z</time>
      </trkpt>
      <trkpt lat="45.98997" lon="4.825">
        <ele>235</ele>
        <time>2017-07-16T09:36:07Z</time>
      </trkpt>
      <trkpt lat="45.98999" lon="4.82507">
        <ele>236</ele>
        <time>2017-07-16T09:36:08Z</time>
      </trkpt>
      <trkpt lat="45.99002" lon="4.82513">
        <ele>235</ele>
        <time>2017-07-16T09:36:09Z</time>
      </trkpt>
      <trkpt lat="45.99005" lon="4.82519">
        <ele>235</ele>
        <time>2017-07-16T09:36:10Z</time>
      </trkpt>
      <trkpt lat="45.99009" lon="4.82525">
        <ele>235</ele>
        <time>2017-07-16T09:36:11Z</time>
      </trkpt>
      <trkpt lat="45.99012" lon="4.82531">
        <ele>235</ele>
        <time>2017-07-16T09:36:12Z</time>
      </trkpt>
      <trkpt lat="45.99016" lon="4.82536">
        <ele>235</ele>
        <time>2017-07-16T09:36:13Z</time>
      </trkpt>
      <trkpt lat="45.99019" lon="4.8254">
        <ele>235</ele>
        <time>2017-07-16T09:36:14Z</time>
      </trkpt>
      <trkpt lat="45.99022" lon="4.82545">
        <ele>235</ele>
        <time>2017-07-16T09:36:15Z</time>
      </trkpt>
      <trkpt lat="45.99026" lon="4.82549">
        <ele>235</ele>
        <time>2017-07-16T09:36:16Z</time>
      </trkpt>
      <trkpt lat="45.99034" lon="4.82556">
        <ele>235</ele>
        <time>2017-07-16T09:36:18Z</time>
      </trkpt>
      <trkpt lat="45.99038" lon="4.82559">
        <ele>235</ele>
        <time>2017-07-16T09:36:19Z</time>
      </trkpt>
      <trkpt lat="45.99042" lon="4.82563">
        <ele>235</ele>
        <time>2017-07-16T09:36:20Z</time>
      </trkpt>
      <trkpt lat="45.99046" lon="4.82565">
        <ele>235</ele>
        <time>2017-07-16T09:36:21Z</time>
      </trkpt>
      <trkpt lat="45.99051" lon="4.82566">
        <ele>235</ele>
        <time>2017-07-16T09:36:22Z</time>
      </trkpt>
      <trkpt lat="45.99056" lon="4.82567">
        <ele>235</ele>
        <time>2017-07-16T09:36:23Z</time>
      </trkpt>
      <trkpt lat="45.99061" lon="4.82568">
        <ele>235</ele>
        <time>2017-07-16T09:36:24Z</time>
      </trkpt>
      <trkpt lat="45.99065" lon="4.8257">
        <ele>235</ele>
        <time>2017-07-16T09:36:25Z</time>
      </trkpt>
      <trkpt lat="45.99073" lon="4.82574">
        <ele>235</ele>
        <time>2017-07-16T09:36:27Z</time>
      </trkpt>
      <trkpt lat="45.99076" lon="4.82577">
        <ele>235</ele>
        <time>2017-07-16T09:36:28Z</time>
      </trkpt>
      <trkpt lat="45.99077" lon="4.82589">
        <ele>235</ele>
        <time>2017-07-16T09:36:31Z</time>
      </trkpt>
      <trkpt lat="45.99076" lon="4.82593">
        <ele>235</ele>
        <time>2017-07-16T09:36:32Z</time>
      </trkpt>
      <trkpt lat="45.99073" lon="4.82601">
        <ele>235</ele>
        <time>2017-07-16T09:36:34Z</time>
      </trkpt>
      <trkpt lat="45.9907" lon="4.82605">
        <ele>236</ele>
        <time>2017-07-16T09:36:35Z</time>
      </trkpt>
      <trkpt lat="45.99065" lon="4.82613">
        <ele>236</ele>
        <time>2017-07-16T09:36:37Z</time>
      </trkpt>
      <trkpt lat="45.99062" lon="4.82617">
        <ele>236</ele>
        <time>2017-07-16T09:36:38Z</time>
      </trkpt>
      <trkpt lat="45.99058" lon="4.82626">
        <ele>236</ele>
        <time>2017-07-16T09:36:40Z</time>
      </trkpt>
      <trkpt lat="45.99056" lon="4.8263">
        <ele>236</ele>
        <time>2017-07-16T09:36:41Z</time>
      </trkpt>
      <trkpt lat="45.99051" lon="4.82638">
        <ele>236</ele>
        <time>2017-07-16T09:36:43Z</time>
      </trkpt>
      <trkpt lat="45.99049" lon="4.82642">
        <ele>236</ele>
        <time>2017-07-16T09:36:44Z</time>
      </trkpt>
      <trkpt lat="45.99046" lon="4.8265">
        <ele>236</ele>
        <time>2017-07-16T09:36:46Z</time>
      </trkpt>
      <trkpt lat="45.99044" lon="4.82654">
        <ele>236</ele>
        <time>2017-07-16T09:36:47Z</time>
      </trkpt>
      <trkpt lat="45.99041" lon="4.82662">
        <ele>236</ele>
        <time>2017-07-16T09:36:49Z</time>
      </trkpt>
      <trkpt lat="45.99039" lon="4.82666">
        <ele>236</ele>
        <time>2017-07-16T09:36:50Z</time>
      </trkpt>
      <trkpt lat="45.99034" lon="4.82676">
        <ele>238</ele>
        <time>2017-07-16T09:36:53Z</time>
      </trkpt>
      <trkpt lat="45.99032" lon="4.8268">
        <ele>238</ele>
        <time>2017-07-16T09:36:54Z</time>
      </trkpt>
      <trkpt lat="45.99027" lon="4.82691">
        <ele>238</ele>
        <time>2017-07-16T09:36:57Z</time>
      </trkpt>
      <trkpt lat="45.99026" lon="4.82694">
        <ele>238</ele>
        <time>2017-07-16T09:36:58Z</time>
      </trkpt>
      <trkpt lat="45.99022" lon="4.82701">
        <ele>238</ele>
        <time>2017-07-16T09:37:00Z</time>
      </trkpt>
      <trkpt lat="45.9902" lon="4.82705">
        <ele>238</ele>
        <time>2017-07-16T09:37:01Z</time>
      </trkpt>
      <trkpt lat="45.99018" lon="4.82713">
        <ele>239</ele>
        <time>2017-07-16T09:37:03Z</time>
      </trkpt>
      <trkpt lat="45.99016" lon="4.82717">
        <ele>239</ele>
        <time>2017-07-16T09:37:04Z</time>
      </trkpt>
      <trkpt lat="45.99012" lon="4.82727">
        <ele>239</ele>
        <time>2017-07-16T09:37:07Z</time>
      </trkpt>
      <trkpt lat="45.99011" lon="4.8273">
        <ele>239</ele>
        <time>2017-07-16T09:37:08Z</time>
      </trkpt>
      <trkpt lat="45.9901" lon="4.82734">
        <ele>239</ele>
        <time>2017-07-16T09:37:10Z</time>
      </trkpt>
      <trkpt lat="45.9901" lon="4.82735">
        <ele>239</ele>
        <time>2017-07-16T09:37:11Z</time>
      </trkpt>
      <trkpt lat="45.9901" lon="4.82735">
        <ele>239</ele>
        <time>2017-07-16T09:38:23Z</time>
      </trkpt>
      <trkpt lat="45.99012" lon="4.8274">
        <ele>240</ele>
        <time>2017-07-16T09:38:24Z</time>
      </trkpt>
      <trkpt lat="45.99004" lon="4.82744">
        <ele>240</ele>
        <time>2017-07-16T09:38:29Z</time>
      </trkpt>
      <trkpt lat="45.99003" lon="4.82745">
        <ele>240</ele>
        <time>2017-07-16T09:38:30Z</time>
      </trkpt>
      <trkpt lat="45.98998" lon="4.82756">
        <ele>243</ele>
        <time>2017-07-16T09:38:36Z</time>
      </trkpt>
      <trkpt lat="45.98997" lon="4.82758">
        <ele>243</ele>
        <time>2017-07-16T09:38:37Z</time>
      </trkpt>
      <trkpt lat="45.98993" lon="4.82765">
        <ele>245</ele>
        <time>2017-07-16T09:38:40Z</time>
      </trkpt>
      <trkpt lat="45.98991" lon="4.82768">
        <ele>245</ele>
        <time>2017-07-16T09:38:41Z</time>
      </trkpt>
      <trkpt lat="45.98986" lon="4.82777">
        <ele>246</ele>
        <time>2017-07-16T09:38:44Z</time>
      </trkpt>
      <trkpt lat="45.98985" lon="4.82781">
        <ele>247</ele>
        <time>2017-07-16T09:38:45Z</time>
      </trkpt>
      <trkpt lat="45.98981" lon="4.82789">
        <ele>247</ele>
        <time>2017-07-16T09:38:47Z</time>
      </trkpt>
      <trkpt lat="45.9898" lon="4.82792">
        <ele>248</ele>
        <time>2017-07-16T09:38:48Z</time>
      </trkpt>
      <trkpt lat="45.98976" lon="4.82803">
        <ele>248</ele>
        <time>2017-07-16T09:38:51Z</time>
      </trkpt>
      <trkpt lat="45.98975" lon="4.82807">
        <ele>248</ele>
        <time>2017-07-16T09:38:52Z</time>
      </trkpt>
      <trkpt lat="45.98971" lon="4.82817">
        <ele>249</ele>
        <time>2017-07-16T09:38:55Z</time>
      </trkpt>
      <trkpt lat="45.98969" lon="4.8282">
        <ele>249</ele>
        <time>2017-07-16T09:38:56Z</time>
      </trkpt>
      <trkpt lat="45.98967" lon="4.8283">
        <ele>249</ele>
        <time>2017-07-16T09:38:59Z</time>
      </trkpt>
      <trkpt lat="45.98966" lon="4.82833">
        <ele>249</ele>
        <time>2017-07-16T09:39:00Z</time>
      </trkpt>
      <trkpt lat="45.98962" lon="4.82844">
        <ele>252</ele>
        <time>2017-07-16T09:39:04Z</time>
      </trkpt>
      <trkpt lat="45.98961" lon="4.82848">
        <ele>252</ele>
        <time>2017-07-16T09:39:05Z</time>
      </trkpt>
      <trkpt lat="45.98956" lon="4.82857">
        <ele>252</ele>
        <time>2017-07-16T09:39:08Z</time>
      </trkpt>
      <trkpt lat="45.98955" lon="4.8286">
        <ele>252</ele>
        <time>2017-07-16T09:39:09Z</time>
      </trkpt>
      <trkpt lat="45.98951" lon="4.8287">
        <ele>253</ele>
        <time>2017-07-16T09:39:12Z</time>
      </trkpt>
      <trkpt lat="45.98949" lon="4.82873">
        <ele>253</ele>
        <time>2017-07-16T09:39:13Z</time>
      </trkpt>
      <trkpt lat="45.98945" lon="4.82882">
        <ele>253</ele>
        <time>2017-07-16T09:39:16Z</time>
      </trkpt>
      <trkpt lat="45.98944" lon="4.82885">
        <ele>253</ele>
        <time>2017-07-16T09:39:17Z</time>
      </trkpt>
      <trkpt lat="45.9894" lon="4.82893">
        <ele>253</ele>
        <time>2017-07-16T09:39:20Z</time>
      </trkpt>
      <trkpt lat="45.98939" lon="4.82896">
        <ele>253</ele>
        <time>2017-07-16T09:39:21Z</time>
      </trkpt>
      <trkpt lat="45.98935" lon="4.82907">
        <ele>254</ele>
        <time>2017-07-16T09:39:25Z</time>
      </trkpt>
      <trkpt lat="45.98933" lon="4.8291">
        <ele>254</ele>
        <time>2017-07-16T09:39:26Z</time>
      </trkpt>
      <trkpt lat="45.98929" lon="4.82918">
        <ele>255</ele>
        <time>2017-07-16T09:39:29Z</time>
      </trkpt>
      <trkpt lat="45.98928" lon="4.8292">
        <ele>255</ele>
        <time>2017-07-16T09:39:30Z</time>
      </trkpt>
      <trkpt lat="45.98924" lon="4.82931">
        <ele>255</ele>
        <time>2017-07-16T09:39:34Z</time>
      </trkpt>
      <trkpt lat="45.98923" lon="4.82934">
        <ele>255</ele>
        <time>2017-07-16T09:39:35Z</time>
      </trkpt>
      <trkpt lat="45.98919" lon="4.82942">
        <ele>255</ele>
        <time>2017-07-16T09:39:38Z</time>
      </trkpt>
      <trkpt lat="45.98918" lon="4.82945">
        <ele>255</ele>
        <time>2017-07-16T09:39:39Z</time>
      </trkpt>
      <trkpt lat="45.98911" lon="4.82954">
        <ele>258</ele>
        <time>2017-07-16T09:39:43Z</time>
      </trkpt>
      <trkpt lat="45.98909" lon="4.82956">
        <ele>258</ele>
        <time>2017-07-16T09:39:44Z</time>
      </trkpt>
      <trkpt lat="45.98904" lon="4.82965">
        <ele>259</ele>
        <time>2017-07-16T09:39:47Z</time>
      </trkpt>
      <trkpt lat="45.98902" lon="4.82967">
        <ele>259</ele>
        <time>2017-07-16T09:39:48Z</time>
      </trkpt>
      <trkpt lat="45.98896" lon="4.82973">
        <ele>259</ele>
        <time>2017-07-16T09:39:51Z</time>
      </trkpt>
      <trkpt lat="45.98894" lon="4.82976">
        <ele>259</ele>
        <time>2017-07-16T09:39:52Z</time>
      </trkpt>
      <trkpt lat="45.98888" lon="4.82983">
        <ele>259</ele>
        <time>2017-07-16T09:39:55Z</time>
      </trkpt>
      <trkpt lat="45.98886" lon="4.82984">
        <ele>259</ele>
        <time>2017-07-16T09:39:56Z</time>
      </trkpt>
      <trkpt lat="45.98879" lon="4.82989">
        <ele>260</ele>
        <time>2017-07-16T09:40:00Z</time>
      </trkpt>
      <trkpt lat="45.98876" lon="4.8299">
        <ele>260</ele>
        <time>2017-07-16T09:40:01Z</time>
      </trkpt>
      <trkpt lat="45.98868" lon="4.82995">
        <ele>260</ele>
        <time>2017-07-16T09:40:05Z</time>
      </trkpt>
      <trkpt lat="45.98866" lon="4.82996">
        <ele>260</ele>
        <time>2017-07-16T09:40:06Z</time>
      </trkpt>
      <trkpt lat="45.9886" lon="4.83002">
        <ele>261</ele>
        <time>2017-07-16T09:40:09Z</time>
      </trkpt>
      <trkpt lat="45.98857" lon="4.83003">
        <ele>261</ele>
        <time>2017-07-16T09:40:10Z</time>
      </trkpt>
      <trkpt lat="45.9885" lon="4.83007">
        <ele>261</ele>
        <time>2017-07-16T09:40:13Z</time>
      </trkpt>
      <trkpt lat="45.98848" lon="4.83009">
        <ele>261</ele>
        <time>2017-07-16T09:40:14Z</time>
      </trkpt>
      <trkpt lat="45.98841" lon="4.83013">
        <ele>261</ele>
        <time>2017-07-16T09:40:17Z</time>
      </trkpt>
      <trkpt lat="45.98838" lon="4.83014">
        <ele>261</ele>
        <time>2017-07-16T09:40:18Z</time>
      </trkpt>
      <trkpt lat="45.98832" lon="4.83018">
        <ele>264</ele>
        <time>2017-07-16T09:40:21Z</time>
      </trkpt>
      <trkpt lat="45.98829" lon="4.8302">
        <ele>264</ele>
        <time>2017-07-16T09:40:22Z</time>
      </trkpt>
      <trkpt lat="45.98823" lon="4.83025">
        <ele>264</ele>
        <time>2017-07-16T09:40:25Z</time>
      </trkpt>
      <trkpt lat="45.98821" lon="4.83027">
        <ele>264</ele>
        <time>2017-07-16T09:40:26Z</time>
      </trkpt>
      <trkpt lat="45.98815" lon="4.83031">
        <ele>264</ele>
        <time>2017-07-16T09:40:29Z</time>
      </trkpt>
      <trkpt lat="45.98812" lon="4.83033">
        <ele>264</ele>
        <time>2017-07-16T09:40:30Z</time>
      </trkpt>
      <trkpt lat="45.98806" lon="4.83039">
        <ele>264</ele>
        <time>2017-07-16T09:40:33Z</time>
      </trkpt>
      <trkpt lat="45.98803" lon="4.83041">
        <ele>264</ele>
        <time>2017-07-16T09:40:34Z</time>
      </trkpt>
      <trkpt lat="45.98798" lon="4.83046">
        <ele>264</ele>
        <time>2017-07-16T09:40:36Z</time>
      </trkpt>
      <trkpt lat="45.98796" lon="4.83048">
        <ele>265</ele>
        <time>2017-07-16T09:40:37Z</time>
      </trkpt>
      <trkpt lat="45.98791" lon="4.83053">
        <ele>265</ele>
        <time>2017-07-16T09:40:39Z</time>
      </trkpt>
      <trkpt lat="45.98788" lon="4.83056">
        <ele>265</ele>
        <time>2017-07-16T09:40:40Z</time>
      </trkpt>
      <trkpt lat="45.98781" lon="4.83062">
        <ele>265</ele>
        <time>2017-07-16T09:40:43Z</time>
      </trkpt>
      <trkpt lat="45.98778" lon="4.83063">
        <ele>265</ele>
        <time>2017-07-16T09:40:44Z</time>
      </trkpt>
      <trkpt lat="45.98772" lon="4.8307">
        <ele>265</ele>
        <time>2017-07-16T09:40:47Z</time>
      </trkpt>
      <trkpt lat="45.98769" lon="4.83072">
        <ele>266</ele>
        <time>2017-07-16T09:40:48Z</time>
      </trkpt>
      <trkpt lat="45.98763" lon="4.83079">
        <ele>266</ele>
        <time>2017-07-16T09:40:51Z</time>
      </trkpt>
      <trkpt lat="45.98761" lon="4.83081">
        <ele>266</ele>
        <time>2017-07-16T09:40:52Z</time>
      </trkpt>
      <trkpt lat="45.98754" lon="4.83089">
        <ele>266</ele>
        <time>2017-07-16T09:40:55Z</time>
      </trkpt>
      <trkpt lat="45.98752" lon="4.83091">
        <ele>266</ele>
        <time>2017-07-16T09:40:56Z</time>
      </trkpt>
      <trkpt lat="45.98745" lon="4.83098">
        <ele>267</ele>
        <time>2017-07-16T09:40:59Z</time>
      </trkpt>
      <trkpt lat="45.98742" lon="4.831">
        <ele>267</ele>
        <time>2017-07-16T09:41:00Z</time>
      </trkpt>
      <trkpt lat="45.98737" lon="4.83104">
        <ele>267</ele>
        <time>2017-07-16T09:41:02Z</time>
      </trkpt>
      <trkpt lat="45.98734" lon="4.83106">
        <ele>267</ele>
        <time>2017-07-16T09:41:03Z</time>
      </trkpt>
      <trkpt lat="45.98727" lon="4.83112">
        <ele>267</ele>
        <time>2017-07-16T09:41:06Z</time>
      </trkpt>
      <trkpt lat="45.98724" lon="4.83113">
        <ele>267</ele>
        <time>2017-07-16T09:41:07Z</time>
      </trkpt>
      <trkpt lat="45.98718" lon="4.83118">
        <ele>267</ele>
        <time>2017-07-16T09:41:09Z</time>
      </trkpt>
      <trkpt lat="45.98715" lon="4.83121">
        <ele>267</ele>
        <time>2017-07-16T09:41:10Z</time>
      </trkpt>
      <trkpt lat="45.98708" lon="4.83127">
        <ele>266</ele>
        <time>2017-07-16T09:41:13Z</time>
      </trkpt>
      <trkpt lat="45.98706" lon="4.83128">
        <ele>266</ele>
        <time>2017-07-16T09:41:14Z</time>
      </trkpt>
      <trkpt lat="45.98698" lon="4.83133">
        <ele>266</ele>
        <time>2017-07-16T09:41:17Z</time>
      </trkpt>
      <trkpt lat="45.98696" lon="4.83135">
        <ele>266</ele>
        <time>2017-07-16T09:41:18Z</time>
      </trkpt>
      <trkpt lat="45.9869" lon="4.83138">
        <ele>266</ele>
        <time>2017-07-16T09:41:20Z</time>
      </trkpt>
      <trkpt lat="45.98687" lon="4.8314">
        <ele>266</ele>
        <time>2017-07-16T09:41:21Z</time>
      </trkpt>
      <trkpt lat="45.98682" lon="4.83145">
        <ele>266</ele>
        <time>2017-07-16T09:41:23Z</time>
      </trkpt>
      <trkpt lat="45.98679" lon="4.83148">
        <ele>266</ele>
        <time>2017-07-16T09:41:24Z</time>
      </trkpt>
      <trkpt lat="45.98672" lon="4.83154">
        <ele>266</ele>
        <time>2017-07-16T09:41:27Z</time>
      </trkpt>
      <trkpt lat="45.98669" lon="4.83156">
        <ele>266</ele>
        <time>2017-07-16T09:41:28Z</time>
      </trkpt>
      <trkpt lat="45.98663" lon="4.83159">
        <ele>267</ele>
        <time>2017-07-16T09:41:30Z</time>
      </trkpt>
      <trkpt lat="45.9866" lon="4.83162">
        <ele>267</ele>
        <time>2017-07-16T09:41:31Z</time>
      </trkpt>
      <trkpt lat="45.98653" lon="4.83166">
        <ele>267</ele>
        <time>2017-07-16T09:41:33Z</time>
      </trkpt>
      <trkpt lat="45.98651" lon="4.83169">
        <ele>267</ele>
        <time>2017-07-16T09:41:34Z</time>
      </trkpt>
      <trkpt lat="45.98646" lon="4.83174">
        <ele>267</ele>
        <time>2017-07-16T09:41:36Z</time>
      </trkpt>
      <trkpt lat="45.98643" lon="4.83177">
        <ele>267</ele>
        <time>2017-07-16T09:41:37Z</time>
      </trkpt>
      <trkpt lat="45.98635" lon="4.83184">
        <ele>267</ele>
        <time>2017-07-16T09:41:40Z</time>
      </trkpt>
      <trkpt lat="45.98633" lon="4.83186">
        <ele>267</ele>
        <time>2017-07-16T09:41:41Z</time>
      </trkpt>
      <trkpt lat="45.98628" lon="4.83191">
        <ele>267</ele>
        <time>2017-07-16T09:41:43Z</time>
      </trkpt>
      <trkpt lat="45.98626" lon="4.83194">
        <ele>267</ele>
        <time>2017-07-16T09:41:44Z</time>
      </trkpt>
      <trkpt lat="45.9862" lon="4.832">
        <ele>267</ele>
        <time>2017-07-16T09:41:46Z</time>
      </trkpt>
      <trkpt lat="45.98617" lon="4.83204">
        <ele>267</ele>
        <time>2017-07-16T09:41:47Z</time>
      </trkpt>
      <trkpt lat="45.98611" lon="4.83212">
        <ele>267</ele>
        <time>2017-07-16T09:41:49Z</time>
      </trkpt>
      <trkpt lat="45.98608" lon="4.83216">
        <ele>267</ele>
        <time>2017-07-16T09:41:50Z</time>
      </trkpt>
      <trkpt lat="45.98603" lon="4.83224">
        <ele>267</ele>
        <time>2017-07-16T09:41:52Z</time>
      </trkpt>
      <trkpt lat="45.98601" lon="4.83227">
        <ele>268</ele>
        <time>2017-07-16T09:41:53Z</time>
      </trkpt>
      <trkpt lat="45.98596" lon="4.83234">
        <ele>268</ele>
        <time>2017-07-16T09:41:55Z</time>
      </trkpt>
      <trkpt lat="45.98593" lon="4.83238">
        <ele>268</ele>
        <time>2017-07-16T09:41:56Z</time>
      </trkpt>
      <trkpt lat="45.98587" lon="4.83246">
        <ele>268</ele>
        <time>2017-07-16T09:41:58Z</time>
      </trkpt>
      <trkpt lat="45.98584" lon="4.8325">
        <ele>268</ele>
        <time>2017-07-16T09:41:59Z</time>
      </trkpt>
      <trkpt lat="45.98579" lon="4.83257">
        <ele>268</ele>
        <time>2017-07-16T09:42:01Z</time>
      </trkpt>
      <trkpt lat="45.98577" lon="4.83261">
        <ele>269</ele>
        <time>2017-07-16T09:42:02Z</time>
      </trkpt>
      <trkpt lat="45.98572" lon="4.83267">
        <ele>269</ele>
        <time>2017-07-16T09:42:04Z</time>
      </trkpt>
      <trkpt lat="45.9857" lon="4.83271">
        <ele>269</ele>
        <time>2017-07-16T09:42:05Z</time>
      </trkpt>
      <trkpt lat="45.98566" lon="4.83277">
        <ele>269</ele>
        <time>2017-07-16T09:42:07Z</time>
      </trkpt>
      <trkpt lat="45.98563" lon="4.8328">
        <ele>269</ele>
        <time>2017-07-16T09:42:08Z</time>
      </trkpt>
      <trkpt lat="45.98557" lon="4.83287">
        <ele>269</ele>
        <time>2017-07-16T09:42:10Z</time>
      </trkpt>
      <trkpt lat="45.98554" lon="4.83291">
        <ele>269</ele>
        <time>2017-07-16T09:42:11Z</time>
      </trkpt>
      <trkpt lat="45.98549" lon="4.83299">
        <ele>269</ele>
        <time>2017-07-16T09:42:13Z</time>
      </trkpt>
      <trkpt lat="45.98546" lon="4.83303">
        <ele>269</ele>
        <time>2017-07-16T09:42:14Z</time>
      </trkpt>
      <trkpt lat="45.98541" lon="4.8331">
        <ele>269</ele>
        <time>2017-07-16T09:42:16Z</time>
      </trkpt>
      <trkpt lat="45.98539" lon="4.83314">
        <ele>269</ele>
        <time>2017-07-16T09:42:17Z</time>
      </trkpt>
      <trkpt lat="45.98534" lon="4.8332">
        <ele>269</ele>
        <time>2017-07-16T09:42:19Z</time>
      </trkpt>
      <trkpt lat="45.98531" lon="4.83324">
        <ele>269</ele>
        <time>2017-07-16T09:42:20Z</time>
      </trkpt>
      <trkpt lat="45.98525" lon="4.83332">
        <ele>270</ele>
        <time>2017-07-16T09:42:22Z</time>
      </trkpt>
      <trkpt lat="45.98522" lon="4.83336">
        <ele>270</ele>
        <time>2017-07-16T09:42:23Z</time>
      </trkpt>
      <trkpt lat="45.98517" lon="4.83344">
        <ele>270</ele>
        <time>2017-07-16T09:42:25Z</time>
      </trkpt>
      <trkpt lat="45.98514" lon="4.83347">
        <ele>270</ele>
        <time>2017-07-16T09:42:26Z</time>
      </trkpt>
      <trkpt lat="45.98508" lon="4.83355">
        <ele>270</ele>
        <time>2017-07-16T09:42:28Z</time>
      </trkpt>
      <trkpt lat="45.98505" lon="4.83359">
        <ele>269</ele>
        <time>2017-07-16T09:42:29Z</time>
      </trkpt>
      <trkpt lat="45.98499" lon="4.83367">
        <ele>270</ele>
        <time>2017-07-16T09:42:31Z</time>
      </trkpt>
      <trkpt lat="45.98496" lon="4.83371">
        <ele>270</ele>
        <time>2017-07-16T09:42:32Z</time>
      </trkpt>
      <trkpt lat="45.98492" lon="4.83375">
        <ele>269</ele>
        <time>2017-07-16T09:42:33Z</time>
      </trkpt>
      <trkpt lat="45.98489" lon="4.8338">
        <ele>269</ele>
        <time>2017-07-16T09:42:34Z</time>
      </trkpt>
      <trkpt lat="45.98482" lon="4.83389">
        <ele>269</ele>
        <time>2017-07-16T09:42:36Z</time>
      </trkpt>
      <trkpt lat="45.98479" lon="4.83393">
        <ele>269</ele>
        <time>2017-07-16T09:42:37Z</time>
      </trkpt>
      <trkpt lat="45.98476" lon="4.83398">
        <ele>269</ele>
        <time>2017-07-16T09:42:38Z</time>
      </trkpt>
      <trkpt lat="45.98472" lon="4.83403">
        <ele>269</ele>
        <time>2017-07-16T09:42:39Z</time>
      </trkpt>
      <trkpt lat="45.98469" lon="4.83407">
        <ele>269</ele>
        <time>2017-07-16T09:42:40Z</time>
      </trkpt>
      <trkpt lat="45.98466" lon="4.83412">
        <ele>269</ele>
        <time>2017-07-16T09:42:41Z</time>
      </trkpt>
      <trkpt lat="45.98459" lon="4.8342">
        <ele>269</ele>
        <time>2017-07-16T09:42:43Z</time>
      </trkpt>
      <trkpt lat="45.98456" lon="4.83425">
        <ele>269</ele>
        <time>2017-07-16T09:42:44Z</time>
      </trkpt>
      <trkpt lat="45.98452" lon="4.83429">
        <ele>268</ele>
        <time>2017-07-16T09:42:45Z</time>
      </trkpt>
      <trkpt lat="45.98448" lon="4.83435">
        <ele>268</ele>
        <time>2017-07-16T09:42:46Z</time>
      </trkpt>
      <trkpt lat="45.98445" lon="4.8344">
        <ele>268</ele>
        <time>2017-07-16T09:42:47Z</time>
      </trkpt>
      <trkpt lat="45.9844" lon="4.83445">
        <ele>268</ele>
        <time>2017-07-16T09:42:48Z</time>
      </trkpt>
      <trkpt lat="45.98436" lon="4.8345">
        <ele>268</ele>
        <time>2017-07-16T09:42:49Z</time>
      </trkpt>
      <trkpt lat="45.98433" lon="4.83455">
        <ele>268</ele>
        <time>2017-07-16T09:42:50Z</time>
      </trkpt>
      <trkpt lat="45.98429" lon="4.8346">
        <ele>268</ele>
        <time>2017-07-16T09:42:51Z</time>
      </trkpt>
      <trkpt lat="45.98425" lon="4.83465">
        <ele>268</ele>
        <time>2017-07-16T09:42:52Z</time>
      </trkpt>
      <trkpt lat="45.98422" lon="4.8347">
        <ele>268</ele>
        <time>2017-07-16T09:42:53Z</time>
      </trkpt>
      <trkpt lat="45.98418" lon="4.83475">
        <ele>268</ele>
        <time>2017-07-16T09:42:54Z</time>
      </trkpt>
      <trkpt lat="45.98414" lon="4.83479">
        <ele>269</ele>
        <time>2017-07-16T09:42:55Z</time>
      </trkpt>
      <trkpt lat="45.98411" lon="4.83484">
        <ele>269</ele>
        <time>2017-07-16T09:42:56Z</time>
      </trkpt>
      <trkpt lat="45.98408" lon="4.83489">
        <ele>269</ele>
        <time>2017-07-16T09:42:57Z</time>
      </trkpt>
      <trkpt lat="45.98404" lon="4.83493">
        <ele>269</ele>
        <time>2017-07-16T09:42:58Z</time>
      </trkpt>
      <trkpt lat="45.98398" lon="4.83502">
        <ele>269</ele>
        <time>2017-07-16T09:43:00Z</time>
      </trkpt>
      <trkpt lat="45.98395" lon="4.83506">
        <ele>269</ele>
        <time>2017-07-16T09:43:01Z</time>
      </trkpt>
      <trkpt lat="45.98392" lon="4.8351">
        <ele>269</ele>
        <time>2017-07-16T09:43:02Z</time>
      </trkpt>
      <trkpt lat="45.98388" lon="4.83515">
        <ele>269</ele>
        <time>2017-07-16T09:43:03Z</time>
      </trkpt>
      <trkpt lat="45.98384" lon="4.83519">
        <ele>269</ele>
        <time>2017-07-16T09:43:04Z</time>
      </trkpt>
      <trkpt lat="45.9838" lon="4.83524">
        <ele>269</ele>
        <time>2017-07-16T09:43:05Z</time>
      </trkpt>
      <trkpt lat="45.98377" lon="4.83529">
        <ele>269</ele>
        <time>2017-07-16T09:43:06Z</time>
      </trkpt>
      <trkpt lat="45.98373" lon="4.83535">
        <ele>269</ele>
        <time>2017-07-16T09:43:07Z</time>
      </trkpt>
      <trkpt lat="45.9837" lon="4.8354">
        <ele>269</ele>
        <time>2017-07-16T09:43:08Z</time>
      </trkpt>
      <trkpt lat="45.98367" lon="4.83544">
        <ele>269</ele>
        <time>2017-07-16T09:43:09Z</time>
      </trkpt>
      <trkpt lat="45.9836" lon="4.83553">
        <ele>269</ele>
        <time>2017-07-16T09:43:11Z</time>
      </trkpt>
      <trkpt lat="45.98357" lon="4.83557">
        <ele>269</ele>
        <time>2017-07-16T09:43:12Z</time>
      </trkpt>
      <trkpt lat="45.98351" lon="4.83564">
        <ele>269</ele>
        <time>2017-07-16T09:43:14Z</time>
      </trkpt>
      <trkpt lat="45.98349" lon="4.83569">
        <ele>269</ele>
        <time>2017-07-16T09:43:15Z</time>
      </trkpt>
      <trkpt lat="45.98342" lon="4.83577">
        <ele>270</ele>
        <time>2017-07-16T09:43:17Z</time>
      </trkpt>
      <trkpt lat="45.98338" lon="4.83582">
        <ele>270</ele>
        <time>2017-07-16T09:43:18Z</time>
      </trkpt>
      <trkpt lat="45.98334" lon="4.83587">
        <ele>270</ele>
        <time>2017-07-16T09:43:19Z</time>
      </trkpt>
      <trkpt lat="45.98331" lon="4.83591">
        <ele>270</ele>
        <time>2017-07-16T09:43:20Z</time>
      </trkpt>
      <trkpt lat="45.98327" lon="4.83596">
        <ele>271</ele>
        <time>2017-07-16T09:43:21Z</time>
      </trkpt>
      <trkpt lat="45.98324" lon="4.83601">
        <ele>271</ele>
        <time>2017-07-16T09:43:22Z</time>
      </trkpt>
      <trkpt lat="45.98318" lon="4.8361">
        <ele>271</ele>
        <time>2017-07-16T09:43:24Z</time>
      </trkpt>
      <trkpt lat="45.98316" lon="4.83614">
        <ele>271</ele>
        <time>2017-07-16T09:43:25Z</time>
      </trkpt>
      <trkpt lat="45.98311" lon="4.83623">
        <ele>271</ele>
        <time>2017-07-16T09:43:27Z</time>
      </trkpt>
      <trkpt lat="45.98308" lon="4.83628">
        <ele>271</ele>
        <time>2017-07-16T09:43:28Z</time>
      </trkpt>
      <trkpt lat="45.98306" lon="4.83633">
        <ele>271</ele>
        <time>2017-07-16T09:43:29Z</time>
      </trkpt>
      <trkpt lat="45.98303" lon="4.83639">
        <ele>271</ele>
        <time>2017-07-16T09:43:30Z</time>
      </trkpt>
      <trkpt lat="45.983" lon="4.83645">
        <ele>271</ele>
        <time>2017-07-16T09:43:31Z</time>
      </trkpt>
      <trkpt lat="45.98297" lon="4.83651">
        <ele>271</ele>
        <time>2017-07-16T09:43:32Z</time>
      </trkpt>
      <trkpt lat="45.98295" lon="4.83656">
        <ele>271</ele>
        <time>2017-07-16T09:43:33Z</time>
      </trkpt>
      <trkpt lat="45.98292" lon="4.83662">
        <ele>272</ele>
        <time>2017-07-16T09:43:34Z</time>
      </trkpt>
      <trkpt lat="45.98289" lon="4.83668">
        <ele>272</ele>
        <time>2017-07-16T09:43:35Z</time>
      </trkpt>
      <trkpt lat="45.98288" lon="4.83674">
        <ele>272</ele>
        <time>2017-07-16T09:43:36Z</time>
      </trkpt>
      <trkpt lat="45.98283" lon="4.83684">
        <ele>272</ele>
        <time>2017-07-16T09:43:38Z</time>
      </trkpt>
      <trkpt lat="45.98281" lon="4.83689">
        <ele>272</ele>
        <time>2017-07-16T09:43:39Z</time>
      </trkpt>
      <trkpt lat="45.98277" lon="4.83699">
        <ele>272</ele>
        <time>2017-07-16T09:43:41Z</time>
      </trkpt>
      <trkpt lat="45.98275" lon="4.83704">
        <ele>272</ele>
        <time>2017-07-16T09:43:42Z</time>
      </trkpt>
      <trkpt lat="45.98272" lon="4.83713">
        <ele>272</ele>
        <time>2017-07-16T09:43:44Z</time>
      </trkpt>
      <trkpt lat="45.9827" lon="4.83719">
        <ele>272</ele>
        <time>2017-07-16T09:43:45Z</time>
      </trkpt>
      <trkpt lat="45.98268" lon="4.83725">
        <ele>272</ele>
        <time>2017-07-16T09:43:46Z</time>
      </trkpt>
      <trkpt lat="45.98266" lon="4.83731">
        <ele>272</ele>
        <time>2017-07-16T09:43:47Z</time>
      </trkpt>
      <trkpt lat="45.98263" lon="4.83738">
        <ele>272</ele>
        <time>2017-07-16T09:43:48Z</time>
      </trkpt>
      <trkpt lat="45.98261" lon="4.83745">
        <ele>272</ele>
        <time>2017-07-16T09:43:49Z</time>
      </trkpt>
      <trkpt lat="45.98259" lon="4.83751">
        <ele>272</ele>
        <time>2017-07-16T09:43:50Z</time>
      </trkpt>
      <trkpt lat="45.98257" lon="4.83758">
        <ele>272</ele>
        <time>2017-07-16T09:43:51Z</time>
      </trkpt>
      <trkpt lat="45.98255" lon="4.83764">
        <ele>272</ele>
        <time>2017-07-16T09:43:52Z</time>
      </trkpt>
      <trkpt lat="45.98253" lon="4.8377">
        <ele>272</ele>
        <time>2017-07-16T09:43:53Z</time>
      </trkpt>
      <trkpt lat="45.9825" lon="4.83776">
        <ele>272</ele>
        <time>2017-07-16T09:43:54Z</time>
      </trkpt>
      <trkpt lat="45.98248" lon="4.83781">
        <ele>272</ele>
        <time>2017-07-16T09:43:55Z</time>
      </trkpt>
      <trkpt lat="45.98244" lon="4.83793">
        <ele>272</ele>
        <time>2017-07-16T09:43:57Z</time>
      </trkpt>
      <trkpt lat="45.98242" lon="4.83799">
        <ele>272</ele>
        <time>2017-07-16T09:43:58Z</time>
      </trkpt>
      <trkpt lat="45.9824" lon="4.83805">
        <ele>272</ele>
        <time>2017-07-16T09:43:59Z</time>
      </trkpt>
      <trkpt lat="45.98238" lon="4.83811">
        <ele>272</ele>
        <time>2017-07-16T09:44:00Z</time>
      </trkpt>
      <trkpt lat="45.98236" lon="4.83818">
        <ele>272</ele>
        <time>2017-07-16T09:44:01Z</time>
      </trkpt>
      <trkpt lat="45.98234" lon="4.83825">
        <ele>272</ele>
        <time>2017-07-16T09:44:02Z</time>
      </trkpt>
      <trkpt lat="45.98232" lon="4.83831">
        <ele>272</ele>
        <time>2017-07-16T09:44:03Z</time>
      </trkpt>
      <trkpt lat="45.9823" lon="4.83838">
        <ele>272</ele>
        <time>2017-07-16T09:44:04Z</time>
      </trkpt>
      <trkpt lat="45.98228" lon="4.83844">
        <ele>272</ele>
        <time>2017-07-16T09:44:05Z</time>
      </trkpt>
      <trkpt lat="45.98226" lon="4.8385">
        <ele>272</ele>
        <time>2017-07-16T09:44:06Z</time>
      </trkpt>
      <trkpt lat="45.98223" lon="4.83861">
        <ele>272</ele>
        <time>2017-07-16T09:44:08Z</time>
      </trkpt>
      <trkpt lat="45.98221" lon="4.83867">
        <ele>272</ele>
        <time>2017-07-16T09:44:09Z</time>
      </trkpt>
      <trkpt lat="45.98218" lon="4.83877">
        <ele>272</ele>
        <time>2017-07-16T09:44:11Z</time>
      </trkpt>
      <trkpt lat="45.98215" lon="4.83882">
        <ele>272</ele>
        <time>2017-07-16T09:44:12Z</time>
      </trkpt>
      <trkpt lat="45.98211" lon="4.83893">
        <ele>273</ele>
        <time>2017-07-16T09:44:14Z</time>
      </trkpt>
      <trkpt lat="45.98209" lon="4.839">
        <ele>273</ele>
        <time>2017-07-16T09:44:15Z</time>
      </trkpt>
      <trkpt lat="45.98207" lon="4.83906">
        <ele>273</ele>
        <time>2017-07-16T09:44:16Z</time>
      </trkpt>
      <trkpt lat="45.98205" lon="4.83913">
        <ele>273</ele>
        <time>2017-07-16T09:44:17Z</time>
      </trkpt>
      <trkpt lat="45.98203" lon="4.83919">
        <ele>273</ele>
        <time>2017-07-16T09:44:18Z</time>
      </trkpt>
      <trkpt lat="45.98201" lon="4.83925">
        <ele>273</ele>
        <time>2017-07-16T09:44:19Z</time>
      </trkpt>
      <trkpt lat="45.98197" lon="4.83936">
        <ele>273</ele>
        <time>2017-07-16T09:44:21Z</time>
      </trkpt>
      <trkpt lat="45.98195" lon="4.83942">
        <ele>273</ele>
        <time>2017-07-16T09:44:22Z</time>
      </trkpt>
      <trkpt lat="45.98191" lon="4.83953">
        <ele>273</ele>
        <time>2017-07-16T09:44:24Z</time>
      </trkpt>
      <trkpt lat="45.98189" lon="4.83959">
        <ele>273</ele>
        <time>2017-07-16T09:44:25Z</time>
      </trkpt>
      <trkpt lat="45.98187" lon="4.83964">
        <ele>273</ele>
        <time>2017-07-16T09:44:26Z</time>
      </trkpt>
      <trkpt lat="45.98184" lon="4.83971">
        <ele>273</ele>
        <time>2017-07-16T09:44:27Z</time>
      </trkpt>
      <trkpt lat="45.98182" lon="4.83978">
        <ele>273</ele>
        <time>2017-07-16T09:44:28Z</time>
      </trkpt>
      <trkpt lat="45.98179" lon="4.83985">
        <ele>273</ele>
        <time>2017-07-16T09:44:29Z</time>
      </trkpt>
      <trkpt lat="45.98176" lon="4.83992">
        <ele>273</ele>
        <time>2017-07-16T09:44:30Z</time>
      </trkpt>
      <trkpt lat="45.98173" lon="4.83999">
        <ele>273</ele>
        <time>2017-07-16T09:44:31Z</time>
      </trkpt>
      <trkpt lat="45.9817" lon="4.84006">
        <ele>273</ele>
        <time>2017-07-16T09:44:32Z</time>
      </trkpt>
      <trkpt lat="45.98167" lon="4.84012">
        <ele>273</ele>
        <time>2017-07-16T09:44:33Z</time>
      </trkpt>
      <trkpt lat="45.98163" lon="4.84018">
        <ele>273</ele>
        <time>2017-07-16T09:44:34Z</time>
      </trkpt>
      <trkpt lat="45.9816" lon="4.84024">
        <ele>273</ele>
        <time>2017-07-16T09:44:35Z</time>
      </trkpt>
      <trkpt lat="45.98157" lon="4.8403">
        <ele>273</ele>
        <time>2017-07-16T09:44:36Z</time>
      </trkpt>
      <trkpt lat="45.98154" lon="4.84035">
        <ele>273</ele>
        <time>2017-07-16T09:44:37Z</time>
      </trkpt>
      <trkpt lat="45.9815" lon="4.84039">
        <ele>273</ele>
        <time>2017-07-16T09:44:38Z</time>
      </trkpt>
      <trkpt lat="45.98147" lon="4.84044">
        <ele>273</ele>
        <time>2017-07-16T09:44:39Z</time>
      </trkpt>
      <trkpt lat="45.98144" lon="4.84049">
        <ele>273</ele>
        <time>2017-07-16T09:44:40Z</time>
      </trkpt>
      <trkpt lat="45.9814" lon="4.84053">
        <ele>273</ele>
        <time>2017-07-16T09:44:41Z</time>
      </trkpt>
      <trkpt lat="45.98137" lon="4.84058">
        <ele>273</ele>
        <time>2017-07-16T09:44:42Z</time>
      </trkpt>
      <trkpt lat="45.98133" lon="4.84063">
        <ele>273</ele>
        <time>2017-07-16T09:44:43Z</time>
      </trkpt>
      <trkpt lat="45.98129" lon="4.84068">
        <ele>273</ele>
        <time>2017-07-16T09:44:44Z</time>
      </trkpt>
      <trkpt lat="45.98124" lon="4.84073">
        <ele>273</ele>
        <time>2017-07-16T09:44:45Z</time>
      </trkpt>
      <trkpt lat="45.9812" lon="4.84078">
        <ele>273</ele>
        <time>2017-07-16T09:44:46Z</time>
      </trkpt>
      <trkpt lat="45.98116" lon="4.84082">
        <ele>273</ele>
        <time>2017-07-16T09:44:47Z</time>
      </trkpt>
      <trkpt lat="45.98112" lon="4.84086">
        <ele>273</ele>
        <time>2017-07-16T09:44:48Z</time>
      </trkpt>
      <trkpt lat="45.98108" lon="4.8409">
        <ele>273</ele>
        <time>2017-07-16T09:44:49Z</time>
      </trkpt>
      <trkpt lat="45.98102" lon="4.84099">
        <ele>273</ele>
        <time>2017-07-16T09:44:51Z</time>
      </trkpt>
      <trkpt lat="45.98099" lon="4.84102">
        <ele>273</ele>
        <time>2017-07-16T09:44:52Z</time>
      </trkpt>
      <trkpt lat="45.98091" lon="4.84108">
        <ele>273</ele>
        <time>2017-07-16T09:44:54Z</time>
      </trkpt>
      <trkpt lat="45.98087" lon="4.84112">
        <ele>273</ele>
        <time>2017-07-16T09:44:55Z</time>
      </trkpt>
      <trkpt lat="45.98083" lon="4.84116">
        <ele>273</ele>
        <time>2017-07-16T09:44:56Z</time>
      </trkpt>
      <trkpt lat="45.98079" lon="4.8412">
        <ele>273</ele>
        <time>2017-07-16T09:44:57Z</time>
      </trkpt>
      <trkpt lat="45.98074" lon="4.84124">
        <ele>273</ele>
        <time>2017-07-16T09:44:58Z</time>
      </trkpt>
      <trkpt lat="45.9807" lon="4.84128">
        <ele>273</ele>
        <time>2017-07-16T09:44:59Z</time>
      </trkpt>
      <trkpt lat="45.98065" lon="4.84133">
        <ele>273</ele>
        <time>2017-07-16T09:45:00Z</time>
      </trkpt>
      <trkpt lat="45.9806" lon="4.84137">
        <ele>273</ele>
        <time>2017-07-16T09:45:01Z</time>
      </trkpt>
      <trkpt lat="45.98056" lon="4.84142">
        <ele>273</ele>
        <time>2017-07-16T09:45:02Z</time>
      </trkpt>
      <trkpt lat="45.98051" lon="4.84146">
        <ele>273</ele>
        <time>2017-07-16T09:45:03Z</time>
      </trkpt>
      <trkpt lat="45.98046" lon="4.84151">
        <ele>273</ele>
        <time>2017-07-16T09:45:04Z</time>
      </trkpt>
      <trkpt lat="45.98042" lon="4.84155">
        <ele>273</ele>
        <time>2017-07-16T09:45:05Z</time>
      </trkpt>
      <trkpt lat="45.98038" lon="4.84159">
        <ele>273</ele>
        <time>2017-07-16T09:45:06Z</time>
      </trkpt>
      <trkpt lat="45.98033" lon="4.84163">
        <ele>273</ele>
        <time>2017-07-16T09:45:07Z</time>
      </trkpt>
      <trkpt lat="45.98029" lon="4.84166">
        <ele>273</ele>
        <time>2017-07-16T09:45:08Z</time>
      </trkpt>
      <trkpt lat="45.98024" lon="4.84171">
        <ele>274</ele>
        <time>2017-07-16T09:45:09Z</time>
      </trkpt>
      <trkpt lat="45.9802" lon="4.84175">
        <ele>274</ele>
        <time>2017-07-16T09:45:10Z</time>
      </trkpt>
      <trkpt lat="45.98015" lon="4.84179">
        <ele>274</ele>
        <time>2017-07-16T09:45:11Z</time>
      </trkpt>
      <trkpt lat="45.98011" lon="4.84184">
        <ele>274</ele>
        <time>2017-07-16T09:45:12Z</time>
      </trkpt>
      <trkpt lat="45.98007" lon="4.84188">
        <ele>274</ele>
        <time>2017-07-16T09:45:13Z</time>
      </trkpt>
      <trkpt lat="45.98002" lon="4.84192">
        <ele>274</ele>
        <time>2017-07-16T09:45:14Z</time>
      </trkpt>
      <trkpt lat="45.97998" lon="4.84196">
        <ele>274</ele>
        <time>2017-07-16T09:45:15Z</time>
      </trkpt>
      <trkpt lat="45.97994" lon="4.842">
        <ele>274</ele>
        <time>2017-07-16T09:45:16Z</time>
      </trkpt>
      <trkpt lat="45.97989" lon="4.84204">
        <ele>274</ele>
        <time>2017-07-16T09:45:17Z</time>
      </trkpt>
      <trkpt lat="45.97985" lon="4.84208">
        <ele>274</ele>
        <time>2017-07-16T09:45:18Z</time>
      </trkpt>
      <trkpt lat="45.97981" lon="4.84212">
        <ele>274</ele>
        <time>2017-07-16T09:45:19Z</time>
      </trkpt>
      <trkpt lat="45.97976" lon="4.84216">
        <ele>274</ele>
        <time>2017-07-16T09:45:20Z</time>
      </trkpt>
      <trkpt lat="45.97972" lon="4.84221">
        <ele>274</ele>
        <time>2017-07-16T09:45:21Z</time>
      </trkpt>
      <trkpt lat="45.97967" lon="4.84225">
        <ele>274</ele>
        <time>2017-07-16T09:45:22Z</time>
      </trkpt>
      <trkpt lat="45.97962" lon="4.8423">
        <ele>274</ele>
        <time>2017-07-16T09:45:23Z</time>
      </trkpt>
      <trkpt lat="45.97958" lon="4.84234">
        <ele>275</ele>
        <time>2017-07-16T09:45:24Z</time>
      </trkpt>
      <trkpt lat="45.97954" lon="4.84239">
        <ele>275</ele>
        <time>2017-07-16T09:45:25Z</time>
      </trkpt>
      <trkpt lat="45.97949" lon="4.84243">
        <ele>275</ele>
        <time>2017-07-16T09:45:26Z</time>
      </trkpt>
      <trkpt lat="45.97945" lon="4.84247">
        <ele>275</ele>
        <time>2017-07-16T09:45:27Z</time>
      </trkpt>
      <trkpt lat="45.9794" lon="4.84251">
        <ele>275</ele>
        <time>2017-07-16T09:45:28Z</time>
      </trkpt>
      <trkpt lat="45.97936" lon="4.84255">
        <ele>275</ele>
        <time>2017-07-16T09:45:29Z</time>
      </trkpt>
      <trkpt lat="45.97932" lon="4.8426">
        <ele>275</ele>
        <time>2017-07-16T09:45:30Z</time>
      </trkpt>
      <trkpt lat="45.97928" lon="4.84265">
        <ele>275</ele>
        <time>2017-07-16T09:45:31Z</time>
      </trkpt>
      <trkpt lat="45.97925" lon="4.84271">
        <ele>275</ele>
        <time>2017-07-16T09:45:32Z</time>
      </trkpt>
      <trkpt lat="45.97923" lon="4.84278">
        <ele>275</ele>
        <time>2017-07-16T09:45:33Z</time>
      </trkpt>
      <trkpt lat="45.97921" lon="4.84286">
        <ele>275</ele>
        <time>2017-07-16T09:45:34Z</time>
      </trkpt>
      <trkpt lat="45.9792" lon="4.84295">
        <ele>275</ele>
        <time>2017-07-16T09:45:35Z</time>
      </trkpt>
      <trkpt lat="45.97921" lon="4.84303">
        <ele>275</ele>
        <time>2017-07-16T09:45:36Z</time>
      </trkpt>
      <trkpt lat="45.97922" lon="4.8431">
        <ele>275</ele>
        <time>2017-07-16T09:45:37Z</time>
      </trkpt>
      <trkpt lat="45.97924" lon="4.84317">
        <ele>275</ele>
        <time>2017-07-16T09:45:38Z</time>
      </trkpt>
      <trkpt lat="45.97925" lon="4.84324">
        <ele>275</ele>
        <time>2017-07-16T09:45:39Z</time>
      </trkpt>
      <trkpt lat="45.97926" lon="4.84331">
        <ele>275</ele>
        <time>2017-07-16T09:45:40Z</time>
      </trkpt>
      <trkpt lat="45.97928" lon="4.84338">
        <ele>275</ele>
        <time>2017-07-16T09:45:41Z</time>
      </trkpt>
      <trkpt lat="45.9793" lon="4.8435">
        <ele>275</ele>
        <time>2017-07-16T09:45:43Z</time>
      </trkpt>
      <trkpt lat="45.97931" lon="4.84357">
        <ele>275</ele>
        <time>2017-07-16T09:45:44Z</time>
      </trkpt>
      <trkpt lat="45.97932" lon="4.84364">
        <ele>275</ele>
        <time>2017-07-16T09:45:45Z</time>
      </trkpt>
      <trkpt lat="45.97933" lon="4.84371">
        <ele>275</ele>
        <time>2017-07-16T09:45:46Z</time>
      </trkpt>
      <trkpt lat="45.97934" lon="4.84378">
        <ele>275</ele>
        <time>2017-07-16T09:45:47Z</time>
      </trkpt>
      <trkpt lat="45.97936" lon="4.84385">
        <ele>275</ele>
        <time>2017-07-16T09:45:48Z</time>
      </trkpt>
      <trkpt lat="45.97937" lon="4.84393">
        <ele>275</ele>
        <time>2017-07-16T09:45:49Z</time>
      </trkpt>
      <trkpt lat="45.97938" lon="4.84401">
        <ele>275</ele>
        <time>2017-07-16T09:45:50Z</time>
      </trkpt>
      <trkpt lat="45.97939" lon="4.84408">
        <ele>275</ele>
        <time>2017-07-16T09:45:51Z</time>
      </trkpt>
      <trkpt lat="45.9794" lon="4.84415">
        <ele>275</ele>
        <time>2017-07-16T09:45:52Z</time>
      </trkpt>
      <trkpt lat="45.97942" lon="4.84422">
        <ele>275</ele>
        <time>2017-07-16T09:45:53Z</time>
      </trkpt>
      <trkpt lat="45.97942" lon="4.84429">
        <ele>275</ele>
        <time>2017-07-16T09:45:54Z</time>
      </trkpt>
      <trkpt lat="45.97943" lon="4.84435">
        <ele>275</ele>
        <time>2017-07-16T09:45:55Z</time>
      </trkpt>
      <trkpt lat="45.97944" lon="4.84442">
        <ele>275</ele>
        <time>2017-07-16T09:45:56Z</time>
      </trkpt>
      <trkpt lat="45.97946" lon="4.84454">
        <ele>275</ele>
        <time>2017-07-16T09:45:58Z</time>
      </trkpt>
      <trkpt lat="45.97947" lon="4.8446">
        <ele>275</ele>
        <time>2017-07-16T09:45:59Z</time>
      </trkpt>
      <trkpt lat="45.97948" lon="4.84467">
        <ele>275</ele>
        <time>2017-07-16T09:46:00Z</time>
      </trkpt>
      <trkpt lat="45.9795" lon="4.84474">
        <ele>275</ele>
        <time>2017-07-16T09:46:01Z</time>
      </trkpt>
      <trkpt lat="45.97951" lon="4.84481">
        <ele>275</ele>
        <time>2017-07-16T09:46:02Z</time>
      </trkpt>
      <trkpt lat="45.97952" lon="4.84487">
        <ele>275</ele>
        <time>2017-07-16T09:46:03Z</time>
      </trkpt>
      <trkpt lat="45.97953" lon="4.84494">
        <ele>275</ele>
        <time>2017-07-16T09:46:04Z</time>
      </trkpt>
      <trkpt lat="45.97954" lon="4.845">
        <ele>275</ele>
        <time>2017-07-16T09:46:05Z</time>
      </trkpt>
      <trkpt lat="45.97957" lon="4.84512">
        <ele>275</ele>
        <time>2017-07-16T09:46:07Z</time>
      </trkpt>
      <trkpt lat="45.97957" lon="4.84518">
        <ele>275</ele>
        <time>2017-07-16T09:46:08Z</time>
      </trkpt>
      <trkpt lat="45.9796" lon="4.8453">
        <ele>275</ele>
        <time>2017-07-16T09:46:10Z</time>
      </trkpt>
      <trkpt lat="45.97961" lon="4.84537">
        <ele>275</ele>
        <time>2017-07-16T09:46:11Z</time>
      </trkpt>
      <trkpt lat="45.97962" lon="4.84544">
        <ele>275</ele>
        <time>2017-07-16T09:46:12Z</time>
      </trkpt>
      <trkpt lat="45.97963" lon="4.84551">
        <ele>275</ele>
        <time>2017-07-16T09:46:13Z</time>
      </trkpt>
      <trkpt lat="45.97964" lon="4.84558">
        <ele>275</ele>
        <time>2017-07-16T09:46:14Z</time>
      </trkpt>
      <trkpt lat="45.97965" lon="4.84565">
        <ele>275</ele>
        <time>2017-07-16T09:46:15Z</time>
      </trkpt>
      <trkpt lat="45.97966" lon="4.84572">
        <ele>275</ele>
        <time>2017-07-16T09:46:16Z</time>
      </trkpt>
      <trkpt lat="45.97968" lon="4.84578">
        <ele>275</ele>
        <time>2017-07-16T09:46:17Z</time>
      </trkpt>
      <trkpt lat="45.97969" lon="4.84585">
        <ele>275</ele>
        <time>2017-07-16T09:46:18Z</time>
      </trkpt>
      <trkpt lat="45.9797" lon="4.84591">
        <ele>275</ele>
        <time>2017-07-16T09:46:19Z</time>
      </trkpt>
      <trkpt lat="45.97972" lon="4.84603">
        <ele>275</ele>
        <time>2017-07-16T09:46:21Z</time>
      </trkpt>
      <trkpt lat="45.97972" lon="4.8461">
        <ele>275</ele>
        <time>2017-07-16T09:46:22Z</time>
      </trkpt>
      <trkpt lat="45.97973" lon="4.84616">
        <ele>275</ele>
        <time>2017-07-16T09:46:23Z</time>
      </trkpt>
      <trkpt lat="45.97974" lon="4.84623">
        <ele>275</ele>
        <time>2017-07-16T09:46:24Z</time>
      </trkpt>
      <trkpt lat="45.97976" lon="4.8463">
        <ele>275</ele>
        <time>2017-07-16T09:46:25Z</time>
      </trkpt>
      <trkpt lat="45.97977" lon="4.84637">
        <ele>275</ele>
        <time>2017-07-16T09:46:26Z</time>
      </trkpt>
      <trkpt lat="45.97978" lon="4.84644">
        <ele>275</ele>
        <time>2017-07-16T09:46:27Z</time>
      </trkpt>
      <trkpt lat="45.97979" lon="4.8465">
        <ele>275</ele>
        <time>2017-07-16T09:46:28Z</time>
      </trkpt>
      <trkpt lat="45.97981" lon="4.84662">
        <ele>274</ele>
        <time>2017-07-16T09:46:30Z</time>
      </trkpt>
      <trkpt lat="45.97982" lon="4.84668">
        <ele>275</ele>
        <time>2017-07-16T09:46:31Z</time>
      </trkpt>
      <trkpt lat="45.97983" lon="4.8468">
        <ele>275</ele>
        <time>2017-07-16T09:46:33Z</time>
      </trkpt>
      <trkpt lat="45.97984" lon="4.84686">
        <ele>275</ele>
        <time>2017-07-16T09:46:34Z</time>
      </trkpt>
      <trkpt lat="45.97984" lon="4.84693">
        <ele>275</ele>
        <time>2017-07-16T09:46:35Z</time>
      </trkpt>
      <trkpt lat="45.97985" lon="4.847">
        <ele>275</ele>
        <time>2017-07-16T09:46:36Z</time>
      </trkpt>
      <trkpt lat="45.97987" lon="4.84712">
        <ele>275</ele>
        <time>2017-07-16T09:46:38Z</time>
      </trkpt>
      <trkpt lat="45.97987" lon="4.84718">
        <ele>275</ele>
        <time>2017-07-16T09:46:39Z</time>
      </trkpt>
      <trkpt lat="45.97989" lon="4.84729">
        <ele>275</ele>
        <time>2017-07-16T09:46:41Z</time>
      </trkpt>
      <trkpt lat="45.9799" lon="4.84736">
        <ele>275</ele>
        <time>2017-07-16T09:46:42Z</time>
      </trkpt>
      <trkpt lat="45.9799" lon="4.84747">
        <ele>275</ele>
        <time>2017-07-16T09:46:44Z</time>
      </trkpt>
      <trkpt lat="45.9799" lon="4.84753">
        <ele>275</ele>
        <time>2017-07-16T09:46:45Z</time>
      </trkpt>
      <trkpt lat="45.9799" lon="4.8476">
        <ele>275</ele>
        <time>2017-07-16T09:46:46Z</time>
      </trkpt>
      <trkpt lat="45.9799" lon="4.84767">
        <ele>275</ele>
        <time>2017-07-16T09:46:47Z</time>
      </trkpt>
      <trkpt lat="45.97991" lon="4.84774">
        <ele>274</ele>
        <time>2017-07-16T09:46:48Z</time>
      </trkpt>
      <trkpt lat="45.97991" lon="4.84782">
        <ele>274</ele>
        <time>2017-07-16T09:46:49Z</time>
      </trkpt>
      <trkpt lat="45.97991" lon="4.84789">
        <ele>274</ele>
        <time>2017-07-16T09:46:50Z</time>
      </trkpt>
      <trkpt lat="45.97992" lon="4.84797">
        <ele>274</ele>
        <time>2017-07-16T09:46:51Z</time>
      </trkpt>
      <trkpt lat="45.97992" lon="4.84805">
        <ele>274</ele>
        <time>2017-07-16T09:46:52Z</time>
      </trkpt>
      <trkpt lat="45.97993" lon="4.84812">
        <ele>273</ele>
        <time>2017-07-16T09:46:53Z</time>
      </trkpt>
      <trkpt lat="45.97993" lon="4.84818">
        <ele>273</ele>
        <time>2017-07-16T09:46:54Z</time>
      </trkpt>
      <trkpt lat="45.97993" lon="4.84825">
        <ele>273</ele>
        <time>2017-07-16T09:46:55Z</time>
      </trkpt>
      <trkpt lat="45.97994" lon="4.84832">
        <ele>272</ele>
        <time>2017-07-16T09:46:56Z</time>
      </trkpt>
      <trkpt lat="45.97995" lon="4.84839">
        <ele>272</ele>
        <time>2017-07-16T09:46:57Z</time>
      </trkpt>
      <trkpt lat="45.97996" lon="4.8485">
        <ele>272</ele>
        <time>2017-07-16T09:46:59Z</time>
      </trkpt>
      <trkpt lat="45.97997" lon="4.84856">
        <ele>272</ele>
        <time>2017-07-16T09:47:00Z</time>
      </trkpt>
      <trkpt lat="45.97997" lon="4.84867">
        <ele>272</ele>
        <time>2017-07-16T09:47:02Z</time>
      </trkpt>
      <trkpt lat="45.97997" lon="4.84872">
        <ele>272</ele>
        <time>2017-07-16T09:47:03Z</time>
      </trkpt>
      <trkpt lat="45.97998" lon="4.84882">
        <ele>272</ele>
        <time>2017-07-16T09:47:05Z</time>
      </trkpt>
      <trkpt lat="45.97999" lon="4.84889">
        <ele>272</ele>
        <time>2017-07-16T09:47:06Z</time>
      </trkpt>
      <trkpt lat="45.98" lon="4.84895">
        <ele>272</ele>
        <time>2017-07-16T09:47:07Z</time>
      </trkpt>
      <trkpt lat="45.98" lon="4.84902">
        <ele>272</ele>
        <time>2017-07-16T09:47:08Z</time>
      </trkpt>
      <trkpt lat="45.98001" lon="4.84909">
        <ele>272</ele>
        <time>2017-07-16T09:47:09Z</time>
      </trkpt>
      <trkpt lat="45.98002" lon="4.84917">
        <ele>272</ele>
        <time>2017-07-16T09:47:10Z</time>
      </trkpt>
      <trkpt lat="45.98003" lon="4.84925">
        <ele>272</ele>
        <time>2017-07-16T09:47:11Z</time>
      </trkpt>
      <trkpt lat="45.98004" lon="4.84933">
        <ele>272</ele>
        <time>2017-07-16T09:47:12Z</time>
      </trkpt>
      <trkpt lat="45.98005" lon="4.84941">
        <ele>272</ele>
        <time>2017-07-16T09:47:13Z</time>
      </trkpt>
      <trkpt lat="45.98005" lon="4.84949">
        <ele>272</ele>
        <time>2017-07-16T09:47:14Z</time>
      </trkpt>
      <trkpt lat="45.98006" lon="4.84956">
        <ele>272</ele>
        <time>2017-07-16T09:47:15Z</time>
      </trkpt>
      <trkpt lat="45.98006" lon="4.84963">
        <ele>272</ele>
        <time>2017-07-16T09:47:16Z</time>
      </trkpt>
      <trkpt lat="45.98006" lon="4.84969">
        <ele>272</ele>
        <time>2017-07-16T09:47:17Z</time>
      </trkpt>
      <trkpt lat="45.98007" lon="4.84976">
        <ele>272</ele>
        <time>2017-07-16T09:47:18Z</time>
      </trkpt>
      <trkpt lat="45.98008" lon="4.84989">
        <ele>272</ele>
        <time>2017-07-16T09:47:20Z</time>
      </trkpt>
      <trkpt lat="45.98009" lon="4.84996">
        <ele>272</ele>
        <time>2017-07-16T09:47:21Z</time>
      </trkpt>
      <trkpt lat="45.98009" lon="4.85005">
        <ele>272</ele>
        <time>2017-07-16T09:47:22Z</time>
      </trkpt>
      <trkpt lat="45.9801" lon="4.85012">
        <ele>272</ele>
        <time>2017-07-16T09:47:23Z</time>
      </trkpt>
      <trkpt lat="45.98011" lon="4.8502">
        <ele>273</ele>
        <time>2017-07-16T09:47:24Z</time>
      </trkpt>
      <trkpt lat="45.98011" lon="4.85028">
        <ele>273</ele>
        <time>2017-07-16T09:47:25Z</time>
      </trkpt>
      <trkpt lat="45.98012" lon="4.85036">
        <ele>273</ele>
        <time>2017-07-16T09:47:26Z</time>
      </trkpt>
      <trkpt lat="45.98012" lon="4.85044">
        <ele>273</ele>
        <time>2017-07-16T09:47:27Z</time>
      </trkpt>
      <trkpt lat="45.98012" lon="4.85051">
        <ele>273</ele>
        <time>2017-07-16T09:47:28Z</time>
      </trkpt>
      <trkpt lat="45.98012" lon="4.85058">
        <ele>273</ele>
        <time>2017-07-16T09:47:29Z</time>
      </trkpt>
      <trkpt lat="45.98012" lon="4.8507">
        <ele>273</ele>
        <time>2017-07-16T09:47:31Z</time>
      </trkpt>
      <trkpt lat="45.98012" lon="4.85076">
        <ele>273</ele>
        <time>2017-07-16T09:47:32Z</time>
      </trkpt>
      <trkpt lat="45.98012" lon="4.85083">
        <ele>273</ele>
        <time>2017-07-16T09:47:33Z</time>
      </trkpt>
      <trkpt lat="45.98013" lon="4.8509">
        <ele>274</ele>
        <time>2017-07-16T09:47:34Z</time>
      </trkpt>
      <trkpt lat="45.98015" lon="4.85098">
        <ele>274</ele>
        <time>2017-07-16T09:47:35Z</time>
      </trkpt>
      <trkpt lat="45.98016" lon="4.85105">
        <ele>274</ele>
        <time>2017-07-16T09:47:36Z</time>
      </trkpt>
      <trkpt lat="45.98018" lon="4.85112">
        <ele>274</ele>
        <time>2017-07-16T09:47:37Z</time>
      </trkpt>
      <trkpt lat="45.9802" lon="4.85119">
        <ele>274</ele>
        <time>2017-07-16T09:47:38Z</time>
      </trkpt>
      <trkpt lat="45.98022" lon="4.85126">
        <ele>274</ele>
        <time>2017-07-16T09:47:39Z</time>
      </trkpt>
      <trkpt lat="45.98024" lon="4.85132">
        <ele>274</ele>
        <time>2017-07-16T09:47:40Z</time>
      </trkpt>
      <trkpt lat="45.98028" lon="4.85143">
        <ele>275</ele>
        <time>2017-07-16T09:47:42Z</time>
      </trkpt>
      <trkpt lat="45.98029" lon="4.85148">
        <ele>275</ele>
        <time>2017-07-16T09:47:43Z</time>
      </trkpt>
      <trkpt lat="45.98033" lon="4.85159">
        <ele>275</ele>
        <time>2017-07-16T09:47:45Z</time>
      </trkpt>
      <trkpt lat="45.98035" lon="4.85165">
        <ele>275</ele>
        <time>2017-07-16T09:47:46Z</time>
      </trkpt>
      <trkpt lat="45.98039" lon="4.85176">
        <ele>276</ele>
        <time>2017-07-16T09:47:48Z</time>
      </trkpt>
      <trkpt lat="45.98041" lon="4.85182">
        <ele>276</ele>
        <time>2017-07-16T09:47:49Z</time>
      </trkpt>
      <trkpt lat="45.98044" lon="4.85193">
        <ele>276</ele>
        <time>2017-07-16T09:47:51Z</time>
      </trkpt>
      <trkpt lat="45.98046" lon="4.85198">
        <ele>276</ele>
        <time>2017-07-16T09:47:52Z</time>
      </trkpt>
      <trkpt lat="45.98048" lon="4.85207">
        <ele>276</ele>
        <time>2017-07-16T09:47:54Z</time>
      </trkpt>
      <trkpt lat="45.9805" lon="4.85212">
        <ele>276</ele>
        <time>2017-07-16T09:47:55Z</time>
      </trkpt>
      <trkpt lat="45.98053" lon="4.85222">
        <ele>276</ele>
        <time>2017-07-16T09:47:57Z</time>
      </trkpt>
      <trkpt lat="45.98055" lon="4.85227">
        <ele>276</ele>
        <time>2017-07-16T09:47:58Z</time>
      </trkpt>
      <trkpt lat="45.98058" lon="4.85232">
        <ele>276</ele>
        <time>2017-07-16T09:47:59Z</time>
      </trkpt>
      <trkpt lat="45.98061" lon="4.85237">
        <ele>276</ele>
        <time>2017-07-16T09:48:00Z</time>
      </trkpt>
      <trkpt lat="45.98066" lon="4.85247">
        <ele>276</ele>
        <time>2017-07-16T09:48:02Z</time>
      </trkpt>
      <trkpt lat="45.98069" lon="4.85252">
        <ele>276</ele>
        <time>2017-07-16T09:48:03Z</time>
      </trkpt>
      <trkpt lat="45.98074" lon="4.85262">
        <ele>276</ele>
        <time>2017-07-16T09:48:05Z</time>
      </trkpt>
      <trkpt lat="45.98076" lon="4.85267">
        <ele>276</ele>
        <time>2017-07-16T09:48:06Z</time>
      </trkpt>
      <trkpt lat="45.98081" lon="4.85277">
        <ele>276</ele>
        <time>2017-07-16T09:48:08Z</time>
      </trkpt>
      <trkpt lat="45.98083" lon="4.85283">
        <ele>276</ele>
        <time>2017-07-16T09:48:09Z</time>
      </trkpt>
      <trkpt lat="45.98086" lon="4.85288">
        <ele>276</ele>
        <time>2017-07-16T09:48:10Z</time>
      </trkpt>
      <trkpt lat="45.98089" lon="4.85294">
        <ele>276</ele>
        <time>2017-07-16T09:48:11Z</time>
      </trkpt>
      <trkpt lat="45.98091" lon="4.853">
        <ele>276</ele>
        <time>2017-07-16T09:48:12Z</time>
      </trkpt>
      <trkpt lat="45.98094" lon="4.85306">
        <ele>276</ele>
        <time>2017-07-16T09:48:13Z</time>
      </trkpt>
      <trkpt lat="45.98099" lon="4.85316">
        <ele>276</ele>
        <time>2017-07-16T09:48:15Z</time>
      </trkpt>
      <trkpt lat="45.98102" lon="4.8532">
        <ele>276</ele>
        <time>2017-07-16T09:48:16Z</time>
      </trkpt>
      <trkpt lat="45.98107" lon="4.85329">
        <ele>276</ele>
        <time>2017-07-16T09:48:18Z</time>
      </trkpt>
      <trkpt lat="45.98109" lon="4.85334">
        <ele>276</ele>
        <time>2017-07-16T09:48:19Z</time>
      </trkpt>
      <trkpt lat="45.98114" lon="4.85344">
        <ele>276</ele>
        <time>2017-07-16T09:48:21Z</time>
      </trkpt>
      <trkpt lat="45.98117" lon="4.85349">
        <ele>276</ele>
        <time>2017-07-16T09:48:22Z</time>
      </trkpt>
      <trkpt lat="45.98121" lon="4.85355">
        <ele>276</ele>
        <time>2017-07-16T09:48:23Z</time>
      </trkpt>
      <trkpt lat="45.98123" lon="4.85361">
        <ele>276</ele>
        <time>2017-07-16T09:48:24Z</time>
      </trkpt>
      <trkpt lat="45.98126" lon="4.85367">
        <ele>276</ele>
        <time>2017-07-16T09:48:25Z</time>
      </trkpt>
      <trkpt lat="45.98128" lon="4.85372">
        <ele>276</ele>
        <time>2017-07-16T09:48:26Z</time>
      </trkpt>
      <trkpt lat="45.98131" lon="4.85383">
        <ele>276</ele>
        <time>2017-07-16T09:48:28Z</time>
      </trkpt>
      <trkpt lat="45.98132" lon="4.85389">
        <ele>276</ele>
        <time>2017-07-16T09:48:29Z</time>
      </trkpt>
      <trkpt lat="45.98136" lon="4.854">
        <ele>276</ele>
        <time>2017-07-16T09:48:31Z</time>
      </trkpt>
      <trkpt lat="45.98139" lon="4.85406">
        <ele>276</ele>
        <time>2017-07-16T09:48:32Z</time>
      </trkpt>
      <trkpt lat="45.98141" lon="4.85412">
        <ele>276</ele>
        <time>2017-07-16T09:48:33Z</time>
      </trkpt>
      <trkpt lat="45.98143" lon="4.85418">
        <ele>276</ele>
        <time>2017-07-16T09:48:34Z</time>
      </trkpt>
      <trkpt lat="45.98146" lon="4.85425">
        <ele>276</ele>
        <time>2017-07-16T09:48:35Z</time>
      </trkpt>
      <trkpt lat="45.98148" lon="4.85431">
        <ele>276</ele>
        <time>2017-07-16T09:48:36Z</time>
      </trkpt>
      <trkpt lat="45.9815" lon="4.85438">
        <ele>276</ele>
        <time>2017-07-16T09:48:37Z</time>
      </trkpt>
      <trkpt lat="45.98153" lon="4.85444">
        <ele>276</ele>
        <time>2017-07-16T09:48:38Z</time>
      </trkpt>
      <trkpt lat="45.98155" lon="4.8545">
        <ele>276</ele>
        <time>2017-07-16T09:48:39Z</time>
      </trkpt>
      <trkpt lat="45.98158" lon="4.85455">
        <ele>276</ele>
        <time>2017-07-16T09:48:40Z</time>
      </trkpt>
      <trkpt lat="45.98161" lon="4.85465">
        <ele>275</ele>
        <time>2017-07-16T09:48:42Z</time>
      </trkpt>
      <trkpt lat="45.98163" lon="4.85469">
        <ele>275</ele>
        <time>2017-07-16T09:48:43Z</time>
      </trkpt>
      <trkpt lat="45.98167" lon="4.85479">
        <ele>275</ele>
        <time>2017-07-16T09:48:45Z</time>
      </trkpt>
      <trkpt lat="45.98169" lon="4.85484">
        <ele>275</ele>
        <time>2017-07-16T09:48:46Z</time>
      </trkpt>
      <trkpt lat="45.98171" lon="4.8549">
        <ele>275</ele>
        <time>2017-07-16T09:48:47Z</time>
      </trkpt>
      <trkpt lat="45.98174" lon="4.85496">
        <ele>275</ele>
        <time>2017-07-16T09:48:48Z</time>
      </trkpt>
      <trkpt lat="45.98176" lon="4.85502">
        <ele>275</ele>
        <time>2017-07-16T09:48:49Z</time>
      </trkpt>
      <trkpt lat="45.98179" lon="4.85508">
        <ele>275</ele>
        <time>2017-07-16T09:48:50Z</time>
      </trkpt>
      <trkpt lat="45.98182" lon="4.85519">
        <ele>275</ele>
        <time>2017-07-16T09:48:52Z</time>
      </trkpt>
      <trkpt lat="45.98184" lon="4.85524">
        <ele>276</ele>
        <time>2017-07-16T09:48:53Z</time>
      </trkpt>
      <trkpt lat="45.98188" lon="4.85533">
        <ele>276</ele>
        <time>2017-07-16T09:48:55Z</time>
      </trkpt>
      <trkpt lat="45.9819" lon="4.85538">
        <ele>276</ele>
        <time>2017-07-16T09:48:56Z</time>
      </trkpt>
      <trkpt lat="45.98194" lon="4.85549">
        <ele>276</ele>
        <time>2017-07-16T09:48:58Z</time>
      </trkpt>
      <trkpt lat="45.98196" lon="4.85554">
        <ele>276</ele>
        <time>2017-07-16T09:48:59Z</time>
      </trkpt>
      <trkpt lat="45.98198" lon="4.8556">
        <ele>276</ele>
        <time>2017-07-16T09:49:00Z</time>
      </trkpt>
      <trkpt lat="45.98201" lon="4.85565">
        <ele>276</ele>
        <time>2017-07-16T09:49:01Z</time>
      </trkpt>
      <trkpt lat="45.98203" lon="4.85571">
        <ele>276</ele>
        <time>2017-07-16T09:49:02Z</time>
      </trkpt>
      <trkpt lat="45.98205" lon="4.85577">
        <ele>276</ele>
        <time>2017-07-16T09:49:03Z</time>
      </trkpt>
      <trkpt lat="45.98208" lon="4.85583">
        <ele>276</ele>
        <time>2017-07-16T09:49:04Z</time>
      </trkpt>
      <trkpt lat="45.9821" lon="4.85589">
        <ele>277</ele>
        <time>2017-07-16T09:49:05Z</time>
      </trkpt>
      <trkpt lat="45.98213" lon="4.85595">
        <ele>277</ele>
        <time>2017-07-16T09:49:06Z</time>
      </trkpt>
      <trkpt lat="45.98215" lon="4.856">
        <ele>277</ele>
        <time>2017-07-16T09:49:07Z</time>
      </trkpt>
      <trkpt lat="45.9822" lon="4.8561">
        <ele>277</ele>
        <time>2017-07-16T09:49:09Z</time>
      </trkpt>
      <trkpt lat="45.98222" lon="4.85615">
        <ele>277</ele>
        <time>2017-07-16T09:49:10Z</time>
      </trkpt>
      <trkpt lat="45.98225" lon="4.85625">
        <ele>277</ele>
        <time>2017-07-16T09:49:12Z</time>
      </trkpt>
      <trkpt lat="45.98227" lon="4.8563">
        <ele>277</ele>
        <time>2017-07-16T09:49:13Z</time>
      </trkpt>
      <trkpt lat="45.98231" lon="4.8564">
        <ele>277</ele>
        <time>2017-07-16T09:49:15Z</time>
      </trkpt>
      <trkpt lat="45.98233" lon="4.85646">
        <ele>277</ele>
        <time>2017-07-16T09:49:16Z</time>
      </trkpt>
      <trkpt lat="45.98237" lon="4.85657">
        <ele>276</ele>
        <time>2017-07-16T09:49:18Z</time>
      </trkpt>
      <trkpt lat="45.98239" lon="4.85662">
        <ele>276</ele>
        <time>2017-07-16T09:49:19Z</time>
      </trkpt>
      <trkpt lat="45.98241" lon="4.85671">
        <ele>276</ele>
        <time>2017-07-16T09:49:21Z</time>
      </trkpt>
      <trkpt lat="45.98243" lon="4.85676">
        <ele>276</ele>
        <time>2017-07-16T09:49:22Z</time>
      </trkpt>
      <trkpt lat="45.98247" lon="4.85685">
        <ele>276</ele>
        <time>2017-07-16T09:49:24Z</time>
      </trkpt>
      <trkpt lat="45.98249" lon="4.8569">
        <ele>276</ele>
        <time>2017-07-16T09:49:25Z</time>
      </trkpt>
      <trkpt lat="45.98254" lon="4.857">
        <ele>275</ele>
        <time>2017-07-16T09:49:27Z</time>
      </trkpt>
      <trkpt lat="45.98257" lon="4.85706">
        <ele>275</ele>
        <time>2017-07-16T09:49:28Z</time>
      </trkpt>
      <trkpt lat="45.98261" lon="4.85716">
        <ele>275</ele>
        <time>2017-07-16T09:49:30Z</time>
      </trkpt>
      <trkpt lat="45.98263" lon="4.85721">
        <ele>275</ele>
        <time>2017-07-16T09:49:31Z</time>
      </trkpt>
      <trkpt lat="45.98266" lon="4.85731">
        <ele>275</ele>
        <time>2017-07-16T09:49:33Z</time>
      </trkpt>
      <trkpt lat="45.98268" lon="4.85736">
        <ele>275</ele>
        <time>2017-07-16T09:49:34Z</time>
      </trkpt>
      <trkpt lat="45.98271" lon="4.85745">
        <ele>275</ele>
        <time>2017-07-16T09:49:36Z</time>
      </trkpt>
      <trkpt lat="45.98272" lon="4.85748">
        <ele>275</ele>
        <time>2017-07-16T09:49:37Z</time>
      </trkpt>
      <trkpt lat="45.98272" lon="4.8575">
        <ele>275</ele>
        <time>2017-07-16T09:49:38Z</time>
      </trkpt>
      <trkpt lat="45.98273" lon="4.85751">
        <ele>275</ele>
        <time>2017-07-16T09:49:39Z</time>
      </trkpt>
      <trkpt lat="45.98273" lon="4.85751">
        <ele>275</ele>
        <time>2017-07-16T09:51:10Z</time>
      </trkpt>
      <trkpt lat="45.98275" lon="4.85754">
        <ele>275</ele>
        <time>2017-07-16T09:51:11Z</time>
      </trkpt>
      <trkpt lat="45.9828" lon="4.85762">
        <ele>275</ele>
        <time>2017-07-16T09:51:15Z</time>
      </trkpt>
      <trkpt lat="45.98282" lon="4.85766">
        <ele>275</ele>
        <time>2017-07-16T09:51:16Z</time>
      </trkpt>
      <trkpt lat="45.98286" lon="4.85775">
        <ele>275</ele>
        <time>2017-07-16T09:51:18Z</time>
      </trkpt>
      <trkpt lat="45.98288" lon="4.85781">
        <ele>275</ele>
        <time>2017-07-16T09:51:19Z</time>
      </trkpt>
      <trkpt lat="45.98289" lon="4.85787">
        <ele>275</ele>
        <time>2017-07-16T09:51:20Z</time>
      </trkpt>
      <trkpt lat="45.98292" lon="4.85793">
        <ele>275</ele>
        <time>2017-07-16T09:51:21Z</time>
      </trkpt>
      <trkpt lat="45.98294" lon="4.85799">
        <ele>275</ele>
        <time>2017-07-16T09:51:22Z</time>
      </trkpt>
      <trkpt lat="45.98296" lon="4.85805">
        <ele>275</ele>
        <time>2017-07-16T09:51:23Z</time>
      </trkpt>
      <trkpt lat="45.98298" lon="4.85811">
        <ele>275</ele>
        <time>2017-07-16T09:51:24Z</time>
      </trkpt>
      <trkpt lat="45.98301" lon="4.85816">
        <ele>275</ele>
        <time>2017-07-16T09:51:25Z</time>
      </trkpt>
      <trkpt lat="45.98304" lon="4.85827">
        <ele>275</ele>
        <time>2017-07-16T09:51:27Z</time>
      </trkpt>
      <trkpt lat="45.98306" lon="4.85831">
        <ele>275</ele>
        <time>2017-07-16T09:51:28Z</time>
      </trkpt>
      <trkpt lat="45.9831" lon="4.8584">
        <ele>276</ele>
        <time>2017-07-16T09:51:30Z</time>
      </trkpt>
      <trkpt lat="45.98312" lon="4.85844">
        <ele>276</ele>
        <time>2017-07-16T09:51:31Z</time>
      </trkpt>
      <trkpt lat="45.98316" lon="4.85853">
        <ele>276</ele>
        <time>2017-07-16T09:51:33Z</time>
      </trkpt>
      <trkpt lat="45.98318" lon="4.85858">
        <ele>276</ele>
        <time>2017-07-16T09:51:34Z</time>
      </trkpt>
      <trkpt lat="45.98321" lon="4.85863">
        <ele>276</ele>
        <time>2017-07-16T09:51:35Z</time>
      </trkpt>
      <trkpt lat="45.98323" lon="4.85869">
        <ele>276</ele>
        <time>2017-07-16T09:51:36Z</time>
      </trkpt>
      <trkpt lat="45.98327" lon="4.8588">
        <ele>276</ele>
        <time>2017-07-16T09:51:38Z</time>
      </trkpt>
      <trkpt lat="45.98329" lon="4.85885">
        <ele>276</ele>
        <time>2017-07-16T09:51:39Z</time>
      </trkpt>
      <trkpt lat="45.98332" lon="4.85894">
        <ele>276</ele>
        <time>2017-07-16T09:51:41Z</time>
      </trkpt>
      <trkpt lat="45.98334" lon="4.85899">
        <ele>276</ele>
        <time>2017-07-16T09:51:42Z</time>
      </trkpt>
      <trkpt lat="45.98337" lon="4.85907">
        <ele>276</ele>
        <time>2017-07-16T09:51:44Z</time>
      </trkpt>
      <trkpt lat="45.98339" lon="4.85911">
        <ele>276</ele>
        <time>2017-07-16T09:51:45Z</time>
      </trkpt>
      <trkpt lat="45.98344" lon="4.85921">
        <ele>276</ele>
        <time>2017-07-16T09:51:47Z</time>
      </trkpt>
      <trkpt lat="45.98346" lon="4.85927">
        <ele>276</ele>
        <time>2017-07-16T09:51:48Z</time>
      </trkpt>
      <trkpt lat="45.98349" lon="4.85933">
        <ele>276</ele>
        <time>2017-07-16T09:51:49Z</time>
      </trkpt>
      <trkpt lat="45.98351" lon="4.85939">
        <ele>276</ele>
        <time>2017-07-16T09:51:50Z</time>
      </trkpt>
      <trkpt lat="45.98356" lon="4.8595">
        <ele>276</ele>
        <time>2017-07-16T09:51:52Z</time>
      </trkpt>
      <trkpt lat="45.98358" lon="4.85956">
        <ele>276</ele>
        <time>2017-07-16T09:51:53Z</time>
      </trkpt>
      <trkpt lat="45.98359" lon="4.85962">
        <ele>276</ele>
        <time>2017-07-16T09:51:54Z</time>
      </trkpt>
      <trkpt lat="45.98362" lon="4.85967">
        <ele>276</ele>
        <time>2017-07-16T09:51:55Z</time>
      </trkpt>
      <trkpt lat="45.98366" lon="4.85977">
        <ele>276</ele>
        <time>2017-07-16T09:51:57Z</time>
      </trkpt>
      <trkpt lat="45.98368" lon="4.85983">
        <ele>276</ele>
        <time>2017-07-16T09:51:58Z</time>
      </trkpt>
      <trkpt lat="45.98372" lon="4.85994">
        <ele>277</ele>
        <time>2017-07-16T09:52:00Z</time>
      </trkpt>
      <trkpt lat="45.98374" lon="4.86">
        <ele>277</ele>
        <time>2017-07-16T09:52:01Z</time>
      </trkpt>
      <trkpt lat="45.98377" lon="4.86011">
        <ele>277</ele>
        <time>2017-07-16T09:52:03Z</time>
      </trkpt>
      <trkpt lat="45.98378" lon="4.86017">
        <ele>277</ele>
        <time>2017-07-16T09:52:04Z</time>
      </trkpt>
      <trkpt lat="45.98382" lon="4.86028">
        <ele>277</ele>
        <time>2017-07-16T09:52:06Z</time>
      </trkpt>
      <trkpt lat="45.98383" lon="4.86033">
        <ele>277</ele>
        <time>2017-07-16T09:52:07Z</time>
      </trkpt>
      <trkpt lat="45.98386" lon="4.86045">
        <ele>277</ele>
        <time>2017-07-16T09:52:09Z</time>
      </trkpt>
      <trkpt lat="45.98388" lon="4.86051">
        <ele>277</ele>
        <time>2017-07-16T09:52:10Z</time>
      </trkpt>
      <trkpt lat="45.9839" lon="4.86058">
        <ele>277</ele>
        <time>2017-07-16T09:52:11Z</time>
      </trkpt>
      <trkpt lat="45.98392" lon="4.86065">
        <ele>277</ele>
        <time>2017-07-16T09:52:12Z</time>
      </trkpt>
      <trkpt lat="45.98394" lon="4.86071">
        <ele>277</ele>
        <time>2017-07-16T09:52:13Z</time>
      </trkpt>
      <trkpt lat="45.98396" lon="4.86078">
        <ele>277</ele>
        <time>2017-07-16T09:52:14Z</time>
      </trkpt>
      <trkpt lat="45.98397" lon="4.86085">
        <ele>277</ele>
        <time>2017-07-16T09:52:15Z</time>
      </trkpt>
      <trkpt lat="45.98398" lon="4.86093">
        <ele>277</ele>
        <time>2017-07-16T09:52:16Z</time>
      </trkpt>
      <trkpt lat="45.98399" lon="4.861">
        <ele>277</ele>
        <time>2017-07-16T09:52:17Z</time>
      </trkpt>
      <trkpt lat="45.98401" lon="4.86107">
        <ele>277</ele>
        <time>2017-07-16T09:52:18Z</time>
      </trkpt>
      <trkpt lat="45.98404" lon="4.86113">
        <ele>277</ele>
        <time>2017-07-16T09:52:19Z</time>
      </trkpt>
      <trkpt lat="45.98406" lon="4.8612">
        <ele>277</ele>
        <time>2017-07-16T09:52:20Z</time>
      </trkpt>
      <trkpt lat="45.98407" lon="4.86126">
        <ele>276</ele>
        <time>2017-07-16T09:52:21Z</time>
      </trkpt>
      <trkpt lat="45.98408" lon="4.86133">
        <ele>276</ele>
        <time>2017-07-16T09:52:22Z</time>
      </trkpt>
      <trkpt lat="45.98409" lon="4.86139">
        <ele>276</ele>
        <time>2017-07-16T09:52:23Z</time>
      </trkpt>
      <trkpt lat="45.9841" lon="4.86146">
        <ele>276</ele>
        <time>2017-07-16T09:52:24Z</time>
      </trkpt>
      <trkpt lat="45.98413" lon="4.86157">
        <ele>276</ele>
        <time>2017-07-16T09:52:26Z</time>
      </trkpt>
      <trkpt lat="45.98414" lon="4.86163">
        <ele>276</ele>
        <time>2017-07-16T09:52:27Z</time>
      </trkpt>
      <trkpt lat="45.98415" lon="4.86173">
        <ele>276</ele>
        <time>2017-07-16T09:52:29Z</time>
      </trkpt>
      <trkpt lat="45.98416" lon="4.86177">
        <ele>276</ele>
        <time>2017-07-16T09:52:30Z</time>
      </trkpt>
      <trkpt lat="45.98417" lon="4.86187">
        <ele>276</ele>
        <time>2017-07-16T09:52:32Z</time>
      </trkpt>
      <trkpt lat="45.98417" lon="4.86192">
        <ele>275</ele>
        <time>2017-07-16T09:52:33Z</time>
      </trkpt>
      <trkpt lat="45.98419" lon="4.86203">
        <ele>275</ele>
        <time>2017-07-16T09:52:35Z</time>
      </trkpt>
      <trkpt lat="45.98421" lon="4.86208">
        <ele>275</ele>
        <time>2017-07-16T09:52:36Z</time>
      </trkpt>
      <trkpt lat="45.98423" lon="4.86219">
        <ele>275</ele>
        <time>2017-07-16T09:52:38Z</time>
      </trkpt>
      <trkpt lat="45.98424" lon="4.86225">
        <ele>275</ele>
        <time>2017-07-16T09:52:39Z</time>
      </trkpt>
      <trkpt lat="45.98425" lon="4.86231">
        <ele>275</ele>
        <time>2017-07-16T09:52:40Z</time>
      </trkpt>
      <trkpt lat="45.98426" lon="4.86239">
        <ele>275</ele>
        <time>2017-07-16T09:52:41Z</time>
      </trkpt>
      <trkpt lat="45.98427" lon="4.86246">
        <ele>275</ele>
        <time>2017-07-16T09:52:42Z</time>
      </trkpt>
      <trkpt lat="45.98428" lon="4.86254">
        <ele>275</ele>
        <time>2017-07-16T09:52:43Z</time>
      </trkpt>
      <trkpt lat="45.98429" lon="4.86262">
        <ele>275</ele>
        <time>2017-07-16T09:52:44Z</time>
      </trkpt>
      <trkpt lat="45.9843" lon="4.86271">
        <ele>275</ele>
        <time>2017-07-16T09:52:45Z</time>
      </trkpt>
      <trkpt lat="45.98432" lon="4.8628">
        <ele>276</ele>
        <time>2017-07-16T09:52:46Z</time>
      </trkpt>
      <trkpt lat="45.98434" lon="4.86289">
        <ele>276</ele>
        <time>2017-07-16T09:52:47Z</time>
      </trkpt>
      <trkpt lat="45.98436" lon="4.86298">
        <ele>276</ele>
        <time>2017-07-16T09:52:48Z</time>
      </trkpt>
      <trkpt lat="45.98438" lon="4.86308">
        <ele>276</ele>
        <time>2017-07-16T09:52:49Z</time>
      </trkpt>
      <trkpt lat="45.9844" lon="4.86319">
        <ele>276</ele>
        <time>2017-07-16T09:52:50Z</time>
      </trkpt>
      <trkpt lat="45.98442" lon="4.86329">
        <ele>276</ele>
        <time>2017-07-16T09:52:51Z</time>
      </trkpt>
      <trkpt lat="45.98444" lon="4.86338">
        <ele>277</ele>
        <time>2017-07-16T09:52:52Z</time>
      </trkpt>
      <trkpt lat="45.98447" lon="4.86347">
        <ele>277</ele>
        <time>2017-07-16T09:52:53Z</time>
      </trkpt>
      <trkpt lat="45.98449" lon="4.86355">
        <ele>277</ele>
        <time>2017-07-16T09:52:54Z</time>
      </trkpt>
      <trkpt lat="45.98452" lon="4.86364">
        <ele>277</ele>
        <time>2017-07-16T09:52:55Z</time>
      </trkpt>
      <trkpt lat="45.98454" lon="4.86372">
        <ele>277</ele>
        <time>2017-07-16T09:52:56Z</time>
      </trkpt>
      <trkpt lat="45.98457" lon="4.86379">
        <ele>277</ele>
        <time>2017-07-16T09:52:57Z</time>
      </trkpt>
      <trkpt lat="45.9846" lon="4.86387">
        <ele>277</ele>
        <time>2017-07-16T09:52:58Z</time>
      </trkpt>
      <trkpt lat="45.98463" lon="4.86395">
        <ele>277</ele>
        <time>2017-07-16T09:52:59Z</time>
      </trkpt>
      <trkpt lat="45.98467" lon="4.86402">
        <ele>277</ele>
        <time>2017-07-16T09:53:00Z</time>
      </trkpt>
      <trkpt lat="45.9847" lon="4.86409">
        <ele>277</ele>
        <time>2017-07-16T09:53:01Z</time>
      </trkpt>
      <trkpt lat="45.98472" lon="4.86415">
        <ele>277</ele>
        <time>2017-07-16T09:53:02Z</time>
      </trkpt>
      <trkpt lat="45.98475" lon="4.86422">
        <ele>278</ele>
        <time>2017-07-16T09:53:03Z</time>
      </trkpt>
      <trkpt lat="45.98478" lon="4.86428">
        <ele>278</ele>
        <time>2017-07-16T09:53:04Z</time>
      </trkpt>
      <trkpt lat="45.98481" lon="4.86434">
        <ele>278</ele>
        <time>2017-07-16T09:53:05Z</time>
      </trkpt>
      <trkpt lat="45.98484" lon="4.8644">
        <ele>278</ele>
        <time>2017-07-16T09:53:06Z</time>
      </trkpt>
      <trkpt lat="45.98487" lon="4.86446">
        <ele>278</ele>
        <time>2017-07-16T09:53:07Z</time>
      </trkpt>
      <trkpt lat="45.98492" lon="4.86456">
        <ele>278</ele>
        <time>2017-07-16T09:53:09Z</time>
      </trkpt>
      <trkpt lat="45.98495" lon="4.86461">
        <ele>278</ele>
        <time>2017-07-16T09:53:10Z</time>
      </trkpt>
      <trkpt lat="45.98499" lon="4.8647">
        <ele>279</ele>
        <time>2017-07-16T09:53:12Z</time>
      </trkpt>
      <trkpt lat="45.98502" lon="4.86475">
        <ele>278</ele>
        <time>2017-07-16T09:53:13Z</time>
      </trkpt>
      <trkpt lat="45.98507" lon="4.86485">
        <ele>279</ele>
        <time>2017-07-16T09:53:15Z</time>
      </trkpt>
      <trkpt lat="45.98509" lon="4.86489">
        <ele>279</ele>
        <time>2017-07-16T09:53:16Z</time>
      </trkpt>
      <trkpt lat="45.98512" lon="4.86495">
        <ele>279</ele>
        <time>2017-07-16T09:53:17Z</time>
      </trkpt>
      <trkpt lat="45.98516" lon="4.86502">
        <ele>279</ele>
        <time>2017-07-16T09:53:18Z</time>
      </trkpt>
      <trkpt lat="45.98519" lon="4.86508">
        <ele>279</ele>
        <time>2017-07-16T09:53:19Z</time>
      </trkpt>
      <trkpt lat="45.98522" lon="4.86514">
        <ele>279</ele>
        <time>2017-07-16T09:53:20Z</time>
      </trkpt>
      <trkpt lat="45.98525" lon="4.8652">
        <ele>279</ele>
        <time>2017-07-16T09:53:21Z</time>
      </trkpt>
      <trkpt lat="45.98528" lon="4.86526">
        <ele>279</ele>
        <time>2017-07-16T09:53:22Z</time>
      </trkpt>
      <trkpt lat="45.98531" lon="4.86532">
        <ele>279</ele>
        <time>2017-07-16T09:53:23Z</time>
      </trkpt>
      <trkpt lat="45.98533" lon="4.86538">
        <ele>279</ele>
        <time>2017-07-16T09:53:24Z</time>
      </trkpt>
      <trkpt lat="45.98535" lon="4.86545">
        <ele>278</ele>
        <time>2017-07-16T09:53:25Z</time>
      </trkpt>
      <trkpt lat="45.98538" lon="4.86551">
        <ele>278</ele>
        <time>2017-07-16T09:53:26Z</time>
      </trkpt>
      <trkpt lat="45.9854" lon="4.86557">
        <ele>278</ele>
        <time>2017-07-16T09:53:27Z</time>
      </trkpt>
      <trkpt lat="45.98542" lon="4.86562">
        <ele>278</ele>
        <time>2017-07-16T09:53:28Z</time>
      </trkpt>
      <trkpt lat="45.98544" lon="4.86568">
        <ele>278</ele>
        <time>2017-07-16T09:53:29Z</time>
      </trkpt>
      <trkpt lat="45.98546" lon="4.86575">
        <ele>278</ele>
        <time>2017-07-16T09:53:30Z</time>
      </trkpt>
      <trkpt lat="45.98547" lon="4.86582">
        <ele>278</ele>
        <time>2017-07-16T09:53:31Z</time>
      </trkpt>
      <trkpt lat="45.98549" lon="4.86589">
        <ele>278</ele>
        <time>2017-07-16T09:53:32Z</time>
      </trkpt>
      <trkpt lat="45.98551" lon="4.86596">
        <ele>278</ele>
        <time>2017-07-16T09:53:33Z</time>
      </trkpt>
      <trkpt lat="45.98553" lon="4.86604">
        <ele>278</ele>
        <time>2017-07-16T09:53:34Z</time>
      </trkpt>
      <trkpt lat="45.98554" lon="4.86611">
        <ele>278</ele>
        <time>2017-07-16T09:53:35Z</time>
      </trkpt>
      <trkpt lat="45.98556" lon="4.86619">
        <ele>278</ele>
        <time>2017-07-16T09:53:36Z</time>
      </trkpt>
      <trkpt lat="45.98557" lon="4.86626">
        <ele>278</ele>
        <time>2017-07-16T09:53:37Z</time>
      </trkpt>
      <trkpt lat="45.98558" lon="4.86632">
        <ele>278</ele>
        <time>2017-07-16T09:53:38Z</time>
      </trkpt>
      <trkpt lat="45.98559" lon="4.86639">
        <ele>278</ele>
        <time>2017-07-16T09:53:39Z</time>
      </trkpt>
      <trkpt lat="45.98559" lon="4.86646">
        <ele>277</ele>
        <time>2017-07-16T09:53:40Z</time>
      </trkpt>
      <trkpt lat="45.9856" lon="4.86653">
        <ele>277</ele>
        <time>2017-07-16T09:53:41Z</time>
      </trkpt>
      <trkpt lat="45.98561" lon="4.86661">
        <ele>277</ele>
        <time>2017-07-16T09:53:42Z</time>
      </trkpt>
      <trkpt lat="45.98562" lon="4.86669">
        <ele>277</ele>
        <time>2017-07-16T09:53:43Z</time>
      </trkpt>
      <trkpt lat="45.98564" lon="4.86677">
        <ele>277</ele>
        <time>2017-07-16T09:53:44Z</time>
      </trkpt>
      <trkpt lat="45.98565" lon="4.86684">
        <ele>277</ele>
        <time>2017-07-16T09:53:45Z</time>
      </trkpt>
      <trkpt lat="45.98566" lon="4.86691">
        <ele>277</ele>
        <time>2017-07-16T09:53:46Z</time>
      </trkpt>
      <trkpt lat="45.98566" lon="4.86698">
        <ele>277</ele>
        <time>2017-07-16T09:53:47Z</time>
      </trkpt>
      <trkpt lat="45.98566" lon="4.86705">
        <ele>277</ele>
        <time>2017-07-16T09:53:48Z</time>
      </trkpt>
      <trkpt lat="45.98565" lon="4.86712">
        <ele>277</ele>
        <time>2017-07-16T09:53:49Z</time>
      </trkpt>
      <trkpt lat="45.98564" lon="4.8672">
        <ele>277</ele>
        <time>2017-07-16T09:53:50Z</time>
      </trkpt>
      <trkpt lat="45.98564" lon="4.86727">
        <ele>277</ele>
        <time>2017-07-16T09:53:51Z</time>
      </trkpt>
      <trkpt lat="45.98564" lon="4.86734">
        <ele>277</ele>
        <time>2017-07-16T09:53:52Z</time>
      </trkpt>
      <trkpt lat="45.98565" lon="4.86745">
        <ele>277</ele>
        <time>2017-07-16T09:53:54Z</time>
      </trkpt>
      <trkpt lat="45.98566" lon="4.86751">
        <ele>277</ele>
        <time>2017-07-16T09:53:55Z</time>
      </trkpt>
      <trkpt lat="45.98568" lon="4.86758">
        <ele>277</ele>
        <time>2017-07-16T09:53:56Z</time>
      </trkpt>
      <trkpt lat="45.98569" lon="4.86766">
        <ele>277</ele>
        <time>2017-07-16T09:53:57Z</time>
      </trkpt>
      <trkpt lat="45.98571" lon="4.86773">
        <ele>277</ele>
        <time>2017-07-16T09:53:58Z</time>
      </trkpt>
      <trkpt lat="45.98573" lon="4.8678">
        <ele>277</ele>
        <time>2017-07-16T09:53:59Z</time>
      </trkpt>
      <trkpt lat="45.98575" lon="4.86786">
        <ele>277</ele>
        <time>2017-07-16T09:54:00Z</time>
      </trkpt>
      <trkpt lat="45.98578" lon="4.86793">
        <ele>277</ele>
        <time>2017-07-16T09:54:01Z</time>
      </trkpt>
      <trkpt lat="45.9858" lon="4.868">
        <ele>277</ele>
        <time>2017-07-16T09:54:02Z</time>
      </trkpt>
      <trkpt lat="45.98581" lon="4.86806">
        <ele>277</ele>
        <time>2017-07-16T09:54:03Z</time>
      </trkpt>
      <trkpt lat="45.98582" lon="4.86813">
        <ele>277</ele>
        <time>2017-07-16T09:54:04Z</time>
      </trkpt>
      <trkpt lat="45.98583" lon="4.86819">
        <ele>277</ele>
        <time>2017-07-16T09:54:05Z</time>
      </trkpt>
      <trkpt lat="45.98585" lon="4.86826">
        <ele>277</ele>
        <time>2017-07-16T09:54:06Z</time>
      </trkpt>
      <trkpt lat="45.98585" lon="4.86832">
        <ele>277</ele>
        <time>2017-07-16T09:54:07Z</time>
      </trkpt>
      <trkpt lat="45.98585" lon="4.86845">
        <ele>277</ele>
        <time>2017-07-16T09:54:09Z</time>
      </trkpt>
      <trkpt lat="45.98585" lon="4.86851">
        <ele>277</ele>
        <time>2017-07-16T09:54:10Z</time>
      </trkpt>
      <trkpt lat="45.98584" lon="4.86858">
        <ele>277</ele>
        <time>2017-07-16T09:54:11Z</time>
      </trkpt>
      <trkpt lat="45.98583" lon="4.86865">
        <ele>279</ele>
        <time>2017-07-16T09:54:12Z</time>
      </trkpt>
      <trkpt lat="45.98583" lon="4.86873">
        <ele>279</ele>
        <time>2017-07-16T09:54:13Z</time>
      </trkpt>
      <trkpt lat="45.98583" lon="4.8688">
        <ele>279</ele>
        <time>2017-07-16T09:54:14Z</time>
      </trkpt>
      <trkpt lat="45.98583" lon="4.86888">
        <ele>279</ele>
        <time>2017-07-16T09:54:15Z</time>
      </trkpt>
      <trkpt lat="45.98583" lon="4.86895">
        <ele>279</ele>
        <time>2017-07-16T09:54:16Z</time>
      </trkpt>
      <trkpt lat="45.98583" lon="4.86903">
        <ele>279</ele>
        <time>2017-07-16T09:54:17Z</time>
      </trkpt>
      <trkpt lat="45.98582" lon="4.86912">
        <ele>279</ele>
        <time>2017-07-16T09:54:18Z</time>
      </trkpt>
      <trkpt lat="45.98582" lon="4.8692">
        <ele>279</ele>
        <time>2017-07-16T09:54:19Z</time>
      </trkpt>
      <trkpt lat="45.98582" lon="4.86931">
        <ele>280</ele>
        <time>2017-07-16T09:54:20Z</time>
      </trkpt>
      <trkpt lat="45.98581" lon="4.8694">
        <ele>281</ele>
        <time>2017-07-16T09:54:21Z</time>
      </trkpt>
      <trkpt lat="45.98582" lon="4.86948">
        <ele>281</ele>
        <time>2017-07-16T09:54:22Z</time>
      </trkpt>
      <trkpt lat="45.98582" lon="4.86956">
        <ele>281</ele>
        <time>2017-07-16T09:54:23Z</time>
      </trkpt>
      <trkpt lat="45.98582" lon="4.86965">
        <ele>281</ele>
        <time>2017-07-16T09:54:24Z</time>
      </trkpt>
      <trkpt lat="45.98583" lon="4.86973">
        <ele>281</ele>
        <time>2017-07-16T09:54:25Z</time>
      </trkpt>
      <trkpt lat="45.98584" lon="4.8698">
        <ele>279</ele>
        <time>2017-07-16T09:54:26Z</time>
      </trkpt>
      <trkpt lat="45.98585" lon="4.86988">
        <ele>279</ele>
        <time>2017-07-16T09:54:27Z</time>
      </trkpt>
      <trkpt lat="45.98586" lon="4.86995">
        <ele>280</ele>
        <time>2017-07-16T09:54:28Z</time>
      </trkpt>
      <trkpt lat="45.98587" lon="4.87002">
        <ele>280</ele>
        <time>2017-07-16T09:54:29Z</time>
      </trkpt>
      <trkpt lat="45.98589" lon="4.8701">
        <ele>279</ele>
        <time>2017-07-16T09:54:30Z</time>
      </trkpt>
      <trkpt lat="45.9859" lon="4.87017">
        <ele>279</ele>
        <time>2017-07-16T09:54:31Z</time>
      </trkpt>
      <trkpt lat="45.9859" lon="4.87023">
        <ele>279</ele>
        <time>2017-07-16T09:54:32Z</time>
      </trkpt>
      <trkpt lat="45.98592" lon="4.8703">
        <ele>279</ele>
        <time>2017-07-16T09:54:33Z</time>
      </trkpt>
      <trkpt lat="45.98593" lon="4.87037">
        <ele>279</ele>
        <time>2017-07-16T09:54:34Z</time>
      </trkpt>
      <trkpt lat="45.98593" lon="4.87044">
        <ele>279</ele>
        <time>2017-07-16T09:54:35Z</time>
      </trkpt>
      <trkpt lat="45.98593" lon="4.87052">
        <ele>279</ele>
        <time>2017-07-16T09:54:36Z</time>
      </trkpt>
      <trkpt lat="45.98594" lon="4.87059">
        <ele>279</ele>
        <time>2017-07-16T09:54:37Z</time>
      </trkpt>
      <trkpt lat="45.98594" lon="4.87066">
        <ele>279</ele>
        <time>2017-07-16T09:54:38Z</time>
      </trkpt>
      <trkpt lat="45.98596" lon="4.87073">
        <ele>279</ele>
        <time>2017-07-16T09:54:39Z</time>
      </trkpt>
      <trkpt lat="45.98597" lon="4.87079">
        <ele>279</ele>
        <time>2017-07-16T09:54:40Z</time>
      </trkpt>
      <trkpt lat="45.98598" lon="4.87085">
        <ele>279</ele>
        <time>2017-07-16T09:54:41Z</time>
      </trkpt>
      <trkpt lat="45.98602" lon="4.87092">
        <ele>279</ele>
        <time>2017-07-16T09:54:42Z</time>
      </trkpt>
      <trkpt lat="45.98604" lon="4.87099">
        <ele>279</ele>
        <time>2017-07-16T09:54:43Z</time>
      </trkpt>
      <trkpt lat="45.98606" lon="4.87107">
        <ele>279</ele>
        <time>2017-07-16T09:54:44Z</time>
      </trkpt>
      <trkpt lat="45.98607" lon="4.87114">
        <ele>279</ele>
        <time>2017-07-16T09:54:45Z</time>
      </trkpt>
      <trkpt lat="45.98608" lon="4.87121">
        <ele>279</ele>
        <time>2017-07-16T09:54:46Z</time>
      </trkpt>
      <trkpt lat="45.98609" lon="4.8713">
        <ele>279</ele>
        <time>2017-07-16T09:54:47Z</time>
      </trkpt>
      <trkpt lat="45.98608" lon="4.87138">
        <ele>278</ele>
        <time>2017-07-16T09:54:48Z</time>
      </trkpt>
      <trkpt lat="45.98608" lon="4.87146">
        <ele>278</ele>
        <time>2017-07-16T09:54:49Z</time>
      </trkpt>
      <trkpt lat="45.98607" lon="4.87154">
        <ele>278</ele>
        <time>2017-07-16T09:54:50Z</time>
      </trkpt>
      <trkpt lat="45.98606" lon="4.87163">
        <ele>278</ele>
        <time>2017-07-16T09:54:51Z</time>
      </trkpt>
      <trkpt lat="45.98605" lon="4.87171">
        <ele>277</ele>
        <time>2017-07-16T09:54:52Z</time>
      </trkpt>
      <trkpt lat="45.98605" lon="4.87179">
        <ele>277</ele>
        <time>2017-07-16T09:54:53Z</time>
      </trkpt>
      <trkpt lat="45.98604" lon="4.87187">
        <ele>277</ele>
        <time>2017-07-16T09:54:54Z</time>
      </trkpt>
      <trkpt lat="45.98604" lon="4.87194">
        <ele>277</ele>
        <time>2017-07-16T09:54:55Z</time>
      </trkpt>
      <trkpt lat="45.98604" lon="4.87202">
        <ele>277</ele>
        <time>2017-07-16T09:54:56Z</time>
      </trkpt>
      <trkpt lat="45.98603" lon="4.87209">
        <ele>277</ele>
        <time>2017-07-16T09:54:57Z</time>
      </trkpt>
      <trkpt lat="45.98601" lon="4.87217">
        <ele>277</ele>
        <time>2017-07-16T09:54:58Z</time>
      </trkpt>
      <trkpt lat="45.986" lon="4.87225">
        <ele>277</ele>
        <time>2017-07-16T09:54:59Z</time>
      </trkpt>
      <trkpt lat="45.98599" lon="4.87233">
        <ele>277</ele>
        <time>2017-07-16T09:55:00Z</time>
      </trkpt>
      <trkpt lat="45.98597" lon="4.87241">
        <ele>277</ele>
        <time>2017-07-16T09:55:01Z</time>
      </trkpt>
      <trkpt lat="45.98596" lon="4.87249">
        <ele>277</ele>
        <time>2017-07-16T09:55:02Z</time>
      </trkpt>
      <trkpt lat="45.98595" lon="4.87257">
        <ele>275</ele>
        <time>2017-07-16T09:55:03Z</time>
      </trkpt>
      <trkpt lat="45.98594" lon="4.87265">
        <ele>275</ele>
        <time>2017-07-16T09:55:04Z</time>
      </trkpt>
      <trkpt lat="45.98593" lon="4.87273">
        <ele>275</ele>
        <time>2017-07-16T09:55:05Z</time>
      </trkpt>
      <trkpt lat="45.98592" lon="4.87283">
        <ele>275</ele>
        <time>2017-07-16T09:55:06Z</time>
      </trkpt>
      <trkpt lat="45.98592" lon="4.87292">
        <ele>275</ele>
        <time>2017-07-16T09:55:07Z</time>
      </trkpt>
      <trkpt lat="45.98593" lon="4.873">
        <ele>274</ele>
        <time>2017-07-16T09:55:08Z</time>
      </trkpt>
      <trkpt lat="45.98593" lon="4.87309">
        <ele>274</ele>
        <time>2017-07-16T09:55:09Z</time>
      </trkpt>
      <trkpt lat="45.98596" lon="4.87317">
        <ele>274</ele>
        <time>2017-07-16T09:55:10Z</time>
      </trkpt>
      <trkpt lat="45.98598" lon="4.87325">
        <ele>274</ele>
        <time>2017-07-16T09:55:11Z</time>
      </trkpt>
      <trkpt lat="45.98601" lon="4.87334">
        <ele>273</ele>
        <time>2017-07-16T09:55:12Z</time>
      </trkpt>
      <trkpt lat="45.98603" lon="4.87342">
        <ele>272</ele>
        <time>2017-07-16T09:55:13Z</time>
      </trkpt>
      <trkpt lat="45.98605" lon="4.87351">
        <ele>272</ele>
        <time>2017-07-16T09:55:14Z</time>
      </trkpt>
      <trkpt lat="45.98607" lon="4.8736">
        <ele>272</ele>
        <time>2017-07-16T09:55:15Z</time>
      </trkpt>
      <trkpt lat="45.98609" lon="4.87371">
        <ele>271</ele>
        <time>2017-07-16T09:55:16Z</time>
      </trkpt>
      <trkpt lat="45.98612" lon="4.87381">
        <ele>271</ele>
        <time>2017-07-16T09:55:17Z</time>
      </trkpt>
      <trkpt lat="45.98614" lon="4.8739">
        <ele>271</ele>
        <time>2017-07-16T09:55:18Z</time>
      </trkpt>
      <trkpt lat="45.98616" lon="4.87399">
        <ele>271</ele>
        <time>2017-07-16T09:55:19Z</time>
      </trkpt>
      <trkpt lat="45.98617" lon="4.87409">
        <ele>271</ele>
        <time>2017-07-16T09:55:20Z</time>
      </trkpt>
      <trkpt lat="45.9862" lon="4.87418">
        <ele>269</ele>
        <time>2017-07-16T09:55:21Z</time>
      </trkpt>
      <trkpt lat="45.98621" lon="4.87429">
        <ele>269</ele>
        <time>2017-07-16T09:55:22Z</time>
      </trkpt>
      <trkpt lat="45.98621" lon="4.8744">
        <ele>269</ele>
        <time>2017-07-16T09:55:23Z</time>
      </trkpt>
      <trkpt lat="45.98622" lon="4.8745">
        <ele>268</ele>
        <time>2017-07-16T09:55:24Z</time>
      </trkpt>
      <trkpt lat="45.98623" lon="4.8746">
        <ele>268</ele>
        <time>2017-07-16T09:55:25Z</time>
      </trkpt>
      <trkpt lat="45.98624" lon="4.8747">
        <ele>268</ele>
        <time>2017-07-16T09:55:26Z</time>
      </trkpt>
      <trkpt lat="45.98626" lon="4.8748">
        <ele>268</ele>
        <time>2017-07-16T09:55:27Z</time>
      </trkpt>
      <trkpt lat="45.98628" lon="4.8749">
        <ele>268</ele>
        <time>2017-07-16T09:55:28Z</time>
      </trkpt>
      <trkpt lat="45.9863" lon="4.875">
        <ele>268</ele>
        <time>2017-07-16T09:55:29Z</time>
      </trkpt>
      <trkpt lat="45.98631" lon="4.8751">
        <ele>267</ele>
        <time>2017-07-16T09:55:30Z</time>
      </trkpt>
      <trkpt lat="45.98633" lon="4.87519">
        <ele>267</ele>
        <time>2017-07-16T09:55:31Z</time>
      </trkpt>
      <trkpt lat="45.98636" lon="4.87529">
        <ele>267</ele>
        <time>2017-07-16T09:55:32Z</time>
      </trkpt>
      <trkpt lat="45.98639" lon="4.87538">
        <ele>267</ele>
        <time>2017-07-16T09:55:33Z</time>
      </trkpt>
      <trkpt lat="45.98642" lon="4.87546">
        <ele>267</ele>
        <time>2017-07-16T09:55:34Z</time>
      </trkpt>
      <trkpt lat="45.98646" lon="4.87554">
        <ele>267</ele>
        <time>2017-07-16T09:55:35Z</time>
      </trkpt>
      <trkpt lat="45.98652" lon="4.87561">
        <ele>267</ele>
        <time>2017-07-16T09:55:36Z</time>
      </trkpt>
      <trkpt lat="45.98657" lon="4.87565">
        <ele>267</ele>
        <time>2017-07-16T09:55:37Z</time>
      </trkpt>
      <trkpt lat="45.98663" lon="4.87568">
        <ele>267</ele>
        <time>2017-07-16T09:55:38Z</time>
      </trkpt>
      <trkpt lat="45.98669" lon="4.87568">
        <ele>267</ele>
        <time>2017-07-16T09:55:39Z</time>
      </trkpt>
      <trkpt lat="45.98674" lon="4.87568">
        <ele>267</ele>
        <time>2017-07-16T09:55:40Z</time>
      </trkpt>
      <trkpt lat="45.9868" lon="4.87567">
        <ele>267</ele>
        <time>2017-07-16T09:55:41Z</time>
      </trkpt>
      <trkpt lat="45.98686" lon="4.87565">
        <ele>267</ele>
        <time>2017-07-16T09:55:42Z</time>
      </trkpt>
      <trkpt lat="45.98691" lon="4.87564">
        <ele>267</ele>
        <time>2017-07-16T09:55:43Z</time>
      </trkpt>
      <trkpt lat="45.98696" lon="4.87562">
        <ele>267</ele>
        <time>2017-07-16T09:55:44Z</time>
      </trkpt>
      <trkpt lat="45.987" lon="4.87561">
        <ele>267</ele>
        <time>2017-07-16T09:55:45Z</time>
      </trkpt>
      <trkpt lat="45.98705" lon="4.8756">
        <ele>267</ele>
        <time>2017-07-16T09:55:46Z</time>
      </trkpt>
      <trkpt lat="45.98709" lon="4.87559">
        <ele>267</ele>
        <time>2017-07-16T09:55:47Z</time>
      </trkpt>
      <trkpt lat="45.98715" lon="4.87557">
        <ele>267</ele>
        <time>2017-07-16T09:55:48Z</time>
      </trkpt>
      <trkpt lat="45.98723" lon="4.87555">
        <ele>267</ele>
        <time>2017-07-16T09:55:50Z</time>
      </trkpt>
      <trkpt lat="45.98727" lon="4.87554">
        <ele>267</ele>
        <time>2017-07-16T09:55:51Z</time>
      </trkpt>
      <trkpt lat="45.98735" lon="4.87554">
        <ele>267</ele>
        <time>2017-07-16T09:55:53Z</time>
      </trkpt>
      <trkpt lat="45.98739" lon="4.87555">
        <ele>267</ele>
        <time>2017-07-16T09:55:54Z</time>
      </trkpt>
      <trkpt lat="45.98744" lon="4.87555">
        <ele>267</ele>
        <time>2017-07-16T09:55:55Z</time>
      </trkpt>
      <trkpt lat="45.98749" lon="4.87555">
        <ele>267</ele>
        <time>2017-07-16T09:55:56Z</time>
      </trkpt>
      <trkpt lat="45.98754" lon="4.87555">
        <ele>269</ele>
        <time>2017-07-16T09:55:57Z</time>
      </trkpt>
      <trkpt lat="45.98758" lon="4.87556">
        <ele>269</ele>
        <time>2017-07-16T09:55:58Z</time>
      </trkpt>
      <trkpt lat="45.98765" lon="4.87562">
        <ele>269</ele>
        <time>2017-07-16T09:56:00Z</time>
      </trkpt>
      <trkpt lat="45.98769" lon="4.87564">
        <ele>269</ele>
        <time>2017-07-16T09:56:01Z</time>
      </trkpt>
      <trkpt lat="45.98776" lon="4.87571">
        <ele>269</ele>
        <time>2017-07-16T09:56:03Z</time>
      </trkpt>
      <trkpt lat="45.98778" lon="4.87574">
        <ele>269</ele>
        <time>2017-07-16T09:56:04Z</time>
      </trkpt>
      <trkpt lat="45.98784" lon="4.87579">
        <ele>269</ele>
        <time>2017-07-16T09:56:06Z</time>
      </trkpt>
      <trkpt lat="45.98787" lon="4.87582">
        <ele>269</ele>
        <time>2017-07-16T09:56:07Z</time>
      </trkpt>
      <trkpt lat="45.98791" lon="4.87589">
        <ele>271</ele>
        <time>2017-07-16T09:56:09Z</time>
      </trkpt>
      <trkpt lat="45.98793" lon="4.87592">
        <ele>271</ele>
        <time>2017-07-16T09:56:10Z</time>
      </trkpt>
      <trkpt lat="45.98799" lon="4.87599">
        <ele>271</ele>
        <time>2017-07-16T09:56:12Z</time>
      </trkpt>
      <trkpt lat="45.98802" lon="4.87603">
        <ele>271</ele>
        <time>2017-07-16T09:56:13Z</time>
      </trkpt>
      <trkpt lat="45.98806" lon="4.87614">
        <ele>271</ele>
        <time>2017-07-16T09:56:15Z</time>
      </trkpt>
      <trkpt lat="45.98808" lon="4.8762">
        <ele>271</ele>
        <time>2017-07-16T09:56:16Z</time>
      </trkpt>
      <trkpt lat="45.98812" lon="4.87631">
        <ele>271</ele>
        <time>2017-07-16T09:56:18Z</time>
      </trkpt>
      <trkpt lat="45.98812" lon="4.87637">
        <ele>272</ele>
        <time>2017-07-16T09:56:19Z</time>
      </trkpt>
      <trkpt lat="45.98813" lon="4.87646">
        <ele>272</ele>
        <time>2017-07-16T09:56:21Z</time>
      </trkpt>
      <trkpt lat="45.98815" lon="4.87651">
        <ele>272</ele>
        <time>2017-07-16T09:56:22Z</time>
      </trkpt>
      <trkpt lat="45.98816" lon="4.87657">
        <ele>272</ele>
        <time>2017-07-16T09:56:23Z</time>
      </trkpt>
      <trkpt lat="45.98818" lon="4.87664">
        <ele>272</ele>
        <time>2017-07-16T09:56:24Z</time>
      </trkpt>
      <trkpt lat="45.98819" lon="4.8767">
        <ele>273</ele>
        <time>2017-07-16T09:56:25Z</time>
      </trkpt>
      <trkpt lat="45.98821" lon="4.87677">
        <ele>273</ele>
        <time>2017-07-16T09:56:26Z</time>
      </trkpt>
      <trkpt lat="45.98824" lon="4.87684">
        <ele>273</ele>
        <time>2017-07-16T09:56:27Z</time>
      </trkpt>
      <trkpt lat="45.98826" lon="4.87691">
        <ele>273</ele>
        <time>2017-07-16T09:56:28Z</time>
      </trkpt>
      <trkpt lat="45.98829" lon="4.87703">
        <ele>273</ele>
        <time>2017-07-16T09:56:30Z</time>
      </trkpt>
      <trkpt lat="45.98832" lon="4.87711">
        <ele>273</ele>
        <time>2017-07-16T09:56:31Z</time>
      </trkpt>
      <trkpt lat="45.98833" lon="4.87717">
        <ele>274</ele>
        <time>2017-07-16T09:56:32Z</time>
      </trkpt>
      <trkpt lat="45.98834" lon="4.87723">
        <ele>273</ele>
        <time>2017-07-16T09:56:33Z</time>
      </trkpt>
      <trkpt lat="45.98836" lon="4.87736">
        <ele>273</ele>
        <time>2017-07-16T09:56:35Z</time>
      </trkpt>
      <trkpt lat="45.98836" lon="4.87742">
        <ele>273</ele>
        <time>2017-07-16T09:56:36Z</time>
      </trkpt>
      <trkpt lat="45.9884" lon="4.87753">
        <ele>273</ele>
        <time>2017-07-16T09:56:38Z</time>
      </trkpt>
      <trkpt lat="45.98842" lon="4.8776">
        <ele>273</ele>
        <time>2017-07-16T09:56:39Z</time>
      </trkpt>
      <trkpt lat="45.98844" lon="4.8777">
        <ele>273</ele>
        <time>2017-07-16T09:56:41Z</time>
      </trkpt>
      <trkpt lat="45.98846" lon="4.87775">
        <ele>273</ele>
        <time>2017-07-16T09:56:42Z</time>
      </trkpt>
      <trkpt lat="45.98849" lon="4.87784">
        <ele>273</ele>
        <time>2017-07-16T09:56:44Z</time>
      </trkpt>
      <trkpt lat="45.98851" lon="4.87789">
        <ele>273</ele>
        <time>2017-07-16T09:56:45Z</time>
      </trkpt>
      <trkpt lat="45.98855" lon="4.87799">
        <ele>273</ele>
        <time>2017-07-16T09:56:47Z</time>
      </trkpt>
      <trkpt lat="45.98857" lon="4.87805">
        <ele>273</ele>
        <time>2017-07-16T09:56:48Z</time>
      </trkpt>
      <trkpt lat="45.9886" lon="4.87814">
        <ele>273</ele>
        <time>2017-07-16T09:56:50Z</time>
      </trkpt>
      <trkpt lat="45.98862" lon="4.8782">
        <ele>273</ele>
        <time>2017-07-16T09:56:51Z</time>
      </trkpt>
      <trkpt lat="45.98864" lon="4.87826">
        <ele>273</ele>
        <time>2017-07-16T09:56:52Z</time>
      </trkpt>
      <trkpt lat="45.98866" lon="4.87832">
        <ele>273</ele>
        <time>2017-07-16T09:56:53Z</time>
      </trkpt>
      <trkpt lat="45.98869" lon="4.87837">
        <ele>273</ele>
        <time>2017-07-16T09:56:54Z</time>
      </trkpt>
      <trkpt lat="45.98872" lon="4.87842">
        <ele>273</ele>
        <time>2017-07-16T09:56:55Z</time>
      </trkpt>
      <trkpt lat="45.98877" lon="4.87851">
        <ele>272</ele>
        <time>2017-07-16T09:56:57Z</time>
      </trkpt>
      <trkpt lat="45.9888" lon="4.87857">
        <ele>272</ele>
        <time>2017-07-16T09:56:58Z</time>
      </trkpt>
      <trkpt lat="45.98884" lon="4.87862">
        <ele>272</ele>
        <time>2017-07-16T09:56:59Z</time>
      </trkpt>
      <trkpt lat="45.98886" lon="4.87866">
        <ele>272</ele>
        <time>2017-07-16T09:57:00Z</time>
      </trkpt>
      <trkpt lat="45.9889" lon="4.87872">
        <ele>272</ele>
        <time>2017-07-16T09:57:01Z</time>
      </trkpt>
      <trkpt lat="45.98892" lon="4.87877">
        <ele>272</ele>
        <time>2017-07-16T09:57:02Z</time>
      </trkpt>
      <trkpt lat="45.98896" lon="4.87887">
        <ele>272</ele>
        <time>2017-07-16T09:57:04Z</time>
      </trkpt>
      <trkpt lat="45.98898" lon="4.87891">
        <ele>272</ele>
        <time>2017-07-16T09:57:05Z</time>
      </trkpt>
      <trkpt lat="45.98902" lon="4.87898">
        <ele>272</ele>
        <time>2017-07-16T09:57:07Z</time>
      </trkpt>
      <trkpt lat="45.98906" lon="4.87901">
        <ele>272</ele>
        <time>2017-07-16T09:57:08Z</time>
      </trkpt>
      <trkpt lat="45.98913" lon="4.87906">
        <ele>272</ele>
        <time>2017-07-16T09:57:10Z</time>
      </trkpt>
      <trkpt lat="45.98915" lon="4.87909">
        <ele>271</ele>
        <time>2017-07-16T09:57:11Z</time>
      </trkpt>
      <trkpt lat="45.98923" lon="4.87915">
        <ele>272</ele>
        <time>2017-07-16T09:57:13Z</time>
      </trkpt>
      <trkpt lat="45.98926" lon="4.87917">
        <ele>272</ele>
        <time>2017-07-16T09:57:14Z</time>
      </trkpt>
      <trkpt lat="45.98931" lon="4.87921">
        <ele>272</ele>
        <time>2017-07-16T09:57:16Z</time>
      </trkpt>
      <trkpt lat="45.98934" lon="4.87923">
        <ele>272</ele>
        <time>2017-07-16T09:57:17Z</time>
      </trkpt>
      <trkpt lat="45.98941" lon="4.87927">
        <ele>273</ele>
        <time>2017-07-16T09:57:19Z</time>
      </trkpt>
      <trkpt lat="45.98944" lon="4.87929">
        <ele>273</ele>
        <time>2017-07-16T09:57:20Z</time>
      </trkpt>
      <trkpt lat="45.98951" lon="4.87933">
        <ele>273</ele>
        <time>2017-07-16T09:57:22Z</time>
      </trkpt>
      <trkpt lat="45.98953" lon="4.87935">
        <ele>273</ele>
        <time>2017-07-16T09:57:23Z</time>
      </trkpt>
      <trkpt lat="45.98961" lon="4.87939">
        <ele>273</ele>
        <time>2017-07-16T09:57:25Z</time>
      </trkpt>
      <trkpt lat="45.98964" lon="4.8794">
        <ele>273</ele>
        <time>2017-07-16T09:57:26Z</time>
      </trkpt>
      <trkpt lat="45.9897" lon="4.87944">
        <ele>274</ele>
        <time>2017-07-16T09:57:28Z</time>
      </trkpt>
      <trkpt lat="45.98973" lon="4.87946">
        <ele>274</ele>
        <time>2017-07-16T09:57:29Z</time>
      </trkpt>
      <trkpt lat="45.98978" lon="4.8795">
        <ele>274</ele>
        <time>2017-07-16T09:57:31Z</time>
      </trkpt>
      <trkpt lat="45.98981" lon="4.87952">
        <ele>274</ele>
        <time>2017-07-16T09:57:32Z</time>
      </trkpt>
      <trkpt lat="45.98988" lon="4.87957">
        <ele>274</ele>
        <time>2017-07-16T09:57:34Z</time>
      </trkpt>
      <trkpt lat="45.98991" lon="4.87959">
        <ele>274</ele>
        <time>2017-07-16T09:57:35Z</time>
      </trkpt>
      <trkpt lat="45.98998" lon="4.87964">
        <ele>274</ele>
        <time>2017-07-16T09:57:38Z</time>
      </trkpt>
      <trkpt lat="45.99" lon="4.87966">
        <ele>276</ele>
        <time>2017-07-16T09:57:39Z</time>
      </trkpt>
      <trkpt lat="45.99007" lon="4.8797">
        <ele>276</ele>
        <time>2017-07-16T09:57:41Z</time>
      </trkpt>
      <trkpt lat="45.9901" lon="4.87971">
        <ele>276</ele>
        <time>2017-07-16T09:57:42Z</time>
      </trkpt>
      <trkpt lat="45.99018" lon="4.87975">
        <ele>276</ele>
        <time>2017-07-16T09:57:45Z</time>
      </trkpt>
      <trkpt lat="45.99021" lon="4.87977">
        <ele>276</ele>
        <time>2017-07-16T09:57:46Z</time>
      </trkpt>
      <trkpt lat="45.99025" lon="4.87978">
        <ele>276</ele>
        <time>2017-07-16T09:57:47Z</time>
      </trkpt>
      <trkpt lat="45.9903" lon="4.8798">
        <ele>276</ele>
        <time>2017-07-16T09:57:48Z</time>
      </trkpt>
      <trkpt lat="45.99034" lon="4.87981">
        <ele>276</ele>
        <time>2017-07-16T09:57:49Z</time>
      </trkpt>
      <trkpt lat="45.9904" lon="4.87983">
        <ele>276</ele>
        <time>2017-07-16T09:57:50Z</time>
      </trkpt>
      <trkpt lat="45.99044" lon="4.87986">
        <ele>277</ele>
        <time>2017-07-16T09:57:51Z</time>
      </trkpt>
      <trkpt lat="45.99048" lon="4.87988">
        <ele>277</ele>
        <time>2017-07-16T09:57:52Z</time>
      </trkpt>
      <trkpt lat="45.99053" lon="4.8799">
        <ele>277</ele>
        <time>2017-07-16T09:57:53Z</time>
      </trkpt>
      <trkpt lat="45.99057" lon="4.87992">
        <ele>277</ele>
        <time>2017-07-16T09:57:54Z</time>
      </trkpt>
      <trkpt lat="45.99065" lon="4.87997">
        <ele>277</ele>
        <time>2017-07-16T09:57:56Z</time>
      </trkpt>
      <trkpt lat="45.99068" lon="4.87999">
        <ele>277</ele>
        <time>2017-07-16T09:57:57Z</time>
      </trkpt>
      <trkpt lat="45.99076" lon="4.88003">
        <ele>278</ele>
        <time>2017-07-16T09:57:59Z</time>
      </trkpt>
      <trkpt lat="45.9908" lon="4.88005">
        <ele>278</ele>
        <time>2017-07-16T09:58:00Z</time>
      </trkpt>
      <trkpt lat="45.99087" lon="4.8801">
        <ele>278</ele>
        <time>2017-07-16T09:58:02Z</time>
      </trkpt>
      <trkpt lat="45.99091" lon="4.88012">
        <ele>278</ele>
        <time>2017-07-16T09:58:03Z</time>
      </trkpt>
      <trkpt lat="45.99098" lon="4.88016">
        <ele>278</ele>
        <time>2017-07-16T09:58:05Z</time>
      </trkpt>
      <trkpt lat="45.99102" lon="4.88018">
        <ele>278</ele>
        <time>2017-07-16T09:58:06Z</time>
      </trkpt>
      <trkpt lat="45.99109" lon="4.8802">
        <ele>278</ele>
        <time>2017-07-16T09:58:08Z</time>
      </trkpt>
      <trkpt lat="45.99113" lon="4.88021">
        <ele>278</ele>
        <time>2017-07-16T09:58:09Z</time>
      </trkpt>
      <trkpt lat="45.99119" lon="4.88023">
        <ele>278</ele>
        <time>2017-07-16T09:58:11Z</time>
      </trkpt>
      <trkpt lat="45.99122" lon="4.88025">
        <ele>278</ele>
        <time>2017-07-16T09:58:12Z</time>
      </trkpt>
      <trkpt lat="45.99128" lon="4.88029">
        <ele>279</ele>
        <time>2017-07-16T09:58:14Z</time>
      </trkpt>
      <trkpt lat="45.99131" lon="4.8803">
        <ele>279</ele>
        <time>2017-07-16T09:58:15Z</time>
      </trkpt>
      <trkpt lat="45.99138" lon="4.88034">
        <ele>279</ele>
        <time>2017-07-16T09:58:17Z</time>
      </trkpt>
      <trkpt lat="45.99141" lon="4.88036">
        <ele>279</ele>
        <time>2017-07-16T09:58:18Z</time>
      </trkpt>
      <trkpt lat="45.99147" lon="4.88041">
        <ele>279</ele>
        <time>2017-07-16T09:58:20Z</time>
      </trkpt>
      <trkpt lat="45.99149" lon="4.88044">
        <ele>279</ele>
        <time>2017-07-16T09:58:21Z</time>
      </trkpt>
      <trkpt lat="45.99155" lon="4.88048">
        <ele>279</ele>
        <time>2017-07-16T09:58:23Z</time>
      </trkpt>
      <trkpt lat="45.99158" lon="4.8805">
        <ele>279</ele>
        <time>2017-07-16T09:58:24Z</time>
      </trkpt>
      <trkpt lat="45.99164" lon="4.88055">
        <ele>279</ele>
        <time>2017-07-16T09:58:26Z</time>
      </trkpt>
      <trkpt lat="45.99167" lon="4.88057">
        <ele>279</ele>
        <time>2017-07-16T09:58:27Z</time>
      </trkpt>
      <trkpt lat="45.99173" lon="4.88061">
        <ele>279</ele>
        <time>2017-07-16T09:58:29Z</time>
      </trkpt>
      <trkpt lat="45.99177" lon="4.88063">
        <ele>279</ele>
        <time>2017-07-16T09:58:30Z</time>
      </trkpt>
      <trkpt lat="45.99183" lon="4.88067">
        <ele>279</ele>
        <time>2017-07-16T09:58:32Z</time>
      </trkpt>
      <trkpt lat="45.99186" lon="4.8807">
        <ele>280</ele>
        <time>2017-07-16T09:58:33Z</time>
      </trkpt>
      <trkpt lat="45.99192" lon="4.88075">
        <ele>280</ele>
        <time>2017-07-16T09:58:35Z</time>
      </trkpt>
      <trkpt lat="45.99195" lon="4.88078">
        <ele>280</ele>
        <time>2017-07-16T09:58:36Z</time>
      </trkpt>
      <trkpt lat="45.99201" lon="4.88083">
        <ele>280</ele>
        <time>2017-07-16T09:58:38Z</time>
      </trkpt>
      <trkpt lat="45.99204" lon="4.88086">
        <ele>280</ele>
        <time>2017-07-16T09:58:39Z</time>
      </trkpt>
      <trkpt lat="45.9921" lon="4.88092">
        <ele>280</ele>
        <time>2017-07-16T09:58:41Z</time>
      </trkpt>
      <trkpt lat="45.99213" lon="4.88096">
        <ele>280</ele>
        <time>2017-07-16T09:58:42Z</time>
      </trkpt>
      <trkpt lat="45.99219" lon="4.88101">
        <ele>280</ele>
        <time>2017-07-16T09:58:44Z</time>
      </trkpt>
      <trkpt lat="45.99222" lon="4.88103">
        <ele>280</ele>
        <time>2017-07-16T09:58:45Z</time>
      </trkpt>
      <trkpt lat="45.99228" lon="4.88108">
        <ele>280</ele>
        <time>2017-07-16T09:58:47Z</time>
      </trkpt>
      <trkpt lat="45.99231" lon="4.88111">
        <ele>280</ele>
        <time>2017-07-16T09:58:48Z</time>
      </trkpt>
      <trkpt lat="45.99237" lon="4.88116">
        <ele>280</ele>
        <time>2017-07-16T09:58:50Z</time>
      </trkpt>
      <trkpt lat="45.9924" lon="4.88118">
        <ele>280</ele>
        <time>2017-07-16T09:58:51Z</time>
      </trkpt>
      <trkpt lat="45.99245" lon="4.88124">
        <ele>280</ele>
        <time>2017-07-16T09:58:53Z</time>
      </trkpt>
      <trkpt lat="45.99248" lon="4.88127">
        <ele>280</ele>
        <time>2017-07-16T09:58:54Z</time>
      </trkpt>
      <trkpt lat="45.99254" lon="4.88132">
        <ele>283</ele>
        <time>2017-07-16T09:58:56Z</time>
      </trkpt>
      <trkpt lat="45.99258" lon="4.88135">
        <ele>283</ele>
        <time>2017-07-16T09:58:57Z</time>
      </trkpt>
      <trkpt lat="45.99263" lon="4.8814">
        <ele>283</ele>
        <time>2017-07-16T09:58:59Z</time>
      </trkpt>
      <trkpt lat="45.99267" lon="4.88143">
        <ele>283</ele>
        <time>2017-07-16T09:59:00Z</time>
      </trkpt>
      <trkpt lat="45.99273" lon="4.88149">
        <ele>283</ele>
        <time>2017-07-16T09:59:02Z</time>
      </trkpt>
      <trkpt lat="45.99276" lon="4.88151">
        <ele>283</ele>
        <time>2017-07-16T09:59:03Z</time>
      </trkpt>
      <trkpt lat="45.99283" lon="4.88157">
        <ele>284</ele>
        <time>2017-07-16T09:59:05Z</time>
      </trkpt>
      <trkpt lat="45.99286" lon="4.88159">
        <ele>284</ele>
        <time>2017-07-16T09:59:06Z</time>
      </trkpt>
      <trkpt lat="45.99292" lon="4.88164">
        <ele>284</ele>
        <time>2017-07-16T09:59:08Z</time>
      </trkpt>
      <trkpt lat="45.99294" lon="4.88166">
        <ele>284</ele>
        <time>2017-07-16T09:59:09Z</time>
      </trkpt>
      <trkpt lat="45.993" lon="4.88172">
        <ele>285</ele>
        <time>2017-07-16T09:59:11Z</time>
      </trkpt>
      <trkpt lat="45.99303" lon="4.88176">
        <ele>285</ele>
        <time>2017-07-16T09:59:12Z</time>
      </trkpt>
      <trkpt lat="45.9931" lon="4.88182">
        <ele>285</ele>
        <time>2017-07-16T09:59:14Z</time>
      </trkpt>
      <trkpt lat="45.99314" lon="4.88185">
        <ele>285</ele>
        <time>2017-07-16T09:59:15Z</time>
      </trkpt>
      <trkpt lat="45.99321" lon="4.8819">
        <ele>285</ele>
        <time>2017-07-16T09:59:17Z</time>
      </trkpt>
      <trkpt lat="45.99324" lon="4.88192">
        <ele>285</ele>
        <time>2017-07-16T09:59:18Z</time>
      </trkpt>
      <trkpt lat="45.9933" lon="4.88199">
        <ele>285</ele>
        <time>2017-07-16T09:59:20Z</time>
      </trkpt>
      <trkpt lat="45.99333" lon="4.88203">
        <ele>285</ele>
        <time>2017-07-16T09:59:21Z</time>
      </trkpt>
      <trkpt lat="45.9934" lon="4.88209">
        <ele>287</ele>
        <time>2017-07-16T09:59:23Z</time>
      </trkpt>
      <trkpt lat="45.99344" lon="4.88212">
        <ele>287</ele>
        <time>2017-07-16T09:59:24Z</time>
      </trkpt>
      <trkpt lat="45.9935" lon="4.88217">
        <ele>287</ele>
        <time>2017-07-16T09:59:26Z</time>
      </trkpt>
      <trkpt lat="45.99352" lon="4.8822">
        <ele>287</ele>
        <time>2017-07-16T09:59:27Z</time>
      </trkpt>
      <trkpt lat="45.99359" lon="4.88228">
        <ele>287</ele>
        <time>2017-07-16T09:59:29Z</time>
      </trkpt>
      <trkpt lat="45.99362" lon="4.88231">
        <ele>287</ele>
        <time>2017-07-16T09:59:30Z</time>
      </trkpt>
      <trkpt lat="45.99369" lon="4.88237">
        <ele>287</ele>
        <time>2017-07-16T09:59:32Z</time>
      </trkpt>
      <trkpt lat="45.99372" lon="4.88241">
        <ele>287</ele>
        <time>2017-07-16T09:59:33Z</time>
      </trkpt>
      <trkpt lat="45.99377" lon="4.88249">
        <ele>287</ele>
        <time>2017-07-16T09:59:35Z</time>
      </trkpt>
      <trkpt lat="45.9938" lon="4.88253">
        <ele>285</ele>
        <time>2017-07-16T09:59:36Z</time>
      </trkpt>
      <trkpt lat="45.99385" lon="4.88261">
        <ele>285</ele>
        <time>2017-07-16T09:59:38Z</time>
      </trkpt>
      <trkpt lat="45.99387" lon="4.88266">
        <ele>285</ele>
        <time>2017-07-16T09:59:39Z</time>
      </trkpt>
      <trkpt lat="45.99391" lon="4.88275">
        <ele>284</ele>
        <time>2017-07-16T09:59:41Z</time>
      </trkpt>
      <trkpt lat="45.99394" lon="4.8828">
        <ele>284</ele>
        <time>2017-07-16T09:59:42Z</time>
      </trkpt>
      <trkpt lat="45.99398" lon="4.88291">
        <ele>284</ele>
        <time>2017-07-16T09:59:44Z</time>
      </trkpt>
      <trkpt lat="45.994" lon="4.88296">
        <ele>284</ele>
        <time>2017-07-16T09:59:45Z</time>
      </trkpt>
      <trkpt lat="45.99402" lon="4.88308">
        <ele>283</ele>
        <time>2017-07-16T09:59:47Z</time>
      </trkpt>
      <trkpt lat="45.99403" lon="4.88313">
        <ele>283</ele>
        <time>2017-07-16T09:59:48Z</time>
      </trkpt>
      <trkpt lat="45.99406" lon="4.88321">
        <ele>283</ele>
        <time>2017-07-16T09:59:50Z</time>
      </trkpt>
      <trkpt lat="45.99408" lon="4.88326">
        <ele>283</ele>
        <time>2017-07-16T09:59:51Z</time>
      </trkpt>
      <trkpt lat="45.99411" lon="4.88334">
        <ele>282</ele>
        <time>2017-07-16T09:59:53Z</time>
      </trkpt>
      <trkpt lat="45.99413" lon="4.88338">
        <ele>282</ele>
        <time>2017-07-16T09:59:54Z</time>
      </trkpt>
      <trkpt lat="45.99416" lon="4.88347">
        <ele>282</ele>
        <time>2017-07-16T09:59:56Z</time>
      </trkpt>
      <trkpt lat="45.99417" lon="4.88351">
        <ele>282</ele>
        <time>2017-07-16T09:59:57Z</time>
      </trkpt>
      <trkpt lat="45.9942" lon="4.8836">
        <ele>283</ele>
        <time>2017-07-16T09:59:59Z</time>
      </trkpt>
      <trkpt lat="45.99422" lon="4.88364">
        <ele>283</ele>
        <time>2017-07-16T10:00:00Z</time>
      </trkpt>
      <trkpt lat="45.99426" lon="4.88374">
        <ele>283</ele>
        <time>2017-07-16T10:00:02Z</time>
      </trkpt>
      <trkpt lat="45.99428" lon="4.88379">
        <ele>283</ele>
        <time>2017-07-16T10:00:03Z</time>
      </trkpt>
      <trkpt lat="45.99432" lon="4.88389">
        <ele>283</ele>
        <time>2017-07-16T10:00:05Z</time>
      </trkpt>
      <trkpt lat="45.99434" lon="4.88393">
        <ele>283</ele>
        <time>2017-07-16T10:00:06Z</time>
      </trkpt>
      <trkpt lat="45.99439" lon="4.88401">
        <ele>283</ele>
        <time>2017-07-16T10:00:08Z</time>
      </trkpt>
      <trkpt lat="45.99441" lon="4.88404">
        <ele>283</ele>
        <time>2017-07-16T10:00:09Z</time>
      </trkpt>
      <trkpt lat="45.99446" lon="4.8841">
        <ele>283</ele>
        <time>2017-07-16T10:00:11Z</time>
      </trkpt>
      <trkpt lat="45.99449" lon="4.88414">
        <ele>283</ele>
        <time>2017-07-16T10:00:12Z</time>
      </trkpt>
      <trkpt lat="45.99456" lon="4.88421">
        <ele>283</ele>
        <time>2017-07-16T10:00:14Z</time>
      </trkpt>
      <trkpt lat="45.9946" lon="4.88424">
        <ele>284</ele>
        <time>2017-07-16T10:00:15Z</time>
      </trkpt>
      <trkpt lat="45.99468" lon="4.88431">
        <ele>284</ele>
        <time>2017-07-16T10:00:17Z</time>
      </trkpt>
      <trkpt lat="45.99471" lon="4.88434">
        <ele>284</ele>
        <time>2017-07-16T10:00:18Z</time>
      </trkpt>
      <trkpt lat="45.99476" lon="4.88441">
        <ele>284</ele>
        <time>2017-07-16T10:00:20Z</time>
      </trkpt>
      <trkpt lat="45.9948" lon="4.88445">
        <ele>284</ele>
        <time>2017-07-16T10:00:21Z</time>
      </trkpt>
      <trkpt lat="45.99486" lon="4.88455">
        <ele>284</ele>
        <time>2017-07-16T10:00:23Z</time>
      </trkpt>
      <trkpt lat="45.99489" lon="4.8846">
        <ele>284</ele>
        <time>2017-07-16T10:00:24Z</time>
      </trkpt>
      <trkpt lat="45.99492" lon="4.88465">
        <ele>284</ele>
        <time>2017-07-16T10:00:25Z</time>
      </trkpt>
      <trkpt lat="45.99495" lon="4.8847">
        <ele>284</ele>
        <time>2017-07-16T10:00:26Z</time>
      </trkpt>
      <trkpt lat="45.995" lon="4.8848">
        <ele>284</ele>
        <time>2017-07-16T10:00:28Z</time>
      </trkpt>
      <trkpt lat="45.99503" lon="4.88485">
        <ele>284</ele>
        <time>2017-07-16T10:00:29Z</time>
      </trkpt>
      <trkpt lat="45.99507" lon="4.88494">
        <ele>284</ele>
        <time>2017-07-16T10:00:31Z</time>
      </trkpt>
      <trkpt lat="45.99509" lon="4.88499">
        <ele>284</ele>
        <time>2017-07-16T10:00:32Z</time>
      </trkpt>
      <trkpt lat="45.99514" lon="4.88508">
        <ele>285</ele>
        <time>2017-07-16T10:00:34Z</time>
      </trkpt>
      <trkpt lat="45.99516" lon="4.88512">
        <ele>285</ele>
        <time>2017-07-16T10:00:35Z</time>
      </trkpt>
      <trkpt lat="45.99521" lon="4.88522">
        <ele>285</ele>
        <time>2017-07-16T10:00:37Z</time>
      </trkpt>
      <trkpt lat="45.99524" lon="4.88527">
        <ele>285</ele>
        <time>2017-07-16T10:00:38Z</time>
      </trkpt>
      <trkpt lat="45.99529" lon="4.88537">
        <ele>285</ele>
        <time>2017-07-16T10:00:40Z</time>
      </trkpt>
      <trkpt lat="45.99531" lon="4.88542">
        <ele>285</ele>
        <time>2017-07-16T10:00:41Z</time>
      </trkpt>
      <trkpt lat="45.99535" lon="4.88551">
        <ele>285</ele>
        <time>2017-07-16T10:00:43Z</time>
      </trkpt>
      <trkpt lat="45.99536" lon="4.88556">
        <ele>285</ele>
        <time>2017-07-16T10:00:44Z</time>
      </trkpt>
      <trkpt lat="45.99538" lon="4.88562">
        <ele>285</ele>
        <time>2017-07-16T10:00:45Z</time>
      </trkpt>
      <trkpt lat="45.9954" lon="4.88568">
        <ele>285</ele>
        <time>2017-07-16T10:00:46Z</time>
      </trkpt>
      <trkpt lat="45.99544" lon="4.8858">
        <ele>286</ele>
        <time>2017-07-16T10:00:48Z</time>
      </trkpt>
      <trkpt lat="45.99545" lon="4.88585">
        <ele>286</ele>
        <time>2017-07-16T10:00:49Z</time>
      </trkpt>
      <trkpt lat="45.99547" lon="4.88596">
        <ele>286</ele>
        <time>2017-07-16T10:00:51Z</time>
      </trkpt>
      <trkpt lat="45.99548" lon="4.88601">
        <ele>286</ele>
        <time>2017-07-16T10:00:52Z</time>
      </trkpt>
      <trkpt lat="45.99549" lon="4.88612">
        <ele>286</ele>
        <time>2017-07-16T10:00:54Z</time>
      </trkpt>
      <trkpt lat="45.99549" lon="4.88618">
        <ele>286</ele>
        <time>2017-07-16T10:00:55Z</time>
      </trkpt>
      <trkpt lat="45.9955" lon="4.88625">
        <ele>286</ele>
        <time>2017-07-16T10:00:56Z</time>
      </trkpt>
      <trkpt lat="45.99551" lon="4.88631">
        <ele>286</ele>
        <time>2017-07-16T10:00:57Z</time>
      </trkpt>
      <trkpt lat="45.99551" lon="4.88638">
        <ele>286</ele>
        <time>2017-07-16T10:00:58Z</time>
      </trkpt>
      <trkpt lat="45.99552" lon="4.88644">
        <ele>286</ele>
        <time>2017-07-16T10:00:59Z</time>
      </trkpt>
      <trkpt lat="45.99553" lon="4.88656">
        <ele>286</ele>
        <time>2017-07-16T10:01:01Z</time>
      </trkpt>
      <trkpt lat="45.99554" lon="4.88661">
        <ele>286</ele>
        <time>2017-07-16T10:01:02Z</time>
      </trkpt>
      <trkpt lat="45.99554" lon="4.88673">
        <ele>286</ele>
        <time>2017-07-16T10:01:04Z</time>
      </trkpt>
      <trkpt lat="45.99555" lon="4.88679">
        <ele>286</ele>
        <time>2017-07-16T10:01:05Z</time>
      </trkpt>
      <trkpt lat="45.99556" lon="4.88691">
        <ele>286</ele>
        <time>2017-07-16T10:01:07Z</time>
      </trkpt>
      <trkpt lat="45.99557" lon="4.88696">
        <ele>286</ele>
        <time>2017-07-16T10:01:08Z</time>
      </trkpt>
      <trkpt lat="45.99559" lon="4.88707">
        <ele>286</ele>
        <time>2017-07-16T10:01:10Z</time>
      </trkpt>
      <trkpt lat="45.9956" lon="4.88712">
        <ele>286</ele>
        <time>2017-07-16T10:01:11Z</time>
      </trkpt>
      <trkpt lat="45.99561" lon="4.88725">
        <ele>286</ele>
        <time>2017-07-16T10:01:13Z</time>
      </trkpt>
      <trkpt lat="45.99562" lon="4.88731">
        <ele>287</ele>
        <time>2017-07-16T10:01:14Z</time>
      </trkpt>
      <trkpt lat="45.99563" lon="4.88743">
        <ele>287</ele>
        <time>2017-07-16T10:01:16Z</time>
      </trkpt>
      <trkpt lat="45.99563" lon="4.88749">
        <ele>287</ele>
        <time>2017-07-16T10:01:17Z</time>
      </trkpt>
      <trkpt lat="45.99564" lon="4.88759">
        <ele>287</ele>
        <time>2017-07-16T10:01:19Z</time>
      </trkpt>
      <trkpt lat="45.99564" lon="4.88764">
        <ele>287</ele>
        <time>2017-07-16T10:01:20Z</time>
      </trkpt>
      <trkpt lat="45.99565" lon="4.88775">
        <ele>287</ele>
        <time>2017-07-16T10:01:22Z</time>
      </trkpt>
      <trkpt lat="45.99565" lon="4.88781">
        <ele>287</ele>
        <time>2017-07-16T10:01:23Z</time>
      </trkpt>
      <trkpt lat="45.99566" lon="4.88793">
        <ele>287</ele>
        <time>2017-07-16T10:01:25Z</time>
      </trkpt>
      <trkpt lat="45.99567" lon="4.88799">
        <ele>287</ele>
        <time>2017-07-16T10:01:26Z</time>
      </trkpt>
      <trkpt lat="45.99568" lon="4.88811">
        <ele>287</ele>
        <time>2017-07-16T10:01:28Z</time>
      </trkpt>
      <trkpt lat="45.99569" lon="4.88817">
        <ele>287</ele>
        <time>2017-07-16T10:01:29Z</time>
      </trkpt>
      <trkpt lat="45.9957" lon="4.88828">
        <ele>287</ele>
        <time>2017-07-16T10:01:31Z</time>
      </trkpt>
      <trkpt lat="45.99571" lon="4.88834">
        <ele>287</ele>
        <time>2017-07-16T10:01:32Z</time>
      </trkpt>
      <trkpt lat="45.99571" lon="4.88844">
        <ele>287</ele>
        <time>2017-07-16T10:01:34Z</time>
      </trkpt>
      <trkpt lat="45.99572" lon="4.88849">
        <ele>287</ele>
        <time>2017-07-16T10:01:35Z</time>
      </trkpt>
      <trkpt lat="45.99573" lon="4.8886">
        <ele>287</ele>
        <time>2017-07-16T10:01:37Z</time>
      </trkpt>
      <trkpt lat="45.99573" lon="4.88866">
        <ele>287</ele>
        <time>2017-07-16T10:01:38Z</time>
      </trkpt>
      <trkpt lat="45.99574" lon="4.88879">
        <ele>287</ele>
        <time>2017-07-16T10:01:40Z</time>
      </trkpt>
      <trkpt lat="45.99574" lon="4.88885">
        <ele>287</ele>
        <time>2017-07-16T10:01:41Z</time>
      </trkpt>
      <trkpt lat="45.99575" lon="4.88896">
        <ele>287</ele>
        <time>2017-07-16T10:01:43Z</time>
      </trkpt>
      <trkpt lat="45.99576" lon="4.88901">
        <ele>287</ele>
        <time>2017-07-16T10:01:44Z</time>
      </trkpt>
      <trkpt lat="45.99577" lon="4.88912">
        <ele>287</ele>
        <time>2017-07-16T10:01:46Z</time>
      </trkpt>
      <trkpt lat="45.99577" lon="4.88918">
        <ele>287</ele>
        <time>2017-07-16T10:01:47Z</time>
      </trkpt>
      <trkpt lat="45.99578" lon="4.88925">
        <ele>287</ele>
        <time>2017-07-16T10:01:48Z</time>
      </trkpt>
      <trkpt lat="45.99578" lon="4.88932">
        <ele>287</ele>
        <time>2017-07-16T10:01:49Z</time>
      </trkpt>
      <trkpt lat="45.99579" lon="4.88939">
        <ele>287</ele>
        <time>2017-07-16T10:01:50Z</time>
      </trkpt>
      <trkpt lat="45.99579" lon="4.88946">
        <ele>287</ele>
        <time>2017-07-16T10:01:51Z</time>
      </trkpt>
      <trkpt lat="45.9958" lon="4.88958">
        <ele>287</ele>
        <time>2017-07-16T10:01:53Z</time>
      </trkpt>
      <trkpt lat="45.9958" lon="4.88964">
        <ele>287</ele>
        <time>2017-07-16T10:01:54Z</time>
      </trkpt>
      <trkpt lat="45.99581" lon="4.88975">
        <ele>287</ele>
        <time>2017-07-16T10:01:56Z</time>
      </trkpt>
      <trkpt lat="45.99581" lon="4.8898">
        <ele>287</ele>
        <time>2017-07-16T10:01:57Z</time>
      </trkpt>
      <trkpt lat="45.99581" lon="4.88991">
        <ele>288</ele>
        <time>2017-07-16T10:01:59Z</time>
      </trkpt>
      <trkpt lat="45.99582" lon="4.88997">
        <ele>288</ele>
        <time>2017-07-16T10:02:00Z</time>
      </trkpt>
      <trkpt lat="45.99582" lon="4.89004">
        <ele>288</ele>
        <time>2017-07-16T10:02:01Z</time>
      </trkpt>
      <trkpt lat="45.99581" lon="4.8901">
        <ele>288</ele>
        <time>2017-07-16T10:02:02Z</time>
      </trkpt>
      <trkpt lat="45.99581" lon="4.89017">
        <ele>288</ele>
        <time>2017-07-16T10:02:03Z</time>
      </trkpt>
      <trkpt lat="45.99581" lon="4.89024">
        <ele>288</ele>
        <time>2017-07-16T10:02:04Z</time>
      </trkpt>
      <trkpt lat="45.9958" lon="4.89036">
        <ele>288</ele>
        <time>2017-07-16T10:02:06Z</time>
      </trkpt>
      <trkpt lat="45.99579" lon="4.89041">
        <ele>288</ele>
        <time>2017-07-16T10:02:07Z</time>
      </trkpt>
      <trkpt lat="45.99577" lon="4.89052">
        <ele>288</ele>
        <time>2017-07-16T10:02:09Z</time>
      </trkpt>
      <trkpt lat="45.99577" lon="4.89058">
        <ele>289</ele>
        <time>2017-07-16T10:02:10Z</time>
      </trkpt>
      <trkpt lat="45.99575" lon="4.89068">
        <ele>289</ele>
        <time>2017-07-16T10:02:12Z</time>
      </trkpt>
      <trkpt lat="45.99575" lon="4.89074">
        <ele>289</ele>
        <time>2017-07-16T10:02:13Z</time>
      </trkpt>
      <trkpt lat="45.99573" lon="4.89086">
        <ele>289</ele>
        <time>2017-07-16T10:02:15Z</time>
      </trkpt>
      <trkpt lat="45.99573" lon="4.89091">
        <ele>289</ele>
        <time>2017-07-16T10:02:16Z</time>
      </trkpt>
      <trkpt lat="45.99572" lon="4.89102">
        <ele>289</ele>
        <time>2017-07-16T10:02:18Z</time>
      </trkpt>
      <trkpt lat="45.99571" lon="4.89107">
        <ele>289</ele>
        <time>2017-07-16T10:02:19Z</time>
      </trkpt>
      <trkpt lat="45.99572" lon="4.89119">
        <ele>289</ele>
        <time>2017-07-16T10:02:21Z</time>
      </trkpt>
      <trkpt lat="45.99571" lon="4.89125">
        <ele>289</ele>
        <time>2017-07-16T10:02:22Z</time>
      </trkpt>
      <trkpt lat="45.99571" lon="4.89131">
        <ele>289</ele>
        <time>2017-07-16T10:02:23Z</time>
      </trkpt>
      <trkpt lat="45.99572" lon="4.89138">
        <ele>289</ele>
        <time>2017-07-16T10:02:24Z</time>
      </trkpt>
      <trkpt lat="45.99573" lon="4.8915">
        <ele>289</ele>
        <time>2017-07-16T10:02:26Z</time>
      </trkpt>
      <trkpt lat="45.99574" lon="4.89155">
        <ele>289</ele>
        <time>2017-07-16T10:02:27Z</time>
      </trkpt>
      <trkpt lat="45.99574" lon="4.89165">
        <ele>288</ele>
        <time>2017-07-16T10:02:29Z</time>
      </trkpt>
      <trkpt lat="45.99575" lon="4.8917">
        <ele>288</ele>
        <time>2017-07-16T10:02:30Z</time>
      </trkpt>
      <trkpt lat="45.99576" lon="4.89177">
        <ele>288</ele>
        <time>2017-07-16T10:02:31Z</time>
      </trkpt>
      <trkpt lat="45.99576" lon="4.89184">
        <ele>288</ele>
        <time>2017-07-16T10:02:32Z</time>
      </trkpt>
      <trkpt lat="45.99577" lon="4.89191">
        <ele>288</ele>
        <time>2017-07-16T10:02:33Z</time>
      </trkpt>
      <trkpt lat="45.99577" lon="4.89197">
        <ele>288</ele>
        <time>2017-07-16T10:02:34Z</time>
      </trkpt>
      <trkpt lat="45.99578" lon="4.8921">
        <ele>288</ele>
        <time>2017-07-16T10:02:36Z</time>
      </trkpt>
      <trkpt lat="45.99578" lon="4.89216">
        <ele>288</ele>
        <time>2017-07-16T10:02:37Z</time>
      </trkpt>
      <trkpt lat="45.99578" lon="4.89227">
        <ele>288</ele>
        <time>2017-07-16T10:02:39Z</time>
      </trkpt>
      <trkpt lat="45.99578" lon="4.89233">
        <ele>288</ele>
        <time>2017-07-16T10:02:40Z</time>
      </trkpt>
      <trkpt lat="45.99579" lon="4.8924">
        <ele>288</ele>
        <time>2017-07-16T10:02:41Z</time>
      </trkpt>
      <trkpt lat="45.9958" lon="4.89248">
        <ele>288</ele>
        <time>2017-07-16T10:02:42Z</time>
      </trkpt>
      <trkpt lat="45.9958" lon="4.89257">
        <ele>288</ele>
        <time>2017-07-16T10:02:43Z</time>
      </trkpt>
      <trkpt lat="45.99581" lon="4.89264">
        <ele>288</ele>
        <time>2017-07-16T10:02:44Z</time>
      </trkpt>
      <trkpt lat="45.99582" lon="4.89275">
        <ele>288</ele>
        <time>2017-07-16T10:02:46Z</time>
      </trkpt>
      <trkpt lat="45.99583" lon="4.8928">
        <ele>288</ele>
        <time>2017-07-16T10:02:47Z</time>
      </trkpt>
      <trkpt lat="45.99584" lon="4.8929">
        <ele>289</ele>
        <time>2017-07-16T10:02:49Z</time>
      </trkpt>
      <trkpt lat="45.99584" lon="4.89295">
        <ele>289</ele>
        <time>2017-07-16T10:02:50Z</time>
      </trkpt>
      <trkpt lat="45.99584" lon="4.89305">
        <ele>289</ele>
        <time>2017-07-16T10:02:52Z</time>
      </trkpt>
      <trkpt lat="45.99585" lon="4.8931">
        <ele>289</ele>
        <time>2017-07-16T10:02:53Z</time>
      </trkpt>
      <trkpt lat="45.99586" lon="4.8932">
        <ele>289</ele>
        <time>2017-07-16T10:02:55Z</time>
      </trkpt>
      <trkpt lat="45.99585" lon="4.89326">
        <ele>289</ele>
        <time>2017-07-16T10:02:56Z</time>
      </trkpt>
      <trkpt lat="45.99586" lon="4.89338">
        <ele>289</ele>
        <time>2017-07-16T10:02:58Z</time>
      </trkpt>
      <trkpt lat="45.99586" lon="4.89344">
        <ele>289</ele>
        <time>2017-07-16T10:02:59Z</time>
      </trkpt>
      <trkpt lat="45.99586" lon="4.89354">
        <ele>289</ele>
        <time>2017-07-16T10:03:01Z</time>
      </trkpt>
      <trkpt lat="45.99586" lon="4.89359">
        <ele>289</ele>
        <time>2017-07-16T10:03:02Z</time>
      </trkpt>
      <trkpt lat="45.99586" lon="4.89371">
        <ele>289</ele>
        <time>2017-07-16T10:03:04Z</time>
      </trkpt>
      <trkpt lat="45.99586" lon="4.89377">
        <ele>290</ele>
        <time>2017-07-16T10:03:05Z</time>
      </trkpt>
      <trkpt lat="45.99587" lon="4.89389">
        <ele>290</ele>
        <time>2017-07-16T10:03:07Z</time>
      </trkpt>
      <trkpt lat="45.99587" lon="4.89396">
        <ele>290</ele>
        <time>2017-07-16T10:03:08Z</time>
      </trkpt>
      <trkpt lat="45.99587" lon="4.89402">
        <ele>290</ele>
        <time>2017-07-16T10:03:09Z</time>
      </trkpt>
      <trkpt lat="45.99587" lon="4.89409">
        <ele>290</ele>
        <time>2017-07-16T10:03:10Z</time>
      </trkpt>
      <trkpt lat="45.99588" lon="4.89416">
        <ele>290</ele>
        <time>2017-07-16T10:03:11Z</time>
      </trkpt>
      <trkpt lat="45.99589" lon="4.89423">
        <ele>290</ele>
        <time>2017-07-16T10:03:12Z</time>
      </trkpt>
      <trkpt lat="45.9959" lon="4.8943">
        <ele>290</ele>
        <time>2017-07-16T10:03:13Z</time>
      </trkpt>
      <trkpt lat="45.99591" lon="4.89437">
        <ele>290</ele>
        <time>2017-07-16T10:03:14Z</time>
      </trkpt>
      <trkpt lat="45.99591" lon="4.89444">
        <ele>290</ele>
        <time>2017-07-16T10:03:15Z</time>
      </trkpt>
      <trkpt lat="45.99592" lon="4.8945">
        <ele>290</ele>
        <time>2017-07-16T10:03:16Z</time>
      </trkpt>
      <trkpt lat="45.99592" lon="4.89463">
        <ele>290</ele>
        <time>2017-07-16T10:03:18Z</time>
      </trkpt>
      <trkpt lat="45.99593" lon="4.89469">
        <ele>290</ele>
        <time>2017-07-16T10:03:19Z</time>
      </trkpt>
      <trkpt lat="45.99593" lon="4.8948">
        <ele>290</ele>
        <time>2017-07-16T10:03:21Z</time>
      </trkpt>
      <trkpt lat="45.99593" lon="4.89486">
        <ele>290</ele>
        <time>2017-07-16T10:03:22Z</time>
      </trkpt>
      <trkpt lat="45.99594" lon="4.89498">
        <ele>290</ele>
        <time>2017-07-16T10:03:24Z</time>
      </trkpt>
      <trkpt lat="45.99594" lon="4.89503">
        <ele>290</ele>
        <time>2017-07-16T10:03:25Z</time>
      </trkpt>
      <trkpt lat="45.99595" lon="4.89516">
        <ele>290</ele>
        <time>2017-07-16T10:03:27Z</time>
      </trkpt>
      <trkpt lat="45.99595" lon="4.89523">
        <ele>291</ele>
        <time>2017-07-16T10:03:28Z</time>
      </trkpt>
      <trkpt lat="45.99596" lon="4.89529">
        <ele>291</ele>
        <time>2017-07-16T10:03:29Z</time>
      </trkpt>
      <trkpt lat="45.99596" lon="4.89536">
        <ele>291</ele>
        <time>2017-07-16T10:03:30Z</time>
      </trkpt>
      <trkpt lat="45.99596" lon="4.89543">
        <ele>291</ele>
        <time>2017-07-16T10:03:31Z</time>
      </trkpt>
      <trkpt lat="45.99597" lon="4.8955">
        <ele>291</ele>
        <time>2017-07-16T10:03:32Z</time>
      </trkpt>
      <trkpt lat="45.99597" lon="4.89562">
        <ele>291</ele>
        <time>2017-07-16T10:03:34Z</time>
      </trkpt>
      <trkpt lat="45.99598" lon="4.89568">
        <ele>291</ele>
        <time>2017-07-16T10:03:35Z</time>
      </trkpt>
      <trkpt lat="45.99598" lon="4.8958">
        <ele>291</ele>
        <time>2017-07-16T10:03:37Z</time>
      </trkpt>
      <trkpt lat="45.99599" lon="4.89586">
        <ele>292</ele>
        <time>2017-07-16T10:03:38Z</time>
      </trkpt>
      <trkpt lat="45.996" lon="4.89592">
        <ele>292</ele>
        <time>2017-07-16T10:03:39Z</time>
      </trkpt>
      <trkpt lat="45.996" lon="4.89599">
        <ele>292</ele>
        <time>2017-07-16T10:03:40Z</time>
      </trkpt>
      <trkpt lat="45.99601" lon="4.89606">
        <ele>292</ele>
        <time>2017-07-16T10:03:41Z</time>
      </trkpt>
      <trkpt lat="45.99601" lon="4.89613">
        <ele>291</ele>
        <time>2017-07-16T10:03:42Z</time>
      </trkpt>
      <trkpt lat="45.99602" lon="4.89625">
        <ele>291</ele>
        <time>2017-07-16T10:03:44Z</time>
      </trkpt>
      <trkpt lat="45.99601" lon="4.89631">
        <ele>291</ele>
        <time>2017-07-16T10:03:45Z</time>
      </trkpt>
      <trkpt lat="45.99601" lon="4.89641">
        <ele>291</ele>
        <time>2017-07-16T10:03:47Z</time>
      </trkpt>
      <trkpt lat="45.99601" lon="4.89646">
        <ele>291</ele>
        <time>2017-07-16T10:03:48Z</time>
      </trkpt>
      <trkpt lat="45.99601" lon="4.89658">
        <ele>292</ele>
        <time>2017-07-16T10:03:50Z</time>
      </trkpt>
      <trkpt lat="45.99601" lon="4.89664">
        <ele>292</ele>
        <time>2017-07-16T10:03:51Z</time>
      </trkpt>
      <trkpt lat="45.996" lon="4.89677">
        <ele>292</ele>
        <time>2017-07-16T10:03:53Z</time>
      </trkpt>
      <trkpt lat="45.996" lon="4.89683">
        <ele>292</ele>
        <time>2017-07-16T10:03:54Z</time>
      </trkpt>
      <trkpt lat="45.996" lon="4.8969">
        <ele>292</ele>
        <time>2017-07-16T10:03:55Z</time>
      </trkpt>
      <trkpt lat="45.99599" lon="4.89696">
        <ele>292</ele>
        <time>2017-07-16T10:03:56Z</time>
      </trkpt>
      <trkpt lat="45.99599" lon="4.89708">
        <ele>292</ele>
        <time>2017-07-16T10:03:58Z</time>
      </trkpt>
      <trkpt lat="45.99599" lon="4.89714">
        <ele>292</ele>
        <time>2017-07-16T10:03:59Z</time>
      </trkpt>
      <trkpt lat="45.99598" lon="4.89724">
        <ele>292</ele>
        <time>2017-07-16T10:04:01Z</time>
      </trkpt>
      <trkpt lat="45.99597" lon="4.89729">
        <ele>292</ele>
        <time>2017-07-16T10:04:02Z</time>
      </trkpt>
      <trkpt lat="45.99597" lon="4.8974">
        <ele>292</ele>
        <time>2017-07-16T10:04:04Z</time>
      </trkpt>
      <trkpt lat="45.99596" lon="4.89745">
        <ele>292</ele>
        <time>2017-07-16T10:04:05Z</time>
      </trkpt>
      <trkpt lat="45.99596" lon="4.89754">
        <ele>293</ele>
        <time>2017-07-16T10:04:07Z</time>
      </trkpt>
      <trkpt lat="45.99595" lon="4.89759">
        <ele>293</ele>
        <time>2017-07-16T10:04:08Z</time>
      </trkpt>
      <trkpt lat="45.99595" lon="4.89769">
        <ele>292</ele>
        <time>2017-07-16T10:04:10Z</time>
      </trkpt>
      <trkpt lat="45.99595" lon="4.89773">
        <ele>292</ele>
        <time>2017-07-16T10:04:11Z</time>
      </trkpt>
      <trkpt lat="45.99594" lon="4.89783">
        <ele>292</ele>
        <time>2017-07-16T10:04:13Z</time>
      </trkpt>
      <trkpt lat="45.99593" lon="4.89789">
        <ele>292</ele>
        <time>2017-07-16T10:04:14Z</time>
      </trkpt>
      <trkpt lat="45.99592" lon="4.89801">
        <ele>292</ele>
        <time>2017-07-16T10:04:16Z</time>
      </trkpt>
      <trkpt lat="45.99591" lon="4.89807">
        <ele>292</ele>
        <time>2017-07-16T10:04:17Z</time>
      </trkpt>
      <trkpt lat="45.99591" lon="4.89814">
        <ele>293</ele>
        <time>2017-07-16T10:04:18Z</time>
      </trkpt>
      <trkpt lat="45.99591" lon="4.89821">
        <ele>293</ele>
        <time>2017-07-16T10:04:19Z</time>
      </trkpt>
      <trkpt lat="45.99591" lon="4.89828">
        <ele>293</ele>
        <time>2017-07-16T10:04:20Z</time>
      </trkpt>
      <trkpt lat="45.99591" lon="4.89834">
        <ele>293</ele>
        <time>2017-07-16T10:04:21Z</time>
      </trkpt>
      <trkpt lat="45.99592" lon="4.89845">
        <ele>293</ele>
        <time>2017-07-16T10:04:23Z</time>
      </trkpt>
      <trkpt lat="45.99591" lon="4.8985">
        <ele>293</ele>
        <time>2017-07-16T10:04:24Z</time>
      </trkpt>
      <trkpt lat="45.99592" lon="4.89861">
        <ele>293</ele>
        <time>2017-07-16T10:04:26Z</time>
      </trkpt>
      <trkpt lat="45.99591" lon="4.89866">
        <ele>293</ele>
        <time>2017-07-16T10:04:27Z</time>
      </trkpt>
      <trkpt lat="45.99591" lon="4.89876">
        <ele>292</ele>
        <time>2017-07-16T10:04:29Z</time>
      </trkpt>
      <trkpt lat="45.99591" lon="4.89882">
        <ele>292</ele>
        <time>2017-07-16T10:04:30Z</time>
      </trkpt>
      <trkpt lat="45.99591" lon="4.89889">
        <ele>292</ele>
        <time>2017-07-16T10:04:31Z</time>
      </trkpt>
      <trkpt lat="45.9959" lon="4.89896">
        <ele>292</ele>
        <time>2017-07-16T10:04:32Z</time>
      </trkpt>
      <trkpt lat="45.9959" lon="4.89903">
        <ele>292</ele>
        <time>2017-07-16T10:04:33Z</time>
      </trkpt>
      <trkpt lat="45.9959" lon="4.8991">
        <ele>292</ele>
        <time>2017-07-16T10:04:34Z</time>
      </trkpt>
      <trkpt lat="45.9959" lon="4.89921">
        <ele>293</ele>
        <time>2017-07-16T10:04:36Z</time>
      </trkpt>
      <trkpt lat="45.9959" lon="4.89926">
        <ele>293</ele>
        <time>2017-07-16T10:04:37Z</time>
      </trkpt>
      <trkpt lat="45.99589" lon="4.89936">
        <ele>293</ele>
        <time>2017-07-16T10:04:39Z</time>
      </trkpt>
      <trkpt lat="45.99591" lon="4.89943">
        <ele>293</ele>
        <time>2017-07-16T10:04:40Z</time>
      </trkpt>
      <trkpt lat="45.99592" lon="4.89956">
        <ele>294</ele>
        <time>2017-07-16T10:04:42Z</time>
      </trkpt>
      <trkpt lat="45.99594" lon="4.89962">
        <ele>294</ele>
        <time>2017-07-16T10:04:43Z</time>
      </trkpt>
      <trkpt lat="45.99596" lon="4.89971">
        <ele>294</ele>
        <time>2017-07-16T10:04:44Z</time>
      </trkpt>
      <trkpt lat="45.99598" lon="4.89979">
        <ele>294</ele>
        <time>2017-07-16T10:04:45Z</time>
      </trkpt>
      <trkpt lat="45.99599" lon="4.89991">
        <ele>295</ele>
        <time>2017-07-16T10:04:47Z</time>
      </trkpt>
      <trkpt lat="45.996" lon="4.89999">
        <ele>295</ele>
        <time>2017-07-16T10:04:48Z</time>
      </trkpt>
      <trkpt lat="45.99601" lon="4.90007">
        <ele>296</ele>
        <time>2017-07-16T10:04:49Z</time>
      </trkpt>
      <trkpt lat="45.99603" lon="4.90013">
        <ele>296</ele>
        <time>2017-07-16T10:04:50Z</time>
      </trkpt>
      <trkpt lat="45.99606" lon="4.90024">
        <ele>296</ele>
        <time>2017-07-16T10:04:52Z</time>
      </trkpt>
      <trkpt lat="45.99609" lon="4.9003">
        <ele>296</ele>
        <time>2017-07-16T10:04:53Z</time>
      </trkpt>
      <trkpt lat="45.99611" lon="4.90036">
        <ele>296</ele>
        <time>2017-07-16T10:04:54Z</time>
      </trkpt>
      <trkpt lat="45.99613" lon="4.90042">
        <ele>296</ele>
        <time>2017-07-16T10:04:55Z</time>
      </trkpt>
      <trkpt lat="45.99616" lon="4.90047">
        <ele>297</ele>
        <time>2017-07-16T10:04:56Z</time>
      </trkpt>
      <trkpt lat="45.99618" lon="4.90053">
        <ele>297</ele>
        <time>2017-07-16T10:04:57Z</time>
      </trkpt>
      <trkpt lat="45.99622" lon="4.90064">
        <ele>297</ele>
        <time>2017-07-16T10:04:59Z</time>
      </trkpt>
      <trkpt lat="45.99624" lon="4.90069">
        <ele>297</ele>
        <time>2017-07-16T10:05:00Z</time>
      </trkpt>
      <trkpt lat="45.9963" lon="4.90078">
        <ele>297</ele>
        <time>2017-07-16T10:05:02Z</time>
      </trkpt>
      <trkpt lat="45.99631" lon="4.90082">
        <ele>297</ele>
        <time>2017-07-16T10:05:03Z</time>
      </trkpt>
      <trkpt lat="45.99633" lon="4.90091">
        <ele>299</ele>
        <time>2017-07-16T10:05:05Z</time>
      </trkpt>
      <trkpt lat="45.99634" lon="4.90095">
        <ele>299</ele>
        <time>2017-07-16T10:05:06Z</time>
      </trkpt>
      <trkpt lat="45.99635" lon="4.90106">
        <ele>299</ele>
        <time>2017-07-16T10:05:08Z</time>
      </trkpt>
      <trkpt lat="45.99636" lon="4.90111">
        <ele>299</ele>
        <time>2017-07-16T10:05:09Z</time>
      </trkpt>
      <trkpt lat="45.9964" lon="4.90121">
        <ele>299</ele>
        <time>2017-07-16T10:05:11Z</time>
      </trkpt>
      <trkpt lat="45.99642" lon="4.90126">
        <ele>299</ele>
        <time>2017-07-16T10:05:12Z</time>
      </trkpt>
      <trkpt lat="45.99645" lon="4.90137">
        <ele>299</ele>
        <time>2017-07-16T10:05:14Z</time>
      </trkpt>
      <trkpt lat="45.99647" lon="4.90143">
        <ele>300</ele>
        <time>2017-07-16T10:05:15Z</time>
      </trkpt>
      <trkpt lat="45.9965" lon="4.90154">
        <ele>300</ele>
        <time>2017-07-16T10:05:17Z</time>
      </trkpt>
      <trkpt lat="45.99652" lon="4.90159">
        <ele>300</ele>
        <time>2017-07-16T10:05:18Z</time>
      </trkpt>
      <trkpt lat="45.99654" lon="4.90169">
        <ele>301</ele>
        <time>2017-07-16T10:05:20Z</time>
      </trkpt>
      <trkpt lat="45.99655" lon="4.90174">
        <ele>301</ele>
        <time>2017-07-16T10:05:21Z</time>
      </trkpt>
      <trkpt lat="45.99657" lon="4.90185">
        <ele>301</ele>
        <time>2017-07-16T10:05:23Z</time>
      </trkpt>
      <trkpt lat="45.99658" lon="4.9019">
        <ele>301</ele>
        <time>2017-07-16T10:05:24Z</time>
      </trkpt>
      <trkpt lat="45.9966" lon="4.902">
        <ele>302</ele>
        <time>2017-07-16T10:05:26Z</time>
      </trkpt>
      <trkpt lat="45.99662" lon="4.90205">
        <ele>302</ele>
        <time>2017-07-16T10:05:27Z</time>
      </trkpt>
      <trkpt lat="45.99663" lon="4.90215">
        <ele>302</ele>
        <time>2017-07-16T10:05:29Z</time>
      </trkpt>
      <trkpt lat="45.99665" lon="4.90221">
        <ele>302</ele>
        <time>2017-07-16T10:05:30Z</time>
      </trkpt>
      <trkpt lat="45.99668" lon="4.90232">
        <ele>304</ele>
        <time>2017-07-16T10:05:32Z</time>
      </trkpt>
      <trkpt lat="45.99669" lon="4.90236">
        <ele>304</ele>
        <time>2017-07-16T10:05:33Z</time>
      </trkpt>
      <trkpt lat="45.99672" lon="4.90244">
        <ele>304</ele>
        <time>2017-07-16T10:05:35Z</time>
      </trkpt>
      <trkpt lat="45.99674" lon="4.90247">
        <ele>304</ele>
        <time>2017-07-16T10:05:36Z</time>
      </trkpt>
      <trkpt lat="45.99673" lon="4.9026">
        <ele>304</ele>
        <time>2017-07-16T10:05:39Z</time>
      </trkpt>
      <trkpt lat="45.99672" lon="4.90264">
        <ele>304</ele>
        <time>2017-07-16T10:05:40Z</time>
      </trkpt>
      <trkpt lat="45.99671" lon="4.90273">
        <ele>304</ele>
        <time>2017-07-16T10:05:42Z</time>
      </trkpt>
      <trkpt lat="45.9967" lon="4.90277">
        <ele>304</ele>
        <time>2017-07-16T10:05:43Z</time>
      </trkpt>
      <trkpt lat="45.99669" lon="4.90286">
        <ele>304</ele>
        <time>2017-07-16T10:05:45Z</time>
      </trkpt>
      <trkpt lat="45.99667" lon="4.90291">
        <ele>304</ele>
        <time>2017-07-16T10:05:46Z</time>
      </trkpt>
      <trkpt lat="45.99665" lon="4.90303">
        <ele>302</ele>
        <time>2017-07-16T10:05:48Z</time>
      </trkpt>
      <trkpt lat="45.99664" lon="4.90308">
        <ele>302</ele>
        <time>2017-07-16T10:05:49Z</time>
      </trkpt>
      <trkpt lat="45.99664" lon="4.90321">
        <ele>302</ele>
        <time>2017-07-16T10:05:52Z</time>
      </trkpt>
      <trkpt lat="45.99661" lon="4.90323">
        <ele>302</ele>
        <time>2017-07-16T10:05:53Z</time>
      </trkpt>
      <trkpt lat="45.99652" lon="4.90326">
        <ele>302</ele>
        <time>2017-07-16T10:05:57Z</time>
      </trkpt>
      <trkpt lat="45.99649" lon="4.90325">
        <ele>302</ele>
        <time>2017-07-16T10:05:58Z</time>
      </trkpt>
      <trkpt lat="45.99641" lon="4.90324">
        <ele>302</ele>
        <time>2017-07-16T10:06:00Z</time>
      </trkpt>
      <trkpt lat="45.99637" lon="4.90323">
        <ele>302</ele>
        <time>2017-07-16T10:06:01Z</time>
      </trkpt>
      <trkpt lat="45.99632" lon="4.90322">
        <ele>302</ele>
        <time>2017-07-16T10:06:02Z</time>
      </trkpt>
      <trkpt lat="45.99627" lon="4.90321">
        <ele>302</ele>
        <time>2017-07-16T10:06:03Z</time>
      </trkpt>
      <trkpt lat="45.99622" lon="4.90319">
        <ele>302</ele>
        <time>2017-07-16T10:06:04Z</time>
      </trkpt>
      <trkpt lat="45.99617" lon="4.90318">
        <ele>302</ele>
        <time>2017-07-16T10:06:05Z</time>
      </trkpt>
      <trkpt lat="45.99612" lon="4.90316">
        <ele>302</ele>
        <time>2017-07-16T10:06:06Z</time>
      </trkpt>
      <trkpt lat="45.99606" lon="4.90315">
        <ele>301</ele>
        <time>2017-07-16T10:06:07Z</time>
      </trkpt>
      <trkpt lat="45.996" lon="4.90314">
        <ele>301</ele>
        <time>2017-07-16T10:06:08Z</time>
      </trkpt>
      <trkpt lat="45.99594" lon="4.90314">
        <ele>301</ele>
        <time>2017-07-16T10:06:09Z</time>
      </trkpt>
      <trkpt lat="45.99588" lon="4.90314">
        <ele>301</ele>
        <time>2017-07-16T10:06:10Z</time>
      </trkpt>
      <trkpt lat="45.99583" lon="4.90313">
        <ele>301</ele>
        <time>2017-07-16T10:06:11Z</time>
      </trkpt>
      <trkpt lat="45.99577" lon="4.90313">
        <ele>301</ele>
        <time>2017-07-16T10:06:12Z</time>
      </trkpt>
      <trkpt lat="45.9957" lon="4.90312">
        <ele>301</ele>
        <time>2017-07-16T10:06:13Z</time>
      </trkpt>
      <trkpt lat="45.99564" lon="4.90311">
        <ele>300</ele>
        <time>2017-07-16T10:06:14Z</time>
      </trkpt>
      <trkpt lat="45.99558" lon="4.90311">
        <ele>300</ele>
        <time>2017-07-16T10:06:15Z</time>
      </trkpt>
      <trkpt lat="45.99552" lon="4.9031">
        <ele>300</ele>
        <time>2017-07-16T10:06:16Z</time>
      </trkpt>
      <trkpt lat="45.99546" lon="4.9031">
        <ele>300</ele>
        <time>2017-07-16T10:06:17Z</time>
      </trkpt>
      <trkpt lat="45.9954" lon="4.90309">
        <ele>300</ele>
        <time>2017-07-16T10:06:18Z</time>
      </trkpt>
      <trkpt lat="45.99532" lon="4.90308">
        <ele>300</ele>
        <time>2017-07-16T10:06:19Z</time>
      </trkpt>
      <trkpt lat="45.99526" lon="4.90308">
        <ele>300</ele>
        <time>2017-07-16T10:06:20Z</time>
      </trkpt>
      <trkpt lat="45.99519" lon="4.90306">
        <ele>300</ele>
        <time>2017-07-16T10:06:21Z</time>
      </trkpt>
      <trkpt lat="45.99514" lon="4.90305">
        <ele>300</ele>
        <time>2017-07-16T10:06:22Z</time>
      </trkpt>
      <trkpt lat="45.99508" lon="4.90305">
        <ele>300</ele>
        <time>2017-07-16T10:06:23Z</time>
      </trkpt>
      <trkpt lat="45.99502" lon="4.90305">
        <ele>300</ele>
        <time>2017-07-16T10:06:24Z</time>
      </trkpt>
      <trkpt lat="45.99496" lon="4.90304">
        <ele>300</ele>
        <time>2017-07-16T10:06:25Z</time>
      </trkpt>
      <trkpt lat="45.99491" lon="4.90305">
        <ele>300</ele>
        <time>2017-07-16T10:06:26Z</time>
      </trkpt>
      <trkpt lat="45.99486" lon="4.90304">
        <ele>300</ele>
        <time>2017-07-16T10:06:27Z</time>
      </trkpt>
      <trkpt lat="45.9948" lon="4.90304">
        <ele>300</ele>
        <time>2017-07-16T10:06:28Z</time>
      </trkpt>
      <trkpt lat="45.99475" lon="4.90303">
        <ele>300</ele>
        <time>2017-07-16T10:06:29Z</time>
      </trkpt>
      <trkpt lat="45.9947" lon="4.90303">
        <ele>300</ele>
        <time>2017-07-16T10:06:30Z</time>
      </trkpt>
      <trkpt lat="45.99464" lon="4.90302">
        <ele>300</ele>
        <time>2017-07-16T10:06:31Z</time>
      </trkpt>
      <trkpt lat="45.99459" lon="4.90301">
        <ele>300</ele>
        <time>2017-07-16T10:06:32Z</time>
      </trkpt>
      <trkpt lat="45.99453" lon="4.90301">
        <ele>300</ele>
        <time>2017-07-16T10:06:33Z</time>
      </trkpt>
      <trkpt lat="45.99447" lon="4.90301">
        <ele>300</ele>
        <time>2017-07-16T10:06:34Z</time>
      </trkpt>
      <trkpt lat="45.99442" lon="4.903">
        <ele>300</ele>
        <time>2017-07-16T10:06:35Z</time>
      </trkpt>
      <trkpt lat="45.99436" lon="4.90299">
        <ele>300</ele>
        <time>2017-07-16T10:06:36Z</time>
      </trkpt>
      <trkpt lat="45.9943" lon="4.90298">
        <ele>300</ele>
        <time>2017-07-16T10:06:37Z</time>
      </trkpt>
      <trkpt lat="45.99423" lon="4.90298">
        <ele>300</ele>
        <time>2017-07-16T10:06:38Z</time>
      </trkpt>
      <trkpt lat="45.99417" lon="4.90297">
        <ele>300</ele>
        <time>2017-07-16T10:06:39Z</time>
      </trkpt>
      <trkpt lat="45.99411" lon="4.90297">
        <ele>300</ele>
        <time>2017-07-16T10:06:40Z</time>
      </trkpt>
      <trkpt lat="45.99406" lon="4.90296">
        <ele>300</ele>
        <time>2017-07-16T10:06:41Z</time>
      </trkpt>
      <trkpt lat="45.994" lon="4.90295">
        <ele>300</ele>
        <time>2017-07-16T10:06:42Z</time>
      </trkpt>
      <trkpt lat="45.99394" lon="4.90294">
        <ele>300</ele>
        <time>2017-07-16T10:06:43Z</time>
      </trkpt>
      <trkpt lat="45.99389" lon="4.90293">
        <ele>300</ele>
        <time>2017-07-16T10:06:44Z</time>
      </trkpt>
      <trkpt lat="45.99383" lon="4.90293">
        <ele>300</ele>
        <time>2017-07-16T10:06:45Z</time>
      </trkpt>
      <trkpt lat="45.99378" lon="4.90293">
        <ele>300</ele>
        <time>2017-07-16T10:06:46Z</time>
      </trkpt>
      <trkpt lat="45.99373" lon="4.90292">
        <ele>300</ele>
        <time>2017-07-16T10:06:47Z</time>
      </trkpt>
      <trkpt lat="45.99368" lon="4.90292">
        <ele>299</ele>
        <time>2017-07-16T10:06:48Z</time>
      </trkpt>
      <trkpt lat="45.99363" lon="4.90291">
        <ele>299</ele>
        <time>2017-07-16T10:06:49Z</time>
      </trkpt>
      <trkpt lat="45.99357" lon="4.90291">
        <ele>299</ele>
        <time>2017-07-16T10:06:50Z</time>
      </trkpt>
      <trkpt lat="45.99352" lon="4.9029">
        <ele>299</ele>
        <time>2017-07-16T10:06:51Z</time>
      </trkpt>
      <trkpt lat="45.99348" lon="4.9029">
        <ele>299</ele>
        <time>2017-07-16T10:06:52Z</time>
      </trkpt>
      <trkpt lat="45.99343" lon="4.90289">
        <ele>299</ele>
        <time>2017-07-16T10:06:53Z</time>
      </trkpt>
      <trkpt lat="45.99338" lon="4.90288">
        <ele>299</ele>
        <time>2017-07-16T10:06:54Z</time>
      </trkpt>
      <trkpt lat="45.99334" lon="4.90288">
        <ele>299</ele>
        <time>2017-07-16T10:06:55Z</time>
      </trkpt>
      <trkpt lat="45.99325" lon="4.90286">
        <ele>299</ele>
        <time>2017-07-16T10:06:57Z</time>
      </trkpt>
      <trkpt lat="45.99321" lon="4.90283">
        <ele>299</ele>
        <time>2017-07-16T10:06:58Z</time>
      </trkpt>
      <trkpt lat="45.99317" lon="4.90273">
        <ele>299</ele>
        <time>2017-07-16T10:07:00Z</time>
      </trkpt>
      <trkpt lat="45.99314" lon="4.90267">
        <ele>299</ele>
        <time>2017-07-16T10:07:01Z</time>
      </trkpt>
      <trkpt lat="45.99309" lon="4.90257">
        <ele>299</ele>
        <time>2017-07-16T10:07:03Z</time>
      </trkpt>
      <trkpt lat="45.99306" lon="4.90252">
        <ele>299</ele>
        <time>2017-07-16T10:07:04Z</time>
      </trkpt>
      <trkpt lat="45.99303" lon="4.90248">
        <ele>298</ele>
        <time>2017-07-16T10:07:05Z</time>
      </trkpt>
      <trkpt lat="45.99299" lon="4.90243">
        <ele>298</ele>
        <time>2017-07-16T10:07:06Z</time>
      </trkpt>
      <trkpt lat="45.99296" lon="4.90239">
        <ele>298</ele>
        <time>2017-07-16T10:07:07Z</time>
      </trkpt>
      <trkpt lat="45.99292" lon="4.90234">
        <ele>298</ele>
        <time>2017-07-16T10:07:08Z</time>
      </trkpt>
      <trkpt lat="45.99289" lon="4.90229">
        <ele>298</ele>
        <time>2017-07-16T10:07:09Z</time>
      </trkpt>
      <trkpt lat="45.99285" lon="4.90224">
        <ele>298</ele>
        <time>2017-07-16T10:07:10Z</time>
      </trkpt>
      <trkpt lat="45.99282" lon="4.90218">
        <ele>298</ele>
        <time>2017-07-16T10:07:11Z</time>
      </trkpt>
      <trkpt lat="45.99279" lon="4.90213">
        <ele>298</ele>
        <time>2017-07-16T10:07:12Z</time>
      </trkpt>
      <trkpt lat="45.99274" lon="4.90207">
        <ele>298</ele>
        <time>2017-07-16T10:07:13Z</time>
      </trkpt>
      <trkpt lat="45.9927" lon="4.90202">
        <ele>298</ele>
        <time>2017-07-16T10:07:14Z</time>
      </trkpt>
      <trkpt lat="45.99267" lon="4.90196">
        <ele>298</ele>
        <time>2017-07-16T10:07:15Z</time>
      </trkpt>
      <trkpt lat="45.99263" lon="4.9019">
        <ele>298</ele>
        <time>2017-07-16T10:07:16Z</time>
      </trkpt>
      <trkpt lat="45.99259" lon="4.90185">
        <ele>298</ele>
        <time>2017-07-16T10:07:17Z</time>
      </trkpt>
      <trkpt lat="45.99255" lon="4.90179">
        <ele>297</ele>
        <time>2017-07-16T10:07:18Z</time>
      </trkpt>
      <trkpt lat="45.99252" lon="4.90175">
        <ele>297</ele>
        <time>2017-07-16T10:07:19Z</time>
      </trkpt>
      <trkpt lat="45.99248" lon="4.9017">
        <ele>297</ele>
        <time>2017-07-16T10:07:20Z</time>
      </trkpt>
      <trkpt lat="45.99245" lon="4.90166">
        <ele>297</ele>
        <time>2017-07-16T10:07:21Z</time>
      </trkpt>
      <trkpt lat="45.99241" lon="4.90161">
        <ele>297</ele>
        <time>2017-07-16T10:07:22Z</time>
      </trkpt>
      <trkpt lat="45.99238" lon="4.90156">
        <ele>297</ele>
        <time>2017-07-16T10:07:23Z</time>
      </trkpt>
      <trkpt lat="45.99233" lon="4.90152">
        <ele>297</ele>
        <time>2017-07-16T10:07:24Z</time>
      </trkpt>
      <trkpt lat="45.99229" lon="4.90147">
        <ele>297</ele>
        <time>2017-07-16T10:07:25Z</time>
      </trkpt>
      <trkpt lat="45.99225" lon="4.90141">
        <ele>297</ele>
        <time>2017-07-16T10:07:26Z</time>
      </trkpt>
      <trkpt lat="45.99221" lon="4.90136">
        <ele>297</ele>
        <time>2017-07-16T10:07:27Z</time>
      </trkpt>
      <trkpt lat="45.99217" lon="4.9013">
        <ele>297</ele>
        <time>2017-07-16T10:07:28Z</time>
      </trkpt>
      <trkpt lat="45.99213" lon="4.90125">
        <ele>297</ele>
        <time>2017-07-16T10:07:29Z</time>
      </trkpt>
      <trkpt lat="45.99209" lon="4.9012">
        <ele>297</ele>
        <time>2017-07-16T10:07:30Z</time>
      </trkpt>
      <trkpt lat="45.99205" lon="4.90115">
        <ele>297</ele>
        <time>2017-07-16T10:07:31Z</time>
      </trkpt>
      <trkpt lat="45.99201" lon="4.9011">
        <ele>297</ele>
        <time>2017-07-16T10:07:32Z</time>
      </trkpt>
      <trkpt lat="45.99197" lon="4.90105">
        <ele>297</ele>
        <time>2017-07-16T10:07:33Z</time>
      </trkpt>
      <trkpt lat="45.99194" lon="4.90101">
        <ele>297</ele>
        <time>2017-07-16T10:07:34Z</time>
      </trkpt>
      <trkpt lat="45.99191" lon="4.90096">
        <ele>297</ele>
        <time>2017-07-16T10:07:35Z</time>
      </trkpt>
      <trkpt lat="45.99187" lon="4.90092">
        <ele>297</ele>
        <time>2017-07-16T10:07:36Z</time>
      </trkpt>
      <trkpt lat="45.99181" lon="4.90083">
        <ele>297</ele>
        <time>2017-07-16T10:07:38Z</time>
      </trkpt>
      <trkpt lat="45.99177" lon="4.90078">
        <ele>297</ele>
        <time>2017-07-16T10:07:39Z</time>
      </trkpt>
      <trkpt lat="45.99173" lon="4.90074">
        <ele>297</ele>
        <time>2017-07-16T10:07:40Z</time>
      </trkpt>
      <trkpt lat="45.9917" lon="4.90069">
        <ele>297</ele>
        <time>2017-07-16T10:07:41Z</time>
      </trkpt>
      <trkpt lat="45.99167" lon="4.90064">
        <ele>297</ele>
        <time>2017-07-16T10:07:42Z</time>
      </trkpt>
      <trkpt lat="45.99163" lon="4.90059">
        <ele>297</ele>
        <time>2017-07-16T10:07:43Z</time>
      </trkpt>
      <trkpt lat="45.9916" lon="4.90054">
        <ele>297</ele>
        <time>2017-07-16T10:07:44Z</time>
      </trkpt>
      <trkpt lat="45.99157" lon="4.90048">
        <ele>297</ele>
        <time>2017-07-16T10:07:45Z</time>
      </trkpt>
      <trkpt lat="45.99154" lon="4.90043">
        <ele>297</ele>
        <time>2017-07-16T10:07:46Z</time>
      </trkpt>
      <trkpt lat="45.9915" lon="4.90039">
        <ele>297</ele>
        <time>2017-07-16T10:07:47Z</time>
      </trkpt>
      <trkpt lat="45.99146" lon="4.90034">
        <ele>297</ele>
        <time>2017-07-16T10:07:48Z</time>
      </trkpt>
      <trkpt lat="45.99143" lon="4.9003">
        <ele>297</ele>
        <time>2017-07-16T10:07:49Z</time>
      </trkpt>
      <trkpt lat="45.99137" lon="4.90021">
        <ele>297</ele>
        <time>2017-07-16T10:07:51Z</time>
      </trkpt>
      <trkpt lat="45.99133" lon="4.90016">
        <ele>296</ele>
        <time>2017-07-16T10:07:52Z</time>
      </trkpt>
      <trkpt lat="45.99129" lon="4.90012">
        <ele>296</ele>
        <time>2017-07-16T10:07:53Z</time>
      </trkpt>
      <trkpt lat="45.99125" lon="4.90008">
        <ele>296</ele>
        <time>2017-07-16T10:07:54Z</time>
      </trkpt>
      <trkpt lat="45.9912" lon="4.90003">
        <ele>296</ele>
        <time>2017-07-16T10:07:55Z</time>
      </trkpt>
      <trkpt lat="45.99116" lon="4.89998">
        <ele>295</ele>
        <time>2017-07-16T10:07:56Z</time>
      </trkpt>
      <trkpt lat="45.99113" lon="4.89992">
        <ele>295</ele>
        <time>2017-07-16T10:07:57Z</time>
      </trkpt>
      <trkpt lat="45.99109" lon="4.89986">
        <ele>295</ele>
        <time>2017-07-16T10:07:58Z</time>
      </trkpt>
      <trkpt lat="45.99105" lon="4.89981">
        <ele>295</ele>
        <time>2017-07-16T10:07:59Z</time>
      </trkpt>
      <trkpt lat="45.99101" lon="4.89975">
        <ele>295</ele>
        <time>2017-07-16T10:08:00Z</time>
      </trkpt>
      <trkpt lat="45.99097" lon="4.8997">
        <ele>295</ele>
        <time>2017-07-16T10:08:01Z</time>
      </trkpt>
      <trkpt lat="45.99092" lon="4.89966">
        <ele>295</ele>
        <time>2017-07-16T10:08:02Z</time>
      </trkpt>
      <trkpt lat="45.99089" lon="4.8996">
        <ele>295</ele>
        <time>2017-07-16T10:08:03Z</time>
      </trkpt>
      <trkpt lat="45.99085" lon="4.89955">
        <ele>295</ele>
        <time>2017-07-16T10:08:04Z</time>
      </trkpt>
      <trkpt lat="45.99081" lon="4.8995">
        <ele>294</ele>
        <time>2017-07-16T10:08:05Z</time>
      </trkpt>
      <trkpt lat="45.99077" lon="4.89946">
        <ele>294</ele>
        <time>2017-07-16T10:08:06Z</time>
      </trkpt>
      <trkpt lat="45.99073" lon="4.89941">
        <ele>294</ele>
        <time>2017-07-16T10:08:07Z</time>
      </trkpt>
      <trkpt lat="45.9907" lon="4.89936">
        <ele>294</ele>
        <time>2017-07-16T10:08:08Z</time>
      </trkpt>
      <trkpt lat="45.99067" lon="4.8993">
        <ele>294</ele>
        <time>2017-07-16T10:08:09Z</time>
      </trkpt>
      <trkpt lat="45.99064" lon="4.89925">
        <ele>294</ele>
        <time>2017-07-16T10:08:10Z</time>
      </trkpt>
      <trkpt lat="45.99058" lon="4.89916">
        <ele>294</ele>
        <time>2017-07-16T10:08:12Z</time>
      </trkpt>
      <trkpt lat="45.99055" lon="4.89911">
        <ele>293</ele>
        <time>2017-07-16T10:08:13Z</time>
      </trkpt>
      <trkpt lat="45.99051" lon="4.89907">
        <ele>293</ele>
        <time>2017-07-16T10:08:14Z</time>
      </trkpt>
      <trkpt lat="45.99047" lon="4.89903">
        <ele>293</ele>
        <time>2017-07-16T10:08:15Z</time>
      </trkpt>
      <trkpt lat="45.99044" lon="4.89898">
        <ele>293</ele>
        <time>2017-07-16T10:08:16Z</time>
      </trkpt>
      <trkpt lat="45.99039" lon="4.89893">
        <ele>293</ele>
        <time>2017-07-16T10:08:17Z</time>
      </trkpt>
      <trkpt lat="45.99035" lon="4.89889">
        <ele>293</ele>
        <time>2017-07-16T10:08:18Z</time>
      </trkpt>
      <trkpt lat="45.99031" lon="4.89884">
        <ele>293</ele>
        <time>2017-07-16T10:08:19Z</time>
      </trkpt>
      <trkpt lat="45.99026" lon="4.89878">
        <ele>293</ele>
        <time>2017-07-16T10:08:20Z</time>
      </trkpt>
      <trkpt lat="45.99022" lon="4.89873">
        <ele>293</ele>
        <time>2017-07-16T10:08:21Z</time>
      </trkpt>
      <trkpt lat="45.99018" lon="4.89867">
        <ele>293</ele>
        <time>2017-07-16T10:08:22Z</time>
      </trkpt>
      <trkpt lat="45.99013" lon="4.89861">
        <ele>293</ele>
        <time>2017-07-16T10:08:23Z</time>
      </trkpt>
      <trkpt lat="45.99008" lon="4.89854">
        <ele>293</ele>
        <time>2017-07-16T10:08:24Z</time>
      </trkpt>
      <trkpt lat="45.99004" lon="4.89847">
        <ele>293</ele>
        <time>2017-07-16T10:08:25Z</time>
      </trkpt>
      <trkpt lat="45.98999" lon="4.8984">
        <ele>293</ele>
        <time>2017-07-16T10:08:26Z</time>
      </trkpt>
      <trkpt lat="45.98995" lon="4.89834">
        <ele>293</ele>
        <time>2017-07-16T10:08:27Z</time>
      </trkpt>
      <trkpt lat="45.98991" lon="4.89828">
        <ele>293</ele>
        <time>2017-07-16T10:08:28Z</time>
      </trkpt>
      <trkpt lat="45.98987" lon="4.89822">
        <ele>293</ele>
        <time>2017-07-16T10:08:29Z</time>
      </trkpt>
      <trkpt lat="45.98982" lon="4.89817">
        <ele>293</ele>
        <time>2017-07-16T10:08:30Z</time>
      </trkpt>
      <trkpt lat="45.98978" lon="4.89812">
        <ele>293</ele>
        <time>2017-07-16T10:08:31Z</time>
      </trkpt>
      <trkpt lat="45.98973" lon="4.89807">
        <ele>293</ele>
        <time>2017-07-16T10:08:32Z</time>
      </trkpt>
      <trkpt lat="45.98969" lon="4.89802">
        <ele>293</ele>
        <time>2017-07-16T10:08:33Z</time>
      </trkpt>
      <trkpt lat="45.98964" lon="4.89797">
        <ele>293</ele>
        <time>2017-07-16T10:08:34Z</time>
      </trkpt>
      <trkpt lat="45.98959" lon="4.89793">
        <ele>293</ele>
        <time>2017-07-16T10:08:35Z</time>
      </trkpt>
      <trkpt lat="45.98954" lon="4.89788">
        <ele>293</ele>
        <time>2017-07-16T10:08:36Z</time>
      </trkpt>
      <trkpt lat="45.98949" lon="4.89784">
        <ele>293</ele>
        <time>2017-07-16T10:08:37Z</time>
      </trkpt>
      <trkpt lat="45.98945" lon="4.89781">
        <ele>293</ele>
        <time>2017-07-16T10:08:38Z</time>
      </trkpt>
      <trkpt lat="45.9894" lon="4.89778">
        <ele>293</ele>
        <time>2017-07-16T10:08:39Z</time>
      </trkpt>
      <trkpt lat="45.98936" lon="4.89775">
        <ele>293</ele>
        <time>2017-07-16T10:08:40Z</time>
      </trkpt>
      <trkpt lat="45.98931" lon="4.89772">
        <ele>293</ele>
        <time>2017-07-16T10:08:41Z</time>
      </trkpt>
      <trkpt lat="45.98927" lon="4.89768">
        <ele>293</ele>
        <time>2017-07-16T10:08:42Z</time>
      </trkpt>
      <trkpt lat="45.98922" lon="4.89765">
        <ele>293</ele>
        <time>2017-07-16T10:08:43Z</time>
      </trkpt>
      <trkpt lat="45.98917" lon="4.89762">
        <ele>293</ele>
        <time>2017-07-16T10:08:44Z</time>
      </trkpt>
      <trkpt lat="45.98912" lon="4.89758">
        <ele>293</ele>
        <time>2017-07-16T10:08:45Z</time>
      </trkpt>
      <trkpt lat="45.98907" lon="4.89755">
        <ele>293</ele>
        <time>2017-07-16T10:08:46Z</time>
      </trkpt>
      <trkpt lat="45.98901" lon="4.89752">
        <ele>293</ele>
        <time>2017-07-16T10:08:47Z</time>
      </trkpt>
      <trkpt lat="45.98895" lon="4.89748">
        <ele>293</ele>
        <time>2017-07-16T10:08:48Z</time>
      </trkpt>
      <trkpt lat="45.9889" lon="4.89744">
        <ele>293</ele>
        <time>2017-07-16T10:08:49Z</time>
      </trkpt>
      <trkpt lat="45.98884" lon="4.89739">
        <ele>293</ele>
        <time>2017-07-16T10:08:50Z</time>
      </trkpt>
      <trkpt lat="45.98879" lon="4.89735">
        <ele>293</ele>
        <time>2017-07-16T10:08:51Z</time>
      </trkpt>
      <trkpt lat="45.98873" lon="4.89731">
        <ele>293</ele>
        <time>2017-07-16T10:08:52Z</time>
      </trkpt>
      <trkpt lat="45.98867" lon="4.89727">
        <ele>293</ele>
        <time>2017-07-16T10:08:53Z</time>
      </trkpt>
      <trkpt lat="45.98861" lon="4.89723">
        <ele>293</ele>
        <time>2017-07-16T10:08:54Z</time>
      </trkpt>
      <trkpt lat="45.98855" lon="4.89719">
        <ele>293</ele>
        <time>2017-07-16T10:08:55Z</time>
      </trkpt>
      <trkpt lat="45.9885" lon="4.89714">
        <ele>293</ele>
        <time>2017-07-16T10:08:56Z</time>
      </trkpt>
      <trkpt lat="45.98845" lon="4.89709">
        <ele>293</ele>
        <time>2017-07-16T10:08:57Z</time>
      </trkpt>
      <trkpt lat="45.9884" lon="4.89704">
        <ele>292</ele>
        <time>2017-07-16T10:08:58Z</time>
      </trkpt>
      <trkpt lat="45.98834" lon="4.89699">
        <ele>292</ele>
        <time>2017-07-16T10:08:59Z</time>
      </trkpt>
      <trkpt lat="45.98828" lon="4.89694">
        <ele>292</ele>
        <time>2017-07-16T10:09:00Z</time>
      </trkpt>
      <trkpt lat="45.98822" lon="4.89688">
        <ele>292</ele>
        <time>2017-07-16T10:09:01Z</time>
      </trkpt>
      <trkpt lat="45.98817" lon="4.89683">
        <ele>292</ele>
        <time>2017-07-16T10:09:02Z</time>
      </trkpt>
      <trkpt lat="45.98811" lon="4.89677">
        <ele>292</ele>
        <time>2017-07-16T10:09:03Z</time>
      </trkpt>
      <trkpt lat="45.98806" lon="4.89671">
        <ele>292</ele>
        <time>2017-07-16T10:09:04Z</time>
      </trkpt>
      <trkpt lat="45.98801" lon="4.89665">
        <ele>291</ele>
        <time>2017-07-16T10:09:05Z</time>
      </trkpt>
      <trkpt lat="45.98795" lon="4.89658">
        <ele>291</ele>
        <time>2017-07-16T10:09:06Z</time>
      </trkpt>
      <trkpt lat="45.9879" lon="4.89652">
        <ele>291</ele>
        <time>2017-07-16T10:09:07Z</time>
      </trkpt>
      <trkpt lat="45.98785" lon="4.89645">
        <ele>291</ele>
        <time>2017-07-16T10:09:08Z</time>
      </trkpt>
      <trkpt lat="45.9878" lon="4.89638">
        <ele>291</ele>
        <time>2017-07-16T10:09:09Z</time>
      </trkpt>
      <trkpt lat="45.98774" lon="4.89631">
        <ele>291</ele>
        <time>2017-07-16T10:09:10Z</time>
      </trkpt>
      <trkpt lat="45.98769" lon="4.89624">
        <ele>291</ele>
        <time>2017-07-16T10:09:11Z</time>
      </trkpt>
      <trkpt lat="45.98764" lon="4.89616">
        <ele>291</ele>
        <time>2017-07-16T10:09:12Z</time>
      </trkpt>
      <trkpt lat="45.98759" lon="4.89608">
        <ele>291</ele>
        <time>2017-07-16T10:09:13Z</time>
      </trkpt>
      <trkpt lat="45.98753" lon="4.89601">
        <ele>291</ele>
        <time>2017-07-16T10:09:14Z</time>
      </trkpt>
      <trkpt lat="45.98748" lon="4.89593">
        <ele>291</ele>
        <time>2017-07-16T10:09:15Z</time>
      </trkpt>
      <trkpt lat="45.98742" lon="4.89586">
        <ele>291</ele>
        <time>2017-07-16T10:09:16Z</time>
      </trkpt>
      <trkpt lat="45.98737" lon="4.89578">
        <ele>290</ele>
        <time>2017-07-16T10:09:17Z</time>
      </trkpt>
      <trkpt lat="45.98732" lon="4.8957">
        <ele>290</ele>
        <time>2017-07-16T10:09:18Z</time>
      </trkpt>
      <trkpt lat="45.98726" lon="4.89562">
        <ele>290</ele>
        <time>2017-07-16T10:09:19Z</time>
      </trkpt>
      <trkpt lat="45.98721" lon="4.89555">
        <ele>290</ele>
        <time>2017-07-16T10:09:20Z</time>
      </trkpt>
      <trkpt lat="45.98716" lon="4.89547">
        <ele>290</ele>
        <time>2017-07-16T10:09:21Z</time>
      </trkpt>
      <trkpt lat="45.98711" lon="4.8954">
        <ele>290</ele>
        <time>2017-07-16T10:09:22Z</time>
      </trkpt>
      <trkpt lat="45.98706" lon="4.89532">
        <ele>289</ele>
        <time>2017-07-16T10:09:23Z</time>
      </trkpt>
      <trkpt lat="45.987" lon="4.89525">
        <ele>289</ele>
        <time>2017-07-16T10:09:24Z</time>
      </trkpt>
      <trkpt lat="45.98695" lon="4.89518">
        <ele>289</ele>
        <time>2017-07-16T10:09:25Z</time>
      </trkpt>
      <trkpt lat="45.98689" lon="4.89511">
        <ele>289</ele>
        <time>2017-07-16T10:09:26Z</time>
      </trkpt>
      <trkpt lat="45.98684" lon="4.89504">
        <ele>289</ele>
        <time>2017-07-16T10:09:27Z</time>
      </trkpt>
      <trkpt lat="45.98678" lon="4.89497">
        <ele>289</ele>
        <time>2017-07-16T10:09:28Z</time>
      </trkpt>
      <trkpt lat="45.98673" lon="4.8949">
        <ele>289</ele>
        <time>2017-07-16T10:09:29Z</time>
      </trkpt>
      <trkpt lat="45.98668" lon="4.89483">
        <ele>289</ele>
        <time>2017-07-16T10:09:30Z</time>
      </trkpt>
      <trkpt lat="45.98663" lon="4.89476">
        <ele>290</ele>
        <time>2017-07-16T10:09:31Z</time>
      </trkpt>
      <trkpt lat="45.98658" lon="4.8947">
        <ele>290</ele>
        <time>2017-07-16T10:09:32Z</time>
      </trkpt>
      <trkpt lat="45.98652" lon="4.89464">
        <ele>290</ele>
        <time>2017-07-16T10:09:33Z</time>
      </trkpt>
      <trkpt lat="45.98647" lon="4.89457">
        <ele>291</ele>
        <time>2017-07-16T10:09:34Z</time>
      </trkpt>
      <trkpt lat="45.98641" lon="4.89451">
        <ele>291</ele>
        <time>2017-07-16T10:09:35Z</time>
      </trkpt>
      <trkpt lat="45.98635" lon="4.89445">
        <ele>291</ele>
        <time>2017-07-16T10:09:36Z</time>
      </trkpt>
      <trkpt lat="45.98629" lon="4.89439">
        <ele>291</ele>
        <time>2017-07-16T10:09:37Z</time>
      </trkpt>
      <trkpt lat="45.98624" lon="4.89433">
        <ele>291</ele>
        <time>2017-07-16T10:09:38Z</time>
      </trkpt>
      <trkpt lat="45.98619" lon="4.89428">
        <ele>291</ele>
        <time>2017-07-16T10:09:39Z</time>
      </trkpt>
      <trkpt lat="45.98614" lon="4.89422">
        <ele>292</ele>
        <time>2017-07-16T10:09:40Z</time>
      </trkpt>
      <trkpt lat="45.98609" lon="4.89416">
        <ele>291</ele>
        <time>2017-07-16T10:09:41Z</time>
      </trkpt>
      <trkpt lat="45.98604" lon="4.89411">
        <ele>292</ele>
        <time>2017-07-16T10:09:42Z</time>
      </trkpt>
      <trkpt lat="45.986" lon="4.89406">
        <ele>292</ele>
        <time>2017-07-16T10:09:43Z</time>
      </trkpt>
      <trkpt lat="45.98595" lon="4.89401">
        <ele>292</ele>
        <time>2017-07-16T10:09:44Z</time>
      </trkpt>
      <trkpt lat="45.98591" lon="4.89396">
        <ele>292</ele>
        <time>2017-07-16T10:09:45Z</time>
      </trkpt>
      <trkpt lat="45.98586" lon="4.89391">
        <ele>292</ele>
        <time>2017-07-16T10:09:46Z</time>
      </trkpt>
      <trkpt lat="45.98582" lon="4.89388">
        <ele>295</ele>
        <time>2017-07-16T10:09:47Z</time>
      </trkpt>
      <trkpt lat="45.98578" lon="4.89384">
        <ele>295</ele>
        <time>2017-07-16T10:09:48Z</time>
      </trkpt>
      <trkpt lat="45.98574" lon="4.8938">
        <ele>295</ele>
        <time>2017-07-16T10:09:49Z</time>
      </trkpt>
      <trkpt lat="45.98571" lon="4.89376">
        <ele>295</ele>
        <time>2017-07-16T10:09:50Z</time>
      </trkpt>
      <trkpt lat="45.98566" lon="4.89372">
        <ele>295</ele>
        <time>2017-07-16T10:09:51Z</time>
      </trkpt>
      <trkpt lat="45.98562" lon="4.89369">
        <ele>295</ele>
        <time>2017-07-16T10:09:52Z</time>
      </trkpt>
      <trkpt lat="45.98558" lon="4.89363">
        <ele>295</ele>
        <time>2017-07-16T10:09:53Z</time>
      </trkpt>
      <trkpt lat="45.98553" lon="4.89358">
        <ele>295</ele>
        <time>2017-07-16T10:09:54Z</time>
      </trkpt>
      <trkpt lat="45.98549" lon="4.89353">
        <ele>295</ele>
        <time>2017-07-16T10:09:55Z</time>
      </trkpt>
      <trkpt lat="45.98545" lon="4.89347">
        <ele>295</ele>
        <time>2017-07-16T10:09:56Z</time>
      </trkpt>
      <trkpt lat="45.98539" lon="4.89341">
        <ele>295</ele>
        <time>2017-07-16T10:09:57Z</time>
      </trkpt>
      <trkpt lat="45.98535" lon="4.89335">
        <ele>295</ele>
        <time>2017-07-16T10:09:58Z</time>
      </trkpt>
      <trkpt lat="45.98533" lon="4.89329">
        <ele>293</ele>
        <time>2017-07-16T10:09:59Z</time>
      </trkpt>
      <trkpt lat="45.9853" lon="4.89322">
        <ele>293</ele>
        <time>2017-07-16T10:10:00Z</time>
      </trkpt>
      <trkpt lat="45.98527" lon="4.89316">
        <ele>293</ele>
        <time>2017-07-16T10:10:01Z</time>
      </trkpt>
      <trkpt lat="45.98523" lon="4.89309">
        <ele>293</ele>
        <time>2017-07-16T10:10:02Z</time>
      </trkpt>
      <trkpt lat="45.98519" lon="4.89303">
        <ele>293</ele>
        <time>2017-07-16T10:10:03Z</time>
      </trkpt>
      <trkpt lat="45.98515" lon="4.89296">
        <ele>292</ele>
        <time>2017-07-16T10:10:04Z</time>
      </trkpt>
      <trkpt lat="45.98511" lon="4.8929">
        <ele>292</ele>
        <time>2017-07-16T10:10:05Z</time>
      </trkpt>
      <trkpt lat="45.98507" lon="4.89283">
        <ele>292</ele>
        <time>2017-07-16T10:10:06Z</time>
      </trkpt>
      <trkpt lat="45.98503" lon="4.89277">
        <ele>292</ele>
        <time>2017-07-16T10:10:07Z</time>
      </trkpt>
      <trkpt lat="45.98499" lon="4.8927">
        <ele>291</ele>
        <time>2017-07-16T10:10:08Z</time>
      </trkpt>
      <trkpt lat="45.98494" lon="4.89264">
        <ele>291</ele>
        <time>2017-07-16T10:10:09Z</time>
      </trkpt>
      <trkpt lat="45.9849" lon="4.89257">
        <ele>291</ele>
        <time>2017-07-16T10:10:10Z</time>
      </trkpt>
      <trkpt lat="45.98485" lon="4.89251">
        <ele>291</ele>
        <time>2017-07-16T10:10:11Z</time>
      </trkpt>
      <trkpt lat="45.98481" lon="4.89243">
        <ele>289</ele>
        <time>2017-07-16T10:10:12Z</time>
      </trkpt>
      <trkpt lat="45.98476" lon="4.89236">
        <ele>289</ele>
        <time>2017-07-16T10:10:13Z</time>
      </trkpt>
      <trkpt lat="45.98471" lon="4.89228">
        <ele>289</ele>
        <time>2017-07-16T10:10:14Z</time>
      </trkpt>
      <trkpt lat="45.98466" lon="4.8922">
        <ele>289</ele>
        <time>2017-07-16T10:10:15Z</time>
      </trkpt>
      <trkpt lat="45.98463" lon="4.89211">
        <ele>289</ele>
        <time>2017-07-16T10:10:16Z</time>
      </trkpt>
      <trkpt lat="45.9846" lon="4.89201">
        <ele>289</ele>
        <time>2017-07-16T10:10:17Z</time>
      </trkpt>
      <trkpt lat="45.98455" lon="4.89191">
        <ele>289</ele>
        <time>2017-07-16T10:10:18Z</time>
      </trkpt>
      <trkpt lat="45.98451" lon="4.89182">
        <ele>289</ele>
        <time>2017-07-16T10:10:19Z</time>
      </trkpt>
      <trkpt lat="45.98446" lon="4.89172">
        <ele>288</ele>
        <time>2017-07-16T10:10:20Z</time>
      </trkpt>
      <trkpt lat="45.98441" lon="4.89162">
        <ele>288</ele>
        <time>2017-07-16T10:10:21Z</time>
      </trkpt>
      <trkpt lat="45.98435" lon="4.89152">
        <ele>288</ele>
        <time>2017-07-16T10:10:22Z</time>
      </trkpt>
      <trkpt lat="45.98429" lon="4.89143">
        <ele>288</ele>
        <time>2017-07-16T10:10:23Z</time>
      </trkpt>
      <trkpt lat="45.98423" lon="4.89133">
        <ele>288</ele>
        <time>2017-07-16T10:10:24Z</time>
      </trkpt>
      <trkpt lat="45.98418" lon="4.89124">
        <ele>288</ele>
        <time>2017-07-16T10:10:25Z</time>
      </trkpt>
      <trkpt lat="45.98413" lon="4.89115">
        <ele>286</ele>
        <time>2017-07-16T10:10:26Z</time>
      </trkpt>
      <trkpt lat="45.98407" lon="4.89107">
        <ele>286</ele>
        <time>2017-07-16T10:10:27Z</time>
      </trkpt>
      <trkpt lat="45.98403" lon="4.89097">
        <ele>286</ele>
        <time>2017-07-16T10:10:28Z</time>
      </trkpt>
      <trkpt lat="45.98399" lon="4.89088">
        <ele>286</ele>
        <time>2017-07-16T10:10:29Z</time>
      </trkpt>
      <trkpt lat="45.98395" lon="4.89078">
        <ele>286</ele>
        <time>2017-07-16T10:10:30Z</time>
      </trkpt>
      <trkpt lat="45.98392" lon="4.89067">
        <ele>285</ele>
        <time>2017-07-16T10:10:31Z</time>
      </trkpt>
      <trkpt lat="45.98389" lon="4.89056">
        <ele>285</ele>
        <time>2017-07-16T10:10:32Z</time>
      </trkpt>
      <trkpt lat="45.98385" lon="4.89044">
        <ele>284</ele>
        <time>2017-07-16T10:10:33Z</time>
      </trkpt>
      <trkpt lat="45.98381" lon="4.89032">
        <ele>284</ele>
        <time>2017-07-16T10:10:34Z</time>
      </trkpt>
      <trkpt lat="45.98378" lon="4.8902">
        <ele>284</ele>
        <time>2017-07-16T10:10:35Z</time>
      </trkpt>
      <trkpt lat="45.98375" lon="4.89008">
        <ele>284</ele>
        <time>2017-07-16T10:10:36Z</time>
      </trkpt>
      <trkpt lat="45.98371" lon="4.88996">
        <ele>283</ele>
        <time>2017-07-16T10:10:37Z</time>
      </trkpt>
      <trkpt lat="45.98368" lon="4.88984">
        <ele>283</ele>
        <time>2017-07-16T10:10:38Z</time>
      </trkpt>
      <trkpt lat="45.98365" lon="4.88973">
        <ele>282</ele>
        <time>2017-07-16T10:10:39Z</time>
      </trkpt>
      <trkpt lat="45.98362" lon="4.88961">
        <ele>282</ele>
        <time>2017-07-16T10:10:40Z</time>
      </trkpt>
      <trkpt lat="45.98358" lon="4.8895">
        <ele>282</ele>
        <time>2017-07-16T10:10:41Z</time>
      </trkpt>
      <trkpt lat="45.98355" lon="4.88939">
        <ele>282</ele>
        <time>2017-07-16T10:10:42Z</time>
      </trkpt>
      <trkpt lat="45.98352" lon="4.88928">
        <ele>281</ele>
        <time>2017-07-16T10:10:43Z</time>
      </trkpt>
      <trkpt lat="45.98349" lon="4.88917">
        <ele>281</ele>
        <time>2017-07-16T10:10:44Z</time>
      </trkpt>
      <trkpt lat="45.98347" lon="4.88907">
        <ele>280</ele>
        <time>2017-07-16T10:10:45Z</time>
      </trkpt>
      <trkpt lat="45.98344" lon="4.88897">
        <ele>280</ele>
        <time>2017-07-16T10:10:46Z</time>
      </trkpt>
      <trkpt lat="45.98342" lon="4.88888">
        <ele>280</ele>
        <time>2017-07-16T10:10:47Z</time>
      </trkpt>
      <trkpt lat="45.98339" lon="4.88878">
        <ele>280</ele>
        <time>2017-07-16T10:10:48Z</time>
      </trkpt>
      <trkpt lat="45.98337" lon="4.88868">
        <ele>280</ele>
        <time>2017-07-16T10:10:49Z</time>
      </trkpt>
      <trkpt lat="45.98335" lon="4.88859">
        <ele>280</ele>
        <time>2017-07-16T10:10:50Z</time>
      </trkpt>
      <trkpt lat="45.98332" lon="4.8885">
        <ele>278</ele>
        <time>2017-07-16T10:10:51Z</time>
      </trkpt>
      <trkpt lat="45.9833" lon="4.88841">
        <ele>278</ele>
        <time>2017-07-16T10:10:52Z</time>
      </trkpt>
      <trkpt lat="45.98327" lon="4.88832">
        <ele>278</ele>
        <time>2017-07-16T10:10:53Z</time>
      </trkpt>
      <trkpt lat="45.98325" lon="4.88823">
        <ele>277</ele>
        <time>2017-07-16T10:10:54Z</time>
      </trkpt>
      <trkpt lat="45.98323" lon="4.88815">
        <ele>277</ele>
        <time>2017-07-16T10:10:55Z</time>
      </trkpt>
      <trkpt lat="45.98321" lon="4.88806">
        <ele>277</ele>
        <time>2017-07-16T10:10:56Z</time>
      </trkpt>
      <trkpt lat="45.98319" lon="4.88797">
        <ele>277</ele>
        <time>2017-07-16T10:10:57Z</time>
      </trkpt>
      <trkpt lat="45.98317" lon="4.88789">
        <ele>277</ele>
        <time>2017-07-16T10:10:58Z</time>
      </trkpt>
      <trkpt lat="45.98315" lon="4.8878">
        <ele>277</ele>
        <time>2017-07-16T10:10:59Z</time>
      </trkpt>
      <trkpt lat="45.98313" lon="4.88772">
        <ele>277</ele>
        <time>2017-07-16T10:11:00Z</time>
      </trkpt>
      <trkpt lat="45.98311" lon="4.88764">
        <ele>276</ele>
        <time>2017-07-16T10:11:01Z</time>
      </trkpt>
      <trkpt lat="45.98309" lon="4.88755">
        <ele>276</ele>
        <time>2017-07-16T10:11:02Z</time>
      </trkpt>
      <trkpt lat="45.98307" lon="4.88746">
        <ele>276</ele>
        <time>2017-07-16T10:11:03Z</time>
      </trkpt>
      <trkpt lat="45.98305" lon="4.88737">
        <ele>276</ele>
        <time>2017-07-16T10:11:04Z</time>
      </trkpt>
      <trkpt lat="45.98302" lon="4.88728">
        <ele>276</ele>
        <time>2017-07-16T10:11:05Z</time>
      </trkpt>
      <trkpt lat="45.983" lon="4.88719">
        <ele>276</ele>
        <time>2017-07-16T10:11:06Z</time>
      </trkpt>
      <trkpt lat="45.98298" lon="4.88709">
        <ele>276</ele>
        <time>2017-07-16T10:11:07Z</time>
      </trkpt>
      <trkpt lat="45.98295" lon="4.88699">
        <ele>276</ele>
        <time>2017-07-16T10:11:08Z</time>
      </trkpt>
      <trkpt lat="45.98292" lon="4.88689">
        <ele>276</ele>
        <time>2017-07-16T10:11:09Z</time>
      </trkpt>
      <trkpt lat="45.98289" lon="4.88678">
        <ele>276</ele>
        <time>2017-07-16T10:11:10Z</time>
      </trkpt>
      <trkpt lat="45.98286" lon="4.88668">
        <ele>276</ele>
        <time>2017-07-16T10:11:11Z</time>
      </trkpt>
      <trkpt lat="45.98283" lon="4.88657">
        <ele>276</ele>
        <time>2017-07-16T10:11:12Z</time>
      </trkpt>
      <trkpt lat="45.98281" lon="4.88646">
        <ele>276</ele>
        <time>2017-07-16T10:11:13Z</time>
      </trkpt>
      <trkpt lat="45.98278" lon="4.88636">
        <ele>276</ele>
        <time>2017-07-16T10:11:14Z</time>
      </trkpt>
      <trkpt lat="45.98276" lon="4.88626">
        <ele>276</ele>
        <time>2017-07-16T10:11:15Z</time>
      </trkpt>
      <trkpt lat="45.98274" lon="4.88616">
        <ele>276</ele>
        <time>2017-07-16T10:11:16Z</time>
      </trkpt>
      <trkpt lat="45.98271" lon="4.88606">
        <ele>276</ele>
        <time>2017-07-16T10:11:17Z</time>
      </trkpt>
      <trkpt lat="45.98269" lon="4.88597">
        <ele>275</ele>
        <time>2017-07-16T10:11:18Z</time>
      </trkpt>
      <trkpt lat="45.98267" lon="4.88588">
        <ele>275</ele>
        <time>2017-07-16T10:11:19Z</time>
      </trkpt>
      <trkpt lat="45.98265" lon="4.88579">
        <ele>276</ele>
        <time>2017-07-16T10:11:20Z</time>
      </trkpt>
      <trkpt lat="45.98263" lon="4.88571">
        <ele>276</ele>
        <time>2017-07-16T10:11:21Z</time>
      </trkpt>
      <trkpt lat="45.98261" lon="4.88562">
        <ele>276</ele>
        <time>2017-07-16T10:11:22Z</time>
      </trkpt>
      <trkpt lat="45.98259" lon="4.88554">
        <ele>276</ele>
        <time>2017-07-16T10:11:23Z</time>
      </trkpt>
      <trkpt lat="45.98257" lon="4.88545">
        <ele>276</ele>
        <time>2017-07-16T10:11:24Z</time>
      </trkpt>
      <trkpt lat="45.98254" lon="4.88536">
        <ele>276</ele>
        <time>2017-07-16T10:11:25Z</time>
      </trkpt>
      <trkpt lat="45.98252" lon="4.88527">
        <ele>277</ele>
        <time>2017-07-16T10:11:26Z</time>
      </trkpt>
      <trkpt lat="45.9825" lon="4.88518">
        <ele>277</ele>
        <time>2017-07-16T10:11:27Z</time>
      </trkpt>
      <trkpt lat="45.98248" lon="4.88509">
        <ele>277</ele>
        <time>2017-07-16T10:11:28Z</time>
      </trkpt>
      <trkpt lat="45.98247" lon="4.88499">
        <ele>277</ele>
        <time>2017-07-16T10:11:29Z</time>
      </trkpt>
      <trkpt lat="45.98245" lon="4.88489">
        <ele>276</ele>
        <time>2017-07-16T10:11:30Z</time>
      </trkpt>
      <trkpt lat="45.98243" lon="4.8848">
        <ele>276</ele>
        <time>2017-07-16T10:11:31Z</time>
      </trkpt>
      <trkpt lat="45.9824" lon="4.88471">
        <ele>276</ele>
        <time>2017-07-16T10:11:32Z</time>
      </trkpt>
      <trkpt lat="45.98238" lon="4.88462">
        <ele>276</ele>
        <time>2017-07-16T10:11:33Z</time>
      </trkpt>
      <trkpt lat="45.98236" lon="4.88452">
        <ele>276</ele>
        <time>2017-07-16T10:11:34Z</time>
      </trkpt>
      <trkpt lat="45.98234" lon="4.88443">
        <ele>276</ele>
        <time>2017-07-16T10:11:35Z</time>
      </trkpt>
      <trkpt lat="45.98232" lon="4.88433">
        <ele>276</ele>
        <time>2017-07-16T10:11:36Z</time>
      </trkpt>
      <trkpt lat="45.98229" lon="4.88424">
        <ele>276</ele>
        <time>2017-07-16T10:11:37Z</time>
      </trkpt>
      <trkpt lat="45.98227" lon="4.88415">
        <ele>276</ele>
        <time>2017-07-16T10:11:38Z</time>
      </trkpt>
      <trkpt lat="45.98226" lon="4.88405">
        <ele>275</ele>
        <time>2017-07-16T10:11:39Z</time>
      </trkpt>
      <trkpt lat="45.98224" lon="4.88395">
        <ele>275</ele>
        <time>2017-07-16T10:11:40Z</time>
      </trkpt>
      <trkpt lat="45.98222" lon="4.88386">
        <ele>275</ele>
        <time>2017-07-16T10:11:41Z</time>
      </trkpt>
      <trkpt lat="45.98221" lon="4.88376">
        <ele>275</ele>
        <time>2017-07-16T10:11:42Z</time>
      </trkpt>
      <trkpt lat="45.98219" lon="4.88367">
        <ele>275</ele>
        <time>2017-07-16T10:11:43Z</time>
      </trkpt>
      <trkpt lat="45.98218" lon="4.88357">
        <ele>275</ele>
        <time>2017-07-16T10:11:44Z</time>
      </trkpt>
      <trkpt lat="45.98218" lon="4.88347">
        <ele>275</ele>
        <time>2017-07-16T10:11:45Z</time>
      </trkpt>
      <trkpt lat="45.98217" lon="4.88338">
        <ele>275</ele>
        <time>2017-07-16T10:11:46Z</time>
      </trkpt>
      <trkpt lat="45.98217" lon="4.88329">
        <ele>274</ele>
        <time>2017-07-16T10:11:47Z</time>
      </trkpt>
      <trkpt lat="45.98216" lon="4.8832">
        <ele>274</ele>
        <time>2017-07-16T10:11:48Z</time>
      </trkpt>
      <trkpt lat="45.98214" lon="4.8831">
        <ele>274</ele>
        <time>2017-07-16T10:11:49Z</time>
      </trkpt>
      <trkpt lat="45.98213" lon="4.88301">
        <ele>274</ele>
        <time>2017-07-16T10:11:50Z</time>
      </trkpt>
      <trkpt lat="45.98211" lon="4.88292">
        <ele>274</ele>
        <time>2017-07-16T10:11:51Z</time>
      </trkpt>
      <trkpt lat="45.98209" lon="4.88283">
        <ele>274</ele>
        <time>2017-07-16T10:11:52Z</time>
      </trkpt>
      <trkpt lat="45.98206" lon="4.88273">
        <ele>274</ele>
        <time>2017-07-16T10:11:53Z</time>
      </trkpt>
      <trkpt lat="45.98204" lon="4.88264">
        <ele>274</ele>
        <time>2017-07-16T10:11:54Z</time>
      </trkpt>
      <trkpt lat="45.98202" lon="4.88254">
        <ele>274</ele>
        <time>2017-07-16T10:11:55Z</time>
      </trkpt>
      <trkpt lat="45.982" lon="4.88245">
        <ele>273</ele>
        <time>2017-07-16T10:11:56Z</time>
      </trkpt>
      <trkpt lat="45.98198" lon="4.88236">
        <ele>273</ele>
        <time>2017-07-16T10:11:57Z</time>
      </trkpt>
      <trkpt lat="45.98195" lon="4.88227">
        <ele>273</ele>
        <time>2017-07-16T10:11:58Z</time>
      </trkpt>
      <trkpt lat="45.98192" lon="4.88218">
        <ele>273</ele>
        <time>2017-07-16T10:11:59Z</time>
      </trkpt>
      <trkpt lat="45.98189" lon="4.88208">
        <ele>273</ele>
        <time>2017-07-16T10:12:00Z</time>
      </trkpt>
      <trkpt lat="45.98186" lon="4.88199">
        <ele>273</ele>
        <time>2017-07-16T10:12:01Z</time>
      </trkpt>
      <trkpt lat="45.98183" lon="4.88188">
        <ele>273</ele>
        <time>2017-07-16T10:12:02Z</time>
      </trkpt>
      <trkpt lat="45.9818" lon="4.88179">
        <ele>273</ele>
        <time>2017-07-16T10:12:03Z</time>
      </trkpt>
      <trkpt lat="45.98177" lon="4.88169">
        <ele>273</ele>
        <time>2017-07-16T10:12:04Z</time>
      </trkpt>
      <trkpt lat="45.98174" lon="4.8816">
        <ele>273</ele>
        <time>2017-07-16T10:12:05Z</time>
      </trkpt>
      <trkpt lat="45.98171" lon="4.88151">
        <ele>273</ele>
        <time>2017-07-16T10:12:06Z</time>
      </trkpt>
      <trkpt lat="45.98168" lon="4.88142">
        <ele>273</ele>
        <time>2017-07-16T10:12:07Z</time>
      </trkpt>
      <trkpt lat="45.98165" lon="4.88134">
        <ele>274</ele>
        <time>2017-07-16T10:12:08Z</time>
      </trkpt>
      <trkpt lat="45.98162" lon="4.88127">
        <ele>274</ele>
        <time>2017-07-16T10:12:09Z</time>
      </trkpt>
      <trkpt lat="45.9816" lon="4.8812">
        <ele>274</ele>
        <time>2017-07-16T10:12:10Z</time>
      </trkpt>
      <trkpt lat="45.98158" lon="4.88113">
        <ele>274</ele>
        <time>2017-07-16T10:12:11Z</time>
      </trkpt>
      <trkpt lat="45.98156" lon="4.88105">
        <ele>274</ele>
        <time>2017-07-16T10:12:12Z</time>
      </trkpt>
      <trkpt lat="45.98154" lon="4.88098">
        <ele>274</ele>
        <time>2017-07-16T10:12:13Z</time>
      </trkpt>
      <trkpt lat="45.98152" lon="4.8809">
        <ele>274</ele>
        <time>2017-07-16T10:12:14Z</time>
      </trkpt>
      <trkpt lat="45.9815" lon="4.88082">
        <ele>274</ele>
        <time>2017-07-16T10:12:15Z</time>
      </trkpt>
      <trkpt lat="45.98147" lon="4.88074">
        <ele>275</ele>
        <time>2017-07-16T10:12:16Z</time>
      </trkpt>
      <trkpt lat="45.98145" lon="4.88066">
        <ele>275</ele>
        <time>2017-07-16T10:12:17Z</time>
      </trkpt>
      <trkpt lat="45.98143" lon="4.88057">
        <ele>275</ele>
        <time>2017-07-16T10:12:18Z</time>
      </trkpt>
      <trkpt lat="45.9814" lon="4.88049">
        <ele>275</ele>
        <time>2017-07-16T10:12:19Z</time>
      </trkpt>
      <trkpt lat="45.98138" lon="4.8804">
        <ele>276</ele>
        <time>2017-07-16T10:12:20Z</time>
      </trkpt>
      <trkpt lat="45.98135" lon="4.88032">
        <ele>276</ele>
        <time>2017-07-16T10:12:21Z</time>
      </trkpt>
      <trkpt lat="45.98133" lon="4.88024">
        <ele>276</ele>
        <time>2017-07-16T10:12:22Z</time>
      </trkpt>
      <trkpt lat="45.98131" lon="4.88017">
        <ele>276</ele>
        <time>2017-07-16T10:12:23Z</time>
      </trkpt>
      <trkpt lat="45.98129" lon="4.88011">
        <ele>276</ele>
        <time>2017-07-16T10:12:24Z</time>
      </trkpt>
      <trkpt lat="45.98127" lon="4.88004">
        <ele>276</ele>
        <time>2017-07-16T10:12:25Z</time>
      </trkpt>
      <trkpt lat="45.98125" lon="4.87997">
        <ele>277</ele>
        <time>2017-07-16T10:12:26Z</time>
      </trkpt>
      <trkpt lat="45.98123" lon="4.87991">
        <ele>277</ele>
        <time>2017-07-16T10:12:27Z</time>
      </trkpt>
      <trkpt lat="45.9812" lon="4.87984">
        <ele>277</ele>
        <time>2017-07-16T10:12:28Z</time>
      </trkpt>
      <trkpt lat="45.98118" lon="4.87977">
        <ele>277</ele>
        <time>2017-07-16T10:12:29Z</time>
      </trkpt>
      <trkpt lat="45.98116" lon="4.87971">
        <ele>277</ele>
        <time>2017-07-16T10:12:30Z</time>
      </trkpt>
      <trkpt lat="45.98114" lon="4.87964">
        <ele>277</ele>
        <time>2017-07-16T10:12:31Z</time>
      </trkpt>
      <trkpt lat="45.98112" lon="4.87957">
        <ele>277</ele>
        <time>2017-07-16T10:12:32Z</time>
      </trkpt>
      <trkpt lat="45.9811" lon="4.8795">
        <ele>277</ele>
        <time>2017-07-16T10:12:33Z</time>
      </trkpt>
      <trkpt lat="45.98108" lon="4.87944">
        <ele>277</ele>
        <time>2017-07-16T10:12:34Z</time>
      </trkpt>
      <trkpt lat="45.98106" lon="4.87937">
        <ele>277</ele>
        <time>2017-07-16T10:12:35Z</time>
      </trkpt>
      <trkpt lat="45.98104" lon="4.8793">
        <ele>277</ele>
        <time>2017-07-16T10:12:36Z</time>
      </trkpt>
      <trkpt lat="45.98102" lon="4.87924">
        <ele>277</ele>
        <time>2017-07-16T10:12:37Z</time>
      </trkpt>
      <trkpt lat="45.981" lon="4.87917">
        <ele>278</ele>
        <time>2017-07-16T10:12:38Z</time>
      </trkpt>
      <trkpt lat="45.98098" lon="4.8791">
        <ele>278</ele>
        <time>2017-07-16T10:12:39Z</time>
      </trkpt>
      <trkpt lat="45.98095" lon="4.87904">
        <ele>278</ele>
        <time>2017-07-16T10:12:40Z</time>
      </trkpt>
      <trkpt lat="45.98093" lon="4.87897">
        <ele>278</ele>
        <time>2017-07-16T10:12:41Z</time>
      </trkpt>
      <trkpt lat="45.98091" lon="4.8789">
        <ele>278</ele>
        <time>2017-07-16T10:12:42Z</time>
      </trkpt>
      <trkpt lat="45.98089" lon="4.87883">
        <ele>278</ele>
        <time>2017-07-16T10:12:43Z</time>
      </trkpt>
      <trkpt lat="45.98087" lon="4.87876">
        <ele>278</ele>
        <time>2017-07-16T10:12:44Z</time>
      </trkpt>
      <trkpt lat="45.98085" lon="4.87869">
        <ele>278</ele>
        <time>2017-07-16T10:12:45Z</time>
      </trkpt>
      <trkpt lat="45.98083" lon="4.87861">
        <ele>280</ele>
        <time>2017-07-16T10:12:46Z</time>
      </trkpt>
      <trkpt lat="45.98081" lon="4.87854">
        <ele>280</ele>
        <time>2017-07-16T10:12:47Z</time>
      </trkpt>
      <trkpt lat="45.98079" lon="4.87846">
        <ele>279</ele>
        <time>2017-07-16T10:12:48Z</time>
      </trkpt>
      <trkpt lat="45.98076" lon="4.87839">
        <ele>279</ele>
        <time>2017-07-16T10:12:49Z</time>
      </trkpt>
      <trkpt lat="45.98074" lon="4.87831">
        <ele>279</ele>
        <time>2017-07-16T10:12:50Z</time>
      </trkpt>
      <trkpt lat="45.98072" lon="4.87823">
        <ele>279</ele>
        <time>2017-07-16T10:12:51Z</time>
      </trkpt>
      <trkpt lat="45.9807" lon="4.87815">
        <ele>280</ele>
        <time>2017-07-16T10:12:52Z</time>
      </trkpt>
      <trkpt lat="45.98067" lon="4.87808">
        <ele>280</ele>
        <time>2017-07-16T10:12:53Z</time>
      </trkpt>
      <trkpt lat="45.98065" lon="4.878">
        <ele>280</ele>
        <time>2017-07-16T10:12:54Z</time>
      </trkpt>
      <trkpt lat="45.98063" lon="4.87792">
        <ele>280</ele>
        <time>2017-07-16T10:12:55Z</time>
      </trkpt>
      <trkpt lat="45.9806" lon="4.87785">
        <ele>280</ele>
        <time>2017-07-16T10:12:56Z</time>
      </trkpt>
      <trkpt lat="45.98058" lon="4.87778">
        <ele>280</ele>
        <time>2017-07-16T10:12:57Z</time>
      </trkpt>
      <trkpt lat="45.98056" lon="4.87771">
        <ele>280</ele>
        <time>2017-07-16T10:12:58Z</time>
      </trkpt>
      <trkpt lat="45.98053" lon="4.87764">
        <ele>280</ele>
        <time>2017-07-16T10:12:59Z</time>
      </trkpt>
      <trkpt lat="45.98051" lon="4.87757">
        <ele>280</ele>
        <time>2017-07-16T10:13:00Z</time>
      </trkpt>
      <trkpt lat="45.98049" lon="4.8775">
        <ele>280</ele>
        <time>2017-07-16T10:13:01Z</time>
      </trkpt>
      <trkpt lat="45.98047" lon="4.87743">
        <ele>280</ele>
        <time>2017-07-16T10:13:02Z</time>
      </trkpt>
      <trkpt lat="45.98045" lon="4.87736">
        <ele>280</ele>
        <time>2017-07-16T10:13:03Z</time>
      </trkpt>
      <trkpt lat="45.98043" lon="4.8773">
        <ele>280</ele>
        <time>2017-07-16T10:13:04Z</time>
      </trkpt>
      <trkpt lat="45.98041" lon="4.87724">
        <ele>279</ele>
        <time>2017-07-16T10:13:05Z</time>
      </trkpt>
      <trkpt lat="45.98039" lon="4.87711">
        <ele>279</ele>
        <time>2017-07-16T10:13:07Z</time>
      </trkpt>
      <trkpt lat="45.98038" lon="4.87705">
        <ele>280</ele>
        <time>2017-07-16T10:13:08Z</time>
      </trkpt>
      <trkpt lat="45.98036" lon="4.87698">
        <ele>280</ele>
        <time>2017-07-16T10:13:09Z</time>
      </trkpt>
      <trkpt lat="45.98034" lon="4.87691">
        <ele>280</ele>
        <time>2017-07-16T10:13:10Z</time>
      </trkpt>
      <trkpt lat="45.98031" lon="4.87684">
        <ele>280</ele>
        <time>2017-07-16T10:13:11Z</time>
      </trkpt>
      <trkpt lat="45.98029" lon="4.87678">
        <ele>280</ele>
        <time>2017-07-16T10:13:12Z</time>
      </trkpt>
      <trkpt lat="45.98026" lon="4.87671">
        <ele>280</ele>
        <time>2017-07-16T10:13:13Z</time>
      </trkpt>
      <trkpt lat="45.98024" lon="4.87664">
        <ele>280</ele>
        <time>2017-07-16T10:13:14Z</time>
      </trkpt>
      <trkpt lat="45.98022" lon="4.87657">
        <ele>280</ele>
        <time>2017-07-16T10:13:15Z</time>
      </trkpt>
      <trkpt lat="45.98019" lon="4.8765">
        <ele>280</ele>
        <time>2017-07-16T10:13:16Z</time>
      </trkpt>
      <trkpt lat="45.98017" lon="4.87644">
        <ele>280</ele>
        <time>2017-07-16T10:13:17Z</time>
      </trkpt>
      <trkpt lat="45.98016" lon="4.87637">
        <ele>280</ele>
        <time>2017-07-16T10:13:18Z</time>
      </trkpt>
      <trkpt lat="45.98013" lon="4.8763">
        <ele>280</ele>
        <time>2017-07-16T10:13:19Z</time>
      </trkpt>
      <trkpt lat="45.98012" lon="4.87624">
        <ele>280</ele>
        <time>2017-07-16T10:13:20Z</time>
      </trkpt>
      <trkpt lat="45.98009" lon="4.87617">
        <ele>280</ele>
        <time>2017-07-16T10:13:21Z</time>
      </trkpt>
      <trkpt lat="45.98007" lon="4.87611">
        <ele>280</ele>
        <time>2017-07-16T10:13:22Z</time>
      </trkpt>
      <trkpt lat="45.98004" lon="4.87605">
        <ele>280</ele>
        <time>2017-07-16T10:13:23Z</time>
      </trkpt>
      <trkpt lat="45.98002" lon="4.87599">
        <ele>280</ele>
        <time>2017-07-16T10:13:24Z</time>
      </trkpt>
      <trkpt lat="45.98" lon="4.87592">
        <ele>280</ele>
        <time>2017-07-16T10:13:25Z</time>
      </trkpt>
      <trkpt lat="45.97997" lon="4.87586">
        <ele>280</ele>
        <time>2017-07-16T10:13:26Z</time>
      </trkpt>
      <trkpt lat="45.97994" lon="4.8758">
        <ele>280</ele>
        <time>2017-07-16T10:13:27Z</time>
      </trkpt>
      <trkpt lat="45.9799" lon="4.87574">
        <ele>280</ele>
        <time>2017-07-16T10:13:28Z</time>
      </trkpt>
      <trkpt lat="45.97987" lon="4.87569">
        <ele>280</ele>
        <time>2017-07-16T10:13:29Z</time>
      </trkpt>
      <trkpt lat="45.97983" lon="4.87564">
        <ele>279</ele>
        <time>2017-07-16T10:13:30Z</time>
      </trkpt>
      <trkpt lat="45.97979" lon="4.8756">
        <ele>279</ele>
        <time>2017-07-16T10:13:31Z</time>
      </trkpt>
      <trkpt lat="45.97975" lon="4.87556">
        <ele>279</ele>
        <time>2017-07-16T10:13:32Z</time>
      </trkpt>
      <trkpt lat="45.97969" lon="4.87552">
        <ele>279</ele>
        <time>2017-07-16T10:13:33Z</time>
      </trkpt>
      <trkpt lat="45.97966" lon="4.87548">
        <ele>279</ele>
        <time>2017-07-16T10:13:34Z</time>
      </trkpt>
      <trkpt lat="45.97961" lon="4.87546">
        <ele>279</ele>
        <time>2017-07-16T10:13:35Z</time>
      </trkpt>
      <trkpt lat="45.97957" lon="4.87543">
        <ele>279</ele>
        <time>2017-07-16T10:13:36Z</time>
      </trkpt>
      <trkpt lat="45.97952" lon="4.87541">
        <ele>279</ele>
        <time>2017-07-16T10:13:37Z</time>
      </trkpt>
      <trkpt lat="45.97947" lon="4.87539">
        <ele>279</ele>
        <time>2017-07-16T10:13:38Z</time>
      </trkpt>
      <trkpt lat="45.97942" lon="4.87536">
        <ele>279</ele>
        <time>2017-07-16T10:13:39Z</time>
      </trkpt>
      <trkpt lat="45.97937" lon="4.87534">
        <ele>279</ele>
        <time>2017-07-16T10:13:40Z</time>
      </trkpt>
      <trkpt lat="45.97932" lon="4.87532">
        <ele>279</ele>
        <time>2017-07-16T10:13:41Z</time>
      </trkpt>
      <trkpt lat="45.97927" lon="4.87529">
        <ele>279</ele>
        <time>2017-07-16T10:13:42Z</time>
      </trkpt>
      <trkpt lat="45.97923" lon="4.87527">
        <ele>279</ele>
        <time>2017-07-16T10:13:43Z</time>
      </trkpt>
      <trkpt lat="45.97918" lon="4.87525">
        <ele>279</ele>
        <time>2017-07-16T10:13:44Z</time>
      </trkpt>
      <trkpt lat="45.97914" lon="4.87523">
        <ele>280</ele>
        <time>2017-07-16T10:13:45Z</time>
      </trkpt>
      <trkpt lat="45.9791" lon="4.87521">
        <ele>280</ele>
        <time>2017-07-16T10:13:46Z</time>
      </trkpt>
      <trkpt lat="45.97905" lon="4.87519">
        <ele>280</ele>
        <time>2017-07-16T10:13:47Z</time>
      </trkpt>
      <trkpt lat="45.979" lon="4.87517">
        <ele>280</ele>
        <time>2017-07-16T10:13:48Z</time>
      </trkpt>
      <trkpt lat="45.97894" lon="4.87513">
        <ele>280</ele>
        <time>2017-07-16T10:13:49Z</time>
      </trkpt>
      <trkpt lat="45.97889" lon="4.8751">
        <ele>281</ele>
        <time>2017-07-16T10:13:50Z</time>
      </trkpt>
      <trkpt lat="45.97883" lon="4.87507">
        <ele>281</ele>
        <time>2017-07-16T10:13:51Z</time>
      </trkpt>
      <trkpt lat="45.97878" lon="4.87504">
        <ele>281</ele>
        <time>2017-07-16T10:13:52Z</time>
      </trkpt>
      <trkpt lat="45.97872" lon="4.875">
        <ele>281</ele>
        <time>2017-07-16T10:13:53Z</time>
      </trkpt>
      <trkpt lat="45.97867" lon="4.87496">
        <ele>280</ele>
        <time>2017-07-16T10:13:54Z</time>
      </trkpt>
      <trkpt lat="45.97862" lon="4.87491">
        <ele>280</ele>
        <time>2017-07-16T10:13:55Z</time>
      </trkpt>
      <trkpt lat="45.97857" lon="4.87486">
        <ele>281</ele>
        <time>2017-07-16T10:13:56Z</time>
      </trkpt>
      <trkpt lat="45.97852" lon="4.87481">
        <ele>281</ele>
        <time>2017-07-16T10:13:57Z</time>
      </trkpt>
      <trkpt lat="45.97848" lon="4.87476">
        <ele>281</ele>
        <time>2017-07-16T10:13:58Z</time>
      </trkpt>
      <trkpt lat="45.97844" lon="4.87471">
        <ele>281</ele>
        <time>2017-07-16T10:13:59Z</time>
      </trkpt>
      <trkpt lat="45.97839" lon="4.87465">
        <ele>281</ele>
        <time>2017-07-16T10:14:00Z</time>
      </trkpt>
      <trkpt lat="45.97835" lon="4.8746">
        <ele>281</ele>
        <time>2017-07-16T10:14:01Z</time>
      </trkpt>
      <trkpt lat="45.9783" lon="4.87456">
        <ele>282</ele>
        <time>2017-07-16T10:14:02Z</time>
      </trkpt>
      <trkpt lat="45.97825" lon="4.87451">
        <ele>282</ele>
        <time>2017-07-16T10:14:03Z</time>
      </trkpt>
      <trkpt lat="45.9782" lon="4.87445">
        <ele>282</ele>
        <time>2017-07-16T10:14:04Z</time>
      </trkpt>
      <trkpt lat="45.97816" lon="4.8744">
        <ele>282</ele>
        <time>2017-07-16T10:14:05Z</time>
      </trkpt>
      <trkpt lat="45.97812" lon="4.87434">
        <ele>282</ele>
        <time>2017-07-16T10:14:06Z</time>
      </trkpt>
      <trkpt lat="45.97807" lon="4.87429">
        <ele>283</ele>
        <time>2017-07-16T10:14:07Z</time>
      </trkpt>
      <trkpt lat="45.97803" lon="4.87425">
        <ele>283</ele>
        <time>2017-07-16T10:14:08Z</time>
      </trkpt>
      <trkpt lat="45.97798" lon="4.87421">
        <ele>283</ele>
        <time>2017-07-16T10:14:09Z</time>
      </trkpt>
      <trkpt lat="45.97794" lon="4.87417">
        <ele>283</ele>
        <time>2017-07-16T10:14:10Z</time>
      </trkpt>
      <trkpt lat="45.97787" lon="4.87409">
        <ele>284</ele>
        <time>2017-07-16T10:14:12Z</time>
      </trkpt>
      <trkpt lat="45.97783" lon="4.87405">
        <ele>284</ele>
        <time>2017-07-16T10:14:13Z</time>
      </trkpt>
      <trkpt lat="45.97779" lon="4.87401">
        <ele>284</ele>
        <time>2017-07-16T10:14:14Z</time>
      </trkpt>
      <trkpt lat="45.97776" lon="4.87397">
        <ele>284</ele>
        <time>2017-07-16T10:14:15Z</time>
      </trkpt>
      <trkpt lat="45.97772" lon="4.87393">
        <ele>284</ele>
        <time>2017-07-16T10:14:16Z</time>
      </trkpt>
      <trkpt lat="45.97769" lon="4.87388">
        <ele>284</ele>
        <time>2017-07-16T10:14:17Z</time>
      </trkpt>
      <trkpt lat="45.97765" lon="4.87383">
        <ele>284</ele>
        <time>2017-07-16T10:14:18Z</time>
      </trkpt>
      <trkpt lat="45.97761" lon="4.87378">
        <ele>284</ele>
        <time>2017-07-16T10:14:19Z</time>
      </trkpt>
      <trkpt lat="45.97757" lon="4.87373">
        <ele>285</ele>
        <time>2017-07-16T10:14:20Z</time>
      </trkpt>
      <trkpt lat="45.97754" lon="4.87369">
        <ele>285</ele>
        <time>2017-07-16T10:14:21Z</time>
      </trkpt>
      <trkpt lat="45.9775" lon="4.87364">
        <ele>285</ele>
        <time>2017-07-16T10:14:22Z</time>
      </trkpt>
      <trkpt lat="45.97747" lon="4.87359">
        <ele>285</ele>
        <time>2017-07-16T10:14:23Z</time>
      </trkpt>
      <trkpt lat="45.9774" lon="4.87351">
        <ele>286</ele>
        <time>2017-07-16T10:14:25Z</time>
      </trkpt>
      <trkpt lat="45.97738" lon="4.87347">
        <ele>286</ele>
        <time>2017-07-16T10:14:26Z</time>
      </trkpt>
      <trkpt lat="45.97732" lon="4.87339">
        <ele>286</ele>
        <time>2017-07-16T10:14:28Z</time>
      </trkpt>
      <trkpt lat="45.97729" lon="4.87336">
        <ele>286</ele>
        <time>2017-07-16T10:14:29Z</time>
      </trkpt>
      <trkpt lat="45.97723" lon="4.87328">
        <ele>286</ele>
        <time>2017-07-16T10:14:31Z</time>
      </trkpt>
      <trkpt lat="45.9772" lon="4.87325">
        <ele>286</ele>
        <time>2017-07-16T10:14:32Z</time>
      </trkpt>
      <trkpt lat="45.97714" lon="4.87318">
        <ele>286</ele>
        <time>2017-07-16T10:14:34Z</time>
      </trkpt>
      <trkpt lat="45.9771" lon="4.87313">
        <ele>286</ele>
        <time>2017-07-16T10:14:35Z</time>
      </trkpt>
      <trkpt lat="45.97707" lon="4.87309">
        <ele>286</ele>
        <time>2017-07-16T10:14:36Z</time>
      </trkpt>
      <trkpt lat="45.97703" lon="4.87303">
        <ele>286</ele>
        <time>2017-07-16T10:14:37Z</time>
      </trkpt>
      <trkpt lat="45.97698" lon="4.87299">
        <ele>286</ele>
        <time>2017-07-16T10:14:38Z</time>
      </trkpt>
      <trkpt lat="45.97694" lon="4.87294">
        <ele>286</ele>
        <time>2017-07-16T10:14:39Z</time>
      </trkpt>
      <trkpt lat="45.9769" lon="4.8729">
        <ele>286</ele>
        <time>2017-07-16T10:14:40Z</time>
      </trkpt>
      <trkpt lat="45.97686" lon="4.87285">
        <ele>286</ele>
        <time>2017-07-16T10:14:41Z</time>
      </trkpt>
      <trkpt lat="45.97683" lon="4.87281">
        <ele>286</ele>
        <time>2017-07-16T10:14:42Z</time>
      </trkpt>
      <trkpt lat="45.97679" lon="4.87277">
        <ele>286</ele>
        <time>2017-07-16T10:14:43Z</time>
      </trkpt>
      <trkpt lat="45.97672" lon="4.8727">
        <ele>286</ele>
        <time>2017-07-16T10:14:45Z</time>
      </trkpt>
      <trkpt lat="45.97668" lon="4.87266">
        <ele>286</ele>
        <time>2017-07-16T10:14:46Z</time>
      </trkpt>
      <trkpt lat="45.97665" lon="4.87261">
        <ele>286</ele>
        <time>2017-07-16T10:14:47Z</time>
      </trkpt>
      <trkpt lat="45.97661" lon="4.87257">
        <ele>286</ele>
        <time>2017-07-16T10:14:48Z</time>
      </trkpt>
      <trkpt lat="45.97657" lon="4.87252">
        <ele>286</ele>
        <time>2017-07-16T10:14:49Z</time>
      </trkpt>
      <trkpt lat="45.97652" lon="4.87249">
        <ele>285</ele>
        <time>2017-07-16T10:14:50Z</time>
      </trkpt>
      <trkpt lat="45.97647" lon="4.87245">
        <ele>285</ele>
        <time>2017-07-16T10:14:51Z</time>
      </trkpt>
      <trkpt lat="45.97643" lon="4.8724">
        <ele>284</ele>
        <time>2017-07-16T10:14:52Z</time>
      </trkpt>
      <trkpt lat="45.97639" lon="4.87235">
        <ele>284</ele>
        <time>2017-07-16T10:14:53Z</time>
      </trkpt>
      <trkpt lat="45.97634" lon="4.87231">
        <ele>284</ele>
        <time>2017-07-16T10:14:54Z</time>
      </trkpt>
      <trkpt lat="45.97627" lon="4.87223">
        <ele>284</ele>
        <time>2017-07-16T10:14:56Z</time>
      </trkpt>
      <trkpt lat="45.97623" lon="4.87219">
        <ele>284</ele>
        <time>2017-07-16T10:14:57Z</time>
      </trkpt>
      <trkpt lat="45.97618" lon="4.87216">
        <ele>284</ele>
        <time>2017-07-16T10:14:58Z</time>
      </trkpt>
      <trkpt lat="45.97614" lon="4.87212">
        <ele>284</ele>
        <time>2017-07-16T10:14:59Z</time>
      </trkpt>
      <trkpt lat="45.97609" lon="4.87208">
        <ele>284</ele>
        <time>2017-07-16T10:15:00Z</time>
      </trkpt>
      <trkpt lat="45.97605" lon="4.87204">
        <ele>284</ele>
        <time>2017-07-16T10:15:01Z</time>
      </trkpt>
      <trkpt lat="45.97601" lon="4.87199">
        <ele>284</ele>
        <time>2017-07-16T10:15:02Z</time>
      </trkpt>
      <trkpt lat="45.97596" lon="4.87195">
        <ele>283</ele>
        <time>2017-07-16T10:15:03Z</time>
      </trkpt>
      <trkpt lat="45.97592" lon="4.8719">
        <ele>283</ele>
        <time>2017-07-16T10:15:04Z</time>
      </trkpt>
      <trkpt lat="45.97587" lon="4.87185">
        <ele>283</ele>
        <time>2017-07-16T10:15:05Z</time>
      </trkpt>
      <trkpt lat="45.97582" lon="4.8718">
        <ele>283</ele>
        <time>2017-07-16T10:15:06Z</time>
      </trkpt>
      <trkpt lat="45.97576" lon="4.87175">
        <ele>283</ele>
        <time>2017-07-16T10:15:07Z</time>
      </trkpt>
      <trkpt lat="45.97571" lon="4.8717">
        <ele>283</ele>
        <time>2017-07-16T10:15:08Z</time>
      </trkpt>
      <trkpt lat="45.97566" lon="4.87165">
        <ele>283</ele>
        <time>2017-07-16T10:15:09Z</time>
      </trkpt>
      <trkpt lat="45.9756" lon="4.87158">
        <ele>283</ele>
        <time>2017-07-16T10:15:11Z</time>
      </trkpt>
      <trkpt lat="45.97556" lon="4.87154">
        <ele>283</ele>
        <time>2017-07-16T10:15:12Z</time>
      </trkpt>
      <trkpt lat="45.97549" lon="4.87148">
        <ele>283</ele>
        <time>2017-07-16T10:15:14Z</time>
      </trkpt>
      <trkpt lat="45.97544" lon="4.87145">
        <ele>283</ele>
        <time>2017-07-16T10:15:15Z</time>
      </trkpt>
      <trkpt lat="45.97539" lon="4.87141">
        <ele>283</ele>
        <time>2017-07-16T10:15:16Z</time>
      </trkpt>
      <trkpt lat="45.97534" lon="4.87136">
        <ele>283</ele>
        <time>2017-07-16T10:15:17Z</time>
      </trkpt>
      <trkpt lat="45.97529" lon="4.87131">
        <ele>283</ele>
        <time>2017-07-16T10:15:18Z</time>
      </trkpt>
      <trkpt lat="45.97525" lon="4.87126">
        <ele>283</ele>
        <time>2017-07-16T10:15:19Z</time>
      </trkpt>
      <trkpt lat="45.9752" lon="4.87121">
        <ele>283</ele>
        <time>2017-07-16T10:15:20Z</time>
      </trkpt>
      <trkpt lat="45.97516" lon="4.87117">
        <ele>283</ele>
        <time>2017-07-16T10:15:21Z</time>
      </trkpt>
      <trkpt lat="45.97512" lon="4.87113">
        <ele>283</ele>
        <time>2017-07-16T10:15:22Z</time>
      </trkpt>
      <trkpt lat="45.97508" lon="4.87109">
        <ele>283</ele>
        <time>2017-07-16T10:15:23Z</time>
      </trkpt>
      <trkpt lat="45.97504" lon="4.87105">
        <ele>283</ele>
        <time>2017-07-16T10:15:24Z</time>
      </trkpt>
      <trkpt lat="45.97501" lon="4.87101">
        <ele>283</ele>
        <time>2017-07-16T10:15:25Z</time>
      </trkpt>
      <trkpt lat="45.97497" lon="4.87098">
        <ele>283</ele>
        <time>2017-07-16T10:15:26Z</time>
      </trkpt>
      <trkpt lat="45.97493" lon="4.87094">
        <ele>283</ele>
        <time>2017-07-16T10:15:27Z</time>
      </trkpt>
      <trkpt lat="45.97489" lon="4.8709">
        <ele>283</ele>
        <time>2017-07-16T10:15:28Z</time>
      </trkpt>
      <trkpt lat="45.97484" lon="4.87085">
        <ele>283</ele>
        <time>2017-07-16T10:15:29Z</time>
      </trkpt>
      <trkpt lat="45.9748" lon="4.87081">
        <ele>284</ele>
        <time>2017-07-16T10:15:30Z</time>
      </trkpt>
      <trkpt lat="45.97475" lon="4.87077">
        <ele>284</ele>
        <time>2017-07-16T10:15:31Z</time>
      </trkpt>
      <trkpt lat="45.9747" lon="4.87072">
        <ele>284</ele>
        <time>2017-07-16T10:15:32Z</time>
      </trkpt>
      <trkpt lat="45.97465" lon="4.87067">
        <ele>284</ele>
        <time>2017-07-16T10:15:33Z</time>
      </trkpt>
      <trkpt lat="45.9746" lon="4.87063">
        <ele>284</ele>
        <time>2017-07-16T10:15:34Z</time>
      </trkpt>
      <trkpt lat="45.97456" lon="4.87059">
        <ele>284</ele>
        <time>2017-07-16T10:15:35Z</time>
      </trkpt>
      <trkpt lat="45.97452" lon="4.87054">
        <ele>284</ele>
        <time>2017-07-16T10:15:36Z</time>
      </trkpt>
      <trkpt lat="45.97447" lon="4.8705">
        <ele>284</ele>
        <time>2017-07-16T10:15:37Z</time>
      </trkpt>
      <trkpt lat="45.97441" lon="4.87046">
        <ele>284</ele>
        <time>2017-07-16T10:15:38Z</time>
      </trkpt>
      <trkpt lat="45.97436" lon="4.87041">
        <ele>284</ele>
        <time>2017-07-16T10:15:39Z</time>
      </trkpt>
      <trkpt lat="45.97431" lon="4.87036">
        <ele>284</ele>
        <time>2017-07-16T10:15:40Z</time>
      </trkpt>
      <trkpt lat="45.97425" lon="4.87031">
        <ele>284</ele>
        <time>2017-07-16T10:15:41Z</time>
      </trkpt>
      <trkpt lat="45.9742" lon="4.87025">
        <ele>284</ele>
        <time>2017-07-16T10:15:42Z</time>
      </trkpt>
      <trkpt lat="45.97415" lon="4.8702">
        <ele>285</ele>
        <time>2017-07-16T10:15:43Z</time>
      </trkpt>
      <trkpt lat="45.9741" lon="4.87015">
        <ele>285</ele>
        <time>2017-07-16T10:15:44Z</time>
      </trkpt>
      <trkpt lat="45.97405" lon="4.8701">
        <ele>285</ele>
        <time>2017-07-16T10:15:45Z</time>
      </trkpt>
      <trkpt lat="45.974" lon="4.87005">
        <ele>285</ele>
        <time>2017-07-16T10:15:46Z</time>
      </trkpt>
      <trkpt lat="45.97395" lon="4.87">
        <ele>285</ele>
        <time>2017-07-16T10:15:47Z</time>
      </trkpt>
      <trkpt lat="45.97391" lon="4.86996">
        <ele>285</ele>
        <time>2017-07-16T10:15:48Z</time>
      </trkpt>
      <trkpt lat="45.97386" lon="4.86992">
        <ele>285</ele>
        <time>2017-07-16T10:15:49Z</time>
      </trkpt>
      <trkpt lat="45.97382" lon="4.86988">
        <ele>285</ele>
        <time>2017-07-16T10:15:50Z</time>
      </trkpt>
      <trkpt lat="45.97379" lon="4.86983">
        <ele>285</ele>
        <time>2017-07-16T10:15:51Z</time>
      </trkpt>
      <trkpt lat="45.97375" lon="4.86978">
        <ele>285</ele>
        <time>2017-07-16T10:15:52Z</time>
      </trkpt>
      <trkpt lat="45.97371" lon="4.86974">
        <ele>285</ele>
        <time>2017-07-16T10:15:53Z</time>
      </trkpt>
      <trkpt lat="45.97367" lon="4.86968">
        <ele>285</ele>
        <time>2017-07-16T10:15:54Z</time>
      </trkpt>
      <trkpt lat="45.97362" lon="4.86963">
        <ele>285</ele>
        <time>2017-07-16T10:15:55Z</time>
      </trkpt>
      <trkpt lat="45.97358" lon="4.86958">
        <ele>284</ele>
        <time>2017-07-16T10:15:56Z</time>
      </trkpt>
      <trkpt lat="45.97352" lon="4.86952">
        <ele>284</ele>
        <time>2017-07-16T10:15:57Z</time>
      </trkpt>
      <trkpt lat="45.97347" lon="4.86947">
        <ele>284</ele>
        <time>2017-07-16T10:15:58Z</time>
      </trkpt>
      <trkpt lat="45.97342" lon="4.86941">
        <ele>284</ele>
        <time>2017-07-16T10:15:59Z</time>
      </trkpt>
      <trkpt lat="45.97337" lon="4.86936">
        <ele>284</ele>
        <time>2017-07-16T10:16:00Z</time>
      </trkpt>
      <trkpt lat="45.97332" lon="4.8693">
        <ele>284</ele>
        <time>2017-07-16T10:16:01Z</time>
      </trkpt>
      <trkpt lat="45.97328" lon="4.86925">
        <ele>284</ele>
        <time>2017-07-16T10:16:02Z</time>
      </trkpt>
      <trkpt lat="45.97324" lon="4.86919">
        <ele>284</ele>
        <time>2017-07-16T10:16:03Z</time>
      </trkpt>
      <trkpt lat="45.97321" lon="4.86914">
        <ele>284</ele>
        <time>2017-07-16T10:16:04Z</time>
      </trkpt>
      <trkpt lat="45.97317" lon="4.86909">
        <ele>284</ele>
        <time>2017-07-16T10:16:05Z</time>
      </trkpt>
      <trkpt lat="45.97313" lon="4.86904">
        <ele>284</ele>
        <time>2017-07-16T10:16:06Z</time>
      </trkpt>
      <trkpt lat="45.97309" lon="4.86898">
        <ele>284</ele>
        <time>2017-07-16T10:16:07Z</time>
      </trkpt>
      <trkpt lat="45.97305" lon="4.86891">
        <ele>284</ele>
        <time>2017-07-16T10:16:08Z</time>
      </trkpt>
      <trkpt lat="45.973" lon="4.86884">
        <ele>284</ele>
        <time>2017-07-16T10:16:09Z</time>
      </trkpt>
      <trkpt lat="45.97294" lon="4.86877">
        <ele>284</ele>
        <time>2017-07-16T10:16:10Z</time>
      </trkpt>
      <trkpt lat="45.9729" lon="4.8687">
        <ele>285</ele>
        <time>2017-07-16T10:16:11Z</time>
      </trkpt>
      <trkpt lat="45.97286" lon="4.86865">
        <ele>285</ele>
        <time>2017-07-16T10:16:12Z</time>
      </trkpt>
      <trkpt lat="45.97281" lon="4.8686">
        <ele>285</ele>
        <time>2017-07-16T10:16:13Z</time>
      </trkpt>
      <trkpt lat="45.97278" lon="4.86854">
        <ele>285</ele>
        <time>2017-07-16T10:16:14Z</time>
      </trkpt>
      <trkpt lat="45.97275" lon="4.86848">
        <ele>285</ele>
        <time>2017-07-16T10:16:15Z</time>
      </trkpt>
      <trkpt lat="45.97272" lon="4.86842">
        <ele>285</ele>
        <time>2017-07-16T10:16:16Z</time>
      </trkpt>
      <trkpt lat="45.97269" lon="4.86836">
        <ele>285</ele>
        <time>2017-07-16T10:16:17Z</time>
      </trkpt>
      <trkpt lat="45.97266" lon="4.86831">
        <ele>285</ele>
        <time>2017-07-16T10:16:18Z</time>
      </trkpt>
      <trkpt lat="45.97262" lon="4.86825">
        <ele>285</ele>
        <time>2017-07-16T10:16:19Z</time>
      </trkpt>
      <trkpt lat="45.97259" lon="4.86819">
        <ele>285</ele>
        <time>2017-07-16T10:16:20Z</time>
      </trkpt>
      <trkpt lat="45.97255" lon="4.86814">
        <ele>285</ele>
        <time>2017-07-16T10:16:21Z</time>
      </trkpt>
      <trkpt lat="45.97251" lon="4.86809">
        <ele>285</ele>
        <time>2017-07-16T10:16:22Z</time>
      </trkpt>
      <trkpt lat="45.97247" lon="4.86804">
        <ele>284</ele>
        <time>2017-07-16T10:16:23Z</time>
      </trkpt>
      <trkpt lat="45.97242" lon="4.86799">
        <ele>284</ele>
        <time>2017-07-16T10:16:24Z</time>
      </trkpt>
      <trkpt lat="45.97237" lon="4.86795">
        <ele>284</ele>
        <time>2017-07-16T10:16:25Z</time>
      </trkpt>
      <trkpt lat="45.9723" lon="4.86793">
        <ele>284</ele>
        <time>2017-07-16T10:16:26Z</time>
      </trkpt>
      <trkpt lat="45.97224" lon="4.86792">
        <ele>284</ele>
        <time>2017-07-16T10:16:27Z</time>
      </trkpt>
      <trkpt lat="45.97217" lon="4.86792">
        <ele>284</ele>
        <time>2017-07-16T10:16:28Z</time>
      </trkpt>
      <trkpt lat="45.97211" lon="4.86793">
        <ele>284</ele>
        <time>2017-07-16T10:16:29Z</time>
      </trkpt>
      <trkpt lat="45.97206" lon="4.86794">
        <ele>284</ele>
        <time>2017-07-16T10:16:30Z</time>
      </trkpt>
      <trkpt lat="45.972" lon="4.86796">
        <ele>284</ele>
        <time>2017-07-16T10:16:31Z</time>
      </trkpt>
      <trkpt lat="45.97195" lon="4.86798">
        <ele>284</ele>
        <time>2017-07-16T10:16:32Z</time>
      </trkpt>
      <trkpt lat="45.97189" lon="4.86799">
        <ele>284</ele>
        <time>2017-07-16T10:16:33Z</time>
      </trkpt>
      <trkpt lat="45.97184" lon="4.86801">
        <ele>284</ele>
        <time>2017-07-16T10:16:34Z</time>
      </trkpt>
      <trkpt lat="45.97179" lon="4.86803">
        <ele>284</ele>
        <time>2017-07-16T10:16:35Z</time>
      </trkpt>
      <trkpt lat="45.97174" lon="4.86806">
        <ele>283</ele>
        <time>2017-07-16T10:16:36Z</time>
      </trkpt>
      <trkpt lat="45.97169" lon="4.86808">
        <ele>283</ele>
        <time>2017-07-16T10:16:37Z</time>
      </trkpt>
      <trkpt lat="45.97164" lon="4.8681">
        <ele>283</ele>
        <time>2017-07-16T10:16:38Z</time>
      </trkpt>
      <trkpt lat="45.97159" lon="4.86812">
        <ele>283</ele>
        <time>2017-07-16T10:16:39Z</time>
      </trkpt>
      <trkpt lat="45.97154" lon="4.86813">
        <ele>283</ele>
        <time>2017-07-16T10:16:40Z</time>
      </trkpt>
      <trkpt lat="45.97149" lon="4.86815">
        <ele>283</ele>
        <time>2017-07-16T10:16:41Z</time>
      </trkpt>
      <trkpt lat="45.97145" lon="4.86817">
        <ele>283</ele>
        <time>2017-07-16T10:16:42Z</time>
      </trkpt>
      <trkpt lat="45.9714" lon="4.86819">
        <ele>283</ele>
        <time>2017-07-16T10:16:43Z</time>
      </trkpt>
      <trkpt lat="45.97134" lon="4.86821">
        <ele>283</ele>
        <time>2017-07-16T10:16:44Z</time>
      </trkpt>
      <trkpt lat="45.97128" lon="4.86824">
        <ele>283</ele>
        <time>2017-07-16T10:16:45Z</time>
      </trkpt>
      <trkpt lat="45.97123" lon="4.86826">
        <ele>283</ele>
        <time>2017-07-16T10:16:46Z</time>
      </trkpt>
      <trkpt lat="45.97117" lon="4.86828">
        <ele>283</ele>
        <time>2017-07-16T10:16:47Z</time>
      </trkpt>
      <trkpt lat="45.97112" lon="4.86831">
        <ele>283</ele>
        <time>2017-07-16T10:16:48Z</time>
      </trkpt>
      <trkpt lat="45.97107" lon="4.86833">
        <ele>284</ele>
        <time>2017-07-16T10:16:49Z</time>
      </trkpt>
      <trkpt lat="45.97101" lon="4.86834">
        <ele>284</ele>
        <time>2017-07-16T10:16:50Z</time>
      </trkpt>
      <trkpt lat="45.97095" lon="4.86835">
        <ele>284</ele>
        <time>2017-07-16T10:16:51Z</time>
      </trkpt>
      <trkpt lat="45.9709" lon="4.86836">
        <ele>284</ele>
        <time>2017-07-16T10:16:52Z</time>
      </trkpt>
      <trkpt lat="45.97085" lon="4.86837">
        <ele>284</ele>
        <time>2017-07-16T10:16:53Z</time>
      </trkpt>
      <trkpt lat="45.9708" lon="4.86838">
        <ele>284</ele>
        <time>2017-07-16T10:16:54Z</time>
      </trkpt>
      <trkpt lat="45.97076" lon="4.86838">
        <ele>284</ele>
        <time>2017-07-16T10:16:55Z</time>
      </trkpt>
      <trkpt lat="45.97071" lon="4.86838">
        <ele>284</ele>
        <time>2017-07-16T10:16:56Z</time>
      </trkpt>
      <trkpt lat="45.97065" lon="4.86839">
        <ele>284</ele>
        <time>2017-07-16T10:16:57Z</time>
      </trkpt>
      <trkpt lat="45.97059" lon="4.86839">
        <ele>284</ele>
        <time>2017-07-16T10:16:58Z</time>
      </trkpt>
      <trkpt lat="45.97053" lon="4.8684">
        <ele>285</ele>
        <time>2017-07-16T10:16:59Z</time>
      </trkpt>
      <trkpt lat="45.97047" lon="4.86842">
        <ele>285</ele>
        <time>2017-07-16T10:17:00Z</time>
      </trkpt>
      <trkpt lat="45.9704" lon="4.86843">
        <ele>285</ele>
        <time>2017-07-16T10:17:01Z</time>
      </trkpt>
      <trkpt lat="45.97034" lon="4.86843">
        <ele>285</ele>
        <time>2017-07-16T10:17:02Z</time>
      </trkpt>
      <trkpt lat="45.97028" lon="4.86844">
        <ele>285</ele>
        <time>2017-07-16T10:17:03Z</time>
      </trkpt>
      <trkpt lat="45.97023" lon="4.86844">
        <ele>285</ele>
        <time>2017-07-16T10:17:04Z</time>
      </trkpt>
      <trkpt lat="45.97017" lon="4.86845">
        <ele>285</ele>
        <time>2017-07-16T10:17:05Z</time>
      </trkpt>
      <trkpt lat="45.97012" lon="4.86846">
        <ele>285</ele>
        <time>2017-07-16T10:17:06Z</time>
      </trkpt>
      <trkpt lat="45.97007" lon="4.86846">
        <ele>285</ele>
        <time>2017-07-16T10:17:07Z</time>
      </trkpt>
      <trkpt lat="45.97002" lon="4.86846">
        <ele>285</ele>
        <time>2017-07-16T10:17:08Z</time>
      </trkpt>
      <trkpt lat="45.96996" lon="4.86846">
        <ele>286</ele>
        <time>2017-07-16T10:17:09Z</time>
      </trkpt>
      <trkpt lat="45.96991" lon="4.86845">
        <ele>286</ele>
        <time>2017-07-16T10:17:10Z</time>
      </trkpt>
      <trkpt lat="45.96986" lon="4.86844">
        <ele>286</ele>
        <time>2017-07-16T10:17:11Z</time>
      </trkpt>
      <trkpt lat="45.96981" lon="4.86843">
        <ele>286</ele>
        <time>2017-07-16T10:17:12Z</time>
      </trkpt>
      <trkpt lat="45.96976" lon="4.86842">
        <ele>286</ele>
        <time>2017-07-16T10:17:13Z</time>
      </trkpt>
      <trkpt lat="45.96971" lon="4.86841">
        <ele>286</ele>
        <time>2017-07-16T10:17:14Z</time>
      </trkpt>
      <trkpt lat="45.96965" lon="4.86839">
        <ele>286</ele>
        <time>2017-07-16T10:17:15Z</time>
      </trkpt>
      <trkpt lat="45.96959" lon="4.86838">
        <ele>287</ele>
        <time>2017-07-16T10:17:16Z</time>
      </trkpt>
      <trkpt lat="45.96954" lon="4.86835">
        <ele>287</ele>
        <time>2017-07-16T10:17:17Z</time>
      </trkpt>
      <trkpt lat="45.96948" lon="4.86832">
        <ele>287</ele>
        <time>2017-07-16T10:17:18Z</time>
      </trkpt>
      <trkpt lat="45.96943" lon="4.86829">
        <ele>287</ele>
        <time>2017-07-16T10:17:19Z</time>
      </trkpt>
      <trkpt lat="45.96938" lon="4.86826">
        <ele>287</ele>
        <time>2017-07-16T10:17:20Z</time>
      </trkpt>
      <trkpt lat="45.96933" lon="4.86823">
        <ele>287</ele>
        <time>2017-07-16T10:17:21Z</time>
      </trkpt>
      <trkpt lat="45.96926" lon="4.86817">
        <ele>287</ele>
        <time>2017-07-16T10:17:23Z</time>
      </trkpt>
      <trkpt lat="45.96922" lon="4.86815">
        <ele>287</ele>
        <time>2017-07-16T10:17:24Z</time>
      </trkpt>
      <trkpt lat="45.96918" lon="4.86812">
        <ele>287</ele>
        <time>2017-07-16T10:17:25Z</time>
      </trkpt>
      <trkpt lat="45.96914" lon="4.86809">
        <ele>288</ele>
        <time>2017-07-16T10:17:26Z</time>
      </trkpt>
      <trkpt lat="45.9691" lon="4.86806">
        <ele>288</ele>
        <time>2017-07-16T10:17:27Z</time>
      </trkpt>
      <trkpt lat="45.96905" lon="4.86802">
        <ele>289</ele>
        <time>2017-07-16T10:17:28Z</time>
      </trkpt>
      <trkpt lat="45.96901" lon="4.86799">
        <ele>289</ele>
        <time>2017-07-16T10:17:29Z</time>
      </trkpt>
      <trkpt lat="45.96896" lon="4.86795">
        <ele>289</ele>
        <time>2017-07-16T10:17:30Z</time>
      </trkpt>
      <trkpt lat="45.96892" lon="4.86791">
        <ele>289</ele>
        <time>2017-07-16T10:17:31Z</time>
      </trkpt>
      <trkpt lat="45.96887" lon="4.86787">
        <ele>289</ele>
        <time>2017-07-16T10:17:32Z</time>
      </trkpt>
      <trkpt lat="45.96882" lon="4.86783">
        <ele>289</ele>
        <time>2017-07-16T10:17:33Z</time>
      </trkpt>
      <trkpt lat="45.96878" lon="4.86779">
        <ele>289</ele>
        <time>2017-07-16T10:17:34Z</time>
      </trkpt>
      <trkpt lat="45.96875" lon="4.86775">
        <ele>289</ele>
        <time>2017-07-16T10:17:35Z</time>
      </trkpt>
      <trkpt lat="45.96871" lon="4.86771">
        <ele>289</ele>
        <time>2017-07-16T10:17:36Z</time>
      </trkpt>
      <trkpt lat="45.96867" lon="4.86767">
        <ele>289</ele>
        <time>2017-07-16T10:17:37Z</time>
      </trkpt>
      <trkpt lat="45.96864" lon="4.86764">
        <ele>289</ele>
        <time>2017-07-16T10:17:38Z</time>
      </trkpt>
      <trkpt lat="45.96859" lon="4.8676">
        <ele>289</ele>
        <time>2017-07-16T10:17:39Z</time>
      </trkpt>
      <trkpt lat="45.96855" lon="4.86756">
        <ele>289</ele>
        <time>2017-07-16T10:17:40Z</time>
      </trkpt>
      <trkpt lat="45.96851" lon="4.86753">
        <ele>289</ele>
        <time>2017-07-16T10:17:41Z</time>
      </trkpt>
      <trkpt lat="45.96847" lon="4.86749">
        <ele>289</ele>
        <time>2017-07-16T10:17:42Z</time>
      </trkpt>
      <trkpt lat="45.9684" lon="4.86741">
        <ele>289</ele>
        <time>2017-07-16T10:17:44Z</time>
      </trkpt>
      <trkpt lat="45.96837" lon="4.86738">
        <ele>289</ele>
        <time>2017-07-16T10:17:45Z</time>
      </trkpt>
      <trkpt lat="45.96829" lon="4.86733">
        <ele>289</ele>
        <time>2017-07-16T10:17:47Z</time>
      </trkpt>
      <trkpt lat="45.96826" lon="4.8673">
        <ele>289</ele>
        <time>2017-07-16T10:17:48Z</time>
      </trkpt>
      <trkpt lat="45.96822" lon="4.86726">
        <ele>289</ele>
        <time>2017-07-16T10:17:49Z</time>
      </trkpt>
      <trkpt lat="45.96818" lon="4.86723">
        <ele>289</ele>
        <time>2017-07-16T10:17:50Z</time>
      </trkpt>
      <trkpt lat="45.96811" lon="4.86716">
        <ele>289</ele>
        <time>2017-07-16T10:17:52Z</time>
      </trkpt>
      <trkpt lat="45.96807" lon="4.86713">
        <ele>289</ele>
        <time>2017-07-16T10:17:53Z</time>
      </trkpt>
      <trkpt lat="45.968" lon="4.86706">
        <ele>289</ele>
        <time>2017-07-16T10:17:55Z</time>
      </trkpt>
      <trkpt lat="45.96796" lon="4.86703">
        <ele>289</ele>
        <time>2017-07-16T10:17:56Z</time>
      </trkpt>
      <trkpt lat="45.9679" lon="4.86697">
        <ele>289</ele>
        <time>2017-07-16T10:17:58Z</time>
      </trkpt>
      <trkpt lat="45.96786" lon="4.86694">
        <ele>289</ele>
        <time>2017-07-16T10:17:59Z</time>
      </trkpt>
      <trkpt lat="45.9678" lon="4.86687">
        <ele>289</ele>
        <time>2017-07-16T10:18:01Z</time>
      </trkpt>
      <trkpt lat="45.96777" lon="4.86684">
        <ele>289</ele>
        <time>2017-07-16T10:18:02Z</time>
      </trkpt>
      <trkpt lat="45.96771" lon="4.86677">
        <ele>289</ele>
        <time>2017-07-16T10:18:04Z</time>
      </trkpt>
      <trkpt lat="45.96769" lon="4.86673">
        <ele>290</ele>
        <time>2017-07-16T10:18:05Z</time>
      </trkpt>
      <trkpt lat="45.96764" lon="4.86665">
        <ele>290</ele>
        <time>2017-07-16T10:18:07Z</time>
      </trkpt>
      <trkpt lat="45.96762" lon="4.8666">
        <ele>290</ele>
        <time>2017-07-16T10:18:08Z</time>
      </trkpt>
      <trkpt lat="45.96758" lon="4.86653">
        <ele>290</ele>
        <time>2017-07-16T10:18:10Z</time>
      </trkpt>
      <trkpt lat="45.96755" lon="4.86651">
        <ele>290</ele>
        <time>2017-07-16T10:18:11Z</time>
      </trkpt>
      <trkpt lat="45.96748" lon="4.8665">
        <ele>290</ele>
        <time>2017-07-16T10:18:13Z</time>
      </trkpt>
      <trkpt lat="45.96744" lon="4.86652">
        <ele>290</ele>
        <time>2017-07-16T10:18:14Z</time>
      </trkpt>
      <trkpt lat="45.96739" lon="4.86656">
        <ele>290</ele>
        <time>2017-07-16T10:18:15Z</time>
      </trkpt>
      <trkpt lat="45.96736" lon="4.8666">
        <ele>290</ele>
        <time>2017-07-16T10:18:16Z</time>
      </trkpt>
      <trkpt lat="45.96733" lon="4.86666">
        <ele>290</ele>
        <time>2017-07-16T10:18:17Z</time>
      </trkpt>
      <trkpt lat="45.9673" lon="4.86671">
        <ele>290</ele>
        <time>2017-07-16T10:18:18Z</time>
      </trkpt>
      <trkpt lat="45.96727" lon="4.86677">
        <ele>289</ele>
        <time>2017-07-16T10:18:19Z</time>
      </trkpt>
      <trkpt lat="45.96723" lon="4.86683">
        <ele>289</ele>
        <time>2017-07-16T10:18:20Z</time>
      </trkpt>
      <trkpt lat="45.9672" lon="4.86689">
        <ele>289</ele>
        <time>2017-07-16T10:18:21Z</time>
      </trkpt>
      <trkpt lat="45.96717" lon="4.86695">
        <ele>289</ele>
        <time>2017-07-16T10:18:22Z</time>
      </trkpt>
      <trkpt lat="45.96713" lon="4.86701">
        <ele>289</ele>
        <time>2017-07-16T10:18:23Z</time>
      </trkpt>
      <trkpt lat="45.96709" lon="4.86706">
        <ele>289</ele>
        <time>2017-07-16T10:18:24Z</time>
      </trkpt>
      <trkpt lat="45.96705" lon="4.86712">
        <ele>289</ele>
        <time>2017-07-16T10:18:25Z</time>
      </trkpt>
      <trkpt lat="45.96702" lon="4.86717">
        <ele>289</ele>
        <time>2017-07-16T10:18:26Z</time>
      </trkpt>
      <trkpt lat="45.96698" lon="4.86723">
        <ele>289</ele>
        <time>2017-07-16T10:18:27Z</time>
      </trkpt>
      <trkpt lat="45.96695" lon="4.86729">
        <ele>289</ele>
        <time>2017-07-16T10:18:28Z</time>
      </trkpt>
      <trkpt lat="45.96691" lon="4.86735">
        <ele>289</ele>
        <time>2017-07-16T10:18:29Z</time>
      </trkpt>
      <trkpt lat="45.96688" lon="4.86741">
        <ele>289</ele>
        <time>2017-07-16T10:18:30Z</time>
      </trkpt>
      <trkpt lat="45.96684" lon="4.86747">
        <ele>289</ele>
        <time>2017-07-16T10:18:31Z</time>
      </trkpt>
      <trkpt lat="45.96681" lon="4.86753">
        <ele>289</ele>
        <time>2017-07-16T10:18:32Z</time>
      </trkpt>
      <trkpt lat="45.96678" lon="4.86759">
        <ele>289</ele>
        <time>2017-07-16T10:18:33Z</time>
      </trkpt>
      <trkpt lat="45.96674" lon="4.86765">
        <ele>289</ele>
        <time>2017-07-16T10:18:34Z</time>
      </trkpt>
      <trkpt lat="45.9667" lon="4.8677">
        <ele>289</ele>
        <time>2017-07-16T10:18:35Z</time>
      </trkpt>
      <trkpt lat="45.96667" lon="4.86776">
        <ele>288</ele>
        <time>2017-07-16T10:18:36Z</time>
      </trkpt>
      <trkpt lat="45.96663" lon="4.86781">
        <ele>288</ele>
        <time>2017-07-16T10:18:37Z</time>
      </trkpt>
      <trkpt lat="45.9666" lon="4.86786">
        <ele>288</ele>
        <time>2017-07-16T10:18:38Z</time>
      </trkpt>
      <trkpt lat="45.96656" lon="4.86791">
        <ele>288</ele>
        <time>2017-07-16T10:18:39Z</time>
      </trkpt>
      <trkpt lat="45.96653" lon="4.86797">
        <ele>288</ele>
        <time>2017-07-16T10:18:40Z</time>
      </trkpt>
      <trkpt lat="45.96649" lon="4.86803">
        <ele>288</ele>
        <time>2017-07-16T10:18:41Z</time>
      </trkpt>
      <trkpt lat="45.96645" lon="4.86808">
        <ele>288</ele>
        <time>2017-07-16T10:18:42Z</time>
      </trkpt>
      <trkpt lat="45.96641" lon="4.86814">
        <ele>288</ele>
        <time>2017-07-16T10:18:43Z</time>
      </trkpt>
      <trkpt lat="45.96638" lon="4.8682">
        <ele>288</ele>
        <time>2017-07-16T10:18:44Z</time>
      </trkpt>
      <trkpt lat="45.96634" lon="4.86826">
        <ele>288</ele>
        <time>2017-07-16T10:18:45Z</time>
      </trkpt>
      <trkpt lat="45.96631" lon="4.86832">
        <ele>288</ele>
        <time>2017-07-16T10:18:46Z</time>
      </trkpt>
      <trkpt lat="45.96627" lon="4.86837">
        <ele>287</ele>
        <time>2017-07-16T10:18:47Z</time>
      </trkpt>
      <trkpt lat="45.96624" lon="4.86843">
        <ele>287</ele>
        <time>2017-07-16T10:18:48Z</time>
      </trkpt>
      <trkpt lat="45.96621" lon="4.86848">
        <ele>287</ele>
        <time>2017-07-16T10:18:49Z</time>
      </trkpt>
      <trkpt lat="45.96618" lon="4.86853">
        <ele>287</ele>
        <time>2017-07-16T10:18:50Z</time>
      </trkpt>
      <trkpt lat="45.96614" lon="4.86858">
        <ele>287</ele>
        <time>2017-07-16T10:18:51Z</time>
      </trkpt>
      <trkpt lat="45.96611" lon="4.86864">
        <ele>287</ele>
        <time>2017-07-16T10:18:52Z</time>
      </trkpt>
      <trkpt lat="45.96608" lon="4.86869">
        <ele>287</ele>
        <time>2017-07-16T10:18:53Z</time>
      </trkpt>
      <trkpt lat="45.96604" lon="4.86874">
        <ele>287</ele>
        <time>2017-07-16T10:18:54Z</time>
      </trkpt>
      <trkpt lat="45.966" lon="4.86879">
        <ele>287</ele>
        <time>2017-07-16T10:18:55Z</time>
      </trkpt>
      <trkpt lat="45.96597" lon="4.86885">
        <ele>287</ele>
        <time>2017-07-16T10:18:56Z</time>
      </trkpt>
      <trkpt lat="45.96593" lon="4.8689">
        <ele>286</ele>
        <time>2017-07-16T10:18:57Z</time>
      </trkpt>
      <trkpt lat="45.96589" lon="4.86896">
        <ele>286</ele>
        <time>2017-07-16T10:18:58Z</time>
      </trkpt>
      <trkpt lat="45.96586" lon="4.86901">
        <ele>286</ele>
        <time>2017-07-16T10:18:59Z</time>
      </trkpt>
      <trkpt lat="45.96582" lon="4.86907">
        <ele>285</ele>
        <time>2017-07-16T10:19:00Z</time>
      </trkpt>
      <trkpt lat="45.96578" lon="4.86914">
        <ele>285</ele>
        <time>2017-07-16T10:19:01Z</time>
      </trkpt>
      <trkpt lat="45.96575" lon="4.8692">
        <ele>284</ele>
        <time>2017-07-16T10:19:02Z</time>
      </trkpt>
      <trkpt lat="45.96571" lon="4.86926">
        <ele>284</ele>
        <time>2017-07-16T10:19:03Z</time>
      </trkpt>
      <trkpt lat="45.96568" lon="4.86933">
        <ele>284</ele>
        <time>2017-07-16T10:19:04Z</time>
      </trkpt>
      <trkpt lat="45.96564" lon="4.86939">
        <ele>284</ele>
        <time>2017-07-16T10:19:05Z</time>
      </trkpt>
      <trkpt lat="45.9656" lon="4.86947">
        <ele>283</ele>
        <time>2017-07-16T10:19:06Z</time>
      </trkpt>
      <trkpt lat="45.96556" lon="4.86955">
        <ele>283</ele>
        <time>2017-07-16T10:19:07Z</time>
      </trkpt>
      <trkpt lat="45.96553" lon="4.86962">
        <ele>283</ele>
        <time>2017-07-16T10:19:08Z</time>
      </trkpt>
      <trkpt lat="45.96549" lon="4.86969">
        <ele>283</ele>
        <time>2017-07-16T10:19:09Z</time>
      </trkpt>
      <trkpt lat="45.96546" lon="4.86975">
        <ele>283</ele>
        <time>2017-07-16T10:19:10Z</time>
      </trkpt>
      <trkpt lat="45.96541" lon="4.86983">
        <ele>283</ele>
        <time>2017-07-16T10:19:12Z</time>
      </trkpt>
      <trkpt lat="45.96538" lon="4.86984">
        <ele>283</ele>
        <time>2017-07-16T10:19:13Z</time>
      </trkpt>
      <trkpt lat="45.96532" lon="4.86992">
        <ele>283</ele>
        <time>2017-07-16T10:19:16Z</time>
      </trkpt>
      <trkpt lat="45.96532" lon="4.86996">
        <ele>283</ele>
        <time>2017-07-16T10:19:17Z</time>
      </trkpt>
      <trkpt lat="45.96533" lon="4.87006">
        <ele>283</ele>
        <time>2017-07-16T10:19:20Z</time>
      </trkpt>
      <trkpt lat="45.96534" lon="4.87008">
        <ele>283</ele>
        <time>2017-07-16T10:19:21Z</time>
      </trkpt>
      <trkpt lat="45.96538" lon="4.87018">
        <ele>283</ele>
        <time>2017-07-16T10:19:26Z</time>
      </trkpt>
      <trkpt lat="45.9654" lon="4.8702">
        <ele>283</ele>
        <time>2017-07-16T10:19:27Z</time>
      </trkpt>
      <trkpt lat="45.96545" lon="4.87023">
        <ele>283</ele>
        <time>2017-07-16T10:26:36Z</time>
      </trkpt>
      <trkpt lat="45.96549" lon="4.87029">
        <ele>283</ele>
        <time>2017-07-16T10:26:37Z</time>
      </trkpt>
      <trkpt lat="45.96557" lon="4.87035">
        <ele>283</ele>
        <time>2017-07-16T10:26:47Z</time>
      </trkpt>
      <trkpt lat="45.96558" lon="4.87039">
        <ele>283</ele>
        <time>2017-07-16T10:26:48Z</time>
      </trkpt>
      <trkpt lat="45.96557" lon="4.87049">
        <ele>283</ele>
        <time>2017-07-16T10:26:50Z</time>
      </trkpt>
      <trkpt lat="45.96557" lon="4.87054">
        <ele>283</ele>
        <time>2017-07-16T10:26:51Z</time>
      </trkpt>
      <trkpt lat="45.96558" lon="4.87066">
        <ele>283</ele>
        <time>2017-07-16T10:26:54Z</time>
      </trkpt>
      <trkpt lat="45.96557" lon="4.8707">
        <ele>283</ele>
        <time>2017-07-16T10:26:55Z</time>
      </trkpt>
      <trkpt lat="45.9655" lon="4.87073">
        <ele>283</ele>
        <time>2017-07-16T10:26:59Z</time>
      </trkpt>
      <trkpt lat="45.96548" lon="4.87073">
        <ele>283</ele>
        <time>2017-07-16T10:27:00Z</time>
      </trkpt>
      <trkpt lat="45.96543" lon="4.87063">
        <ele>283</ele>
        <time>2017-07-16T10:27:04Z</time>
      </trkpt>
      <trkpt lat="45.96542" lon="4.87058">
        <ele>283</ele>
        <time>2017-07-16T10:27:05Z</time>
      </trkpt>
      <trkpt lat="45.96541" lon="4.8705">
        <ele>283</ele>
        <time>2017-07-16T10:27:07Z</time>
      </trkpt>
      <trkpt lat="45.96539" lon="4.87046">
        <ele>283</ele>
        <time>2017-07-16T10:27:08Z</time>
      </trkpt>
      <trkpt lat="45.96538" lon="4.87037">
        <ele>283</ele>
        <time>2017-07-16T10:27:10Z</time>
      </trkpt>
      <trkpt lat="45.96537" lon="4.87032">
        <ele>283</ele>
        <time>2017-07-16T10:27:11Z</time>
      </trkpt>
      <trkpt lat="45.96537" lon="4.8702">
        <ele>283</ele>
        <time>2017-07-16T10:27:18Z</time>
      </trkpt>
      <trkpt lat="45.96539" lon="4.87016">
        <ele>283</ele>
        <time>2017-07-16T10:27:19Z</time>
      </trkpt>
      <trkpt lat="45.96544" lon="4.87008">
        <ele>283</ele>
        <time>2017-07-16T10:27:21Z</time>
      </trkpt>
      <trkpt lat="45.96545" lon="4.87003">
        <ele>283</ele>
        <time>2017-07-16T10:27:22Z</time>
      </trkpt>
      <trkpt lat="45.96548" lon="4.86995">
        <ele>283</ele>
        <time>2017-07-16T10:27:24Z</time>
      </trkpt>
      <trkpt lat="45.9655" lon="4.8699">
        <ele>283</ele>
        <time>2017-07-16T10:27:25Z</time>
      </trkpt>
      <trkpt lat="45.96555" lon="4.86983">
        <ele>283</ele>
        <time>2017-07-16T10:27:27Z</time>
      </trkpt>
      <trkpt lat="45.96557" lon="4.86978">
        <ele>283</ele>
        <time>2017-07-16T10:27:28Z</time>
      </trkpt>
      <trkpt lat="45.96562" lon="4.8697">
        <ele>283</ele>
        <time>2017-07-16T10:27:30Z</time>
      </trkpt>
      <trkpt lat="45.96564" lon="4.86965">
        <ele>284</ele>
        <time>2017-07-16T10:27:31Z</time>
      </trkpt>
      <trkpt lat="45.96569" lon="4.86955">
        <ele>284</ele>
        <time>2017-07-16T10:27:33Z</time>
      </trkpt>
      <trkpt lat="45.96572" lon="4.8695">
        <ele>284</ele>
        <time>2017-07-16T10:27:34Z</time>
      </trkpt>
      <trkpt lat="45.96576" lon="4.8694">
        <ele>284</ele>
        <time>2017-07-16T10:27:36Z</time>
      </trkpt>
      <trkpt lat="45.9658" lon="4.86935">
        <ele>284</ele>
        <time>2017-07-16T10:27:37Z</time>
      </trkpt>
      <trkpt lat="45.96586" lon="4.86927">
        <ele>285</ele>
        <time>2017-07-16T10:27:39Z</time>
      </trkpt>
      <trkpt lat="45.96589" lon="4.86923">
        <ele>285</ele>
        <time>2017-07-16T10:27:40Z</time>
      </trkpt>
      <trkpt lat="45.96595" lon="4.86914">
        <ele>286</ele>
        <time>2017-07-16T10:27:42Z</time>
      </trkpt>
      <trkpt lat="45.96597" lon="4.86909">
        <ele>286</ele>
        <time>2017-07-16T10:27:43Z</time>
      </trkpt>
      <trkpt lat="45.96601" lon="4.86901">
        <ele>286</ele>
        <time>2017-07-16T10:27:45Z</time>
      </trkpt>
      <trkpt lat="45.96603" lon="4.86898">
        <ele>286</ele>
        <time>2017-07-16T10:27:46Z</time>
      </trkpt>
      <trkpt lat="45.96609" lon="4.86889">
        <ele>287</ele>
        <time>2017-07-16T10:27:49Z</time>
      </trkpt>
      <trkpt lat="45.96611" lon="4.86885">
        <ele>287</ele>
        <time>2017-07-16T10:27:50Z</time>
      </trkpt>
      <trkpt lat="45.96616" lon="4.86878">
        <ele>287</ele>
        <time>2017-07-16T10:27:52Z</time>
      </trkpt>
      <trkpt lat="45.96618" lon="4.86874">
        <ele>287</ele>
        <time>2017-07-16T10:27:53Z</time>
      </trkpt>
      <trkpt lat="45.96623" lon="4.86865">
        <ele>287</ele>
        <time>2017-07-16T10:27:55Z</time>
      </trkpt>
      <trkpt lat="45.96625" lon="4.8686">
        <ele>287</ele>
        <time>2017-07-16T10:27:56Z</time>
      </trkpt>
      <trkpt lat="45.9663" lon="4.86851">
        <ele>287</ele>
        <time>2017-07-16T10:27:58Z</time>
      </trkpt>
      <trkpt lat="45.96633" lon="4.86846">
        <ele>287</ele>
        <time>2017-07-16T10:27:59Z</time>
      </trkpt>
      <trkpt lat="45.96638" lon="4.86837">
        <ele>287</ele>
        <time>2017-07-16T10:28:01Z</time>
      </trkpt>
      <trkpt lat="45.9664" lon="4.86833">
        <ele>288</ele>
        <time>2017-07-16T10:28:02Z</time>
      </trkpt>
      <trkpt lat="45.96643" lon="4.86828">
        <ele>288</ele>
        <time>2017-07-16T10:28:03Z</time>
      </trkpt>
      <trkpt lat="45.96646" lon="4.86823">
        <ele>288</ele>
        <time>2017-07-16T10:28:04Z</time>
      </trkpt>
      <trkpt lat="45.96652" lon="4.86814">
        <ele>288</ele>
        <time>2017-07-16T10:28:06Z</time>
      </trkpt>
      <trkpt lat="45.96654" lon="4.8681">
        <ele>288</ele>
        <time>2017-07-16T10:28:07Z</time>
      </trkpt>
      <trkpt lat="45.9666" lon="4.86802">
        <ele>288</ele>
        <time>2017-07-16T10:28:09Z</time>
      </trkpt>
      <trkpt lat="45.96662" lon="4.86798">
        <ele>288</ele>
        <time>2017-07-16T10:28:10Z</time>
      </trkpt>
      <trkpt lat="45.96668" lon="4.86788">
        <ele>289</ele>
        <time>2017-07-16T10:28:12Z</time>
      </trkpt>
      <trkpt lat="45.96671" lon="4.86784">
        <ele>289</ele>
        <time>2017-07-16T10:28:13Z</time>
      </trkpt>
      <trkpt lat="45.96676" lon="4.86774">
        <ele>289</ele>
        <time>2017-07-16T10:28:15Z</time>
      </trkpt>
      <trkpt lat="45.96678" lon="4.8677">
        <ele>289</ele>
        <time>2017-07-16T10:28:16Z</time>
      </trkpt>
      <trkpt lat="45.96683" lon="4.86759">
        <ele>289</ele>
        <time>2017-07-16T10:28:18Z</time>
      </trkpt>
      <trkpt lat="45.96686" lon="4.86754">
        <ele>289</ele>
        <time>2017-07-16T10:28:19Z</time>
      </trkpt>
      <trkpt lat="45.96691" lon="4.86745">
        <ele>289</ele>
        <time>2017-07-16T10:28:21Z</time>
      </trkpt>
      <trkpt lat="45.96694" lon="4.86741">
        <ele>289</ele>
        <time>2017-07-16T10:28:22Z</time>
      </trkpt>
      <trkpt lat="45.967" lon="4.86734">
        <ele>289</ele>
        <time>2017-07-16T10:28:24Z</time>
      </trkpt>
      <trkpt lat="45.96702" lon="4.8673">
        <ele>289</ele>
        <time>2017-07-16T10:28:25Z</time>
      </trkpt>
      <trkpt lat="45.96707" lon="4.86722">
        <ele>289</ele>
        <time>2017-07-16T10:28:27Z</time>
      </trkpt>
      <trkpt lat="45.96709" lon="4.86719">
        <ele>289</ele>
        <time>2017-07-16T10:28:28Z</time>
      </trkpt>
      <trkpt lat="45.96714" lon="4.8671">
        <ele>289</ele>
        <time>2017-07-16T10:28:30Z</time>
      </trkpt>
      <trkpt lat="45.96717" lon="4.86707">
        <ele>289</ele>
        <time>2017-07-16T10:28:31Z</time>
      </trkpt>
      <trkpt lat="45.96722" lon="4.86699">
        <ele>289</ele>
        <time>2017-07-16T10:28:33Z</time>
      </trkpt>
      <trkpt lat="45.96724" lon="4.86695">
        <ele>289</ele>
        <time>2017-07-16T10:28:34Z</time>
      </trkpt>
      <trkpt lat="45.96729" lon="4.86687">
        <ele>289</ele>
        <time>2017-07-16T10:28:36Z</time>
      </trkpt>
      <trkpt lat="45.96731" lon="4.86683">
        <ele>289</ele>
        <time>2017-07-16T10:28:37Z</time>
      </trkpt>
      <trkpt lat="45.96736" lon="4.86675">
        <ele>290</ele>
        <time>2017-07-16T10:28:39Z</time>
      </trkpt>
      <trkpt lat="45.96738" lon="4.86671">
        <ele>290</ele>
        <time>2017-07-16T10:28:40Z</time>
      </trkpt>
      <trkpt lat="45.96743" lon="4.86663">
        <ele>290</ele>
        <time>2017-07-16T10:28:42Z</time>
      </trkpt>
      <trkpt lat="45.96745" lon="4.86659">
        <ele>290</ele>
        <time>2017-07-16T10:28:43Z</time>
      </trkpt>
      <trkpt lat="45.96749" lon="4.86651">
        <ele>290</ele>
        <time>2017-07-16T10:28:45Z</time>
      </trkpt>
      <trkpt lat="45.96751" lon="4.86647">
        <ele>290</ele>
        <time>2017-07-16T10:28:46Z</time>
      </trkpt>
      <trkpt lat="45.96753" lon="4.86637">
        <ele>290</ele>
        <time>2017-07-16T10:28:48Z</time>
      </trkpt>
      <trkpt lat="45.96753" lon="4.86631">
        <ele>290</ele>
        <time>2017-07-16T10:28:49Z</time>
      </trkpt>
      <trkpt lat="45.9675" lon="4.86623">
        <ele>290</ele>
        <time>2017-07-16T10:28:51Z</time>
      </trkpt>
      <trkpt lat="45.96747" lon="4.86621">
        <ele>290</ele>
        <time>2017-07-16T10:28:52Z</time>
      </trkpt>
      <trkpt lat="45.96739" lon="4.86618">
        <ele>290</ele>
        <time>2017-07-16T10:28:54Z</time>
      </trkpt>
      <trkpt lat="45.96735" lon="4.86618">
        <ele>290</ele>
        <time>2017-07-16T10:28:55Z</time>
      </trkpt>
      <trkpt lat="45.96727" lon="4.86618">
        <ele>290</ele>
        <time>2017-07-16T10:28:57Z</time>
      </trkpt>
      <trkpt lat="45.96724" lon="4.86617">
        <ele>290</ele>
        <time>2017-07-16T10:28:58Z</time>
      </trkpt>
      <trkpt lat="45.96717" lon="4.86615">
        <ele>290</ele>
        <time>2017-07-16T10:29:00Z</time>
      </trkpt>
      <trkpt lat="45.96714" lon="4.86613">
        <ele>290</ele>
        <time>2017-07-16T10:29:01Z</time>
      </trkpt>
      <trkpt lat="45.96708" lon="4.8661">
        <ele>290</ele>
        <time>2017-07-16T10:29:03Z</time>
      </trkpt>
      <trkpt lat="45.96705" lon="4.86607">
        <ele>290</ele>
        <time>2017-07-16T10:29:04Z</time>
      </trkpt>
      <trkpt lat="45.96698" lon="4.86602">
        <ele>290</ele>
        <time>2017-07-16T10:29:06Z</time>
      </trkpt>
      <trkpt lat="45.96695" lon="4.86599">
        <ele>290</ele>
        <time>2017-07-16T10:29:07Z</time>
      </trkpt>
      <trkpt lat="45.96688" lon="4.86593">
        <ele>290</ele>
        <time>2017-07-16T10:29:09Z</time>
      </trkpt>
      <trkpt lat="45.96685" lon="4.8659">
        <ele>290</ele>
        <time>2017-07-16T10:29:10Z</time>
      </trkpt>
      <trkpt lat="45.96679" lon="4.86584">
        <ele>290</ele>
        <time>2017-07-16T10:29:12Z</time>
      </trkpt>
      <trkpt lat="45.96676" lon="4.8658">
        <ele>290</ele>
        <time>2017-07-16T10:29:13Z</time>
      </trkpt>
      <trkpt lat="45.96669" lon="4.86573">
        <ele>290</ele>
        <time>2017-07-16T10:29:15Z</time>
      </trkpt>
      <trkpt lat="45.96666" lon="4.8657">
        <ele>290</ele>
        <time>2017-07-16T10:29:16Z</time>
      </trkpt>
      <trkpt lat="45.96659" lon="4.86563">
        <ele>290</ele>
        <time>2017-07-16T10:29:18Z</time>
      </trkpt>
      <trkpt lat="45.96656" lon="4.8656">
        <ele>290</ele>
        <time>2017-07-16T10:29:19Z</time>
      </trkpt>
      <trkpt lat="45.96649" lon="4.86553">
        <ele>291</ele>
        <time>2017-07-16T10:29:21Z</time>
      </trkpt>
      <trkpt lat="45.96645" lon="4.8655">
        <ele>291</ele>
        <time>2017-07-16T10:29:22Z</time>
      </trkpt>
      <trkpt lat="45.96638" lon="4.86544">
        <ele>291</ele>
        <time>2017-07-16T10:29:24Z</time>
      </trkpt>
      <trkpt lat="45.96635" lon="4.86542">
        <ele>291</ele>
        <time>2017-07-16T10:29:25Z</time>
      </trkpt>
      <trkpt lat="45.96629" lon="4.86536">
        <ele>291</ele>
        <time>2017-07-16T10:29:27Z</time>
      </trkpt>
      <trkpt lat="45.96625" lon="4.86533">
        <ele>291</ele>
        <time>2017-07-16T10:29:28Z</time>
      </trkpt>
      <trkpt lat="45.96621" lon="4.8653">
        <ele>291</ele>
        <time>2017-07-16T10:29:29Z</time>
      </trkpt>
      <trkpt lat="45.96617" lon="4.86527">
        <ele>291</ele>
        <time>2017-07-16T10:29:30Z</time>
      </trkpt>
      <trkpt lat="45.9661" lon="4.8652">
        <ele>291</ele>
        <time>2017-07-16T10:29:32Z</time>
      </trkpt>
      <trkpt lat="45.96607" lon="4.86517">
        <ele>291</ele>
        <time>2017-07-16T10:29:33Z</time>
      </trkpt>
      <trkpt lat="45.966" lon="4.8651">
        <ele>291</ele>
        <time>2017-07-16T10:29:35Z</time>
      </trkpt>
      <trkpt lat="45.96597" lon="4.86506">
        <ele>291</ele>
        <time>2017-07-16T10:29:36Z</time>
      </trkpt>
      <trkpt lat="45.9659" lon="4.86497">
        <ele>292</ele>
        <time>2017-07-16T10:29:38Z</time>
      </trkpt>
      <trkpt lat="45.96588" lon="4.86491">
        <ele>292</ele>
        <time>2017-07-16T10:29:39Z</time>
      </trkpt>
      <trkpt lat="45.96586" lon="4.86486">
        <ele>292</ele>
        <time>2017-07-16T10:29:40Z</time>
      </trkpt>
      <trkpt lat="45.96584" lon="4.86479">
        <ele>291</ele>
        <time>2017-07-16T10:29:41Z</time>
      </trkpt>
      <trkpt lat="45.96582" lon="4.86472">
        <ele>290</ele>
        <time>2017-07-16T10:29:42Z</time>
      </trkpt>
      <trkpt lat="45.96581" lon="4.86465">
        <ele>289</ele>
        <time>2017-07-16T10:29:43Z</time>
      </trkpt>
      <trkpt lat="45.9658" lon="4.86457">
        <ele>289</ele>
        <time>2017-07-16T10:29:44Z</time>
      </trkpt>
      <trkpt lat="45.9658" lon="4.86449">
        <ele>289</ele>
        <time>2017-07-16T10:29:45Z</time>
      </trkpt>
      <trkpt lat="45.9658" lon="4.86441">
        <ele>289</ele>
        <time>2017-07-16T10:29:46Z</time>
      </trkpt>
      <trkpt lat="45.96579" lon="4.86432">
        <ele>289</ele>
        <time>2017-07-16T10:29:47Z</time>
      </trkpt>
      <trkpt lat="45.96579" lon="4.86423">
        <ele>289</ele>
        <time>2017-07-16T10:29:48Z</time>
      </trkpt>
      <trkpt lat="45.96578" lon="4.86414">
        <ele>289</ele>
        <time>2017-07-16T10:29:49Z</time>
      </trkpt>
      <trkpt lat="45.96578" lon="4.86404">
        <ele>288</ele>
        <time>2017-07-16T10:29:50Z</time>
      </trkpt>
      <trkpt lat="45.96577" lon="4.86394">
        <ele>287</ele>
        <time>2017-07-16T10:29:51Z</time>
      </trkpt>
      <trkpt lat="45.96577" lon="4.86383">
        <ele>286</ele>
        <time>2017-07-16T10:29:52Z</time>
      </trkpt>
      <trkpt lat="45.96577" lon="4.86373">
        <ele>286</ele>
        <time>2017-07-16T10:29:53Z</time>
      </trkpt>
      <trkpt lat="45.96577" lon="4.86363">
        <ele>286</ele>
        <time>2017-07-16T10:29:54Z</time>
      </trkpt>
      <trkpt lat="45.96578" lon="4.86352">
        <ele>285</ele>
        <time>2017-07-16T10:29:55Z</time>
      </trkpt>
      <trkpt lat="45.96578" lon="4.86342">
        <ele>285</ele>
        <time>2017-07-16T10:29:56Z</time>
      </trkpt>
      <trkpt lat="45.96579" lon="4.86331">
        <ele>284</ele>
        <time>2017-07-16T10:29:57Z</time>
      </trkpt>
      <trkpt lat="45.96579" lon="4.86321">
        <ele>284</ele>
        <time>2017-07-16T10:29:58Z</time>
      </trkpt>
      <trkpt lat="45.96579" lon="4.86311">
        <ele>283</ele>
        <time>2017-07-16T10:29:59Z</time>
      </trkpt>
      <trkpt lat="45.9658" lon="4.86301">
        <ele>283</ele>
        <time>2017-07-16T10:30:00Z</time>
      </trkpt>
      <trkpt lat="45.96581" lon="4.8629">
        <ele>282</ele>
        <time>2017-07-16T10:30:01Z</time>
      </trkpt>
      <trkpt lat="45.96582" lon="4.86279">
        <ele>282</ele>
        <time>2017-07-16T10:30:02Z</time>
      </trkpt>
      <trkpt lat="45.96583" lon="4.86268">
        <ele>281</ele>
        <time>2017-07-16T10:30:03Z</time>
      </trkpt>
      <trkpt lat="45.96584" lon="4.86256">
        <ele>282</ele>
        <time>2017-07-16T10:30:04Z</time>
      </trkpt>
      <trkpt lat="45.96585" lon="4.86244">
        <ele>281</ele>
        <time>2017-07-16T10:30:05Z</time>
      </trkpt>
      <trkpt lat="45.96587" lon="4.86232">
        <ele>282</ele>
        <time>2017-07-16T10:30:06Z</time>
      </trkpt>
      <trkpt lat="45.96588" lon="4.86219">
        <ele>282</ele>
        <time>2017-07-16T10:30:07Z</time>
      </trkpt>
      <trkpt lat="45.96589" lon="4.86205">
        <ele>282</ele>
        <time>2017-07-16T10:30:08Z</time>
      </trkpt>
      <trkpt lat="45.96591" lon="4.86192">
        <ele>282</ele>
        <time>2017-07-16T10:30:09Z</time>
      </trkpt>
      <trkpt lat="45.96592" lon="4.86179">
        <ele>281</ele>
        <time>2017-07-16T10:30:10Z</time>
      </trkpt>
      <trkpt lat="45.96593" lon="4.86165">
        <ele>281</ele>
        <time>2017-07-16T10:30:11Z</time>
      </trkpt>
      <trkpt lat="45.96594" lon="4.86151">
        <ele>281</ele>
        <time>2017-07-16T10:30:12Z</time>
      </trkpt>
      <trkpt lat="45.96596" lon="4.86138">
        <ele>281</ele>
        <time>2017-07-16T10:30:13Z</time>
      </trkpt>
      <trkpt lat="45.96597" lon="4.86124">
        <ele>281</ele>
        <time>2017-07-16T10:30:14Z</time>
      </trkpt>
      <trkpt lat="45.96596" lon="4.8611">
        <ele>281</ele>
        <time>2017-07-16T10:30:15Z</time>
      </trkpt>
      <trkpt lat="45.96595" lon="4.86097">
        <ele>280</ele>
        <time>2017-07-16T10:30:16Z</time>
      </trkpt>
      <trkpt lat="45.96592" lon="4.86083">
        <ele>279</ele>
        <time>2017-07-16T10:30:17Z</time>
      </trkpt>
      <trkpt lat="45.96588" lon="4.86071">
        <ele>279</ele>
        <time>2017-07-16T10:30:18Z</time>
      </trkpt>
      <trkpt lat="45.96583" lon="4.86059">
        <ele>277</ele>
        <time>2017-07-16T10:30:19Z</time>
      </trkpt>
      <trkpt lat="45.96577" lon="4.86048">
        <ele>276</ele>
        <time>2017-07-16T10:30:20Z</time>
      </trkpt>
      <trkpt lat="45.96571" lon="4.86036">
        <ele>276</ele>
        <time>2017-07-16T10:30:21Z</time>
      </trkpt>
      <trkpt lat="45.96565" lon="4.86025">
        <ele>276</ele>
        <time>2017-07-16T10:30:22Z</time>
      </trkpt>
      <trkpt lat="45.9656" lon="4.86013">
        <ele>276</ele>
        <time>2017-07-16T10:30:23Z</time>
      </trkpt>
      <trkpt lat="45.96554" lon="4.86002">
        <ele>276</ele>
        <time>2017-07-16T10:30:24Z</time>
      </trkpt>
      <trkpt lat="45.96548" lon="4.85991">
        <ele>275</ele>
        <time>2017-07-16T10:30:25Z</time>
      </trkpt>
      <trkpt lat="45.96542" lon="4.8598">
        <ele>275</ele>
        <time>2017-07-16T10:30:26Z</time>
      </trkpt>
      <trkpt lat="45.96536" lon="4.85969">
        <ele>275</ele>
        <time>2017-07-16T10:30:27Z</time>
      </trkpt>
      <trkpt lat="45.96531" lon="4.85958">
        <ele>275</ele>
        <time>2017-07-16T10:30:28Z</time>
      </trkpt>
      <trkpt lat="45.96525" lon="4.85947">
        <ele>275</ele>
        <time>2017-07-16T10:30:29Z</time>
      </trkpt>
      <trkpt lat="45.96521" lon="4.85935">
        <ele>275</ele>
        <time>2017-07-16T10:30:30Z</time>
      </trkpt>
      <trkpt lat="45.96517" lon="4.85923">
        <ele>275</ele>
        <time>2017-07-16T10:30:31Z</time>
      </trkpt>
      <trkpt lat="45.96514" lon="4.85911">
        <ele>275</ele>
        <time>2017-07-16T10:30:32Z</time>
      </trkpt>
      <trkpt lat="45.96512" lon="4.85899">
        <ele>275</ele>
        <time>2017-07-16T10:30:33Z</time>
      </trkpt>
      <trkpt lat="45.9651" lon="4.85887">
        <ele>275</ele>
        <time>2017-07-16T10:30:34Z</time>
      </trkpt>
      <trkpt lat="45.96508" lon="4.85876">
        <ele>275</ele>
        <time>2017-07-16T10:30:35Z</time>
      </trkpt>
      <trkpt lat="45.96507" lon="4.85864">
        <ele>275</ele>
        <time>2017-07-16T10:30:36Z</time>
      </trkpt>
      <trkpt lat="45.96505" lon="4.85852">
        <ele>275</ele>
        <time>2017-07-16T10:30:37Z</time>
      </trkpt>
      <trkpt lat="45.96504" lon="4.85841">
        <ele>275</ele>
        <time>2017-07-16T10:30:38Z</time>
      </trkpt>
      <trkpt lat="45.96503" lon="4.8583">
        <ele>275</ele>
        <time>2017-07-16T10:30:39Z</time>
      </trkpt>
      <trkpt lat="45.96502" lon="4.85818">
        <ele>275</ele>
        <time>2017-07-16T10:30:40Z</time>
      </trkpt>
      <trkpt lat="45.965" lon="4.85808">
        <ele>276</ele>
        <time>2017-07-16T10:30:41Z</time>
      </trkpt>
      <trkpt lat="45.96499" lon="4.85797">
        <ele>274</ele>
        <time>2017-07-16T10:30:42Z</time>
      </trkpt>
      <trkpt lat="45.96497" lon="4.85787">
        <ele>274</ele>
        <time>2017-07-16T10:30:43Z</time>
      </trkpt>
      <trkpt lat="45.96495" lon="4.85777">
        <ele>274</ele>
        <time>2017-07-16T10:30:44Z</time>
      </trkpt>
      <trkpt lat="45.96493" lon="4.85767">
        <ele>274</ele>
        <time>2017-07-16T10:30:45Z</time>
      </trkpt>
      <trkpt lat="45.96492" lon="4.85757">
        <ele>274</ele>
        <time>2017-07-16T10:30:46Z</time>
      </trkpt>
      <trkpt lat="45.9649" lon="4.85747">
        <ele>273</ele>
        <time>2017-07-16T10:30:47Z</time>
      </trkpt>
      <trkpt lat="45.96489" lon="4.85737">
        <ele>273</ele>
        <time>2017-07-16T10:30:48Z</time>
      </trkpt>
      <trkpt lat="45.96488" lon="4.85727">
        <ele>273</ele>
        <time>2017-07-16T10:30:49Z</time>
      </trkpt>
      <trkpt lat="45.96486" lon="4.85718">
        <ele>272</ele>
        <time>2017-07-16T10:30:50Z</time>
      </trkpt>
      <trkpt lat="45.96485" lon="4.85708">
        <ele>272</ele>
        <time>2017-07-16T10:30:51Z</time>
      </trkpt>
      <trkpt lat="45.96483" lon="4.85699">
        <ele>272</ele>
        <time>2017-07-16T10:30:52Z</time>
      </trkpt>
      <trkpt lat="45.96482" lon="4.8569">
        <ele>272</ele>
        <time>2017-07-16T10:30:53Z</time>
      </trkpt>
      <trkpt lat="45.96481" lon="4.8568">
        <ele>272</ele>
        <time>2017-07-16T10:30:54Z</time>
      </trkpt>
      <trkpt lat="45.9648" lon="4.85671">
        <ele>272</ele>
        <time>2017-07-16T10:30:55Z</time>
      </trkpt>
      <trkpt lat="45.96479" lon="4.85662">
        <ele>271</ele>
        <time>2017-07-16T10:30:56Z</time>
      </trkpt>
      <trkpt lat="45.96477" lon="4.85652">
        <ele>271</ele>
        <time>2017-07-16T10:30:57Z</time>
      </trkpt>
      <trkpt lat="45.96476" lon="4.85643">
        <ele>271</ele>
        <time>2017-07-16T10:30:58Z</time>
      </trkpt>
      <trkpt lat="45.96475" lon="4.85633">
        <ele>271</ele>
        <time>2017-07-16T10:30:59Z</time>
      </trkpt>
      <trkpt lat="45.96473" lon="4.85623">
        <ele>271</ele>
        <time>2017-07-16T10:31:00Z</time>
      </trkpt>
      <trkpt lat="45.96473" lon="4.85614">
        <ele>271</ele>
        <time>2017-07-16T10:31:01Z</time>
      </trkpt>
      <trkpt lat="45.96472" lon="4.85605">
        <ele>271</ele>
        <time>2017-07-16T10:31:02Z</time>
      </trkpt>
      <trkpt lat="45.96471" lon="4.85595">
        <ele>271</ele>
        <time>2017-07-16T10:31:03Z</time>
      </trkpt>
      <trkpt lat="45.9647" lon="4.85586">
        <ele>271</ele>
        <time>2017-07-16T10:31:04Z</time>
      </trkpt>
      <trkpt lat="45.96469" lon="4.85578">
        <ele>272</ele>
        <time>2017-07-16T10:31:05Z</time>
      </trkpt>
      <trkpt lat="45.96468" lon="4.85569">
        <ele>272</ele>
        <time>2017-07-16T10:31:06Z</time>
      </trkpt>
      <trkpt lat="45.96467" lon="4.85559">
        <ele>272</ele>
        <time>2017-07-16T10:31:07Z</time>
      </trkpt>
      <trkpt lat="45.96466" lon="4.8555">
        <ele>272</ele>
        <time>2017-07-16T10:31:08Z</time>
      </trkpt>
      <trkpt lat="45.96466" lon="4.85541">
        <ele>272</ele>
        <time>2017-07-16T10:31:09Z</time>
      </trkpt>
      <trkpt lat="45.96466" lon="4.85532">
        <ele>272</ele>
        <time>2017-07-16T10:31:10Z</time>
      </trkpt>
      <trkpt lat="45.96466" lon="4.85521">
        <ele>272</ele>
        <time>2017-07-16T10:31:11Z</time>
      </trkpt>
      <trkpt lat="45.96465" lon="4.85512">
        <ele>272</ele>
        <time>2017-07-16T10:31:12Z</time>
      </trkpt>
      <trkpt lat="45.96465" lon="4.85503">
        <ele>272</ele>
        <time>2017-07-16T10:31:13Z</time>
      </trkpt>
      <trkpt lat="45.96465" lon="4.85494">
        <ele>272</ele>
        <time>2017-07-16T10:31:14Z</time>
      </trkpt>
      <trkpt lat="45.96465" lon="4.85486">
        <ele>272</ele>
        <time>2017-07-16T10:31:15Z</time>
      </trkpt>
      <trkpt lat="45.96465" lon="4.85477">
        <ele>272</ele>
        <time>2017-07-16T10:31:16Z</time>
      </trkpt>
      <trkpt lat="45.96465" lon="4.85468">
        <ele>272</ele>
        <time>2017-07-16T10:31:17Z</time>
      </trkpt>
      <trkpt lat="45.96465" lon="4.85459">
        <ele>272</ele>
        <time>2017-07-16T10:31:18Z</time>
      </trkpt>
      <trkpt lat="45.96465" lon="4.85451">
        <ele>272</ele>
        <time>2017-07-16T10:31:19Z</time>
      </trkpt>
      <trkpt lat="45.96465" lon="4.85442">
        <ele>272</ele>
        <time>2017-07-16T10:31:20Z</time>
      </trkpt>
      <trkpt lat="45.96465" lon="4.85434">
        <ele>272</ele>
        <time>2017-07-16T10:31:21Z</time>
      </trkpt>
      <trkpt lat="45.96464" lon="4.85425">
        <ele>272</ele>
        <time>2017-07-16T10:31:22Z</time>
      </trkpt>
      <trkpt lat="45.96463" lon="4.85417">
        <ele>272</ele>
        <time>2017-07-16T10:31:23Z</time>
      </trkpt>
      <trkpt lat="45.96463" lon="4.85408">
        <ele>272</ele>
        <time>2017-07-16T10:31:24Z</time>
      </trkpt>
      <trkpt lat="45.96462" lon="4.85399">
        <ele>272</ele>
        <time>2017-07-16T10:31:25Z</time>
      </trkpt>
      <trkpt lat="45.96461" lon="4.8539">
        <ele>272</ele>
        <time>2017-07-16T10:31:26Z</time>
      </trkpt>
      <trkpt lat="45.9646" lon="4.85381">
        <ele>272</ele>
        <time>2017-07-16T10:31:27Z</time>
      </trkpt>
      <trkpt lat="45.96459" lon="4.85372">
        <ele>272</ele>
        <time>2017-07-16T10:31:28Z</time>
      </trkpt>
      <trkpt lat="45.96459" lon="4.85363">
        <ele>272</ele>
        <time>2017-07-16T10:31:29Z</time>
      </trkpt>
      <trkpt lat="45.96458" lon="4.85354">
        <ele>272</ele>
        <time>2017-07-16T10:31:30Z</time>
      </trkpt>
      <trkpt lat="45.96457" lon="4.85346">
        <ele>272</ele>
        <time>2017-07-16T10:31:31Z</time>
      </trkpt>
      <trkpt lat="45.96456" lon="4.85337">
        <ele>272</ele>
        <time>2017-07-16T10:31:32Z</time>
      </trkpt>
      <trkpt lat="45.96455" lon="4.85329">
        <ele>271</ele>
        <time>2017-07-16T10:31:33Z</time>
      </trkpt>
      <trkpt lat="45.96454" lon="4.85321">
        <ele>271</ele>
        <time>2017-07-16T10:31:34Z</time>
      </trkpt>
      <trkpt lat="45.96453" lon="4.85312">
        <ele>271</ele>
        <time>2017-07-16T10:31:35Z</time>
      </trkpt>
      <trkpt lat="45.96452" lon="4.85304">
        <ele>271</ele>
        <time>2017-07-16T10:31:36Z</time>
      </trkpt>
      <trkpt lat="45.96452" lon="4.85296">
        <ele>270</ele>
        <time>2017-07-16T10:31:37Z</time>
      </trkpt>
      <trkpt lat="45.96451" lon="4.85287">
        <ele>270</ele>
        <time>2017-07-16T10:31:38Z</time>
      </trkpt>
      <trkpt lat="45.96451" lon="4.85278">
        <ele>270</ele>
        <time>2017-07-16T10:31:39Z</time>
      </trkpt>
      <trkpt lat="45.96451" lon="4.8527">
        <ele>270</ele>
        <time>2017-07-16T10:31:40Z</time>
      </trkpt>
      <trkpt lat="45.96451" lon="4.85261">
        <ele>270</ele>
        <time>2017-07-16T10:31:41Z</time>
      </trkpt>
      <trkpt lat="45.96451" lon="4.85252">
        <ele>270</ele>
        <time>2017-07-16T10:31:42Z</time>
      </trkpt>
      <trkpt lat="45.96451" lon="4.85243">
        <ele>269</ele>
        <time>2017-07-16T10:31:43Z</time>
      </trkpt>
      <trkpt lat="45.96451" lon="4.85234">
        <ele>269</ele>
        <time>2017-07-16T10:31:44Z</time>
      </trkpt>
      <trkpt lat="45.96451" lon="4.85226">
        <ele>269</ele>
        <time>2017-07-16T10:31:45Z</time>
      </trkpt>
      <trkpt lat="45.96451" lon="4.85216">
        <ele>269</ele>
        <time>2017-07-16T10:31:46Z</time>
      </trkpt>
      <trkpt lat="45.96452" lon="4.85208">
        <ele>269</ele>
        <time>2017-07-16T10:31:47Z</time>
      </trkpt>
      <trkpt lat="45.96453" lon="4.85199">
        <ele>269</ele>
        <time>2017-07-16T10:31:48Z</time>
      </trkpt>
      <trkpt lat="45.96454" lon="4.8519">
        <ele>269</ele>
        <time>2017-07-16T10:31:49Z</time>
      </trkpt>
      <trkpt lat="45.96455" lon="4.8518">
        <ele>269</ele>
        <time>2017-07-16T10:31:50Z</time>
      </trkpt>
      <trkpt lat="45.96456" lon="4.85171">
        <ele>269</ele>
        <time>2017-07-16T10:31:51Z</time>
      </trkpt>
      <trkpt lat="45.96457" lon="4.85161">
        <ele>268</ele>
        <time>2017-07-16T10:31:52Z</time>
      </trkpt>
      <trkpt lat="45.96459" lon="4.85151">
        <ele>268</ele>
        <time>2017-07-16T10:31:53Z</time>
      </trkpt>
      <trkpt lat="45.96461" lon="4.85141">
        <ele>268</ele>
        <time>2017-07-16T10:31:54Z</time>
      </trkpt>
      <trkpt lat="45.96463" lon="4.85131">
        <ele>268</ele>
        <time>2017-07-16T10:31:55Z</time>
      </trkpt>
      <trkpt lat="45.96465" lon="4.85121">
        <ele>268</ele>
        <time>2017-07-16T10:31:56Z</time>
      </trkpt>
      <trkpt lat="45.96466" lon="4.85111">
        <ele>268</ele>
        <time>2017-07-16T10:31:57Z</time>
      </trkpt>
      <trkpt lat="45.96467" lon="4.851">
        <ele>268</ele>
        <time>2017-07-16T10:31:58Z</time>
      </trkpt>
      <trkpt lat="45.96467" lon="4.85088">
        <ele>268</ele>
        <time>2017-07-16T10:31:59Z</time>
      </trkpt>
      <trkpt lat="45.96468" lon="4.85077">
        <ele>267</ele>
        <time>2017-07-16T10:32:00Z</time>
      </trkpt>
      <trkpt lat="45.96468" lon="4.85066">
        <ele>266</ele>
        <time>2017-07-16T10:32:01Z</time>
      </trkpt>
      <trkpt lat="45.96468" lon="4.85055">
        <ele>266</ele>
        <time>2017-07-16T10:32:02Z</time>
      </trkpt>
      <trkpt lat="45.96468" lon="4.85042">
        <ele>266</ele>
        <time>2017-07-16T10:32:03Z</time>
      </trkpt>
      <trkpt lat="45.96468" lon="4.8503">
        <ele>266</ele>
        <time>2017-07-16T10:32:04Z</time>
      </trkpt>
      <trkpt lat="45.96468" lon="4.85018">
        <ele>266</ele>
        <time>2017-07-16T10:32:05Z</time>
      </trkpt>
      <trkpt lat="45.96469" lon="4.85005">
        <ele>266</ele>
        <time>2017-07-16T10:32:06Z</time>
      </trkpt>
      <trkpt lat="45.9647" lon="4.84992">
        <ele>263</ele>
        <time>2017-07-16T10:32:07Z</time>
      </trkpt>
      <trkpt lat="45.96472" lon="4.8498">
        <ele>262</ele>
        <time>2017-07-16T10:32:08Z</time>
      </trkpt>
      <trkpt lat="45.96475" lon="4.84967">
        <ele>261</ele>
        <time>2017-07-16T10:32:09Z</time>
      </trkpt>
      <trkpt lat="45.96478" lon="4.84954">
        <ele>261</ele>
        <time>2017-07-16T10:32:10Z</time>
      </trkpt>
      <trkpt lat="45.9648" lon="4.84941">
        <ele>260</ele>
        <time>2017-07-16T10:32:11Z</time>
      </trkpt>
      <trkpt lat="45.96484" lon="4.84928">
        <ele>259</ele>
        <time>2017-07-16T10:32:12Z</time>
      </trkpt>
      <trkpt lat="45.96488" lon="4.84915">
        <ele>256</ele>
        <time>2017-07-16T10:32:13Z</time>
      </trkpt>
      <trkpt lat="45.96491" lon="4.84902">
        <ele>256</ele>
        <time>2017-07-16T10:32:14Z</time>
      </trkpt>
      <trkpt lat="45.96493" lon="4.84889">
        <ele>255</ele>
        <time>2017-07-16T10:32:15Z</time>
      </trkpt>
      <trkpt lat="45.96497" lon="4.84876">
        <ele>255</ele>
        <time>2017-07-16T10:32:16Z</time>
      </trkpt>
      <trkpt lat="45.965" lon="4.84862">
        <ele>257</ele>
        <time>2017-07-16T10:32:17Z</time>
      </trkpt>
      <trkpt lat="45.96503" lon="4.84849">
        <ele>256</ele>
        <time>2017-07-16T10:32:18Z</time>
      </trkpt>
      <trkpt lat="45.96506" lon="4.84836">
        <ele>254</ele>
        <time>2017-07-16T10:32:19Z</time>
      </trkpt>
      <trkpt lat="45.96509" lon="4.84822">
        <ele>254</ele>
        <time>2017-07-16T10:32:20Z</time>
      </trkpt>
      <trkpt lat="45.96513" lon="4.84809">
        <ele>254</ele>
        <time>2017-07-16T10:32:21Z</time>
      </trkpt>
      <trkpt lat="45.96516" lon="4.84796">
        <ele>254</ele>
        <time>2017-07-16T10:32:22Z</time>
      </trkpt>
      <trkpt lat="45.96519" lon="4.84783">
        <ele>254</ele>
        <time>2017-07-16T10:32:23Z</time>
      </trkpt>
      <trkpt lat="45.96522" lon="4.84769">
        <ele>253</ele>
        <time>2017-07-16T10:32:24Z</time>
      </trkpt>
      <trkpt lat="45.96526" lon="4.84756">
        <ele>253</ele>
        <time>2017-07-16T10:32:25Z</time>
      </trkpt>
      <trkpt lat="45.96528" lon="4.84743">
        <ele>253</ele>
        <time>2017-07-16T10:32:26Z</time>
      </trkpt>
      <trkpt lat="45.9653" lon="4.8473">
        <ele>253</ele>
        <time>2017-07-16T10:32:27Z</time>
      </trkpt>
      <trkpt lat="45.96532" lon="4.84716">
        <ele>253</ele>
        <time>2017-07-16T10:32:28Z</time>
      </trkpt>
      <trkpt lat="45.96531" lon="4.84703">
        <ele>253</ele>
        <time>2017-07-16T10:32:29Z</time>
      </trkpt>
      <trkpt lat="45.96529" lon="4.84691">
        <ele>253</ele>
        <time>2017-07-16T10:32:30Z</time>
      </trkpt>
      <trkpt lat="45.96526" lon="4.84679">
        <ele>252</ele>
        <time>2017-07-16T10:32:31Z</time>
      </trkpt>
      <trkpt lat="45.96524" lon="4.84668">
        <ele>252</ele>
        <time>2017-07-16T10:32:32Z</time>
      </trkpt>
      <trkpt lat="45.96522" lon="4.84656">
        <ele>252</ele>
        <time>2017-07-16T10:32:33Z</time>
      </trkpt>
      <trkpt lat="45.96521" lon="4.84645">
        <ele>252</ele>
        <time>2017-07-16T10:32:34Z</time>
      </trkpt>
      <trkpt lat="45.9652" lon="4.84633">
        <ele>252</ele>
        <time>2017-07-16T10:32:35Z</time>
      </trkpt>
      <trkpt lat="45.9652" lon="4.84622">
        <ele>252</ele>
        <time>2017-07-16T10:32:36Z</time>
      </trkpt>
      <trkpt lat="45.96521" lon="4.84612">
        <ele>252</ele>
        <time>2017-07-16T10:32:37Z</time>
      </trkpt>
      <trkpt lat="45.96521" lon="4.84602">
        <ele>252</ele>
        <time>2017-07-16T10:32:38Z</time>
      </trkpt>
      <trkpt lat="45.96521" lon="4.84591">
        <ele>252</ele>
        <time>2017-07-16T10:32:39Z</time>
      </trkpt>
      <trkpt lat="45.96521" lon="4.84582">
        <ele>252</ele>
        <time>2017-07-16T10:32:40Z</time>
      </trkpt>
      <trkpt lat="45.96522" lon="4.84572">
        <ele>253</ele>
        <time>2017-07-16T10:32:41Z</time>
      </trkpt>
      <trkpt lat="45.96522" lon="4.84563">
        <ele>253</ele>
        <time>2017-07-16T10:32:42Z</time>
      </trkpt>
      <trkpt lat="45.96522" lon="4.84554">
        <ele>253</ele>
        <time>2017-07-16T10:32:43Z</time>
      </trkpt>
      <trkpt lat="45.96523" lon="4.84545">
        <ele>253</ele>
        <time>2017-07-16T10:32:44Z</time>
      </trkpt>
      <trkpt lat="45.96523" lon="4.84537">
        <ele>253</ele>
        <time>2017-07-16T10:32:45Z</time>
      </trkpt>
      <trkpt lat="45.96523" lon="4.84528">
        <ele>253</ele>
        <time>2017-07-16T10:32:46Z</time>
      </trkpt>
      <trkpt lat="45.96524" lon="4.8452">
        <ele>253</ele>
        <time>2017-07-16T10:32:47Z</time>
      </trkpt>
      <trkpt lat="45.96524" lon="4.84512">
        <ele>253</ele>
        <time>2017-07-16T10:32:48Z</time>
      </trkpt>
      <trkpt lat="45.96525" lon="4.84504">
        <ele>253</ele>
        <time>2017-07-16T10:32:49Z</time>
      </trkpt>
      <trkpt lat="45.96525" lon="4.84496">
        <ele>253</ele>
        <time>2017-07-16T10:32:50Z</time>
      </trkpt>
      <trkpt lat="45.96526" lon="4.84488">
        <ele>253</ele>
        <time>2017-07-16T10:32:51Z</time>
      </trkpt>
      <trkpt lat="45.96526" lon="4.84481">
        <ele>253</ele>
        <time>2017-07-16T10:32:52Z</time>
      </trkpt>
      <trkpt lat="45.96527" lon="4.84473">
        <ele>253</ele>
        <time>2017-07-16T10:32:53Z</time>
      </trkpt>
      <trkpt lat="45.96528" lon="4.84467">
        <ele>253</ele>
        <time>2017-07-16T10:32:54Z</time>
      </trkpt>
      <trkpt lat="45.96529" lon="4.84459">
        <ele>253</ele>
        <time>2017-07-16T10:32:55Z</time>
      </trkpt>
      <trkpt lat="45.96529" lon="4.84452">
        <ele>253</ele>
        <time>2017-07-16T10:32:56Z</time>
      </trkpt>
      <trkpt lat="45.96529" lon="4.84444">
        <ele>253</ele>
        <time>2017-07-16T10:32:57Z</time>
      </trkpt>
      <trkpt lat="45.9653" lon="4.84436">
        <ele>253</ele>
        <time>2017-07-16T10:32:58Z</time>
      </trkpt>
      <trkpt lat="45.9653" lon="4.84428">
        <ele>253</ele>
        <time>2017-07-16T10:32:59Z</time>
      </trkpt>
      <trkpt lat="45.9653" lon="4.8442">
        <ele>253</ele>
        <time>2017-07-16T10:33:00Z</time>
      </trkpt>
      <trkpt lat="45.96531" lon="4.84411">
        <ele>252</ele>
        <time>2017-07-16T10:33:01Z</time>
      </trkpt>
      <trkpt lat="45.96531" lon="4.84402">
        <ele>252</ele>
        <time>2017-07-16T10:33:02Z</time>
      </trkpt>
      <trkpt lat="45.96532" lon="4.84394">
        <ele>252</ele>
        <time>2017-07-16T10:33:03Z</time>
      </trkpt>
      <trkpt lat="45.96531" lon="4.84385">
        <ele>252</ele>
        <time>2017-07-16T10:33:04Z</time>
      </trkpt>
      <trkpt lat="45.9653" lon="4.84377">
        <ele>251</ele>
        <time>2017-07-16T10:33:05Z</time>
      </trkpt>
      <trkpt lat="45.96529" lon="4.84368">
        <ele>251</ele>
        <time>2017-07-16T10:33:06Z</time>
      </trkpt>
      <trkpt lat="45.96527" lon="4.8436">
        <ele>251</ele>
        <time>2017-07-16T10:33:07Z</time>
      </trkpt>
      <trkpt lat="45.96525" lon="4.84351">
        <ele>251</ele>
        <time>2017-07-16T10:33:08Z</time>
      </trkpt>
      <trkpt lat="45.96524" lon="4.84342">
        <ele>251</ele>
        <time>2017-07-16T10:33:09Z</time>
      </trkpt>
      <trkpt lat="45.96522" lon="4.84334">
        <ele>251</ele>
        <time>2017-07-16T10:33:10Z</time>
      </trkpt>
      <trkpt lat="45.9652" lon="4.84325">
        <ele>250</ele>
        <time>2017-07-16T10:33:11Z</time>
      </trkpt>
      <trkpt lat="45.96518" lon="4.84318">
        <ele>250</ele>
        <time>2017-07-16T10:33:12Z</time>
      </trkpt>
      <trkpt lat="45.96516" lon="4.8431">
        <ele>250</ele>
        <time>2017-07-16T10:33:13Z</time>
      </trkpt>
      <trkpt lat="45.96515" lon="4.84302">
        <ele>250</ele>
        <time>2017-07-16T10:33:14Z</time>
      </trkpt>
      <trkpt lat="45.96513" lon="4.84294">
        <ele>250</ele>
        <time>2017-07-16T10:33:15Z</time>
      </trkpt>
      <trkpt lat="45.96511" lon="4.84286">
        <ele>250</ele>
        <time>2017-07-16T10:33:16Z</time>
      </trkpt>
      <trkpt lat="45.96509" lon="4.84279">
        <ele>250</ele>
        <time>2017-07-16T10:33:17Z</time>
      </trkpt>
      <trkpt lat="45.96508" lon="4.84272">
        <ele>250</ele>
        <time>2017-07-16T10:33:18Z</time>
      </trkpt>
      <trkpt lat="45.96506" lon="4.84264">
        <ele>251</ele>
        <time>2017-07-16T10:33:19Z</time>
      </trkpt>
      <trkpt lat="45.96505" lon="4.84257">
        <ele>251</ele>
        <time>2017-07-16T10:33:20Z</time>
      </trkpt>
      <trkpt lat="45.96503" lon="4.8425">
        <ele>251</ele>
        <time>2017-07-16T10:33:21Z</time>
      </trkpt>
      <trkpt lat="45.96501" lon="4.84242">
        <ele>250</ele>
        <time>2017-07-16T10:33:22Z</time>
      </trkpt>
      <trkpt lat="45.965" lon="4.84234">
        <ele>251</ele>
        <time>2017-07-16T10:33:23Z</time>
      </trkpt>
      <trkpt lat="45.96498" lon="4.84227">
        <ele>252</ele>
        <time>2017-07-16T10:33:24Z</time>
      </trkpt>
      <trkpt lat="45.96496" lon="4.84219">
        <ele>252</ele>
        <time>2017-07-16T10:33:25Z</time>
      </trkpt>
      <trkpt lat="45.96495" lon="4.84211">
        <ele>251</ele>
        <time>2017-07-16T10:33:26Z</time>
      </trkpt>
      <trkpt lat="45.96494" lon="4.84203">
        <ele>251</ele>
        <time>2017-07-16T10:33:27Z</time>
      </trkpt>
      <trkpt lat="45.96493" lon="4.84195">
        <ele>251</ele>
        <time>2017-07-16T10:33:28Z</time>
      </trkpt>
      <trkpt lat="45.96491" lon="4.84187">
        <ele>251</ele>
        <time>2017-07-16T10:33:29Z</time>
      </trkpt>
      <trkpt lat="45.9649" lon="4.84179">
        <ele>251</ele>
        <time>2017-07-16T10:33:30Z</time>
      </trkpt>
      <trkpt lat="45.96488" lon="4.84172">
        <ele>250</ele>
        <time>2017-07-16T10:33:31Z</time>
      </trkpt>
      <trkpt lat="45.96487" lon="4.84165">
        <ele>250</ele>
        <time>2017-07-16T10:33:32Z</time>
      </trkpt>
      <trkpt lat="45.96485" lon="4.84158">
        <ele>250</ele>
        <time>2017-07-16T10:33:33Z</time>
      </trkpt>
      <trkpt lat="45.96483" lon="4.84151">
        <ele>251</ele>
        <time>2017-07-16T10:33:34Z</time>
      </trkpt>
      <trkpt lat="45.96481" lon="4.84144">
        <ele>251</ele>
        <time>2017-07-16T10:33:35Z</time>
      </trkpt>
      <trkpt lat="45.96479" lon="4.84137">
        <ele>251</ele>
        <time>2017-07-16T10:33:36Z</time>
      </trkpt>
      <trkpt lat="45.96477" lon="4.84131">
        <ele>251</ele>
        <time>2017-07-16T10:33:37Z</time>
      </trkpt>
      <trkpt lat="45.96474" lon="4.84123">
        <ele>251</ele>
        <time>2017-07-16T10:33:38Z</time>
      </trkpt>
      <trkpt lat="45.96471" lon="4.84116">
        <ele>251</ele>
        <time>2017-07-16T10:33:39Z</time>
      </trkpt>
      <trkpt lat="45.96469" lon="4.84108">
        <ele>251</ele>
        <time>2017-07-16T10:33:40Z</time>
      </trkpt>
      <trkpt lat="45.96466" lon="4.841">
        <ele>251</ele>
        <time>2017-07-16T10:33:41Z</time>
      </trkpt>
      <trkpt lat="45.96463" lon="4.84093">
        <ele>251</ele>
        <time>2017-07-16T10:33:42Z</time>
      </trkpt>
      <trkpt lat="45.96461" lon="4.84085">
        <ele>252</ele>
        <time>2017-07-16T10:33:43Z</time>
      </trkpt>
      <trkpt lat="45.96458" lon="4.84077">
        <ele>251</ele>
        <time>2017-07-16T10:33:44Z</time>
      </trkpt>
      <trkpt lat="45.96455" lon="4.8407">
        <ele>251</ele>
        <time>2017-07-16T10:33:45Z</time>
      </trkpt>
      <trkpt lat="45.96452" lon="4.84062">
        <ele>251</ele>
        <time>2017-07-16T10:33:46Z</time>
      </trkpt>
      <trkpt lat="45.9645" lon="4.84054">
        <ele>251</ele>
        <time>2017-07-16T10:33:47Z</time>
      </trkpt>
      <trkpt lat="45.96447" lon="4.84047">
        <ele>251</ele>
        <time>2017-07-16T10:33:48Z</time>
      </trkpt>
      <trkpt lat="45.96445" lon="4.8404">
        <ele>251</ele>
        <time>2017-07-16T10:33:49Z</time>
      </trkpt>
      <trkpt lat="45.96442" lon="4.84033">
        <ele>251</ele>
        <time>2017-07-16T10:33:50Z</time>
      </trkpt>
      <trkpt lat="45.96439" lon="4.84025">
        <ele>251</ele>
        <time>2017-07-16T10:33:51Z</time>
      </trkpt>
      <trkpt lat="45.96435" lon="4.84018">
        <ele>251</ele>
        <time>2017-07-16T10:33:52Z</time>
      </trkpt>
      <trkpt lat="45.96432" lon="4.8401">
        <ele>252</ele>
        <time>2017-07-16T10:33:53Z</time>
      </trkpt>
      <trkpt lat="45.96429" lon="4.84002">
        <ele>252</ele>
        <time>2017-07-16T10:33:54Z</time>
      </trkpt>
      <trkpt lat="45.96424" lon="4.83994">
        <ele>252</ele>
        <time>2017-07-16T10:33:55Z</time>
      </trkpt>
      <trkpt lat="45.9642" lon="4.83986">
        <ele>251</ele>
        <time>2017-07-16T10:33:56Z</time>
      </trkpt>
      <trkpt lat="45.96416" lon="4.83977">
        <ele>253</ele>
        <time>2017-07-16T10:33:57Z</time>
      </trkpt>
      <trkpt lat="45.96412" lon="4.83968">
        <ele>253</ele>
        <time>2017-07-16T10:33:58Z</time>
      </trkpt>
      <trkpt lat="45.96407" lon="4.83959">
        <ele>252</ele>
        <time>2017-07-16T10:33:59Z</time>
      </trkpt>
      <trkpt lat="45.96403" lon="4.8395">
        <ele>252</ele>
        <time>2017-07-16T10:34:00Z</time>
      </trkpt>
      <trkpt lat="45.96399" lon="4.8394">
        <ele>251</ele>
        <time>2017-07-16T10:34:01Z</time>
      </trkpt>
      <trkpt lat="45.96394" lon="4.8393">
        <ele>251</ele>
        <time>2017-07-16T10:34:02Z</time>
      </trkpt>
      <trkpt lat="45.96389" lon="4.83921">
        <ele>251</ele>
        <time>2017-07-16T10:34:03Z</time>
      </trkpt>
      <trkpt lat="45.96384" lon="4.83912">
        <ele>248</ele>
        <time>2017-07-16T10:34:04Z</time>
      </trkpt>
      <trkpt lat="45.9638" lon="4.83902">
        <ele>248</ele>
        <time>2017-07-16T10:34:05Z</time>
      </trkpt>
      <trkpt lat="45.96375" lon="4.83892">
        <ele>248</ele>
        <time>2017-07-16T10:34:06Z</time>
      </trkpt>
      <trkpt lat="45.96371" lon="4.83882">
        <ele>247</ele>
        <time>2017-07-16T10:34:07Z</time>
      </trkpt>
      <trkpt lat="45.96367" lon="4.83872">
        <ele>247</ele>
        <time>2017-07-16T10:34:08Z</time>
      </trkpt>
      <trkpt lat="45.96362" lon="4.83862">
        <ele>247</ele>
        <time>2017-07-16T10:34:09Z</time>
      </trkpt>
      <trkpt lat="45.96357" lon="4.83852">
        <ele>246</ele>
        <time>2017-07-16T10:34:10Z</time>
      </trkpt>
      <trkpt lat="45.96352" lon="4.83843">
        <ele>246</ele>
        <time>2017-07-16T10:34:11Z</time>
      </trkpt>
      <trkpt lat="45.96346" lon="4.83835">
        <ele>245</ele>
        <time>2017-07-16T10:34:12Z</time>
      </trkpt>
      <trkpt lat="45.96339" lon="4.83827">
        <ele>244</ele>
        <time>2017-07-16T10:34:13Z</time>
      </trkpt>
      <trkpt lat="45.96333" lon="4.8382">
        <ele>244</ele>
        <time>2017-07-16T10:34:14Z</time>
      </trkpt>
      <trkpt lat="45.96326" lon="4.83814">
        <ele>244</ele>
        <time>2017-07-16T10:34:15Z</time>
      </trkpt>
      <trkpt lat="45.9632" lon="4.83807">
        <ele>245</ele>
        <time>2017-07-16T10:34:16Z</time>
      </trkpt>
      <trkpt lat="45.96314" lon="4.838">
        <ele>245</ele>
        <time>2017-07-16T10:34:17Z</time>
      </trkpt>
      <trkpt lat="45.96308" lon="4.83794">
        <ele>245</ele>
        <time>2017-07-16T10:34:18Z</time>
      </trkpt>
      <trkpt lat="45.96302" lon="4.83789">
        <ele>245</ele>
        <time>2017-07-16T10:34:19Z</time>
      </trkpt>
      <trkpt lat="45.96295" lon="4.83783">
        <ele>245</ele>
        <time>2017-07-16T10:34:20Z</time>
      </trkpt>
      <trkpt lat="45.9629" lon="4.83777">
        <ele>245</ele>
        <time>2017-07-16T10:34:21Z</time>
      </trkpt>
      <trkpt lat="45.96284" lon="4.83772">
        <ele>245</ele>
        <time>2017-07-16T10:34:22Z</time>
      </trkpt>
      <trkpt lat="45.96278" lon="4.83767">
        <ele>245</ele>
        <time>2017-07-16T10:34:23Z</time>
      </trkpt>
      <trkpt lat="45.96273" lon="4.83762">
        <ele>245</ele>
        <time>2017-07-16T10:34:24Z</time>
      </trkpt>
      <trkpt lat="45.96267" lon="4.83757">
        <ele>245</ele>
        <time>2017-07-16T10:34:25Z</time>
      </trkpt>
      <trkpt lat="45.96263" lon="4.83752">
        <ele>244</ele>
        <time>2017-07-16T10:34:26Z</time>
      </trkpt>
      <trkpt lat="45.96258" lon="4.83747">
        <ele>245</ele>
        <time>2017-07-16T10:34:27Z</time>
      </trkpt>
      <trkpt lat="45.96253" lon="4.83741">
        <ele>245</ele>
        <time>2017-07-16T10:34:28Z</time>
      </trkpt>
      <trkpt lat="45.96249" lon="4.83736">
        <ele>244</ele>
        <time>2017-07-16T10:34:29Z</time>
      </trkpt>
      <trkpt lat="45.96243" lon="4.83731">
        <ele>244</ele>
        <time>2017-07-16T10:34:30Z</time>
      </trkpt>
      <trkpt lat="45.96238" lon="4.83725">
        <ele>244</ele>
        <time>2017-07-16T10:34:31Z</time>
      </trkpt>
      <trkpt lat="45.96233" lon="4.83719">
        <ele>244</ele>
        <time>2017-07-16T10:34:32Z</time>
      </trkpt>
      <trkpt lat="45.96228" lon="4.83713">
        <ele>244</ele>
        <time>2017-07-16T10:34:33Z</time>
      </trkpt>
      <trkpt lat="45.96223" lon="4.83707">
        <ele>244</ele>
        <time>2017-07-16T10:34:34Z</time>
      </trkpt>
      <trkpt lat="45.96217" lon="4.83701">
        <ele>244</ele>
        <time>2017-07-16T10:34:35Z</time>
      </trkpt>
      <trkpt lat="45.96212" lon="4.83695">
        <ele>243</ele>
        <time>2017-07-16T10:34:36Z</time>
      </trkpt>
      <trkpt lat="45.96207" lon="4.8369">
        <ele>243</ele>
        <time>2017-07-16T10:34:37Z</time>
      </trkpt>
      <trkpt lat="45.96202" lon="4.83685">
        <ele>243</ele>
        <time>2017-07-16T10:34:38Z</time>
      </trkpt>
      <trkpt lat="45.96197" lon="4.83679">
        <ele>243</ele>
        <time>2017-07-16T10:34:39Z</time>
      </trkpt>
      <trkpt lat="45.96192" lon="4.83674">
        <ele>243</ele>
        <time>2017-07-16T10:34:40Z</time>
      </trkpt>
      <trkpt lat="45.96187" lon="4.83668">
        <ele>243</ele>
        <time>2017-07-16T10:34:41Z</time>
      </trkpt>
      <trkpt lat="45.96183" lon="4.83662">
        <ele>242</ele>
        <time>2017-07-16T10:34:42Z</time>
      </trkpt>
      <trkpt lat="45.96178" lon="4.83657">
        <ele>242</ele>
        <time>2017-07-16T10:34:43Z</time>
      </trkpt>
      <trkpt lat="45.96175" lon="4.8365">
        <ele>242</ele>
        <time>2017-07-16T10:34:44Z</time>
      </trkpt>
      <trkpt lat="45.96171" lon="4.83644">
        <ele>242</ele>
        <time>2017-07-16T10:34:45Z</time>
      </trkpt>
      <trkpt lat="45.96168" lon="4.83637">
        <ele>242</ele>
        <time>2017-07-16T10:34:46Z</time>
      </trkpt>
      <trkpt lat="45.96164" lon="4.83629">
        <ele>242</ele>
        <time>2017-07-16T10:34:47Z</time>
      </trkpt>
      <trkpt lat="45.96162" lon="4.83621">
        <ele>242</ele>
        <time>2017-07-16T10:34:48Z</time>
      </trkpt>
      <trkpt lat="45.9616" lon="4.83613">
        <ele>242</ele>
        <time>2017-07-16T10:34:49Z</time>
      </trkpt>
      <trkpt lat="45.96158" lon="4.83604">
        <ele>242</ele>
        <time>2017-07-16T10:34:50Z</time>
      </trkpt>
      <trkpt lat="45.96156" lon="4.83595">
        <ele>242</ele>
        <time>2017-07-16T10:34:51Z</time>
      </trkpt>
      <trkpt lat="45.96154" lon="4.83586">
        <ele>241</ele>
        <time>2017-07-16T10:34:52Z</time>
      </trkpt>
      <trkpt lat="45.96152" lon="4.83577">
        <ele>241</ele>
        <time>2017-07-16T10:34:53Z</time>
      </trkpt>
      <trkpt lat="45.9615" lon="4.83568">
        <ele>241</ele>
        <time>2017-07-16T10:34:54Z</time>
      </trkpt>
      <trkpt lat="45.96148" lon="4.83559">
        <ele>241</ele>
        <time>2017-07-16T10:34:55Z</time>
      </trkpt>
      <trkpt lat="45.96146" lon="4.8355">
        <ele>242</ele>
        <time>2017-07-16T10:34:56Z</time>
      </trkpt>
      <trkpt lat="45.96144" lon="4.83541">
        <ele>242</ele>
        <time>2017-07-16T10:34:57Z</time>
      </trkpt>
      <trkpt lat="45.96142" lon="4.83533">
        <ele>242</ele>
        <time>2017-07-16T10:34:58Z</time>
      </trkpt>
      <trkpt lat="45.96141" lon="4.83525">
        <ele>242</ele>
        <time>2017-07-16T10:34:59Z</time>
      </trkpt>
      <trkpt lat="45.96139" lon="4.83516">
        <ele>241</ele>
        <time>2017-07-16T10:35:00Z</time>
      </trkpt>
      <trkpt lat="45.96137" lon="4.83508">
        <ele>241</ele>
        <time>2017-07-16T10:35:01Z</time>
      </trkpt>
      <trkpt lat="45.96135" lon="4.83499">
        <ele>242</ele>
        <time>2017-07-16T10:35:02Z</time>
      </trkpt>
      <trkpt lat="45.96134" lon="4.8349">
        <ele>242</ele>
        <time>2017-07-16T10:35:03Z</time>
      </trkpt>
      <trkpt lat="45.96132" lon="4.83481">
        <ele>242</ele>
        <time>2017-07-16T10:35:04Z</time>
      </trkpt>
      <trkpt lat="45.96129" lon="4.83473">
        <ele>242</ele>
        <time>2017-07-16T10:35:05Z</time>
      </trkpt>
      <trkpt lat="45.96127" lon="4.83464">
        <ele>242</ele>
        <time>2017-07-16T10:35:06Z</time>
      </trkpt>
      <trkpt lat="45.96126" lon="4.83454">
        <ele>242</ele>
        <time>2017-07-16T10:35:07Z</time>
      </trkpt>
      <trkpt lat="45.96124" lon="4.83445">
        <ele>242</ele>
        <time>2017-07-16T10:35:08Z</time>
      </trkpt>
      <trkpt lat="45.96123" lon="4.83436">
        <ele>242</ele>
        <time>2017-07-16T10:35:09Z</time>
      </trkpt>
      <trkpt lat="45.96121" lon="4.83428">
        <ele>243</ele>
        <time>2017-07-16T10:35:10Z</time>
      </trkpt>
      <trkpt lat="45.96119" lon="4.83419">
        <ele>243</ele>
        <time>2017-07-16T10:35:11Z</time>
      </trkpt>
      <trkpt lat="45.96117" lon="4.8341">
        <ele>243</ele>
        <time>2017-07-16T10:35:12Z</time>
      </trkpt>
      <trkpt lat="45.96115" lon="4.83401">
        <ele>243</ele>
        <time>2017-07-16T10:35:13Z</time>
      </trkpt>
      <trkpt lat="45.96113" lon="4.83391">
        <ele>243</ele>
        <time>2017-07-16T10:35:14Z</time>
      </trkpt>
      <trkpt lat="45.96112" lon="4.83381">
        <ele>242</ele>
        <time>2017-07-16T10:35:15Z</time>
      </trkpt>
      <trkpt lat="45.9611" lon="4.83372">
        <ele>242</ele>
        <time>2017-07-16T10:35:16Z</time>
      </trkpt>
      <trkpt lat="45.96108" lon="4.83362">
        <ele>242</ele>
        <time>2017-07-16T10:35:17Z</time>
      </trkpt>
      <trkpt lat="45.96104" lon="4.83353">
        <ele>242</ele>
        <time>2017-07-16T10:35:18Z</time>
      </trkpt>
      <trkpt lat="45.96101" lon="4.83342">
        <ele>242</ele>
        <time>2017-07-16T10:35:19Z</time>
      </trkpt>
      <trkpt lat="45.96099" lon="4.83332">
        <ele>241</ele>
        <time>2017-07-16T10:35:20Z</time>
      </trkpt>
      <trkpt lat="45.96097" lon="4.83321">
        <ele>241</ele>
        <time>2017-07-16T10:35:21Z</time>
      </trkpt>
      <trkpt lat="45.96095" lon="4.83312">
        <ele>241</ele>
        <time>2017-07-16T10:35:22Z</time>
      </trkpt>
      <trkpt lat="45.96093" lon="4.83301">
        <ele>241</ele>
        <time>2017-07-16T10:35:23Z</time>
      </trkpt>
      <trkpt lat="45.96092" lon="4.83291">
        <ele>241</ele>
        <time>2017-07-16T10:35:24Z</time>
      </trkpt>
      <trkpt lat="45.96092" lon="4.83282">
        <ele>241</ele>
        <time>2017-07-16T10:35:25Z</time>
      </trkpt>
      <trkpt lat="45.96092" lon="4.83274">
        <ele>241</ele>
        <time>2017-07-16T10:35:26Z</time>
      </trkpt>
      <trkpt lat="45.96091" lon="4.83266">
        <ele>241</ele>
        <time>2017-07-16T10:35:27Z</time>
      </trkpt>
      <trkpt lat="45.96091" lon="4.83258">
        <ele>241</ele>
        <time>2017-07-16T10:35:28Z</time>
      </trkpt>
      <trkpt lat="45.96091" lon="4.8325">
        <ele>240</ele>
        <time>2017-07-16T10:35:29Z</time>
      </trkpt>
      <trkpt lat="45.96091" lon="4.83242">
        <ele>240</ele>
        <time>2017-07-16T10:35:30Z</time>
      </trkpt>
      <trkpt lat="45.96091" lon="4.83234">
        <ele>240</ele>
        <time>2017-07-16T10:35:31Z</time>
      </trkpt>
      <trkpt lat="45.96091" lon="4.83225">
        <ele>240</ele>
        <time>2017-07-16T10:35:32Z</time>
      </trkpt>
      <trkpt lat="45.96091" lon="4.83217">
        <ele>240</ele>
        <time>2017-07-16T10:35:33Z</time>
      </trkpt>
      <trkpt lat="45.96091" lon="4.83207">
        <ele>240</ele>
        <time>2017-07-16T10:35:34Z</time>
      </trkpt>
      <trkpt lat="45.96091" lon="4.83197">
        <ele>240</ele>
        <time>2017-07-16T10:35:35Z</time>
      </trkpt>
      <trkpt lat="45.9609" lon="4.83187">
        <ele>240</ele>
        <time>2017-07-16T10:35:36Z</time>
      </trkpt>
      <trkpt lat="45.96089" lon="4.83176">
        <ele>240</ele>
        <time>2017-07-16T10:35:37Z</time>
      </trkpt>
      <trkpt lat="45.96089" lon="4.83166">
        <ele>240</ele>
        <time>2017-07-16T10:35:38Z</time>
      </trkpt>
      <trkpt lat="45.96088" lon="4.83156">
        <ele>240</ele>
        <time>2017-07-16T10:35:39Z</time>
      </trkpt>
      <trkpt lat="45.96088" lon="4.83146">
        <ele>240</ele>
        <time>2017-07-16T10:35:40Z</time>
      </trkpt>
      <trkpt lat="45.96087" lon="4.83136">
        <ele>240</ele>
        <time>2017-07-16T10:35:41Z</time>
      </trkpt>
      <trkpt lat="45.96086" lon="4.83127">
        <ele>240</ele>
        <time>2017-07-16T10:35:42Z</time>
      </trkpt>
      <trkpt lat="45.96086" lon="4.83117">
        <ele>240</ele>
        <time>2017-07-16T10:35:43Z</time>
      </trkpt>
      <trkpt lat="45.96085" lon="4.83108">
        <ele>240</ele>
        <time>2017-07-16T10:35:44Z</time>
      </trkpt>
      <trkpt lat="45.96084" lon="4.83098">
        <ele>240</ele>
        <time>2017-07-16T10:35:45Z</time>
      </trkpt>
      <trkpt lat="45.96083" lon="4.8309">
        <ele>241</ele>
        <time>2017-07-16T10:35:46Z</time>
      </trkpt>
      <trkpt lat="45.96081" lon="4.83081">
        <ele>241</ele>
        <time>2017-07-16T10:35:47Z</time>
      </trkpt>
      <trkpt lat="45.96079" lon="4.83073">
        <ele>241</ele>
        <time>2017-07-16T10:35:48Z</time>
      </trkpt>
      <trkpt lat="45.96077" lon="4.83065">
        <ele>242</ele>
        <time>2017-07-16T10:35:49Z</time>
      </trkpt>
      <trkpt lat="45.96075" lon="4.83057">
        <ele>242</ele>
        <time>2017-07-16T10:35:50Z</time>
      </trkpt>
      <trkpt lat="45.96072" lon="4.83049">
        <ele>243</ele>
        <time>2017-07-16T10:35:51Z</time>
      </trkpt>
      <trkpt lat="45.96071" lon="4.83041">
        <ele>243</ele>
        <time>2017-07-16T10:35:52Z</time>
      </trkpt>
      <trkpt lat="45.96069" lon="4.83033">
        <ele>243</ele>
        <time>2017-07-16T10:35:53Z</time>
      </trkpt>
      <trkpt lat="45.96068" lon="4.83025">
        <ele>242</ele>
        <time>2017-07-16T10:35:54Z</time>
      </trkpt>
      <trkpt lat="45.96067" lon="4.83017">
        <ele>242</ele>
        <time>2017-07-16T10:35:55Z</time>
      </trkpt>
      <trkpt lat="45.96067" lon="4.83008">
        <ele>242</ele>
        <time>2017-07-16T10:35:56Z</time>
      </trkpt>
      <trkpt lat="45.96067" lon="4.82999">
        <ele>241</ele>
        <time>2017-07-16T10:35:57Z</time>
      </trkpt>
      <trkpt lat="45.96068" lon="4.82989">
        <ele>241</ele>
        <time>2017-07-16T10:35:58Z</time>
      </trkpt>
      <trkpt lat="45.9607" lon="4.8298">
        <ele>241</ele>
        <time>2017-07-16T10:35:59Z</time>
      </trkpt>
      <trkpt lat="45.96072" lon="4.8297">
        <ele>241</ele>
        <time>2017-07-16T10:36:00Z</time>
      </trkpt>
      <trkpt lat="45.96074" lon="4.82961">
        <ele>241</ele>
        <time>2017-07-16T10:36:01Z</time>
      </trkpt>
      <trkpt lat="45.96076" lon="4.82951">
        <ele>241</ele>
        <time>2017-07-16T10:36:02Z</time>
      </trkpt>
      <trkpt lat="45.96078" lon="4.82942">
        <ele>240</ele>
        <time>2017-07-16T10:36:03Z</time>
      </trkpt>
      <trkpt lat="45.96081" lon="4.82933">
        <ele>240</ele>
        <time>2017-07-16T10:36:04Z</time>
      </trkpt>
      <trkpt lat="45.96083" lon="4.82924">
        <ele>239</ele>
        <time>2017-07-16T10:36:05Z</time>
      </trkpt>
      <trkpt lat="45.96085" lon="4.82916">
        <ele>238</ele>
        <time>2017-07-16T10:36:06Z</time>
      </trkpt>
      <trkpt lat="45.96088" lon="4.82907">
        <ele>238</ele>
        <time>2017-07-16T10:36:07Z</time>
      </trkpt>
      <trkpt lat="45.9609" lon="4.82899">
        <ele>238</ele>
        <time>2017-07-16T10:36:08Z</time>
      </trkpt>
      <trkpt lat="45.96092" lon="4.82891">
        <ele>237</ele>
        <time>2017-07-16T10:36:09Z</time>
      </trkpt>
      <trkpt lat="45.96094" lon="4.82883">
        <ele>237</ele>
        <time>2017-07-16T10:36:10Z</time>
      </trkpt>
      <trkpt lat="45.96096" lon="4.82876">
        <ele>237</ele>
        <time>2017-07-16T10:36:11Z</time>
      </trkpt>
      <trkpt lat="45.96098" lon="4.82869">
        <ele>237</ele>
        <time>2017-07-16T10:36:12Z</time>
      </trkpt>
      <trkpt lat="45.96099" lon="4.82861">
        <ele>237</ele>
        <time>2017-07-16T10:36:13Z</time>
      </trkpt>
      <trkpt lat="45.96099" lon="4.82854">
        <ele>237</ele>
        <time>2017-07-16T10:36:14Z</time>
      </trkpt>
      <trkpt lat="45.96099" lon="4.82846">
        <ele>237</ele>
        <time>2017-07-16T10:36:15Z</time>
      </trkpt>
      <trkpt lat="45.96098" lon="4.82838">
        <ele>237</ele>
        <time>2017-07-16T10:36:16Z</time>
      </trkpt>
      <trkpt lat="45.96097" lon="4.82829">
        <ele>237</ele>
        <time>2017-07-16T10:36:17Z</time>
      </trkpt>
      <trkpt lat="45.96096" lon="4.82821">
        <ele>237</ele>
        <time>2017-07-16T10:36:18Z</time>
      </trkpt>
      <trkpt lat="45.96094" lon="4.82812">
        <ele>237</ele>
        <time>2017-07-16T10:36:19Z</time>
      </trkpt>
      <trkpt lat="45.96092" lon="4.82804">
        <ele>237</ele>
        <time>2017-07-16T10:36:20Z</time>
      </trkpt>
      <trkpt lat="45.9609" lon="4.82795">
        <ele>237</ele>
        <time>2017-07-16T10:36:21Z</time>
      </trkpt>
      <trkpt lat="45.96088" lon="4.82787">
        <ele>237</ele>
        <time>2017-07-16T10:36:22Z</time>
      </trkpt>
      <trkpt lat="45.96085" lon="4.82779">
        <ele>237</ele>
        <time>2017-07-16T10:36:23Z</time>
      </trkpt>
      <trkpt lat="45.96082" lon="4.8277">
        <ele>238</ele>
        <time>2017-07-16T10:36:24Z</time>
      </trkpt>
      <trkpt lat="45.9608" lon="4.82761">
        <ele>238</ele>
        <time>2017-07-16T10:36:25Z</time>
      </trkpt>
      <trkpt lat="45.96077" lon="4.82752">
        <ele>237</ele>
        <time>2017-07-16T10:36:26Z</time>
      </trkpt>
      <trkpt lat="45.96074" lon="4.82744">
        <ele>237</ele>
        <time>2017-07-16T10:36:27Z</time>
      </trkpt>
      <trkpt lat="45.96071" lon="4.82736">
        <ele>237</ele>
        <time>2017-07-16T10:36:28Z</time>
      </trkpt>
      <trkpt lat="45.96068" lon="4.82727">
        <ele>237</ele>
        <time>2017-07-16T10:36:29Z</time>
      </trkpt>
      <trkpt lat="45.96065" lon="4.8272">
        <ele>237</ele>
        <time>2017-07-16T10:36:30Z</time>
      </trkpt>
      <trkpt lat="45.96063" lon="4.82712">
        <ele>237</ele>
        <time>2017-07-16T10:36:31Z</time>
      </trkpt>
      <trkpt lat="45.9606" lon="4.82704">
        <ele>237</ele>
        <time>2017-07-16T10:36:32Z</time>
      </trkpt>
      <trkpt lat="45.96057" lon="4.82697">
        <ele>237</ele>
        <time>2017-07-16T10:36:33Z</time>
      </trkpt>
      <trkpt lat="45.96054" lon="4.8269">
        <ele>236</ele>
        <time>2017-07-16T10:36:34Z</time>
      </trkpt>
      <trkpt lat="45.96052" lon="4.82683">
        <ele>236</ele>
        <time>2017-07-16T10:36:35Z</time>
      </trkpt>
      <trkpt lat="45.96049" lon="4.82675">
        <ele>236</ele>
        <time>2017-07-16T10:36:36Z</time>
      </trkpt>
      <trkpt lat="45.96045" lon="4.82668">
        <ele>236</ele>
        <time>2017-07-16T10:36:37Z</time>
      </trkpt>
      <trkpt lat="45.96042" lon="4.8266">
        <ele>235</ele>
        <time>2017-07-16T10:36:38Z</time>
      </trkpt>
      <trkpt lat="45.9604" lon="4.82652">
        <ele>235</ele>
        <time>2017-07-16T10:36:39Z</time>
      </trkpt>
      <trkpt lat="45.96037" lon="4.82644">
        <ele>235</ele>
        <time>2017-07-16T10:36:40Z</time>
      </trkpt>
      <trkpt lat="45.96033" lon="4.82637">
        <ele>235</ele>
        <time>2017-07-16T10:36:41Z</time>
      </trkpt>
      <trkpt lat="45.9603" lon="4.82629">
        <ele>235</ele>
        <time>2017-07-16T10:36:42Z</time>
      </trkpt>
      <trkpt lat="45.96027" lon="4.82622">
        <ele>235</ele>
        <time>2017-07-16T10:36:43Z</time>
      </trkpt>
      <trkpt lat="45.96024" lon="4.82614">
        <ele>235</ele>
        <time>2017-07-16T10:36:44Z</time>
      </trkpt>
      <trkpt lat="45.96022" lon="4.82607">
        <ele>235</ele>
        <time>2017-07-16T10:36:45Z</time>
      </trkpt>
      <trkpt lat="45.9602" lon="4.82599">
        <ele>235</ele>
        <time>2017-07-16T10:36:46Z</time>
      </trkpt>
      <trkpt lat="45.96017" lon="4.82591">
        <ele>235</ele>
        <time>2017-07-16T10:36:47Z</time>
      </trkpt>
      <trkpt lat="45.96014" lon="4.82584">
        <ele>235</ele>
        <time>2017-07-16T10:36:48Z</time>
      </trkpt>
      <trkpt lat="45.96012" lon="4.82576">
        <ele>234</ele>
        <time>2017-07-16T10:36:49Z</time>
      </trkpt>
      <trkpt lat="45.96011" lon="4.82568">
        <ele>234</ele>
        <time>2017-07-16T10:36:50Z</time>
      </trkpt>
      <trkpt lat="45.96011" lon="4.82559">
        <ele>235</ele>
        <time>2017-07-16T10:36:51Z</time>
      </trkpt>
      <trkpt lat="45.96012" lon="4.8255">
        <ele>235</ele>
        <time>2017-07-16T10:36:52Z</time>
      </trkpt>
      <trkpt lat="45.96012" lon="4.82541">
        <ele>235</ele>
        <time>2017-07-16T10:36:53Z</time>
      </trkpt>
      <trkpt lat="45.96013" lon="4.82533">
        <ele>235</ele>
        <time>2017-07-16T10:36:54Z</time>
      </trkpt>
      <trkpt lat="45.96013" lon="4.82525">
        <ele>235</ele>
        <time>2017-07-16T10:36:55Z</time>
      </trkpt>
      <trkpt lat="45.96013" lon="4.82516">
        <ele>235</ele>
        <time>2017-07-16T10:36:56Z</time>
      </trkpt>
      <trkpt lat="45.96013" lon="4.82508">
        <ele>235</ele>
        <time>2017-07-16T10:36:57Z</time>
      </trkpt>
      <trkpt lat="45.96015" lon="4.82499">
        <ele>235</ele>
        <time>2017-07-16T10:36:58Z</time>
      </trkpt>
      <trkpt lat="45.96016" lon="4.82491">
        <ele>235</ele>
        <time>2017-07-16T10:36:59Z</time>
      </trkpt>
      <trkpt lat="45.96016" lon="4.82484">
        <ele>235</ele>
        <time>2017-07-16T10:37:00Z</time>
      </trkpt>
      <trkpt lat="45.96017" lon="4.82476">
        <ele>235</ele>
        <time>2017-07-16T10:37:01Z</time>
      </trkpt>
      <trkpt lat="45.96018" lon="4.82469">
        <ele>235</ele>
        <time>2017-07-16T10:37:02Z</time>
      </trkpt>
      <trkpt lat="45.96019" lon="4.82461">
        <ele>235</ele>
        <time>2017-07-16T10:37:03Z</time>
      </trkpt>
      <trkpt lat="45.9602" lon="4.82454">
        <ele>235</ele>
        <time>2017-07-16T10:37:04Z</time>
      </trkpt>
      <trkpt lat="45.9602" lon="4.82445">
        <ele>235</ele>
        <time>2017-07-16T10:37:05Z</time>
      </trkpt>
      <trkpt lat="45.96021" lon="4.82437">
        <ele>235</ele>
        <time>2017-07-16T10:37:06Z</time>
      </trkpt>
      <trkpt lat="45.96022" lon="4.82429">
        <ele>235</ele>
        <time>2017-07-16T10:37:07Z</time>
      </trkpt>
      <trkpt lat="45.96023" lon="4.82421">
        <ele>235</ele>
        <time>2017-07-16T10:37:08Z</time>
      </trkpt>
      <trkpt lat="45.96024" lon="4.82413">
        <ele>235</ele>
        <time>2017-07-16T10:37:09Z</time>
      </trkpt>
      <trkpt lat="45.96025" lon="4.82405">
        <ele>235</ele>
        <time>2017-07-16T10:37:10Z</time>
      </trkpt>
      <trkpt lat="45.96026" lon="4.82397">
        <ele>235</ele>
        <time>2017-07-16T10:37:11Z</time>
      </trkpt>
      <trkpt lat="45.96028" lon="4.8239">
        <ele>235</ele>
        <time>2017-07-16T10:37:12Z</time>
      </trkpt>
      <trkpt lat="45.9603" lon="4.82383">
        <ele>235</ele>
        <time>2017-07-16T10:37:13Z</time>
      </trkpt>
      <trkpt lat="45.96032" lon="4.82376">
        <ele>235</ele>
        <time>2017-07-16T10:37:14Z</time>
      </trkpt>
      <trkpt lat="45.96032" lon="4.82364">
        <ele>235</ele>
        <time>2017-07-16T10:37:16Z</time>
      </trkpt>
      <trkpt lat="45.9603" lon="4.8236">
        <ele>235</ele>
        <time>2017-07-16T10:37:17Z</time>
      </trkpt>
      <trkpt lat="45.96022" lon="4.82358">
        <ele>235</ele>
        <time>2017-07-16T10:37:19Z</time>
      </trkpt>
      <trkpt lat="45.96018" lon="4.82358">
        <ele>235</ele>
        <time>2017-07-16T10:37:20Z</time>
      </trkpt>
      <trkpt lat="45.96013" lon="4.82357">
        <ele>235</ele>
        <time>2017-07-16T10:37:21Z</time>
      </trkpt>
      <trkpt lat="45.96008" lon="4.82356">
        <ele>235</ele>
        <time>2017-07-16T10:37:22Z</time>
      </trkpt>
      <trkpt lat="45.96004" lon="4.82355">
        <ele>235</ele>
        <time>2017-07-16T10:37:23Z</time>
      </trkpt>
      <trkpt lat="45.95998" lon="4.82355">
        <ele>236</ele>
        <time>2017-07-16T10:37:24Z</time>
      </trkpt>
      <trkpt lat="45.95991" lon="4.82357">
        <ele>236</ele>
        <time>2017-07-16T10:37:25Z</time>
      </trkpt>
      <trkpt lat="45.95986" lon="4.82357">
        <ele>236</ele>
        <time>2017-07-16T10:37:26Z</time>
      </trkpt>
      <trkpt lat="45.9598" lon="4.82357">
        <ele>237</ele>
        <time>2017-07-16T10:37:27Z</time>
      </trkpt>
      <trkpt lat="45.95975" lon="4.82357">
        <ele>237</ele>
        <time>2017-07-16T10:37:28Z</time>
      </trkpt>
      <trkpt lat="45.95971" lon="4.82357">
        <ele>237</ele>
        <time>2017-07-16T10:37:29Z</time>
      </trkpt>
      <trkpt lat="45.95966" lon="4.82356">
        <ele>237</ele>
        <time>2017-07-16T10:37:30Z</time>
      </trkpt>
      <trkpt lat="45.95959" lon="4.82356">
        <ele>237</ele>
        <time>2017-07-16T10:37:32Z</time>
      </trkpt>
      <trkpt lat="45.95955" lon="4.82357">
        <ele>237</ele>
        <time>2017-07-16T10:37:33Z</time>
      </trkpt>
      <trkpt lat="45.95948" lon="4.82358">
        <ele>237</ele>
        <time>2017-07-16T10:37:35Z</time>
      </trkpt>
      <trkpt lat="45.95944" lon="4.82359">
        <ele>237</ele>
        <time>2017-07-16T10:37:36Z</time>
      </trkpt>
      <trkpt lat="45.95938" lon="4.82361">
        <ele>238</ele>
        <time>2017-07-16T10:37:38Z</time>
      </trkpt>
      <trkpt lat="45.95935" lon="4.82361">
        <ele>238</ele>
        <time>2017-07-16T10:37:39Z</time>
      </trkpt>
      <trkpt lat="45.95928" lon="4.82362">
        <ele>238</ele>
        <time>2017-07-16T10:37:41Z</time>
      </trkpt>
      <trkpt lat="45.95924" lon="4.82362">
        <ele>238</ele>
        <time>2017-07-16T10:37:42Z</time>
      </trkpt>
      <trkpt lat="45.95918" lon="4.82363">
        <ele>238</ele>
        <time>2017-07-16T10:37:44Z</time>
      </trkpt>
      <trkpt lat="45.95914" lon="4.82364">
        <ele>242</ele>
        <time>2017-07-16T10:37:45Z</time>
      </trkpt>
      <trkpt lat="45.95906" lon="4.82366">
        <ele>242</ele>
        <time>2017-07-16T10:37:48Z</time>
      </trkpt>
      <trkpt lat="45.95903" lon="4.82366">
        <ele>242</ele>
        <time>2017-07-16T10:37:49Z</time>
      </trkpt>
      <trkpt lat="45.95895" lon="4.82368">
        <ele>243</ele>
        <time>2017-07-16T10:37:52Z</time>
      </trkpt>
      <trkpt lat="45.95892" lon="4.82369">
        <ele>243</ele>
        <time>2017-07-16T10:37:53Z</time>
      </trkpt>
      <trkpt lat="45.95884" lon="4.82369">
        <ele>244</ele>
        <time>2017-07-16T10:37:56Z</time>
      </trkpt>
      <trkpt lat="45.95882" lon="4.8237">
        <ele>244</ele>
        <time>2017-07-16T10:37:57Z</time>
      </trkpt>
      <trkpt lat="45.95875" lon="4.8237">
        <ele>244</ele>
        <time>2017-07-16T10:37:59Z</time>
      </trkpt>
      <trkpt lat="45.95872" lon="4.8237">
        <ele>244</ele>
        <time>2017-07-16T10:38:00Z</time>
      </trkpt>
      <trkpt lat="45.95866" lon="4.82371">
        <ele>245</ele>
        <time>2017-07-16T10:38:02Z</time>
      </trkpt>
      <trkpt lat="45.95863" lon="4.82371">
        <ele>245</ele>
        <time>2017-07-16T10:38:03Z</time>
      </trkpt>
      <trkpt lat="45.95854" lon="4.82371">
        <ele>245</ele>
        <time>2017-07-16T10:38:06Z</time>
      </trkpt>
      <trkpt lat="45.95852" lon="4.8237">
        <ele>245</ele>
        <time>2017-07-16T10:38:07Z</time>
      </trkpt>
      <trkpt lat="45.95844" lon="4.8237">
        <ele>246</ele>
        <time>2017-07-16T10:38:10Z</time>
      </trkpt>
      <trkpt lat="45.95841" lon="4.82369">
        <ele>246</ele>
        <time>2017-07-16T10:38:11Z</time>
      </trkpt>
      <trkpt lat="45.95833" lon="4.82367">
        <ele>251</ele>
        <time>2017-07-16T10:38:14Z</time>
      </trkpt>
      <trkpt lat="45.95831" lon="4.82367">
        <ele>251</ele>
        <time>2017-07-16T10:38:15Z</time>
      </trkpt>
      <trkpt lat="45.95822" lon="4.82366">
        <ele>251</ele>
        <time>2017-07-16T10:38:19Z</time>
      </trkpt>
      <trkpt lat="45.9582" lon="4.82365">
        <ele>251</ele>
        <time>2017-07-16T10:38:20Z</time>
      </trkpt>
      <trkpt lat="45.95812" lon="4.82362">
        <ele>252</ele>
        <time>2017-07-16T10:38:23Z</time>
      </trkpt>
      <trkpt lat="45.95809" lon="4.82361">
        <ele>252</ele>
        <time>2017-07-16T10:38:24Z</time>
      </trkpt>
      <trkpt lat="45.95801" lon="4.8236">
        <ele>252</ele>
        <time>2017-07-16T10:38:27Z</time>
      </trkpt>
      <trkpt lat="45.95799" lon="4.8236">
        <ele>252</ele>
        <time>2017-07-16T10:38:28Z</time>
      </trkpt>
      <trkpt lat="45.95791" lon="4.82354">
        <ele>252</ele>
        <time>2017-07-16T10:38:32Z</time>
      </trkpt>
      <trkpt lat="45.95789" lon="4.82353">
        <ele>253</ele>
        <time>2017-07-16T10:38:33Z</time>
      </trkpt>
      <trkpt lat="45.95781" lon="4.82349">
        <ele>253</ele>
        <time>2017-07-16T10:38:37Z</time>
      </trkpt>
      <trkpt lat="45.95781" lon="4.82346">
        <ele>253</ele>
        <time>2017-07-16T10:38:38Z</time>
      </trkpt>
      <trkpt lat="45.95776" lon="4.8234">
        <ele>253</ele>
        <time>2017-07-16T10:38:41Z</time>
      </trkpt>
      <trkpt lat="45.95774" lon="4.82337">
        <ele>254</ele>
        <time>2017-07-16T10:38:42Z</time>
      </trkpt>
      <trkpt lat="45.95767" lon="4.82331">
        <ele>253</ele>
        <time>2017-07-16T10:38:45Z</time>
      </trkpt>
      <trkpt lat="45.95765" lon="4.82329">
        <ele>253</ele>
        <time>2017-07-16T10:38:46Z</time>
      </trkpt>
      <trkpt lat="45.95759" lon="4.82324">
        <ele>253</ele>
        <time>2017-07-16T10:38:49Z</time>
      </trkpt>
      <trkpt lat="45.95757" lon="4.82322">
        <ele>253</ele>
        <time>2017-07-16T10:38:50Z</time>
      </trkpt>
      <trkpt lat="45.95751" lon="4.82315">
        <ele>253</ele>
        <time>2017-07-16T10:38:53Z</time>
      </trkpt>
      <trkpt lat="45.95749" lon="4.82312">
        <ele>256</ele>
        <time>2017-07-16T10:38:54Z</time>
      </trkpt>
      <trkpt lat="45.95744" lon="4.82305">
        <ele>255</ele>
        <time>2017-07-16T10:38:57Z</time>
      </trkpt>
      <trkpt lat="45.95742" lon="4.82302">
        <ele>255</ele>
        <time>2017-07-16T10:38:58Z</time>
      </trkpt>
      <trkpt lat="45.95736" lon="4.82297">
        <ele>255</ele>
        <time>2017-07-16T10:39:01Z</time>
      </trkpt>
      <trkpt lat="45.95734" lon="4.82295">
        <ele>255</ele>
        <time>2017-07-16T10:39:02Z</time>
      </trkpt>
      <trkpt lat="45.95728" lon="4.82288">
        <ele>255</ele>
        <time>2017-07-16T10:39:05Z</time>
      </trkpt>
      <trkpt lat="45.95726" lon="4.82286">
        <ele>255</ele>
        <time>2017-07-16T10:39:06Z</time>
      </trkpt>
      <trkpt lat="45.9572" lon="4.82278">
        <ele>255</ele>
        <time>2017-07-16T10:39:09Z</time>
      </trkpt>
      <trkpt lat="45.95718" lon="4.82276">
        <ele>255</ele>
        <time>2017-07-16T10:39:10Z</time>
      </trkpt>
      <trkpt lat="45.95713" lon="4.82271">
        <ele>255</ele>
        <time>2017-07-16T10:39:12Z</time>
      </trkpt>
      <trkpt lat="45.9571" lon="4.82268">
        <ele>255</ele>
        <time>2017-07-16T10:39:13Z</time>
      </trkpt>
      <trkpt lat="45.95705" lon="4.82264">
        <ele>255</ele>
        <time>2017-07-16T10:39:15Z</time>
      </trkpt>
      <trkpt lat="45.95702" lon="4.82261">
        <ele>255</ele>
        <time>2017-07-16T10:39:16Z</time>
      </trkpt>
      <trkpt lat="45.95696" lon="4.82254">
        <ele>255</ele>
        <time>2017-07-16T10:39:19Z</time>
      </trkpt>
      <trkpt lat="45.95693" lon="4.82252">
        <ele>255</ele>
        <time>2017-07-16T10:39:20Z</time>
      </trkpt>
      <trkpt lat="45.95687" lon="4.82246">
        <ele>255</ele>
        <time>2017-07-16T10:39:23Z</time>
      </trkpt>
      <trkpt lat="45.95684" lon="4.82244">
        <ele>255</ele>
        <time>2017-07-16T10:39:24Z</time>
      </trkpt>
      <trkpt lat="45.95679" lon="4.82239">
        <ele>255</ele>
        <time>2017-07-16T10:39:26Z</time>
      </trkpt>
      <trkpt lat="45.95676" lon="4.82237">
        <ele>255</ele>
        <time>2017-07-16T10:39:27Z</time>
      </trkpt>
      <trkpt lat="45.95672" lon="4.82231">
        <ele>255</ele>
        <time>2017-07-16T10:39:29Z</time>
      </trkpt>
      <trkpt lat="45.95668" lon="4.8223">
        <ele>255</ele>
        <time>2017-07-16T10:39:30Z</time>
      </trkpt>
      <trkpt lat="45.95661" lon="4.82227">
        <ele>257</ele>
        <time>2017-07-16T10:39:32Z</time>
      </trkpt>
      <trkpt lat="45.95658" lon="4.82226">
        <ele>257</ele>
        <time>2017-07-16T10:39:33Z</time>
      </trkpt>
      <trkpt lat="45.95651" lon="4.82226">
        <ele>257</ele>
        <time>2017-07-16T10:39:35Z</time>
      </trkpt>
      <trkpt lat="45.95647" lon="4.82226">
        <ele>257</ele>
        <time>2017-07-16T10:39:36Z</time>
      </trkpt>
      <trkpt lat="45.95641" lon="4.82226">
        <ele>257</ele>
        <time>2017-07-16T10:39:38Z</time>
      </trkpt>
      <trkpt lat="45.95638" lon="4.82226">
        <ele>257</ele>
        <time>2017-07-16T10:39:39Z</time>
      </trkpt>
      <trkpt lat="45.95631" lon="4.82226">
        <ele>257</ele>
        <time>2017-07-16T10:39:41Z</time>
      </trkpt>
      <trkpt lat="45.95628" lon="4.82227">
        <ele>257</ele>
        <time>2017-07-16T10:39:42Z</time>
      </trkpt>
      <trkpt lat="45.95622" lon="4.82228">
        <ele>257</ele>
        <time>2017-07-16T10:39:44Z</time>
      </trkpt>
      <trkpt lat="45.95619" lon="4.82228">
        <ele>257</ele>
        <time>2017-07-16T10:39:45Z</time>
      </trkpt>
      <trkpt lat="45.9561" lon="4.82228">
        <ele>257</ele>
        <time>2017-07-16T10:39:48Z</time>
      </trkpt>
      <trkpt lat="45.95607" lon="4.82228">
        <ele>257</ele>
        <time>2017-07-16T10:39:49Z</time>
      </trkpt>
      <trkpt lat="45.95601" lon="4.82225">
        <ele>257</ele>
        <time>2017-07-16T10:39:51Z</time>
      </trkpt>
      <trkpt lat="45.95598" lon="4.82223">
        <ele>257</ele>
        <time>2017-07-16T10:39:52Z</time>
      </trkpt>
      <trkpt lat="45.95592" lon="4.82221">
        <ele>257</ele>
        <time>2017-07-16T10:39:54Z</time>
      </trkpt>
      <trkpt lat="45.95589" lon="4.82219">
        <ele>257</ele>
        <time>2017-07-16T10:39:55Z</time>
      </trkpt>
      <trkpt lat="45.95581" lon="4.82215">
        <ele>258</ele>
        <time>2017-07-16T10:39:57Z</time>
      </trkpt>
      <trkpt lat="45.95578" lon="4.82212">
        <ele>258</ele>
        <time>2017-07-16T10:39:58Z</time>
      </trkpt>
      <trkpt lat="45.95571" lon="4.82206">
        <ele>258</ele>
        <time>2017-07-16T10:40:00Z</time>
      </trkpt>
      <trkpt lat="45.95568" lon="4.82203">
        <ele>258</ele>
        <time>2017-07-16T10:40:01Z</time>
      </trkpt>
      <trkpt lat="45.95562" lon="4.82198">
        <ele>258</ele>
        <time>2017-07-16T10:40:03Z</time>
      </trkpt>
      <trkpt lat="45.9556" lon="4.82196">
        <ele>259</ele>
        <time>2017-07-16T10:40:04Z</time>
      </trkpt>
      <trkpt lat="45.95553" lon="4.8219">
        <ele>259</ele>
        <time>2017-07-16T10:40:07Z</time>
      </trkpt>
      <trkpt lat="45.9555" lon="4.82187">
        <ele>259</ele>
        <time>2017-07-16T10:40:08Z</time>
      </trkpt>
      <trkpt lat="45.95545" lon="4.82183">
        <ele>259</ele>
        <time>2017-07-16T10:40:10Z</time>
      </trkpt>
      <trkpt lat="45.95542" lon="4.8218">
        <ele>259</ele>
        <time>2017-07-16T10:40:11Z</time>
      </trkpt>
      <trkpt lat="45.95536" lon="4.82175">
        <ele>259</ele>
        <time>2017-07-16T10:40:13Z</time>
      </trkpt>
      <trkpt lat="45.95533" lon="4.82172">
        <ele>259</ele>
        <time>2017-07-16T10:40:14Z</time>
      </trkpt>
      <trkpt lat="45.95527" lon="4.82166">
        <ele>259</ele>
        <time>2017-07-16T10:40:16Z</time>
      </trkpt>
      <trkpt lat="45.95524" lon="4.82163">
        <ele>259</ele>
        <time>2017-07-16T10:40:17Z</time>
      </trkpt>
      <trkpt lat="45.95519" lon="4.82157">
        <ele>259</ele>
        <time>2017-07-16T10:40:19Z</time>
      </trkpt>
      <trkpt lat="45.95517" lon="4.82153">
        <ele>259</ele>
        <time>2017-07-16T10:40:20Z</time>
      </trkpt>
      <trkpt lat="45.9551" lon="4.82147">
        <ele>259</ele>
        <time>2017-07-16T10:40:22Z</time>
      </trkpt>
      <trkpt lat="45.95507" lon="4.82144">
        <ele>259</ele>
        <time>2017-07-16T10:40:23Z</time>
      </trkpt>
      <trkpt lat="45.955" lon="4.82137">
        <ele>259</ele>
        <time>2017-07-16T10:40:25Z</time>
      </trkpt>
      <trkpt lat="45.95497" lon="4.82134">
        <ele>260</ele>
        <time>2017-07-16T10:40:26Z</time>
      </trkpt>
      <trkpt lat="45.95489" lon="4.82128">
        <ele>260</ele>
        <time>2017-07-16T10:40:29Z</time>
      </trkpt>
      <trkpt lat="45.95486" lon="4.82125">
        <ele>260</ele>
        <time>2017-07-16T10:40:30Z</time>
      </trkpt>
      <trkpt lat="45.95479" lon="4.82117">
        <ele>260</ele>
        <time>2017-07-16T10:40:32Z</time>
      </trkpt>
      <trkpt lat="45.95476" lon="4.82114">
        <ele>260</ele>
        <time>2017-07-16T10:40:33Z</time>
      </trkpt>
      <trkpt lat="45.95469" lon="4.82108">
        <ele>260</ele>
        <time>2017-07-16T10:40:35Z</time>
      </trkpt>
      <trkpt lat="45.95466" lon="4.82105">
        <ele>260</ele>
        <time>2017-07-16T10:40:36Z</time>
      </trkpt>
      <trkpt lat="45.9546" lon="4.82099">
        <ele>260</ele>
        <time>2017-07-16T10:40:38Z</time>
      </trkpt>
      <trkpt lat="45.95457" lon="4.82095">
        <ele>260</ele>
        <time>2017-07-16T10:40:39Z</time>
      </trkpt>
      <trkpt lat="45.9545" lon="4.82088">
        <ele>260</ele>
        <time>2017-07-16T10:40:41Z</time>
      </trkpt>
      <trkpt lat="45.95446" lon="4.82084">
        <ele>260</ele>
        <time>2017-07-16T10:40:42Z</time>
      </trkpt>
      <trkpt lat="45.95442" lon="4.8208">
        <ele>260</ele>
        <time>2017-07-16T10:40:43Z</time>
      </trkpt>
      <trkpt lat="45.95438" lon="4.82077">
        <ele>260</ele>
        <time>2017-07-16T10:40:44Z</time>
      </trkpt>
      <trkpt lat="45.95431" lon="4.82068">
        <ele>260</ele>
        <time>2017-07-16T10:40:46Z</time>
      </trkpt>
      <trkpt lat="45.95428" lon="4.82064">
        <ele>260</ele>
        <time>2017-07-16T10:40:47Z</time>
      </trkpt>
      <trkpt lat="45.95424" lon="4.8206">
        <ele>260</ele>
        <time>2017-07-16T10:40:48Z</time>
      </trkpt>
      <trkpt lat="45.9542" lon="4.82056">
        <ele>260</ele>
        <time>2017-07-16T10:40:49Z</time>
      </trkpt>
      <trkpt lat="45.95416" lon="4.82052">
        <ele>261</ele>
        <time>2017-07-16T10:40:50Z</time>
      </trkpt>
      <trkpt lat="45.95411" lon="4.82049">
        <ele>261</ele>
        <time>2017-07-16T10:40:51Z</time>
      </trkpt>
      <trkpt lat="45.95407" lon="4.82045">
        <ele>261</ele>
        <time>2017-07-16T10:40:52Z</time>
      </trkpt>
      <trkpt lat="45.95403" lon="4.8204">
        <ele>261</ele>
        <time>2017-07-16T10:40:53Z</time>
      </trkpt>
      <trkpt lat="45.95399" lon="4.82036">
        <ele>261</ele>
        <time>2017-07-16T10:40:54Z</time>
      </trkpt>
      <trkpt lat="45.95395" lon="4.82031">
        <ele>261</ele>
        <time>2017-07-16T10:40:55Z</time>
      </trkpt>
      <trkpt lat="45.95392" lon="4.82027">
        <ele>261</ele>
        <time>2017-07-16T10:40:56Z</time>
      </trkpt>
      <trkpt lat="45.95388" lon="4.82023">
        <ele>261</ele>
        <time>2017-07-16T10:40:57Z</time>
      </trkpt>
      <trkpt lat="45.95381" lon="4.82015">
        <ele>262</ele>
        <time>2017-07-16T10:40:59Z</time>
      </trkpt>
      <trkpt lat="45.95378" lon="4.82011">
        <ele>262</ele>
        <time>2017-07-16T10:41:00Z</time>
      </trkpt>
      <trkpt lat="45.95374" lon="4.82006">
        <ele>262</ele>
        <time>2017-07-16T10:41:01Z</time>
      </trkpt>
      <trkpt lat="45.9537" lon="4.82001">
        <ele>262</ele>
        <time>2017-07-16T10:41:02Z</time>
      </trkpt>
      <trkpt lat="45.95365" lon="4.81997">
        <ele>261</ele>
        <time>2017-07-16T10:41:03Z</time>
      </trkpt>
      <trkpt lat="45.9536" lon="4.81993">
        <ele>261</ele>
        <time>2017-07-16T10:41:04Z</time>
      </trkpt>
      <trkpt lat="45.95356" lon="4.81988">
        <ele>262</ele>
        <time>2017-07-16T10:41:05Z</time>
      </trkpt>
      <trkpt lat="45.95352" lon="4.81984">
        <ele>262</ele>
        <time>2017-07-16T10:41:06Z</time>
      </trkpt>
      <trkpt lat="45.95348" lon="4.81981">
        <ele>262</ele>
        <time>2017-07-16T10:41:07Z</time>
      </trkpt>
      <trkpt lat="45.95344" lon="4.81977">
        <ele>262</ele>
        <time>2017-07-16T10:41:08Z</time>
      </trkpt>
      <trkpt lat="45.95337" lon="4.8197">
        <ele>261</ele>
        <time>2017-07-16T10:41:10Z</time>
      </trkpt>
      <trkpt lat="45.95333" lon="4.81967">
        <ele>262</ele>
        <time>2017-07-16T10:41:11Z</time>
      </trkpt>
      <trkpt lat="45.95326" lon="4.81959">
        <ele>262</ele>
        <time>2017-07-16T10:41:13Z</time>
      </trkpt>
      <trkpt lat="45.95322" lon="4.81955">
        <ele>262</ele>
        <time>2017-07-16T10:41:14Z</time>
      </trkpt>
      <trkpt lat="45.95318" lon="4.81951">
        <ele>262</ele>
        <time>2017-07-16T10:41:15Z</time>
      </trkpt>
      <trkpt lat="45.95313" lon="4.81946">
        <ele>261</ele>
        <time>2017-07-16T10:41:16Z</time>
      </trkpt>
      <trkpt lat="45.95309" lon="4.81942">
        <ele>261</ele>
        <time>2017-07-16T10:41:17Z</time>
      </trkpt>
      <trkpt lat="45.95306" lon="4.81937">
        <ele>261</ele>
        <time>2017-07-16T10:41:18Z</time>
      </trkpt>
      <trkpt lat="45.95303" lon="4.81931">
        <ele>261</ele>
        <time>2017-07-16T10:41:19Z</time>
      </trkpt>
      <trkpt lat="45.953" lon="4.81926">
        <ele>261</ele>
        <time>2017-07-16T10:41:20Z</time>
      </trkpt>
      <trkpt lat="45.95296" lon="4.81921">
        <ele>261</ele>
        <time>2017-07-16T10:41:21Z</time>
      </trkpt>
      <trkpt lat="45.95293" lon="4.81917">
        <ele>261</ele>
        <time>2017-07-16T10:41:22Z</time>
      </trkpt>
      <trkpt lat="45.95286" lon="4.81909">
        <ele>260</ele>
        <time>2017-07-16T10:41:24Z</time>
      </trkpt>
      <trkpt lat="45.95284" lon="4.81904">
        <ele>260</ele>
        <time>2017-07-16T10:41:25Z</time>
      </trkpt>
      <trkpt lat="45.95278" lon="4.81896">
        <ele>260</ele>
        <time>2017-07-16T10:41:27Z</time>
      </trkpt>
      <trkpt lat="45.95275" lon="4.81892">
        <ele>260</ele>
        <time>2017-07-16T10:41:28Z</time>
      </trkpt>
      <trkpt lat="45.95269" lon="4.81884">
        <ele>260</ele>
        <time>2017-07-16T10:41:30Z</time>
      </trkpt>
      <trkpt lat="45.95265" lon="4.81879">
        <ele>260</ele>
        <time>2017-07-16T10:41:31Z</time>
      </trkpt>
      <trkpt lat="45.95261" lon="4.81875">
        <ele>260</ele>
        <time>2017-07-16T10:41:32Z</time>
      </trkpt>
      <trkpt lat="45.95257" lon="4.81869">
        <ele>260</ele>
        <time>2017-07-16T10:41:33Z</time>
      </trkpt>
      <trkpt lat="45.95253" lon="4.81864">
        <ele>260</ele>
        <time>2017-07-16T10:41:34Z</time>
      </trkpt>
      <trkpt lat="45.9525" lon="4.81858">
        <ele>260</ele>
        <time>2017-07-16T10:41:35Z</time>
      </trkpt>
      <trkpt lat="45.95246" lon="4.81853">
        <ele>260</ele>
        <time>2017-07-16T10:41:36Z</time>
      </trkpt>
      <trkpt lat="45.95243" lon="4.81847">
        <ele>260</ele>
        <time>2017-07-16T10:41:37Z</time>
      </trkpt>
      <trkpt lat="45.9524" lon="4.81842">
        <ele>260</ele>
        <time>2017-07-16T10:41:38Z</time>
      </trkpt>
      <trkpt lat="45.95237" lon="4.81836">
        <ele>260</ele>
        <time>2017-07-16T10:41:39Z</time>
      </trkpt>
      <trkpt lat="45.95233" lon="4.8183">
        <ele>259</ele>
        <time>2017-07-16T10:41:40Z</time>
      </trkpt>
      <trkpt lat="45.95229" lon="4.81824">
        <ele>259</ele>
        <time>2017-07-16T10:41:41Z</time>
      </trkpt>
      <trkpt lat="45.95226" lon="4.81819">
        <ele>259</ele>
        <time>2017-07-16T10:41:42Z</time>
      </trkpt>
      <trkpt lat="45.95222" lon="4.81814">
        <ele>259</ele>
        <time>2017-07-16T10:41:43Z</time>
      </trkpt>
      <trkpt lat="45.95218" lon="4.81809">
        <ele>259</ele>
        <time>2017-07-16T10:41:44Z</time>
      </trkpt>
      <trkpt lat="45.95214" lon="4.81803">
        <ele>259</ele>
        <time>2017-07-16T10:41:45Z</time>
      </trkpt>
      <trkpt lat="45.9521" lon="4.81797">
        <ele>259</ele>
        <time>2017-07-16T10:41:46Z</time>
      </trkpt>
      <trkpt lat="45.95205" lon="4.81791">
        <ele>259</ele>
        <time>2017-07-16T10:41:47Z</time>
      </trkpt>
      <trkpt lat="45.95201" lon="4.81785">
        <ele>258</ele>
        <time>2017-07-16T10:41:48Z</time>
      </trkpt>
      <trkpt lat="45.95196" lon="4.81778">
        <ele>258</ele>
        <time>2017-07-16T10:41:49Z</time>
      </trkpt>
      <trkpt lat="45.95191" lon="4.81771">
        <ele>258</ele>
        <time>2017-07-16T10:41:50Z</time>
      </trkpt>
      <trkpt lat="45.95187" lon="4.81763">
        <ele>258</ele>
        <time>2017-07-16T10:41:51Z</time>
      </trkpt>
      <trkpt lat="45.95182" lon="4.81755">
        <ele>258</ele>
        <time>2017-07-16T10:41:52Z</time>
      </trkpt>
      <trkpt lat="45.95177" lon="4.81747">
        <ele>257</ele>
        <time>2017-07-16T10:41:53Z</time>
      </trkpt>
      <trkpt lat="45.95172" lon="4.81737">
        <ele>257</ele>
        <time>2017-07-16T10:41:54Z</time>
      </trkpt>
      <trkpt lat="45.95167" lon="4.81727">
        <ele>257</ele>
        <time>2017-07-16T10:41:55Z</time>
      </trkpt>
      <trkpt lat="45.95163" lon="4.81716">
        <ele>256</ele>
        <time>2017-07-16T10:41:56Z</time>
      </trkpt>
      <trkpt lat="45.95158" lon="4.81705">
        <ele>255</ele>
        <time>2017-07-16T10:41:57Z</time>
      </trkpt>
      <trkpt lat="45.95154" lon="4.81693">
        <ele>255</ele>
        <time>2017-07-16T10:41:58Z</time>
      </trkpt>
      <trkpt lat="45.9515" lon="4.8168">
        <ele>255</ele>
        <time>2017-07-16T10:41:59Z</time>
      </trkpt>
      <trkpt lat="45.95145" lon="4.81667">
        <ele>255</ele>
        <time>2017-07-16T10:42:00Z</time>
      </trkpt>
      <trkpt lat="45.95141" lon="4.81654">
        <ele>253</ele>
        <time>2017-07-16T10:42:01Z</time>
      </trkpt>
      <trkpt lat="45.95137" lon="4.81641">
        <ele>253</ele>
        <time>2017-07-16T10:42:02Z</time>
      </trkpt>
      <trkpt lat="45.95132" lon="4.81627">
        <ele>253</ele>
        <time>2017-07-16T10:42:03Z</time>
      </trkpt>
      <trkpt lat="45.95128" lon="4.81614">
        <ele>252</ele>
        <time>2017-07-16T10:42:04Z</time>
      </trkpt>
      <trkpt lat="45.95123" lon="4.81601">
        <ele>252</ele>
        <time>2017-07-16T10:42:05Z</time>
      </trkpt>
      <trkpt lat="45.95119" lon="4.81588">
        <ele>252</ele>
        <time>2017-07-16T10:42:06Z</time>
      </trkpt>
      <trkpt lat="45.95114" lon="4.81576">
        <ele>251</ele>
        <time>2017-07-16T10:42:07Z</time>
      </trkpt>
      <trkpt lat="45.9511" lon="4.81563">
        <ele>251</ele>
        <time>2017-07-16T10:42:08Z</time>
      </trkpt>
      <trkpt lat="45.95105" lon="4.81551">
        <ele>251</ele>
        <time>2017-07-16T10:42:09Z</time>
      </trkpt>
      <trkpt lat="45.95101" lon="4.8154">
        <ele>251</ele>
        <time>2017-07-16T10:42:10Z</time>
      </trkpt>
      <trkpt lat="45.95098" lon="4.81528">
        <ele>251</ele>
        <time>2017-07-16T10:42:11Z</time>
      </trkpt>
      <trkpt lat="45.95095" lon="4.81518">
        <ele>251</ele>
        <time>2017-07-16T10:42:12Z</time>
      </trkpt>
      <trkpt lat="45.95092" lon="4.81508">
        <ele>252</ele>
        <time>2017-07-16T10:42:13Z</time>
      </trkpt>
      <trkpt lat="45.95088" lon="4.815">
        <ele>252</ele>
        <time>2017-07-16T10:42:14Z</time>
      </trkpt>
      <trkpt lat="45.95085" lon="4.81492">
        <ele>251</ele>
        <time>2017-07-16T10:42:15Z</time>
      </trkpt>
      <trkpt lat="45.95082" lon="4.81485">
        <ele>252</ele>
        <time>2017-07-16T10:42:16Z</time>
      </trkpt>
      <trkpt lat="45.95079" lon="4.81478">
        <ele>253</ele>
        <time>2017-07-16T10:42:17Z</time>
      </trkpt>
      <trkpt lat="45.95077" lon="4.81472">
        <ele>253</ele>
        <time>2017-07-16T10:42:18Z</time>
      </trkpt>
      <trkpt lat="45.95073" lon="4.81461">
        <ele>253</ele>
        <time>2017-07-16T10:42:20Z</time>
      </trkpt>
      <trkpt lat="45.95071" lon="4.81456">
        <ele>253</ele>
        <time>2017-07-16T10:42:21Z</time>
      </trkpt>
      <trkpt lat="45.95069" lon="4.8145">
        <ele>253</ele>
        <time>2017-07-16T10:42:22Z</time>
      </trkpt>
      <trkpt lat="45.95066" lon="4.81445">
        <ele>253</ele>
        <time>2017-07-16T10:42:23Z</time>
      </trkpt>
      <trkpt lat="45.95063" lon="4.81439">
        <ele>253</ele>
        <time>2017-07-16T10:42:24Z</time>
      </trkpt>
      <trkpt lat="45.95061" lon="4.81433">
        <ele>253</ele>
        <time>2017-07-16T10:42:25Z</time>
      </trkpt>
      <trkpt lat="45.95058" lon="4.81427">
        <ele>253</ele>
        <time>2017-07-16T10:42:26Z</time>
      </trkpt>
      <trkpt lat="45.95056" lon="4.81421">
        <ele>253</ele>
        <time>2017-07-16T10:42:27Z</time>
      </trkpt>
      <trkpt lat="45.95054" lon="4.81415">
        <ele>253</ele>
        <time>2017-07-16T10:42:28Z</time>
      </trkpt>
      <trkpt lat="45.95052" lon="4.81408">
        <ele>253</ele>
        <time>2017-07-16T10:42:29Z</time>
      </trkpt>
      <trkpt lat="45.9505" lon="4.81402">
        <ele>253</ele>
        <time>2017-07-16T10:42:30Z</time>
      </trkpt>
      <trkpt lat="45.95048" lon="4.81396">
        <ele>253</ele>
        <time>2017-07-16T10:42:31Z</time>
      </trkpt>
      <trkpt lat="45.95046" lon="4.8139">
        <ele>254</ele>
        <time>2017-07-16T10:42:32Z</time>
      </trkpt>
      <trkpt lat="45.95044" lon="4.81383">
        <ele>254</ele>
        <time>2017-07-16T10:42:33Z</time>
      </trkpt>
      <trkpt lat="45.95042" lon="4.81377">
        <ele>254</ele>
        <time>2017-07-16T10:42:34Z</time>
      </trkpt>
      <trkpt lat="45.9504" lon="4.81371">
        <ele>254</ele>
        <time>2017-07-16T10:42:35Z</time>
      </trkpt>
      <trkpt lat="45.95039" lon="4.81365">
        <ele>254</ele>
        <time>2017-07-16T10:42:36Z</time>
      </trkpt>
      <trkpt lat="45.95037" lon="4.81358">
        <ele>254</ele>
        <time>2017-07-16T10:42:37Z</time>
      </trkpt>
      <trkpt lat="45.95034" lon="4.81346">
        <ele>254</ele>
        <time>2017-07-16T10:42:39Z</time>
      </trkpt>
      <trkpt lat="45.95033" lon="4.8134">
        <ele>254</ele>
        <time>2017-07-16T10:42:40Z</time>
      </trkpt>
      <trkpt lat="45.9503" lon="4.81328">
        <ele>255</ele>
        <time>2017-07-16T10:42:42Z</time>
      </trkpt>
      <trkpt lat="45.95028" lon="4.81322">
        <ele>255</ele>
        <time>2017-07-16T10:42:43Z</time>
      </trkpt>
      <trkpt lat="45.95027" lon="4.81316">
        <ele>255</ele>
        <time>2017-07-16T10:42:44Z</time>
      </trkpt>
      <trkpt lat="45.95025" lon="4.81309">
        <ele>255</ele>
        <time>2017-07-16T10:42:45Z</time>
      </trkpt>
      <trkpt lat="45.95023" lon="4.81302">
        <ele>255</ele>
        <time>2017-07-16T10:42:46Z</time>
      </trkpt>
      <trkpt lat="45.95022" lon="4.81295">
        <ele>255</ele>
        <time>2017-07-16T10:42:47Z</time>
      </trkpt>
      <trkpt lat="45.95019" lon="4.81283">
        <ele>255</ele>
        <time>2017-07-16T10:42:49Z</time>
      </trkpt>
      <trkpt lat="45.95018" lon="4.81277">
        <ele>255</ele>
        <time>2017-07-16T10:42:50Z</time>
      </trkpt>
      <trkpt lat="45.95016" lon="4.8127">
        <ele>255</ele>
        <time>2017-07-16T10:42:51Z</time>
      </trkpt>
      <trkpt lat="45.95015" lon="4.81264">
        <ele>255</ele>
        <time>2017-07-16T10:42:52Z</time>
      </trkpt>
      <trkpt lat="45.95014" lon="4.81258">
        <ele>256</ele>
        <time>2017-07-16T10:42:53Z</time>
      </trkpt>
      <trkpt lat="45.95013" lon="4.81251">
        <ele>256</ele>
        <time>2017-07-16T10:42:54Z</time>
      </trkpt>
      <trkpt lat="45.95012" lon="4.81239">
        <ele>256</ele>
        <time>2017-07-16T10:42:56Z</time>
      </trkpt>
      <trkpt lat="45.95012" lon="4.81233">
        <ele>256</ele>
        <time>2017-07-16T10:42:57Z</time>
      </trkpt>
      <trkpt lat="45.9501" lon="4.81221">
        <ele>256</ele>
        <time>2017-07-16T10:42:59Z</time>
      </trkpt>
      <trkpt lat="45.95009" lon="4.81214">
        <ele>256</ele>
        <time>2017-07-16T10:43:00Z</time>
      </trkpt>
      <trkpt lat="45.95009" lon="4.81208">
        <ele>256</ele>
        <time>2017-07-16T10:43:01Z</time>
      </trkpt>
      <trkpt lat="45.95008" lon="4.81201">
        <ele>256</ele>
        <time>2017-07-16T10:43:02Z</time>
      </trkpt>
      <trkpt lat="45.95008" lon="4.81195">
        <ele>256</ele>
        <time>2017-07-16T10:43:03Z</time>
      </trkpt>
      <trkpt lat="45.95007" lon="4.81188">
        <ele>256</ele>
        <time>2017-07-16T10:43:04Z</time>
      </trkpt>
      <trkpt lat="45.95006" lon="4.81182">
        <ele>256</ele>
        <time>2017-07-16T10:43:05Z</time>
      </trkpt>
      <trkpt lat="45.95005" lon="4.81175">
        <ele>256</ele>
        <time>2017-07-16T10:43:06Z</time>
      </trkpt>
      <trkpt lat="45.95003" lon="4.81163">
        <ele>256</ele>
        <time>2017-07-16T10:43:08Z</time>
      </trkpt>
      <trkpt lat="45.95002" lon="4.81156">
        <ele>256</ele>
        <time>2017-07-16T10:43:09Z</time>
      </trkpt>
      <trkpt lat="45.95" lon="4.81144">
        <ele>256</ele>
        <time>2017-07-16T10:43:11Z</time>
      </trkpt>
      <trkpt lat="45.94999" lon="4.81139">
        <ele>256</ele>
        <time>2017-07-16T10:43:12Z</time>
      </trkpt>
      <trkpt lat="45.94999" lon="4.81127">
        <ele>256</ele>
        <time>2017-07-16T10:43:14Z</time>
      </trkpt>
      <trkpt lat="45.94998" lon="4.81119">
        <ele>257</ele>
        <time>2017-07-16T10:43:15Z</time>
      </trkpt>
      <trkpt lat="45.94998" lon="4.81112">
        <ele>257</ele>
        <time>2017-07-16T10:43:16Z</time>
      </trkpt>
      <trkpt lat="45.94997" lon="4.81105">
        <ele>257</ele>
        <time>2017-07-16T10:43:17Z</time>
      </trkpt>
      <trkpt lat="45.94996" lon="4.81098">
        <ele>257</ele>
        <time>2017-07-16T10:43:18Z</time>
      </trkpt>
      <trkpt lat="45.94995" lon="4.81091">
        <ele>257</ele>
        <time>2017-07-16T10:43:19Z</time>
      </trkpt>
      <trkpt lat="45.94994" lon="4.81079">
        <ele>257</ele>
        <time>2017-07-16T10:43:21Z</time>
      </trkpt>
      <trkpt lat="45.94993" lon="4.81073">
        <ele>257</ele>
        <time>2017-07-16T10:43:22Z</time>
      </trkpt>
      <trkpt lat="45.94993" lon="4.81066">
        <ele>257</ele>
        <time>2017-07-16T10:43:23Z</time>
      </trkpt>
      <trkpt lat="45.94992" lon="4.8106">
        <ele>257</ele>
        <time>2017-07-16T10:43:24Z</time>
      </trkpt>
      <trkpt lat="45.94992" lon="4.81053">
        <ele>257</ele>
        <time>2017-07-16T10:43:25Z</time>
      </trkpt>
      <trkpt lat="45.94991" lon="4.81046">
        <ele>257</ele>
        <time>2017-07-16T10:43:26Z</time>
      </trkpt>
      <trkpt lat="45.94991" lon="4.81039">
        <ele>257</ele>
        <time>2017-07-16T10:43:27Z</time>
      </trkpt>
      <trkpt lat="45.94991" lon="4.81032">
        <ele>257</ele>
        <time>2017-07-16T10:43:28Z</time>
      </trkpt>
      <trkpt lat="45.9499" lon="4.8102">
        <ele>257</ele>
        <time>2017-07-16T10:43:30Z</time>
      </trkpt>
      <trkpt lat="45.9499" lon="4.81013">
        <ele>257</ele>
        <time>2017-07-16T10:43:31Z</time>
      </trkpt>
      <trkpt lat="45.9499" lon="4.81006">
        <ele>257</ele>
        <time>2017-07-16T10:43:32Z</time>
      </trkpt>
      <trkpt lat="45.94989" lon="4.80999">
        <ele>257</ele>
        <time>2017-07-16T10:43:33Z</time>
      </trkpt>
      <trkpt lat="45.94989" lon="4.80992">
        <ele>257</ele>
        <time>2017-07-16T10:43:34Z</time>
      </trkpt>
      <trkpt lat="45.94989" lon="4.80985">
        <ele>258</ele>
        <time>2017-07-16T10:43:35Z</time>
      </trkpt>
      <trkpt lat="45.94988" lon="4.80973">
        <ele>258</ele>
        <time>2017-07-16T10:43:37Z</time>
      </trkpt>
      <trkpt lat="45.94987" lon="4.80967">
        <ele>258</ele>
        <time>2017-07-16T10:43:38Z</time>
      </trkpt>
      <trkpt lat="45.94985" lon="4.80955">
        <ele>258</ele>
        <time>2017-07-16T10:43:40Z</time>
      </trkpt>
      <trkpt lat="45.94983" lon="4.80948">
        <ele>258</ele>
        <time>2017-07-16T10:43:41Z</time>
      </trkpt>
      <trkpt lat="45.94982" lon="4.80941">
        <ele>258</ele>
        <time>2017-07-16T10:43:42Z</time>
      </trkpt>
      <trkpt lat="45.94981" lon="4.80935">
        <ele>258</ele>
        <time>2017-07-16T10:43:43Z</time>
      </trkpt>
      <trkpt lat="45.9498" lon="4.80928">
        <ele>258</ele>
        <time>2017-07-16T10:43:44Z</time>
      </trkpt>
      <trkpt lat="45.94978" lon="4.80921">
        <ele>258</ele>
        <time>2017-07-16T10:43:45Z</time>
      </trkpt>
      <trkpt lat="45.94977" lon="4.80915">
        <ele>258</ele>
        <time>2017-07-16T10:43:46Z</time>
      </trkpt>
      <trkpt lat="45.94976" lon="4.80908">
        <ele>258</ele>
        <time>2017-07-16T10:43:47Z</time>
      </trkpt>
      <trkpt lat="45.94974" lon="4.80902">
        <ele>258</ele>
        <time>2017-07-16T10:43:48Z</time>
      </trkpt>
      <trkpt lat="45.94973" lon="4.80896">
        <ele>258</ele>
        <time>2017-07-16T10:43:49Z</time>
      </trkpt>
      <trkpt lat="45.9497" lon="4.80885">
        <ele>258</ele>
        <time>2017-07-16T10:43:51Z</time>
      </trkpt>
      <trkpt lat="45.94969" lon="4.8088">
        <ele>258</ele>
        <time>2017-07-16T10:43:52Z</time>
      </trkpt>
      <trkpt lat="45.94967" lon="4.80869">
        <ele>259</ele>
        <time>2017-07-16T10:43:54Z</time>
      </trkpt>
      <trkpt lat="45.94966" lon="4.80862">
        <ele>259</ele>
        <time>2017-07-16T10:43:55Z</time>
      </trkpt>
      <trkpt lat="45.94963" lon="4.8085">
        <ele>259</ele>
        <time>2017-07-16T10:43:57Z</time>
      </trkpt>
      <trkpt lat="45.94962" lon="4.80844">
        <ele>259</ele>
        <time>2017-07-16T10:43:58Z</time>
      </trkpt>
      <trkpt lat="45.9496" lon="4.80834">
        <ele>259</ele>
        <time>2017-07-16T10:44:00Z</time>
      </trkpt>
      <trkpt lat="45.94959" lon="4.80828">
        <ele>259</ele>
        <time>2017-07-16T10:44:01Z</time>
      </trkpt>
      <trkpt lat="45.94956" lon="4.80819">
        <ele>258</ele>
        <time>2017-07-16T10:44:03Z</time>
      </trkpt>
      <trkpt lat="45.94955" lon="4.80815">
        <ele>258</ele>
        <time>2017-07-16T10:44:04Z</time>
      </trkpt>
      <trkpt lat="45.94955" lon="4.80804">
        <ele>259</ele>
        <time>2017-07-16T10:44:07Z</time>
      </trkpt>
      <trkpt lat="45.94954" lon="4.808">
        <ele>259</ele>
        <time>2017-07-16T10:44:08Z</time>
      </trkpt>
      <trkpt lat="45.94955" lon="4.80791">
        <ele>259</ele>
        <time>2017-07-16T10:44:10Z</time>
      </trkpt>
      <trkpt lat="45.94954" lon="4.80785">
        <ele>259</ele>
        <time>2017-07-16T10:44:11Z</time>
      </trkpt>
      <trkpt lat="45.94953" lon="4.80778">
        <ele>259</ele>
        <time>2017-07-16T10:44:12Z</time>
      </trkpt>
      <trkpt lat="45.94952" lon="4.80771">
        <ele>259</ele>
        <time>2017-07-16T10:44:13Z</time>
      </trkpt>
      <trkpt lat="45.94953" lon="4.80765">
        <ele>259</ele>
        <time>2017-07-16T10:44:14Z</time>
      </trkpt>
      <trkpt lat="45.94953" lon="4.80758">
        <ele>259</ele>
        <time>2017-07-16T10:44:15Z</time>
      </trkpt>
      <trkpt lat="45.94954" lon="4.80745">
        <ele>259</ele>
        <time>2017-07-16T10:44:17Z</time>
      </trkpt>
      <trkpt lat="45.94955" lon="4.80738">
        <ele>259</ele>
        <time>2017-07-16T10:44:18Z</time>
      </trkpt>
      <trkpt lat="45.94955" lon="4.80732">
        <ele>259</ele>
        <time>2017-07-16T10:44:19Z</time>
      </trkpt>
      <trkpt lat="45.94955" lon="4.80724">
        <ele>259</ele>
        <time>2017-07-16T10:44:20Z</time>
      </trkpt>
      <trkpt lat="45.94955" lon="4.80717">
        <ele>259</ele>
        <time>2017-07-16T10:44:21Z</time>
      </trkpt>
      <trkpt lat="45.94955" lon="4.8071">
        <ele>259</ele>
        <time>2017-07-16T10:44:22Z</time>
      </trkpt>
      <trkpt lat="45.94955" lon="4.80702">
        <ele>259</ele>
        <time>2017-07-16T10:44:23Z</time>
      </trkpt>
      <trkpt lat="45.94955" lon="4.80695">
        <ele>259</ele>
        <time>2017-07-16T10:44:24Z</time>
      </trkpt>
      <trkpt lat="45.94956" lon="4.80687">
        <ele>259</ele>
        <time>2017-07-16T10:44:25Z</time>
      </trkpt>
      <trkpt lat="45.94956" lon="4.8068">
        <ele>259</ele>
        <time>2017-07-16T10:44:26Z</time>
      </trkpt>
      <trkpt lat="45.94956" lon="4.80673">
        <ele>259</ele>
        <time>2017-07-16T10:44:27Z</time>
      </trkpt>
      <trkpt lat="45.94956" lon="4.80666">
        <ele>259</ele>
        <time>2017-07-16T10:44:28Z</time>
      </trkpt>
      <trkpt lat="45.94955" lon="4.8066">
        <ele>259</ele>
        <time>2017-07-16T10:44:29Z</time>
      </trkpt>
      <trkpt lat="45.94955" lon="4.80653">
        <ele>259</ele>
        <time>2017-07-16T10:44:30Z</time>
      </trkpt>
      <trkpt lat="45.94955" lon="4.80646">
        <ele>258</ele>
        <time>2017-07-16T10:44:31Z</time>
      </trkpt>
      <trkpt lat="45.94955" lon="4.8064">
        <ele>258</ele>
        <time>2017-07-16T10:44:32Z</time>
      </trkpt>
      <trkpt lat="45.94955" lon="4.80633">
        <ele>258</ele>
        <time>2017-07-16T10:44:33Z</time>
      </trkpt>
      <trkpt lat="45.94954" lon="4.80627">
        <ele>258</ele>
        <time>2017-07-16T10:44:34Z</time>
      </trkpt>
      <trkpt lat="45.94954" lon="4.80614">
        <ele>258</ele>
        <time>2017-07-16T10:44:36Z</time>
      </trkpt>
      <trkpt lat="45.94953" lon="4.80607">
        <ele>258</ele>
        <time>2017-07-16T10:44:37Z</time>
      </trkpt>
      <trkpt lat="45.94953" lon="4.806">
        <ele>258</ele>
        <time>2017-07-16T10:44:38Z</time>
      </trkpt>
      <trkpt lat="45.94952" lon="4.80593">
        <ele>258</ele>
        <time>2017-07-16T10:44:39Z</time>
      </trkpt>
      <trkpt lat="45.94952" lon="4.80584">
        <ele>258</ele>
        <time>2017-07-16T10:44:40Z</time>
      </trkpt>
      <trkpt lat="45.94952" lon="4.80576">
        <ele>257</ele>
        <time>2017-07-16T10:44:41Z</time>
      </trkpt>
      <trkpt lat="45.94951" lon="4.80569">
        <ele>257</ele>
        <time>2017-07-16T10:44:42Z</time>
      </trkpt>
      <trkpt lat="45.94951" lon="4.80561">
        <ele>257</ele>
        <time>2017-07-16T10:44:43Z</time>
      </trkpt>
      <trkpt lat="45.94951" lon="4.80554">
        <ele>258</ele>
        <time>2017-07-16T10:44:44Z</time>
      </trkpt>
      <trkpt lat="45.9495" lon="4.80547">
        <ele>258</ele>
        <time>2017-07-16T10:44:45Z</time>
      </trkpt>
      <trkpt lat="45.9495" lon="4.8054">
        <ele>258</ele>
        <time>2017-07-16T10:44:46Z</time>
      </trkpt>
      <trkpt lat="45.94949" lon="4.80533">
        <ele>258</ele>
        <time>2017-07-16T10:44:47Z</time>
      </trkpt>
      <trkpt lat="45.94949" lon="4.80526">
        <ele>258</ele>
        <time>2017-07-16T10:44:48Z</time>
      </trkpt>
      <trkpt lat="45.9495" lon="4.80518">
        <ele>258</ele>
        <time>2017-07-16T10:44:49Z</time>
      </trkpt>
      <trkpt lat="45.9495" lon="4.80511">
        <ele>258</ele>
        <time>2017-07-16T10:44:50Z</time>
      </trkpt>
      <trkpt lat="45.94949" lon="4.80502">
        <ele>258</ele>
        <time>2017-07-16T10:44:51Z</time>
      </trkpt>
      <trkpt lat="45.94949" lon="4.80494">
        <ele>258</ele>
        <time>2017-07-16T10:44:52Z</time>
      </trkpt>
      <trkpt lat="45.94948" lon="4.80485">
        <ele>258</ele>
        <time>2017-07-16T10:44:53Z</time>
      </trkpt>
      <trkpt lat="45.94948" lon="4.80476">
        <ele>258</ele>
        <time>2017-07-16T10:44:54Z</time>
      </trkpt>
      <trkpt lat="45.94948" lon="4.80467">
        <ele>258</ele>
        <time>2017-07-16T10:44:55Z</time>
      </trkpt>
      <trkpt lat="45.94948" lon="4.80458">
        <ele>258</ele>
        <time>2017-07-16T10:44:56Z</time>
      </trkpt>
      <trkpt lat="45.94948" lon="4.80448">
        <ele>258</ele>
        <time>2017-07-16T10:44:57Z</time>
      </trkpt>
      <trkpt lat="45.94947" lon="4.80439">
        <ele>259</ele>
        <time>2017-07-16T10:44:58Z</time>
      </trkpt>
      <trkpt lat="45.94947" lon="4.80431">
        <ele>259</ele>
        <time>2017-07-16T10:44:59Z</time>
      </trkpt>
      <trkpt lat="45.94947" lon="4.80423">
        <ele>259</ele>
        <time>2017-07-16T10:45:00Z</time>
      </trkpt>
      <trkpt lat="45.94947" lon="4.80415">
        <ele>258</ele>
        <time>2017-07-16T10:45:01Z</time>
      </trkpt>
      <trkpt lat="45.94946" lon="4.80407">
        <ele>258</ele>
        <time>2017-07-16T10:45:02Z</time>
      </trkpt>
      <trkpt lat="45.94946" lon="4.80399">
        <ele>258</ele>
        <time>2017-07-16T10:45:03Z</time>
      </trkpt>
      <trkpt lat="45.94946" lon="4.80391">
        <ele>258</ele>
        <time>2017-07-16T10:45:04Z</time>
      </trkpt>
      <trkpt lat="45.94946" lon="4.80383">
        <ele>258</ele>
        <time>2017-07-16T10:45:05Z</time>
      </trkpt>
      <trkpt lat="45.94946" lon="4.80375">
        <ele>258</ele>
        <time>2017-07-16T10:45:06Z</time>
      </trkpt>
      <trkpt lat="45.94946" lon="4.80367">
        <ele>258</ele>
        <time>2017-07-16T10:45:07Z</time>
      </trkpt>
      <trkpt lat="45.94946" lon="4.80359">
        <ele>258</ele>
        <time>2017-07-16T10:45:08Z</time>
      </trkpt>
      <trkpt lat="45.94945" lon="4.8035">
        <ele>258</ele>
        <time>2017-07-16T10:45:09Z</time>
      </trkpt>
      <trkpt lat="45.94944" lon="4.80342">
        <ele>258</ele>
        <time>2017-07-16T10:45:10Z</time>
      </trkpt>
      <trkpt lat="45.94944" lon="4.80333">
        <ele>257</ele>
        <time>2017-07-16T10:45:11Z</time>
      </trkpt>
      <trkpt lat="45.94944" lon="4.80325">
        <ele>257</ele>
        <time>2017-07-16T10:45:12Z</time>
      </trkpt>
      <trkpt lat="45.94943" lon="4.80317">
        <ele>257</ele>
        <time>2017-07-16T10:45:13Z</time>
      </trkpt>
      <trkpt lat="45.94943" lon="4.8031">
        <ele>257</ele>
        <time>2017-07-16T10:45:14Z</time>
      </trkpt>
      <trkpt lat="45.94943" lon="4.80302">
        <ele>257</ele>
        <time>2017-07-16T10:45:15Z</time>
      </trkpt>
      <trkpt lat="45.94943" lon="4.80294">
        <ele>257</ele>
        <time>2017-07-16T10:45:16Z</time>
      </trkpt>
      <trkpt lat="45.94943" lon="4.80286">
        <ele>257</ele>
        <time>2017-07-16T10:45:17Z</time>
      </trkpt>
      <trkpt lat="45.94943" lon="4.80278">
        <ele>257</ele>
        <time>2017-07-16T10:45:18Z</time>
      </trkpt>
      <trkpt lat="45.94943" lon="4.8027">
        <ele>257</ele>
        <time>2017-07-16T10:45:19Z</time>
      </trkpt>
      <trkpt lat="45.94942" lon="4.80262">
        <ele>257</ele>
        <time>2017-07-16T10:45:20Z</time>
      </trkpt>
      <trkpt lat="45.94942" lon="4.80254">
        <ele>257</ele>
        <time>2017-07-16T10:45:21Z</time>
      </trkpt>
      <trkpt lat="45.94942" lon="4.80246">
        <ele>256</ele>
        <time>2017-07-16T10:45:22Z</time>
      </trkpt>
      <trkpt lat="45.94941" lon="4.80238">
        <ele>256</ele>
        <time>2017-07-16T10:45:23Z</time>
      </trkpt>
      <trkpt lat="45.9494" lon="4.80229">
        <ele>256</ele>
        <time>2017-07-16T10:45:24Z</time>
      </trkpt>
      <trkpt lat="45.94938" lon="4.8022">
        <ele>256</ele>
        <time>2017-07-16T10:45:25Z</time>
      </trkpt>
      <trkpt lat="45.94936" lon="4.80211">
        <ele>256</ele>
        <time>2017-07-16T10:45:26Z</time>
      </trkpt>
      <trkpt lat="45.94935" lon="4.80202">
        <ele>256</ele>
        <time>2017-07-16T10:45:27Z</time>
      </trkpt>
      <trkpt lat="45.94934" lon="4.80193">
        <ele>256</ele>
        <time>2017-07-16T10:45:28Z</time>
      </trkpt>
      <trkpt lat="45.94932" lon="4.80185">
        <ele>256</ele>
        <time>2017-07-16T10:45:29Z</time>
      </trkpt>
      <trkpt lat="45.94931" lon="4.80176">
        <ele>256</ele>
        <time>2017-07-16T10:45:30Z</time>
      </trkpt>
      <trkpt lat="45.9493" lon="4.80168">
        <ele>255</ele>
        <time>2017-07-16T10:45:31Z</time>
      </trkpt>
      <trkpt lat="45.94929" lon="4.8016">
        <ele>255</ele>
        <time>2017-07-16T10:45:32Z</time>
      </trkpt>
      <trkpt lat="45.94928" lon="4.80152">
        <ele>255</ele>
        <time>2017-07-16T10:45:33Z</time>
      </trkpt>
      <trkpt lat="45.94926" lon="4.80144">
        <ele>256</ele>
        <time>2017-07-16T10:45:34Z</time>
      </trkpt>
      <trkpt lat="45.94925" lon="4.80136">
        <ele>256</ele>
        <time>2017-07-16T10:45:35Z</time>
      </trkpt>
      <trkpt lat="45.94923" lon="4.80128">
        <ele>256</ele>
        <time>2017-07-16T10:45:36Z</time>
      </trkpt>
      <trkpt lat="45.94921" lon="4.80121">
        <ele>256</ele>
        <time>2017-07-16T10:45:37Z</time>
      </trkpt>
      <trkpt lat="45.94919" lon="4.80113">
        <ele>256</ele>
        <time>2017-07-16T10:45:38Z</time>
      </trkpt>
      <trkpt lat="45.94917" lon="4.80106">
        <ele>256</ele>
        <time>2017-07-16T10:45:39Z</time>
      </trkpt>
      <trkpt lat="45.94914" lon="4.80098">
        <ele>256</ele>
        <time>2017-07-16T10:45:40Z</time>
      </trkpt>
      <trkpt lat="45.94912" lon="4.80089">
        <ele>257</ele>
        <time>2017-07-16T10:45:41Z</time>
      </trkpt>
      <trkpt lat="45.94909" lon="4.80081">
        <ele>257</ele>
        <time>2017-07-16T10:45:42Z</time>
      </trkpt>
      <trkpt lat="45.94907" lon="4.80072">
        <ele>257</ele>
        <time>2017-07-16T10:45:43Z</time>
      </trkpt>
      <trkpt lat="45.94904" lon="4.80062">
        <ele>256</ele>
        <time>2017-07-16T10:45:44Z</time>
      </trkpt>
      <trkpt lat="45.94902" lon="4.80053">
        <ele>256</ele>
        <time>2017-07-16T10:45:45Z</time>
      </trkpt>
      <trkpt lat="45.949" lon="4.80043">
        <ele>256</ele>
        <time>2017-07-16T10:45:46Z</time>
      </trkpt>
      <trkpt lat="45.94897" lon="4.80034">
        <ele>256</ele>
        <time>2017-07-16T10:45:47Z</time>
      </trkpt>
      <trkpt lat="45.94894" lon="4.80026">
        <ele>256</ele>
        <time>2017-07-16T10:45:48Z</time>
      </trkpt>
      <trkpt lat="45.94891" lon="4.80018">
        <ele>256</ele>
        <time>2017-07-16T10:45:49Z</time>
      </trkpt>
      <trkpt lat="45.94888" lon="4.8001">
        <ele>256</ele>
        <time>2017-07-16T10:45:50Z</time>
      </trkpt>
      <trkpt lat="45.94886" lon="4.80002">
        <ele>256</ele>
        <time>2017-07-16T10:45:51Z</time>
      </trkpt>
      <trkpt lat="45.94883" lon="4.79994">
        <ele>256</ele>
        <time>2017-07-16T10:45:52Z</time>
      </trkpt>
      <trkpt lat="45.94881" lon="4.79986">
        <ele>256</ele>
        <time>2017-07-16T10:45:53Z</time>
      </trkpt>
      <trkpt lat="45.94878" lon="4.79979">
        <ele>256</ele>
        <time>2017-07-16T10:45:54Z</time>
      </trkpt>
      <trkpt lat="45.94875" lon="4.79972">
        <ele>256</ele>
        <time>2017-07-16T10:45:55Z</time>
      </trkpt>
      <trkpt lat="45.94872" lon="4.79965">
        <ele>256</ele>
        <time>2017-07-16T10:45:56Z</time>
      </trkpt>
      <trkpt lat="45.94869" lon="4.79958">
        <ele>256</ele>
        <time>2017-07-16T10:45:57Z</time>
      </trkpt>
      <trkpt lat="45.94867" lon="4.79951">
        <ele>256</ele>
        <time>2017-07-16T10:45:58Z</time>
      </trkpt>
      <trkpt lat="45.94864" lon="4.79944">
        <ele>256</ele>
        <time>2017-07-16T10:45:59Z</time>
      </trkpt>
      <trkpt lat="45.94861" lon="4.79937">
        <ele>256</ele>
        <time>2017-07-16T10:46:00Z</time>
      </trkpt>
      <trkpt lat="45.94858" lon="4.7993">
        <ele>256</ele>
        <time>2017-07-16T10:46:01Z</time>
      </trkpt>
      <trkpt lat="45.94855" lon="4.79923">
        <ele>256</ele>
        <time>2017-07-16T10:46:02Z</time>
      </trkpt>
      <trkpt lat="45.94852" lon="4.79916">
        <ele>256</ele>
        <time>2017-07-16T10:46:03Z</time>
      </trkpt>
      <trkpt lat="45.94848" lon="4.79909">
        <ele>256</ele>
        <time>2017-07-16T10:46:04Z</time>
      </trkpt>
      <trkpt lat="45.94845" lon="4.79902">
        <ele>255</ele>
        <time>2017-07-16T10:46:05Z</time>
      </trkpt>
      <trkpt lat="45.94842" lon="4.79894">
        <ele>255</ele>
        <time>2017-07-16T10:46:06Z</time>
      </trkpt>
      <trkpt lat="45.9484" lon="4.79886">
        <ele>255</ele>
        <time>2017-07-16T10:46:07Z</time>
      </trkpt>
      <trkpt lat="45.94838" lon="4.79878">
        <ele>255</ele>
        <time>2017-07-16T10:46:08Z</time>
      </trkpt>
      <trkpt lat="45.94835" lon="4.7987">
        <ele>255</ele>
        <time>2017-07-16T10:46:09Z</time>
      </trkpt>
      <trkpt lat="45.94833" lon="4.79861">
        <ele>255</ele>
        <time>2017-07-16T10:46:10Z</time>
      </trkpt>
      <trkpt lat="45.94831" lon="4.79852">
        <ele>254</ele>
        <time>2017-07-16T10:46:11Z</time>
      </trkpt>
      <trkpt lat="45.94828" lon="4.79843">
        <ele>254</ele>
        <time>2017-07-16T10:46:12Z</time>
      </trkpt>
      <trkpt lat="45.94826" lon="4.79833">
        <ele>254</ele>
        <time>2017-07-16T10:46:13Z</time>
      </trkpt>
      <trkpt lat="45.94824" lon="4.79824">
        <ele>254</ele>
        <time>2017-07-16T10:46:14Z</time>
      </trkpt>
      <trkpt lat="45.94822" lon="4.79815">
        <ele>254</ele>
        <time>2017-07-16T10:46:15Z</time>
      </trkpt>
      <trkpt lat="45.94819" lon="4.79806">
        <ele>254</ele>
        <time>2017-07-16T10:46:16Z</time>
      </trkpt>
      <trkpt lat="45.94817" lon="4.79797">
        <ele>254</ele>
        <time>2017-07-16T10:46:17Z</time>
      </trkpt>
      <trkpt lat="45.94815" lon="4.79788">
        <ele>254</ele>
        <time>2017-07-16T10:46:18Z</time>
      </trkpt>
      <trkpt lat="45.94812" lon="4.7978">
        <ele>254</ele>
        <time>2017-07-16T10:46:19Z</time>
      </trkpt>
      <trkpt lat="45.9481" lon="4.79772">
        <ele>254</ele>
        <time>2017-07-16T10:46:20Z</time>
      </trkpt>
      <trkpt lat="45.94808" lon="4.79765">
        <ele>254</ele>
        <time>2017-07-16T10:46:21Z</time>
      </trkpt>
      <trkpt lat="45.94806" lon="4.79758">
        <ele>254</ele>
        <time>2017-07-16T10:46:22Z</time>
      </trkpt>
      <trkpt lat="45.94804" lon="4.79751">
        <ele>254</ele>
        <time>2017-07-16T10:46:23Z</time>
      </trkpt>
      <trkpt lat="45.94802" lon="4.79745">
        <ele>254</ele>
        <time>2017-07-16T10:46:24Z</time>
      </trkpt>
      <trkpt lat="45.948" lon="4.79738">
        <ele>254</ele>
        <time>2017-07-16T10:46:25Z</time>
      </trkpt>
      <trkpt lat="45.94798" lon="4.79731">
        <ele>254</ele>
        <time>2017-07-16T10:46:26Z</time>
      </trkpt>
      <trkpt lat="45.94795" lon="4.79724">
        <ele>254</ele>
        <time>2017-07-16T10:46:27Z</time>
      </trkpt>
      <trkpt lat="45.94793" lon="4.79716">
        <ele>254</ele>
        <time>2017-07-16T10:46:28Z</time>
      </trkpt>
      <trkpt lat="45.9479" lon="4.79709">
        <ele>254</ele>
        <time>2017-07-16T10:46:29Z</time>
      </trkpt>
      <trkpt lat="45.94788" lon="4.79701">
        <ele>254</ele>
        <time>2017-07-16T10:46:30Z</time>
      </trkpt>
      <trkpt lat="45.94785" lon="4.79693">
        <ele>254</ele>
        <time>2017-07-16T10:46:31Z</time>
      </trkpt>
      <trkpt lat="45.94783" lon="4.79686">
        <ele>254</ele>
        <time>2017-07-16T10:46:32Z</time>
      </trkpt>
      <trkpt lat="45.9478" lon="4.79678">
        <ele>254</ele>
        <time>2017-07-16T10:46:33Z</time>
      </trkpt>
      <trkpt lat="45.94778" lon="4.79671">
        <ele>254</ele>
        <time>2017-07-16T10:46:34Z</time>
      </trkpt>
      <trkpt lat="45.94776" lon="4.79664">
        <ele>254</ele>
        <time>2017-07-16T10:46:35Z</time>
      </trkpt>
      <trkpt lat="45.94774" lon="4.79656">
        <ele>254</ele>
        <time>2017-07-16T10:46:36Z</time>
      </trkpt>
      <trkpt lat="45.94772" lon="4.79648">
        <ele>254</ele>
        <time>2017-07-16T10:46:37Z</time>
      </trkpt>
      <trkpt lat="45.9477" lon="4.79641">
        <ele>254</ele>
        <time>2017-07-16T10:46:38Z</time>
      </trkpt>
      <trkpt lat="45.94769" lon="4.79632">
        <ele>253</ele>
        <time>2017-07-16T10:46:39Z</time>
      </trkpt>
      <trkpt lat="45.94767" lon="4.79624">
        <ele>253</ele>
        <time>2017-07-16T10:46:40Z</time>
      </trkpt>
      <trkpt lat="45.94765" lon="4.79616">
        <ele>253</ele>
        <time>2017-07-16T10:46:41Z</time>
      </trkpt>
      <trkpt lat="45.94763" lon="4.79607">
        <ele>253</ele>
        <time>2017-07-16T10:46:42Z</time>
      </trkpt>
      <trkpt lat="45.94763" lon="4.79599">
        <ele>253</ele>
        <time>2017-07-16T10:46:43Z</time>
      </trkpt>
      <trkpt lat="45.94765" lon="4.79588">
        <ele>253</ele>
        <time>2017-07-16T10:46:45Z</time>
      </trkpt>
      <trkpt lat="45.94767" lon="4.79582">
        <ele>252</ele>
        <time>2017-07-16T10:46:46Z</time>
      </trkpt>
      <trkpt lat="45.94766" lon="4.7957">
        <ele>252</ele>
        <time>2017-07-16T10:46:48Z</time>
      </trkpt>
      <trkpt lat="45.94763" lon="4.79562">
        <ele>252</ele>
        <time>2017-07-16T10:46:49Z</time>
      </trkpt>
      <trkpt lat="45.9476" lon="4.79554">
        <ele>252</ele>
        <time>2017-07-16T10:46:50Z</time>
      </trkpt>
      <trkpt lat="45.94757" lon="4.79547">
        <ele>252</ele>
        <time>2017-07-16T10:46:51Z</time>
      </trkpt>
      <trkpt lat="45.94754" lon="4.79539">
        <ele>252</ele>
        <time>2017-07-16T10:46:52Z</time>
      </trkpt>
      <trkpt lat="45.94751" lon="4.79531">
        <ele>252</ele>
        <time>2017-07-16T10:46:53Z</time>
      </trkpt>
      <trkpt lat="45.94749" lon="4.79523">
        <ele>253</ele>
        <time>2017-07-16T10:46:54Z</time>
      </trkpt>
      <trkpt lat="45.94747" lon="4.79515">
        <ele>252</ele>
        <time>2017-07-16T10:46:55Z</time>
      </trkpt>
      <trkpt lat="45.94744" lon="4.79508">
        <ele>252</ele>
        <time>2017-07-16T10:46:56Z</time>
      </trkpt>
      <trkpt lat="45.94741" lon="4.79501">
        <ele>252</ele>
        <time>2017-07-16T10:46:57Z</time>
      </trkpt>
      <trkpt lat="45.94738" lon="4.79493">
        <ele>252</ele>
        <time>2017-07-16T10:46:58Z</time>
      </trkpt>
      <trkpt lat="45.94735" lon="4.79486">
        <ele>253</ele>
        <time>2017-07-16T10:46:59Z</time>
      </trkpt>
      <trkpt lat="45.94731" lon="4.79478">
        <ele>253</ele>
        <time>2017-07-16T10:47:00Z</time>
      </trkpt>
      <trkpt lat="45.94728" lon="4.79471">
        <ele>253</ele>
        <time>2017-07-16T10:47:01Z</time>
      </trkpt>
      <trkpt lat="45.94725" lon="4.79463">
        <ele>253</ele>
        <time>2017-07-16T10:47:02Z</time>
      </trkpt>
      <trkpt lat="45.94721" lon="4.79456">
        <ele>253</ele>
        <time>2017-07-16T10:47:03Z</time>
      </trkpt>
      <trkpt lat="45.94717" lon="4.79448">
        <ele>253</ele>
        <time>2017-07-16T10:47:04Z</time>
      </trkpt>
      <trkpt lat="45.94714" lon="4.7944">
        <ele>253</ele>
        <time>2017-07-16T10:47:05Z</time>
      </trkpt>
      <trkpt lat="45.9471" lon="4.79433">
        <ele>253</ele>
        <time>2017-07-16T10:47:06Z</time>
      </trkpt>
      <trkpt lat="45.94707" lon="4.79425">
        <ele>253</ele>
        <time>2017-07-16T10:47:07Z</time>
      </trkpt>
      <trkpt lat="45.94703" lon="4.79418">
        <ele>253</ele>
        <time>2017-07-16T10:47:08Z</time>
      </trkpt>
      <trkpt lat="45.947" lon="4.79411">
        <ele>253</ele>
        <time>2017-07-16T10:47:09Z</time>
      </trkpt>
      <trkpt lat="45.94696" lon="4.79403">
        <ele>253</ele>
        <time>2017-07-16T10:47:10Z</time>
      </trkpt>
      <trkpt lat="45.94693" lon="4.79396">
        <ele>253</ele>
        <time>2017-07-16T10:47:11Z</time>
      </trkpt>
      <trkpt lat="45.94689" lon="4.79388">
        <ele>253</ele>
        <time>2017-07-16T10:47:12Z</time>
      </trkpt>
      <trkpt lat="45.94686" lon="4.79381">
        <ele>253</ele>
        <time>2017-07-16T10:47:13Z</time>
      </trkpt>
      <trkpt lat="45.94683" lon="4.79375">
        <ele>253</ele>
        <time>2017-07-16T10:47:14Z</time>
      </trkpt>
      <trkpt lat="45.9468" lon="4.79368">
        <ele>253</ele>
        <time>2017-07-16T10:47:15Z</time>
      </trkpt>
      <trkpt lat="45.94677" lon="4.79362">
        <ele>253</ele>
        <time>2017-07-16T10:47:16Z</time>
      </trkpt>
      <trkpt lat="45.94673" lon="4.79355">
        <ele>253</ele>
        <time>2017-07-16T10:47:17Z</time>
      </trkpt>
      <trkpt lat="45.94671" lon="4.79348">
        <ele>253</ele>
        <time>2017-07-16T10:47:18Z</time>
      </trkpt>
      <trkpt lat="45.94667" lon="4.79341">
        <ele>254</ele>
        <time>2017-07-16T10:47:19Z</time>
      </trkpt>
      <trkpt lat="45.94664" lon="4.79334">
        <ele>254</ele>
        <time>2017-07-16T10:47:20Z</time>
      </trkpt>
      <trkpt lat="45.9466" lon="4.79326">
        <ele>254</ele>
        <time>2017-07-16T10:47:21Z</time>
      </trkpt>
      <trkpt lat="45.94656" lon="4.79318">
        <ele>254</ele>
        <time>2017-07-16T10:47:22Z</time>
      </trkpt>
      <trkpt lat="45.94652" lon="4.7931">
        <ele>254</ele>
        <time>2017-07-16T10:47:23Z</time>
      </trkpt>
      <trkpt lat="45.94648" lon="4.79302">
        <ele>254</ele>
        <time>2017-07-16T10:47:24Z</time>
      </trkpt>
      <trkpt lat="45.94644" lon="4.79294">
        <ele>254</ele>
        <time>2017-07-16T10:47:25Z</time>
      </trkpt>
      <trkpt lat="45.94639" lon="4.79286">
        <ele>254</ele>
        <time>2017-07-16T10:47:26Z</time>
      </trkpt>
      <trkpt lat="45.94635" lon="4.79278">
        <ele>254</ele>
        <time>2017-07-16T10:47:27Z</time>
      </trkpt>
      <trkpt lat="45.9463" lon="4.7927">
        <ele>254</ele>
        <time>2017-07-16T10:47:28Z</time>
      </trkpt>
      <trkpt lat="45.94626" lon="4.79262">
        <ele>254</ele>
        <time>2017-07-16T10:47:29Z</time>
      </trkpt>
      <trkpt lat="45.94621" lon="4.79254">
        <ele>255</ele>
        <time>2017-07-16T10:47:30Z</time>
      </trkpt>
      <trkpt lat="45.94617" lon="4.79246">
        <ele>256</ele>
        <time>2017-07-16T10:47:31Z</time>
      </trkpt>
      <trkpt lat="45.94613" lon="4.79238">
        <ele>256</ele>
        <time>2017-07-16T10:47:32Z</time>
      </trkpt>
      <trkpt lat="45.9461" lon="4.79229">
        <ele>256</ele>
        <time>2017-07-16T10:47:33Z</time>
      </trkpt>
      <trkpt lat="45.94606" lon="4.79221">
        <ele>256</ele>
        <time>2017-07-16T10:47:34Z</time>
      </trkpt>
      <trkpt lat="45.94603" lon="4.79212">
        <ele>257</ele>
        <time>2017-07-16T10:47:35Z</time>
      </trkpt>
      <trkpt lat="45.94599" lon="4.79205">
        <ele>257</ele>
        <time>2017-07-16T10:47:36Z</time>
      </trkpt>
      <trkpt lat="45.94596" lon="4.79197">
        <ele>257</ele>
        <time>2017-07-16T10:47:37Z</time>
      </trkpt>
      <trkpt lat="45.94593" lon="4.79189">
        <ele>258</ele>
        <time>2017-07-16T10:47:38Z</time>
      </trkpt>
      <trkpt lat="45.94589" lon="4.79182">
        <ele>258</ele>
        <time>2017-07-16T10:47:39Z</time>
      </trkpt>
      <trkpt lat="45.94586" lon="4.79176">
        <ele>258</ele>
        <time>2017-07-16T10:47:40Z</time>
      </trkpt>
      <trkpt lat="45.94582" lon="4.79168">
        <ele>259</ele>
        <time>2017-07-16T10:47:41Z</time>
      </trkpt>
      <trkpt lat="45.94577" lon="4.79161">
        <ele>258</ele>
        <time>2017-07-16T10:47:42Z</time>
      </trkpt>
      <trkpt lat="45.94573" lon="4.79154">
        <ele>258</ele>
        <time>2017-07-16T10:47:43Z</time>
      </trkpt>
      <trkpt lat="45.94568" lon="4.79146">
        <ele>257</ele>
        <time>2017-07-16T10:47:44Z</time>
      </trkpt>
      <trkpt lat="45.94564" lon="4.79139">
        <ele>257</ele>
        <time>2017-07-16T10:47:45Z</time>
      </trkpt>
      <trkpt lat="45.94559" lon="4.79131">
        <ele>257</ele>
        <time>2017-07-16T10:47:46Z</time>
      </trkpt>
      <trkpt lat="45.94554" lon="4.79124">
        <ele>257</ele>
        <time>2017-07-16T10:47:47Z</time>
      </trkpt>
      <trkpt lat="45.94549" lon="4.79116">
        <ele>256</ele>
        <time>2017-07-16T10:47:48Z</time>
      </trkpt>
      <trkpt lat="45.94545" lon="4.79108">
        <ele>256</ele>
        <time>2017-07-16T10:47:49Z</time>
      </trkpt>
      <trkpt lat="45.94541" lon="4.79099">
        <ele>256</ele>
        <time>2017-07-16T10:47:50Z</time>
      </trkpt>
      <trkpt lat="45.94538" lon="4.79091">
        <ele>256</ele>
        <time>2017-07-16T10:47:51Z</time>
      </trkpt>
      <trkpt lat="45.94534" lon="4.79083">
        <ele>255</ele>
        <time>2017-07-16T10:47:52Z</time>
      </trkpt>
      <trkpt lat="45.9453" lon="4.79076">
        <ele>255</ele>
        <time>2017-07-16T10:47:53Z</time>
      </trkpt>
      <trkpt lat="45.94526" lon="4.79068">
        <ele>255</ele>
        <time>2017-07-16T10:47:54Z</time>
      </trkpt>
      <trkpt lat="45.94523" lon="4.79059">
        <ele>255</ele>
        <time>2017-07-16T10:47:55Z</time>
      </trkpt>
      <trkpt lat="45.9452" lon="4.79052">
        <ele>255</ele>
        <time>2017-07-16T10:47:56Z</time>
      </trkpt>
      <trkpt lat="45.94516" lon="4.79045">
        <ele>255</ele>
        <time>2017-07-16T10:47:57Z</time>
      </trkpt>
      <trkpt lat="45.94513" lon="4.79039">
        <ele>255</ele>
        <time>2017-07-16T10:47:58Z</time>
      </trkpt>
      <trkpt lat="45.9451" lon="4.79032">
        <ele>255</ele>
        <time>2017-07-16T10:47:59Z</time>
      </trkpt>
      <trkpt lat="45.94506" lon="4.79025">
        <ele>255</ele>
        <time>2017-07-16T10:48:00Z</time>
      </trkpt>
      <trkpt lat="45.94503" lon="4.79018">
        <ele>255</ele>
        <time>2017-07-16T10:48:01Z</time>
      </trkpt>
      <trkpt lat="45.94499" lon="4.7901">
        <ele>254</ele>
        <time>2017-07-16T10:48:02Z</time>
      </trkpt>
      <trkpt lat="45.94495" lon="4.79002">
        <ele>254</ele>
        <time>2017-07-16T10:48:03Z</time>
      </trkpt>
      <trkpt lat="45.94491" lon="4.78993">
        <ele>254</ele>
        <time>2017-07-16T10:48:04Z</time>
      </trkpt>
      <trkpt lat="45.94487" lon="4.78985">
        <ele>254</ele>
        <time>2017-07-16T10:48:05Z</time>
      </trkpt>
      <trkpt lat="45.94483" lon="4.78976">
        <ele>254</ele>
        <time>2017-07-16T10:48:06Z</time>
      </trkpt>
      <trkpt lat="45.9448" lon="4.78966">
        <ele>254</ele>
        <time>2017-07-16T10:48:07Z</time>
      </trkpt>
      <trkpt lat="45.94475" lon="4.78957">
        <ele>254</ele>
        <time>2017-07-16T10:48:08Z</time>
      </trkpt>
      <trkpt lat="45.94471" lon="4.78946">
        <ele>254</ele>
        <time>2017-07-16T10:48:09Z</time>
      </trkpt>
      <trkpt lat="45.94468" lon="4.78935">
        <ele>254</ele>
        <time>2017-07-16T10:48:10Z</time>
      </trkpt>
      <trkpt lat="45.94464" lon="4.78923">
        <ele>254</ele>
        <time>2017-07-16T10:48:11Z</time>
      </trkpt>
      <trkpt lat="45.94462" lon="4.7891">
        <ele>253</ele>
        <time>2017-07-16T10:48:12Z</time>
      </trkpt>
      <trkpt lat="45.9446" lon="4.78896">
        <ele>253</ele>
        <time>2017-07-16T10:48:13Z</time>
      </trkpt>
      <trkpt lat="45.94459" lon="4.78881">
        <ele>253</ele>
        <time>2017-07-16T10:48:14Z</time>
      </trkpt>
      <trkpt lat="45.9446" lon="4.78865">
        <ele>253</ele>
        <time>2017-07-16T10:48:15Z</time>
      </trkpt>
      <trkpt lat="45.94462" lon="4.78849">
        <ele>253</ele>
        <time>2017-07-16T10:48:16Z</time>
      </trkpt>
      <trkpt lat="45.94464" lon="4.78834">
        <ele>253</ele>
        <time>2017-07-16T10:48:17Z</time>
      </trkpt>
      <trkpt lat="45.94467" lon="4.78819">
        <ele>251</ele>
        <time>2017-07-16T10:48:18Z</time>
      </trkpt>
      <trkpt lat="45.94471" lon="4.78803">
        <ele>251</ele>
        <time>2017-07-16T10:48:19Z</time>
      </trkpt>
      <trkpt lat="45.94475" lon="4.78787">
        <ele>250</ele>
        <time>2017-07-16T10:48:20Z</time>
      </trkpt>
      <trkpt lat="45.94478" lon="4.78771">
        <ele>250</ele>
        <time>2017-07-16T10:48:21Z</time>
      </trkpt>
      <trkpt lat="45.9448" lon="4.78755">
        <ele>249</ele>
        <time>2017-07-16T10:48:22Z</time>
      </trkpt>
      <trkpt lat="45.9448" lon="4.78738">
        <ele>246</ele>
        <time>2017-07-16T10:48:23Z</time>
      </trkpt>
      <trkpt lat="45.94479" lon="4.78721">
        <ele>245</ele>
        <time>2017-07-16T10:48:24Z</time>
      </trkpt>
      <trkpt lat="45.94477" lon="4.78703">
        <ele>245</ele>
        <time>2017-07-16T10:48:25Z</time>
      </trkpt>
      <trkpt lat="45.94474" lon="4.78686">
        <ele>244</ele>
        <time>2017-07-16T10:48:26Z</time>
      </trkpt>
      <trkpt lat="45.94471" lon="4.78669">
        <ele>244</ele>
        <time>2017-07-16T10:48:27Z</time>
      </trkpt>
      <trkpt lat="45.94469" lon="4.78652">
        <ele>241</ele>
        <time>2017-07-16T10:48:28Z</time>
      </trkpt>
      <trkpt lat="45.94466" lon="4.78635">
        <ele>241</ele>
        <time>2017-07-16T10:48:29Z</time>
      </trkpt>
      <trkpt lat="45.94462" lon="4.78617">
        <ele>241</ele>
        <time>2017-07-16T10:48:30Z</time>
      </trkpt>
      <trkpt lat="45.94457" lon="4.78601">
        <ele>240</ele>
        <time>2017-07-16T10:48:31Z</time>
      </trkpt>
      <trkpt lat="45.94451" lon="4.78585">
        <ele>240</ele>
        <time>2017-07-16T10:48:32Z</time>
      </trkpt>
      <trkpt lat="45.94444" lon="4.78571">
        <ele>239</ele>
        <time>2017-07-16T10:48:33Z</time>
      </trkpt>
      <trkpt lat="45.94437" lon="4.78557">
        <ele>239</ele>
        <time>2017-07-16T10:48:34Z</time>
      </trkpt>
      <trkpt lat="45.94429" lon="4.78544">
        <ele>238</ele>
        <time>2017-07-16T10:48:35Z</time>
      </trkpt>
      <trkpt lat="45.9442" lon="4.78531">
        <ele>238</ele>
        <time>2017-07-16T10:48:36Z</time>
      </trkpt>
      <trkpt lat="45.94411" lon="4.78517">
        <ele>236</ele>
        <time>2017-07-16T10:48:37Z</time>
      </trkpt>
      <trkpt lat="45.94402" lon="4.78506">
        <ele>236</ele>
        <time>2017-07-16T10:48:38Z</time>
      </trkpt>
      <trkpt lat="45.94392" lon="4.78496">
        <ele>235</ele>
        <time>2017-07-16T10:48:39Z</time>
      </trkpt>
      <trkpt lat="45.94382" lon="4.78485">
        <ele>236</ele>
        <time>2017-07-16T10:48:40Z</time>
      </trkpt>
      <trkpt lat="45.94372" lon="4.78474">
        <ele>236</ele>
        <time>2017-07-16T10:48:41Z</time>
      </trkpt>
      <trkpt lat="45.94363" lon="4.78461">
        <ele>236</ele>
        <time>2017-07-16T10:48:42Z</time>
      </trkpt>
      <trkpt lat="45.94354" lon="4.78449">
        <ele>235</ele>
        <time>2017-07-16T10:48:43Z</time>
      </trkpt>
      <trkpt lat="45.94345" lon="4.78436">
        <ele>233</ele>
        <time>2017-07-16T10:48:44Z</time>
      </trkpt>
      <trkpt lat="45.94336" lon="4.78422">
        <ele>231</ele>
        <time>2017-07-16T10:48:45Z</time>
      </trkpt>
      <trkpt lat="45.94329" lon="4.78408">
        <ele>229</ele>
        <time>2017-07-16T10:48:46Z</time>
      </trkpt>
      <trkpt lat="45.94322" lon="4.78394">
        <ele>230</ele>
        <time>2017-07-16T10:48:47Z</time>
      </trkpt>
      <trkpt lat="45.94315" lon="4.78379">
        <ele>230</ele>
        <time>2017-07-16T10:48:48Z</time>
      </trkpt>
      <trkpt lat="45.94308" lon="4.78365">
        <ele>229</ele>
        <time>2017-07-16T10:48:49Z</time>
      </trkpt>
      <trkpt lat="45.943" lon="4.78352">
        <ele>229</ele>
        <time>2017-07-16T10:48:50Z</time>
      </trkpt>
      <trkpt lat="45.94292" lon="4.78339">
        <ele>228</ele>
        <time>2017-07-16T10:48:51Z</time>
      </trkpt>
      <trkpt lat="45.94283" lon="4.78327">
        <ele>228</ele>
        <time>2017-07-16T10:48:52Z</time>
      </trkpt>
      <trkpt lat="45.94273" lon="4.78317">
        <ele>227</ele>
        <time>2017-07-16T10:48:53Z</time>
      </trkpt>
      <trkpt lat="45.94263" lon="4.7831">
        <ele>227</ele>
        <time>2017-07-16T10:48:54Z</time>
      </trkpt>
      <trkpt lat="45.94252" lon="4.78303">
        <ele>227</ele>
        <time>2017-07-16T10:48:55Z</time>
      </trkpt>
      <trkpt lat="45.9424" lon="4.78299">
        <ele>222</ele>
        <time>2017-07-16T10:48:56Z</time>
      </trkpt>
      <trkpt lat="45.94228" lon="4.78296">
        <ele>222</ele>
        <time>2017-07-16T10:48:57Z</time>
      </trkpt>
      <trkpt lat="45.94215" lon="4.78294">
        <ele>222</ele>
        <time>2017-07-16T10:48:58Z</time>
      </trkpt>
      <trkpt lat="45.94202" lon="4.78291">
        <ele>221</ele>
        <time>2017-07-16T10:48:59Z</time>
      </trkpt>
      <trkpt lat="45.9419" lon="4.78287">
        <ele>221</ele>
        <time>2017-07-16T10:49:00Z</time>
      </trkpt>
      <trkpt lat="45.94178" lon="4.78282">
        <ele>221</ele>
        <time>2017-07-16T10:49:01Z</time>
      </trkpt>
      <trkpt lat="45.94167" lon="4.78275">
        <ele>220</ele>
        <time>2017-07-16T10:49:02Z</time>
      </trkpt>
      <trkpt lat="45.94156" lon="4.78269">
        <ele>216</ele>
        <time>2017-07-16T10:49:03Z</time>
      </trkpt>
      <trkpt lat="45.94144" lon="4.78262">
        <ele>215</ele>
        <time>2017-07-16T10:49:04Z</time>
      </trkpt>
      <trkpt lat="45.94133" lon="4.78254">
        <ele>214</ele>
        <time>2017-07-16T10:49:05Z</time>
      </trkpt>
      <trkpt lat="45.94122" lon="4.78247">
        <ele>214</ele>
        <time>2017-07-16T10:49:06Z</time>
      </trkpt>
      <trkpt lat="45.94111" lon="4.78241">
        <ele>213</ele>
        <time>2017-07-16T10:49:07Z</time>
      </trkpt>
      <trkpt lat="45.941" lon="4.78234">
        <ele>212</ele>
        <time>2017-07-16T10:49:08Z</time>
      </trkpt>
      <trkpt lat="45.94089" lon="4.78228">
        <ele>212</ele>
        <time>2017-07-16T10:49:09Z</time>
      </trkpt>
      <trkpt lat="45.94078" lon="4.78221">
        <ele>206</ele>
        <time>2017-07-16T10:49:10Z</time>
      </trkpt>
      <trkpt lat="45.94067" lon="4.78213">
        <ele>206</ele>
        <time>2017-07-16T10:49:11Z</time>
      </trkpt>
      <trkpt lat="45.94057" lon="4.78207">
        <ele>206</ele>
        <time>2017-07-16T10:49:12Z</time>
      </trkpt>
      <trkpt lat="45.94048" lon="4.78201">
        <ele>205</ele>
        <time>2017-07-16T10:49:13Z</time>
      </trkpt>
      <trkpt lat="45.9404" lon="4.78196">
        <ele>205</ele>
        <time>2017-07-16T10:49:14Z</time>
      </trkpt>
      <trkpt lat="45.94032" lon="4.7819">
        <ele>204</ele>
        <time>2017-07-16T10:49:15Z</time>
      </trkpt>
      <trkpt lat="45.94025" lon="4.78185">
        <ele>204</ele>
        <time>2017-07-16T10:49:16Z</time>
      </trkpt>
      <trkpt lat="45.94018" lon="4.7818">
        <ele>203</ele>
        <time>2017-07-16T10:49:17Z</time>
      </trkpt>
      <trkpt lat="45.94012" lon="4.78176">
        <ele>203</ele>
        <time>2017-07-16T10:49:18Z</time>
      </trkpt>
      <trkpt lat="45.94008" lon="4.78171">
        <ele>202</ele>
        <time>2017-07-16T10:49:19Z</time>
      </trkpt>
      <trkpt lat="45.94003" lon="4.78168">
        <ele>201</ele>
        <time>2017-07-16T10:49:20Z</time>
      </trkpt>
      <trkpt lat="45.93996" lon="4.78161">
        <ele>200</ele>
        <time>2017-07-16T10:49:22Z</time>
      </trkpt>
      <trkpt lat="45.93993" lon="4.78156">
        <ele>199</ele>
        <time>2017-07-16T10:49:23Z</time>
      </trkpt>
      <trkpt lat="45.93992" lon="4.78149">
        <ele>198</ele>
        <time>2017-07-16T10:49:24Z</time>
      </trkpt>
      <trkpt lat="45.93989" lon="4.78144">
        <ele>198</ele>
        <time>2017-07-16T10:49:25Z</time>
      </trkpt>
      <trkpt lat="45.9399" lon="4.78132">
        <ele>197</ele>
        <time>2017-07-16T10:49:27Z</time>
      </trkpt>
      <trkpt lat="45.93992" lon="4.78126">
        <ele>197</ele>
        <time>2017-07-16T10:49:28Z</time>
      </trkpt>
      <trkpt lat="45.93995" lon="4.78115">
        <ele>197</ele>
        <time>2017-07-16T10:49:30Z</time>
      </trkpt>
      <trkpt lat="45.93996" lon="4.78108">
        <ele>197</ele>
        <time>2017-07-16T10:49:31Z</time>
      </trkpt>
      <trkpt lat="45.93997" lon="4.781">
        <ele>198</ele>
        <time>2017-07-16T10:49:32Z</time>
      </trkpt>
      <trkpt lat="45.93998" lon="4.78093">
        <ele>198</ele>
        <time>2017-07-16T10:49:33Z</time>
      </trkpt>
      <trkpt lat="45.93999" lon="4.78084">
        <ele>199</ele>
        <time>2017-07-16T10:49:34Z</time>
      </trkpt>
      <trkpt lat="45.94" lon="4.78076">
        <ele>197</ele>
        <time>2017-07-16T10:49:35Z</time>
      </trkpt>
      <trkpt lat="45.94001" lon="4.78067">
        <ele>201</ele>
        <time>2017-07-16T10:49:36Z</time>
      </trkpt>
      <trkpt lat="45.94002" lon="4.78059">
        <ele>201</ele>
        <time>2017-07-16T10:49:37Z</time>
      </trkpt>
      <trkpt lat="45.94004" lon="4.78051">
        <ele>201</ele>
        <time>2017-07-16T10:49:38Z</time>
      </trkpt>
      <trkpt lat="45.94006" lon="4.78043">
        <ele>201</ele>
        <time>2017-07-16T10:49:39Z</time>
      </trkpt>
      <trkpt lat="45.94007" lon="4.78035">
        <ele>201</ele>
        <time>2017-07-16T10:49:40Z</time>
      </trkpt>
      <trkpt lat="45.94009" lon="4.78027">
        <ele>201</ele>
        <time>2017-07-16T10:49:41Z</time>
      </trkpt>
      <trkpt lat="45.9401" lon="4.78019">
        <ele>200</ele>
        <time>2017-07-16T10:49:42Z</time>
      </trkpt>
      <trkpt lat="45.94011" lon="4.78011">
        <ele>199</ele>
        <time>2017-07-16T10:49:43Z</time>
      </trkpt>
      <trkpt lat="45.94013" lon="4.78003">
        <ele>199</ele>
        <time>2017-07-16T10:49:44Z</time>
      </trkpt>
      <trkpt lat="45.94014" lon="4.77994">
        <ele>199</ele>
        <time>2017-07-16T10:49:45Z</time>
      </trkpt>
      <trkpt lat="45.94015" lon="4.77986">
        <ele>199</ele>
        <time>2017-07-16T10:49:46Z</time>
      </trkpt>
      <trkpt lat="45.94017" lon="4.77977">
        <ele>200</ele>
        <time>2017-07-16T10:49:47Z</time>
      </trkpt>
      <trkpt lat="45.94018" lon="4.77969">
        <ele>200</ele>
        <time>2017-07-16T10:49:48Z</time>
      </trkpt>
      <trkpt lat="45.9402" lon="4.77962">
        <ele>200</ele>
        <time>2017-07-16T10:49:49Z</time>
      </trkpt>
      <trkpt lat="45.94023" lon="4.77952">
        <ele>200</ele>
        <time>2017-07-16T10:49:51Z</time>
      </trkpt>
      <trkpt lat="45.94024" lon="4.77948">
        <ele>200</ele>
        <time>2017-07-16T10:49:52Z</time>
      </trkpt>
      <trkpt lat="45.94027" lon="4.77938">
        <ele>200</ele>
        <time>2017-07-16T10:49:54Z</time>
      </trkpt>
      <trkpt lat="45.94027" lon="4.77933">
        <ele>200</ele>
        <time>2017-07-16T10:49:55Z</time>
      </trkpt>
      <trkpt lat="45.94021" lon="4.77925">
        <ele>199</ele>
        <time>2017-07-16T10:49:57Z</time>
      </trkpt>
      <trkpt lat="45.94017" lon="4.77923">
        <ele>198</ele>
        <time>2017-07-16T10:49:58Z</time>
      </trkpt>
      <trkpt lat="45.94011" lon="4.77921">
        <ele>197</ele>
        <time>2017-07-16T10:49:59Z</time>
      </trkpt>
      <trkpt lat="45.94006" lon="4.7792">
        <ele>196</ele>
        <time>2017-07-16T10:50:00Z</time>
      </trkpt>
      <trkpt lat="45.94" lon="4.77921">
        <ele>195</ele>
        <time>2017-07-16T10:50:01Z</time>
      </trkpt>
      <trkpt lat="45.93994" lon="4.77923">
        <ele>193</ele>
        <time>2017-07-16T10:50:02Z</time>
      </trkpt>
      <trkpt lat="45.93987" lon="4.77926">
        <ele>192</ele>
        <time>2017-07-16T10:50:03Z</time>
      </trkpt>
      <trkpt lat="45.9398" lon="4.7793">
        <ele>191</ele>
        <time>2017-07-16T10:50:04Z</time>
      </trkpt>
      <trkpt lat="45.93972" lon="4.77935">
        <ele>191</ele>
        <time>2017-07-16T10:50:05Z</time>
      </trkpt>
      <trkpt lat="45.93964" lon="4.77941">
        <ele>190</ele>
        <time>2017-07-16T10:50:06Z</time>
      </trkpt>
      <trkpt lat="45.93955" lon="4.77947">
        <ele>190</ele>
        <time>2017-07-16T10:50:07Z</time>
      </trkpt>
      <trkpt lat="45.93946" lon="4.77954">
        <ele>189</ele>
        <time>2017-07-16T10:50:08Z</time>
      </trkpt>
      <trkpt lat="45.93937" lon="4.7796">
        <ele>189</ele>
        <time>2017-07-16T10:50:09Z</time>
      </trkpt>
      <trkpt lat="45.93928" lon="4.77967">
        <ele>188</ele>
        <time>2017-07-16T10:50:10Z</time>
      </trkpt>
      <trkpt lat="45.93919" lon="4.77974">
        <ele>188</ele>
        <time>2017-07-16T10:50:11Z</time>
      </trkpt>
      <trkpt lat="45.9391" lon="4.77981">
        <ele>182</ele>
        <time>2017-07-16T10:50:12Z</time>
      </trkpt>
      <trkpt lat="45.93903" lon="4.77989">
        <ele>183</ele>
        <time>2017-07-16T10:50:13Z</time>
      </trkpt>
      <trkpt lat="45.93896" lon="4.77997">
        <ele>182</ele>
        <time>2017-07-16T10:50:14Z</time>
      </trkpt>
      <trkpt lat="45.93891" lon="4.78004">
        <ele>184</ele>
        <time>2017-07-16T10:50:15Z</time>
      </trkpt>
      <trkpt lat="45.93887" lon="4.78009">
        <ele>184</ele>
        <time>2017-07-16T10:50:16Z</time>
      </trkpt>
      <trkpt lat="45.93882" lon="4.78012">
        <ele>184</ele>
        <time>2017-07-16T10:50:17Z</time>
      </trkpt>
      <trkpt lat="45.93877" lon="4.78013">
        <ele>183</ele>
        <time>2017-07-16T10:50:18Z</time>
      </trkpt>
      <trkpt lat="45.93871" lon="4.78013">
        <ele>183</ele>
        <time>2017-07-16T10:50:19Z</time>
      </trkpt>
      <trkpt lat="45.93866" lon="4.7801">
        <ele>183</ele>
        <time>2017-07-16T10:50:20Z</time>
      </trkpt>
      <trkpt lat="45.93861" lon="4.78003">
        <ele>182</ele>
        <time>2017-07-16T10:50:21Z</time>
      </trkpt>
      <trkpt lat="45.93856" lon="4.77998">
        <ele>179</ele>
        <time>2017-07-16T10:50:22Z</time>
      </trkpt>
      <trkpt lat="45.93851" lon="4.77994">
        <ele>179</ele>
        <time>2017-07-16T10:50:23Z</time>
      </trkpt>
      <trkpt lat="45.93845" lon="4.7799">
        <ele>179</ele>
        <time>2017-07-16T10:50:24Z</time>
      </trkpt>
      <trkpt lat="45.9384" lon="4.77985">
        <ele>178</ele>
        <time>2017-07-16T10:50:25Z</time>
      </trkpt>
      <trkpt lat="45.93836" lon="4.77979">
        <ele>178</ele>
        <time>2017-07-16T10:50:26Z</time>
      </trkpt>
      <trkpt lat="45.93833" lon="4.77974">
        <ele>172</ele>
        <time>2017-07-16T10:50:27Z</time>
      </trkpt>
      <trkpt lat="45.93829" lon="4.77969">
        <ele>172</ele>
        <time>2017-07-16T10:50:28Z</time>
      </trkpt>
      <trkpt lat="45.93825" lon="4.77963">
        <ele>171</ele>
        <time>2017-07-16T10:50:29Z</time>
      </trkpt>
      <trkpt lat="45.93822" lon="4.77959">
        <ele>170</ele>
        <time>2017-07-16T10:50:30Z</time>
      </trkpt>
      <trkpt lat="45.93818" lon="4.77954">
        <ele>170</ele>
        <time>2017-07-16T10:50:31Z</time>
      </trkpt>
      <trkpt lat="45.93814" lon="4.7795">
        <ele>169</ele>
        <time>2017-07-16T10:50:32Z</time>
      </trkpt>
      <trkpt lat="45.9381" lon="4.77945">
        <ele>169</ele>
        <time>2017-07-16T10:50:33Z</time>
      </trkpt>
      <trkpt lat="45.93806" lon="4.7794">
        <ele>169</ele>
        <time>2017-07-16T10:50:34Z</time>
      </trkpt>
      <trkpt lat="45.93802" lon="4.77935">
        <ele>169</ele>
        <time>2017-07-16T10:50:35Z</time>
      </trkpt>
      <trkpt lat="45.93798" lon="4.7793">
        <ele>168</ele>
        <time>2017-07-16T10:50:36Z</time>
      </trkpt>
      <trkpt lat="45.93795" lon="4.77925">
        <ele>168</ele>
        <time>2017-07-16T10:50:37Z</time>
      </trkpt>
      <trkpt lat="45.93791" lon="4.77921">
        <ele>168</ele>
        <time>2017-07-16T10:50:38Z</time>
      </trkpt>
      <trkpt lat="45.93788" lon="4.77916">
        <ele>166</ele>
        <time>2017-07-16T10:50:39Z</time>
      </trkpt>
      <trkpt lat="45.93784" lon="4.7791">
        <ele>166</ele>
        <time>2017-07-16T10:50:40Z</time>
      </trkpt>
      <trkpt lat="45.93779" lon="4.77905">
        <ele>166</ele>
        <time>2017-07-16T10:50:41Z</time>
      </trkpt>
      <trkpt lat="45.93775" lon="4.779">
        <ele>166</ele>
        <time>2017-07-16T10:50:42Z</time>
      </trkpt>
      <trkpt lat="45.93771" lon="4.77894">
        <ele>166</ele>
        <time>2017-07-16T10:50:43Z</time>
      </trkpt>
      <trkpt lat="45.93767" lon="4.77889">
        <ele>166</ele>
        <time>2017-07-16T10:50:44Z</time>
      </trkpt>
      <trkpt lat="45.93763" lon="4.77884">
        <ele>166</ele>
        <time>2017-07-16T10:50:45Z</time>
      </trkpt>
      <trkpt lat="45.93759" lon="4.77879">
        <ele>166</ele>
        <time>2017-07-16T10:50:46Z</time>
      </trkpt>
      <trkpt lat="45.93755" lon="4.77873">
        <ele>166</ele>
        <time>2017-07-16T10:50:47Z</time>
      </trkpt>
      <trkpt lat="45.93751" lon="4.77868">
        <ele>166</ele>
        <time>2017-07-16T10:50:48Z</time>
      </trkpt>
      <trkpt lat="45.93746" lon="4.77863">
        <ele>167</ele>
        <time>2017-07-16T10:50:49Z</time>
      </trkpt>
      <trkpt lat="45.93742" lon="4.77858">
        <ele>167</ele>
        <time>2017-07-16T10:50:50Z</time>
      </trkpt>
      <trkpt lat="45.93739" lon="4.77852">
        <ele>167</ele>
        <time>2017-07-16T10:50:51Z</time>
      </trkpt>
      <trkpt lat="45.93735" lon="4.77846">
        <ele>167</ele>
        <time>2017-07-16T10:50:52Z</time>
      </trkpt>
      <trkpt lat="45.9373" lon="4.7784">
        <ele>167</ele>
        <time>2017-07-16T10:50:53Z</time>
      </trkpt>
      <trkpt lat="45.93725" lon="4.77834">
        <ele>167</ele>
        <time>2017-07-16T10:50:54Z</time>
      </trkpt>
      <trkpt lat="45.9372" lon="4.77828">
        <ele>168</ele>
        <time>2017-07-16T10:50:55Z</time>
      </trkpt>
      <trkpt lat="45.93715" lon="4.77822">
        <ele>169</ele>
        <time>2017-07-16T10:50:56Z</time>
      </trkpt>
      <trkpt lat="45.9371" lon="4.77815">
        <ele>169</ele>
        <time>2017-07-16T10:50:57Z</time>
      </trkpt>
      <trkpt lat="45.93704" lon="4.77809">
        <ele>169</ele>
        <time>2017-07-16T10:50:58Z</time>
      </trkpt>
      <trkpt lat="45.93699" lon="4.77802">
        <ele>169</ele>
        <time>2017-07-16T10:50:59Z</time>
      </trkpt>
      <trkpt lat="45.93694" lon="4.77794">
        <ele>169</ele>
        <time>2017-07-16T10:51:00Z</time>
      </trkpt>
      <trkpt lat="45.93688" lon="4.77786">
        <ele>170</ele>
        <time>2017-07-16T10:51:01Z</time>
      </trkpt>
      <trkpt lat="45.93683" lon="4.77779">
        <ele>170</ele>
        <time>2017-07-16T10:51:02Z</time>
      </trkpt>
      <trkpt lat="45.93677" lon="4.77771">
        <ele>170</ele>
        <time>2017-07-16T10:51:03Z</time>
      </trkpt>
      <trkpt lat="45.93672" lon="4.77763">
        <ele>170</ele>
        <time>2017-07-16T10:51:04Z</time>
      </trkpt>
      <trkpt lat="45.93666" lon="4.77754">
        <ele>171</ele>
        <time>2017-07-16T10:51:05Z</time>
      </trkpt>
      <trkpt lat="45.9366" lon="4.77745">
        <ele>171</ele>
        <time>2017-07-16T10:51:06Z</time>
      </trkpt>
      <trkpt lat="45.93655" lon="4.77735">
        <ele>170</ele>
        <time>2017-07-16T10:51:07Z</time>
      </trkpt>
      <trkpt lat="45.93649" lon="4.77725">
        <ele>170</ele>
        <time>2017-07-16T10:51:08Z</time>
      </trkpt>
      <trkpt lat="45.93643" lon="4.77715">
        <ele>170</ele>
        <time>2017-07-16T10:51:09Z</time>
      </trkpt>
      <trkpt lat="45.93638" lon="4.77704">
        <ele>170</ele>
        <time>2017-07-16T10:51:10Z</time>
      </trkpt>
      <trkpt lat="45.93632" lon="4.77692">
        <ele>169</ele>
        <time>2017-07-16T10:51:11Z</time>
      </trkpt>
      <trkpt lat="45.93626" lon="4.77681">
        <ele>169</ele>
        <time>2017-07-16T10:51:12Z</time>
      </trkpt>
      <trkpt lat="45.93621" lon="4.77669">
        <ele>169</ele>
        <time>2017-07-16T10:51:13Z</time>
      </trkpt>
      <trkpt lat="45.93616" lon="4.77657">
        <ele>169</ele>
        <time>2017-07-16T10:51:14Z</time>
      </trkpt>
      <trkpt lat="45.93611" lon="4.77645">
        <ele>169</ele>
        <time>2017-07-16T10:51:15Z</time>
      </trkpt>
      <trkpt lat="45.93606" lon="4.77634">
        <ele>169</ele>
        <time>2017-07-16T10:51:16Z</time>
      </trkpt>
      <trkpt lat="45.93601" lon="4.77622">
        <ele>170</ele>
        <time>2017-07-16T10:51:17Z</time>
      </trkpt>
      <trkpt lat="45.93597" lon="4.77611">
        <ele>170</ele>
        <time>2017-07-16T10:51:18Z</time>
      </trkpt>
      <trkpt lat="45.93593" lon="4.776">
        <ele>170</ele>
        <time>2017-07-16T10:51:19Z</time>
      </trkpt>
      <trkpt lat="45.93589" lon="4.7759">
        <ele>170</ele>
        <time>2017-07-16T10:51:20Z</time>
      </trkpt>
      <trkpt lat="45.93586" lon="4.77579">
        <ele>170</ele>
        <time>2017-07-16T10:51:21Z</time>
      </trkpt>
      <trkpt lat="45.93583" lon="4.77569">
        <ele>170</ele>
        <time>2017-07-16T10:51:22Z</time>
      </trkpt>
      <trkpt lat="45.93581" lon="4.7756">
        <ele>169</ele>
        <time>2017-07-16T10:51:23Z</time>
      </trkpt>
      <trkpt lat="45.93578" lon="4.7755">
        <ele>169</ele>
        <time>2017-07-16T10:51:24Z</time>
      </trkpt>
      <trkpt lat="45.93575" lon="4.77541">
        <ele>169</ele>
        <time>2017-07-16T10:51:25Z</time>
      </trkpt>
      <trkpt lat="45.93573" lon="4.77531">
        <ele>169</ele>
        <time>2017-07-16T10:51:26Z</time>
      </trkpt>
      <trkpt lat="45.93571" lon="4.77522">
        <ele>169</ele>
        <time>2017-07-16T10:51:27Z</time>
      </trkpt>
      <trkpt lat="45.93569" lon="4.77513">
        <ele>169</ele>
        <time>2017-07-16T10:51:28Z</time>
      </trkpt>
      <trkpt lat="45.93567" lon="4.77504">
        <ele>169</ele>
        <time>2017-07-16T10:51:29Z</time>
      </trkpt>
      <trkpt lat="45.93564" lon="4.77495">
        <ele>169</ele>
        <time>2017-07-16T10:51:30Z</time>
      </trkpt>
      <trkpt lat="45.93563" lon="4.77487">
        <ele>169</ele>
        <time>2017-07-16T10:51:31Z</time>
      </trkpt>
      <trkpt lat="45.93561" lon="4.77479">
        <ele>169</ele>
        <time>2017-07-16T10:51:32Z</time>
      </trkpt>
      <trkpt lat="45.93559" lon="4.77472">
        <ele>169</ele>
        <time>2017-07-16T10:51:33Z</time>
      </trkpt>
      <trkpt lat="45.93557" lon="4.77464">
        <ele>169</ele>
        <time>2017-07-16T10:51:34Z</time>
      </trkpt>
      <trkpt lat="45.93556" lon="4.77457">
        <ele>169</ele>
        <time>2017-07-16T10:51:35Z</time>
      </trkpt>
      <trkpt lat="45.93554" lon="4.77449">
        <ele>169</ele>
        <time>2017-07-16T10:51:36Z</time>
      </trkpt>
      <trkpt lat="45.93552" lon="4.77441">
        <ele>169</ele>
        <time>2017-07-16T10:51:37Z</time>
      </trkpt>
      <trkpt lat="45.93551" lon="4.77432">
        <ele>169</ele>
        <time>2017-07-16T10:51:38Z</time>
      </trkpt>
      <trkpt lat="45.93549" lon="4.77424">
        <ele>170</ele>
        <time>2017-07-16T10:51:39Z</time>
      </trkpt>
      <trkpt lat="45.93547" lon="4.77416">
        <ele>170</ele>
        <time>2017-07-16T10:51:40Z</time>
      </trkpt>
      <trkpt lat="45.93545" lon="4.77408">
        <ele>170</ele>
        <time>2017-07-16T10:51:41Z</time>
      </trkpt>
      <trkpt lat="45.93543" lon="4.77401">
        <ele>170</ele>
        <time>2017-07-16T10:51:42Z</time>
      </trkpt>
      <trkpt lat="45.93542" lon="4.77393">
        <ele>170</ele>
        <time>2017-07-16T10:51:43Z</time>
      </trkpt>
      <trkpt lat="45.9354" lon="4.77386">
        <ele>170</ele>
        <time>2017-07-16T10:51:44Z</time>
      </trkpt>
      <trkpt lat="45.93539" lon="4.77378">
        <ele>170</ele>
        <time>2017-07-16T10:51:45Z</time>
      </trkpt>
      <trkpt lat="45.93537" lon="4.77371">
        <ele>170</ele>
        <time>2017-07-16T10:51:46Z</time>
      </trkpt>
      <trkpt lat="45.93535" lon="4.77363">
        <ele>170</ele>
        <time>2017-07-16T10:51:47Z</time>
      </trkpt>
      <trkpt lat="45.93533" lon="4.77355">
        <ele>170</ele>
        <time>2017-07-16T10:51:48Z</time>
      </trkpt>
      <trkpt lat="45.93532" lon="4.77347">
        <ele>170</ele>
        <time>2017-07-16T10:51:49Z</time>
      </trkpt>
      <trkpt lat="45.9353" lon="4.77339">
        <ele>170</ele>
        <time>2017-07-16T10:51:50Z</time>
      </trkpt>
      <trkpt lat="45.93528" lon="4.7733">
        <ele>170</ele>
        <time>2017-07-16T10:51:51Z</time>
      </trkpt>
      <trkpt lat="45.93526" lon="4.77322">
        <ele>170</ele>
        <time>2017-07-16T10:51:52Z</time>
      </trkpt>
      <trkpt lat="45.93524" lon="4.77313">
        <ele>170</ele>
        <time>2017-07-16T10:51:53Z</time>
      </trkpt>
      <trkpt lat="45.93522" lon="4.77304">
        <ele>170</ele>
        <time>2017-07-16T10:51:54Z</time>
      </trkpt>
      <trkpt lat="45.93521" lon="4.77295">
        <ele>170</ele>
        <time>2017-07-16T10:51:55Z</time>
      </trkpt>
      <trkpt lat="45.93519" lon="4.77287">
        <ele>170</ele>
        <time>2017-07-16T10:51:56Z</time>
      </trkpt>
      <trkpt lat="45.93517" lon="4.77279">
        <ele>170</ele>
        <time>2017-07-16T10:51:57Z</time>
      </trkpt>
      <trkpt lat="45.93515" lon="4.77271">
        <ele>170</ele>
        <time>2017-07-16T10:51:58Z</time>
      </trkpt>
      <trkpt lat="45.93513" lon="4.77263">
        <ele>170</ele>
        <time>2017-07-16T10:51:59Z</time>
      </trkpt>
      <trkpt lat="45.93511" lon="4.77256">
        <ele>170</ele>
        <time>2017-07-16T10:52:00Z</time>
      </trkpt>
      <trkpt lat="45.93509" lon="4.77249">
        <ele>170</ele>
        <time>2017-07-16T10:52:01Z</time>
      </trkpt>
      <trkpt lat="45.93507" lon="4.77241">
        <ele>169</ele>
        <time>2017-07-16T10:52:02Z</time>
      </trkpt>
      <trkpt lat="45.93505" lon="4.77234">
        <ele>169</ele>
        <time>2017-07-16T10:52:03Z</time>
      </trkpt>
      <trkpt lat="45.93503" lon="4.77226">
        <ele>169</ele>
        <time>2017-07-16T10:52:04Z</time>
      </trkpt>
      <trkpt lat="45.93501" lon="4.77218">
        <ele>169</ele>
        <time>2017-07-16T10:52:05Z</time>
      </trkpt>
      <trkpt lat="45.935" lon="4.7721">
        <ele>169</ele>
        <time>2017-07-16T10:52:06Z</time>
      </trkpt>
      <trkpt lat="45.93498" lon="4.77201">
        <ele>169</ele>
        <time>2017-07-16T10:52:07Z</time>
      </trkpt>
      <trkpt lat="45.93496" lon="4.77193">
        <ele>169</ele>
        <time>2017-07-16T10:52:08Z</time>
      </trkpt>
      <trkpt lat="45.93494" lon="4.77185">
        <ele>169</ele>
        <time>2017-07-16T10:52:09Z</time>
      </trkpt>
      <trkpt lat="45.93492" lon="4.77177">
        <ele>169</ele>
        <time>2017-07-16T10:52:10Z</time>
      </trkpt>
      <trkpt lat="45.93491" lon="4.77169">
        <ele>169</ele>
        <time>2017-07-16T10:52:11Z</time>
      </trkpt>
      <trkpt lat="45.93489" lon="4.77162">
        <ele>169</ele>
        <time>2017-07-16T10:52:12Z</time>
      </trkpt>
      <trkpt lat="45.93487" lon="4.77154">
        <ele>169</ele>
        <time>2017-07-16T10:52:13Z</time>
      </trkpt>
      <trkpt lat="45.93485" lon="4.77147">
        <ele>169</ele>
        <time>2017-07-16T10:52:14Z</time>
      </trkpt>
      <trkpt lat="45.93484" lon="4.7714">
        <ele>169</ele>
        <time>2017-07-16T10:52:15Z</time>
      </trkpt>
      <trkpt lat="45.93482" lon="4.77133">
        <ele>169</ele>
        <time>2017-07-16T10:52:16Z</time>
      </trkpt>
      <trkpt lat="45.9348" lon="4.77126">
        <ele>169</ele>
        <time>2017-07-16T10:52:17Z</time>
      </trkpt>
      <trkpt lat="45.93479" lon="4.77118">
        <ele>169</ele>
        <time>2017-07-16T10:52:18Z</time>
      </trkpt>
      <trkpt lat="45.93478" lon="4.7711">
        <ele>169</ele>
        <time>2017-07-16T10:52:19Z</time>
      </trkpt>
      <trkpt lat="45.93476" lon="4.77102">
        <ele>169</ele>
        <time>2017-07-16T10:52:20Z</time>
      </trkpt>
      <trkpt lat="45.93474" lon="4.77094">
        <ele>169</ele>
        <time>2017-07-16T10:52:21Z</time>
      </trkpt>
      <trkpt lat="45.93473" lon="4.77086">
        <ele>169</ele>
        <time>2017-07-16T10:52:22Z</time>
      </trkpt>
      <trkpt lat="45.93471" lon="4.77077">
        <ele>170</ele>
        <time>2017-07-16T10:52:23Z</time>
      </trkpt>
      <trkpt lat="45.9347" lon="4.77069">
        <ele>170</ele>
        <time>2017-07-16T10:52:24Z</time>
      </trkpt>
      <trkpt lat="45.93469" lon="4.77061">
        <ele>170</ele>
        <time>2017-07-16T10:52:25Z</time>
      </trkpt>
      <trkpt lat="45.93467" lon="4.77054">
        <ele>170</ele>
        <time>2017-07-16T10:52:26Z</time>
      </trkpt>
      <trkpt lat="45.93466" lon="4.77045">
        <ele>170</ele>
        <time>2017-07-16T10:52:27Z</time>
      </trkpt>
      <trkpt lat="45.93465" lon="4.77038">
        <ele>170</ele>
        <time>2017-07-16T10:52:28Z</time>
      </trkpt>
      <trkpt lat="45.93464" lon="4.77031">
        <ele>170</ele>
        <time>2017-07-16T10:52:29Z</time>
      </trkpt>
      <trkpt lat="45.93463" lon="4.77024">
        <ele>170</ele>
        <time>2017-07-16T10:52:30Z</time>
      </trkpt>
      <trkpt lat="45.93462" lon="4.77017">
        <ele>170</ele>
        <time>2017-07-16T10:52:31Z</time>
      </trkpt>
      <trkpt lat="45.93461" lon="4.77011">
        <ele>170</ele>
        <time>2017-07-16T10:52:32Z</time>
      </trkpt>
      <trkpt lat="45.93461" lon="4.77004">
        <ele>170</ele>
        <time>2017-07-16T10:52:33Z</time>
      </trkpt>
      <trkpt lat="45.9346" lon="4.76997">
        <ele>170</ele>
        <time>2017-07-16T10:52:34Z</time>
      </trkpt>
      <trkpt lat="45.93458" lon="4.7699">
        <ele>170</ele>
        <time>2017-07-16T10:52:35Z</time>
      </trkpt>
      <trkpt lat="45.93457" lon="4.76983">
        <ele>170</ele>
        <time>2017-07-16T10:52:36Z</time>
      </trkpt>
      <trkpt lat="45.93456" lon="4.76976">
        <ele>170</ele>
        <time>2017-07-16T10:52:37Z</time>
      </trkpt>
      <trkpt lat="45.93455" lon="4.76968">
        <ele>170</ele>
        <time>2017-07-16T10:52:38Z</time>
      </trkpt>
      <trkpt lat="45.93454" lon="4.76961">
        <ele>170</ele>
        <time>2017-07-16T10:52:39Z</time>
      </trkpt>
      <trkpt lat="45.93453" lon="4.76953">
        <ele>170</ele>
        <time>2017-07-16T10:52:40Z</time>
      </trkpt>
      <trkpt lat="45.93452" lon="4.76946">
        <ele>170</ele>
        <time>2017-07-16T10:52:41Z</time>
      </trkpt>
      <trkpt lat="45.93451" lon="4.76938">
        <ele>170</ele>
        <time>2017-07-16T10:52:42Z</time>
      </trkpt>
      <trkpt lat="45.9345" lon="4.7693">
        <ele>170</ele>
        <time>2017-07-16T10:52:43Z</time>
      </trkpt>
      <trkpt lat="45.93449" lon="4.76922">
        <ele>170</ele>
        <time>2017-07-16T10:52:44Z</time>
      </trkpt>
      <trkpt lat="45.93447" lon="4.76913">
        <ele>170</ele>
        <time>2017-07-16T10:52:45Z</time>
      </trkpt>
      <trkpt lat="45.93445" lon="4.76905">
        <ele>170</ele>
        <time>2017-07-16T10:52:46Z</time>
      </trkpt>
      <trkpt lat="45.93443" lon="4.76897">
        <ele>170</ele>
        <time>2017-07-16T10:52:47Z</time>
      </trkpt>
      <trkpt lat="45.93441" lon="4.7689">
        <ele>170</ele>
        <time>2017-07-16T10:52:48Z</time>
      </trkpt>
      <trkpt lat="45.93439" lon="4.76883">
        <ele>170</ele>
        <time>2017-07-16T10:52:49Z</time>
      </trkpt>
      <trkpt lat="45.93437" lon="4.76876">
        <ele>171</ele>
        <time>2017-07-16T10:52:50Z</time>
      </trkpt>
      <trkpt lat="45.93435" lon="4.76869">
        <ele>171</ele>
        <time>2017-07-16T10:52:51Z</time>
      </trkpt>
      <trkpt lat="45.93432" lon="4.76862">
        <ele>171</ele>
        <time>2017-07-16T10:52:52Z</time>
      </trkpt>
      <trkpt lat="45.93429" lon="4.76856">
        <ele>171</ele>
        <time>2017-07-16T10:52:53Z</time>
      </trkpt>
      <trkpt lat="45.93427" lon="4.7685">
        <ele>171</ele>
        <time>2017-07-16T10:52:54Z</time>
      </trkpt>
      <trkpt lat="45.93424" lon="4.76844">
        <ele>171</ele>
        <time>2017-07-16T10:52:55Z</time>
      </trkpt>
      <trkpt lat="45.9342" lon="4.76838">
        <ele>172</ele>
        <time>2017-07-16T10:52:56Z</time>
      </trkpt>
      <trkpt lat="45.93417" lon="4.76831">
        <ele>172</ele>
        <time>2017-07-16T10:52:57Z</time>
      </trkpt>
      <trkpt lat="45.93413" lon="4.76825">
        <ele>172</ele>
        <time>2017-07-16T10:52:58Z</time>
      </trkpt>
      <trkpt lat="45.93409" lon="4.76818">
        <ele>172</ele>
        <time>2017-07-16T10:52:59Z</time>
      </trkpt>
      <trkpt lat="45.93405" lon="4.76812">
        <ele>172</ele>
        <time>2017-07-16T10:53:00Z</time>
      </trkpt>
      <trkpt lat="45.93401" lon="4.76807">
        <ele>172</ele>
        <time>2017-07-16T10:53:01Z</time>
      </trkpt>
      <trkpt lat="45.93397" lon="4.76801">
        <ele>172</ele>
        <time>2017-07-16T10:53:02Z</time>
      </trkpt>
      <trkpt lat="45.93393" lon="4.76795">
        <ele>172</ele>
        <time>2017-07-16T10:53:03Z</time>
      </trkpt>
      <trkpt lat="45.93389" lon="4.7679">
        <ele>172</ele>
        <time>2017-07-16T10:53:04Z</time>
      </trkpt>
      <trkpt lat="45.93385" lon="4.76785">
        <ele>172</ele>
        <time>2017-07-16T10:53:05Z</time>
      </trkpt>
      <trkpt lat="45.9338" lon="4.76781">
        <ele>172</ele>
        <time>2017-07-16T10:53:06Z</time>
      </trkpt>
      <trkpt lat="45.93376" lon="4.76777">
        <ele>172</ele>
        <time>2017-07-16T10:53:07Z</time>
      </trkpt>
      <trkpt lat="45.93372" lon="4.76773">
        <ele>172</ele>
        <time>2017-07-16T10:53:08Z</time>
      </trkpt>
      <trkpt lat="45.93368" lon="4.76768">
        <ele>172</ele>
        <time>2017-07-16T10:53:09Z</time>
      </trkpt>
      <trkpt lat="45.93364" lon="4.76764">
        <ele>172</ele>
        <time>2017-07-16T10:53:10Z</time>
      </trkpt>
      <trkpt lat="45.9336" lon="4.76761">
        <ele>172</ele>
        <time>2017-07-16T10:53:11Z</time>
      </trkpt>
      <trkpt lat="45.93356" lon="4.76757">
        <ele>172</ele>
        <time>2017-07-16T10:53:12Z</time>
      </trkpt>
      <trkpt lat="45.93353" lon="4.76753">
        <ele>172</ele>
        <time>2017-07-16T10:53:13Z</time>
      </trkpt>
      <trkpt lat="45.93345" lon="4.76746">
        <ele>172</ele>
        <time>2017-07-16T10:53:15Z</time>
      </trkpt>
      <trkpt lat="45.93341" lon="4.76743">
        <ele>173</ele>
        <time>2017-07-16T10:53:16Z</time>
      </trkpt>
      <trkpt lat="45.93338" lon="4.76739">
        <ele>172</ele>
        <time>2017-07-16T10:53:17Z</time>
      </trkpt>
      <trkpt lat="45.93333" lon="4.76735">
        <ele>172</ele>
        <time>2017-07-16T10:53:18Z</time>
      </trkpt>
      <trkpt lat="45.93329" lon="4.7673">
        <ele>172</ele>
        <time>2017-07-16T10:53:19Z</time>
      </trkpt>
      <trkpt lat="45.93324" lon="4.76725">
        <ele>172</ele>
        <time>2017-07-16T10:53:20Z</time>
      </trkpt>
      <trkpt lat="45.9332" lon="4.7672">
        <ele>172</ele>
        <time>2017-07-16T10:53:21Z</time>
      </trkpt>
      <trkpt lat="45.93315" lon="4.76715">
        <ele>172</ele>
        <time>2017-07-16T10:53:22Z</time>
      </trkpt>
      <trkpt lat="45.9331" lon="4.7671">
        <ele>172</ele>
        <time>2017-07-16T10:53:23Z</time>
      </trkpt>
      <trkpt lat="45.93306" lon="4.76706">
        <ele>172</ele>
        <time>2017-07-16T10:53:24Z</time>
      </trkpt>
      <trkpt lat="45.93301" lon="4.76701">
        <ele>172</ele>
        <time>2017-07-16T10:53:25Z</time>
      </trkpt>
      <trkpt lat="45.93296" lon="4.76696">
        <ele>172</ele>
        <time>2017-07-16T10:53:26Z</time>
      </trkpt>
      <trkpt lat="45.93292" lon="4.76692">
        <ele>172</ele>
        <time>2017-07-16T10:53:27Z</time>
      </trkpt>
      <trkpt lat="45.93288" lon="4.76688">
        <ele>172</ele>
        <time>2017-07-16T10:53:28Z</time>
      </trkpt>
      <trkpt lat="45.93283" lon="4.76684">
        <ele>172</ele>
        <time>2017-07-16T10:53:29Z</time>
      </trkpt>
      <trkpt lat="45.93279" lon="4.7668">
        <ele>172</ele>
        <time>2017-07-16T10:53:30Z</time>
      </trkpt>
      <trkpt lat="45.93274" lon="4.76675">
        <ele>172</ele>
        <time>2017-07-16T10:53:31Z</time>
      </trkpt>
      <trkpt lat="45.9327" lon="4.76671">
        <ele>172</ele>
        <time>2017-07-16T10:53:32Z</time>
      </trkpt>
      <trkpt lat="45.93267" lon="4.76667">
        <ele>172</ele>
        <time>2017-07-16T10:53:33Z</time>
      </trkpt>
      <trkpt lat="45.93262" lon="4.76663">
        <ele>171</ele>
        <time>2017-07-16T10:53:34Z</time>
      </trkpt>
      <trkpt lat="45.93258" lon="4.76659">
        <ele>171</ele>
        <time>2017-07-16T10:53:35Z</time>
      </trkpt>
      <trkpt lat="45.93254" lon="4.76654">
        <ele>171</ele>
        <time>2017-07-16T10:53:36Z</time>
      </trkpt>
      <trkpt lat="45.93249" lon="4.7665">
        <ele>171</ele>
        <time>2017-07-16T10:53:37Z</time>
      </trkpt>
      <trkpt lat="45.93245" lon="4.76646">
        <ele>171</ele>
        <time>2017-07-16T10:53:38Z</time>
      </trkpt>
      <trkpt lat="45.93241" lon="4.76641">
        <ele>171</ele>
        <time>2017-07-16T10:53:39Z</time>
      </trkpt>
      <trkpt lat="45.93236" lon="4.76637">
        <ele>171</ele>
        <time>2017-07-16T10:53:40Z</time>
      </trkpt>
      <trkpt lat="45.93232" lon="4.76633">
        <ele>170</ele>
        <time>2017-07-16T10:53:41Z</time>
      </trkpt>
      <trkpt lat="45.93228" lon="4.76629">
        <ele>170</ele>
        <time>2017-07-16T10:53:42Z</time>
      </trkpt>
      <trkpt lat="45.93224" lon="4.76624">
        <ele>170</ele>
        <time>2017-07-16T10:53:43Z</time>
      </trkpt>
      <trkpt lat="45.9322" lon="4.76619">
        <ele>170</ele>
        <time>2017-07-16T10:53:44Z</time>
      </trkpt>
      <trkpt lat="45.93216" lon="4.76615">
        <ele>170</ele>
        <time>2017-07-16T10:53:45Z</time>
      </trkpt>
      <trkpt lat="45.93212" lon="4.7661">
        <ele>170</ele>
        <time>2017-07-16T10:53:46Z</time>
      </trkpt>
      <trkpt lat="45.93208" lon="4.76606">
        <ele>170</ele>
        <time>2017-07-16T10:53:47Z</time>
      </trkpt>
      <trkpt lat="45.93204" lon="4.76602">
        <ele>170</ele>
        <time>2017-07-16T10:53:48Z</time>
      </trkpt>
      <trkpt lat="45.93199" lon="4.76599">
        <ele>170</ele>
        <time>2017-07-16T10:53:49Z</time>
      </trkpt>
      <trkpt lat="45.93195" lon="4.76595">
        <ele>170</ele>
        <time>2017-07-16T10:53:50Z</time>
      </trkpt>
      <trkpt lat="45.93191" lon="4.76591">
        <ele>170</ele>
        <time>2017-07-16T10:53:51Z</time>
      </trkpt>
      <trkpt lat="45.93186" lon="4.76587">
        <ele>171</ele>
        <time>2017-07-16T10:53:52Z</time>
      </trkpt>
      <trkpt lat="45.93181" lon="4.76582">
        <ele>170</ele>
        <time>2017-07-16T10:53:53Z</time>
      </trkpt>
      <trkpt lat="45.93176" lon="4.76577">
        <ele>170</ele>
        <time>2017-07-16T10:53:54Z</time>
      </trkpt>
      <trkpt lat="45.93172" lon="4.76572">
        <ele>170</ele>
        <time>2017-07-16T10:53:55Z</time>
      </trkpt>
      <trkpt lat="45.93168" lon="4.76567">
        <ele>170</ele>
        <time>2017-07-16T10:53:56Z</time>
      </trkpt>
      <trkpt lat="45.93163" lon="4.76562">
        <ele>170</ele>
        <time>2017-07-16T10:53:57Z</time>
      </trkpt>
      <trkpt lat="45.93158" lon="4.76556">
        <ele>170</ele>
        <time>2017-07-16T10:53:58Z</time>
      </trkpt>
      <trkpt lat="45.93152" lon="4.76552">
        <ele>170</ele>
        <time>2017-07-16T10:53:59Z</time>
      </trkpt>
      <trkpt lat="45.93147" lon="4.76547">
        <ele>170</ele>
        <time>2017-07-16T10:54:00Z</time>
      </trkpt>
      <trkpt lat="45.93141" lon="4.76543">
        <ele>170</ele>
        <time>2017-07-16T10:54:01Z</time>
      </trkpt>
      <trkpt lat="45.93136" lon="4.76538">
        <ele>170</ele>
        <time>2017-07-16T10:54:02Z</time>
      </trkpt>
      <trkpt lat="45.93131" lon="4.76533">
        <ele>170</ele>
        <time>2017-07-16T10:54:03Z</time>
      </trkpt>
      <trkpt lat="45.93127" lon="4.76529">
        <ele>170</ele>
        <time>2017-07-16T10:54:04Z</time>
      </trkpt>
      <trkpt lat="45.93123" lon="4.76524">
        <ele>170</ele>
        <time>2017-07-16T10:54:05Z</time>
      </trkpt>
      <trkpt lat="45.93118" lon="4.7652">
        <ele>170</ele>
        <time>2017-07-16T10:54:06Z</time>
      </trkpt>
      <trkpt lat="45.93114" lon="4.76515">
        <ele>170</ele>
        <time>2017-07-16T10:54:07Z</time>
      </trkpt>
      <trkpt lat="45.93109" lon="4.76511">
        <ele>170</ele>
        <time>2017-07-16T10:54:08Z</time>
      </trkpt>
      <trkpt lat="45.93104" lon="4.76506">
        <ele>170</ele>
        <time>2017-07-16T10:54:09Z</time>
      </trkpt>
      <trkpt lat="45.93099" lon="4.76501">
        <ele>170</ele>
        <time>2017-07-16T10:54:10Z</time>
      </trkpt>
      <trkpt lat="45.93094" lon="4.76496">
        <ele>170</ele>
        <time>2017-07-16T10:54:11Z</time>
      </trkpt>
      <trkpt lat="45.93089" lon="4.76492">
        <ele>170</ele>
        <time>2017-07-16T10:54:12Z</time>
      </trkpt>
      <trkpt lat="45.93084" lon="4.76487">
        <ele>170</ele>
        <time>2017-07-16T10:54:13Z</time>
      </trkpt>
      <trkpt lat="45.93079" lon="4.76482">
        <ele>169</ele>
        <time>2017-07-16T10:54:14Z</time>
      </trkpt>
      <trkpt lat="45.93074" lon="4.76477">
        <ele>169</ele>
        <time>2017-07-16T10:54:15Z</time>
      </trkpt>
      <trkpt lat="45.93069" lon="4.76472">
        <ele>169</ele>
        <time>2017-07-16T10:54:16Z</time>
      </trkpt>
      <trkpt lat="45.93065" lon="4.76468">
        <ele>169</ele>
        <time>2017-07-16T10:54:17Z</time>
      </trkpt>
      <trkpt lat="45.93061" lon="4.76464">
        <ele>169</ele>
        <time>2017-07-16T10:54:18Z</time>
      </trkpt>
      <trkpt lat="45.93058" lon="4.7646">
        <ele>169</ele>
        <time>2017-07-16T10:54:19Z</time>
      </trkpt>
      <trkpt lat="45.93054" lon="4.76456">
        <ele>169</ele>
        <time>2017-07-16T10:54:20Z</time>
      </trkpt>
      <trkpt lat="45.93049" lon="4.76452">
        <ele>169</ele>
        <time>2017-07-16T10:54:21Z</time>
      </trkpt>
      <trkpt lat="45.93044" lon="4.76447">
        <ele>169</ele>
        <time>2017-07-16T10:54:22Z</time>
      </trkpt>
      <trkpt lat="45.93039" lon="4.76442">
        <ele>169</ele>
        <time>2017-07-16T10:54:23Z</time>
      </trkpt>
      <trkpt lat="45.93034" lon="4.76437">
        <ele>169</ele>
        <time>2017-07-16T10:54:24Z</time>
      </trkpt>
      <trkpt lat="45.93029" lon="4.76433">
        <ele>169</ele>
        <time>2017-07-16T10:54:25Z</time>
      </trkpt>
      <trkpt lat="45.93025" lon="4.76429">
        <ele>169</ele>
        <time>2017-07-16T10:54:26Z</time>
      </trkpt>
      <trkpt lat="45.9302" lon="4.76424">
        <ele>169</ele>
        <time>2017-07-16T10:54:27Z</time>
      </trkpt>
      <trkpt lat="45.93016" lon="4.7642">
        <ele>169</ele>
        <time>2017-07-16T10:54:28Z</time>
      </trkpt>
      <trkpt lat="45.93011" lon="4.76415">
        <ele>169</ele>
        <time>2017-07-16T10:54:29Z</time>
      </trkpt>
      <trkpt lat="45.93007" lon="4.7641">
        <ele>169</ele>
        <time>2017-07-16T10:54:30Z</time>
      </trkpt>
      <trkpt lat="45.93003" lon="4.76406">
        <ele>169</ele>
        <time>2017-07-16T10:54:31Z</time>
      </trkpt>
      <trkpt lat="45.92999" lon="4.76402">
        <ele>169</ele>
        <time>2017-07-16T10:54:32Z</time>
      </trkpt>
      <trkpt lat="45.92995" lon="4.76398">
        <ele>169</ele>
        <time>2017-07-16T10:54:33Z</time>
      </trkpt>
      <trkpt lat="45.92991" lon="4.76395">
        <ele>169</ele>
        <time>2017-07-16T10:54:34Z</time>
      </trkpt>
      <trkpt lat="45.92987" lon="4.76391">
        <ele>169</ele>
        <time>2017-07-16T10:54:35Z</time>
      </trkpt>
      <trkpt lat="45.92983" lon="4.76386">
        <ele>169</ele>
        <time>2017-07-16T10:54:36Z</time>
      </trkpt>
      <trkpt lat="45.92979" lon="4.76382">
        <ele>169</ele>
        <time>2017-07-16T10:54:37Z</time>
      </trkpt>
      <trkpt lat="45.92974" lon="4.76378">
        <ele>169</ele>
        <time>2017-07-16T10:54:38Z</time>
      </trkpt>
      <trkpt lat="45.9297" lon="4.76373">
        <ele>169</ele>
        <time>2017-07-16T10:54:39Z</time>
      </trkpt>
      <trkpt lat="45.92965" lon="4.76368">
        <ele>169</ele>
        <time>2017-07-16T10:54:40Z</time>
      </trkpt>
      <trkpt lat="45.9296" lon="4.76363">
        <ele>169</ele>
        <time>2017-07-16T10:54:41Z</time>
      </trkpt>
      <trkpt lat="45.92955" lon="4.76358">
        <ele>169</ele>
        <time>2017-07-16T10:54:42Z</time>
      </trkpt>
      <trkpt lat="45.9295" lon="4.76353">
        <ele>169</ele>
        <time>2017-07-16T10:54:43Z</time>
      </trkpt>
      <trkpt lat="45.92945" lon="4.76349">
        <ele>169</ele>
        <time>2017-07-16T10:54:44Z</time>
      </trkpt>
      <trkpt lat="45.9294" lon="4.76344">
        <ele>169</ele>
        <time>2017-07-16T10:54:45Z</time>
      </trkpt>
      <trkpt lat="45.92935" lon="4.7634">
        <ele>169</ele>
        <time>2017-07-16T10:54:46Z</time>
      </trkpt>
      <trkpt lat="45.92931" lon="4.76336">
        <ele>169</ele>
        <time>2017-07-16T10:54:47Z</time>
      </trkpt>
      <trkpt lat="45.92926" lon="4.76332">
        <ele>169</ele>
        <time>2017-07-16T10:54:48Z</time>
      </trkpt>
      <trkpt lat="45.92922" lon="4.76329">
        <ele>169</ele>
        <time>2017-07-16T10:54:49Z</time>
      </trkpt>
      <trkpt lat="45.92918" lon="4.76325">
        <ele>169</ele>
        <time>2017-07-16T10:54:50Z</time>
      </trkpt>
      <trkpt lat="45.92914" lon="4.76321">
        <ele>169</ele>
        <time>2017-07-16T10:54:51Z</time>
      </trkpt>
      <trkpt lat="45.9291" lon="4.76317">
        <ele>169</ele>
        <time>2017-07-16T10:54:52Z</time>
      </trkpt>
      <trkpt lat="45.92906" lon="4.76313">
        <ele>169</ele>
        <time>2017-07-16T10:54:53Z</time>
      </trkpt>
      <trkpt lat="45.92903" lon="4.76308">
        <ele>169</ele>
        <time>2017-07-16T10:54:54Z</time>
      </trkpt>
      <trkpt lat="45.92899" lon="4.76304">
        <ele>169</ele>
        <time>2017-07-16T10:54:55Z</time>
      </trkpt>
      <trkpt lat="45.92894" lon="4.76299">
        <ele>169</ele>
        <time>2017-07-16T10:54:56Z</time>
      </trkpt>
      <trkpt lat="45.9289" lon="4.76295">
        <ele>169</ele>
        <time>2017-07-16T10:54:57Z</time>
      </trkpt>
      <trkpt lat="45.92885" lon="4.76291">
        <ele>169</ele>
        <time>2017-07-16T10:54:58Z</time>
      </trkpt>
      <trkpt lat="45.9288" lon="4.76286">
        <ele>169</ele>
        <time>2017-07-16T10:54:59Z</time>
      </trkpt>
      <trkpt lat="45.92875" lon="4.76282">
        <ele>169</ele>
        <time>2017-07-16T10:55:00Z</time>
      </trkpt>
      <trkpt lat="45.92871" lon="4.76278">
        <ele>169</ele>
        <time>2017-07-16T10:55:01Z</time>
      </trkpt>
      <trkpt lat="45.92866" lon="4.76274">
        <ele>169</ele>
        <time>2017-07-16T10:55:02Z</time>
      </trkpt>
      <trkpt lat="45.92862" lon="4.7627">
        <ele>169</ele>
        <time>2017-07-16T10:55:03Z</time>
      </trkpt>
      <trkpt lat="45.92858" lon="4.76265">
        <ele>169</ele>
        <time>2017-07-16T10:55:04Z</time>
      </trkpt>
      <trkpt lat="45.92854" lon="4.76261">
        <ele>169</ele>
        <time>2017-07-16T10:55:05Z</time>
      </trkpt>
      <trkpt lat="45.92851" lon="4.76258">
        <ele>169</ele>
        <time>2017-07-16T10:55:06Z</time>
      </trkpt>
      <trkpt lat="45.92843" lon="4.76251">
        <ele>169</ele>
        <time>2017-07-16T10:55:08Z</time>
      </trkpt>
      <trkpt lat="45.9284" lon="4.76248">
        <ele>169</ele>
        <time>2017-07-16T10:55:09Z</time>
      </trkpt>
      <trkpt lat="45.92833" lon="4.7624">
        <ele>169</ele>
        <time>2017-07-16T10:55:11Z</time>
      </trkpt>
      <trkpt lat="45.92829" lon="4.76236">
        <ele>168</ele>
        <time>2017-07-16T10:55:12Z</time>
      </trkpt>
      <trkpt lat="45.92825" lon="4.76232">
        <ele>168</ele>
        <time>2017-07-16T10:55:13Z</time>
      </trkpt>
      <trkpt lat="45.92822" lon="4.76228">
        <ele>168</ele>
        <time>2017-07-16T10:55:14Z</time>
      </trkpt>
      <trkpt lat="45.92818" lon="4.76223">
        <ele>168</ele>
        <time>2017-07-16T10:55:15Z</time>
      </trkpt>
      <trkpt lat="45.92814" lon="4.76219">
        <ele>168</ele>
        <time>2017-07-16T10:55:16Z</time>
      </trkpt>
      <trkpt lat="45.9281" lon="4.76214">
        <ele>168</ele>
        <time>2017-07-16T10:55:17Z</time>
      </trkpt>
      <trkpt lat="45.92806" lon="4.7621">
        <ele>168</ele>
        <time>2017-07-16T10:55:18Z</time>
      </trkpt>
      <trkpt lat="45.92801" lon="4.76205">
        <ele>168</ele>
        <time>2017-07-16T10:55:19Z</time>
      </trkpt>
      <trkpt lat="45.92797" lon="4.762">
        <ele>168</ele>
        <time>2017-07-16T10:55:20Z</time>
      </trkpt>
      <trkpt lat="45.92792" lon="4.76196">
        <ele>168</ele>
        <time>2017-07-16T10:55:21Z</time>
      </trkpt>
      <trkpt lat="45.92787" lon="4.76191">
        <ele>168</ele>
        <time>2017-07-16T10:55:22Z</time>
      </trkpt>
      <trkpt lat="45.92782" lon="4.76187">
        <ele>168</ele>
        <time>2017-07-16T10:55:23Z</time>
      </trkpt>
      <trkpt lat="45.92778" lon="4.76183">
        <ele>167</ele>
        <time>2017-07-16T10:55:24Z</time>
      </trkpt>
      <trkpt lat="45.92774" lon="4.76179">
        <ele>167</ele>
        <time>2017-07-16T10:55:25Z</time>
      </trkpt>
      <trkpt lat="45.9277" lon="4.76176">
        <ele>167</ele>
        <time>2017-07-16T10:55:26Z</time>
      </trkpt>
      <trkpt lat="45.92766" lon="4.76172">
        <ele>167</ele>
        <time>2017-07-16T10:55:27Z</time>
      </trkpt>
      <trkpt lat="45.92762" lon="4.76168">
        <ele>167</ele>
        <time>2017-07-16T10:55:28Z</time>
      </trkpt>
      <trkpt lat="45.92758" lon="4.76164">
        <ele>167</ele>
        <time>2017-07-16T10:55:29Z</time>
      </trkpt>
      <trkpt lat="45.92753" lon="4.76161">
        <ele>167</ele>
        <time>2017-07-16T10:55:30Z</time>
      </trkpt>
      <trkpt lat="45.92748" lon="4.76157">
        <ele>167</ele>
        <time>2017-07-16T10:55:31Z</time>
      </trkpt>
      <trkpt lat="45.92743" lon="4.76153">
        <ele>168</ele>
        <time>2017-07-16T10:55:32Z</time>
      </trkpt>
      <trkpt lat="45.92737" lon="4.76149">
        <ele>168</ele>
        <time>2017-07-16T10:55:33Z</time>
      </trkpt>
      <trkpt lat="45.92732" lon="4.76144">
        <ele>168</ele>
        <time>2017-07-16T10:55:34Z</time>
      </trkpt>
      <trkpt lat="45.92727" lon="4.7614">
        <ele>168</ele>
        <time>2017-07-16T10:55:35Z</time>
      </trkpt>
      <trkpt lat="45.92722" lon="4.76136">
        <ele>168</ele>
        <time>2017-07-16T10:55:36Z</time>
      </trkpt>
      <trkpt lat="45.92716" lon="4.76133">
        <ele>168</ele>
        <time>2017-07-16T10:55:37Z</time>
      </trkpt>
      <trkpt lat="45.92711" lon="4.76129">
        <ele>168</ele>
        <time>2017-07-16T10:55:38Z</time>
      </trkpt>
      <trkpt lat="45.92705" lon="4.76125">
        <ele>169</ele>
        <time>2017-07-16T10:55:39Z</time>
      </trkpt>
      <trkpt lat="45.92701" lon="4.76122">
        <ele>169</ele>
        <time>2017-07-16T10:55:40Z</time>
      </trkpt>
      <trkpt lat="45.92696" lon="4.76118">
        <ele>169</ele>
        <time>2017-07-16T10:55:41Z</time>
      </trkpt>
      <trkpt lat="45.92691" lon="4.76115">
        <ele>169</ele>
        <time>2017-07-16T10:55:42Z</time>
      </trkpt>
      <trkpt lat="45.92687" lon="4.76111">
        <ele>169</ele>
        <time>2017-07-16T10:55:43Z</time>
      </trkpt>
      <trkpt lat="45.92682" lon="4.76107">
        <ele>169</ele>
        <time>2017-07-16T10:55:44Z</time>
      </trkpt>
      <trkpt lat="45.92678" lon="4.76103">
        <ele>169</ele>
        <time>2017-07-16T10:55:45Z</time>
      </trkpt>
      <trkpt lat="45.92674" lon="4.76099">
        <ele>169</ele>
        <time>2017-07-16T10:55:46Z</time>
      </trkpt>
      <trkpt lat="45.92669" lon="4.76096">
        <ele>169</ele>
        <time>2017-07-16T10:55:47Z</time>
      </trkpt>
      <trkpt lat="45.92664" lon="4.76092">
        <ele>170</ele>
        <time>2017-07-16T10:55:48Z</time>
      </trkpt>
      <trkpt lat="45.9266" lon="4.76088">
        <ele>170</ele>
        <time>2017-07-16T10:55:49Z</time>
      </trkpt>
      <trkpt lat="45.92655" lon="4.76085">
        <ele>170</ele>
        <time>2017-07-16T10:55:50Z</time>
      </trkpt>
      <trkpt lat="45.9265" lon="4.76081">
        <ele>170</ele>
        <time>2017-07-16T10:55:51Z</time>
      </trkpt>
      <trkpt lat="45.92645" lon="4.76077">
        <ele>170</ele>
        <time>2017-07-16T10:55:52Z</time>
      </trkpt>
      <trkpt lat="45.92641" lon="4.76074">
        <ele>170</ele>
        <time>2017-07-16T10:55:53Z</time>
      </trkpt>
      <trkpt lat="45.92636" lon="4.76071">
        <ele>170</ele>
        <time>2017-07-16T10:55:54Z</time>
      </trkpt>
      <trkpt lat="45.92631" lon="4.76067">
        <ele>170</ele>
        <time>2017-07-16T10:55:55Z</time>
      </trkpt>
      <trkpt lat="45.92626" lon="4.76064">
        <ele>170</ele>
        <time>2017-07-16T10:55:56Z</time>
      </trkpt>
      <trkpt lat="45.92621" lon="4.7606">
        <ele>171</ele>
        <time>2017-07-16T10:55:57Z</time>
      </trkpt>
      <trkpt lat="45.92617" lon="4.76057">
        <ele>171</ele>
        <time>2017-07-16T10:55:58Z</time>
      </trkpt>
      <trkpt lat="45.92612" lon="4.76054">
        <ele>171</ele>
        <time>2017-07-16T10:55:59Z</time>
      </trkpt>
      <trkpt lat="45.92607" lon="4.7605">
        <ele>171</ele>
        <time>2017-07-16T10:56:00Z</time>
      </trkpt>
      <trkpt lat="45.92603" lon="4.76047">
        <ele>171</ele>
        <time>2017-07-16T10:56:01Z</time>
      </trkpt>
      <trkpt lat="45.92599" lon="4.76044">
        <ele>171</ele>
        <time>2017-07-16T10:56:02Z</time>
      </trkpt>
      <trkpt lat="45.92594" lon="4.7604">
        <ele>171</ele>
        <time>2017-07-16T10:56:03Z</time>
      </trkpt>
      <trkpt lat="45.9259" lon="4.76037">
        <ele>171</ele>
        <time>2017-07-16T10:56:04Z</time>
      </trkpt>
      <trkpt lat="45.92586" lon="4.76034">
        <ele>171</ele>
        <time>2017-07-16T10:56:05Z</time>
      </trkpt>
      <trkpt lat="45.92581" lon="4.76032">
        <ele>172</ele>
        <time>2017-07-16T10:56:06Z</time>
      </trkpt>
      <trkpt lat="45.92574" lon="4.76027">
        <ele>172</ele>
        <time>2017-07-16T10:56:08Z</time>
      </trkpt>
      <trkpt lat="45.92571" lon="4.76024">
        <ele>172</ele>
        <time>2017-07-16T10:56:09Z</time>
      </trkpt>
      <trkpt lat="45.92564" lon="4.76019">
        <ele>172</ele>
        <time>2017-07-16T10:56:11Z</time>
      </trkpt>
      <trkpt lat="45.9256" lon="4.76016">
        <ele>172</ele>
        <time>2017-07-16T10:56:12Z</time>
      </trkpt>
      <trkpt lat="45.92556" lon="4.76013">
        <ele>172</ele>
        <time>2017-07-16T10:56:13Z</time>
      </trkpt>
      <trkpt lat="45.92552" lon="4.7601">
        <ele>172</ele>
        <time>2017-07-16T10:56:14Z</time>
      </trkpt>
      <trkpt lat="45.92544" lon="4.76005">
        <ele>172</ele>
        <time>2017-07-16T10:56:16Z</time>
      </trkpt>
      <trkpt lat="45.9254" lon="4.76002">
        <ele>172</ele>
        <time>2017-07-16T10:56:17Z</time>
      </trkpt>
      <trkpt lat="45.92533" lon="4.75998">
        <ele>172</ele>
        <time>2017-07-16T10:56:19Z</time>
      </trkpt>
      <trkpt lat="45.9253" lon="4.75995">
        <ele>172</ele>
        <time>2017-07-16T10:56:20Z</time>
      </trkpt>
      <trkpt lat="45.92523" lon="4.7599">
        <ele>172</ele>
        <time>2017-07-16T10:56:22Z</time>
      </trkpt>
      <trkpt lat="45.9252" lon="4.75988">
        <ele>172</ele>
        <time>2017-07-16T10:56:23Z</time>
      </trkpt>
      <trkpt lat="45.92513" lon="4.75983">
        <ele>172</ele>
        <time>2017-07-16T10:56:25Z</time>
      </trkpt>
      <trkpt lat="45.92509" lon="4.7598">
        <ele>172</ele>
        <time>2017-07-16T10:56:26Z</time>
      </trkpt>
      <trkpt lat="45.92501" lon="4.75975">
        <ele>172</ele>
        <time>2017-07-16T10:56:28Z</time>
      </trkpt>
      <trkpt lat="45.92497" lon="4.75972">
        <ele>172</ele>
        <time>2017-07-16T10:56:29Z</time>
      </trkpt>
      <trkpt lat="45.92489" lon="4.75967">
        <ele>172</ele>
        <time>2017-07-16T10:56:31Z</time>
      </trkpt>
      <trkpt lat="45.92485" lon="4.75965">
        <ele>172</ele>
        <time>2017-07-16T10:56:32Z</time>
      </trkpt>
      <trkpt lat="45.92477" lon="4.7596">
        <ele>172</ele>
        <time>2017-07-16T10:56:34Z</time>
      </trkpt>
      <trkpt lat="45.92473" lon="4.75957">
        <ele>172</ele>
        <time>2017-07-16T10:56:35Z</time>
      </trkpt>
      <trkpt lat="45.92469" lon="4.75953">
        <ele>172</ele>
        <time>2017-07-16T10:56:36Z</time>
      </trkpt>
      <trkpt lat="45.92465" lon="4.7595">
        <ele>172</ele>
        <time>2017-07-16T10:56:37Z</time>
      </trkpt>
      <trkpt lat="45.9246" lon="4.75947">
        <ele>172</ele>
        <time>2017-07-16T10:56:38Z</time>
      </trkpt>
      <trkpt lat="45.92455" lon="4.75944">
        <ele>172</ele>
        <time>2017-07-16T10:56:39Z</time>
      </trkpt>
      <trkpt lat="45.92451" lon="4.75941">
        <ele>172</ele>
        <time>2017-07-16T10:56:40Z</time>
      </trkpt>
      <trkpt lat="45.92446" lon="4.75938">
        <ele>172</ele>
        <time>2017-07-16T10:56:41Z</time>
      </trkpt>
      <trkpt lat="45.9244" lon="4.75935">
        <ele>172</ele>
        <time>2017-07-16T10:56:42Z</time>
      </trkpt>
      <trkpt lat="45.92435" lon="4.75931">
        <ele>172</ele>
        <time>2017-07-16T10:56:43Z</time>
      </trkpt>
      <trkpt lat="45.92429" lon="4.75928">
        <ele>172</ele>
        <time>2017-07-16T10:56:44Z</time>
      </trkpt>
      <trkpt lat="45.92424" lon="4.75924">
        <ele>172</ele>
        <time>2017-07-16T10:56:45Z</time>
      </trkpt>
      <trkpt lat="45.92418" lon="4.75919">
        <ele>172</ele>
        <time>2017-07-16T10:56:46Z</time>
      </trkpt>
      <trkpt lat="45.92412" lon="4.75915">
        <ele>172</ele>
        <time>2017-07-16T10:56:47Z</time>
      </trkpt>
      <trkpt lat="45.92407" lon="4.75911">
        <ele>172</ele>
        <time>2017-07-16T10:56:48Z</time>
      </trkpt>
      <trkpt lat="45.92401" lon="4.75907">
        <ele>173</ele>
        <time>2017-07-16T10:56:49Z</time>
      </trkpt>
      <trkpt lat="45.92396" lon="4.75903">
        <ele>173</ele>
        <time>2017-07-16T10:56:50Z</time>
      </trkpt>
      <trkpt lat="45.9239" lon="4.75899">
        <ele>173</ele>
        <time>2017-07-16T10:56:51Z</time>
      </trkpt>
      <trkpt lat="45.92385" lon="4.75895">
        <ele>173</ele>
        <time>2017-07-16T10:56:52Z</time>
      </trkpt>
      <trkpt lat="45.92379" lon="4.75891">
        <ele>173</ele>
        <time>2017-07-16T10:56:53Z</time>
      </trkpt>
      <trkpt lat="45.92373" lon="4.75887">
        <ele>173</ele>
        <time>2017-07-16T10:56:54Z</time>
      </trkpt>
      <trkpt lat="45.92368" lon="4.75884">
        <ele>173</ele>
        <time>2017-07-16T10:56:55Z</time>
      </trkpt>
      <trkpt lat="45.92362" lon="4.7588">
        <ele>173</ele>
        <time>2017-07-16T10:56:56Z</time>
      </trkpt>
      <trkpt lat="45.92357" lon="4.75876">
        <ele>173</ele>
        <time>2017-07-16T10:56:57Z</time>
      </trkpt>
      <trkpt lat="45.92352" lon="4.75873">
        <ele>173</ele>
        <time>2017-07-16T10:56:58Z</time>
      </trkpt>
      <trkpt lat="45.92346" lon="4.7587">
        <ele>173</ele>
        <time>2017-07-16T10:56:59Z</time>
      </trkpt>
      <trkpt lat="45.92341" lon="4.75867">
        <ele>173</ele>
        <time>2017-07-16T10:57:00Z</time>
      </trkpt>
      <trkpt lat="45.92336" lon="4.75864">
        <ele>173</ele>
        <time>2017-07-16T10:57:01Z</time>
      </trkpt>
      <trkpt lat="45.92332" lon="4.75861">
        <ele>173</ele>
        <time>2017-07-16T10:57:02Z</time>
      </trkpt>
      <trkpt lat="45.92328" lon="4.75858">
        <ele>173</ele>
        <time>2017-07-16T10:57:03Z</time>
      </trkpt>
      <trkpt lat="45.9232" lon="4.75854">
        <ele>174</ele>
        <time>2017-07-16T10:57:05Z</time>
      </trkpt>
      <trkpt lat="45.92315" lon="4.75851">
        <ele>173</ele>
        <time>2017-07-16T10:57:06Z</time>
      </trkpt>
      <trkpt lat="45.92311" lon="4.75848">
        <ele>173</ele>
        <time>2017-07-16T10:57:07Z</time>
      </trkpt>
      <trkpt lat="45.92307" lon="4.75845">
        <ele>173</ele>
        <time>2017-07-16T10:57:08Z</time>
      </trkpt>
      <trkpt lat="45.92302" lon="4.75841">
        <ele>173</ele>
        <time>2017-07-16T10:57:09Z</time>
      </trkpt>
      <trkpt lat="45.92296" lon="4.75837">
        <ele>173</ele>
        <time>2017-07-16T10:57:10Z</time>
      </trkpt>
      <trkpt lat="45.92291" lon="4.75834">
        <ele>173</ele>
        <time>2017-07-16T10:57:11Z</time>
      </trkpt>
      <trkpt lat="45.92286" lon="4.75831">
        <ele>174</ele>
        <time>2017-07-16T10:57:12Z</time>
      </trkpt>
      <trkpt lat="45.92281" lon="4.75828">
        <ele>174</ele>
        <time>2017-07-16T10:57:13Z</time>
      </trkpt>
      <trkpt lat="45.92276" lon="4.75824">
        <ele>174</ele>
        <time>2017-07-16T10:57:14Z</time>
      </trkpt>
      <trkpt lat="45.92272" lon="4.7582">
        <ele>174</ele>
        <time>2017-07-16T10:57:15Z</time>
      </trkpt>
      <trkpt lat="45.92269" lon="4.75816">
        <ele>174</ele>
        <time>2017-07-16T10:57:16Z</time>
      </trkpt>
      <trkpt lat="45.92266" lon="4.75811">
        <ele>174</ele>
        <time>2017-07-16T10:57:17Z</time>
      </trkpt>
      <trkpt lat="45.92263" lon="4.75805">
        <ele>174</ele>
        <time>2017-07-16T10:57:18Z</time>
      </trkpt>
      <trkpt lat="45.92261" lon="4.75799">
        <ele>174</ele>
        <time>2017-07-16T10:57:19Z</time>
      </trkpt>
      <trkpt lat="45.92259" lon="4.75792">
        <ele>174</ele>
        <time>2017-07-16T10:57:20Z</time>
      </trkpt>
      <trkpt lat="45.92256" lon="4.75785">
        <ele>174</ele>
        <time>2017-07-16T10:57:21Z</time>
      </trkpt>
      <trkpt lat="45.92255" lon="4.75778">
        <ele>174</ele>
        <time>2017-07-16T10:57:22Z</time>
      </trkpt>
      <trkpt lat="45.92254" lon="4.75771">
        <ele>174</ele>
        <time>2017-07-16T10:57:23Z</time>
      </trkpt>
      <trkpt lat="45.92252" lon="4.75763">
        <ele>174</ele>
        <time>2017-07-16T10:57:24Z</time>
      </trkpt>
      <trkpt lat="45.92251" lon="4.75756">
        <ele>174</ele>
        <time>2017-07-16T10:57:25Z</time>
      </trkpt>
      <trkpt lat="45.9225" lon="4.75749">
        <ele>174</ele>
        <time>2017-07-16T10:57:26Z</time>
      </trkpt>
      <trkpt lat="45.92249" lon="4.75742">
        <ele>174</ele>
        <time>2017-07-16T10:57:27Z</time>
      </trkpt>
      <trkpt lat="45.92247" lon="4.75735">
        <ele>174</ele>
        <time>2017-07-16T10:57:28Z</time>
      </trkpt>
      <trkpt lat="45.92245" lon="4.75729">
        <ele>174</ele>
        <time>2017-07-16T10:57:29Z</time>
      </trkpt>
      <trkpt lat="45.92243" lon="4.75722">
        <ele>174</ele>
        <time>2017-07-16T10:57:30Z</time>
      </trkpt>
      <trkpt lat="45.9224" lon="4.75716">
        <ele>174</ele>
        <time>2017-07-16T10:57:31Z</time>
      </trkpt>
      <trkpt lat="45.92237" lon="4.7571">
        <ele>174</ele>
        <time>2017-07-16T10:57:32Z</time>
      </trkpt>
      <trkpt lat="45.92234" lon="4.75705">
        <ele>174</ele>
        <time>2017-07-16T10:57:33Z</time>
      </trkpt>
      <trkpt lat="45.9223" lon="4.757">
        <ele>174</ele>
        <time>2017-07-16T10:57:34Z</time>
      </trkpt>
      <trkpt lat="45.92225" lon="4.75695">
        <ele>174</ele>
        <time>2017-07-16T10:57:35Z</time>
      </trkpt>
      <trkpt lat="45.92221" lon="4.75691">
        <ele>174</ele>
        <time>2017-07-16T10:57:36Z</time>
      </trkpt>
      <trkpt lat="45.92217" lon="4.75687">
        <ele>174</ele>
        <time>2017-07-16T10:57:37Z</time>
      </trkpt>
      <trkpt lat="45.92213" lon="4.75683">
        <ele>174</ele>
        <time>2017-07-16T10:57:38Z</time>
      </trkpt>
      <trkpt lat="45.92208" lon="4.75679">
        <ele>174</ele>
        <time>2017-07-16T10:57:39Z</time>
      </trkpt>
      <trkpt lat="45.92204" lon="4.75675">
        <ele>174</ele>
        <time>2017-07-16T10:57:40Z</time>
      </trkpt>
      <trkpt lat="45.922" lon="4.7567">
        <ele>174</ele>
        <time>2017-07-16T10:57:41Z</time>
      </trkpt>
      <trkpt lat="45.92195" lon="4.75666">
        <ele>174</ele>
        <time>2017-07-16T10:57:42Z</time>
      </trkpt>
      <trkpt lat="45.92191" lon="4.75662">
        <ele>174</ele>
        <time>2017-07-16T10:57:43Z</time>
      </trkpt>
      <trkpt lat="45.92186" lon="4.75657">
        <ele>174</ele>
        <time>2017-07-16T10:57:44Z</time>
      </trkpt>
      <trkpt lat="45.9218" lon="4.75652">
        <ele>174</ele>
        <time>2017-07-16T10:57:45Z</time>
      </trkpt>
      <trkpt lat="45.92175" lon="4.75648">
        <ele>174</ele>
        <time>2017-07-16T10:57:46Z</time>
      </trkpt>
      <trkpt lat="45.9217" lon="4.75643">
        <ele>174</ele>
        <time>2017-07-16T10:57:47Z</time>
      </trkpt>
      <trkpt lat="45.92166" lon="4.75638">
        <ele>174</ele>
        <time>2017-07-16T10:57:48Z</time>
      </trkpt>
      <trkpt lat="45.92161" lon="4.75633">
        <ele>174</ele>
        <time>2017-07-16T10:57:49Z</time>
      </trkpt>
      <trkpt lat="45.92156" lon="4.75629">
        <ele>174</ele>
        <time>2017-07-16T10:57:50Z</time>
      </trkpt>
      <trkpt lat="45.92151" lon="4.75624">
        <ele>174</ele>
        <time>2017-07-16T10:57:51Z</time>
      </trkpt>
      <trkpt lat="45.92147" lon="4.75618">
        <ele>174</ele>
        <time>2017-07-16T10:57:52Z</time>
      </trkpt>
      <trkpt lat="45.92143" lon="4.75614">
        <ele>174</ele>
        <time>2017-07-16T10:57:53Z</time>
      </trkpt>
      <trkpt lat="45.92138" lon="4.75609">
        <ele>174</ele>
        <time>2017-07-16T10:57:54Z</time>
      </trkpt>
      <trkpt lat="45.92134" lon="4.75604">
        <ele>174</ele>
        <time>2017-07-16T10:57:55Z</time>
      </trkpt>
      <trkpt lat="45.92129" lon="4.75599">
        <ele>174</ele>
        <time>2017-07-16T10:57:56Z</time>
      </trkpt>
      <trkpt lat="45.92125" lon="4.75594">
        <ele>174</ele>
        <time>2017-07-16T10:57:57Z</time>
      </trkpt>
      <trkpt lat="45.92121" lon="4.75589">
        <ele>174</ele>
        <time>2017-07-16T10:57:58Z</time>
      </trkpt>
      <trkpt lat="45.92115" lon="4.7558">
        <ele>174</ele>
        <time>2017-07-16T10:58:00Z</time>
      </trkpt>
      <trkpt lat="45.92113" lon="4.75577">
        <ele>174</ele>
        <time>2017-07-16T10:58:01Z</time>
      </trkpt>
      <trkpt lat="45.92113" lon="4.75566">
        <ele>174</ele>
        <time>2017-07-16T10:58:04Z</time>
      </trkpt>
      <trkpt lat="45.92115" lon="4.75561">
        <ele>174</ele>
        <time>2017-07-16T10:58:05Z</time>
      </trkpt>
      <trkpt lat="45.92118" lon="4.75555">
        <ele>174</ele>
        <time>2017-07-16T10:58:06Z</time>
      </trkpt>
      <trkpt lat="45.92121" lon="4.75549">
        <ele>174</ele>
        <time>2017-07-16T10:58:07Z</time>
      </trkpt>
      <trkpt lat="45.92125" lon="4.75544">
        <ele>174</ele>
        <time>2017-07-16T10:58:08Z</time>
      </trkpt>
      <trkpt lat="45.92128" lon="4.75538">
        <ele>174</ele>
        <time>2017-07-16T10:58:09Z</time>
      </trkpt>
      <trkpt lat="45.92132" lon="4.75532">
        <ele>174</ele>
        <time>2017-07-16T10:58:10Z</time>
      </trkpt>
      <trkpt lat="45.92135" lon="4.75525">
        <ele>174</ele>
        <time>2017-07-16T10:58:11Z</time>
      </trkpt>
      <trkpt lat="45.92139" lon="4.75519">
        <ele>174</ele>
        <time>2017-07-16T10:58:12Z</time>
      </trkpt>
      <trkpt lat="45.92142" lon="4.75513">
        <ele>174</ele>
        <time>2017-07-16T10:58:13Z</time>
      </trkpt>
      <trkpt lat="45.92145" lon="4.75506">
        <ele>175</ele>
        <time>2017-07-16T10:58:14Z</time>
      </trkpt>
      <trkpt lat="45.92147" lon="4.755">
        <ele>175</ele>
        <time>2017-07-16T10:58:15Z</time>
      </trkpt>
      <trkpt lat="45.9215" lon="4.75493">
        <ele>175</ele>
        <time>2017-07-16T10:58:16Z</time>
      </trkpt>
      <trkpt lat="45.92153" lon="4.75487">
        <ele>176</ele>
        <time>2017-07-16T10:58:17Z</time>
      </trkpt>
      <trkpt lat="45.92155" lon="4.7548">
        <ele>176</ele>
        <time>2017-07-16T10:58:18Z</time>
      </trkpt>
      <trkpt lat="45.92158" lon="4.75474">
        <ele>176</ele>
        <time>2017-07-16T10:58:19Z</time>
      </trkpt>
      <trkpt lat="45.92161" lon="4.75467">
        <ele>176</ele>
        <time>2017-07-16T10:58:20Z</time>
      </trkpt>
      <trkpt lat="45.92164" lon="4.75459">
        <ele>176</ele>
        <time>2017-07-16T10:58:21Z</time>
      </trkpt>
      <trkpt lat="45.92166" lon="4.75452">
        <ele>176</ele>
        <time>2017-07-16T10:58:22Z</time>
      </trkpt>
      <trkpt lat="45.92169" lon="4.75444">
        <ele>176</ele>
        <time>2017-07-16T10:58:23Z</time>
      </trkpt>
      <trkpt lat="45.92171" lon="4.75437">
        <ele>177</ele>
        <time>2017-07-16T10:58:24Z</time>
      </trkpt>
      <trkpt lat="45.92173" lon="4.7543">
        <ele>177</ele>
        <time>2017-07-16T10:58:25Z</time>
      </trkpt>
      <trkpt lat="45.92176" lon="4.75423">
        <ele>177</ele>
        <time>2017-07-16T10:58:26Z</time>
      </trkpt>
      <trkpt lat="45.92178" lon="4.75417">
        <ele>177</ele>
        <time>2017-07-16T10:58:27Z</time>
      </trkpt>
      <trkpt lat="45.9218" lon="4.75411">
        <ele>177</ele>
        <time>2017-07-16T10:58:28Z</time>
      </trkpt>
      <trkpt lat="45.92183" lon="4.75405">
        <ele>177</ele>
        <time>2017-07-16T10:58:29Z</time>
      </trkpt>
      <trkpt lat="45.92186" lon="4.75399">
        <ele>177</ele>
        <time>2017-07-16T10:58:30Z</time>
      </trkpt>
      <trkpt lat="45.92188" lon="4.75393">
        <ele>177</ele>
        <time>2017-07-16T10:58:31Z</time>
      </trkpt>
      <trkpt lat="45.92191" lon="4.75387">
        <ele>177</ele>
        <time>2017-07-16T10:58:32Z</time>
      </trkpt>
      <trkpt lat="45.92193" lon="4.75381">
        <ele>177</ele>
        <time>2017-07-16T10:58:33Z</time>
      </trkpt>
      <trkpt lat="45.92196" lon="4.75375">
        <ele>177</ele>
        <time>2017-07-16T10:58:34Z</time>
      </trkpt>
      <trkpt lat="45.92198" lon="4.75369">
        <ele>177</ele>
        <time>2017-07-16T10:58:35Z</time>
      </trkpt>
      <trkpt lat="45.922" lon="4.75362">
        <ele>177</ele>
        <time>2017-07-16T10:58:36Z</time>
      </trkpt>
      <trkpt lat="45.92202" lon="4.75355">
        <ele>177</ele>
        <time>2017-07-16T10:58:37Z</time>
      </trkpt>
      <trkpt lat="45.92203" lon="4.75349">
        <ele>177</ele>
        <time>2017-07-16T10:58:38Z</time>
      </trkpt>
      <trkpt lat="45.92205" lon="4.75342">
        <ele>177</ele>
        <time>2017-07-16T10:58:39Z</time>
      </trkpt>
      <trkpt lat="45.92207" lon="4.75336">
        <ele>177</ele>
        <time>2017-07-16T10:58:40Z</time>
      </trkpt>
      <trkpt lat="45.92208" lon="4.75329">
        <ele>176</ele>
        <time>2017-07-16T10:58:41Z</time>
      </trkpt>
      <trkpt lat="45.9221" lon="4.75322">
        <ele>176</ele>
        <time>2017-07-16T10:58:42Z</time>
      </trkpt>
      <trkpt lat="45.92211" lon="4.75315">
        <ele>176</ele>
        <time>2017-07-16T10:58:43Z</time>
      </trkpt>
      <trkpt lat="45.92211" lon="4.75308">
        <ele>176</ele>
        <time>2017-07-16T10:58:44Z</time>
      </trkpt>
      <trkpt lat="45.92212" lon="4.75301">
        <ele>176</ele>
        <time>2017-07-16T10:58:45Z</time>
      </trkpt>
      <trkpt lat="45.92212" lon="4.75294">
        <ele>176</ele>
        <time>2017-07-16T10:58:46Z</time>
      </trkpt>
      <trkpt lat="45.92212" lon="4.75286">
        <ele>176</ele>
        <time>2017-07-16T10:58:47Z</time>
      </trkpt>
      <trkpt lat="45.92212" lon="4.75278">
        <ele>176</ele>
        <time>2017-07-16T10:58:48Z</time>
      </trkpt>
      <trkpt lat="45.92212" lon="4.75271">
        <ele>176</ele>
        <time>2017-07-16T10:58:49Z</time>
      </trkpt>
      <trkpt lat="45.92212" lon="4.75262">
        <ele>176</ele>
        <time>2017-07-16T10:58:50Z</time>
      </trkpt>
      <trkpt lat="45.92213" lon="4.75254">
        <ele>175</ele>
        <time>2017-07-16T10:58:51Z</time>
      </trkpt>
      <trkpt lat="45.92213" lon="4.75246">
        <ele>175</ele>
        <time>2017-07-16T10:58:52Z</time>
      </trkpt>
      <trkpt lat="45.92214" lon="4.75239">
        <ele>175</ele>
        <time>2017-07-16T10:58:53Z</time>
      </trkpt>
      <trkpt lat="45.92215" lon="4.75231">
        <ele>175</ele>
        <time>2017-07-16T10:58:54Z</time>
      </trkpt>
      <trkpt lat="45.92215" lon="4.75223">
        <ele>175</ele>
        <time>2017-07-16T10:58:55Z</time>
      </trkpt>
      <trkpt lat="45.92216" lon="4.75215">
        <ele>175</ele>
        <time>2017-07-16T10:58:56Z</time>
      </trkpt>
      <trkpt lat="45.92217" lon="4.75207">
        <ele>175</ele>
        <time>2017-07-16T10:58:57Z</time>
      </trkpt>
      <trkpt lat="45.92219" lon="4.752">
        <ele>175</ele>
        <time>2017-07-16T10:58:58Z</time>
      </trkpt>
      <trkpt lat="45.92221" lon="4.75192">
        <ele>175</ele>
        <time>2017-07-16T10:58:59Z</time>
      </trkpt>
      <trkpt lat="45.92223" lon="4.75184">
        <ele>175</ele>
        <time>2017-07-16T10:59:00Z</time>
      </trkpt>
      <trkpt lat="45.92226" lon="4.75177">
        <ele>175</ele>
        <time>2017-07-16T10:59:01Z</time>
      </trkpt>
      <trkpt lat="45.92228" lon="4.7517">
        <ele>175</ele>
        <time>2017-07-16T10:59:02Z</time>
      </trkpt>
      <trkpt lat="45.92231" lon="4.75163">
        <ele>174</ele>
        <time>2017-07-16T10:59:03Z</time>
      </trkpt>
      <trkpt lat="45.92234" lon="4.75156">
        <ele>174</ele>
        <time>2017-07-16T10:59:04Z</time>
      </trkpt>
      <trkpt lat="45.92237" lon="4.7515">
        <ele>174</ele>
        <time>2017-07-16T10:59:05Z</time>
      </trkpt>
      <trkpt lat="45.9224" lon="4.75144">
        <ele>174</ele>
        <time>2017-07-16T10:59:06Z</time>
      </trkpt>
      <trkpt lat="45.92244" lon="4.75138">
        <ele>174</ele>
        <time>2017-07-16T10:59:07Z</time>
      </trkpt>
      <trkpt lat="45.92248" lon="4.75133">
        <ele>174</ele>
        <time>2017-07-16T10:59:08Z</time>
      </trkpt>
      <trkpt lat="45.92252" lon="4.75128">
        <ele>174</ele>
        <time>2017-07-16T10:59:09Z</time>
      </trkpt>
      <trkpt lat="45.92257" lon="4.75122">
        <ele>174</ele>
        <time>2017-07-16T10:59:10Z</time>
      </trkpt>
      <trkpt lat="45.92261" lon="4.75117">
        <ele>174</ele>
        <time>2017-07-16T10:59:11Z</time>
      </trkpt>
      <trkpt lat="45.92265" lon="4.75112">
        <ele>174</ele>
        <time>2017-07-16T10:59:12Z</time>
      </trkpt>
      <trkpt lat="45.92269" lon="4.75108">
        <ele>174</ele>
        <time>2017-07-16T10:59:13Z</time>
      </trkpt>
      <trkpt lat="45.92273" lon="4.75103">
        <ele>173</ele>
        <time>2017-07-16T10:59:14Z</time>
      </trkpt>
      <trkpt lat="45.92277" lon="4.75098">
        <ele>173</ele>
        <time>2017-07-16T10:59:15Z</time>
      </trkpt>
      <trkpt lat="45.92281" lon="4.75093">
        <ele>173</ele>
        <time>2017-07-16T10:59:16Z</time>
      </trkpt>
      <trkpt lat="45.92286" lon="4.75088">
        <ele>173</ele>
        <time>2017-07-16T10:59:17Z</time>
      </trkpt>
      <trkpt lat="45.9229" lon="4.75083">
        <ele>172</ele>
        <time>2017-07-16T10:59:18Z</time>
      </trkpt>
      <trkpt lat="45.92295" lon="4.75078">
        <ele>172</ele>
        <time>2017-07-16T10:59:19Z</time>
      </trkpt>
      <trkpt lat="45.92299" lon="4.75073">
        <ele>172</ele>
        <time>2017-07-16T10:59:20Z</time>
      </trkpt>
      <trkpt lat="45.92303" lon="4.75068">
        <ele>172</ele>
        <time>2017-07-16T10:59:21Z</time>
      </trkpt>
      <trkpt lat="45.92306" lon="4.75062">
        <ele>172</ele>
        <time>2017-07-16T10:59:22Z</time>
      </trkpt>
      <trkpt lat="45.9231" lon="4.75057">
        <ele>172</ele>
        <time>2017-07-16T10:59:23Z</time>
      </trkpt>
      <trkpt lat="45.92314" lon="4.75051">
        <ele>172</ele>
        <time>2017-07-16T10:59:24Z</time>
      </trkpt>
      <trkpt lat="45.92317" lon="4.75046">
        <ele>172</ele>
        <time>2017-07-16T10:59:25Z</time>
      </trkpt>
      <trkpt lat="45.92321" lon="4.7504">
        <ele>171</ele>
        <time>2017-07-16T10:59:26Z</time>
      </trkpt>
      <trkpt lat="45.92324" lon="4.75035">
        <ele>171</ele>
        <time>2017-07-16T10:59:27Z</time>
      </trkpt>
      <trkpt lat="45.92327" lon="4.75029">
        <ele>171</ele>
        <time>2017-07-16T10:59:28Z</time>
      </trkpt>
      <trkpt lat="45.92331" lon="4.75023">
        <ele>171</ele>
        <time>2017-07-16T10:59:29Z</time>
      </trkpt>
      <trkpt lat="45.92334" lon="4.75016">
        <ele>170</ele>
        <time>2017-07-16T10:59:30Z</time>
      </trkpt>
      <trkpt lat="45.92337" lon="4.75009">
        <ele>170</ele>
        <time>2017-07-16T10:59:31Z</time>
      </trkpt>
      <trkpt lat="45.9234" lon="4.75002">
        <ele>170</ele>
        <time>2017-07-16T10:59:32Z</time>
      </trkpt>
      <trkpt lat="45.92343" lon="4.74995">
        <ele>170</ele>
        <time>2017-07-16T10:59:33Z</time>
      </trkpt>
      <trkpt lat="45.92346" lon="4.74989">
        <ele>170</ele>
        <time>2017-07-16T10:59:34Z</time>
      </trkpt>
      <trkpt lat="45.92349" lon="4.74982">
        <ele>170</ele>
        <time>2017-07-16T10:59:35Z</time>
      </trkpt>
      <trkpt lat="45.92351" lon="4.74975">
        <ele>170</ele>
        <time>2017-07-16T10:59:36Z</time>
      </trkpt>
      <trkpt lat="45.92354" lon="4.74969">
        <ele>170</ele>
        <time>2017-07-16T10:59:37Z</time>
      </trkpt>
      <trkpt lat="45.92356" lon="4.74962">
        <ele>170</ele>
        <time>2017-07-16T10:59:38Z</time>
      </trkpt>
      <trkpt lat="45.92359" lon="4.74956">
        <ele>170</ele>
        <time>2017-07-16T10:59:39Z</time>
      </trkpt>
      <trkpt lat="45.92362" lon="4.74949">
        <ele>170</ele>
        <time>2017-07-16T10:59:40Z</time>
      </trkpt>
      <trkpt lat="45.92365" lon="4.74942">
        <ele>170</ele>
        <time>2017-07-16T10:59:41Z</time>
      </trkpt>
      <trkpt lat="45.92368" lon="4.74935">
        <ele>170</ele>
        <time>2017-07-16T10:59:42Z</time>
      </trkpt>
      <trkpt lat="45.92371" lon="4.74927">
        <ele>170</ele>
        <time>2017-07-16T10:59:43Z</time>
      </trkpt>
      <trkpt lat="45.92374" lon="4.7492">
        <ele>170</ele>
        <time>2017-07-16T10:59:44Z</time>
      </trkpt>
      <trkpt lat="45.92377" lon="4.74912">
        <ele>171</ele>
        <time>2017-07-16T10:59:45Z</time>
      </trkpt>
      <trkpt lat="45.9238" lon="4.74906">
        <ele>171</ele>
        <time>2017-07-16T10:59:46Z</time>
      </trkpt>
      <trkpt lat="45.92382" lon="4.74899">
        <ele>171</ele>
        <time>2017-07-16T10:59:47Z</time>
      </trkpt>
      <trkpt lat="45.92385" lon="4.74892">
        <ele>171</ele>
        <time>2017-07-16T10:59:48Z</time>
      </trkpt>
      <trkpt lat="45.92388" lon="4.74886">
        <ele>171</ele>
        <time>2017-07-16T10:59:49Z</time>
      </trkpt>
      <trkpt lat="45.92391" lon="4.74879">
        <ele>171</ele>
        <time>2017-07-16T10:59:50Z</time>
      </trkpt>
      <trkpt lat="45.92394" lon="4.74872">
        <ele>171</ele>
        <time>2017-07-16T10:59:51Z</time>
      </trkpt>
      <trkpt lat="45.92396" lon="4.74865">
        <ele>171</ele>
        <time>2017-07-16T10:59:52Z</time>
      </trkpt>
      <trkpt lat="45.92399" lon="4.74858">
        <ele>171</ele>
        <time>2017-07-16T10:59:53Z</time>
      </trkpt>
      <trkpt lat="45.92401" lon="4.74851">
        <ele>171</ele>
        <time>2017-07-16T10:59:54Z</time>
      </trkpt>
      <trkpt lat="45.92403" lon="4.74844">
        <ele>171</ele>
        <time>2017-07-16T10:59:55Z</time>
      </trkpt>
      <trkpt lat="45.92405" lon="4.74836">
        <ele>171</ele>
        <time>2017-07-16T10:59:56Z</time>
      </trkpt>
      <trkpt lat="45.92407" lon="4.74829">
        <ele>171</ele>
        <time>2017-07-16T10:59:57Z</time>
      </trkpt>
      <trkpt lat="45.92408" lon="4.74822">
        <ele>171</ele>
        <time>2017-07-16T10:59:58Z</time>
      </trkpt>
      <trkpt lat="45.9241" lon="4.74815">
        <ele>171</ele>
        <time>2017-07-16T10:59:59Z</time>
      </trkpt>
      <trkpt lat="45.92411" lon="4.74809">
        <ele>171</ele>
        <time>2017-07-16T11:00:00Z</time>
      </trkpt>
      <trkpt lat="45.92413" lon="4.74802">
        <ele>171</ele>
        <time>2017-07-16T11:00:01Z</time>
      </trkpt>
      <trkpt lat="45.92414" lon="4.74796">
        <ele>171</ele>
        <time>2017-07-16T11:00:02Z</time>
      </trkpt>
      <trkpt lat="45.92415" lon="4.74789">
        <ele>171</ele>
        <time>2017-07-16T11:00:03Z</time>
      </trkpt>
      <trkpt lat="45.92417" lon="4.74782">
        <ele>171</ele>
        <time>2017-07-16T11:00:04Z</time>
      </trkpt>
      <trkpt lat="45.92419" lon="4.74775">
        <ele>171</ele>
        <time>2017-07-16T11:00:05Z</time>
      </trkpt>
      <trkpt lat="45.9242" lon="4.74768">
        <ele>171</ele>
        <time>2017-07-16T11:00:06Z</time>
      </trkpt>
      <trkpt lat="45.92422" lon="4.74761">
        <ele>171</ele>
        <time>2017-07-16T11:00:07Z</time>
      </trkpt>
      <trkpt lat="45.92424" lon="4.74755">
        <ele>172</ele>
        <time>2017-07-16T11:00:08Z</time>
      </trkpt>
      <trkpt lat="45.92426" lon="4.74747">
        <ele>172</ele>
        <time>2017-07-16T11:00:09Z</time>
      </trkpt>
      <trkpt lat="45.92428" lon="4.74741">
        <ele>171</ele>
        <time>2017-07-16T11:00:10Z</time>
      </trkpt>
      <trkpt lat="45.9243" lon="4.74733">
        <ele>171</ele>
        <time>2017-07-16T11:00:11Z</time>
      </trkpt>
      <trkpt lat="45.92432" lon="4.74727">
        <ele>171</ele>
        <time>2017-07-16T11:00:12Z</time>
      </trkpt>
      <trkpt lat="45.92435" lon="4.74721">
        <ele>171</ele>
        <time>2017-07-16T11:00:13Z</time>
      </trkpt>
      <trkpt lat="45.92437" lon="4.74716">
        <ele>171</ele>
        <time>2017-07-16T11:00:14Z</time>
      </trkpt>
      <trkpt lat="45.92439" lon="4.7471">
        <ele>171</ele>
        <time>2017-07-16T11:00:15Z</time>
      </trkpt>
      <trkpt lat="45.92442" lon="4.74704">
        <ele>171</ele>
        <time>2017-07-16T11:00:16Z</time>
      </trkpt>
      <trkpt lat="45.92445" lon="4.74697">
        <ele>171</ele>
        <time>2017-07-16T11:00:17Z</time>
      </trkpt>
      <trkpt lat="45.92447" lon="4.74691">
        <ele>171</ele>
        <time>2017-07-16T11:00:18Z</time>
      </trkpt>
      <trkpt lat="45.92451" lon="4.74684">
        <ele>171</ele>
        <time>2017-07-16T11:00:19Z</time>
      </trkpt>
      <trkpt lat="45.92454" lon="4.74678">
        <ele>171</ele>
        <time>2017-07-16T11:00:20Z</time>
      </trkpt>
      <trkpt lat="45.92457" lon="4.74671">
        <ele>171</ele>
        <time>2017-07-16T11:00:21Z</time>
      </trkpt>
      <trkpt lat="45.92461" lon="4.74665">
        <ele>171</ele>
        <time>2017-07-16T11:00:22Z</time>
      </trkpt>
      <trkpt lat="45.92464" lon="4.74659">
        <ele>171</ele>
        <time>2017-07-16T11:00:23Z</time>
      </trkpt>
      <trkpt lat="45.92467" lon="4.74654">
        <ele>171</ele>
        <time>2017-07-16T11:00:24Z</time>
      </trkpt>
      <trkpt lat="45.9247" lon="4.74648">
        <ele>171</ele>
        <time>2017-07-16T11:00:25Z</time>
      </trkpt>
      <trkpt lat="45.92476" lon="4.7464">
        <ele>171</ele>
        <time>2017-07-16T11:00:27Z</time>
      </trkpt>
      <trkpt lat="45.92479" lon="4.74635">
        <ele>171</ele>
        <time>2017-07-16T11:00:28Z</time>
      </trkpt>
      <trkpt lat="45.92482" lon="4.7463">
        <ele>171</ele>
        <time>2017-07-16T11:00:29Z</time>
      </trkpt>
      <trkpt lat="45.92488" lon="4.74625">
        <ele>171</ele>
        <time>2017-07-16T11:00:30Z</time>
      </trkpt>
      <trkpt lat="45.92492" lon="4.7462">
        <ele>171</ele>
        <time>2017-07-16T11:00:31Z</time>
      </trkpt>
      <trkpt lat="45.92497" lon="4.74615">
        <ele>171</ele>
        <time>2017-07-16T11:00:32Z</time>
      </trkpt>
      <trkpt lat="45.92501" lon="4.74609">
        <ele>171</ele>
        <time>2017-07-16T11:00:33Z</time>
      </trkpt>
      <trkpt lat="45.92505" lon="4.74604">
        <ele>171</ele>
        <time>2017-07-16T11:00:34Z</time>
      </trkpt>
      <trkpt lat="45.92509" lon="4.74598">
        <ele>171</ele>
        <time>2017-07-16T11:00:35Z</time>
      </trkpt>
      <trkpt lat="45.92513" lon="4.74593">
        <ele>171</ele>
        <time>2017-07-16T11:00:36Z</time>
      </trkpt>
      <trkpt lat="45.92517" lon="4.74587">
        <ele>171</ele>
        <time>2017-07-16T11:00:37Z</time>
      </trkpt>
      <trkpt lat="45.92521" lon="4.74582">
        <ele>171</ele>
        <time>2017-07-16T11:00:38Z</time>
      </trkpt>
      <trkpt lat="45.92524" lon="4.74578">
        <ele>171</ele>
        <time>2017-07-16T11:00:39Z</time>
      </trkpt>
      <trkpt lat="45.92528" lon="4.74573">
        <ele>171</ele>
        <time>2017-07-16T11:00:40Z</time>
      </trkpt>
      <trkpt lat="45.92532" lon="4.74569">
        <ele>171</ele>
        <time>2017-07-16T11:00:41Z</time>
      </trkpt>
      <trkpt lat="45.92535" lon="4.74564">
        <ele>171</ele>
        <time>2017-07-16T11:00:42Z</time>
      </trkpt>
      <trkpt lat="45.92538" lon="4.7456">
        <ele>171</ele>
        <time>2017-07-16T11:00:43Z</time>
      </trkpt>
      <trkpt lat="45.92542" lon="4.74555">
        <ele>170</ele>
        <time>2017-07-16T11:00:44Z</time>
      </trkpt>
      <trkpt lat="45.92545" lon="4.74549">
        <ele>170</ele>
        <time>2017-07-16T11:00:45Z</time>
      </trkpt>
      <trkpt lat="45.92549" lon="4.74544">
        <ele>170</ele>
        <time>2017-07-16T11:00:46Z</time>
      </trkpt>
      <trkpt lat="45.92552" lon="4.74538">
        <ele>170</ele>
        <time>2017-07-16T11:00:47Z</time>
      </trkpt>
      <trkpt lat="45.92555" lon="4.74532">
        <ele>170</ele>
        <time>2017-07-16T11:00:48Z</time>
      </trkpt>
      <trkpt lat="45.92559" lon="4.74525">
        <ele>170</ele>
        <time>2017-07-16T11:00:49Z</time>
      </trkpt>
      <trkpt lat="45.92562" lon="4.74519">
        <ele>170</ele>
        <time>2017-07-16T11:00:50Z</time>
      </trkpt>
      <trkpt lat="45.92566" lon="4.74513">
        <ele>170</ele>
        <time>2017-07-16T11:00:51Z</time>
      </trkpt>
      <trkpt lat="45.92569" lon="4.74506">
        <ele>170</ele>
        <time>2017-07-16T11:00:52Z</time>
      </trkpt>
      <trkpt lat="45.92574" lon="4.74496">
        <ele>170</ele>
        <time>2017-07-16T11:00:54Z</time>
      </trkpt>
      <trkpt lat="45.92577" lon="4.74491">
        <ele>170</ele>
        <time>2017-07-16T11:00:55Z</time>
      </trkpt>
      <trkpt lat="45.92582" lon="4.74482">
        <ele>170</ele>
        <time>2017-07-16T11:00:57Z</time>
      </trkpt>
      <trkpt lat="45.92585" lon="4.74477">
        <ele>170</ele>
        <time>2017-07-16T11:00:58Z</time>
      </trkpt>
      <trkpt lat="45.92588" lon="4.74472">
        <ele>170</ele>
        <time>2017-07-16T11:00:59Z</time>
      </trkpt>
      <trkpt lat="45.92591" lon="4.74466">
        <ele>170</ele>
        <time>2017-07-16T11:01:00Z</time>
      </trkpt>
      <trkpt lat="45.92594" lon="4.7446">
        <ele>170</ele>
        <time>2017-07-16T11:01:01Z</time>
      </trkpt>
      <trkpt lat="45.92597" lon="4.74455">
        <ele>170</ele>
        <time>2017-07-16T11:01:02Z</time>
      </trkpt>
      <trkpt lat="45.926" lon="4.74449">
        <ele>170</ele>
        <time>2017-07-16T11:01:03Z</time>
      </trkpt>
      <trkpt lat="45.92603" lon="4.74444">
        <ele>170</ele>
        <time>2017-07-16T11:01:04Z</time>
      </trkpt>
      <trkpt lat="45.92606" lon="4.74438">
        <ele>170</ele>
        <time>2017-07-16T11:01:05Z</time>
      </trkpt>
      <trkpt lat="45.92609" lon="4.74432">
        <ele>170</ele>
        <time>2017-07-16T11:01:06Z</time>
      </trkpt>
      <trkpt lat="45.92612" lon="4.74426">
        <ele>170</ele>
        <time>2017-07-16T11:01:07Z</time>
      </trkpt>
      <trkpt lat="45.92615" lon="4.74421">
        <ele>170</ele>
        <time>2017-07-16T11:01:08Z</time>
      </trkpt>
      <trkpt lat="45.92618" lon="4.74416">
        <ele>170</ele>
        <time>2017-07-16T11:01:09Z</time>
      </trkpt>
      <trkpt lat="45.9262" lon="4.7441">
        <ele>170</ele>
        <time>2017-07-16T11:01:10Z</time>
      </trkpt>
      <trkpt lat="45.92623" lon="4.74404">
        <ele>170</ele>
        <time>2017-07-16T11:01:11Z</time>
      </trkpt>
      <trkpt lat="45.92626" lon="4.74398">
        <ele>170</ele>
        <time>2017-07-16T11:01:12Z</time>
      </trkpt>
      <trkpt lat="45.9263" lon="4.74393">
        <ele>170</ele>
        <time>2017-07-16T11:01:13Z</time>
      </trkpt>
      <trkpt lat="45.92633" lon="4.74387">
        <ele>170</ele>
        <time>2017-07-16T11:01:14Z</time>
      </trkpt>
      <trkpt lat="45.92636" lon="4.74382">
        <ele>170</ele>
        <time>2017-07-16T11:01:15Z</time>
      </trkpt>
      <trkpt lat="45.92639" lon="4.74376">
        <ele>170</ele>
        <time>2017-07-16T11:01:16Z</time>
      </trkpt>
      <trkpt lat="45.92641" lon="4.74371">
        <ele>171</ele>
        <time>2017-07-16T11:01:17Z</time>
      </trkpt>
      <trkpt lat="45.92644" lon="4.74365">
        <ele>171</ele>
        <time>2017-07-16T11:01:18Z</time>
      </trkpt>
      <trkpt lat="45.92647" lon="4.7436">
        <ele>171</ele>
        <time>2017-07-16T11:01:19Z</time>
      </trkpt>
      <trkpt lat="45.9265" lon="4.74354">
        <ele>171</ele>
        <time>2017-07-16T11:01:20Z</time>
      </trkpt>
      <trkpt lat="45.92653" lon="4.74349">
        <ele>171</ele>
        <time>2017-07-16T11:01:21Z</time>
      </trkpt>
      <trkpt lat="45.92656" lon="4.74343">
        <ele>171</ele>
        <time>2017-07-16T11:01:22Z</time>
      </trkpt>
      <trkpt lat="45.92661" lon="4.74333">
        <ele>171</ele>
        <time>2017-07-16T11:01:24Z</time>
      </trkpt>
      <trkpt lat="45.92664" lon="4.74327">
        <ele>171</ele>
        <time>2017-07-16T11:01:25Z</time>
      </trkpt>
      <trkpt lat="45.92667" lon="4.74322">
        <ele>171</ele>
        <time>2017-07-16T11:01:26Z</time>
      </trkpt>
      <trkpt lat="45.9267" lon="4.74316">
        <ele>171</ele>
        <time>2017-07-16T11:01:27Z</time>
      </trkpt>
      <trkpt lat="45.92673" lon="4.74311">
        <ele>171</ele>
        <time>2017-07-16T11:01:28Z</time>
      </trkpt>
      <trkpt lat="45.92676" lon="4.74306">
        <ele>171</ele>
        <time>2017-07-16T11:01:29Z</time>
      </trkpt>
      <trkpt lat="45.92679" lon="4.743">
        <ele>171</ele>
        <time>2017-07-16T11:01:30Z</time>
      </trkpt>
      <trkpt lat="45.92682" lon="4.74294">
        <ele>171</ele>
        <time>2017-07-16T11:01:31Z</time>
      </trkpt>
      <trkpt lat="45.92685" lon="4.74289">
        <ele>171</ele>
        <time>2017-07-16T11:01:32Z</time>
      </trkpt>
      <trkpt lat="45.92688" lon="4.74284">
        <ele>171</ele>
        <time>2017-07-16T11:01:33Z</time>
      </trkpt>
      <trkpt lat="45.92691" lon="4.74278">
        <ele>171</ele>
        <time>2017-07-16T11:01:34Z</time>
      </trkpt>
      <trkpt lat="45.92694" lon="4.74273">
        <ele>171</ele>
        <time>2017-07-16T11:01:35Z</time>
      </trkpt>
      <trkpt lat="45.927" lon="4.74263">
        <ele>171</ele>
        <time>2017-07-16T11:01:37Z</time>
      </trkpt>
      <trkpt lat="45.92703" lon="4.74258">
        <ele>171</ele>
        <time>2017-07-16T11:01:38Z</time>
      </trkpt>
      <trkpt lat="45.92709" lon="4.74249">
        <ele>171</ele>
        <time>2017-07-16T11:01:40Z</time>
      </trkpt>
      <trkpt lat="45.92712" lon="4.74245">
        <ele>171</ele>
        <time>2017-07-16T11:01:41Z</time>
      </trkpt>
      <trkpt lat="45.92715" lon="4.7424">
        <ele>171</ele>
        <time>2017-07-16T11:01:42Z</time>
      </trkpt>
      <trkpt lat="45.92718" lon="4.74235">
        <ele>171</ele>
        <time>2017-07-16T11:01:43Z</time>
      </trkpt>
      <trkpt lat="45.92724" lon="4.74227">
        <ele>171</ele>
        <time>2017-07-16T11:01:45Z</time>
      </trkpt>
      <trkpt lat="45.92728" lon="4.74223">
        <ele>171</ele>
        <time>2017-07-16T11:01:46Z</time>
      </trkpt>
      <trkpt lat="45.92731" lon="4.74218">
        <ele>171</ele>
        <time>2017-07-16T11:01:47Z</time>
      </trkpt>
      <trkpt lat="45.92734" lon="4.74213">
        <ele>171</ele>
        <time>2017-07-16T11:01:48Z</time>
      </trkpt>
      <trkpt lat="45.92738" lon="4.74208">
        <ele>171</ele>
        <time>2017-07-16T11:01:49Z</time>
      </trkpt>
      <trkpt lat="45.92741" lon="4.74203">
        <ele>171</ele>
        <time>2017-07-16T11:01:50Z</time>
      </trkpt>
      <trkpt lat="45.92748" lon="4.74194">
        <ele>171</ele>
        <time>2017-07-16T11:01:52Z</time>
      </trkpt>
      <trkpt lat="45.92751" lon="4.7419">
        <ele>172</ele>
        <time>2017-07-16T11:01:53Z</time>
      </trkpt>
      <trkpt lat="45.92755" lon="4.74186">
        <ele>172</ele>
        <time>2017-07-16T11:01:54Z</time>
      </trkpt>
      <trkpt lat="45.92759" lon="4.74181">
        <ele>172</ele>
        <time>2017-07-16T11:01:55Z</time>
      </trkpt>
      <trkpt lat="45.92762" lon="4.74177">
        <ele>172</ele>
        <time>2017-07-16T11:01:56Z</time>
      </trkpt>
      <trkpt lat="45.92766" lon="4.74172">
        <ele>172</ele>
        <time>2017-07-16T11:01:57Z</time>
      </trkpt>
      <trkpt lat="45.9277" lon="4.74168">
        <ele>172</ele>
        <time>2017-07-16T11:01:58Z</time>
      </trkpt>
      <trkpt lat="45.92774" lon="4.74163">
        <ele>172</ele>
        <time>2017-07-16T11:01:59Z</time>
      </trkpt>
      <trkpt lat="45.92778" lon="4.7416">
        <ele>172</ele>
        <time>2017-07-16T11:02:00Z</time>
      </trkpt>
      <trkpt lat="45.92782" lon="4.74156">
        <ele>172</ele>
        <time>2017-07-16T11:02:01Z</time>
      </trkpt>
      <trkpt lat="45.92786" lon="4.74152">
        <ele>172</ele>
        <time>2017-07-16T11:02:02Z</time>
      </trkpt>
      <trkpt lat="45.92789" lon="4.74148">
        <ele>172</ele>
        <time>2017-07-16T11:02:03Z</time>
      </trkpt>
      <trkpt lat="45.92794" lon="4.74145">
        <ele>172</ele>
        <time>2017-07-16T11:02:04Z</time>
      </trkpt>
      <trkpt lat="45.92798" lon="4.74141">
        <ele>172</ele>
        <time>2017-07-16T11:02:05Z</time>
      </trkpt>
      <trkpt lat="45.92803" lon="4.74136">
        <ele>172</ele>
        <time>2017-07-16T11:02:06Z</time>
      </trkpt>
      <trkpt lat="45.92807" lon="4.74131">
        <ele>172</ele>
        <time>2017-07-16T11:02:07Z</time>
      </trkpt>
      <trkpt lat="45.92812" lon="4.74126">
        <ele>172</ele>
        <time>2017-07-16T11:02:08Z</time>
      </trkpt>
      <trkpt lat="45.92816" lon="4.74121">
        <ele>172</ele>
        <time>2017-07-16T11:02:09Z</time>
      </trkpt>
      <trkpt lat="45.9282" lon="4.74116">
        <ele>172</ele>
        <time>2017-07-16T11:02:10Z</time>
      </trkpt>
      <trkpt lat="45.92824" lon="4.74112">
        <ele>171</ele>
        <time>2017-07-16T11:02:11Z</time>
      </trkpt>
      <trkpt lat="45.92831" lon="4.74104">
        <ele>171</ele>
        <time>2017-07-16T11:02:13Z</time>
      </trkpt>
      <trkpt lat="45.92834" lon="4.74101">
        <ele>171</ele>
        <time>2017-07-16T11:02:14Z</time>
      </trkpt>
      <trkpt lat="45.9284" lon="4.74093">
        <ele>171</ele>
        <time>2017-07-16T11:02:16Z</time>
      </trkpt>
      <trkpt lat="45.92844" lon="4.7409">
        <ele>171</ele>
        <time>2017-07-16T11:02:17Z</time>
      </trkpt>
      <trkpt lat="45.92847" lon="4.74086">
        <ele>171</ele>
        <time>2017-07-16T11:02:18Z</time>
      </trkpt>
      <trkpt lat="45.9285" lon="4.74081">
        <ele>172</ele>
        <time>2017-07-16T11:02:19Z</time>
      </trkpt>
      <trkpt lat="45.92854" lon="4.74077">
        <ele>172</ele>
        <time>2017-07-16T11:02:20Z</time>
      </trkpt>
      <trkpt lat="45.92858" lon="4.74072">
        <ele>172</ele>
        <time>2017-07-16T11:02:21Z</time>
      </trkpt>
      <trkpt lat="45.92862" lon="4.74068">
        <ele>172</ele>
        <time>2017-07-16T11:02:22Z</time>
      </trkpt>
      <trkpt lat="45.92865" lon="4.74063">
        <ele>172</ele>
        <time>2017-07-16T11:02:23Z</time>
      </trkpt>
      <trkpt lat="45.92869" lon="4.74059">
        <ele>172</ele>
        <time>2017-07-16T11:02:24Z</time>
      </trkpt>
      <trkpt lat="45.92873" lon="4.74055">
        <ele>172</ele>
        <time>2017-07-16T11:02:25Z</time>
      </trkpt>
      <trkpt lat="45.92877" lon="4.7405">
        <ele>172</ele>
        <time>2017-07-16T11:02:26Z</time>
      </trkpt>
      <trkpt lat="45.92881" lon="4.74048">
        <ele>172</ele>
        <time>2017-07-16T11:02:27Z</time>
      </trkpt>
      <trkpt lat="45.92889" lon="4.74047">
        <ele>172</ele>
        <time>2017-07-16T11:02:29Z</time>
      </trkpt>
      <trkpt lat="45.92893" lon="4.74048">
        <ele>172</ele>
        <time>2017-07-16T11:02:30Z</time>
      </trkpt>
      <trkpt lat="45.92902" lon="4.74047">
        <ele>172</ele>
        <time>2017-07-16T11:02:32Z</time>
      </trkpt>
      <trkpt lat="45.92906" lon="4.74046">
        <ele>172</ele>
        <time>2017-07-16T11:02:33Z</time>
      </trkpt>
      <trkpt lat="45.9291" lon="4.74043">
        <ele>172</ele>
        <time>2017-07-16T11:02:34Z</time>
      </trkpt>
      <trkpt lat="45.92914" lon="4.74039">
        <ele>172</ele>
        <time>2017-07-16T11:02:35Z</time>
      </trkpt>
      <trkpt lat="45.92919" lon="4.7403">
        <ele>172</ele>
        <time>2017-07-16T11:02:37Z</time>
      </trkpt>
      <trkpt lat="45.9292" lon="4.74025">
        <ele>172</ele>
        <time>2017-07-16T11:02:38Z</time>
      </trkpt>
      <trkpt lat="45.92921" lon="4.74014">
        <ele>172</ele>
        <time>2017-07-16T11:02:40Z</time>
      </trkpt>
      <trkpt lat="45.9292" lon="4.74008">
        <ele>172</ele>
        <time>2017-07-16T11:02:41Z</time>
      </trkpt>
      <trkpt lat="45.92916" lon="4.73999">
        <ele>172</ele>
        <time>2017-07-16T11:02:43Z</time>
      </trkpt>
      <trkpt lat="45.92913" lon="4.73994">
        <ele>172</ele>
        <time>2017-07-16T11:02:44Z</time>
      </trkpt>
      <trkpt lat="45.92909" lon="4.7399">
        <ele>172</ele>
        <time>2017-07-16T11:02:45Z</time>
      </trkpt>
      <trkpt lat="45.92904" lon="4.73987">
        <ele>172</ele>
        <time>2017-07-16T11:02:46Z</time>
      </trkpt>
      <trkpt lat="45.929" lon="4.73984">
        <ele>172</ele>
        <time>2017-07-16T11:02:47Z</time>
      </trkpt>
      <trkpt lat="45.92895" lon="4.7398">
        <ele>172</ele>
        <time>2017-07-16T11:02:48Z</time>
      </trkpt>
      <trkpt lat="45.92891" lon="4.73974">
        <ele>172</ele>
        <time>2017-07-16T11:02:49Z</time>
      </trkpt>
      <trkpt lat="45.92889" lon="4.73967">
        <ele>172</ele>
        <time>2017-07-16T11:02:50Z</time>
      </trkpt>
      <trkpt lat="45.92887" lon="4.73959">
        <ele>172</ele>
        <time>2017-07-16T11:02:51Z</time>
      </trkpt>
      <trkpt lat="45.92885" lon="4.73951">
        <ele>172</ele>
        <time>2017-07-16T11:02:52Z</time>
      </trkpt>
      <trkpt lat="45.92884" lon="4.73943">
        <ele>172</ele>
        <time>2017-07-16T11:02:53Z</time>
      </trkpt>
      <trkpt lat="45.92884" lon="4.73935">
        <ele>172</ele>
        <time>2017-07-16T11:02:54Z</time>
      </trkpt>
      <trkpt lat="45.92883" lon="4.73927">
        <ele>172</ele>
        <time>2017-07-16T11:02:55Z</time>
      </trkpt>
      <trkpt lat="45.92883" lon="4.73919">
        <ele>172</ele>
        <time>2017-07-16T11:02:56Z</time>
      </trkpt>
      <trkpt lat="45.92882" lon="4.7391">
        <ele>173</ele>
        <time>2017-07-16T11:02:57Z</time>
      </trkpt>
      <trkpt lat="45.92881" lon="4.73902">
        <ele>173</ele>
        <time>2017-07-16T11:02:58Z</time>
      </trkpt>
      <trkpt lat="45.9288" lon="4.73893">
        <ele>173</ele>
        <time>2017-07-16T11:02:59Z</time>
      </trkpt>
      <trkpt lat="45.92878" lon="4.73885">
        <ele>173</ele>
        <time>2017-07-16T11:03:00Z</time>
      </trkpt>
      <trkpt lat="45.92876" lon="4.73877">
        <ele>173</ele>
        <time>2017-07-16T11:03:01Z</time>
      </trkpt>
      <trkpt lat="45.92874" lon="4.73869">
        <ele>173</ele>
        <time>2017-07-16T11:03:02Z</time>
      </trkpt>
      <trkpt lat="45.92871" lon="4.73861">
        <ele>173</ele>
        <time>2017-07-16T11:03:03Z</time>
      </trkpt>
      <trkpt lat="45.9287" lon="4.73854">
        <ele>173</ele>
        <time>2017-07-16T11:03:04Z</time>
      </trkpt>
      <trkpt lat="45.92868" lon="4.73846">
        <ele>173</ele>
        <time>2017-07-16T11:03:05Z</time>
      </trkpt>
      <trkpt lat="45.92866" lon="4.73839">
        <ele>173</ele>
        <time>2017-07-16T11:03:06Z</time>
      </trkpt>
      <trkpt lat="45.92865" lon="4.73831">
        <ele>173</ele>
        <time>2017-07-16T11:03:07Z</time>
      </trkpt>
      <trkpt lat="45.92863" lon="4.73824">
        <ele>173</ele>
        <time>2017-07-16T11:03:08Z</time>
      </trkpt>
      <trkpt lat="45.9286" lon="4.73818">
        <ele>173</ele>
        <time>2017-07-16T11:03:09Z</time>
      </trkpt>
      <trkpt lat="45.92858" lon="4.73811">
        <ele>173</ele>
        <time>2017-07-16T11:03:10Z</time>
      </trkpt>
      <trkpt lat="45.92855" lon="4.73805">
        <ele>173</ele>
        <time>2017-07-16T11:03:11Z</time>
      </trkpt>
      <trkpt lat="45.92852" lon="4.738">
        <ele>173</ele>
        <time>2017-07-16T11:03:12Z</time>
      </trkpt>
      <trkpt lat="45.92849" lon="4.73795">
        <ele>173</ele>
        <time>2017-07-16T11:03:13Z</time>
      </trkpt>
      <trkpt lat="45.92845" lon="4.7379">
        <ele>173</ele>
        <time>2017-07-16T11:03:14Z</time>
      </trkpt>
      <trkpt lat="45.92841" lon="4.73786">
        <ele>173</ele>
        <time>2017-07-16T11:03:15Z</time>
      </trkpt>
      <trkpt lat="45.92836" lon="4.73782">
        <ele>173</ele>
        <time>2017-07-16T11:03:16Z</time>
      </trkpt>
      <trkpt lat="45.92832" lon="4.73778">
        <ele>173</ele>
        <time>2017-07-16T11:03:17Z</time>
      </trkpt>
      <trkpt lat="45.92827" lon="4.73774">
        <ele>173</ele>
        <time>2017-07-16T11:03:18Z</time>
      </trkpt>
      <trkpt lat="45.92822" lon="4.73771">
        <ele>173</ele>
        <time>2017-07-16T11:03:19Z</time>
      </trkpt>
      <trkpt lat="45.92817" lon="4.73768">
        <ele>173</ele>
        <time>2017-07-16T11:03:20Z</time>
      </trkpt>
      <trkpt lat="45.92813" lon="4.73766">
        <ele>173</ele>
        <time>2017-07-16T11:03:21Z</time>
      </trkpt>
      <trkpt lat="45.92809" lon="4.73763">
        <ele>173</ele>
        <time>2017-07-16T11:03:22Z</time>
      </trkpt>
      <trkpt lat="45.92801" lon="4.73759">
        <ele>173</ele>
        <time>2017-07-16T11:03:24Z</time>
      </trkpt>
      <trkpt lat="45.92798" lon="4.73757">
        <ele>173</ele>
        <time>2017-07-16T11:03:25Z</time>
      </trkpt>
      <trkpt lat="45.92789" lon="4.73753">
        <ele>173</ele>
        <time>2017-07-16T11:03:27Z</time>
      </trkpt>
      <trkpt lat="45.92786" lon="4.7375">
        <ele>173</ele>
        <time>2017-07-16T11:03:28Z</time>
      </trkpt>
      <trkpt lat="45.92781" lon="4.73742">
        <ele>172</ele>
        <time>2017-07-16T11:03:30Z</time>
      </trkpt>
      <trkpt lat="45.92778" lon="4.73737">
        <ele>172</ele>
        <time>2017-07-16T11:03:31Z</time>
      </trkpt>
      <trkpt lat="45.92774" lon="4.73733">
        <ele>172</ele>
        <time>2017-07-16T11:03:32Z</time>
      </trkpt>
      <trkpt lat="45.92769" lon="4.7373">
        <ele>172</ele>
        <time>2017-07-16T11:03:33Z</time>
      </trkpt>
      <trkpt lat="45.92765" lon="4.73728">
        <ele>172</ele>
        <time>2017-07-16T11:03:34Z</time>
      </trkpt>
      <trkpt lat="45.9276" lon="4.73727">
        <ele>172</ele>
        <time>2017-07-16T11:03:35Z</time>
      </trkpt>
      <trkpt lat="45.92755" lon="4.73725">
        <ele>172</ele>
        <time>2017-07-16T11:03:36Z</time>
      </trkpt>
      <trkpt lat="45.9275" lon="4.73724">
        <ele>172</ele>
        <time>2017-07-16T11:03:37Z</time>
      </trkpt>
      <trkpt lat="45.92745" lon="4.73722">
        <ele>173</ele>
        <time>2017-07-16T11:03:38Z</time>
      </trkpt>
      <trkpt lat="45.9274" lon="4.7372">
        <ele>173</ele>
        <time>2017-07-16T11:03:39Z</time>
      </trkpt>
      <trkpt lat="45.92736" lon="4.73718">
        <ele>173</ele>
        <time>2017-07-16T11:03:40Z</time>
      </trkpt>
      <trkpt lat="45.92731" lon="4.73717">
        <ele>173</ele>
        <time>2017-07-16T11:03:41Z</time>
      </trkpt>
      <trkpt lat="45.92725" lon="4.73716">
        <ele>173</ele>
        <time>2017-07-16T11:03:42Z</time>
      </trkpt>
      <trkpt lat="45.9272" lon="4.73714">
        <ele>173</ele>
        <time>2017-07-16T11:03:43Z</time>
      </trkpt>
      <trkpt lat="45.92716" lon="4.73713">
        <ele>173</ele>
        <time>2017-07-16T11:03:44Z</time>
      </trkpt>
      <trkpt lat="45.92711" lon="4.7371">
        <ele>173</ele>
        <time>2017-07-16T11:03:45Z</time>
      </trkpt>
      <trkpt lat="45.92707" lon="4.73708">
        <ele>173</ele>
        <time>2017-07-16T11:03:46Z</time>
      </trkpt>
      <trkpt lat="45.92702" lon="4.73707">
        <ele>173</ele>
        <time>2017-07-16T11:03:47Z</time>
      </trkpt>
      <trkpt lat="45.92697" lon="4.73706">
        <ele>173</ele>
        <time>2017-07-16T11:03:48Z</time>
      </trkpt>
      <trkpt lat="45.92693" lon="4.73705">
        <ele>173</ele>
        <time>2017-07-16T11:03:49Z</time>
      </trkpt>
      <trkpt lat="45.92684" lon="4.73702">
        <ele>173</ele>
        <time>2017-07-16T11:03:51Z</time>
      </trkpt>
      <trkpt lat="45.9268" lon="4.737">
        <ele>173</ele>
        <time>2017-07-16T11:03:52Z</time>
      </trkpt>
      <trkpt lat="45.92672" lon="4.73698">
        <ele>174</ele>
        <time>2017-07-16T11:03:54Z</time>
      </trkpt>
      <trkpt lat="45.92669" lon="4.73696">
        <ele>174</ele>
        <time>2017-07-16T11:03:55Z</time>
      </trkpt>
      <trkpt lat="45.92661" lon="4.73692">
        <ele>173</ele>
        <time>2017-07-16T11:03:57Z</time>
      </trkpt>
      <trkpt lat="45.92657" lon="4.73689">
        <ele>173</ele>
        <time>2017-07-16T11:03:58Z</time>
      </trkpt>
      <trkpt lat="45.92653" lon="4.73685">
        <ele>173</ele>
        <time>2017-07-16T11:03:59Z</time>
      </trkpt>
      <trkpt lat="45.92648" lon="4.73681">
        <ele>173</ele>
        <time>2017-07-16T11:04:00Z</time>
      </trkpt>
      <trkpt lat="45.92643" lon="4.73678">
        <ele>173</ele>
        <time>2017-07-16T11:04:01Z</time>
      </trkpt>
      <trkpt lat="45.92639" lon="4.73673">
        <ele>173</ele>
        <time>2017-07-16T11:04:02Z</time>
      </trkpt>
      <trkpt lat="45.92635" lon="4.73668">
        <ele>173</ele>
        <time>2017-07-16T11:04:03Z</time>
      </trkpt>
      <trkpt lat="45.92633" lon="4.73663">
        <ele>173</ele>
        <time>2017-07-16T11:04:04Z</time>
      </trkpt>
      <trkpt lat="45.9263" lon="4.73657">
        <ele>173</ele>
        <time>2017-07-16T11:04:05Z</time>
      </trkpt>
      <trkpt lat="45.92627" lon="4.73651">
        <ele>173</ele>
        <time>2017-07-16T11:04:06Z</time>
      </trkpt>
      <trkpt lat="45.92625" lon="4.73646">
        <ele>173</ele>
        <time>2017-07-16T11:04:07Z</time>
      </trkpt>
      <trkpt lat="45.92623" lon="4.7364">
        <ele>173</ele>
        <time>2017-07-16T11:04:08Z</time>
      </trkpt>
      <trkpt lat="45.9262" lon="4.73634">
        <ele>173</ele>
        <time>2017-07-16T11:04:09Z</time>
      </trkpt>
      <trkpt lat="45.92616" lon="4.73629">
        <ele>173</ele>
        <time>2017-07-16T11:04:10Z</time>
      </trkpt>
      <trkpt lat="45.92613" lon="4.73626">
        <ele>173</ele>
        <time>2017-07-16T11:04:11Z</time>
      </trkpt>
      <trkpt lat="45.92609" lon="4.73622">
        <ele>173</ele>
        <time>2017-07-16T11:04:12Z</time>
      </trkpt>
      <trkpt lat="45.92604" lon="4.7362">
        <ele>173</ele>
        <time>2017-07-16T11:04:13Z</time>
      </trkpt>
      <trkpt lat="45.926" lon="4.73618">
        <ele>173</ele>
        <time>2017-07-16T11:04:14Z</time>
      </trkpt>
      <trkpt lat="45.92595" lon="4.73618">
        <ele>173</ele>
        <time>2017-07-16T11:04:15Z</time>
      </trkpt>
      <trkpt lat="45.9259" lon="4.73618">
        <ele>173</ele>
        <time>2017-07-16T11:04:16Z</time>
      </trkpt>
      <trkpt lat="45.92585" lon="4.73619">
        <ele>173</ele>
        <time>2017-07-16T11:04:17Z</time>
      </trkpt>
      <trkpt lat="45.92579" lon="4.73621">
        <ele>173</ele>
        <time>2017-07-16T11:04:18Z</time>
      </trkpt>
      <trkpt lat="45.92573" lon="4.73622">
        <ele>173</ele>
        <time>2017-07-16T11:04:19Z</time>
      </trkpt>
      <trkpt lat="45.92568" lon="4.73624">
        <ele>173</ele>
        <time>2017-07-16T11:04:20Z</time>
      </trkpt>
      <trkpt lat="45.92563" lon="4.73624">
        <ele>173</ele>
        <time>2017-07-16T11:04:21Z</time>
      </trkpt>
      <trkpt lat="45.92558" lon="4.73626">
        <ele>173</ele>
        <time>2017-07-16T11:04:22Z</time>
      </trkpt>
      <trkpt lat="45.92554" lon="4.73629">
        <ele>173</ele>
        <time>2017-07-16T11:04:23Z</time>
      </trkpt>
      <trkpt lat="45.9255" lon="4.73631">
        <ele>173</ele>
        <time>2017-07-16T11:04:24Z</time>
      </trkpt>
      <trkpt lat="45.92545" lon="4.73633">
        <ele>173</ele>
        <time>2017-07-16T11:04:25Z</time>
      </trkpt>
      <trkpt lat="45.9254" lon="4.73634">
        <ele>173</ele>
        <time>2017-07-16T11:04:26Z</time>
      </trkpt>
      <trkpt lat="45.92534" lon="4.73634">
        <ele>173</ele>
        <time>2017-07-16T11:04:27Z</time>
      </trkpt>
      <trkpt lat="45.92529" lon="4.73635">
        <ele>173</ele>
        <time>2017-07-16T11:04:28Z</time>
      </trkpt>
      <trkpt lat="45.92524" lon="4.73636">
        <ele>173</ele>
        <time>2017-07-16T11:04:29Z</time>
      </trkpt>
      <trkpt lat="45.92519" lon="4.73637">
        <ele>173</ele>
        <time>2017-07-16T11:04:30Z</time>
      </trkpt>
      <trkpt lat="45.92514" lon="4.73638">
        <ele>173</ele>
        <time>2017-07-16T11:04:31Z</time>
      </trkpt>
      <trkpt lat="45.9251" lon="4.73638">
        <ele>174</ele>
        <time>2017-07-16T11:04:32Z</time>
      </trkpt>
      <trkpt lat="45.92501" lon="4.73638">
        <ele>174</ele>
        <time>2017-07-16T11:04:34Z</time>
      </trkpt>
      <trkpt lat="45.92497" lon="4.73638">
        <ele>174</ele>
        <time>2017-07-16T11:04:35Z</time>
      </trkpt>
      <trkpt lat="45.92489" lon="4.73637">
        <ele>174</ele>
        <time>2017-07-16T11:04:37Z</time>
      </trkpt>
      <trkpt lat="45.92485" lon="4.73637">
        <ele>174</ele>
        <time>2017-07-16T11:04:38Z</time>
      </trkpt>
      <trkpt lat="45.92477" lon="4.73638">
        <ele>174</ele>
        <time>2017-07-16T11:04:40Z</time>
      </trkpt>
      <trkpt lat="45.92474" lon="4.73639">
        <ele>174</ele>
        <time>2017-07-16T11:04:41Z</time>
      </trkpt>
      <trkpt lat="45.92468" lon="4.73646">
        <ele>174</ele>
        <time>2017-07-16T11:04:43Z</time>
      </trkpt>
      <trkpt lat="45.92467" lon="4.73651">
        <ele>174</ele>
        <time>2017-07-16T11:04:44Z</time>
      </trkpt>
      <trkpt lat="45.92466" lon="4.73661">
        <ele>174</ele>
        <time>2017-07-16T11:04:46Z</time>
      </trkpt>
      <trkpt lat="45.92466" lon="4.73665">
        <ele>174</ele>
        <time>2017-07-16T11:04:47Z</time>
      </trkpt>
      <trkpt lat="45.92464" lon="4.73675">
        <ele>174</ele>
        <time>2017-07-16T11:04:49Z</time>
      </trkpt>
      <trkpt lat="45.92464" lon="4.73679">
        <ele>174</ele>
        <time>2017-07-16T11:04:50Z</time>
      </trkpt>
      <trkpt lat="45.92462" lon="4.73689">
        <ele>174</ele>
        <time>2017-07-16T11:04:52Z</time>
      </trkpt>
      <trkpt lat="45.92462" lon="4.73693">
        <ele>174</ele>
        <time>2017-07-16T11:04:53Z</time>
      </trkpt>
      <trkpt lat="45.92461" lon="4.73701">
        <ele>174</ele>
        <time>2017-07-16T11:04:56Z</time>
      </trkpt>
      <trkpt lat="45.92461" lon="4.73703">
        <ele>174</ele>
        <time>2017-07-16T11:04:57Z</time>
      </trkpt>
      <trkpt lat="45.92457" lon="4.73705">
        <ele>174</ele>
        <time>2017-07-16T11:05:07Z</time>
      </trkpt>
      <trkpt lat="45.92457" lon="4.73706">
        <ele>174</ele>
        <time>2017-07-16T11:05:08Z</time>
      </trkpt>
      <trkpt lat="45.92456" lon="4.73707">
        <ele>174</ele>
        <time>2017-07-16T11:05:22.539Z</time>
      </trkpt>
    </trkseg>
  </trk>
</gpx>